Hoppmann, Mario; Tippenhauer, Sandra; Rohde, Sven (2026): Continuous thermosalinograph oceanography along RV HEINCKE cruise track HE659 [dataset]. Alfred Wegener Institute, Helmholtz Centre for Polar and Marine Research, Bremerhaven, PANGAEA, https://doi.pangaea.de/10.1594/PANGAEA.993555 (DOI registration in progress)
Always quote citation above when using data! You can download the citation in several formats below.
Published: 2026-05-05
Abstract:
Raw data acquired by a thermosalinograph (SBE21, Sea-Bird GmbH) in combination with an external temperature sensor (SBE38, Sea-Bird GmbH) aboard RV Heincke were processed to generate a calibrated, quality-controlled dataset of seawater temperature and salinity. The raw sensor data were initially retrieved from the DSHIP database (https://dship.awi.de) at a temporal resolution of 1 second and converted into temperature and conductivity using the pre-deployment calibration coefficients. The thermosalinograph system aboard RV Heincke is typically replaced after each expedition season, with a recalibration conducted at the manufacturer's facilities after each exchange. After post-cruise recalibration of the instruments, additional correction factors were calculated and applied to account for sensor drift. Salinity was calculated from internally measured temperatures and conductivities following the Practical Salinity Scale (PSS-78). The processed dataset is provided as 1-minute averages of salinity and seawater external temperature, synchronized with the positional data from the expedition's master track. Quality flags were assigned in accordance with the SeaDataNet Data Quality Control Procedures (May 2010).
Related to:
Hoppmann, Mario; Tippenhauer, Sandra (2026): Continuous thermosalinograph oceanography along RV HEINCKE cruise track HE659 - Data Processing Report. FIELAX - Gesellschaft für wissenschaftliche Datenverarbeitung mbH, HE659_TSG_nav.pdf
Rohde, Sven (2025): Master tracks in different resolutions of HEINCKE cruise HE659, Bremerhaven - Bremerhaven, 2025-04-14 - 2025-04-29 [dataset]. Alfred Wegener Institute, Helmholtz Centre for Polar and Marine Research, Bremerhaven, PANGAEA, https://doi.org/10.1594/PANGAEA.982622
Rohde, Sven; Neumann, Andreas; Minutolo, Fabrizio; Hoffmann, Jasper; Sander, Lasse; Breyer, Gavin; Bartholomä, Alexander (2025): MGF North Sea II: Effects of the exclusion of bottom-contact fishing on benthic habitats in the Natura 2000 sites 'Sylt Outer Reef' and 'Borkum Reef Ground', Cruise No. HE659, 14.04. - 29.04.2025, Bremerhaven (Germany) - Bremerhaven (Germany). HEINCKE-Berichte, Begutachtungspanel Forschungsschiffe, HE659, 54 pp, https://doi.org/10.48433/cr_he659
Project(s):
DAM Underway Research Data (DAM_Underway)
Physical Oceanography @ AWI (AWI_PhyOce)
Coverage:
Median Latitude: 54.248902 * Median Longitude: 6.862711 * South-bound Latitude: 53.722014 * West-bound Longitude: 6.167827 * North-bound Latitude: 55.139644 * East-bound Longitude: 8.121282
Date/Time Start: 2025-04-14T08:58:00 * Date/Time End: 2025-04-29T00:56:00
Minimum DEPTH, water: 2.0 m * Maximum DEPTH, water: 2.0 m
Event(s):
HE659_0_Underway-3 * Latitude Start: 53.797357 * Longitude Start: 8.142469 * Latitude End: 53.853629 * Longitude End: 7.950753 * Date/Time Start: 2025-04-14T08:43:01 * Date/Time End: 2025-04-29T00:54:38 * Elevation Start: -13.0 m * Elevation End: -18.0 m * O2A Registry URI: https://registry.o2a-data.de/items/8558 * Campaign: HE659 (MGFNorthSea-II) * Basis: Heincke * Method/Device: Thermosalinograph (TSG)
Parameter(s):
License:
Creative Commons Attribution 4.0 International (CC-BY-4.0)
Status:
Curation Level: Enhanced curation (CurationLevelC) * Processing Level: PANGAEA data processing level 2 (ProcLevel2)
Size:
126594 data points
Data
| 1 Date/Time | 2 Latitude | 3 Longitude | 4 Depth water [m] | 5 Temp [°C] | 6 QF water temp | 7 Cond [mS/cm] | 8 T intern [°C] | 9 Sal | 10 QF sal |
|---|---|---|---|---|---|---|---|---|---|
| 2025-04-14T08:58:00 | 53.828507 | 8.118229 | 2.0 | 9.341 | 2 | 33.313 | 9.765 | 30.350 | 2 |
| 2025-04-14T08:59:00 | 53.831053 | 8.118756 | 2.0 | 9.383 | 2 | 33.176 | 9.647 | 30.311 | 2 |
| 2025-04-14T09:00:00 | 53.833600 | 8.118660 | 2.0 | 9.400 | 2 | 33.111 | 9.645 | 30.247 | 2 |
| 2025-04-14T09:01:00 | 53.836215 | 8.118756 | 2.0 | 9.323 | 2 | 33.072 | 9.628 | 30.222 | 2 |
| 2025-04-14T09:02:00 | 53.838877 | 8.119052 | 2.0 | 9.171 | 2 | 33.160 | 9.538 | 30.387 | 2 |
| 2025-04-14T09:03:00 | 53.841539 | 8.119336 | 2.0 | 9.005 | 2 | 33.381 | 9.369 | 30.756 | 2 |
| 2025-04-14T09:04:00 | 53.844139 | 8.119531 | 2.0 | 9.023 | 2 | 33.608 | 9.221 | 31.117 | 2 |
| 2025-04-14T09:05:00 | 53.846717 | 8.119627 | 2.0 | 9.072 | 2 | 33.503 | 9.232 | 30.999 | 2 |
| 2025-04-14T09:06:00 | 53.849308 | 8.119987 | 2.0 | 9.304 | 2 | 33.287 | 9.333 | 30.691 | 2 |
| 2025-04-14T09:07:00 | 53.851909 | 8.120142 | 2.0 | 9.301 | 2 | 32.999 | 9.487 | 30.266 | 2 |
| 2025-04-14T09:08:00 | 53.854583 | 8.120506 | 2.0 | 9.228 | 2 | 32.939 | 9.482 | 30.210 | 2 |
| 2025-04-14T09:09:00 | 53.857283 | 8.120803 | 2.0 | 8.867 | 2 | 33.142 | 9.371 | 30.510 | 2 |
| 2025-04-14T09:10:00 | 53.859925 | 8.121282 | 2.0 | 8.664 | 2 | 33.579 | 9.058 | 31.229 | 2 |
| 2025-04-14T09:11:00 | 53.862409 | 8.121185 | 2.0 | 8.618 | 2 | 33.744 | 8.858 | 31.577 | 2 |
| 2025-04-14T09:12:00 | 53.864745 | 8.120217 | 2.0 | 8.613 | 2 | 33.725 | 8.819 | 31.592 | 2 |
| 2025-04-14T09:13:00 | 53.867030 | 8.118968 | 2.0 | 8.596 | 2 | 33.714 | 8.811 | 31.587 | 2 |
| 2025-04-14T09:14:00 | 53.869269 | 8.117584 | 2.0 | 8.575 | 2 | 33.700 | 8.790 | 31.591 | 2 |
| 2025-04-14T09:15:00 | 53.871428 | 8.115904 | 2.0 | 8.574 | 2 | 33.684 | 8.771 | 31.592 | 2 |
| 2025-04-14T09:16:00 | 53.873609 | 8.114193 | 2.0 | 8.569 | 2 | 33.682 | 8.768 | 31.592 | 2 |
| 2025-04-14T09:17:00 | 53.875793 | 8.112383 | 2.0 | 8.558 | 2 | 33.683 | 8.763 | 31.598 | 2 |
| 2025-04-14T09:18:00 | 53.877896 | 8.110273 | 2.0 | 8.554 | 2 | 33.691 | 8.750 | 31.618 | 2 |
| 2025-04-14T09:19:00 | 53.879840 | 8.107898 | 2.0 | 8.560 | 2 | 33.709 | 8.748 | 31.638 | 2 |
| 2025-04-14T09:20:00 | 53.881125 | 8.104582 | 2.0 | 8.517 | 2 | 33.715 | 8.744 | 31.648 | 2 |
| 2025-04-14T09:21:00 | 53.882238 | 8.100967 | 2.0 | 8.484 | 2 | 33.710 | 8.705 | 31.678 | 2 |
| 2025-04-14T09:22:00 | 53.883399 | 8.097304 | 2.0 | 8.446 | 2 | 33.701 | 8.671 | 31.699 | 2 |
| 2025-04-14T09:23:00 | 53.884611 | 8.093682 | 2.0 | 8.389 | 2 | 33.713 | 8.631 | 31.747 | 2 |
| 2025-04-14T09:24:00 | 53.885816 | 8.090056 | 2.0 | 8.341 | 2 | 33.731 | 8.574 | 31.817 | 2 |
| 2025-04-14T09:25:00 | 53.887041 | 8.086489 | 2.0 | 8.300 | 2 | 33.751 | 8.526 | 31.882 | 2 |
| 2025-04-14T09:26:00 | 53.888216 | 8.082874 | 2.0 | 8.279 | 2 | 33.753 | 8.489 | 31.917 | 2 |
| 2025-04-14T09:27:00 | 53.889370 | 8.079222 | 2.0 | 8.234 | 2 | 33.760 | 8.462 | 31.949 | 2 |
| 2025-04-14T09:28:00 | 53.890574 | 8.075595 | 2.0 | 8.191 | 2 | 33.759 | 8.422 | 31.984 | 2 |
| 2025-04-14T09:29:00 | 53.891787 | 8.071927 | 2.0 | 8.146 | 2 | 33.757 | 8.377 | 32.023 | 2 |
| 2025-04-14T09:30:00 | 53.893001 | 8.068208 | 2.0 | 8.114 | 2 | 33.753 | 8.335 | 32.057 | 2 |
| 2025-04-14T09:31:00 | 53.894206 | 8.064539 | 2.0 | 8.108 | 2 | 33.754 | 8.311 | 32.080 | 2 |
| 2025-04-14T09:32:00 | 53.895406 | 8.060866 | 2.0 | 8.091 | 2 | 33.753 | 8.296 | 32.093 | 2 |
| 2025-04-14T09:33:00 | 53.896641 | 8.057230 | 2.0 | 8.080 | 2 | 33.750 | 8.281 | 32.103 | 2 |
| 2025-04-14T09:34:00 | 53.897822 | 8.053537 | 2.0 | 8.074 | 2 | 33.744 | 8.268 | 32.109 | 2 |
| 2025-04-14T09:35:00 | 53.899017 | 8.049853 | 2.0 | 8.081 | 2 | 33.737 | 8.266 | 32.103 | 2 |
| 2025-04-14T09:36:00 | 53.900337 | 8.046293 | 2.0 | 8.069 | 2 | 33.733 | 8.267 | 32.098 | 2 |
| 2025-04-14T09:37:00 | 53.901672 | 8.042685 | 2.0 | 8.068 | 2 | 33.723 | 8.260 | 32.094 | 2 |
| 2025-04-14T09:38:00 | 53.902986 | 8.039031 | 2.0 | 8.060 | 2 | 33.717 | 8.256 | 32.091 | 2 |
| 2025-04-14T09:39:00 | 53.904473 | 8.035569 | 2.0 | 8.047 | 2 | 33.712 | 8.248 | 32.093 | 2 |
| 2025-04-14T09:40:00 | 53.905957 | 8.032068 | 2.0 | 8.034 | 2 | 33.705 | 8.235 | 32.098 | 2 |
| 2025-04-14T09:41:00 | 53.907446 | 8.028547 | 2.0 | 8.023 | 2 | 33.698 | 8.222 | 32.102 | 2 |
| 2025-04-14T09:42:00 | 53.908973 | 8.025052 | 2.0 | 8.031 | 2 | 33.690 | 8.213 | 32.102 | 2 |
| 2025-04-14T09:43:00 | 53.910472 | 8.021508 | 2.0 | 8.015 | 2 | 33.691 | 8.218 | 32.098 | 2 |
| 2025-04-14T09:44:00 | 53.911996 | 8.017950 | 2.0 | 7.997 | 2 | 33.683 | 8.201 | 32.105 | 2 |
| 2025-04-14T09:45:00 | 53.913502 | 8.014358 | 2.0 | 7.973 | 2 | 33.676 | 8.186 | 32.112 | 2 |
| 2025-04-14T09:46:00 | 53.915050 | 8.010768 | 2.0 | 7.920 | 2 | 33.670 | 8.158 | 32.131 | 2 |
| 2025-04-14T09:47:00 | 53.916622 | 8.007216 | 2.0 | 7.756 | 2 | 33.530 | 8.070 | 32.063 | 2 |
| 2025-04-14T09:48:00 | 53.918161 | 8.003637 | 2.0 | 7.703 | 2 | 33.643 | 7.949 | 32.295 | 2 |
| 2025-04-14T09:49:00 | 53.919682 | 8.000024 | 2.0 | 7.654 | 2 | 33.246 | 7.889 | 31.927 | 2 |
| 2025-04-14T09:50:00 | 53.921216 | 7.996450 | 2.0 | 7.605 | 2 | 33.630 | 7.837 | 32.385 | 2 |
| 2025-04-14T09:51:00 | 53.922762 | 7.992887 | 2.0 | 7.578 | 2 | 33.618 | 7.794 | 32.412 | 2 |
| 2025-04-14T09:52:00 | 53.924292 | 7.989321 | 2.0 | 7.555 | 2 | 32.957 | 7.767 | 31.730 | 2 |
| 2025-04-14T09:53:00 | 53.925961 | 7.985957 | 2.0 | 7.532 | 2 | 33.626 | 7.742 | 32.469 | 2 |
| 2025-04-14T09:54:00 | 53.927992 | 7.983232 | 2.0 | 7.519 | 2 | 32.863 | 7.721 | 31.672 | 2 |
| 2025-04-14T09:55:00 | 53.930321 | 7.981086 | 2.0 | 7.512 | 2 | 32.842 | 7.707 | 31.662 | 2 |
| 2025-04-14T09:56:00 | 53.932741 | 7.979132 | 2.0 | 7.504 | 2 | 33.641 | 7.702 | 32.522 | 2 |
| 2025-04-14T09:57:00 | 53.935189 | 7.977189 | 2.0 | 7.499 | 2 | 33.385 | 7.694 | 32.255 | 2 |
| 2025-04-14T09:58:00 | 53.937649 | 7.975263 | 2.0 | 7.484 | 2 | 33.409 | 7.686 | 32.288 | 2 |
| 2025-04-14T09:59:00 | 53.940126 | 7.973354 | 2.0 | 7.480 | 2 | 32.613 | 7.674 | 31.447 | 2 |
| 2025-04-14T10:00:00 | 53.942613 | 7.971469 | 2.0 | 7.481 | 2 | 33.028 | 7.671 | 31.894 | 2 |
| 2025-04-14T10:01:00 | 53.945120 | 7.969608 | 2.0 | 7.495 | 2 | 33.664 | 7.672 | 32.575 | 2 |
| 2025-04-14T10:02:00 | 53.947633 | 7.967807 | 2.0 | 7.495 | 2 | 33.174 | 7.684 | 32.038 | 2 |
| 2025-04-14T10:03:00 | 53.950148 | 7.966043 | 2.0 | 7.479 | 2 | 32.834 | 7.687 | 31.672 | 2 |
| 2025-04-14T10:04:00 | 53.952669 | 7.964284 | 2.0 | 7.491 | 2 | 33.232 | 7.677 | 32.107 | 2 |
| 2025-04-14T10:05:00 | 53.955159 | 7.962462 | 2.0 | 7.506 | 2 | 33.199 | 7.684 | 32.065 | 2 |
| 2025-04-14T10:06:00 | 53.957635 | 7.960584 | 2.0 | 7.528 | 2 | 33.324 | 7.691 | 32.192 | 2 |
| 2025-04-14T10:07:00 | 53.960113 | 7.958715 | 2.0 | 7.539 | 2 | 33.575 | 7.718 | 32.436 | 2 |
| 2025-04-14T10:08:00 | 53.962591 | 7.956843 | 2.0 | 7.576 | 2 | 33.219 | 7.726 | 32.048 | 2 |
| 2025-04-14T10:09:00 | 53.965067 | 7.954989 | 2.0 | 7.642 | 2 | 33.397 | 7.778 | 32.190 | 2 |
| 2025-04-14T10:10:00 | 53.967546 | 7.953155 | 2.0 | 7.620 | 2 | 33.282 | 7.819 | 32.030 | 2 |
| 2025-04-14T10:11:00 | 53.970022 | 7.951313 | 2.0 | 7.614 | 2 | 33.318 | 7.802 | 32.084 | 2 |
| 2025-04-14T10:12:00 | 53.972463 | 7.949383 | 2.0 | 7.610 | 2 | 33.616 | 7.799 | 32.405 | 2 |
| 2025-04-14T10:13:00 | 53.974863 | 7.947331 | 2.0 | 7.610 | 2 | 33.403 | 7.796 | 32.180 | 2 |
| 2025-04-14T10:14:00 | 53.977260 | 7.945279 | 2.0 | 7.605 | 2 | 33.410 | 7.796 | 32.187 | 2 |
| 2025-04-14T10:15:00 | 53.979665 | 7.943221 | 2.0 | 7.593 | 2 | 33.599 | 7.789 | 32.396 | 2 |
| 2025-04-14T10:16:00 | 53.982058 | 7.941136 | 2.0 | 7.570 | 2 | 33.445 | 7.771 | 32.248 | 2 |
| 2025-04-14T10:17:00 | 53.984364 | 7.938891 | 2.0 | 7.545 | 2 | 33.545 | 7.750 | 32.374 | 2 |
| 2025-04-14T10:18:00 | 53.986662 | 7.936637 | 2.0 | 7.507 | 2 | 33.539 | 7.725 | 32.391 | 2 |
| 2025-04-14T10:19:00 | 53.988975 | 7.934368 | 2.0 | 7.471 | 2 | 33.385 | 7.693 | 32.256 | 2 |
| 2025-04-14T10:20:00 | 53.991288 | 7.932080 | 2.0 | 7.471 | 2 | 33.593 | 7.662 | 32.508 | 2 |
| 2025-04-14T10:21:00 | 53.993606 | 7.929793 | 2.0 | 7.434 | 2 | 33.501 | 7.652 | 32.418 | 2 |
| 2025-04-14T10:22:00 | 53.995910 | 7.927508 | 2.0 | 7.396 | 2 | 33.392 | 7.614 | 32.337 | 2 |
| 2025-04-14T10:23:00 | 53.998234 | 7.925197 | 2.0 | 7.410 | 2 | 33.262 | 7.582 | 32.227 | 2 |
| 2025-04-14T10:24:00 | 54.000543 | 7.922890 | 2.0 | 7.359 | 2 | 33.323 | 7.586 | 32.289 | 2 |
| 2025-04-14T10:25:00 | 54.002856 | 7.920548 | 2.0 | 7.273 | 2 | 33.535 | 7.530 | 32.569 | 2 |
| 2025-04-14T10:26:00 | 54.005179 | 7.918169 | 2.0 | 7.272 | 2 | 33.279 | 7.473 | 32.347 | 2 |
| 2025-04-14T10:27:00 | 54.007496 | 7.915768 | 2.0 | 7.235 | 2 | 33.529 | 7.463 | 32.626 | 2 |
| 2025-04-14T10:28:00 | 54.009813 | 7.913377 | 2.0 | 7.243 | 2 | 33.488 | 7.428 | 32.614 | 2 |
| 2025-04-14T10:29:00 | 54.012128 | 7.910965 | 2.0 | 7.191 | 2 | 33.385 | 7.420 | 32.511 | 2 |
| 2025-04-14T10:30:00 | 54.014440 | 7.908539 | 2.0 | 7.201 | 2 | 33.373 | 7.383 | 32.532 | 2 |
| 2025-04-14T10:31:00 | 54.016754 | 7.906111 | 2.0 | 7.219 | 2 | 33.571 | 7.395 | 32.735 | 2 |
| 2025-04-14T10:32:00 | 54.019058 | 7.903666 | 2.0 | 7.227 | 2 | 33.564 | 7.411 | 32.712 | 2 |
| 2025-04-14T10:33:00 | 54.021393 | 7.901300 | 2.0 | 7.219 | 2 | 33.554 | 7.412 | 32.701 | 2 |
| 2025-04-14T10:34:00 | 54.023751 | 7.898976 | 2.0 | 7.269 | 2 | 33.395 | 7.416 | 32.525 | 2 |
| 2025-04-14T10:35:00 | 54.026113 | 7.896630 | 2.0 | 7.287 | 2 | 33.667 | 7.457 | 32.780 | 2 |
| 2025-04-14T10:36:00 | 54.028467 | 7.894259 | 2.0 | 7.498 | 2 | 33.463 | 7.518 | 32.503 | 2 |
| 2025-04-14T10:37:00 | 54.030833 | 7.891949 | 2.0 | 7.536 | 2 | 33.626 | 7.667 | 32.539 | 2 |
| 2025-04-14T10:38:00 | 54.033186 | 7.889590 | 2.0 | 7.539 | 2 | 33.644 | 7.710 | 32.518 | 2 |
| 2025-04-14T10:39:00 | 54.035550 | 7.887213 | 2.0 | 7.533 | 2 | 33.776 | 7.718 | 32.652 | 2 |
| 2025-04-14T10:40:00 | 54.037921 | 7.884805 | 2.0 | 7.523 | 2 | 33.601 | 7.717 | 32.465 | 2 |
| 2025-04-14T10:41:00 | 54.040308 | 7.882375 | 2.0 | 7.431 | 2 | 33.497 | 7.696 | 32.373 | 2 |
| 2025-04-14T10:42:00 | 54.042721 | 7.879998 | 2.0 | 7.381 | 2 | 33.629 | 7.606 | 32.599 | 2 |
| 2025-04-14T10:43:00 | 54.045142 | 7.877660 | 2.0 | 7.326 | 2 | 33.504 | 7.562 | 32.506 | 2 |
| 2025-04-14T10:44:00 | 54.047564 | 7.875327 | 2.0 | 7.299 | 2 | 33.624 | 7.502 | 32.691 | 2 |
| 2025-04-14T10:45:00 | 54.049965 | 7.872951 | 2.0 | 7.416 | 2 | 33.700 | 7.495 | 32.780 | 2 |
| 2025-04-14T10:46:00 | 54.052355 | 7.870474 | 2.0 | 7.394 | 2 | 33.548 | 7.594 | 32.523 | 2 |
| 2025-04-14T10:47:00 | 54.054768 | 7.867974 | 2.0 | 7.492 | 2 | 33.668 | 7.615 | 32.633 | 2 |
| 2025-04-14T10:48:00 | 54.057197 | 7.865463 | 2.0 | 7.451 | 2 | 33.690 | 7.649 | 32.624 | 2 |
| 2025-04-14T10:49:00 | 54.059607 | 7.862964 | 2.0 | 7.354 | 2 | 33.670 | 7.614 | 32.636 | 2 |
| 2025-04-14T10:50:00 | 54.062031 | 7.860505 | 2.0 | 7.352 | 2 | 33.616 | 7.552 | 32.636 | 2 |
| 2025-04-14T10:51:00 | 54.064442 | 7.858060 | 2.0 | 7.322 | 2 | 33.657 | 7.521 | 32.709 | 2 |
| 2025-04-14T10:52:00 | 54.066854 | 7.855661 | 2.0 | 7.316 | 2 | 33.656 | 7.497 | 32.731 | 2 |
| 2025-04-14T10:53:00 | 54.069272 | 7.853290 | 2.0 | 7.312 | 2 | 33.679 | 7.501 | 32.752 | 2 |
| 2025-04-14T10:54:00 | 54.071687 | 7.850940 | 2.0 | 7.295 | 2 | 33.662 | 7.491 | 32.743 | 2 |
| 2025-04-14T10:55:00 | 54.074098 | 7.848607 | 2.0 | 7.265 | 2 | 33.671 | 7.477 | 32.766 | 2 |
| 2025-04-14T10:56:00 | 54.076455 | 7.846146 | 2.0 | 7.261 | 2 | 33.685 | 7.449 | 32.807 | 2 |
| 2025-04-14T10:57:00 | 54.078795 | 7.843641 | 2.0 | 7.309 | 2 | 33.689 | 7.448 | 32.813 | 2 |
| 2025-04-14T10:58:00 | 54.081134 | 7.841138 | 2.0 | 7.308 | 2 | 33.734 | 7.496 | 32.816 | 2 |
| 2025-04-14T10:59:00 | 54.083478 | 7.838622 | 2.0 | 7.252 | 2 | 33.762 | 7.476 | 32.865 | 2 |
| 2025-04-14T11:00:00 | 54.085822 | 7.836090 | 2.0 | 7.298 | 2 | 33.762 | 7.464 | 32.876 | 2 |
| 2025-04-14T11:01:00 | 54.088171 | 7.833547 | 2.0 | 7.240 | 2 | 33.770 | 7.465 | 32.884 | 2 |
| 2025-04-14T11:02:00 | 54.090527 | 7.830998 | 2.0 | 7.190 | 2 | 33.730 | 7.422 | 32.882 | 2 |
| 2025-04-14T11:03:00 | 54.092902 | 7.828450 | 2.0 | 7.231 | 2 | 33.729 | 7.398 | 32.903 | 2 |
| 2025-04-14T11:04:00 | 54.095273 | 7.825904 | 2.0 | 7.215 | 2 | 33.760 | 7.411 | 32.924 | 2 |
| 2025-04-14T11:05:00 | 54.097666 | 7.823353 | 2.0 | 7.327 | 2 | 33.782 | 7.408 | 32.951 | 2 |
| 2025-04-14T11:06:00 | 54.100077 | 7.820791 | 2.0 | 7.426 | 2 | 33.906 | 7.537 | 32.963 | 2 |
| 2025-04-14T11:07:00 | 54.102481 | 7.818195 | 2.0 | 7.387 | 2 | 34.010 | 7.583 | 33.031 | 2 |
| 2025-04-14T11:08:00 | 54.104862 | 7.815570 | 2.0 | 7.339 | 2 | 34.058 | 7.567 | 33.098 | 2 |
| 2025-04-14T11:09:00 | 54.107223 | 7.812910 | 2.0 | 7.319 | 2 | 34.053 | 7.515 | 33.142 | 2 |
| 2025-04-14T11:10:00 | 54.109566 | 7.810242 | 2.0 | 7.204 | 2 | 34.057 | 7.485 | 33.175 | 2 |
| 2025-04-14T11:11:00 | 54.111958 | 7.807714 | 2.0 | 7.198 | 2 | 33.879 | 7.389 | 33.074 | 2 |
| 2025-04-14T11:12:00 | 54.114344 | 7.805179 | 2.0 | 7.240 | 2 | 34.114 | 7.394 | 33.324 | 2 |
| 2025-04-14T11:13:00 | 54.116674 | 7.802540 | 2.0 | 7.320 | 2 | 34.148 | 7.428 | 33.328 | 2 |
| 2025-04-14T11:14:00 | 54.119057 | 7.800107 | 2.0 | 7.299 | 2 | 34.214 | 7.513 | 33.318 | 2 |
| 2025-04-14T11:15:00 | 54.121443 | 7.797640 | 2.0 | 7.144 | 2 | 34.176 | 7.433 | 33.354 | 2 |
| 2025-04-14T11:16:00 | 54.123862 | 7.795134 | 2.0 | 7.231 | 2 | 34.105 | 7.359 | 33.348 | 2 |
| 2025-04-14T11:17:00 | 54.126258 | 7.792662 | 2.0 | 7.348 | 2 | 34.151 | 7.419 | 33.340 | 2 |
| 2025-04-14T11:18:00 | 54.128626 | 7.790222 | 2.0 | 7.592 | 2 | 34.259 | 7.582 | 33.300 | 2 |
| 2025-04-14T11:19:00 | 54.130961 | 7.787819 | 2.0 | 7.622 | 2 | 34.389 | 7.764 | 33.266 | 2 |
| 2025-04-14T11:20:00 | 54.133266 | 7.785425 | 2.0 | 7.600 | 2 | 34.401 | 7.787 | 33.257 | 2 |
| 2025-04-14T11:21:00 | 54.135573 | 7.783035 | 2.0 | 7.583 | 2 | 34.388 | 7.778 | 33.252 | 2 |
| 2025-04-14T11:22:00 | 54.137875 | 7.780640 | 2.0 | 7.483 | 2 | 34.368 | 7.749 | 33.258 | 2 |
| 2025-04-14T11:23:00 | 54.140170 | 7.778216 | 2.0 | 7.546 | 2 | 34.321 | 7.683 | 33.271 | 2 |
| 2025-04-14T11:24:00 | 54.142469 | 7.775805 | 2.0 | 7.537 | 2 | 34.340 | 7.715 | 33.260 | 2 |
| 2025-04-14T11:25:00 | 54.144767 | 7.773380 | 2.0 | 7.497 | 2 | 34.334 | 7.711 | 33.258 | 2 |
| 2025-04-14T11:26:00 | 54.147064 | 7.770946 | 2.0 | 7.499 | 2 | 34.307 | 7.674 | 33.264 | 2 |
| 2025-04-14T11:27:00 | 54.149426 | 7.768664 | 2.0 | 7.560 | 2 | 34.321 | 7.699 | 33.255 | 2 |
| 2025-04-14T11:28:00 | 54.151822 | 7.766442 | 2.0 | 7.586 | 2 | 34.358 | 7.746 | 33.250 | 2 |
| 2025-04-14T11:29:00 | 54.154212 | 7.764224 | 2.0 | 7.547 | 2 | 34.376 | 7.760 | 33.256 | 2 |
| 2025-04-14T11:30:00 | 54.156624 | 7.762097 | 2.0 | 7.738 | 2 | 34.362 | 7.760 | 33.241 | 2 |
| 2025-04-14T11:31:00 | 54.159032 | 7.759859 | 2.0 | 7.918 | 2 | 34.382 | 7.931 | 33.100 | 2 |
| 2025-04-14T11:32:00 | 54.161452 | 7.757551 | 2.0 | 7.893 | 2 | 34.376 | 8.068 | 32.964 | 2 |
| 2025-04-14T11:33:00 | 54.163887 | 7.755241 | 2.0 | 7.908 | 2 | 34.319 | 8.081 | 32.891 | 2 |
| 2025-04-14T11:34:00 | 54.166336 | 7.752930 | 2.0 | 7.894 | 2 | 33.866 | 8.099 | 32.393 | 2 |
| 2025-04-14T11:35:00 | 54.168797 | 7.750639 | 2.0 | 7.971 | 2 | 34.007 | 8.097 | 32.545 | 2 |
| 2025-04-14T11:36:00 | 54.171258 | 7.748328 | 2.0 | 8.179 | 2 | 34.291 | 8.200 | 32.750 | 2 |
| 2025-04-14T11:37:00 | 54.173718 | 7.746010 | 2.0 | 8.171 | 2 | 34.175 | 8.343 | 32.495 | 2 |
| 2025-04-14T11:38:00 | 54.176184 | 7.743687 | 2.0 | 8.204 | 2 | 34.257 | 8.339 | 32.585 | 2 |
| 2025-04-14T11:39:00 | 54.178660 | 7.741364 | 2.0 | 8.202 | 2 | 33.806 | 8.373 | 32.078 | 2 |
| 2025-04-14T11:40:00 | 54.181145 | 7.739027 | 2.0 | 8.214 | 2 | 33.963 | 8.382 | 32.235 | 2 |
| 2025-04-14T11:41:00 | 54.183647 | 7.736688 | 2.0 | 8.255 | 2 | 34.267 | 8.395 | 32.544 | 2 |
| 2025-04-14T11:42:00 | 54.186134 | 7.734332 | 2.0 | 8.278 | 2 | 34.245 | 8.436 | 32.483 | 2 |
| 2025-04-14T11:43:00 | 54.188596 | 7.731986 | 2.0 | 8.312 | 2 | 34.245 | 8.467 | 32.454 | 2 |
| 2025-04-14T11:44:00 | 54.191061 | 7.729615 | 2.0 | 8.308 | 2 | 34.151 | 8.475 | 32.348 | 2 |
| 2025-04-14T11:45:00 | 54.193550 | 7.727212 | 2.0 | 8.342 | 2 | 33.998 | 8.496 | 32.168 | 2 |
| 2025-04-14T11:46:00 | 54.196040 | 7.724814 | 2.0 | 8.430 | 2 | 33.941 | 8.533 | 32.074 | 2 |
| 2025-04-14T11:47:00 | 54.198537 | 7.722419 | 2.0 | 8.469 | 2 | 33.943 | 8.599 | 32.017 | 2 |
| 2025-04-14T11:48:00 | 54.201033 | 7.720033 | 2.0 | 8.481 | 2 | 34.177 | 8.640 | 32.224 | 2 |
| 2025-04-14T11:49:00 | 54.203533 | 7.717638 | 2.0 | 8.497 | 2 | 33.709 | 8.661 | 31.716 | 2 |
| 2025-04-14T11:50:00 | 54.206044 | 7.715223 | 2.0 | 8.500 | 2 | 33.603 | 8.666 | 31.601 | 2 |
| 2025-04-14T11:51:00 | 54.208555 | 7.712801 | 2.0 | 8.476 | 2 | 34.142 | 8.674 | 32.157 | 2 |
| 2025-04-14T11:52:00 | 54.211070 | 7.710388 | 2.0 | 8.455 | 2 | 33.699 | 8.649 | 31.717 | 2 |
| 2025-04-14T11:53:00 | 54.213587 | 7.707990 | 2.0 | 8.498 | 2 | 33.934 | 8.645 | 31.966 | 2 |
| 2025-04-14T11:54:00 | 54.216116 | 7.705588 | 2.0 | 8.514 | 2 | 33.893 | 8.673 | 31.897 | 2 |
| 2025-04-14T11:55:00 | 54.218643 | 7.703184 | 2.0 | 8.500 | 2 | 33.648 | 8.683 | 31.633 | 2 |
| 2025-04-14T11:56:00 | 54.221176 | 7.700786 | 2.0 | 8.506 | 2 | 33.676 | 8.670 | 31.674 | 2 |
| 2025-04-14T11:57:00 | 54.223713 | 7.698396 | 2.0 | 8.506 | 2 | 33.816 | 8.679 | 31.812 | 2 |
| 2025-04-14T11:58:00 | 54.226256 | 7.695994 | 2.0 | 8.493 | 2 | 33.664 | 8.682 | 31.650 | 2 |
| 2025-04-14T11:59:00 | 54.228805 | 7.693597 | 2.0 | 8.525 | 2 | 34.037 | 8.681 | 32.041 | 2 |
| 2025-04-14T12:00:00 | 54.231346 | 7.691206 | 2.0 | 8.520 | 2 | 32.956 | 8.694 | 30.903 | 2 |
| 2025-04-14T12:01:00 | 54.233883 | 7.688817 | 2.0 | 8.541 | 2 | 33.556 | 8.696 | 31.525 | 2 |
| 2025-04-14T12:02:00 | 54.236426 | 7.686422 | 2.0 | 8.444 | 2 | 34.137 | 8.687 | 32.140 | 2 |
| 2025-04-14T12:03:00 | 54.238977 | 7.684019 | 2.0 | 8.412 | 2 | 34.108 | 8.630 | 32.161 | 2 |
| 2025-04-14T12:04:00 | 54.241549 | 7.681608 | 2.0 | 8.682 | 2 | 34.141 | 8.656 | 32.172 | 2 |
| 2025-04-14T12:05:00 | 54.244107 | 7.679192 | 2.0 | 8.694 | 2 | 34.304 | 8.850 | 32.166 | 2 |
| 2025-04-14T12:06:00 | 54.246697 | 7.676897 | 2.0 | 8.731 | 2 | 34.193 | 8.851 | 32.049 | 2 |
| 2025-04-14T12:07:00 | 54.249303 | 7.674719 | 2.0 | 8.809 | 2 | 33.801 | 8.931 | 31.571 | 2 |
| 2025-04-14T12:08:00 | 54.251913 | 7.672646 | 2.0 | 8.778 | 2 | 34.192 | 8.968 | 31.943 | 2 |
| 2025-04-14T12:09:00 | 54.254542 | 7.670660 | 2.0 | 8.736 | 2 | 34.130 | 8.944 | 31.900 | 2 |
| 2025-04-14T12:10:00 | 54.257185 | 7.668685 | 2.0 | 8.734 | 2 | 34.084 | 8.913 | 31.880 | 2 |
| 2025-04-14T12:11:00 | 54.259841 | 7.666697 | 2.0 | 8.729 | 2 | 34.061 | 8.905 | 31.864 | 2 |
| 2025-04-14T12:12:00 | 54.262509 | 7.664714 | 2.0 | 8.722 | 2 | 34.053 | 8.911 | 31.850 | 2 |
| 2025-04-14T12:13:00 | 54.265189 | 7.662713 | 2.0 | 8.745 | 2 | 34.006 | 8.897 | 31.814 | 2 |
| 2025-04-14T12:14:00 | 54.267864 | 7.660715 | 2.0 | 8.784 | 2 | 34.034 | 8.927 | 31.816 | 2 |
| 2025-04-14T12:15:00 | 54.270546 | 7.658711 | 2.0 | 8.827 | 2 | 34.060 | 8.958 | 31.815 | 2 |
| 2025-04-14T12:16:00 | 54.273228 | 7.656710 | 2.0 | 8.867 | 2 | 33.757 | 9.002 | 31.462 | 2 |
| 2025-04-14T12:17:00 | 54.275892 | 7.654736 | 2.0 | 8.831 | 2 | 34.100 | 9.026 | 31.796 | 2 |
| 2025-04-14T12:18:00 | 54.278607 | 7.652890 | 2.0 | 8.811 | 2 | 33.657 | 9.000 | 31.361 | 2 |
| 2025-04-14T12:19:00 | 54.281341 | 7.651133 | 2.0 | 8.812 | 2 | 33.689 | 8.988 | 31.404 | 2 |
| 2025-04-14T12:20:00 | 54.284099 | 7.649447 | 2.0 | 8.812 | 2 | 33.585 | 8.991 | 31.294 | 2 |
| 2025-04-14T12:21:00 | 54.286856 | 7.647775 | 2.0 | 8.798 | 2 | 34.022 | 8.982 | 31.754 | 2 |
| 2025-04-14T12:22:00 | 54.289648 | 7.646228 | 2.0 | 8.794 | 2 | 34.006 | 8.973 | 31.746 | 2 |
| 2025-04-14T12:23:00 | 54.292450 | 7.644693 | 2.0 | 8.786 | 2 | 33.994 | 8.967 | 31.739 | 2 |
| 2025-04-14T12:24:00 | 54.295263 | 7.643307 | 2.0 | 8.767 | 2 | 33.316 | 8.957 | 31.046 | 2 |
| 2025-04-14T12:25:00 | 54.298076 | 7.641971 | 2.0 | 8.756 | 2 | 33.396 | 8.948 | 31.137 | 2 |
| 2025-04-14T12:26:00 | 54.300907 | 7.640683 | 2.0 | 8.772 | 2 | 33.348 | 8.936 | 31.098 | 2 |
| 2025-04-14T12:27:00 | 54.303738 | 7.639388 | 2.0 | 8.820 | 2 | 33.959 | 8.953 | 31.715 | 2 |
| 2025-04-14T12:28:00 | 54.306571 | 7.638101 | 2.0 | 8.798 | 2 | 33.688 | 8.996 | 31.396 | 2 |
| 2025-04-14T12:29:00 | 54.309406 | 7.636814 | 2.0 | 8.779 | 2 | 33.513 | 8.966 | 31.242 | 2 |
| 2025-04-14T12:30:00 | 54.312251 | 7.635521 | 2.0 | 8.905 | 2 | 33.984 | 8.963 | 31.732 | 2 |
| 2025-04-14T12:31:00 | 54.315087 | 7.634225 | 2.0 | 8.846 | 2 | 34.169 | 9.081 | 31.818 | 2 |
| 2025-04-14T12:32:00 | 54.317916 | 7.632908 | 2.0 | 8.811 | 2 | 33.491 | 9.008 | 31.182 | 2 |
| 2025-04-14T12:33:00 | 54.320748 | 7.631594 | 2.0 | 8.812 | 2 | 33.544 | 8.997 | 31.247 | 2 |
| 2025-04-14T12:34:00 | 54.323582 | 7.630285 | 2.0 | 8.798 | 2 | 34.120 | 8.982 | 31.856 | 2 |
| 2025-04-14T12:35:00 | 54.326419 | 7.628966 | 2.0 | 8.832 | 2 | 33.340 | 8.966 | 31.063 | 2 |
| 2025-04-14T12:36:00 | 54.329259 | 7.627642 | 2.0 | 8.768 | 2 | 34.000 | 8.992 | 31.723 | 2 |
| 2025-04-14T12:37:00 | 54.332102 | 7.626309 | 2.0 | 8.633 | 2 | 34.175 | 8.914 | 31.974 | 2 |
| 2025-04-14T12:38:00 | 54.334938 | 7.624963 | 2.0 | 8.676 | 2 | 33.774 | 8.825 | 31.637 | 2 |
| 2025-04-14T12:39:00 | 54.337788 | 7.623634 | 2.0 | 8.741 | 2 | 33.863 | 8.868 | 31.691 | 2 |
| 2025-04-14T12:40:00 | 54.340621 | 7.622316 | 2.0 | 8.791 | 2 | 34.068 | 8.913 | 31.864 | 2 |
| 2025-04-14T12:41:00 | 54.343447 | 7.621016 | 2.0 | 8.893 | 2 | 33.707 | 8.991 | 31.420 | 2 |
| 2025-04-14T12:42:00 | 54.346269 | 7.619696 | 2.0 | 8.832 | 2 | 33.539 | 9.052 | 31.193 | 2 |
| 2025-04-14T12:43:00 | 54.349102 | 7.618349 | 2.0 | 8.851 | 2 | 33.673 | 8.998 | 31.379 | 2 |
| 2025-04-14T12:44:00 | 54.351938 | 7.616987 | 2.0 | 8.920 | 2 | 33.773 | 9.032 | 31.452 | 2 |
| 2025-04-14T12:45:00 | 54.354757 | 7.615608 | 2.0 | 8.829 | 2 | 33.812 | 9.074 | 31.456 | 2 |
| 2025-04-14T12:46:00 | 54.357598 | 7.614214 | 2.0 | 8.762 | 2 | 33.737 | 8.992 | 31.451 | 2 |
| 2025-04-14T12:47:00 | 54.360451 | 7.612802 | 2.0 | 8.740 | 2 | 33.612 | 8.945 | 31.363 | 2 |
| 2025-04-14T12:48:00 | 54.363308 | 7.611389 | 2.0 | 8.676 | 2 | 33.587 | 8.904 | 31.373 | 2 |
| 2025-04-14T12:49:00 | 54.366187 | 7.609969 | 2.0 | 8.717 | 2 | 33.559 | 8.857 | 31.386 | 2 |
| 2025-04-14T12:50:00 | 54.369064 | 7.608550 | 2.0 | 8.905 | 2 | 33.836 | 8.915 | 31.621 | 2 |
| 2025-04-14T12:51:00 | 54.371938 | 7.607095 | 2.0 | 8.903 | 2 | 33.849 | 9.066 | 31.501 | 2 |
| 2025-04-14T12:52:00 | 54.374824 | 7.605617 | 2.0 | 8.846 | 2 | 33.755 | 9.061 | 31.408 | 2 |
| 2025-04-14T12:53:00 | 54.377716 | 7.604116 | 2.0 | 8.794 | 2 | 33.539 | 9.012 | 31.228 | 2 |
| 2025-04-14T12:54:00 | 54.380592 | 7.602631 | 2.0 | 8.754 | 2 | 33.696 | 8.963 | 31.434 | 2 |
| 2025-04-14T12:55:00 | 54.383462 | 7.601152 | 2.0 | 8.741 | 2 | 33.568 | 8.933 | 31.328 | 2 |
| 2025-04-14T12:56:00 | 54.386341 | 7.599662 | 2.0 | 8.724 | 2 | 33.644 | 8.914 | 31.423 | 2 |
| 2025-04-14T12:57:00 | 54.389217 | 7.598161 | 2.0 | 8.652 | 2 | 33.605 | 8.890 | 31.404 | 2 |
| 2025-04-14T12:58:00 | 54.392094 | 7.596662 | 2.0 | 8.676 | 2 | 33.633 | 8.852 | 31.467 | 2 |
| 2025-04-14T12:59:00 | 54.394971 | 7.595138 | 2.0 | 8.668 | 2 | 33.593 | 8.853 | 31.424 | 2 |
| 2025-04-14T13:00:00 | 54.397853 | 7.593605 | 2.0 | 8.682 | 2 | 33.380 | 8.843 | 31.212 | 2 |
| 2025-04-14T13:01:00 | 54.400734 | 7.592074 | 2.0 | 8.664 | 2 | 33.495 | 8.858 | 31.318 | 2 |
| 2025-04-14T13:02:00 | 54.403611 | 7.590523 | 2.0 | 8.614 | 2 | 33.508 | 8.832 | 31.355 | 2 |
| 2025-04-14T13:03:00 | 54.406493 | 7.588977 | 2.0 | 8.565 | 2 | 33.483 | 8.778 | 31.377 | 2 |
| 2025-04-14T13:04:00 | 54.409349 | 7.587445 | 2.0 | 8.524 | 2 | 33.411 | 8.741 | 31.335 | 2 |
| 2025-04-14T13:05:00 | 54.412220 | 7.585903 | 2.0 | 8.526 | 2 | 33.423 | 8.701 | 31.382 | 2 |
| 2025-04-14T13:06:00 | 54.415107 | 7.584346 | 2.0 | 8.514 | 2 | 33.449 | 8.703 | 31.408 | 2 |
| 2025-04-14T13:07:00 | 54.417948 | 7.582597 | 2.0 | 8.445 | 2 | 33.443 | 8.687 | 31.416 | 2 |
| 2025-04-14T13:08:00 | 54.420748 | 7.580626 | 2.0 | 8.411 | 2 | 33.109 | 8.626 | 31.122 | 2 |
| 2025-04-14T13:09:00 | 54.423546 | 7.578635 | 2.0 | 8.457 | 2 | 33.594 | 8.590 | 31.660 | 2 |
| 2025-04-14T13:10:00 | 54.426381 | 7.576789 | 2.0 | 8.504 | 2 | 33.651 | 8.631 | 31.683 | 2 |
| 2025-04-14T13:11:00 | 54.429189 | 7.574978 | 2.0 | 8.383 | 2 | 33.701 | 8.654 | 31.714 | 2 |
| 2025-04-14T13:12:00 | 54.431398 | 7.573517 | 2.0 | 8.413 | 2 | 33.655 | 8.576 | 31.736 | 2 |
| 2025-04-14T13:13:00 | 54.433059 | 7.573053 | 2.0 | 8.361 | 2 | 33.658 | 8.534 | 31.777 | 2 |
| 2025-04-14T13:14:00 | 54.433343 | 7.573714 | 2.0 | 8.277 | 2 | 33.638 | 8.511 | 31.777 | 2 |
| 2025-04-14T13:15:00 | 54.433290 | 7.573850 | 2.0 | 8.345 | 2 | 33.585 | 8.472 | 31.756 | 2 |
| 2025-04-14T13:16:00 | 54.433248 | 7.573791 | 2.0 | 8.455 | 2 | 33.632 | 8.535 | 31.749 | 2 |
| 2025-04-14T13:17:00 | 54.433172 | 7.573658 | 2.0 | 8.511 | 2 | 33.716 | 8.633 | 31.749 | 2 |
| 2025-04-14T13:18:00 | 54.432965 | 7.573606 | 2.0 | 8.355 | 2 | 33.747 | 8.654 | 31.762 | 2 |
| 2025-04-14T13:19:00 | 54.432764 | 7.573761 | 2.0 | 8.292 | 2 | 33.624 | 8.513 | 31.760 | 2 |
| 2025-04-14T13:20:00 | 54.432641 | 7.573834 | 2.0 | 8.367 | 2 | 33.557 | 8.468 | 31.731 | 2 |
| 2025-04-14T13:21:00 | 54.432596 | 7.573940 | 2.0 | 8.724 | 2 | 33.666 | 8.615 | 31.713 | 2 |
| 2025-04-14T13:22:00 | 54.432573 | 7.574046 | 2.0 | 8.679 | 2 | 33.903 | 8.878 | 31.724 | 2 |
| 2025-04-14T13:23:00 | 54.432576 | 7.574133 | 2.0 | 8.563 | 2 | 33.905 | 8.848 | 31.753 | 2 |
| 2025-04-14T13:24:00 | 54.432584 | 7.574154 | 2.0 | 8.563 | 2 | 33.812 | 8.750 | 31.744 | 2 |
| 2025-04-14T13:25:00 | 54.432622 | 7.574136 | 2.0 | 8.324 | 2 | 33.790 | 8.728 | 31.741 | 2 |
| 2025-04-14T13:26:00 | 54.432852 | 7.574066 | 2.0 | 8.414 | 2 | 33.614 | 8.549 | 31.717 | 2 |
| 2025-04-14T13:27:00 | 54.433143 | 7.574024 | 2.0 | 8.460 | 2 | 33.662 | 8.621 | 31.703 | 2 |
| 2025-04-14T13:28:00 | 54.433314 | 7.574003 | 2.0 | 8.480 | 2 | 33.705 | 8.664 | 31.709 | 2 |
| 2025-04-14T13:29:00 | 54.433533 | 7.574053 | 2.0 | 8.593 | 2 | 33.740 | 8.701 | 31.713 | 2 |
| 2025-04-14T13:30:00 | 54.433839 | 7.574026 | 2.0 | 8.604 | 2 | 33.810 | 8.782 | 31.713 | 2 |
| 2025-04-14T13:31:00 | 54.434220 | 7.573812 | 2.0 | 8.539 | 2 | 33.831 | 8.798 | 31.721 | 2 |
| 2025-04-14T13:32:00 | 54.434605 | 7.573385 | 2.0 | 8.523 | 2 | 33.786 | 8.747 | 31.719 | 2 |
| 2025-04-14T13:33:00 | 54.434941 | 7.572841 | 2.0 | 8.515 | 2 | 33.772 | 8.731 | 31.719 | 2 |
| 2025-04-14T13:34:00 | 54.435222 | 7.572469 | 2.0 | 8.525 | 2 | 33.768 | 8.727 | 31.719 | 2 |
| 2025-04-14T13:35:00 | 54.435385 | 7.572211 | 2.0 | 8.343 | 2 | 33.765 | 8.717 | 31.724 | 2 |
| 2025-04-14T13:36:00 | 54.435498 | 7.572137 | 2.0 | 8.375 | 2 | 33.608 | 8.540 | 31.719 | 2 |
| 2025-04-14T13:37:00 | 54.435534 | 7.572153 | 2.0 | 8.256 | 2 | 33.637 | 8.565 | 31.727 | 2 |
| 2025-04-14T13:38:00 | 54.435517 | 7.572241 | 2.0 | 8.256 | 2 | 33.501 | 8.476 | 31.665 | 2 |
| 2025-04-14T13:39:00 | 54.435511 | 7.572403 | 2.0 | 8.329 | 2 | 33.513 | 8.474 | 31.679 | 2 |
| 2025-04-14T13:40:00 | 54.435513 | 7.572607 | 2.0 | 8.315 | 2 | 33.599 | 8.550 | 31.701 | 2 |
| 2025-04-14T13:41:00 | 54.435478 | 7.572762 | 2.0 | 8.284 | 2 | 33.085 | 8.514 | 31.195 | 2 |
| 2025-04-14T13:42:00 | 54.435408 | 7.572937 | 2.0 | 8.294 | 2 | 33.571 | 8.508 | 31.709 | 2 |
| 2025-04-14T13:43:00 | 54.435282 | 7.573040 | 2.0 | 8.397 | 2 | 33.270 | 8.508 | 31.394 | 2 |
| 2025-04-14T13:44:00 | 54.435003 | 7.572981 | 2.0 | 8.321 | 2 | 33.200 | 8.615 | 31.226 | 2 |
| 2025-04-14T13:45:00 | 54.434958 | 7.573373 | 2.0 | 8.406 | 2 | 33.608 | 8.570 | 31.692 | 2 |
| 2025-04-14T13:46:00 | 54.435415 | 7.574118 | 2.0 | 8.402 | 2 | 33.476 | 8.619 | 31.511 | 2 |
| 2025-04-14T13:47:00 | 54.436410 | 7.575363 | 2.0 | 8.363 | 2 | 33.636 | 8.604 | 31.691 | 2 |
| 2025-04-14T13:48:00 | 54.438156 | 7.576607 | 2.0 | 8.321 | 2 | 33.617 | 8.581 | 31.692 | 2 |
| 2025-04-14T13:49:00 | 54.440546 | 7.577617 | 2.0 | 8.281 | 2 | 33.277 | 8.537 | 31.376 | 2 |
| 2025-04-14T13:50:00 | 54.443258 | 7.578694 | 2.0 | 8.252 | 2 | 32.587 | 8.482 | 30.704 | 2 |
| 2025-04-14T13:51:00 | 54.446066 | 7.579877 | 2.0 | 8.219 | 2 | 33.370 | 8.472 | 31.531 | 2 |
| 2025-04-14T13:52:00 | 54.448904 | 7.581078 | 2.0 | 8.215 | 2 | 33.048 | 8.428 | 31.233 | 2 |
| 2025-04-14T13:53:00 | 54.451769 | 7.582284 | 2.0 | 8.142 | 2 | 33.256 | 8.426 | 31.453 | 2 |
| 2025-04-14T13:54:00 | 54.454459 | 7.583386 | 2.0 | 8.250 | 2 | 33.544 | 8.372 | 31.803 | 2 |
| 2025-04-14T13:55:00 | 54.456497 | 7.584212 | 2.0 | 8.342 | 2 | 33.244 | 8.470 | 31.401 | 2 |
| 2025-04-14T13:56:00 | 54.458077 | 7.584793 | 2.0 | 8.270 | 2 | 33.170 | 8.541 | 31.260 | 2 |
| 2025-04-14T13:57:00 | 54.459367 | 7.585220 | 2.0 | 8.274 | 2 | 33.541 | 8.481 | 31.702 | 2 |
| 2025-04-14T13:58:00 | 54.459994 | 7.585958 | 2.0 | 8.101 | 2 | 33.651 | 8.467 | 31.830 | 2 |
| 2025-04-14T13:59:00 | 54.460110 | 7.586426 | 2.0 | 8.017 | 2 | 33.391 | 8.291 | 31.716 | 2 |
| 2025-04-14T14:00:00 | 54.460218 | 7.586521 | 2.0 | 7.923 | 2 | 33.189 | 8.242 | 31.547 | 2 |
| 2025-04-14T14:01:00 | 54.460285 | 7.586489 | 2.0 | 7.954 | 2 | 33.205 | 8.112 | 31.681 | 2 |
| 2025-04-14T14:02:00 | 54.460358 | 7.586478 | 2.0 | 8.110 | 2 | 33.369 | 8.214 | 31.762 | 2 |
| 2025-04-14T14:03:00 | 54.460458 | 7.586459 | 2.0 | 8.246 | 2 | 33.047 | 8.356 | 31.296 | 2 |
| 2025-04-14T14:04:00 | 54.460569 | 7.586520 | 2.0 | 8.615 | 2 | 33.475 | 8.531 | 31.588 | 2 |
| 2025-04-14T14:05:00 | 54.460671 | 7.586588 | 2.0 | 8.542 | 2 | 33.347 | 8.801 | 31.215 | 2 |
| 2025-04-14T14:06:00 | 54.460750 | 7.586633 | 2.0 | 8.372 | 2 | 33.888 | 8.728 | 31.843 | 2 |
| 2025-04-14T14:07:00 | 54.460842 | 7.586658 | 2.0 | 8.236 | 2 | 33.379 | 8.549 | 31.472 | 2 |
| 2025-04-14T14:08:00 | 54.460929 | 7.586667 | 2.0 | 8.396 | 2 | 33.462 | 8.467 | 31.632 | 2 |
| 2025-04-14T14:09:00 | 54.460984 | 7.586690 | 2.0 | 8.302 | 2 | 33.409 | 8.608 | 31.450 | 2 |
| 2025-04-14T14:10:00 | 54.461033 | 7.586693 | 2.0 | 8.291 | 2 | 33.462 | 8.518 | 31.586 | 2 |
| 2025-04-14T14:11:00 | 54.461057 | 7.586712 | 2.0 | 8.261 | 2 | 33.453 | 8.502 | 31.591 | 2 |
| 2025-04-14T14:12:00 | 54.461086 | 7.586753 | 2.0 | 8.226 | 2 | 33.445 | 8.468 | 31.613 | 2 |
| 2025-04-14T14:13:00 | 54.461129 | 7.586748 | 2.0 | 8.298 | 2 | 33.319 | 8.457 | 31.491 | 2 |
| 2025-04-14T14:14:00 | 54.461188 | 7.586699 | 2.0 | 8.306 | 2 | 33.208 | 8.511 | 31.327 | 2 |
| 2025-04-14T14:15:00 | 54.461290 | 7.586643 | 2.0 | 8.255 | 2 | 33.453 | 8.507 | 31.587 | 2 |
| 2025-04-14T14:16:00 | 54.461439 | 7.586652 | 2.0 | 8.156 | 2 | 33.584 | 8.446 | 31.779 | 2 |
| 2025-04-14T14:17:00 | 54.461587 | 7.586631 | 2.0 | 8.420 | 2 | 33.322 | 8.417 | 31.530 | 2 |
| 2025-04-14T14:18:00 | 54.461773 | 7.586593 | 2.0 | 8.510 | 2 | 33.545 | 8.628 | 31.575 | 2 |
| 2025-04-14T14:19:00 | 54.461875 | 7.586670 | 2.0 | 8.500 | 2 | 33.841 | 8.727 | 31.795 | 2 |
| 2025-04-14T14:20:00 | 54.462356 | 7.587076 | 2.0 | 8.451 | 2 | 33.617 | 8.699 | 31.586 | 2 |
| 2025-04-14T14:21:00 | 54.463598 | 7.587498 | 2.0 | 8.484 | 2 | 33.521 | 8.676 | 31.507 | 2 |
| 2025-04-14T14:22:00 | 54.465730 | 7.588274 | 2.0 | 8.378 | 2 | 33.630 | 8.704 | 31.595 | 2 |
| 2025-04-14T14:23:00 | 54.468430 | 7.589390 | 2.0 | 8.104 | 2 | 33.586 | 8.546 | 31.691 | 2 |
| 2025-04-14T14:24:00 | 54.471372 | 7.590611 | 2.0 | 8.083 | 2 | 33.289 | 8.318 | 31.584 | 2 |
| 2025-04-14T14:25:00 | 54.474400 | 7.591764 | 2.0 | 8.114 | 2 | 33.368 | 8.326 | 31.660 | 2 |
| 2025-04-14T14:26:00 | 54.477472 | 7.592812 | 2.0 | 8.100 | 2 | 32.799 | 8.326 | 31.062 | 2 |
| 2025-04-14T14:27:00 | 54.480176 | 7.593674 | 2.0 | 8.271 | 2 | 33.701 | 8.354 | 31.985 | 2 |
| 2025-04-14T14:28:00 | 54.482335 | 7.594502 | 2.0 | 8.339 | 2 | 33.886 | 8.535 | 32.015 | 2 |
| 2025-04-14T14:29:00 | 54.484138 | 7.595136 | 2.0 | 8.321 | 2 | 33.957 | 8.516 | 32.107 | 2 |
| 2025-04-14T14:30:00 | 54.485601 | 7.595768 | 2.0 | 8.197 | 2 | 33.964 | 8.501 | 32.128 | 2 |
| 2025-04-14T14:31:00 | 54.486539 | 7.596579 | 2.0 | 8.225 | 2 | 33.881 | 8.415 | 32.119 | 2 |
| 2025-04-14T14:32:00 | 54.486813 | 7.597431 | 2.0 | 8.343 | 2 | 33.917 | 8.465 | 32.111 | 2 |
| 2025-04-14T14:33:00 | 54.486953 | 7.597975 | 2.0 | 8.344 | 2 | 33.995 | 8.555 | 32.111 | 2 |
| 2025-04-14T14:34:00 | 54.487075 | 7.598240 | 2.0 | 8.354 | 2 | 33.984 | 8.558 | 32.097 | 2 |
| 2025-04-14T14:35:00 | 54.487145 | 7.598309 | 2.0 | 8.416 | 2 | 33.986 | 8.581 | 32.078 | 2 |
| 2025-04-14T14:36:00 | 54.487169 | 7.598325 | 2.0 | 8.443 | 2 | 34.026 | 8.630 | 32.075 | 2 |
| 2025-04-14T14:37:00 | 54.487201 | 7.598312 | 2.0 | 8.510 | 2 | 34.063 | 8.678 | 32.070 | 2 |
| 2025-04-14T14:38:00 | 54.487270 | 7.598267 | 2.0 | 8.593 | 2 | 34.107 | 8.728 | 32.071 | 2 |
| 2025-04-14T14:39:00 | 54.487409 | 7.598230 | 2.0 | 8.562 | 2 | 34.165 | 8.797 | 32.069 | 2 |
| 2025-04-14T14:40:00 | 54.487681 | 7.598131 | 2.0 | 8.758 | 2 | 34.146 | 8.785 | 32.060 | 2 |
| 2025-04-14T14:41:00 | 54.488008 | 7.597735 | 2.0 | 8.935 | 2 | 34.316 | 9.017 | 32.027 | 2 |
| 2025-04-14T14:42:00 | 54.488298 | 7.597104 | 2.0 | 8.875 | 2 | 34.449 | 9.140 | 32.054 | 2 |
| 2025-04-14T14:43:00 | 54.488645 | 7.596518 | 2.0 | 8.808 | 2 | 34.394 | 9.081 | 32.050 | 2 |
| 2025-04-14T14:44:00 | 54.489114 | 7.595978 | 2.0 | 8.622 | 2 | 34.308 | 8.970 | 32.061 | 2 |
| 2025-04-14T14:45:00 | 54.489502 | 7.595657 | 2.0 | 8.403 | 2 | 34.167 | 8.806 | 32.063 | 2 |
| 2025-04-14T14:46:00 | 54.489756 | 7.595470 | 2.0 | 8.382 | 2 | 33.986 | 8.620 | 32.043 | 2 |
| 2025-04-14T14:47:00 | 54.489892 | 7.595355 | 2.0 | 8.779 | 2 | 33.984 | 8.642 | 32.021 | 2 |
| 2025-04-14T14:48:00 | 54.489987 | 7.595261 | 2.0 | 8.871 | 2 | 34.301 | 9.032 | 31.998 | 2 |
| 2025-04-14T14:49:00 | 54.490057 | 7.595200 | 2.0 | 8.903 | 2 | 34.350 | 9.074 | 32.011 | 2 |
| 2025-04-14T14:50:00 | 54.490134 | 7.595105 | 2.0 | 8.817 | 2 | 34.360 | 9.096 | 32.002 | 2 |
| 2025-04-14T14:51:00 | 54.490254 | 7.594969 | 2.0 | 8.760 | 2 | 34.278 | 8.993 | 32.010 | 2 |
| 2025-04-14T14:52:00 | 54.490450 | 7.594854 | 2.0 | 8.456 | 2 | 34.237 | 8.973 | 31.985 | 2 |
| 2025-04-14T14:53:00 | 54.490806 | 7.594629 | 2.0 | 8.423 | 2 | 33.961 | 8.638 | 32.000 | 2 |
| 2025-04-14T14:54:00 | 54.491246 | 7.594220 | 2.0 | 8.529 | 2 | 33.960 | 8.678 | 31.963 | 2 |
| 2025-04-14T14:55:00 | 54.491703 | 7.593668 | 2.0 | 8.562 | 2 | 33.961 | 8.756 | 31.894 | 2 |
| 2025-04-14T14:56:00 | 54.492087 | 7.593339 | 2.0 | 8.518 | 2 | 33.553 | 8.792 | 31.437 | 2 |
| 2025-04-14T14:57:00 | 54.492323 | 7.593331 | 2.0 | 8.243 | 2 | 33.473 | 8.674 | 31.458 | 2 |
| 2025-04-14T14:58:00 | 54.492453 | 7.593393 | 2.0 | 8.323 | 2 | 33.482 | 8.511 | 31.613 | 2 |
| 2025-04-14T14:59:00 | 54.492532 | 7.593463 | 2.0 | 8.368 | 2 | 33.482 | 8.538 | 31.589 | 2 |
| 2025-04-14T15:00:00 | 54.492590 | 7.593523 | 2.0 | 8.484 | 2 | 33.620 | 8.682 | 31.605 | 2 |
| 2025-04-14T15:01:00 | 54.492646 | 7.593519 | 2.0 | 8.350 | 2 | 33.982 | 8.677 | 31.987 | 2 |
| 2025-04-14T15:02:00 | 54.492702 | 7.593507 | 2.0 | 8.131 | 2 | 33.856 | 8.549 | 31.971 | 2 |
| 2025-04-14T15:03:00 | 54.492774 | 7.593529 | 2.0 | 8.060 | 2 | 33.281 | 8.365 | 31.533 | 2 |
| 2025-04-14T15:04:00 | 54.492835 | 7.593574 | 2.0 | 8.064 | 2 | 33.175 | 8.288 | 31.491 | 2 |
| 2025-04-14T15:05:00 | 54.492917 | 7.593641 | 2.0 | 8.052 | 2 | 33.386 | 8.290 | 31.711 | 2 |
| 2025-04-14T15:06:00 | 54.493044 | 7.593676 | 2.0 | 8.062 | 2 | 33.132 | 8.295 | 31.439 | 2 |
| 2025-04-14T15:07:00 | 54.493210 | 7.593643 | 2.0 | 8.054 | 2 | 33.536 | 8.291 | 31.868 | 2 |
| 2025-04-14T15:08:00 | 54.493396 | 7.593564 | 2.0 | 8.038 | 2 | 33.281 | 8.275 | 31.614 | 2 |
| 2025-04-14T15:09:00 | 54.493584 | 7.593433 | 2.0 | 8.054 | 2 | 33.251 | 8.274 | 31.583 | 2 |
| 2025-04-14T15:10:00 | 54.493751 | 7.593280 | 2.0 | 8.020 | 2 | 32.939 | 8.270 | 31.259 | 2 |
| 2025-04-14T15:11:00 | 54.493884 | 7.593168 | 2.0 | 8.013 | 2 | 33.521 | 8.245 | 31.894 | 2 |
| 2025-04-14T15:12:00 | 54.494041 | 7.593138 | 2.0 | 8.022 | 2 | 33.547 | 8.241 | 31.925 | 2 |
| 2025-04-14T15:13:00 | 54.494202 | 7.593183 | 2.0 | 8.010 | 2 | 33.176 | 8.249 | 31.527 | 2 |
| 2025-04-14T15:14:00 | 54.494329 | 7.593290 | 2.0 | 8.041 | 2 | 33.307 | 8.234 | 31.679 | 2 |
| 2025-04-14T15:15:00 | 54.494336 | 7.593381 | 2.0 | 8.018 | 2 | 33.347 | 8.274 | 31.685 | 2 |
| 2025-04-14T15:16:00 | 54.494171 | 7.593049 | 2.0 | 7.987 | 2 | 33.034 | 8.237 | 31.388 | 2 |
| 2025-04-14T15:17:00 | 54.493861 | 7.592431 | 2.0 | 8.017 | 2 | 33.198 | 8.222 | 31.574 | 2 |
| 2025-04-14T15:18:00 | 54.493354 | 7.591644 | 2.0 | 8.020 | 2 | 33.286 | 8.236 | 31.655 | 2 |
| 2025-04-14T15:19:00 | 54.492572 | 7.590389 | 2.0 | 8.095 | 2 | 33.231 | 8.240 | 31.593 | 2 |
| 2025-04-14T15:20:00 | 54.491474 | 7.588953 | 2.0 | 8.482 | 2 | 33.250 | 8.410 | 31.461 | 2 |
| 2025-04-14T15:21:00 | 54.490076 | 7.587411 | 2.0 | 8.516 | 2 | 33.731 | 8.657 | 31.743 | 2 |
| 2025-04-14T15:22:00 | 54.488497 | 7.585890 | 2.0 | 8.445 | 2 | 33.758 | 8.712 | 31.722 | 2 |
| 2025-04-14T15:23:00 | 54.486802 | 7.584466 | 2.0 | 8.306 | 2 | 33.545 | 8.619 | 31.583 | 2 |
| 2025-04-14T15:24:00 | 54.485081 | 7.583060 | 2.0 | 8.244 | 2 | 33.343 | 8.488 | 31.488 | 2 |
| 2025-04-14T15:25:00 | 54.483515 | 7.581715 | 2.0 | 8.363 | 2 | 33.239 | 8.469 | 31.396 | 2 |
| 2025-04-14T15:26:00 | 54.482086 | 7.580418 | 2.0 | 8.329 | 2 | 33.480 | 8.538 | 31.587 | 2 |
| 2025-04-14T15:27:00 | 54.480725 | 7.579148 | 2.0 | 8.338 | 2 | 33.415 | 8.518 | 31.537 | 2 |
| 2025-04-14T15:28:00 | 54.479338 | 7.577874 | 2.0 | 8.315 | 2 | 33.522 | 8.528 | 31.640 | 2 |
| 2025-04-14T15:29:00 | 54.477934 | 7.576592 | 2.0 | 8.286 | 2 | 33.413 | 8.503 | 31.548 | 2 |
| 2025-04-14T15:30:00 | 54.476482 | 7.575267 | 2.0 | 8.259 | 2 | 33.418 | 8.474 | 31.579 | 2 |
| 2025-04-14T15:31:00 | 54.474928 | 7.574016 | 2.0 | 8.277 | 2 | 33.275 | 8.458 | 31.444 | 2 |
| 2025-04-14T15:32:00 | 54.473324 | 7.572877 | 2.0 | 8.283 | 2 | 33.269 | 8.469 | 31.428 | 2 |
| 2025-04-14T15:33:00 | 54.471693 | 7.571809 | 2.0 | 8.288 | 2 | 33.426 | 8.472 | 31.590 | 2 |
| 2025-04-14T15:34:00 | 54.469982 | 7.570728 | 2.0 | 8.334 | 2 | 33.400 | 8.487 | 31.549 | 2 |
| 2025-04-14T15:35:00 | 54.467942 | 7.569619 | 2.0 | 8.379 | 2 | 33.412 | 8.524 | 31.528 | 2 |
| 2025-04-14T15:36:00 | 54.465457 | 7.568495 | 2.0 | 8.438 | 2 | 33.508 | 8.571 | 31.587 | 2 |
| 2025-04-14T15:37:00 | 54.462820 | 7.567328 | 2.0 | 8.495 | 2 | 33.584 | 8.632 | 31.612 | 2 |
| 2025-04-14T15:38:00 | 54.460119 | 7.566142 | 2.0 | 8.398 | 2 | 33.433 | 8.660 | 31.429 | 2 |
| 2025-04-14T15:39:00 | 54.457423 | 7.565170 | 2.0 | 8.429 | 2 | 33.518 | 8.585 | 31.585 | 2 |
| 2025-04-14T15:40:00 | 54.454727 | 7.564456 | 2.0 | 8.598 | 2 | 33.454 | 8.636 | 31.472 | 2 |
| 2025-04-14T15:41:00 | 54.452031 | 7.563721 | 2.0 | 8.542 | 2 | 33.571 | 8.764 | 31.481 | 2 |
| 2025-04-14T15:42:00 | 54.449336 | 7.562973 | 2.0 | 8.537 | 2 | 33.537 | 8.718 | 31.486 | 2 |
| 2025-04-14T15:43:00 | 54.446712 | 7.562227 | 2.0 | 8.702 | 2 | 33.626 | 8.741 | 31.558 | 2 |
| 2025-04-14T15:44:00 | 54.444553 | 7.562082 | 2.0 | 8.872 | 2 | 33.706 | 8.886 | 31.512 | 2 |
| 2025-04-14T15:45:00 | 54.443106 | 7.562814 | 2.0 | 8.841 | 2 | 33.872 | 9.061 | 31.529 | 2 |
| 2025-04-14T15:46:00 | 54.441727 | 7.563535 | 2.0 | 8.722 | 2 | 33.829 | 9.005 | 31.534 | 2 |
| 2025-04-14T15:47:00 | 54.440480 | 7.564367 | 2.0 | 8.808 | 2 | 33.808 | 8.935 | 31.575 | 2 |
| 2025-04-14T15:48:00 | 54.439495 | 7.565216 | 2.0 | 9.091 | 2 | 33.886 | 9.066 | 31.539 | 2 |
| 2025-04-14T15:49:00 | 54.438651 | 7.565909 | 2.0 | 9.054 | 2 | 34.068 | 9.305 | 31.515 | 2 |
| 2025-04-14T15:50:00 | 54.437967 | 7.566614 | 2.0 | 9.107 | 2 | 34.084 | 9.250 | 31.580 | 2 |
| 2025-04-14T15:51:00 | 54.437441 | 7.567381 | 2.0 | 9.137 | 2 | 34.174 | 9.330 | 31.602 | 2 |
| 2025-04-14T15:52:00 | 54.437022 | 7.568227 | 2.0 | 8.797 | 2 | 34.169 | 9.275 | 31.645 | 2 |
| 2025-04-14T15:53:00 | 54.436582 | 7.569162 | 2.0 | 8.570 | 2 | 33.831 | 8.915 | 31.616 | 2 |
| 2025-04-14T15:54:00 | 54.436297 | 7.569984 | 2.0 | 8.596 | 2 | 33.142 | 8.843 | 30.966 | 2 |
| 2025-04-14T15:55:00 | 54.436181 | 7.570592 | 2.0 | 8.544 | 2 | 33.883 | 8.789 | 31.783 | 2 |
| 2025-04-14T15:56:00 | 54.436108 | 7.570888 | 2.0 | 8.589 | 2 | 33.857 | 8.776 | 31.767 | 2 |
| 2025-04-14T15:57:00 | 54.436063 | 7.571109 | 2.0 | 8.533 | 2 | 33.895 | 8.814 | 31.773 | 2 |
| 2025-04-14T15:58:00 | 54.436000 | 7.571341 | 2.0 | 8.501 | 2 | 33.850 | 8.753 | 31.781 | 2 |
| 2025-04-14T15:59:00 | 54.435910 | 7.571643 | 2.0 | 8.532 | 2 | 33.823 | 8.716 | 31.786 | 2 |
| 2025-04-14T16:00:00 | 54.435845 | 7.571836 | 2.0 | 8.555 | 2 | 33.860 | 8.776 | 31.770 | 2 |
| 2025-04-14T16:01:00 | 54.435817 | 7.571995 | 2.0 | 8.554 | 2 | 33.862 | 8.772 | 31.776 | 2 |
| 2025-04-14T16:02:00 | 54.435800 | 7.572057 | 2.0 | 8.631 | 2 | 33.848 | 8.769 | 31.764 | 2 |
| 2025-04-14T16:03:00 | 54.435762 | 7.572146 | 2.0 | 8.913 | 2 | 33.931 | 8.895 | 31.738 | 2 |
| 2025-04-14T16:04:00 | 54.435689 | 7.572109 | 2.0 | 9.078 | 2 | 34.134 | 9.141 | 31.728 | 2 |
| 2025-04-14T16:05:00 | 54.435488 | 7.571961 | 2.0 | 8.860 | 2 | 34.274 | 9.260 | 31.767 | 2 |
| 2025-04-14T16:06:00 | 54.435081 | 7.571501 | 2.0 | 8.535 | 2 | 34.063 | 8.969 | 31.808 | 2 |
| 2025-04-14T16:07:00 | 54.434593 | 7.571319 | 2.0 | 8.476 | 2 | 33.853 | 8.750 | 31.786 | 2 |
| 2025-04-14T16:08:00 | 54.434095 | 7.571444 | 2.0 | 8.422 | 2 | 33.794 | 8.688 | 31.781 | 2 |
| 2025-04-14T16:09:00 | 54.433639 | 7.571818 | 2.0 | 8.421 | 2 | 33.755 | 8.650 | 31.774 | 2 |
| 2025-04-14T16:10:00 | 54.433311 | 7.572264 | 2.0 | 8.449 | 2 | 33.693 | 8.654 | 31.706 | 2 |
| 2025-04-14T16:11:00 | 54.433148 | 7.572636 | 2.0 | 8.458 | 2 | 33.763 | 8.662 | 31.772 | 2 |
| 2025-04-14T16:12:00 | 54.433017 | 7.573013 | 2.0 | 8.491 | 2 | 33.792 | 8.705 | 31.763 | 2 |
| 2025-04-14T16:13:00 | 54.432893 | 7.573315 | 2.0 | 8.675 | 2 | 33.845 | 8.774 | 31.757 | 2 |
| 2025-04-14T16:14:00 | 54.432842 | 7.573416 | 2.0 | 8.535 | 2 | 33.917 | 8.838 | 31.774 | 2 |
| 2025-04-14T16:15:00 | 54.432850 | 7.573545 | 2.0 | 8.604 | 2 | 33.848 | 8.759 | 31.773 | 2 |
| 2025-04-14T16:16:00 | 54.432828 | 7.573761 | 2.0 | 8.630 | 2 | 33.915 | 8.847 | 31.764 | 2 |
| 2025-04-14T16:17:00 | 54.432758 | 7.574150 | 2.0 | 8.630 | 2 | 33.913 | 8.829 | 31.778 | 2 |
| 2025-04-14T16:18:00 | 54.432708 | 7.574292 | 2.0 | 8.733 | 2 | 33.742 | 8.907 | 31.531 | 2 |
| 2025-04-14T16:19:00 | 54.432805 | 7.574196 | 2.0 | 8.455 | 2 | 33.943 | 8.847 | 31.793 | 2 |
| 2025-04-14T16:20:00 | 54.433274 | 7.573976 | 2.0 | 8.701 | 2 | 33.821 | 8.727 | 31.774 | 2 |
| 2025-04-14T16:21:00 | 54.434256 | 7.573694 | 2.0 | 8.842 | 2 | 34.006 | 8.968 | 31.750 | 2 |
| 2025-04-14T16:22:00 | 54.436090 | 7.573750 | 2.0 | 8.606 | 2 | 34.022 | 8.996 | 31.742 | 2 |
| 2025-04-14T16:23:00 | 54.438723 | 7.574027 | 2.0 | 8.416 | 2 | 33.916 | 8.809 | 31.799 | 2 |
| 2025-04-14T16:24:00 | 54.441747 | 7.574351 | 2.0 | 8.516 | 2 | 33.676 | 8.687 | 31.658 | 2 |
| 2025-04-14T16:25:00 | 54.444852 | 7.574711 | 2.0 | 8.466 | 2 | 33.595 | 8.696 | 31.566 | 2 |
| 2025-04-14T16:26:00 | 54.447955 | 7.575176 | 2.0 | 8.512 | 2 | 33.756 | 8.681 | 31.747 | 2 |
| 2025-04-14T16:27:00 | 54.451041 | 7.575715 | 2.0 | 8.655 | 2 | 33.771 | 8.778 | 31.676 | 2 |
| 2025-04-14T16:28:00 | 54.454078 | 7.576261 | 2.0 | 8.568 | 2 | 33.303 | 8.856 | 31.121 | 2 |
| 2025-04-14T16:29:00 | 54.456506 | 7.576958 | 2.0 | 8.661 | 2 | 33.912 | 8.824 | 31.782 | 2 |
| 2025-04-14T16:30:00 | 54.458463 | 7.577650 | 2.0 | 8.661 | 2 | 33.983 | 8.885 | 31.801 | 2 |
| 2025-04-14T16:31:00 | 54.460091 | 7.578309 | 2.0 | 8.794 | 2 | 33.983 | 8.914 | 31.775 | 2 |
| 2025-04-14T16:32:00 | 54.461164 | 7.579415 | 2.0 | 8.628 | 2 | 33.994 | 9.000 | 31.709 | 2 |
| 2025-04-14T16:33:00 | 54.461343 | 7.580860 | 2.0 | 8.643 | 2 | 33.951 | 8.825 | 31.821 | 2 |
| 2025-04-14T16:34:00 | 54.461408 | 7.582123 | 2.0 | 8.515 | 2 | 33.563 | 8.816 | 31.426 | 2 |
| 2025-04-14T16:35:00 | 54.461494 | 7.583048 | 2.0 | 8.549 | 2 | 33.549 | 8.746 | 31.474 | 2 |
| 2025-04-14T16:36:00 | 54.461547 | 7.583705 | 2.0 | 8.459 | 2 | 33.313 | 8.755 | 31.220 | 2 |
| 2025-04-14T16:37:00 | 54.461549 | 7.584149 | 2.0 | 8.487 | 2 | 33.472 | 8.665 | 31.465 | 2 |
| 2025-04-14T16:38:00 | 54.461546 | 7.584473 | 2.0 | 8.472 | 2 | 33.498 | 8.701 | 31.461 | 2 |
| 2025-04-14T16:39:00 | 54.461526 | 7.584829 | 2.0 | 8.461 | 2 | 33.853 | 8.677 | 31.852 | 2 |
| 2025-04-14T16:40:00 | 54.461478 | 7.585186 | 2.0 | 8.494 | 2 | 33.852 | 8.683 | 31.846 | 2 |
| 2025-04-14T16:41:00 | 54.461430 | 7.585494 | 2.0 | 8.527 | 2 | 33.632 | 8.718 | 31.585 | 2 |
| 2025-04-14T16:42:00 | 54.461377 | 7.585540 | 2.0 | 8.622 | 2 | 33.645 | 8.764 | 31.557 | 2 |
| 2025-04-14T16:43:00 | 54.461383 | 7.585435 | 2.0 | 8.566 | 2 | 33.435 | 8.823 | 31.287 | 2 |
| 2025-04-14T16:44:00 | 54.461424 | 7.585701 | 2.0 | 8.496 | 2 | 33.451 | 8.765 | 31.355 | 2 |
| 2025-04-14T16:45:00 | 54.461451 | 7.585787 | 2.0 | 8.459 | 2 | 33.590 | 8.696 | 31.561 | 2 |
| 2025-04-14T16:46:00 | 54.461492 | 7.585801 | 2.0 | 8.471 | 2 | 33.625 | 8.678 | 31.613 | 2 |
| 2025-04-14T16:47:00 | 54.461501 | 7.585929 | 2.0 | 8.454 | 2 | 33.463 | 8.680 | 31.443 | 2 |
| 2025-04-14T16:48:00 | 54.461458 | 7.585994 | 2.0 | 8.380 | 2 | 33.647 | 8.656 | 31.656 | 2 |
| 2025-04-14T16:49:00 | 54.461425 | 7.586286 | 2.0 | 8.295 | 2 | 33.635 | 8.587 | 31.705 | 2 |
| 2025-04-14T16:50:00 | 54.461356 | 7.586499 | 2.0 | 8.272 | 2 | 33.549 | 8.507 | 31.687 | 2 |
| 2025-04-14T16:51:00 | 54.461394 | 7.586577 | 2.0 | 8.260 | 2 | 33.555 | 8.495 | 31.704 | 2 |
| 2025-04-14T16:52:00 | 54.461591 | 7.586377 | 2.0 | 8.206 | 2 | 33.479 | 8.471 | 31.646 | 2 |
| 2025-04-14T16:53:00 | 54.462131 | 7.586072 | 2.0 | 8.216 | 2 | 33.226 | 8.431 | 31.417 | 2 |
| 2025-04-14T16:54:00 | 54.463514 | 7.585987 | 2.0 | 8.224 | 2 | 33.279 | 8.433 | 31.470 | 2 |
| 2025-04-14T16:55:00 | 54.465884 | 7.586225 | 2.0 | 8.357 | 2 | 33.680 | 8.476 | 31.852 | 2 |
| 2025-04-14T16:56:00 | 54.468786 | 7.586490 | 2.0 | 8.360 | 2 | 33.781 | 8.584 | 31.861 | 2 |
| 2025-04-14T16:57:00 | 54.471858 | 7.586869 | 2.0 | 8.171 | 2 | 33.747 | 8.498 | 31.903 | 2 |
| 2025-04-14T16:58:00 | 54.474975 | 7.587254 | 2.0 | 8.074 | 2 | 33.661 | 8.388 | 31.912 | 2 |
| 2025-04-14T16:59:00 | 54.478094 | 7.587684 | 2.0 | 8.098 | 2 | 33.589 | 8.304 | 31.912 | 2 |
| 2025-04-14T17:00:00 | 54.481200 | 7.588100 | 2.0 | 8.080 | 2 | 33.612 | 8.325 | 31.918 | 2 |
| 2025-04-14T17:01:00 | 54.484057 | 7.588402 | 2.0 | 8.363 | 2 | 33.615 | 8.338 | 31.909 | 2 |
| 2025-04-14T17:02:00 | 54.486307 | 7.588885 | 2.0 | 8.292 | 2 | 33.805 | 8.568 | 31.900 | 2 |
| 2025-04-14T17:03:00 | 54.488172 | 7.589047 | 2.0 | 8.335 | 2 | 33.767 | 8.508 | 31.915 | 2 |
| 2025-04-14T17:04:00 | 54.489797 | 7.588969 | 2.0 | 8.483 | 2 | 33.825 | 8.595 | 31.897 | 2 |
| 2025-04-14T17:05:00 | 54.490815 | 7.589512 | 2.0 | 8.486 | 2 | 33.915 | 8.701 | 31.895 | 2 |
| 2025-04-14T17:06:00 | 54.490995 | 7.590551 | 2.0 | 8.491 | 2 | 33.915 | 8.700 | 31.896 | 2 |
| 2025-04-14T17:07:00 | 54.490853 | 7.591654 | 2.0 | 8.539 | 2 | 33.927 | 8.719 | 31.891 | 2 |
| 2025-04-14T17:08:00 | 54.490681 | 7.592506 | 2.0 | 8.447 | 2 | 33.955 | 8.747 | 31.895 | 2 |
| 2025-04-14T17:09:00 | 54.490580 | 7.593109 | 2.0 | 8.339 | 2 | 33.864 | 8.625 | 31.910 | 2 |
| 2025-04-14T17:10:00 | 54.490499 | 7.593521 | 2.0 | 8.291 | 2 | 33.788 | 8.552 | 31.897 | 2 |
| 2025-04-14T17:11:00 | 54.490440 | 7.593805 | 2.0 | 8.346 | 2 | 33.760 | 8.527 | 31.890 | 2 |
| 2025-04-14T17:12:00 | 54.490366 | 7.594100 | 2.0 | 8.303 | 2 | 33.788 | 8.549 | 31.900 | 2 |
| 2025-04-14T17:13:00 | 54.490287 | 7.594460 | 2.0 | 8.363 | 2 | 33.776 | 8.542 | 31.893 | 2 |
| 2025-04-14T17:14:00 | 54.490269 | 7.594606 | 2.0 | 8.324 | 2 | 33.789 | 8.556 | 31.894 | 2 |
| 2025-04-14T17:15:00 | 54.490306 | 7.594710 | 2.0 | 8.398 | 2 | 33.782 | 8.559 | 31.884 | 2 |
| 2025-04-14T17:16:00 | 54.490299 | 7.595003 | 2.0 | 8.375 | 2 | 33.825 | 8.613 | 31.881 | 2 |
| 2025-04-14T17:17:00 | 54.490308 | 7.595096 | 2.0 | 8.378 | 2 | 33.817 | 8.604 | 31.880 | 2 |
| 2025-04-14T17:18:00 | 54.490142 | 7.595068 | 2.0 | 8.341 | 2 | 33.805 | 8.584 | 31.886 | 2 |
| 2025-04-14T17:19:00 | 54.489557 | 7.595050 | 2.0 | 8.337 | 2 | 33.786 | 8.554 | 31.893 | 2 |
| 2025-04-14T17:20:00 | 54.488809 | 7.595128 | 2.0 | 8.347 | 2 | 33.803 | 8.578 | 31.889 | 2 |
| 2025-04-14T17:21:00 | 54.488195 | 7.595464 | 2.0 | 8.323 | 2 | 33.806 | 8.567 | 31.902 | 2 |
| 2025-04-14T17:22:00 | 54.487786 | 7.595893 | 2.0 | 8.276 | 2 | 33.785 | 8.525 | 31.918 | 2 |
| 2025-04-14T17:23:00 | 54.487587 | 7.596425 | 2.0 | 8.265 | 2 | 33.762 | 8.498 | 31.918 | 2 |
| 2025-04-14T17:24:00 | 54.487513 | 7.597076 | 2.0 | 8.211 | 2 | 33.745 | 8.475 | 31.921 | 2 |
| 2025-04-14T17:25:00 | 54.487443 | 7.597506 | 2.0 | 8.155 | 2 | 33.694 | 8.423 | 31.915 | 2 |
| 2025-04-14T17:26:00 | 54.487454 | 7.597544 | 2.0 | 8.120 | 2 | 33.646 | 8.365 | 31.917 | 2 |
| 2025-04-14T17:27:00 | 54.487445 | 7.597703 | 2.0 | 8.113 | 2 | 33.629 | 8.351 | 31.912 | 2 |
| 2025-04-14T17:28:00 | 54.487426 | 7.597867 | 2.0 | 8.095 | 2 | 33.612 | 8.331 | 31.912 | 2 |
| 2025-04-14T17:29:00 | 54.487418 | 7.598038 | 2.0 | 8.100 | 2 | 33.602 | 8.319 | 31.913 | 2 |
| 2025-04-14T17:30:00 | 54.487474 | 7.597855 | 2.0 | 7.956 | 2 | 33.589 | 8.312 | 31.905 | 2 |
| 2025-04-14T17:31:00 | 54.487609 | 7.597590 | 2.0 | 8.035 | 2 | 33.499 | 8.171 | 31.938 | 2 |
| 2025-04-14T17:32:00 | 54.487791 | 7.597383 | 2.0 | 8.082 | 2 | 33.549 | 8.268 | 31.903 | 2 |
| 2025-04-14T17:33:00 | 54.488331 | 7.597091 | 2.0 | 8.156 | 2 | 33.585 | 8.322 | 31.892 | 2 |
| 2025-04-14T17:34:00 | 54.489533 | 7.596318 | 2.0 | 8.182 | 2 | 33.610 | 8.362 | 31.882 | 2 |
| 2025-04-14T17:35:00 | 54.491263 | 7.595352 | 2.0 | 8.245 | 2 | 33.661 | 8.431 | 31.873 | 2 |
| 2025-04-14T17:36:00 | 54.493619 | 7.594193 | 2.0 | 8.312 | 2 | 33.715 | 8.500 | 31.867 | 2 |
| 2025-04-14T17:37:00 | 54.496432 | 7.592927 | 2.0 | 8.297 | 2 | 33.735 | 8.533 | 31.859 | 2 |
| 2025-04-14T17:38:00 | 54.499372 | 7.591202 | 2.0 | 8.189 | 2 | 33.694 | 8.476 | 31.867 | 2 |
| 2025-04-14T17:39:00 | 54.502305 | 7.589007 | 2.0 | 8.120 | 2 | 33.633 | 8.417 | 31.856 | 2 |
| 2025-04-14T17:40:00 | 54.505264 | 7.586803 | 2.0 | 8.005 | 2 | 33.550 | 8.299 | 31.876 | 2 |
| 2025-04-14T17:41:00 | 54.508243 | 7.584606 | 2.0 | 8.075 | 2 | 33.472 | 8.249 | 31.839 | 2 |
| 2025-04-14T17:42:00 | 54.510966 | 7.581638 | 2.0 | 8.098 | 2 | 33.511 | 8.285 | 31.847 | 2 |
| 2025-04-14T17:43:00 | 54.513715 | 7.578629 | 2.0 | 7.969 | 2 | 33.527 | 8.279 | 31.870 | 2 |
| 2025-04-14T17:44:00 | 54.516482 | 7.575667 | 2.0 | 7.913 | 2 | 33.456 | 8.162 | 31.901 | 2 |
| 2025-04-14T17:45:00 | 54.519242 | 7.572718 | 2.0 | 7.907 | 2 | 33.311 | 8.121 | 31.785 | 2 |
| 2025-04-14T17:46:00 | 54.522000 | 7.569783 | 2.0 | 7.893 | 2 | 33.425 | 8.102 | 31.923 | 2 |
| 2025-04-14T17:47:00 | 54.524763 | 7.566891 | 2.0 | 7.956 | 2 | 33.428 | 8.115 | 31.914 | 2 |
| 2025-04-14T17:48:00 | 54.527396 | 7.563687 | 2.0 | 7.939 | 2 | 33.465 | 8.149 | 31.922 | 2 |
| 2025-04-14T17:49:00 | 54.529347 | 7.559269 | 2.0 | 7.921 | 2 | 33.454 | 8.125 | 31.933 | 2 |
| 2025-04-14T17:50:00 | 54.531246 | 7.554671 | 2.0 | 7.974 | 2 | 33.410 | 8.132 | 31.880 | 2 |
| 2025-04-14T17:51:00 | 54.533057 | 7.550204 | 2.0 | 8.018 | 2 | 33.481 | 8.172 | 31.918 | 2 |
| 2025-04-14T17:52:00 | 54.534329 | 7.546649 | 2.0 | 7.996 | 2 | 33.521 | 8.207 | 31.929 | 2 |
| 2025-04-14T17:53:00 | 54.534883 | 7.543530 | 2.0 | 8.020 | 2 | 33.508 | 8.194 | 31.927 | 2 |
| 2025-04-14T17:54:00 | 54.535654 | 7.542384 | 2.0 | 7.983 | 2 | 33.514 | 8.204 | 31.924 | 2 |
| 2025-04-14T17:55:00 | 54.536047 | 7.542254 | 2.0 | 7.993 | 2 | 33.492 | 8.172 | 31.930 | 2 |
| 2025-04-14T17:56:00 | 54.536258 | 7.542185 | 2.0 | 7.989 | 2 | 33.495 | 8.180 | 31.926 | 2 |
| 2025-04-14T17:57:00 | 54.536370 | 7.542156 | 2.0 | 7.977 | 2 | 33.494 | 8.178 | 31.927 | 2 |
| 2025-04-14T17:58:00 | 54.536432 | 7.542182 | 2.0 | 7.998 | 2 | 33.484 | 8.164 | 31.929 | 2 |
| 2025-04-14T17:59:00 | 54.536461 | 7.542277 | 2.0 | 7.998 | 2 | 33.496 | 8.184 | 31.923 | 2 |
| 2025-04-14T18:00:00 | 54.536474 | 7.542424 | 2.0 | 7.993 | 2 | 33.207 | 8.183 | 31.619 | 2 |
| 2025-04-14T18:01:00 | 54.536480 | 7.542613 | 2.0 | 7.983 | 2 | 33.494 | 8.177 | 31.928 | 2 |
| 2025-04-14T18:02:00 | 54.536474 | 7.542880 | 2.0 | 7.987 | 2 | 33.490 | 8.173 | 31.927 | 2 |
| 2025-04-14T18:03:00 | 54.536289 | 7.542800 | 2.0 | 7.974 | 2 | 33.017 | 8.173 | 31.427 | 2 |
| 2025-04-14T18:04:00 | 54.536149 | 7.541725 | 2.0 | 7.917 | 2 | 33.480 | 8.150 | 31.937 | 2 |
| 2025-04-14T18:05:00 | 54.536245 | 7.539665 | 2.0 | 7.910 | 2 | 33.450 | 8.102 | 31.949 | 2 |
| 2025-04-14T18:06:00 | 54.536149 | 7.537302 | 2.0 | 7.988 | 2 | 33.454 | 8.111 | 31.945 | 2 |
| 2025-04-14T18:07:00 | 54.535947 | 7.534869 | 2.0 | 7.998 | 2 | 33.478 | 8.167 | 31.920 | 2 |
| 2025-04-14T18:08:00 | 54.535858 | 7.532471 | 2.0 | 8.010 | 2 | 33.427 | 8.183 | 31.851 | 2 |
| 2025-04-14T18:09:00 | 54.535845 | 7.530185 | 2.0 | 8.020 | 2 | 33.477 | 8.194 | 31.894 | 2 |
| 2025-04-14T18:10:00 | 54.535778 | 7.528013 | 2.0 | 8.009 | 2 | 33.214 | 8.203 | 31.608 | 2 |
| 2025-04-14T18:11:00 | 54.535722 | 7.525895 | 2.0 | 7.993 | 2 | 33.488 | 8.195 | 31.905 | 2 |
| 2025-04-14T18:12:00 | 54.535696 | 7.523825 | 2.0 | 7.940 | 2 | 33.174 | 8.163 | 31.602 | 2 |
| 2025-04-14T18:13:00 | 54.535697 | 7.521732 | 2.0 | 7.948 | 2 | 33.292 | 8.132 | 31.755 | 2 |
| 2025-04-14T18:14:00 | 54.535709 | 7.519604 | 2.0 | 7.976 | 2 | 33.004 | 8.135 | 31.448 | 2 |
| 2025-04-14T18:15:00 | 54.535722 | 7.517454 | 2.0 | 7.973 | 2 | 33.063 | 8.166 | 31.482 | 2 |
| 2025-04-14T18:16:00 | 54.535727 | 7.515300 | 2.0 | 7.975 | 2 | 33.454 | 8.157 | 31.903 | 2 |
| 2025-04-14T18:17:00 | 54.535711 | 7.513152 | 2.0 | 8.001 | 2 | 33.374 | 8.170 | 31.807 | 2 |
| 2025-04-14T18:18:00 | 54.535695 | 7.511020 | 2.0 | 7.998 | 2 | 33.286 | 8.184 | 31.701 | 2 |
| 2025-04-14T18:19:00 | 54.535686 | 7.508883 | 2.0 | 7.984 | 2 | 33.183 | 8.184 | 31.593 | 2 |
| 2025-04-14T18:20:00 | 54.535694 | 7.506763 | 2.0 | 7.966 | 2 | 32.874 | 8.165 | 31.284 | 2 |
| 2025-04-14T18:21:00 | 54.535717 | 7.504634 | 2.0 | 7.986 | 2 | 33.517 | 8.155 | 31.972 | 2 |
| 2025-04-14T18:22:00 | 54.535748 | 7.502515 | 2.0 | 8.028 | 2 | 33.249 | 8.176 | 31.670 | 2 |
| 2025-04-14T18:23:00 | 54.535775 | 7.500409 | 2.0 | 8.065 | 2 | 33.310 | 8.216 | 31.698 | 2 |
| 2025-04-14T18:24:00 | 54.535778 | 7.498300 | 2.0 | 8.097 | 2 | 33.658 | 8.251 | 32.033 | 2 |
| 2025-04-14T18:25:00 | 54.535767 | 7.496199 | 2.0 | 8.140 | 2 | 33.337 | 8.287 | 31.662 | 2 |
| 2025-04-14T18:26:00 | 54.535754 | 7.494107 | 2.0 | 8.203 | 2 | 33.619 | 8.331 | 31.920 | 2 |
| 2025-04-14T18:27:00 | 54.535742 | 7.492030 | 2.0 | 8.354 | 2 | 33.561 | 8.402 | 31.794 | 2 |
| 2025-04-14T18:28:00 | 54.535729 | 7.489966 | 2.0 | 8.375 | 2 | 33.656 | 8.530 | 31.779 | 2 |
| 2025-04-14T18:29:00 | 54.535719 | 7.487891 | 2.0 | 8.326 | 2 | 33.766 | 8.548 | 31.877 | 2 |
| 2025-04-14T18:30:00 | 54.535722 | 7.485798 | 2.0 | 8.327 | 2 | 33.669 | 8.507 | 31.813 | 2 |
| 2025-04-14T18:31:00 | 54.535728 | 7.483713 | 2.0 | 8.331 | 2 | 33.615 | 8.503 | 31.760 | 2 |
| 2025-04-14T18:32:00 | 54.535745 | 7.481627 | 2.0 | 8.326 | 2 | 33.867 | 8.509 | 32.019 | 2 |
| 2025-04-14T18:33:00 | 54.535755 | 7.479551 | 2.0 | 8.328 | 2 | 33.735 | 8.514 | 31.876 | 2 |
| 2025-04-14T18:34:00 | 54.535743 | 7.477452 | 2.0 | 8.065 | 2 | 33.932 | 8.480 | 32.113 | 2 |
| 2025-04-14T18:35:00 | 54.535601 | 7.475368 | 2.0 | 7.944 | 2 | 33.821 | 8.230 | 32.225 | 2 |
| 2025-04-14T18:36:00 | 54.535648 | 7.473279 | 2.0 | 7.884 | 2 | 33.777 | 8.125 | 32.275 | 2 |
| 2025-04-14T18:37:00 | 54.535820 | 7.471191 | 2.0 | 7.844 | 2 | 33.802 | 8.072 | 32.350 | 2 |
| 2025-04-14T18:38:00 | 54.535878 | 7.469064 | 2.0 | 7.822 | 2 | 33.760 | 8.027 | 32.347 | 2 |
| 2025-04-14T18:39:00 | 54.535844 | 7.466940 | 2.0 | 7.830 | 2 | 33.801 | 8.010 | 32.406 | 2 |
| 2025-04-14T18:40:00 | 54.535797 | 7.464815 | 2.0 | 7.843 | 2 | 33.695 | 8.017 | 32.287 | 2 |
| 2025-04-14T18:41:00 | 54.535750 | 7.462686 | 2.0 | 7.853 | 2 | 33.632 | 8.030 | 32.208 | 2 |
| 2025-04-14T18:42:00 | 54.535726 | 7.460555 | 2.0 | 7.867 | 2 | 33.663 | 8.037 | 32.235 | 2 |
| 2025-04-14T18:43:00 | 54.535736 | 7.458419 | 2.0 | 7.881 | 2 | 33.825 | 8.052 | 32.393 | 2 |
| 2025-04-14T18:44:00 | 54.535758 | 7.456294 | 2.0 | 7.896 | 2 | 33.786 | 8.066 | 32.339 | 2 |
| 2025-04-14T18:45:00 | 54.535763 | 7.454182 | 2.0 | 7.927 | 2 | 33.843 | 8.082 | 32.384 | 2 |
| 2025-04-14T18:46:00 | 54.535747 | 7.452067 | 2.0 | 7.956 | 2 | 33.893 | 8.115 | 32.407 | 2 |
| 2025-04-14T18:47:00 | 54.535713 | 7.449936 | 2.0 | 7.963 | 2 | 33.868 | 8.139 | 32.358 | 2 |
| 2025-04-14T18:48:00 | 54.535690 | 7.447828 | 2.0 | 7.933 | 2 | 33.956 | 8.136 | 32.454 | 2 |
| 2025-04-14T18:49:00 | 54.535692 | 7.445722 | 2.0 | 7.900 | 2 | 33.901 | 8.114 | 32.416 | 2 |
| 2025-04-14T18:50:00 | 54.535719 | 7.443568 | 2.0 | 7.882 | 2 | 33.905 | 8.078 | 32.454 | 2 |
| 2025-04-14T18:51:00 | 54.535745 | 7.441389 | 2.0 | 7.842 | 2 | 33.809 | 8.063 | 32.366 | 2 |
| 2025-04-14T18:52:00 | 54.535429 | 7.439536 | 2.0 | 7.793 | 2 | 33.705 | 8.011 | 32.303 | 2 |
| 2025-04-14T18:53:00 | 54.534543 | 7.439053 | 2.0 | 7.798 | 2 | 33.650 | 7.977 | 32.276 | 2 |
| 2025-04-14T18:54:00 | 54.533811 | 7.440150 | 2.0 | 7.816 | 2 | 33.682 | 7.981 | 32.307 | 2 |
| 2025-04-14T18:55:00 | 54.533631 | 7.442213 | 2.0 | 7.878 | 2 | 33.699 | 8.008 | 32.300 | 2 |
| 2025-04-14T18:56:00 | 54.533578 | 7.444555 | 2.0 | 7.907 | 2 | 33.733 | 8.064 | 32.284 | 2 |
| 2025-04-14T18:57:00 | 54.533531 | 7.446671 | 2.0 | 7.939 | 2 | 33.802 | 8.088 | 32.335 | 2 |
| 2025-04-14T18:58:00 | 54.533535 | 7.448779 | 2.0 | 7.963 | 2 | 33.863 | 8.121 | 32.370 | 2 |
| 2025-04-14T18:59:00 | 54.533593 | 7.450962 | 2.0 | 7.990 | 2 | 33.814 | 8.152 | 32.289 | 2 |
| 2025-04-14T19:00:00 | 54.533636 | 7.453190 | 2.0 | 7.967 | 2 | 33.872 | 8.165 | 32.339 | 2 |
| 2025-04-14T19:01:00 | 54.533607 | 7.455446 | 2.0 | 7.925 | 2 | 33.737 | 8.140 | 32.219 | 2 |
| 2025-04-14T19:02:00 | 54.533566 | 7.457723 | 2.0 | 7.893 | 2 | 33.885 | 8.101 | 32.411 | 2 |
| 2025-04-14T19:03:00 | 54.533557 | 7.460012 | 2.0 | 7.870 | 2 | 33.922 | 8.071 | 32.479 | 2 |
| 2025-04-14T19:04:00 | 54.533584 | 7.462308 | 2.0 | 7.855 | 2 | 33.873 | 8.050 | 32.446 | 2 |
| 2025-04-14T19:05:00 | 54.533592 | 7.464616 | 2.0 | 7.846 | 2 | 33.798 | 8.036 | 32.379 | 2 |
| 2025-04-14T19:06:00 | 54.533572 | 7.466931 | 2.0 | 7.830 | 2 | 33.848 | 8.024 | 32.443 | 2 |
| 2025-04-14T19:07:00 | 54.533552 | 7.469219 | 2.0 | 7.837 | 2 | 33.786 | 8.012 | 32.389 | 2 |
| 2025-04-14T19:08:00 | 54.533545 | 7.471469 | 2.0 | 7.837 | 2 | 33.784 | 8.018 | 32.381 | 2 |
| 2025-04-14T19:09:00 | 54.533546 | 7.473694 | 2.0 | 7.911 | 2 | 33.846 | 8.025 | 32.440 | 2 |
| 2025-04-14T19:10:00 | 54.533569 | 7.475914 | 2.0 | 8.108 | 2 | 33.872 | 8.129 | 32.372 | 2 |
| 2025-04-14T19:11:00 | 54.533607 | 7.478135 | 2.0 | 8.239 | 2 | 33.958 | 8.305 | 32.301 | 2 |
| 2025-04-14T19:12:00 | 54.533652 | 7.480356 | 2.0 | 8.289 | 2 | 34.254 | 8.411 | 32.515 | 2 |
| 2025-04-14T19:13:00 | 54.533689 | 7.482581 | 2.0 | 8.344 | 2 | 34.213 | 8.472 | 32.416 | 2 |
| 2025-04-14T19:14:00 | 54.533659 | 7.484811 | 2.0 | 8.410 | 2 | 34.171 | 8.520 | 32.328 | 2 |
| 2025-04-14T19:15:00 | 54.533610 | 7.487044 | 2.0 | 8.448 | 2 | 34.146 | 8.586 | 32.241 | 2 |
| 2025-04-14T19:16:00 | 54.533581 | 7.489289 | 2.0 | 8.442 | 2 | 34.137 | 8.613 | 32.207 | 2 |
| 2025-04-14T19:17:00 | 54.533571 | 7.491545 | 2.0 | 8.424 | 2 | 34.091 | 8.615 | 32.157 | 2 |
| 2025-04-14T19:18:00 | 54.533549 | 7.493811 | 2.0 | 8.344 | 2 | 34.051 | 8.589 | 32.139 | 2 |
| 2025-04-14T19:19:00 | 54.533537 | 7.496085 | 2.0 | 8.244 | 2 | 33.930 | 8.506 | 32.087 | 2 |
| 2025-04-14T19:20:00 | 54.533521 | 7.498359 | 2.0 | 8.119 | 2 | 33.820 | 8.407 | 32.062 | 2 |
| 2025-04-14T19:21:00 | 54.533515 | 7.500638 | 2.0 | 8.037 | 2 | 33.702 | 8.295 | 32.040 | 2 |
| 2025-04-14T19:22:00 | 54.533546 | 7.502916 | 2.0 | 7.981 | 2 | 33.595 | 8.208 | 32.006 | 2 |
| 2025-04-14T19:23:00 | 54.533590 | 7.505183 | 2.0 | 7.971 | 2 | 33.538 | 8.161 | 31.989 | 2 |
| 2025-04-14T19:24:00 | 54.533583 | 7.507446 | 2.0 | 7.953 | 2 | 33.529 | 8.149 | 31.990 | 2 |
| 2025-04-14T19:25:00 | 54.533542 | 7.509699 | 2.0 | 7.930 | 2 | 33.506 | 8.129 | 31.984 | 2 |
| 2025-04-14T19:26:00 | 54.533520 | 7.511943 | 2.0 | 7.924 | 2 | 33.478 | 8.110 | 31.972 | 2 |
| 2025-04-14T19:27:00 | 54.533542 | 7.514183 | 2.0 | 7.922 | 2 | 33.466 | 8.103 | 31.965 | 2 |
| 2025-04-14T19:28:00 | 54.533572 | 7.516423 | 2.0 | 7.937 | 2 | 33.460 | 8.103 | 31.959 | 2 |
| 2025-04-14T19:29:00 | 54.533606 | 7.518665 | 2.0 | 7.979 | 2 | 33.468 | 8.122 | 31.950 | 2 |
| 2025-04-14T19:30:00 | 54.533645 | 7.520896 | 2.0 | 7.981 | 2 | 33.492 | 8.161 | 31.940 | 2 |
| 2025-04-14T19:31:00 | 54.533672 | 7.523123 | 2.0 | 7.955 | 2 | 33.489 | 8.152 | 31.945 | 2 |
| 2025-04-14T19:32:00 | 54.533688 | 7.525349 | 2.0 | 7.975 | 2 | 33.473 | 8.135 | 31.944 | 2 |
| 2025-04-14T19:33:00 | 54.533691 | 7.527564 | 2.0 | 8.000 | 2 | 33.481 | 8.157 | 31.932 | 2 |
| 2025-04-14T19:34:00 | 54.533607 | 7.529736 | 2.0 | 7.997 | 2 | 33.493 | 8.175 | 31.928 | 2 |
| 2025-04-14T19:35:00 | 54.533288 | 7.531935 | 2.0 | 7.992 | 2 | 33.493 | 8.174 | 31.929 | 2 |
| 2025-04-14T19:36:00 | 54.533292 | 7.534072 | 2.0 | 7.965 | 2 | 33.487 | 8.165 | 31.931 | 2 |
| 2025-04-14T19:37:00 | 54.534220 | 7.534678 | 2.0 | 7.951 | 2 | 33.463 | 8.136 | 31.932 | 2 |
| 2025-04-14T19:38:00 | 54.534804 | 7.533280 | 2.0 | 7.978 | 2 | 33.453 | 8.131 | 31.926 | 2 |
| 2025-04-14T19:39:00 | 54.534795 | 7.531024 | 2.0 | 8.020 | 2 | 33.474 | 8.162 | 31.920 | 2 |
| 2025-04-14T19:40:00 | 54.535001 | 7.528744 | 2.0 | 8.015 | 2 | 33.509 | 8.197 | 31.925 | 2 |
| 2025-04-14T19:41:00 | 54.535073 | 7.526524 | 2.0 | 7.975 | 2 | 33.504 | 8.186 | 31.930 | 2 |
| 2025-04-14T19:42:00 | 54.535034 | 7.524320 | 2.0 | 7.964 | 2 | 33.480 | 8.147 | 31.940 | 2 |
| 2025-04-14T19:43:00 | 54.534997 | 7.522147 | 2.0 | 7.978 | 2 | 33.483 | 8.148 | 31.942 | 2 |
| 2025-04-14T19:44:00 | 54.534992 | 7.519993 | 2.0 | 7.945 | 2 | 33.418 | 8.152 | 31.870 | 2 |
| 2025-04-14T19:45:00 | 54.534975 | 7.517839 | 2.0 | 7.918 | 2 | 33.477 | 8.118 | 31.963 | 2 |
| 2025-04-14T19:46:00 | 54.534967 | 7.515641 | 2.0 | 7.929 | 2 | 33.435 | 8.100 | 31.935 | 2 |
| 2025-04-14T19:47:00 | 54.534928 | 7.513439 | 2.0 | 7.953 | 2 | 33.460 | 8.114 | 31.949 | 2 |
| 2025-04-14T19:48:00 | 54.534895 | 7.511239 | 2.0 | 7.992 | 2 | 33.589 | 8.136 | 32.065 | 2 |
| 2025-04-14T19:49:00 | 54.534954 | 7.509046 | 2.0 | 8.006 | 2 | 33.601 | 8.165 | 32.052 | 2 |
| 2025-04-14T19:50:00 | 54.535008 | 7.506847 | 2.0 | 8.069 | 2 | 33.207 | 8.192 | 31.611 | 2 |
| 2025-04-14T19:51:00 | 54.534977 | 7.504634 | 2.0 | 8.282 | 2 | 33.404 | 8.288 | 31.732 | 2 |
| 2025-04-14T19:52:00 | 54.534914 | 7.502436 | 2.0 | 8.345 | 2 | 33.587 | 8.453 | 31.776 | 2 |
| 2025-04-14T19:53:00 | 54.534951 | 7.500235 | 2.0 | 8.380 | 2 | 34.036 | 8.517 | 32.189 | 2 |
| 2025-04-14T19:54:00 | 54.534996 | 7.498009 | 2.0 | 8.362 | 2 | 33.916 | 8.546 | 32.036 | 2 |
| 2025-04-14T19:55:00 | 54.534971 | 7.495782 | 2.0 | 8.339 | 2 | 33.619 | 8.530 | 31.740 | 2 |
| 2025-04-14T19:56:00 | 54.534932 | 7.493544 | 2.0 | 8.257 | 2 | 33.802 | 8.503 | 31.956 | 2 |
| 2025-04-14T19:57:00 | 54.534895 | 7.491301 | 2.0 | 8.147 | 2 | 33.871 | 8.413 | 32.110 | 2 |
| 2025-04-14T19:58:00 | 54.534886 | 7.489056 | 2.0 | 8.022 | 2 | 33.964 | 8.311 | 32.301 | 2 |
| 2025-04-14T19:59:00 | 54.534949 | 7.486817 | 2.0 | 7.819 | 2 | 33.941 | 8.164 | 32.413 | 2 |
| 2025-04-14T20:00:00 | 54.534976 | 7.484588 | 2.0 | 7.790 | 2 | 33.694 | 8.004 | 32.298 | 2 |
| 2025-04-14T20:01:00 | 54.534948 | 7.482346 | 2.0 | 7.808 | 2 | 33.643 | 7.977 | 32.269 | 2 |
| 2025-04-14T20:02:00 | 54.534905 | 7.480103 | 2.0 | 7.820 | 2 | 33.668 | 7.992 | 32.282 | 2 |
| 2025-04-14T20:03:00 | 54.534953 | 7.477864 | 2.0 | 7.833 | 2 | 33.809 | 8.001 | 32.423 | 2 |
| 2025-04-14T20:04:00 | 54.535003 | 7.475628 | 2.0 | 7.860 | 2 | 33.887 | 8.017 | 32.491 | 2 |
| 2025-04-14T20:05:00 | 54.535009 | 7.473401 | 2.0 | 7.888 | 2 | 33.623 | 8.042 | 32.188 | 2 |
| 2025-04-14T20:06:00 | 54.534981 | 7.471168 | 2.0 | 7.916 | 2 | 33.817 | 8.069 | 32.369 | 2 |
| 2025-04-14T20:07:00 | 54.534972 | 7.468951 | 2.0 | 7.907 | 2 | 33.748 | 8.093 | 32.273 | 2 |
| 2025-04-14T20:08:00 | 54.534980 | 7.466721 | 2.0 | 7.863 | 2 | 33.960 | 8.079 | 32.511 | 2 |
| 2025-04-14T20:09:00 | 54.534979 | 7.464491 | 2.0 | 7.823 | 2 | 33.771 | 8.036 | 32.350 | 2 |
| 2025-04-14T20:10:00 | 54.534964 | 7.462263 | 2.0 | 7.756 | 2 | 33.763 | 7.990 | 32.385 | 2 |
| 2025-04-14T20:11:00 | 54.534934 | 7.460059 | 2.0 | 7.736 | 2 | 33.701 | 7.933 | 32.371 | 2 |
| 2025-04-14T20:12:00 | 54.534915 | 7.457870 | 2.0 | 7.735 | 2 | 33.679 | 7.917 | 32.363 | 2 |
| 2025-04-14T20:13:00 | 54.534928 | 7.455670 | 2.0 | 7.741 | 2 | 33.493 | 7.916 | 32.165 | 2 |
| 2025-04-14T20:14:00 | 54.534969 | 7.453491 | 2.0 | 7.753 | 2 | 33.735 | 7.923 | 32.417 | 2 |
| 2025-04-14T20:15:00 | 54.534982 | 7.451315 | 2.0 | 7.763 | 2 | 33.737 | 7.932 | 32.411 | 2 |
| 2025-04-14T20:16:00 | 54.534974 | 7.449128 | 2.0 | 7.778 | 2 | 33.684 | 7.942 | 32.345 | 2 |
| 2025-04-14T20:17:00 | 54.534973 | 7.446961 | 2.0 | 7.801 | 2 | 33.732 | 7.959 | 32.380 | 2 |
| 2025-04-14T20:18:00 | 54.534990 | 7.444785 | 2.0 | 7.828 | 2 | 33.863 | 7.982 | 32.498 | 2 |
| 2025-04-14T20:19:00 | 54.535005 | 7.442563 | 2.0 | 7.843 | 2 | 33.785 | 8.008 | 32.391 | 2 |
| 2025-04-14T20:20:00 | 54.535131 | 7.440330 | 2.0 | 7.852 | 2 | 33.814 | 8.021 | 32.410 | 2 |
| 2025-04-14T20:21:00 | 54.535650 | 7.438247 | 2.0 | 7.882 | 2 | 33.846 | 8.031 | 32.435 | 2 |
| 2025-04-14T20:22:00 | 54.535699 | 7.436110 | 2.0 | 7.912 | 2 | 33.587 | 8.061 | 32.132 | 2 |
| 2025-04-14T20:23:00 | 54.534612 | 7.434766 | 2.0 | 7.924 | 2 | 34.070 | 8.088 | 32.620 | 2 |
| 2025-04-14T20:24:00 | 54.533341 | 7.435530 | 2.0 | 7.901 | 2 | 34.079 | 8.095 | 32.623 | 2 |
| 2025-04-14T20:25:00 | 54.532887 | 7.437525 | 2.0 | 7.865 | 2 | 34.044 | 8.068 | 32.611 | 2 |
| 2025-04-14T20:26:00 | 54.532847 | 7.439881 | 2.0 | 7.853 | 2 | 33.989 | 8.042 | 32.577 | 2 |
| 2025-04-14T20:27:00 | 54.532838 | 7.442339 | 2.0 | 7.846 | 2 | 33.971 | 8.026 | 32.572 | 2 |
| 2025-04-14T20:28:00 | 54.532768 | 7.444731 | 2.0 | 7.824 | 2 | 33.986 | 8.020 | 32.594 | 2 |
| 2025-04-14T20:29:00 | 54.532754 | 7.447074 | 2.0 | 7.817 | 2 | 33.958 | 8.000 | 32.583 | 2 |
| 2025-04-14T20:30:00 | 54.532781 | 7.449395 | 2.0 | 7.812 | 2 | 33.950 | 7.992 | 32.582 | 2 |
| 2025-04-14T20:31:00 | 54.532788 | 7.451705 | 2.0 | 7.814 | 2 | 33.944 | 7.990 | 32.577 | 2 |
| 2025-04-14T20:32:00 | 54.532799 | 7.454004 | 2.0 | 7.809 | 2 | 33.942 | 7.990 | 32.575 | 2 |
| 2025-04-14T20:33:00 | 54.532818 | 7.456302 | 2.0 | 7.790 | 2 | 33.941 | 7.983 | 32.581 | 2 |
| 2025-04-14T20:34:00 | 54.532832 | 7.458600 | 2.0 | 7.771 | 2 | 33.923 | 7.963 | 32.580 | 2 |
| 2025-04-14T20:35:00 | 54.532833 | 7.460901 | 2.0 | 7.754 | 2 | 33.907 | 7.946 | 32.579 | 2 |
| 2025-04-14T20:36:00 | 54.532834 | 7.463201 | 2.0 | 7.749 | 2 | 33.892 | 7.932 | 32.576 | 2 |
| 2025-04-14T20:37:00 | 54.532821 | 7.465500 | 2.0 | 7.746 | 2 | 33.883 | 7.927 | 32.571 | 2 |
| 2025-04-14T20:38:00 | 54.532797 | 7.467759 | 2.0 | 7.742 | 2 | 33.876 | 7.923 | 32.567 | 2 |
| 2025-04-14T20:39:00 | 54.532794 | 7.469990 | 2.0 | 7.732 | 2 | 33.871 | 7.920 | 32.565 | 2 |
| 2025-04-14T20:40:00 | 54.532828 | 7.472193 | 2.0 | 7.721 | 2 | 33.859 | 7.907 | 32.564 | 2 |
| 2025-04-14T20:41:00 | 54.532870 | 7.474379 | 2.0 | 7.724 | 2 | 33.847 | 7.900 | 32.558 | 2 |
| 2025-04-14T20:42:00 | 54.532877 | 7.476568 | 2.0 | 7.730 | 2 | 33.850 | 7.902 | 32.559 | 2 |
| 2025-04-14T20:43:00 | 54.532854 | 7.478758 | 2.0 | 7.745 | 2 | 33.860 | 7.909 | 32.563 | 2 |
| 2025-04-14T20:44:00 | 54.532844 | 7.480942 | 2.0 | 7.773 | 2 | 33.863 | 7.926 | 32.550 | 2 |
| 2025-04-14T20:45:00 | 54.532862 | 7.483118 | 2.0 | 7.825 | 2 | 33.880 | 7.958 | 32.539 | 2 |
| 2025-04-14T20:46:00 | 54.532880 | 7.485306 | 2.0 | 7.840 | 2 | 33.920 | 8.003 | 32.540 | 2 |
| 2025-04-14T20:47:00 | 54.532879 | 7.487501 | 2.0 | 7.869 | 2 | 33.939 | 8.020 | 32.544 | 2 |
| 2025-04-14T20:48:00 | 54.532869 | 7.489702 | 2.0 | 7.891 | 2 | 33.966 | 8.047 | 32.548 | 2 |
| 2025-04-14T20:49:00 | 54.532849 | 7.491903 | 2.0 | 7.887 | 2 | 33.992 | 8.066 | 32.558 | 2 |
| 2025-04-14T20:50:00 | 54.532826 | 7.494104 | 2.0 | 7.885 | 2 | 33.999 | 8.060 | 32.571 | 2 |
| 2025-04-14T20:51:00 | 54.532815 | 7.496309 | 2.0 | 7.878 | 2 | 34.001 | 8.058 | 32.575 | 2 |
| 2025-04-14T20:52:00 | 54.532830 | 7.498529 | 2.0 | 7.869 | 2 | 33.983 | 8.053 | 32.560 | 2 |
| 2025-04-14T20:53:00 | 54.532846 | 7.500756 | 2.0 | 7.863 | 2 | 33.760 | 8.044 | 32.331 | 2 |
| 2025-04-14T20:54:00 | 54.532854 | 7.502987 | 2.0 | 7.847 | 2 | 33.637 | 8.035 | 32.209 | 2 |
| 2025-04-14T20:55:00 | 54.532865 | 7.505211 | 2.0 | 7.820 | 2 | 33.742 | 8.019 | 32.335 | 2 |
| 2025-04-14T20:56:00 | 54.532869 | 7.507429 | 2.0 | 7.804 | 2 | 33.621 | 7.993 | 32.231 | 2 |
| 2025-04-14T20:57:00 | 54.532880 | 7.509645 | 2.0 | 7.804 | 2 | 33.664 | 7.982 | 32.287 | 2 |
| 2025-04-14T20:58:00 | 54.532873 | 7.511872 | 2.0 | 7.799 | 2 | 33.943 | 7.980 | 32.585 | 2 |
| 2025-04-14T20:59:00 | 54.532848 | 7.514111 | 2.0 | 7.787 | 2 | 33.715 | 7.972 | 32.350 | 2 |
| 2025-04-14T21:00:00 | 54.532827 | 7.516330 | 2.0 | 7.784 | 2 | 33.582 | 7.963 | 32.217 | 2 |
| 2025-04-14T21:01:00 | 54.532812 | 7.518559 | 2.0 | 7.770 | 2 | 33.813 | 7.957 | 32.468 | 2 |
| 2025-04-14T21:02:00 | 54.532810 | 7.520795 | 2.0 | 7.814 | 2 | 33.842 | 7.954 | 32.502 | 2 |
| 2025-04-14T21:03:00 | 54.532847 | 7.523023 | 2.0 | 7.885 | 2 | 33.788 | 7.996 | 32.406 | 2 |
| 2025-04-14T21:04:00 | 54.532895 | 7.525242 | 2.0 | 7.961 | 2 | 33.962 | 8.071 | 32.521 | 2 |
| 2025-04-14T21:05:00 | 54.532928 | 7.527457 | 2.0 | 8.113 | 2 | 33.706 | 8.149 | 32.177 | 2 |
| 2025-04-14T21:06:00 | 54.532852 | 7.529673 | 2.0 | 8.197 | 2 | 34.051 | 8.308 | 32.396 | 2 |
| 2025-04-14T21:07:00 | 54.532504 | 7.531766 | 2.0 | 8.237 | 2 | 33.577 | 8.376 | 31.835 | 2 |
| 2025-04-14T21:08:00 | 54.532307 | 7.533840 | 2.0 | 8.244 | 2 | 33.684 | 8.407 | 31.919 | 2 |
| 2025-04-14T21:09:00 | 54.532964 | 7.535131 | 2.0 | 8.201 | 2 | 33.626 | 8.403 | 31.862 | 2 |
| 2025-04-14T21:10:00 | 54.533676 | 7.534427 | 2.0 | 8.151 | 2 | 34.000 | 8.360 | 32.294 | 2 |
| 2025-04-14T21:11:00 | 54.533804 | 7.532497 | 2.0 | 8.062 | 2 | 33.764 | 8.309 | 32.092 | 2 |
| 2025-04-14T21:12:00 | 54.534004 | 7.530277 | 2.0 | 7.955 | 2 | 33.885 | 8.215 | 32.306 | 2 |
| 2025-04-14T21:13:00 | 54.534194 | 7.528090 | 2.0 | 7.809 | 2 | 33.887 | 8.110 | 32.405 | 2 |
| 2025-04-14T21:14:00 | 54.534239 | 7.525928 | 2.0 | 7.777 | 2 | 33.724 | 7.984 | 32.349 | 2 |
| 2025-04-14T21:15:00 | 54.534232 | 7.523695 | 2.0 | 7.786 | 2 | 33.769 | 7.959 | 32.420 | 2 |
| 2025-04-14T21:16:00 | 54.534274 | 7.521407 | 2.0 | 7.792 | 2 | 33.743 | 7.967 | 32.385 | 2 |
| 2025-04-14T21:17:00 | 54.534299 | 7.519139 | 2.0 | 7.807 | 2 | 33.813 | 7.970 | 32.456 | 2 |
| 2025-04-14T21:18:00 | 54.534296 | 7.516904 | 2.0 | 7.838 | 2 | 33.607 | 7.989 | 32.219 | 2 |
| 2025-04-14T21:19:00 | 54.534262 | 7.514693 | 2.0 | 7.873 | 2 | 33.905 | 8.023 | 32.505 | 2 |
| 2025-04-14T21:20:00 | 54.534237 | 7.512488 | 2.0 | 7.814 | 2 | 33.810 | 8.039 | 32.389 | 2 |
| 2025-04-14T21:21:00 | 54.534239 | 7.510283 | 2.0 | 7.760 | 2 | 33.897 | 7.986 | 32.531 | 2 |
| 2025-04-14T21:22:00 | 54.534252 | 7.508090 | 2.0 | 7.725 | 2 | 33.831 | 7.934 | 32.509 | 2 |
| 2025-04-14T21:23:00 | 54.534260 | 7.505884 | 2.0 | 7.729 | 2 | 33.812 | 7.903 | 32.518 | 2 |
| 2025-04-14T21:24:00 | 54.534249 | 7.503670 | 2.0 | 7.756 | 2 | 33.636 | 7.912 | 32.321 | 2 |
| 2025-04-14T21:25:00 | 54.534233 | 7.501474 | 2.0 | 7.768 | 2 | 33.825 | 7.936 | 32.501 | 2 |
| 2025-04-14T21:26:00 | 54.534263 | 7.499286 | 2.0 | 7.771 | 2 | 33.785 | 7.943 | 32.452 | 2 |
| 2025-04-14T21:27:00 | 54.534303 | 7.497097 | 2.0 | 7.777 | 2 | 33.745 | 7.949 | 32.403 | 2 |
| 2025-04-14T21:28:00 | 54.534297 | 7.494896 | 2.0 | 7.791 | 2 | 33.756 | 7.954 | 32.410 | 2 |
| 2025-04-14T21:29:00 | 54.534270 | 7.492701 | 2.0 | 7.798 | 2 | 33.770 | 7.968 | 32.412 | 2 |
| 2025-04-14T21:30:00 | 54.534249 | 7.490512 | 2.0 | 7.799 | 2 | 33.717 | 7.973 | 32.351 | 2 |
| 2025-04-14T21:31:00 | 54.534264 | 7.488313 | 2.0 | 7.803 | 2 | 33.960 | 7.975 | 32.608 | 2 |
| 2025-04-14T21:32:00 | 54.534288 | 7.486107 | 2.0 | 7.826 | 2 | 33.836 | 7.981 | 32.471 | 2 |
| 2025-04-14T21:33:00 | 54.534270 | 7.483887 | 2.0 | 7.846 | 2 | 33.851 | 8.007 | 32.462 | 2 |
| 2025-04-14T21:34:00 | 54.534236 | 7.481663 | 2.0 | 7.841 | 2 | 33.845 | 8.018 | 32.446 | 2 |
| 2025-04-14T21:35:00 | 54.534253 | 7.479430 | 2.0 | 7.858 | 2 | 33.903 | 8.019 | 32.507 | 2 |
| 2025-04-14T21:36:00 | 54.534301 | 7.477194 | 2.0 | 7.873 | 2 | 33.901 | 8.035 | 32.490 | 2 |
| 2025-04-14T21:37:00 | 54.534276 | 7.474984 | 2.0 | 7.876 | 2 | 33.944 | 8.047 | 32.524 | 2 |
| 2025-04-14T21:38:00 | 54.534242 | 7.472817 | 2.0 | 7.876 | 2 | 33.973 | 8.050 | 32.552 | 2 |
| 2025-04-14T21:39:00 | 54.534244 | 7.470668 | 2.0 | 7.901 | 2 | 34.025 | 8.055 | 32.603 | 2 |
| 2025-04-14T21:40:00 | 54.534249 | 7.468498 | 2.0 | 7.920 | 2 | 34.039 | 8.076 | 32.598 | 2 |
| 2025-04-14T21:41:00 | 54.534246 | 7.466305 | 2.0 | 7.930 | 2 | 34.115 | 8.092 | 32.664 | 2 |
| 2025-04-14T21:42:00 | 54.534248 | 7.464100 | 2.0 | 7.967 | 2 | 34.156 | 8.113 | 32.688 | 2 |
| 2025-04-14T21:43:00 | 54.534259 | 7.461896 | 2.0 | 7.976 | 2 | 34.215 | 8.139 | 32.726 | 2 |
| 2025-04-14T21:44:00 | 54.534258 | 7.459685 | 2.0 | 7.987 | 2 | 34.219 | 8.152 | 32.719 | 2 |
| 2025-04-14T21:45:00 | 54.534258 | 7.457462 | 2.0 | 8.001 | 2 | 34.250 | 8.161 | 32.743 | 2 |
| 2025-04-14T21:46:00 | 54.534256 | 7.455241 | 2.0 | 7.996 | 2 | 34.249 | 8.173 | 32.731 | 2 |
| 2025-04-14T21:47:00 | 54.534239 | 7.453020 | 2.0 | 7.956 | 2 | 34.272 | 8.160 | 32.767 | 2 |
| 2025-04-14T21:48:00 | 54.534231 | 7.450790 | 2.0 | 7.946 | 2 | 34.259 | 8.127 | 32.784 | 2 |
| 2025-04-14T21:49:00 | 54.534243 | 7.448546 | 2.0 | 7.954 | 2 | 34.222 | 8.124 | 32.748 | 2 |
| 2025-04-14T21:50:00 | 54.534266 | 7.446301 | 2.0 | 7.966 | 2 | 34.239 | 8.130 | 32.760 | 2 |
| 2025-04-14T21:51:00 | 54.534280 | 7.444063 | 2.0 | 7.964 | 2 | 34.258 | 8.139 | 32.772 | 2 |
| 2025-04-14T21:52:00 | 54.534309 | 7.441829 | 2.0 | 7.968 | 2 | 34.263 | 8.138 | 32.778 | 2 |
| 2025-04-14T21:53:00 | 54.534729 | 7.439777 | 2.0 | 7.993 | 2 | 34.281 | 8.145 | 32.791 | 2 |
| 2025-04-14T21:54:00 | 54.535161 | 7.437686 | 2.0 | 8.021 | 2 | 34.300 | 8.169 | 32.789 | 2 |
| 2025-04-14T21:55:00 | 54.535003 | 7.435566 | 2.0 | 8.029 | 2 | 34.337 | 8.192 | 32.806 | 2 |
| 2025-04-14T21:56:00 | 54.533773 | 7.434713 | 2.0 | 8.030 | 2 | 34.336 | 8.201 | 32.797 | 2 |
| 2025-04-14T21:57:00 | 54.532558 | 7.436075 | 2.0 | 8.042 | 2 | 34.386 | 8.203 | 32.848 | 2 |
| 2025-04-14T21:58:00 | 54.532170 | 7.438478 | 2.0 | 8.026 | 2 | 34.378 | 8.212 | 32.831 | 2 |
| 2025-04-14T21:59:00 | 54.532076 | 7.440892 | 2.0 | 7.993 | 2 | 34.341 | 8.194 | 32.809 | 2 |
| 2025-04-14T22:00:00 | 54.532062 | 7.443218 | 2.0 | 7.963 | 2 | 34.343 | 8.163 | 32.840 | 2 |
| 2025-04-14T22:01:00 | 54.532056 | 7.445439 | 2.0 | 7.936 | 2 | 34.321 | 8.133 | 32.845 | 2 |
| 2025-04-14T22:02:00 | 54.532057 | 7.447588 | 2.0 | 7.929 | 2 | 34.312 | 8.110 | 32.857 | 2 |
| 2025-04-14T22:03:00 | 54.532089 | 7.449684 | 2.0 | 7.927 | 2 | 34.300 | 8.102 | 32.851 | 2 |
| 2025-04-14T22:04:00 | 54.532149 | 7.451743 | 2.0 | 7.934 | 2 | 34.316 | 8.102 | 32.868 | 2 |
| 2025-04-14T22:05:00 | 54.532187 | 7.453804 | 2.0 | 7.940 | 2 | 34.317 | 8.109 | 32.863 | 2 |
| 2025-04-14T22:06:00 | 54.532165 | 7.455956 | 2.0 | 7.946 | 2 | 34.323 | 8.115 | 32.864 | 2 |
| 2025-04-14T22:07:00 | 54.532125 | 7.458163 | 2.0 | 7.945 | 2 | 34.324 | 8.120 | 32.860 | 2 |
| 2025-04-14T22:08:00 | 54.532108 | 7.460404 | 2.0 | 7.931 | 2 | 34.322 | 8.116 | 32.862 | 2 |
| 2025-04-14T22:09:00 | 54.532101 | 7.462666 | 2.0 | 7.911 | 2 | 34.313 | 8.099 | 32.868 | 2 |
| 2025-04-14T22:10:00 | 54.532087 | 7.464927 | 2.0 | 7.931 | 2 | 34.305 | 8.085 | 32.873 | 2 |
| 2025-04-14T22:11:00 | 54.532089 | 7.467135 | 2.0 | 7.947 | 2 | 34.317 | 8.105 | 32.867 | 2 |
| 2025-04-14T22:12:00 | 54.532105 | 7.469309 | 2.0 | 7.960 | 2 | 34.331 | 8.122 | 32.866 | 2 |
| 2025-04-14T22:13:00 | 54.532122 | 7.471463 | 2.0 | 7.963 | 2 | 34.340 | 8.134 | 32.864 | 2 |
| 2025-04-14T22:14:00 | 54.532155 | 7.473627 | 2.0 | 7.967 | 2 | 34.349 | 8.135 | 32.873 | 2 |
| 2025-04-14T22:15:00 | 54.532208 | 7.475810 | 2.0 | 7.936 | 2 | 34.001 | 8.135 | 32.503 | 2 |
| 2025-04-14T22:16:00 | 54.532185 | 7.478025 | 2.0 | 7.921 | 2 | 33.737 | 8.104 | 32.252 | 2 |
| 2025-04-14T22:17:00 | 54.532138 | 7.480247 | 2.0 | 7.921 | 2 | 34.332 | 8.094 | 32.893 | 2 |
| 2025-04-14T22:18:00 | 54.532120 | 7.482457 | 2.0 | 7.927 | 2 | 33.950 | 8.095 | 32.486 | 2 |
| 2025-04-14T22:19:00 | 54.532124 | 7.484657 | 2.0 | 7.921 | 2 | 33.942 | 8.098 | 32.475 | 2 |
| 2025-04-14T22:20:00 | 54.532120 | 7.486848 | 2.0 | 7.924 | 2 | 33.905 | 8.094 | 32.439 | 2 |
| 2025-04-14T22:21:00 | 54.532084 | 7.489031 | 2.0 | 7.921 | 2 | 34.191 | 8.097 | 32.740 | 2 |
| 2025-04-14T22:22:00 | 54.532060 | 7.491215 | 2.0 | 7.904 | 2 | 33.334 | 8.089 | 31.838 | 2 |
| 2025-04-14T22:23:00 | 54.532091 | 7.493396 | 2.0 | 7.884 | 2 | 33.959 | 8.065 | 32.523 | 2 |
| 2025-04-14T22:24:00 | 54.532160 | 7.495571 | 2.0 | 7.897 | 2 | 34.196 | 8.058 | 32.782 | 2 |
| 2025-04-14T22:25:00 | 54.532199 | 7.497752 | 2.0 | 7.875 | 2 | 33.826 | 8.066 | 32.381 | 2 |
| 2025-04-14T22:26:00 | 54.532145 | 7.499947 | 2.0 | 7.844 | 2 | 34.231 | 8.042 | 32.834 | 2 |
| 2025-04-14T22:27:00 | 54.532114 | 7.502137 | 2.0 | 7.841 | 2 | 33.417 | 8.018 | 31.991 | 2 |
| 2025-04-14T22:28:00 | 54.532128 | 7.504311 | 2.0 | 7.830 | 2 | 33.720 | 8.013 | 32.318 | 2 |
| 2025-04-14T22:29:00 | 54.532134 | 7.506495 | 2.0 | 7.826 | 2 | 33.546 | 8.003 | 32.142 | 2 |
| 2025-04-14T22:30:00 | 54.532121 | 7.508693 | 2.0 | 7.840 | 2 | 33.873 | 7.996 | 32.496 | 2 |
| 2025-04-14T22:31:00 | 54.532118 | 7.510903 | 2.0 | 7.832 | 2 | 34.053 | 8.015 | 32.670 | 2 |
| 2025-04-14T22:32:00 | 54.532125 | 7.513111 | 2.0 | 7.798 | 2 | 33.755 | 8.004 | 32.363 | 2 |
| 2025-04-14T22:33:00 | 54.532110 | 7.515321 | 2.0 | 7.801 | 2 | 33.829 | 7.965 | 32.478 | 2 |
| 2025-04-14T22:34:00 | 54.532126 | 7.517528 | 2.0 | 7.799 | 2 | 33.993 | 7.973 | 32.645 | 2 |
| 2025-04-14T22:35:00 | 54.532172 | 7.519732 | 2.0 | 7.825 | 2 | 33.752 | 7.974 | 32.388 | 2 |
| 2025-04-14T22:36:00 | 54.532181 | 7.521957 | 2.0 | 7.848 | 2 | 34.106 | 8.004 | 32.737 | 2 |
| 2025-04-14T22:37:00 | 54.532146 | 7.524181 | 2.0 | 7.843 | 2 | 33.789 | 8.019 | 32.385 | 2 |
| 2025-04-14T22:38:00 | 54.532145 | 7.526393 | 2.0 | 7.836 | 2 | 33.578 | 8.007 | 32.172 | 2 |
| 2025-04-14T22:39:00 | 54.532207 | 7.528583 | 2.0 | 7.810 | 2 | 34.021 | 8.005 | 32.645 | 2 |
| 2025-04-14T22:40:00 | 54.532394 | 7.530725 | 2.0 | 7.768 | 2 | 33.935 | 7.976 | 32.581 | 2 |
| 2025-04-14T22:41:00 | 54.532535 | 7.532889 | 2.0 | 7.760 | 2 | 33.914 | 7.936 | 32.596 | 2 |
| 2025-04-14T22:42:00 | 54.532369 | 7.534990 | 2.0 | 7.750 | 2 | 33.831 | 7.930 | 32.513 | 2 |
| 2025-04-14T22:43:00 | 54.531494 | 7.536644 | 2.0 | 7.761 | 2 | 33.881 | 7.925 | 32.571 | 2 |
| 2025-04-14T22:44:00 | 54.530274 | 7.536485 | 2.0 | 7.781 | 2 | 33.874 | 7.938 | 32.551 | 2 |
| 2025-04-14T22:45:00 | 54.529919 | 7.534756 | 2.0 | 7.787 | 2 | 33.736 | 7.953 | 32.390 | 2 |
| 2025-04-14T22:46:00 | 54.529969 | 7.532598 | 2.0 | 7.795 | 2 | 33.930 | 7.960 | 32.590 | 2 |
| 2025-04-14T22:47:00 | 54.529926 | 7.530438 | 2.0 | 7.795 | 2 | 33.857 | 7.969 | 32.504 | 2 |
| 2025-04-14T22:48:00 | 54.529933 | 7.528280 | 2.0 | 7.802 | 2 | 33.804 | 7.969 | 32.448 | 2 |
| 2025-04-14T22:49:00 | 54.529966 | 7.526127 | 2.0 | 7.796 | 2 | 33.853 | 7.974 | 32.495 | 2 |
| 2025-04-14T22:50:00 | 54.529950 | 7.523961 | 2.0 | 7.797 | 2 | 34.015 | 7.970 | 32.672 | 2 |
| 2025-04-14T22:51:00 | 54.529888 | 7.521797 | 2.0 | 7.823 | 2 | 33.761 | 7.976 | 32.395 | 2 |
| 2025-04-14T22:52:00 | 54.529935 | 7.519642 | 2.0 | 7.821 | 2 | 33.985 | 7.994 | 32.617 | 2 |
| 2025-04-14T22:53:00 | 54.530009 | 7.517484 | 2.0 | 7.827 | 2 | 33.792 | 7.993 | 32.413 | 2 |
| 2025-04-14T22:54:00 | 54.529978 | 7.515315 | 2.0 | 7.814 | 2 | 33.989 | 7.997 | 32.619 | 2 |
| 2025-04-14T22:55:00 | 54.529920 | 7.513134 | 2.0 | 7.759 | 2 | 34.063 | 7.978 | 32.715 | 2 |
| 2025-04-14T22:56:00 | 54.529928 | 7.510957 | 2.0 | 7.785 | 2 | 34.048 | 7.934 | 32.740 | 2 |
| 2025-04-14T22:57:00 | 54.529950 | 7.508766 | 2.0 | 7.799 | 2 | 33.908 | 7.953 | 32.573 | 2 |
| 2025-04-14T22:58:00 | 54.529929 | 7.506562 | 2.0 | 7.809 | 2 | 34.041 | 7.981 | 32.689 | 2 |
| 2025-04-14T22:59:00 | 54.529929 | 7.504334 | 2.0 | 7.786 | 2 | 34.053 | 7.974 | 32.708 | 2 |
| 2025-04-14T23:00:00 | 54.529944 | 7.502104 | 2.0 | 7.844 | 2 | 34.015 | 7.957 | 32.684 | 2 |
| 2025-04-14T23:01:00 | 54.529934 | 7.499879 | 2.0 | 7.836 | 2 | 34.057 | 8.012 | 32.677 | 2 |
| 2025-04-14T23:02:00 | 54.529901 | 7.497653 | 2.0 | 7.834 | 2 | 34.081 | 8.005 | 32.709 | 2 |
| 2025-04-14T23:03:00 | 54.529914 | 7.495434 | 2.0 | 7.838 | 2 | 34.178 | 8.007 | 32.811 | 2 |
| 2025-04-14T23:04:00 | 54.529958 | 7.493225 | 2.0 | 7.810 | 2 | 34.107 | 8.008 | 32.734 | 2 |
| 2025-04-14T23:05:00 | 54.529963 | 7.491020 | 2.0 | 7.746 | 2 | 34.106 | 7.973 | 32.766 | 2 |
| 2025-04-14T23:06:00 | 54.529903 | 7.488797 | 2.0 | 7.756 | 2 | 34.017 | 7.921 | 32.719 | 2 |
| 2025-04-14T23:07:00 | 54.529882 | 7.486581 | 2.0 | 7.785 | 2 | 34.056 | 7.936 | 32.747 | 2 |
| 2025-04-14T23:08:00 | 54.529933 | 7.484384 | 2.0 | 7.804 | 2 | 34.045 | 7.960 | 32.713 | 2 |
| 2025-04-14T23:09:00 | 54.529951 | 7.482182 | 2.0 | 7.833 | 2 | 34.080 | 7.980 | 32.731 | 2 |
| 2025-04-14T23:10:00 | 54.529920 | 7.479952 | 2.0 | 7.835 | 2 | 34.067 | 8.002 | 32.697 | 2 |
| 2025-04-14T23:11:00 | 54.529900 | 7.477726 | 2.0 | 7.845 | 2 | 34.166 | 8.008 | 32.797 | 2 |
| 2025-04-14T23:12:00 | 54.529937 | 7.475484 | 2.0 | 7.907 | 2 | 34.179 | 8.026 | 32.794 | 2 |
| 2025-04-14T23:13:00 | 54.529956 | 7.473223 | 2.0 | 7.919 | 2 | 34.158 | 8.079 | 32.722 | 2 |
| 2025-04-14T23:14:00 | 54.529928 | 7.470948 | 2.0 | 7.905 | 2 | 34.260 | 8.083 | 32.827 | 2 |
| 2025-04-14T23:15:00 | 54.529936 | 7.468688 | 2.0 | 7.936 | 2 | 34.169 | 8.074 | 32.738 | 2 |
| 2025-04-14T23:16:00 | 54.529963 | 7.466456 | 2.0 | 7.961 | 2 | 34.179 | 8.110 | 32.715 | 2 |
| 2025-04-14T23:17:00 | 54.529940 | 7.464235 | 2.0 | 7.966 | 2 | 34.020 | 8.132 | 32.526 | 2 |
| 2025-04-14T23:18:00 | 54.529932 | 7.462015 | 2.0 | 7.961 | 2 | 34.276 | 8.135 | 32.795 | 2 |
| 2025-04-14T23:19:00 | 54.529967 | 7.459800 | 2.0 | 7.986 | 2 | 34.360 | 8.135 | 32.884 | 2 |
| 2025-04-14T23:20:00 | 54.529969 | 7.457583 | 2.0 | 8.055 | 2 | 34.379 | 8.169 | 32.872 | 2 |
| 2025-04-14T23:21:00 | 54.529941 | 7.455369 | 2.0 | 8.107 | 2 | 34.420 | 8.233 | 32.856 | 2 |
| 2025-04-14T23:22:00 | 54.529910 | 7.453157 | 2.0 | 8.125 | 2 | 34.454 | 8.279 | 32.849 | 2 |
| 2025-04-14T23:23:00 | 54.529924 | 7.450963 | 2.0 | 8.122 | 2 | 34.470 | 8.295 | 32.851 | 2 |
| 2025-04-14T23:24:00 | 54.529933 | 7.448773 | 2.0 | 8.093 | 2 | 34.457 | 8.283 | 32.848 | 2 |
| 2025-04-14T23:25:00 | 54.529903 | 7.446585 | 2.0 | 8.109 | 2 | 34.408 | 8.269 | 32.810 | 2 |
| 2025-04-14T23:26:00 | 54.529913 | 7.444402 | 2.0 | 8.129 | 2 | 34.397 | 8.284 | 32.784 | 2 |
| 2025-04-14T23:27:00 | 54.529944 | 7.442239 | 2.0 | 8.150 | 2 | 34.392 | 8.302 | 32.762 | 2 |
| 2025-04-14T23:28:00 | 54.529714 | 7.440142 | 2.0 | 8.211 | 2 | 34.394 | 8.330 | 32.738 | 2 |
| 2025-04-14T23:29:00 | 54.529252 | 7.438123 | 2.0 | 8.276 | 2 | 34.428 | 8.390 | 32.718 | 2 |
| 2025-04-14T23:30:00 | 54.528930 | 7.436085 | 2.0 | 8.336 | 2 | 34.467 | 8.448 | 32.705 | 2 |
| 2025-04-14T23:31:00 | 54.529555 | 7.434412 | 2.0 | 8.349 | 2 | 34.514 | 8.508 | 32.699 | 2 |
| 2025-04-14T23:32:00 | 54.530793 | 7.434496 | 2.0 | 8.342 | 2 | 34.517 | 8.511 | 32.700 | 2 |
| 2025-04-14T23:33:00 | 54.531485 | 7.436148 | 2.0 | 8.336 | 2 | 34.518 | 8.511 | 32.701 | 2 |
| 2025-04-14T23:34:00 | 54.531553 | 7.438131 | 2.0 | 8.300 | 2 | 34.512 | 8.496 | 32.708 | 2 |
| 2025-04-14T23:35:00 | 54.531417 | 7.440200 | 2.0 | 8.264 | 2 | 34.486 | 8.464 | 32.710 | 2 |
| 2025-04-14T23:36:00 | 54.531412 | 7.442382 | 2.0 | 8.210 | 2 | 34.459 | 8.427 | 32.716 | 2 |
| 2025-04-14T23:37:00 | 54.531407 | 7.444615 | 2.0 | 8.175 | 2 | 34.301 | 8.376 | 32.597 | 2 |
| 2025-04-14T23:38:00 | 54.531359 | 7.446841 | 2.0 | 8.152 | 2 | 34.405 | 8.342 | 32.738 | 2 |
| 2025-04-14T23:39:00 | 54.531358 | 7.449043 | 2.0 | 8.150 | 2 | 34.401 | 8.324 | 32.751 | 2 |
| 2025-04-14T23:40:00 | 54.531383 | 7.451226 | 2.0 | 8.144 | 2 | 34.410 | 8.322 | 32.762 | 2 |
| 2025-04-14T23:41:00 | 54.531381 | 7.453402 | 2.0 | 8.139 | 2 | 34.417 | 8.313 | 32.778 | 2 |
| 2025-04-14T23:42:00 | 54.531384 | 7.455575 | 2.0 | 8.120 | 2 | 34.428 | 8.310 | 32.793 | 2 |
| 2025-04-14T23:43:00 | 54.531410 | 7.457751 | 2.0 | 8.067 | 2 | 34.422 | 8.281 | 32.813 | 2 |
| 2025-04-14T23:44:00 | 54.531447 | 7.459919 | 2.0 | 8.034 | 2 | 34.415 | 8.238 | 32.846 | 2 |
| 2025-04-14T23:45:00 | 54.531454 | 7.462078 | 2.0 | 8.012 | 2 | 34.410 | 8.202 | 32.874 | 2 |
| 2025-04-14T23:46:00 | 54.531411 | 7.464224 | 2.0 | 7.995 | 2 | 34.398 | 8.183 | 32.880 | 2 |
| 2025-04-14T23:47:00 | 54.531386 | 7.466337 | 2.0 | 7.972 | 2 | 34.385 | 8.165 | 32.883 | 2 |
| 2025-04-14T23:48:00 | 54.531427 | 7.468439 | 2.0 | 7.926 | 2 | 34.370 | 8.139 | 32.891 | 2 |
| 2025-04-14T23:49:00 | 54.531444 | 7.470539 | 2.0 | 7.902 | 2 | 34.345 | 8.097 | 32.904 | 2 |
| 2025-04-14T23:50:00 | 54.531401 | 7.472633 | 2.0 | 7.885 | 2 | 34.326 | 8.074 | 32.905 | 2 |
| 2025-04-14T23:51:00 | 54.531397 | 7.474747 | 2.0 | 7.863 | 2 | 34.312 | 8.055 | 32.908 | 2 |
| 2025-04-14T23:52:00 | 54.531440 | 7.476861 | 2.0 | 7.838 | 2 | 34.295 | 8.031 | 32.913 | 2 |
| 2025-04-14T23:53:00 | 54.531441 | 7.478995 | 2.0 | 7.821 | 2 | 34.281 | 8.008 | 32.919 | 2 |
| 2025-04-14T23:54:00 | 54.531394 | 7.481134 | 2.0 | 7.810 | 2 | 34.272 | 7.993 | 32.924 | 2 |
| 2025-04-14T23:55:00 | 54.531399 | 7.483271 | 2.0 | 7.802 | 2 | 34.268 | 7.983 | 32.929 | 2 |
| 2025-04-14T23:56:00 | 54.531441 | 7.485394 | 2.0 | 7.803 | 2 | 34.266 | 7.975 | 32.935 | 2 |
| 2025-04-14T23:57:00 | 54.531447 | 7.487517 | 2.0 | 7.805 | 2 | 34.270 | 7.978 | 32.936 | 2 |
| 2025-04-14T23:58:00 | 54.531413 | 7.489656 | 2.0 | 7.793 | 2 | 34.276 | 7.974 | 32.946 | 2 |
| 2025-04-14T23:59:00 | 54.531416 | 7.491867 | 2.0 | 7.795 | 2 | 34.272 | 7.967 | 32.948 | 2 |
| 2025-04-15T00:00:00 | 54.531440 | 7.494116 | 2.0 | 7.805 | 2 | 34.273 | 7.968 | 32.949 | 2 |
| 2025-04-15T00:01:00 | 54.531427 | 7.496382 | 2.0 | 7.815 | 2 | 34.288 | 7.980 | 32.953 | 2 |
| 2025-04-15T00:02:00 | 54.531400 | 7.498632 | 2.0 | 7.814 | 2 | 34.300 | 7.987 | 32.959 | 2 |
| 2025-04-15T00:03:00 | 54.531422 | 7.500828 | 2.0 | 7.808 | 2 | 34.298 | 7.984 | 32.960 | 2 |
| 2025-04-15T00:04:00 | 54.531424 | 7.502994 | 2.0 | 7.803 | 2 | 34.306 | 7.979 | 32.973 | 2 |
| 2025-04-15T00:05:00 | 54.531431 | 7.505121 | 2.0 | 7.727 | 2 | 34.301 | 7.963 | 32.983 | 2 |
| 2025-04-15T00:06:00 | 54.531437 | 7.507239 | 2.0 | 7.746 | 2 | 34.267 | 7.912 | 32.995 | 2 |
| 2025-04-15T00:07:00 | 54.531426 | 7.509349 | 2.0 | 7.688 | 2 | 34.273 | 7.911 | 33.002 | 2 |
| 2025-04-15T00:08:00 | 54.531429 | 7.511485 | 2.0 | 7.617 | 2 | 34.221 | 7.850 | 33.004 | 2 |
| 2025-04-15T00:09:00 | 54.531435 | 7.513655 | 2.0 | 7.681 | 2 | 34.165 | 7.804 | 32.988 | 2 |
| 2025-04-15T00:10:00 | 54.531406 | 7.515852 | 2.0 | 7.681 | 2 | 34.197 | 7.855 | 32.974 | 2 |
| 2025-04-15T00:11:00 | 54.531392 | 7.518060 | 2.0 | 7.647 | 2 | 34.193 | 7.846 | 32.978 | 2 |
| 2025-04-15T00:12:00 | 54.531420 | 7.520282 | 2.0 | 7.680 | 2 | 34.163 | 7.825 | 32.966 | 2 |
| 2025-04-15T00:13:00 | 54.531429 | 7.522505 | 2.0 | 7.679 | 2 | 34.165 | 7.850 | 32.944 | 2 |
| 2025-04-15T00:14:00 | 54.531409 | 7.524716 | 2.0 | 7.689 | 2 | 34.154 | 7.850 | 32.933 | 2 |
| 2025-04-15T00:15:00 | 54.531419 | 7.526913 | 2.0 | 7.690 | 2 | 34.149 | 7.861 | 32.917 | 2 |
| 2025-04-15T00:16:00 | 54.531579 | 7.529069 | 2.0 | 7.682 | 2 | 34.139 | 7.860 | 32.907 | 2 |
| 2025-04-15T00:17:00 | 54.531934 | 7.531174 | 2.0 | 7.633 | 2 | 34.128 | 7.849 | 32.906 | 2 |
| 2025-04-15T00:18:00 | 54.532143 | 7.533318 | 2.0 | 7.626 | 2 | 34.095 | 7.802 | 32.915 | 2 |
| 2025-04-15T00:19:00 | 54.531491 | 7.535153 | 2.0 | 7.684 | 2 | 34.090 | 7.809 | 32.903 | 2 |
| 2025-04-15T00:20:00 | 54.530184 | 7.535385 | 2.0 | 7.735 | 2 | 34.108 | 7.862 | 32.872 | 2 |
| 2025-04-15T00:21:00 | 54.529318 | 7.533799 | 2.0 | 7.730 | 2 | 34.149 | 7.907 | 32.874 | 2 |
| 2025-04-15T00:22:00 | 54.529231 | 7.531567 | 2.0 | 7.685 | 2 | 34.154 | 7.887 | 32.898 | 2 |
| 2025-04-15T00:23:00 | 54.529354 | 7.529252 | 2.0 | 7.630 | 2 | 34.125 | 7.841 | 32.910 | 2 |
| 2025-04-15T00:24:00 | 54.529308 | 7.526994 | 2.0 | 7.649 | 2 | 34.104 | 7.809 | 32.918 | 2 |
| 2025-04-15T00:25:00 | 54.529247 | 7.524740 | 2.0 | 7.659 | 2 | 34.118 | 7.815 | 32.927 | 2 |
| 2025-04-15T00:26:00 | 54.529272 | 7.522479 | 2.0 | 7.681 | 2 | 34.143 | 7.841 | 32.929 | 2 |
| 2025-04-15T00:27:00 | 54.529297 | 7.520231 | 2.0 | 7.738 | 2 | 34.165 | 7.856 | 32.939 | 2 |
| 2025-04-15T00:28:00 | 54.529273 | 7.518003 | 2.0 | 7.743 | 2 | 34.217 | 7.913 | 32.941 | 2 |
| 2025-04-15T00:29:00 | 54.529243 | 7.515784 | 2.0 | 7.769 | 2 | 34.242 | 7.915 | 32.965 | 2 |
| 2025-04-15T00:30:00 | 54.529251 | 7.513582 | 2.0 | 7.773 | 2 | 34.261 | 7.945 | 32.957 | 2 |
| 2025-04-15T00:31:00 | 54.529273 | 7.511396 | 2.0 | 7.761 | 2 | 34.263 | 7.934 | 32.970 | 2 |
| 2025-04-15T00:32:00 | 54.529265 | 7.509203 | 2.0 | 7.788 | 2 | 34.264 | 7.936 | 32.969 | 2 |
| 2025-04-15T00:33:00 | 54.529248 | 7.507009 | 2.0 | 7.782 | 2 | 34.281 | 7.958 | 32.967 | 2 |
| 2025-04-15T00:34:00 | 54.529253 | 7.504804 | 2.0 | 7.782 | 2 | 34.272 | 7.952 | 32.963 | 2 |
| 2025-04-15T00:35:00 | 54.529263 | 7.502587 | 2.0 | 7.778 | 2 | 34.267 | 7.953 | 32.956 | 2 |
| 2025-04-15T00:36:00 | 54.529265 | 7.500372 | 2.0 | 7.778 | 2 | 34.260 | 7.949 | 32.953 | 2 |
| 2025-04-15T00:37:00 | 54.529261 | 7.498156 | 2.0 | 7.774 | 2 | 34.254 | 7.948 | 32.947 | 2 |
| 2025-04-15T00:38:00 | 54.529259 | 7.495938 | 2.0 | 7.778 | 2 | 34.254 | 7.946 | 32.949 | 2 |
| 2025-04-15T00:39:00 | 54.529254 | 7.493716 | 2.0 | 7.784 | 2 | 34.254 | 7.950 | 32.945 | 2 |
| 2025-04-15T00:40:00 | 54.529247 | 7.491510 | 2.0 | 7.801 | 2 | 34.248 | 7.957 | 32.932 | 2 |
| 2025-04-15T00:41:00 | 54.529271 | 7.489299 | 2.0 | 7.826 | 2 | 34.251 | 7.975 | 32.919 | 2 |
| 2025-04-15T00:42:00 | 54.529300 | 7.487077 | 2.0 | 7.850 | 2 | 34.266 | 8.001 | 32.910 | 2 |
| 2025-04-15T00:43:00 | 54.529276 | 7.484846 | 2.0 | 7.870 | 2 | 34.284 | 8.023 | 32.909 | 2 |
| 2025-04-15T00:44:00 | 54.529269 | 7.482603 | 2.0 | 7.886 | 2 | 34.298 | 8.042 | 32.906 | 2 |
| 2025-04-15T00:45:00 | 54.529296 | 7.480347 | 2.0 | 7.918 | 2 | 34.312 | 8.063 | 32.901 | 2 |
| 2025-04-15T00:46:00 | 54.529251 | 7.478124 | 2.0 | 7.950 | 2 | 34.328 | 8.089 | 32.893 | 2 |
| 2025-04-15T00:47:00 | 54.529232 | 7.475923 | 2.0 | 8.029 | 2 | 34.352 | 8.132 | 32.879 | 2 |
| 2025-04-15T00:48:00 | 54.529248 | 7.473742 | 2.0 | 8.074 | 2 | 34.399 | 8.203 | 32.862 | 2 |
| 2025-04-15T00:49:00 | 54.529256 | 7.471569 | 2.0 | 8.089 | 2 | 34.426 | 8.244 | 32.852 | 2 |
| 2025-04-15T00:50:00 | 54.529228 | 7.469418 | 2.0 | 8.122 | 2 | 34.411 | 8.262 | 32.819 | 2 |
| 2025-04-15T00:51:00 | 54.529234 | 7.467289 | 2.0 | 8.133 | 2 | 34.405 | 8.290 | 32.787 | 2 |
| 2025-04-15T00:52:00 | 54.529259 | 7.465124 | 2.0 | 8.134 | 2 | 34.399 | 8.300 | 32.771 | 2 |
| 2025-04-15T00:53:00 | 54.529265 | 7.462913 | 2.0 | 8.152 | 2 | 34.387 | 8.304 | 32.755 | 2 |
| 2025-04-15T00:54:00 | 54.529268 | 7.460672 | 2.0 | 8.173 | 2 | 34.387 | 8.323 | 32.737 | 2 |
| 2025-04-15T00:55:00 | 54.529270 | 7.458398 | 2.0 | 8.216 | 2 | 34.398 | 8.348 | 32.725 | 2 |
| 2025-04-15T00:56:00 | 54.529268 | 7.456127 | 2.0 | 8.259 | 2 | 34.421 | 8.389 | 32.712 | 2 |
| 2025-04-15T00:57:00 | 54.529268 | 7.453863 | 2.0 | 8.299 | 2 | 34.453 | 8.429 | 32.708 | 2 |
| 2025-04-15T00:58:00 | 54.529290 | 7.451608 | 2.0 | 8.320 | 2 | 34.486 | 8.470 | 32.705 | 2 |
| 2025-04-15T00:59:00 | 54.529299 | 7.449354 | 2.0 | 8.332 | 2 | 34.498 | 8.487 | 32.702 | 2 |
| 2025-04-15T01:00:00 | 54.529265 | 7.447101 | 2.0 | 8.312 | 2 | 34.503 | 8.498 | 32.697 | 2 |
| 2025-04-15T01:01:00 | 54.529237 | 7.444843 | 2.0 | 8.311 | 2 | 34.477 | 8.475 | 32.691 | 2 |
| 2025-04-15T01:02:00 | 54.529250 | 7.442595 | 2.0 | 8.323 | 2 | 34.481 | 8.485 | 32.686 | 2 |
| 2025-04-15T01:03:00 | 54.529299 | 7.440335 | 2.0 | 8.349 | 2 | 34.487 | 8.492 | 32.686 | 2 |
| 2025-04-15T01:04:00 | 54.529354 | 7.438078 | 2.0 | 8.431 | 2 | 34.533 | 8.536 | 32.693 | 2 |
| 2025-04-15T01:05:00 | 54.529139 | 7.435924 | 2.0 | 8.425 | 2 | 34.601 | 8.593 | 32.712 | 2 |
| 2025-04-15T01:06:00 | 54.528862 | 7.433790 | 2.0 | 8.406 | 2 | 34.603 | 8.588 | 32.719 | 2 |
| 2025-04-15T01:07:00 | 54.528610 | 7.431677 | 2.0 | 8.378 | 2 | 34.595 | 8.568 | 32.729 | 2 |
| 2025-04-15T01:08:00 | 54.529224 | 7.429691 | 2.0 | 8.333 | 2 | 34.574 | 8.540 | 32.733 | 2 |
| 2025-04-15T01:09:00 | 54.530395 | 7.429541 | 2.0 | 8.326 | 2 | 34.561 | 8.499 | 32.757 | 2 |
| 2025-04-15T01:10:00 | 54.531056 | 7.430998 | 2.0 | 8.386 | 2 | 34.564 | 8.508 | 32.752 | 2 |
| 2025-04-15T01:11:00 | 54.530917 | 7.433110 | 2.0 | 8.418 | 2 | 34.597 | 8.557 | 32.741 | 2 |
| 2025-04-15T01:12:00 | 54.530712 | 7.435252 | 2.0 | 8.438 | 2 | 34.614 | 8.587 | 32.731 | 2 |
| 2025-04-15T01:13:00 | 54.530721 | 7.437267 | 2.0 | 8.441 | 2 | 34.625 | 8.607 | 32.724 | 2 |
| 2025-04-15T01:14:00 | 54.530713 | 7.439275 | 2.0 | 8.360 | 2 | 34.611 | 8.595 | 32.720 | 2 |
| 2025-04-15T01:15:00 | 54.530654 | 7.441318 | 2.0 | 8.322 | 2 | 34.532 | 8.525 | 32.702 | 2 |
| 2025-04-15T01:16:00 | 54.530664 | 7.443469 | 2.0 | 8.313 | 2 | 34.494 | 8.495 | 32.690 | 2 |
| 2025-04-15T01:17:00 | 54.530679 | 7.445680 | 2.0 | 8.297 | 2 | 34.478 | 8.475 | 32.692 | 2 |
| 2025-04-15T01:18:00 | 54.530696 | 7.447930 | 2.0 | 8.321 | 2 | 34.474 | 8.473 | 32.689 | 2 |
| 2025-04-15T01:19:00 | 54.530665 | 7.450191 | 2.0 | 8.308 | 2 | 34.493 | 8.485 | 32.698 | 2 |
| 2025-04-15T01:20:00 | 54.530672 | 7.452398 | 2.0 | 8.297 | 2 | 34.492 | 8.478 | 32.704 | 2 |
| 2025-04-15T01:21:00 | 54.530675 | 7.454560 | 2.0 | 8.249 | 2 | 34.482 | 8.458 | 32.712 | 2 |
| 2025-04-15T01:22:00 | 54.530669 | 7.456697 | 2.0 | 8.223 | 2 | 34.449 | 8.415 | 32.717 | 2 |
| 2025-04-15T01:23:00 | 54.530691 | 7.458814 | 2.0 | 8.201 | 2 | 34.428 | 8.391 | 32.717 | 2 |
| 2025-04-15T01:24:00 | 54.530707 | 7.460925 | 2.0 | 8.167 | 2 | 34.413 | 8.365 | 32.725 | 2 |
| 2025-04-15T01:25:00 | 54.530683 | 7.463044 | 2.0 | 8.149 | 2 | 34.395 | 8.335 | 32.734 | 2 |
| 2025-04-15T01:26:00 | 54.530691 | 7.465181 | 2.0 | 8.140 | 2 | 34.387 | 8.319 | 32.741 | 2 |
| 2025-04-15T01:27:00 | 54.530729 | 7.467347 | 2.0 | 8.135 | 2 | 34.390 | 8.311 | 32.751 | 2 |
| 2025-04-15T01:28:00 | 54.530713 | 7.469519 | 2.0 | 8.131 | 2 | 34.396 | 8.303 | 32.765 | 2 |
| 2025-04-15T01:29:00 | 54.530667 | 7.471703 | 2.0 | 8.111 | 2 | 34.330 | 8.302 | 32.696 | 2 |
| 2025-04-15T01:30:00 | 54.530689 | 7.473885 | 2.0 | 8.054 | 2 | 34.342 | 8.270 | 32.739 | 2 |
| 2025-04-15T01:31:00 | 54.530756 | 7.476054 | 2.0 | 7.989 | 2 | 34.278 | 8.219 | 32.719 | 2 |
| 2025-04-15T01:32:00 | 54.530781 | 7.478206 | 2.0 | 7.926 | 2 | 34.338 | 8.150 | 32.847 | 2 |
| 2025-04-15T01:33:00 | 54.530766 | 7.480322 | 2.0 | 7.868 | 2 | 34.234 | 8.088 | 32.794 | 2 |
| 2025-04-15T01:34:00 | 54.530750 | 7.482408 | 2.0 | 7.836 | 2 | 34.233 | 8.039 | 32.839 | 2 |
| 2025-04-15T01:35:00 | 54.530741 | 7.484453 | 2.0 | 7.816 | 2 | 34.201 | 8.006 | 32.836 | 2 |
| 2025-04-15T01:36:00 | 54.530736 | 7.486473 | 2.0 | 7.814 | 2 | 34.237 | 7.990 | 32.889 | 2 |
| 2025-04-15T01:37:00 | 54.530733 | 7.488476 | 2.0 | 7.799 | 2 | 34.218 | 7.985 | 32.874 | 2 |
| 2025-04-15T01:38:00 | 54.530734 | 7.490489 | 2.0 | 7.781 | 2 | 34.190 | 7.967 | 32.861 | 2 |
| 2025-04-15T01:39:00 | 54.530738 | 7.492519 | 2.0 | 7.777 | 2 | 34.219 | 7.954 | 32.904 | 2 |
| 2025-04-15T01:40:00 | 54.530729 | 7.494564 | 2.0 | 7.766 | 2 | 34.184 | 7.949 | 32.871 | 2 |
| 2025-04-15T01:41:00 | 54.530721 | 7.496612 | 2.0 | 7.753 | 2 | 34.214 | 7.936 | 32.916 | 2 |
| 2025-04-15T01:42:00 | 54.530725 | 7.498645 | 2.0 | 7.735 | 2 | 34.185 | 7.923 | 32.897 | 2 |
| 2025-04-15T01:43:00 | 54.530727 | 7.500679 | 2.0 | 7.719 | 2 | 34.199 | 7.906 | 32.928 | 2 |
| 2025-04-15T01:44:00 | 54.530738 | 7.502735 | 2.0 | 7.716 | 2 | 34.198 | 7.891 | 32.941 | 2 |
| 2025-04-15T01:45:00 | 54.530748 | 7.504806 | 2.0 | 7.772 | 2 | 34.169 | 7.898 | 32.903 | 2 |
| 2025-04-15T01:46:00 | 54.530735 | 7.506890 | 2.0 | 7.763 | 2 | 34.182 | 7.940 | 32.878 | 2 |
| 2025-04-15T01:47:00 | 54.530712 | 7.508980 | 2.0 | 7.760 | 2 | 34.200 | 7.935 | 32.902 | 2 |
| 2025-04-15T01:48:00 | 54.530706 | 7.511060 | 2.0 | 7.763 | 2 | 34.202 | 7.930 | 32.909 | 2 |
| 2025-04-15T01:49:00 | 54.530724 | 7.513124 | 2.0 | 7.747 | 2 | 34.202 | 7.932 | 32.907 | 2 |
| 2025-04-15T01:50:00 | 54.530764 | 7.515163 | 2.0 | 7.732 | 2 | 34.187 | 7.919 | 32.903 | 2 |
| 2025-04-15T01:51:00 | 54.530787 | 7.517179 | 2.0 | 7.745 | 2 | 34.164 | 7.904 | 32.892 | 2 |
| 2025-04-15T01:52:00 | 54.530775 | 7.519198 | 2.0 | 7.744 | 2 | 34.162 | 7.916 | 32.879 | 2 |
| 2025-04-15T01:53:00 | 54.530765 | 7.521238 | 2.0 | 7.766 | 2 | 34.146 | 7.917 | 32.861 | 2 |
| 2025-04-15T01:54:00 | 54.530782 | 7.523306 | 2.0 | 7.781 | 2 | 34.107 | 7.939 | 32.799 | 2 |
| 2025-04-15T01:55:00 | 54.530762 | 7.525386 | 2.0 | 7.799 | 2 | 34.084 | 7.955 | 32.759 | 2 |
| 2025-04-15T01:56:00 | 54.530726 | 7.527469 | 2.0 | 7.812 | 2 | 34.060 | 7.971 | 32.719 | 2 |
| 2025-04-15T01:57:00 | 54.530816 | 7.529567 | 2.0 | 7.811 | 2 | 34.043 | 7.979 | 32.693 | 2 |
| 2025-04-15T01:58:00 | 54.531233 | 7.531615 | 2.0 | 7.802 | 2 | 34.028 | 7.980 | 32.676 | 2 |
| 2025-04-15T01:59:00 | 54.531651 | 7.533684 | 2.0 | 7.796 | 2 | 34.010 | 7.968 | 32.668 | 2 |
| 2025-04-15T02:00:00 | 54.531241 | 7.535723 | 2.0 | 7.808 | 2 | 33.992 | 7.967 | 32.650 | 2 |
| 2025-04-15T02:01:00 | 54.529990 | 7.536656 | 2.0 | 7.834 | 2 | 33.976 | 7.982 | 32.619 | 2 |
| 2025-04-15T02:02:00 | 54.528798 | 7.535580 | 2.0 | 7.915 | 2 | 33.968 | 8.014 | 32.580 | 2 |
| 2025-04-15T02:03:00 | 54.528631 | 7.533212 | 2.0 | 7.967 | 2 | 33.966 | 8.089 | 32.509 | 2 |
| 2025-04-15T02:04:00 | 54.528646 | 7.530765 | 2.0 | 7.992 | 2 | 33.938 | 8.139 | 32.433 | 2 |
| 2025-04-15T02:05:00 | 54.528561 | 7.528477 | 2.0 | 8.040 | 2 | 33.910 | 8.163 | 32.381 | 2 |
| 2025-04-15T02:06:00 | 54.528593 | 7.526251 | 2.0 | 8.031 | 2 | 33.878 | 8.205 | 32.308 | 2 |
| 2025-04-15T02:07:00 | 54.528577 | 7.524134 | 2.0 | 8.051 | 2 | 33.885 | 8.201 | 32.319 | 2 |
| 2025-04-15T02:08:00 | 54.528552 | 7.522073 | 2.0 | 8.058 | 2 | 33.845 | 8.219 | 32.260 | 2 |
| 2025-04-15T02:09:00 | 54.528518 | 7.520017 | 2.0 | 8.058 | 2 | 33.849 | 8.224 | 32.260 | 2 |
| 2025-04-15T02:10:00 | 54.528488 | 7.517943 | 2.0 | 8.011 | 2 | 33.861 | 8.224 | 32.273 | 2 |
| 2025-04-15T02:11:00 | 54.528479 | 7.515848 | 2.0 | 7.975 | 2 | 33.944 | 8.173 | 32.407 | 2 |
| 2025-04-15T02:12:00 | 54.528518 | 7.513720 | 2.0 | 8.042 | 2 | 33.950 | 8.141 | 32.443 | 2 |
| 2025-04-15T02:13:00 | 54.528607 | 7.511580 | 2.0 | 7.947 | 2 | 33.918 | 8.188 | 32.366 | 2 |
| 2025-04-15T02:14:00 | 54.528622 | 7.509437 | 2.0 | 7.996 | 2 | 34.001 | 8.140 | 32.498 | 2 |
| 2025-04-15T02:15:00 | 54.528620 | 7.507286 | 2.0 | 7.942 | 2 | 33.993 | 8.152 | 32.479 | 2 |
| 2025-04-15T02:16:00 | 54.528586 | 7.505132 | 2.0 | 7.921 | 2 | 34.052 | 8.111 | 32.579 | 2 |
| 2025-04-15T02:17:00 | 54.528578 | 7.502947 | 2.0 | 7.957 | 2 | 34.049 | 8.104 | 32.583 | 2 |
| 2025-04-15T02:18:00 | 54.528618 | 7.500748 | 2.0 | 7.920 | 2 | 34.036 | 8.116 | 32.558 | 2 |
| 2025-04-15T02:19:00 | 54.528609 | 7.498577 | 2.0 | 7.852 | 2 | 34.071 | 8.082 | 32.627 | 2 |
| 2025-04-15T02:20:00 | 54.528482 | 7.496459 | 2.0 | 7.848 | 2 | 34.058 | 8.030 | 32.661 | 2 |
| 2025-04-15T02:21:00 | 54.528483 | 7.494291 | 2.0 | 7.844 | 2 | 33.669 | 8.020 | 32.257 | 2 |
| 2025-04-15T02:22:00 | 54.528568 | 7.492081 | 2.0 | 7.842 | 2 | 33.625 | 8.015 | 32.215 | 2 |
| 2025-04-15T02:23:00 | 54.528624 | 7.489886 | 2.0 | 7.838 | 2 | 34.175 | 8.013 | 32.802 | 2 |
| 2025-04-15T02:24:00 | 54.528576 | 7.487757 | 2.0 | 7.832 | 2 | 33.550 | 8.008 | 32.141 | 2 |
| 2025-04-15T02:25:00 | 54.528544 | 7.485631 | 2.0 | 7.835 | 2 | 34.176 | 8.005 | 32.810 | 2 |
| 2025-04-15T02:26:00 | 54.528551 | 7.483478 | 2.0 | 7.830 | 2 | 34.095 | 8.005 | 32.724 | 2 |
| 2025-04-15T02:27:00 | 54.528574 | 7.481314 | 2.0 | 7.823 | 2 | 34.172 | 8.000 | 32.811 | 2 |
| 2025-04-15T02:28:00 | 54.528573 | 7.479173 | 2.0 | 7.819 | 2 | 33.883 | 7.994 | 32.509 | 2 |
| 2025-04-15T02:29:00 | 54.528554 | 7.477061 | 2.0 | 7.818 | 2 | 33.820 | 7.990 | 32.445 | 2 |
| 2025-04-15T02:30:00 | 54.528511 | 7.474958 | 2.0 | 7.830 | 2 | 33.425 | 7.989 | 32.026 | 2 |
| 2025-04-15T02:31:00 | 54.528484 | 7.472855 | 2.0 | 7.853 | 2 | 33.857 | 8.005 | 32.471 | 2 |
| 2025-04-15T02:32:00 | 54.528502 | 7.470746 | 2.0 | 7.884 | 2 | 34.122 | 8.029 | 32.730 | 2 |
| 2025-04-15T02:33:00 | 54.528565 | 7.468628 | 2.0 | 7.922 | 2 | 34.106 | 8.058 | 32.686 | 2 |
| 2025-04-15T02:34:00 | 54.528620 | 7.466516 | 2.0 | 7.963 | 2 | 34.018 | 8.100 | 32.554 | 2 |
| 2025-04-15T02:35:00 | 54.528589 | 7.464444 | 2.0 | 8.004 | 2 | 33.950 | 8.135 | 32.449 | 2 |
| 2025-04-15T02:36:00 | 54.528506 | 7.462379 | 2.0 | 8.096 | 2 | 34.013 | 8.185 | 32.469 | 2 |
| 2025-04-15T02:37:00 | 54.528485 | 7.460290 | 2.0 | 8.137 | 2 | 34.206 | 8.266 | 32.599 | 2 |
| 2025-04-15T02:38:00 | 54.528533 | 7.458176 | 2.0 | 8.156 | 2 | 34.322 | 8.306 | 32.684 | 2 |
| 2025-04-15T02:39:00 | 54.528558 | 7.456033 | 2.0 | 8.158 | 2 | 34.147 | 8.322 | 32.485 | 2 |
| 2025-04-15T02:40:00 | 54.528521 | 7.453872 | 2.0 | 8.179 | 2 | 34.107 | 8.327 | 32.438 | 2 |
| 2025-04-15T02:41:00 | 54.528468 | 7.451681 | 2.0 | 8.166 | 2 | 34.214 | 8.343 | 32.536 | 2 |
| 2025-04-15T02:42:00 | 54.528437 | 7.449479 | 2.0 | 8.186 | 2 | 33.983 | 8.331 | 32.303 | 2 |
| 2025-04-15T02:43:00 | 54.528433 | 7.447275 | 2.0 | 8.234 | 2 | 34.457 | 8.364 | 32.773 | 2 |
| 2025-04-15T02:44:00 | 54.528450 | 7.445066 | 2.0 | 8.255 | 2 | 34.283 | 8.403 | 32.553 | 2 |
| 2025-04-15T02:45:00 | 54.528486 | 7.442849 | 2.0 | 8.271 | 2 | 34.282 | 8.422 | 32.535 | 2 |
| 2025-04-15T02:46:00 | 54.528617 | 7.440632 | 2.0 | 8.275 | 2 | 34.506 | 8.439 | 32.755 | 2 |
| 2025-04-15T02:47:00 | 54.529061 | 7.438594 | 2.0 | 8.260 | 2 | 34.245 | 8.438 | 32.481 | 2 |
| 2025-04-15T02:48:00 | 54.529636 | 7.436700 | 2.0 | 8.204 | 2 | 34.221 | 8.422 | 32.470 | 2 |
| 2025-04-15T02:49:00 | 54.530030 | 7.434679 | 2.0 | 8.192 | 2 | 34.287 | 8.364 | 32.593 | 2 |
| 2025-04-15T02:50:00 | 54.529769 | 7.432733 | 2.0 | 8.230 | 2 | 34.238 | 8.368 | 32.538 | 2 |
| 2025-04-15T02:51:00 | 54.529005 | 7.431830 | 2.0 | 8.247 | 2 | 34.296 | 8.397 | 32.572 | 2 |
| 2025-04-15T02:52:00 | 54.528131 | 7.432205 | 2.0 | 8.229 | 2 | 34.090 | 8.409 | 32.344 | 2 |
| 2025-04-15T02:53:00 | 54.527463 | 7.433585 | 2.0 | 8.285 | 2 | 34.231 | 8.405 | 32.496 | 2 |
| 2025-04-15T02:54:00 | 54.526918 | 7.435420 | 2.0 | 8.320 | 2 | 34.268 | 8.453 | 32.491 | 2 |
| 2025-04-15T02:55:00 | 54.526665 | 7.437480 | 2.0 | 8.288 | 2 | 34.499 | 8.480 | 32.709 | 2 |
| 2025-04-15T02:56:00 | 54.526547 | 7.439626 | 2.0 | 8.325 | 2 | 34.419 | 8.458 | 32.645 | 2 |
| 2025-04-15T02:57:00 | 54.526500 | 7.441695 | 2.0 | 8.324 | 2 | 34.464 | 8.491 | 32.662 | 2 |
| 2025-04-15T02:58:00 | 54.526436 | 7.443691 | 2.0 | 8.313 | 2 | 34.483 | 8.490 | 32.683 | 2 |
| 2025-04-15T02:59:00 | 54.526554 | 7.445650 | 2.0 | 8.280 | 2 | 34.424 | 8.475 | 32.635 | 2 |
| 2025-04-15T03:00:00 | 54.526589 | 7.447697 | 2.0 | 8.196 | 2 | 34.424 | 8.436 | 32.671 | 2 |
| 2025-04-15T03:01:00 | 54.526611 | 7.449849 | 2.0 | 8.092 | 2 | 34.313 | 8.351 | 32.633 | 2 |
| 2025-04-15T03:02:00 | 54.526548 | 7.451992 | 2.0 | 8.023 | 2 | 34.271 | 8.253 | 32.680 | 2 |
| 2025-04-15T03:03:00 | 54.526529 | 7.454134 | 2.0 | 8.000 | 2 | 34.208 | 8.188 | 32.673 | 2 |
| 2025-04-15T03:04:00 | 54.526498 | 7.456276 | 2.0 | 8.007 | 2 | 34.228 | 8.176 | 32.706 | 2 |
| 2025-04-15T03:05:00 | 54.526475 | 7.458413 | 2.0 | 7.981 | 2 | 34.188 | 8.172 | 32.667 | 2 |
| 2025-04-15T03:06:00 | 54.526479 | 7.460550 | 2.0 | 7.962 | 2 | 34.173 | 8.149 | 32.673 | 2 |
| 2025-04-15T03:07:00 | 54.526514 | 7.462707 | 2.0 | 8.027 | 2 | 34.103 | 8.139 | 32.608 | 2 |
| 2025-04-15T03:08:00 | 54.526544 | 7.464814 | 2.0 | 8.081 | 2 | 34.048 | 8.201 | 32.492 | 2 |
| 2025-04-15T03:09:00 | 54.526471 | 7.466875 | 2.0 | 8.117 | 2 | 34.019 | 8.260 | 32.407 | 2 |
| 2025-04-15T03:10:00 | 54.526422 | 7.468950 | 2.0 | 8.132 | 2 | 33.966 | 8.285 | 32.327 | 2 |
| 2025-04-15T03:11:00 | 54.526444 | 7.471044 | 2.0 | 8.139 | 2 | 33.920 | 8.299 | 32.266 | 2 |
| 2025-04-15T03:12:00 | 54.526488 | 7.473162 | 2.0 | 8.142 | 2 | 33.917 | 8.306 | 32.256 | 2 |
| 2025-04-15T03:13:00 | 54.526486 | 7.475285 | 2.0 | 8.145 | 2 | 33.860 | 8.310 | 32.193 | 2 |
| 2025-04-15T03:14:00 | 54.526436 | 7.477375 | 2.0 | 8.146 | 2 | 33.771 | 8.312 | 32.097 | 2 |
| 2025-04-15T03:15:00 | 54.526436 | 7.479503 | 2.0 | 8.143 | 2 | 33.524 | 8.313 | 31.836 | 2 |
| 2025-04-15T03:16:00 | 54.526444 | 7.481658 | 2.0 | 8.148 | 2 | 33.682 | 8.312 | 32.003 | 2 |
| 2025-04-15T03:17:00 | 54.526465 | 7.483808 | 2.0 | 8.160 | 2 | 33.527 | 8.317 | 31.835 | 2 |
| 2025-04-15T03:18:00 | 54.526460 | 7.485919 | 2.0 | 8.170 | 2 | 33.694 | 8.328 | 32.001 | 2 |
| 2025-04-15T03:19:00 | 54.526416 | 7.488018 | 2.0 | 8.178 | 2 | 33.679 | 8.338 | 31.976 | 2 |
| 2025-04-15T03:20:00 | 54.526400 | 7.490094 | 2.0 | 8.182 | 2 | 33.552 | 8.347 | 31.835 | 2 |
| 2025-04-15T03:21:00 | 54.526419 | 7.492176 | 2.0 | 8.186 | 2 | 33.824 | 8.350 | 32.118 | 2 |
| 2025-04-15T03:22:00 | 54.526437 | 7.494276 | 2.0 | 8.188 | 2 | 33.805 | 8.353 | 32.095 | 2 |
| 2025-04-15T03:23:00 | 54.526439 | 7.496382 | 2.0 | 8.191 | 2 | 33.787 | 8.356 | 32.074 | 2 |
| 2025-04-15T03:24:00 | 54.526457 | 7.498499 | 2.0 | 8.196 | 2 | 33.768 | 8.359 | 32.051 | 2 |
| 2025-04-15T03:25:00 | 54.526464 | 7.500651 | 2.0 | 8.203 | 2 | 33.757 | 8.364 | 32.035 | 2 |
| 2025-04-15T03:26:00 | 54.526457 | 7.502816 | 2.0 | 8.209 | 2 | 33.744 | 8.371 | 32.015 | 2 |
| 2025-04-15T03:27:00 | 54.526435 | 7.504961 | 2.0 | 8.213 | 2 | 33.740 | 8.377 | 32.005 | 2 |
| 2025-04-15T03:28:00 | 54.526440 | 7.507104 | 2.0 | 8.209 | 2 | 33.726 | 8.380 | 31.988 | 2 |
| 2025-04-15T03:29:00 | 54.526452 | 7.509226 | 2.0 | 8.205 | 2 | 33.713 | 8.376 | 31.978 | 2 |
| 2025-04-15T03:30:00 | 54.526467 | 7.511305 | 2.0 | 8.198 | 2 | 33.700 | 8.371 | 31.968 | 2 |
| 2025-04-15T03:31:00 | 54.526447 | 7.513349 | 2.0 | 8.194 | 2 | 33.695 | 8.365 | 31.969 | 2 |
| 2025-04-15T03:32:00 | 54.526426 | 7.515374 | 2.0 | 8.189 | 2 | 33.689 | 8.360 | 31.967 | 2 |
| 2025-04-15T03:33:00 | 54.526418 | 7.517392 | 2.0 | 8.188 | 2 | 33.689 | 8.356 | 31.971 | 2 |
| 2025-04-15T03:34:00 | 54.526413 | 7.519417 | 2.0 | 8.191 | 2 | 33.697 | 8.356 | 31.979 | 2 |
| 2025-04-15T03:35:00 | 54.526406 | 7.521426 | 2.0 | 8.194 | 2 | 33.706 | 8.359 | 31.986 | 2 |
| 2025-04-15T03:36:00 | 54.526396 | 7.523446 | 2.0 | 8.205 | 2 | 33.714 | 8.364 | 31.990 | 2 |
| 2025-04-15T03:37:00 | 54.526380 | 7.525470 | 2.0 | 8.208 | 2 | 33.724 | 8.373 | 31.992 | 2 |
| 2025-04-15T03:38:00 | 54.526389 | 7.527528 | 2.0 | 8.202 | 2 | 33.731 | 8.375 | 31.997 | 2 |
| 2025-04-15T03:39:00 | 54.526059 | 7.529369 | 2.0 | 8.196 | 2 | 33.731 | 8.370 | 32.002 | 2 |
| 2025-04-15T03:40:00 | 54.525470 | 7.530959 | 2.0 | 8.190 | 2 | 33.729 | 8.363 | 32.006 | 2 |
| 2025-04-15T03:41:00 | 54.525007 | 7.532645 | 2.0 | 8.182 | 2 | 33.725 | 8.358 | 32.007 | 2 |
| 2025-04-15T03:42:00 | 54.524716 | 7.534377 | 2.0 | 8.165 | 2 | 33.717 | 8.347 | 32.008 | 2 |
| 2025-04-15T03:43:00 | 54.525116 | 7.536097 | 2.0 | 8.134 | 2 | 33.694 | 8.328 | 32.001 | 2 |
| 2025-04-15T03:44:00 | 54.526198 | 7.537274 | 2.0 | 8.116 | 2 | 33.685 | 8.299 | 32.018 | 2 |
| 2025-04-15T03:45:00 | 54.527690 | 7.537149 | 2.0 | 8.111 | 2 | 33.692 | 8.285 | 32.038 | 2 |
| 2025-04-15T03:46:00 | 54.528688 | 7.535340 | 2.0 | 8.119 | 2 | 33.706 | 8.281 | 32.057 | 2 |
| 2025-04-15T03:47:00 | 54.528705 | 7.533227 | 2.0 | 8.142 | 2 | 33.717 | 8.292 | 32.058 | 2 |
| 2025-04-15T03:48:00 | 54.528334 | 7.531152 | 2.0 | 8.165 | 2 | 33.720 | 8.313 | 32.042 | 2 |
| 2025-04-15T03:49:00 | 54.528087 | 7.528817 | 2.0 | 8.176 | 2 | 33.727 | 8.334 | 32.031 | 2 |
| 2025-04-15T03:50:00 | 54.527884 | 7.526504 | 2.0 | 8.184 | 2 | 33.729 | 8.345 | 32.023 | 2 |
| 2025-04-15T03:51:00 | 54.527887 | 7.524202 | 2.0 | 8.194 | 2 | 33.729 | 8.352 | 32.016 | 2 |
| 2025-04-15T03:52:00 | 54.527942 | 7.521937 | 2.0 | 8.201 | 2 | 33.727 | 8.362 | 32.005 | 2 |
| 2025-04-15T03:53:00 | 54.527886 | 7.519755 | 2.0 | 8.203 | 2 | 33.726 | 8.369 | 31.998 | 2 |
| 2025-04-15T03:54:00 | 54.527774 | 7.517656 | 2.0 | 8.199 | 2 | 33.725 | 8.370 | 31.996 | 2 |
| 2025-04-15T03:55:00 | 54.527769 | 7.515526 | 2.0 | 8.191 | 2 | 33.721 | 8.365 | 31.996 | 2 |
| 2025-04-15T03:56:00 | 54.527844 | 7.513357 | 2.0 | 8.185 | 2 | 33.692 | 8.358 | 31.972 | 2 |
| 2025-04-15T03:57:00 | 54.527849 | 7.511213 | 2.0 | 8.182 | 2 | 33.703 | 8.354 | 31.987 | 2 |
| 2025-04-15T03:58:00 | 54.527766 | 7.509131 | 2.0 | 8.177 | 2 | 33.696 | 8.349 | 31.984 | 2 |
| 2025-04-15T03:59:00 | 54.527733 | 7.507033 | 2.0 | 8.176 | 2 | 33.687 | 8.345 | 31.978 | 2 |
| 2025-04-15T04:00:00 | 54.527776 | 7.504912 | 2.0 | 8.172 | 2 | 33.681 | 8.344 | 31.973 | 2 |
| 2025-04-15T04:01:00 | 54.527847 | 7.502776 | 2.0 | 8.167 | 2 | 33.679 | 8.339 | 31.975 | 2 |
| 2025-04-15T04:02:00 | 54.527902 | 7.500642 | 2.0 | 8.167 | 2 | 33.615 | 8.335 | 31.912 | 2 |
| 2025-04-15T04:03:00 | 54.527871 | 7.498549 | 2.0 | 8.175 | 2 | 33.679 | 8.336 | 31.978 | 2 |
| 2025-04-15T04:04:00 | 54.527777 | 7.496521 | 2.0 | 8.174 | 2 | 33.677 | 8.343 | 31.970 | 2 |
| 2025-04-15T04:05:00 | 54.527698 | 7.494509 | 2.0 | 8.174 | 2 | 33.431 | 8.340 | 31.714 | 2 |
| 2025-04-15T04:06:00 | 54.527675 | 7.492451 | 2.0 | 8.184 | 2 | 33.658 | 8.343 | 31.950 | 2 |
| 2025-04-15T04:07:00 | 54.527761 | 7.490315 | 2.0 | 8.199 | 2 | 33.680 | 8.355 | 31.962 | 2 |
| 2025-04-15T04:08:00 | 54.527855 | 7.488148 | 2.0 | 8.212 | 2 | 33.681 | 8.370 | 31.949 | 2 |
| 2025-04-15T04:09:00 | 54.527880 | 7.485992 | 2.0 | 8.220 | 2 | 33.690 | 8.381 | 31.949 | 2 |
| 2025-04-15T04:10:00 | 54.527832 | 7.483913 | 2.0 | 8.225 | 2 | 33.703 | 8.388 | 31.956 | 2 |
| 2025-04-15T04:11:00 | 54.527788 | 7.481848 | 2.0 | 8.226 | 2 | 33.470 | 8.393 | 31.707 | 2 |
| 2025-04-15T04:12:00 | 54.527818 | 7.479761 | 2.0 | 8.225 | 2 | 33.586 | 8.394 | 31.828 | 2 |
| 2025-04-15T04:13:00 | 54.527864 | 7.477675 | 2.0 | 8.222 | 2 | 33.436 | 8.392 | 31.672 | 2 |
| 2025-04-15T04:14:00 | 54.527886 | 7.475607 | 2.0 | 8.219 | 2 | 33.748 | 8.389 | 32.003 | 2 |
| 2025-04-15T04:15:00 | 54.527867 | 7.473550 | 2.0 | 8.220 | 2 | 33.451 | 8.387 | 31.692 | 2 |
| 2025-04-15T04:16:00 | 54.527813 | 7.471520 | 2.0 | 8.221 | 2 | 33.751 | 8.387 | 32.008 | 2 |
| 2025-04-15T04:17:00 | 54.527761 | 7.469497 | 2.0 | 8.223 | 2 | 33.567 | 8.389 | 31.812 | 2 |
| 2025-04-15T04:18:00 | 54.527723 | 7.467466 | 2.0 | 8.225 | 2 | 33.598 | 8.391 | 31.843 | 2 |
| 2025-04-15T04:19:00 | 54.527727 | 7.465413 | 2.0 | 8.224 | 2 | 33.632 | 8.393 | 31.877 | 2 |
| 2025-04-15T04:20:00 | 54.527754 | 7.463347 | 2.0 | 8.217 | 2 | 33.644 | 8.391 | 31.891 | 2 |
| 2025-04-15T04:21:00 | 54.527802 | 7.461255 | 2.0 | 8.210 | 2 | 33.454 | 8.385 | 31.697 | 2 |
| 2025-04-15T04:22:00 | 54.527849 | 7.459162 | 2.0 | 8.203 | 2 | 33.472 | 8.377 | 31.723 | 2 |
| 2025-04-15T04:23:00 | 54.527847 | 7.457089 | 2.0 | 8.199 | 2 | 33.570 | 8.370 | 31.833 | 2 |
| 2025-04-15T04:24:00 | 54.527800 | 7.455049 | 2.0 | 8.202 | 2 | 33.748 | 8.368 | 32.022 | 2 |
| 2025-04-15T04:25:00 | 54.527743 | 7.453033 | 2.0 | 8.210 | 2 | 33.471 | 8.371 | 31.728 | 2 |
| 2025-04-15T04:26:00 | 54.527682 | 7.451043 | 2.0 | 8.214 | 2 | 33.838 | 8.378 | 32.107 | 2 |
| 2025-04-15T04:27:00 | 54.527662 | 7.449027 | 2.0 | 8.206 | 2 | 33.689 | 8.380 | 31.949 | 2 |
| 2025-04-15T04:28:00 | 54.527660 | 7.446996 | 2.0 | 8.193 | 2 | 33.715 | 8.371 | 31.984 | 2 |
| 2025-04-15T04:29:00 | 54.527736 | 7.444928 | 2.0 | 8.187 | 2 | 33.508 | 8.360 | 31.776 | 2 |
| 2025-04-15T04:30:00 | 54.527904 | 7.442848 | 2.0 | 8.184 | 2 | 33.850 | 8.355 | 32.141 | 2 |
| 2025-04-15T04:31:00 | 54.528158 | 7.440799 | 2.0 | 8.182 | 2 | 33.662 | 8.352 | 31.946 | 2 |
| 2025-04-15T04:32:00 | 54.528733 | 7.438974 | 2.0 | 8.181 | 2 | 33.740 | 8.350 | 32.030 | 2 |
| 2025-04-15T04:33:00 | 54.529461 | 7.437360 | 2.0 | 8.179 | 2 | 33.841 | 8.348 | 32.138 | 2 |
| 2025-04-15T04:34:00 | 54.530060 | 7.435481 | 2.0 | 8.177 | 2 | 33.823 | 8.346 | 32.121 | 2 |
| 2025-04-15T04:35:00 | 54.530057 | 7.433526 | 2.0 | 8.176 | 2 | 33.400 | 8.343 | 31.678 | 2 |
| 2025-04-15T04:36:00 | 54.529487 | 7.432253 | 2.0 | 8.177 | 2 | 33.528 | 8.342 | 31.814 | 2 |
| 2025-04-15T04:37:00 | 54.528619 | 7.431947 | 2.0 | 8.182 | 2 | 34.000 | 8.345 | 32.308 | 2 |
| 2025-04-15T04:38:00 | 54.527625 | 7.432524 | 2.0 | 8.186 | 2 | 33.981 | 8.349 | 32.285 | 2 |
| 2025-04-15T04:39:00 | 54.526706 | 7.433785 | 2.0 | 8.192 | 2 | 33.947 | 8.354 | 32.244 | 2 |
| 2025-04-15T04:40:00 | 54.526116 | 7.435481 | 2.0 | 8.197 | 2 | 33.909 | 8.360 | 32.199 | 2 |
| 2025-04-15T04:41:00 | 54.525901 | 7.437526 | 2.0 | 8.197 | 2 | 33.875 | 8.364 | 32.159 | 2 |
| 2025-04-15T04:42:00 | 54.525864 | 7.439713 | 2.0 | 8.210 | 2 | 33.847 | 8.367 | 32.127 | 2 |
| 2025-04-15T04:43:00 | 54.525862 | 7.441843 | 2.0 | 8.216 | 2 | 33.828 | 8.378 | 32.097 | 2 |
| 2025-04-15T04:44:00 | 54.525850 | 7.443900 | 2.0 | 8.216 | 2 | 33.805 | 8.383 | 32.068 | 2 |
| 2025-04-15T04:45:00 | 54.525796 | 7.445908 | 2.0 | 8.227 | 2 | 33.777 | 8.385 | 32.037 | 2 |
| 2025-04-15T04:46:00 | 54.525761 | 7.447919 | 2.0 | 8.252 | 2 | 33.763 | 8.398 | 32.010 | 2 |
| 2025-04-15T04:47:00 | 54.525768 | 7.449928 | 2.0 | 8.252 | 2 | 33.750 | 8.418 | 31.978 | 2 |
| 2025-04-15T04:48:00 | 54.525744 | 7.451916 | 2.0 | 8.244 | 2 | 33.742 | 8.417 | 31.971 | 2 |
| 2025-04-15T04:49:00 | 54.525732 | 7.453873 | 2.0 | 8.243 | 2 | 33.730 | 8.411 | 31.964 | 2 |
| 2025-04-15T04:50:00 | 54.525733 | 7.455813 | 2.0 | 8.242 | 2 | 33.717 | 8.410 | 31.951 | 2 |
| 2025-04-15T04:51:00 | 54.525741 | 7.457781 | 2.0 | 8.232 | 2 | 33.702 | 8.409 | 31.936 | 2 |
| 2025-04-15T04:52:00 | 54.525745 | 7.459792 | 2.0 | 8.219 | 2 | 33.677 | 8.397 | 31.921 | 2 |
| 2025-04-15T04:53:00 | 54.525739 | 7.461832 | 2.0 | 8.225 | 2 | 33.477 | 8.389 | 31.718 | 2 |
| 2025-04-15T04:54:00 | 54.525742 | 7.463865 | 2.0 | 8.229 | 2 | 33.667 | 8.392 | 31.915 | 2 |
| 2025-04-15T04:55:00 | 54.525745 | 7.465895 | 2.0 | 8.230 | 2 | 33.678 | 8.397 | 31.922 | 2 |
| 2025-04-15T04:56:00 | 54.525746 | 7.467887 | 2.0 | 8.228 | 2 | 33.686 | 8.397 | 31.930 | 2 |
| 2025-04-15T04:57:00 | 54.525725 | 7.469888 | 2.0 | 8.224 | 2 | 33.690 | 8.395 | 31.936 | 2 |
| 2025-04-15T04:58:00 | 54.525723 | 7.471889 | 2.0 | 8.218 | 2 | 33.685 | 8.391 | 31.935 | 2 |
| 2025-04-15T04:59:00 | 54.525750 | 7.473867 | 2.0 | 8.202 | 2 | 33.686 | 8.383 | 31.943 | 2 |
| 2025-04-15T05:00:00 | 54.525747 | 7.475842 | 2.0 | 8.163 | 2 | 33.653 | 8.363 | 31.926 | 2 |
| 2025-04-15T05:01:00 | 54.525748 | 7.477795 | 2.0 | 8.142 | 2 | 33.669 | 8.330 | 31.973 | 2 |
| 2025-04-15T05:02:00 | 54.525743 | 7.479764 | 2.0 | 8.144 | 2 | 33.660 | 8.313 | 31.979 | 2 |
| 2025-04-15T05:03:00 | 54.525740 | 7.481739 | 2.0 | 8.142 | 2 | 33.527 | 8.312 | 31.840 | 2 |
| 2025-04-15T05:04:00 | 54.525718 | 7.483709 | 2.0 | 8.141 | 2 | 33.571 | 8.311 | 31.887 | 2 |
| 2025-04-15T05:05:00 | 54.525701 | 7.485677 | 2.0 | 8.140 | 2 | 33.664 | 8.308 | 31.988 | 2 |
| 2025-04-15T05:06:00 | 54.525708 | 7.487642 | 2.0 | 8.139 | 2 | 33.598 | 8.308 | 31.918 | 2 |
| 2025-04-15T05:07:00 | 54.525725 | 7.489621 | 2.0 | 8.138 | 2 | 33.654 | 8.307 | 31.978 | 2 |
| 2025-04-15T05:08:00 | 54.525717 | 7.491598 | 2.0 | 8.138 | 2 | 33.653 | 8.307 | 31.977 | 2 |
| 2025-04-15T05:09:00 | 54.525721 | 7.493584 | 2.0 | 8.132 | 2 | 33.650 | 8.305 | 31.976 | 2 |
| 2025-04-15T05:10:00 | 54.525717 | 7.495601 | 2.0 | 8.124 | 2 | 33.647 | 8.301 | 31.976 | 2 |
| 2025-04-15T05:11:00 | 54.525698 | 7.497641 | 2.0 | 8.115 | 2 | 33.304 | 8.293 | 31.622 | 2 |
| 2025-04-15T05:12:00 | 54.525699 | 7.499691 | 2.0 | 8.108 | 2 | 33.210 | 8.283 | 31.532 | 2 |
| 2025-04-15T05:13:00 | 54.525711 | 7.501731 | 2.0 | 8.084 | 2 | 33.041 | 8.273 | 31.363 | 2 |
| 2025-04-15T05:14:00 | 54.525719 | 7.503769 | 2.0 | 8.079 | 2 | 33.583 | 8.252 | 31.953 | 2 |
| 2025-04-15T05:15:00 | 54.525716 | 7.505818 | 2.0 | 8.075 | 2 | 33.438 | 8.248 | 31.804 | 2 |
| 2025-04-15T05:16:00 | 54.525706 | 7.507881 | 2.0 | 8.054 | 2 | 33.525 | 8.242 | 31.901 | 2 |
| 2025-04-15T05:17:00 | 54.525714 | 7.509949 | 2.0 | 8.046 | 2 | 33.249 | 8.221 | 31.629 | 2 |
| 2025-04-15T05:18:00 | 54.525707 | 7.512043 | 2.0 | 8.012 | 2 | 33.446 | 8.207 | 31.850 | 2 |
| 2025-04-15T05:19:00 | 54.525694 | 7.514145 | 2.0 | 7.999 | 2 | 33.167 | 8.184 | 31.576 | 2 |
| 2025-04-15T05:20:00 | 54.525692 | 7.516251 | 2.0 | 7.958 | 2 | 33.339 | 8.157 | 31.782 | 2 |
| 2025-04-15T05:21:00 | 54.525697 | 7.518366 | 2.0 | 7.952 | 2 | 33.367 | 8.131 | 31.835 | 2 |
| 2025-04-15T05:22:00 | 54.525703 | 7.520487 | 2.0 | 7.927 | 2 | 33.260 | 8.117 | 31.735 | 2 |
| 2025-04-15T05:23:00 | 54.525700 | 7.522618 | 2.0 | 7.910 | 2 | 33.151 | 8.096 | 31.638 | 2 |
| 2025-04-15T05:24:00 | 54.525696 | 7.524761 | 2.0 | 7.886 | 2 | 33.346 | 8.079 | 31.860 | 2 |
| 2025-04-15T05:25:00 | 54.525700 | 7.526922 | 2.0 | 7.823 | 2 | 33.185 | 8.046 | 31.719 | 2 |
| 2025-04-15T05:27:00 | 54.525093 | 7.530861 | 2.0 | 7.809 | 2 | 33.399 | 7.979 | 32.008 | 2 |
| 2025-04-15T05:28:00 | 54.524581 | 7.532646 | 2.0 | 7.817 | 2 | 33.392 | 7.980 | 31.999 | 2 |
| 2025-04-15T05:29:00 | 54.524901 | 7.534811 | 2.0 | 7.821 | 2 | 33.387 | 7.989 | 31.986 | 2 |
| 2025-04-15T05:30:00 | 54.526360 | 7.535641 | 2.0 | 7.812 | 2 | 33.374 | 7.988 | 31.973 | 2 |
| 2025-04-15T05:31:00 | 54.527550 | 7.534130 | 2.0 | 7.831 | 2 | 33.369 | 7.989 | 31.967 | 2 |
| 2025-04-15T05:32:00 | 54.527643 | 7.531940 | 2.0 | 7.821 | 2 | 33.390 | 7.998 | 31.981 | 2 |
| 2025-04-15T05:33:00 | 54.527244 | 7.529677 | 2.0 | 7.812 | 2 | 33.398 | 7.990 | 31.996 | 2 |
| 2025-04-15T05:34:00 | 54.527013 | 7.527166 | 2.0 | 7.811 | 2 | 33.401 | 7.982 | 32.007 | 2 |
| 2025-04-15T05:35:00 | 54.527196 | 7.524527 | 2.0 | 7.812 | 2 | 33.403 | 7.981 | 32.010 | 2 |
| 2025-04-15T05:36:00 | 54.527176 | 7.521985 | 2.0 | 7.847 | 2 | 33.407 | 7.984 | 32.011 | 2 |
| 2025-04-15T05:37:00 | 54.526980 | 7.519530 | 2.0 | 7.900 | 2 | 33.436 | 8.026 | 32.004 | 2 |
| 2025-04-15T05:38:00 | 54.527005 | 7.517014 | 2.0 | 7.918 | 2 | 33.468 | 8.068 | 31.999 | 2 |
| 2025-04-15T05:39:00 | 54.527070 | 7.514507 | 2.0 | 7.924 | 2 | 33.482 | 8.087 | 31.997 | 2 |
| 2025-04-15T05:40:00 | 54.527062 | 7.512046 | 2.0 | 7.937 | 2 | 33.486 | 8.095 | 31.994 | 2 |
| 2025-04-15T05:41:00 | 54.527066 | 7.509599 | 2.0 | 7.950 | 2 | 33.496 | 8.106 | 31.994 | 2 |
| 2025-04-15T05:42:00 | 54.527079 | 7.507155 | 2.0 | 7.961 | 2 | 33.508 | 8.117 | 31.997 | 2 |
| 2025-04-15T05:43:00 | 54.527095 | 7.504695 | 2.0 | 7.975 | 2 | 33.521 | 8.132 | 31.997 | 2 |
| 2025-04-15T05:44:00 | 54.527108 | 7.502225 | 2.0 | 7.989 | 2 | 33.527 | 8.144 | 31.993 | 2 |
| 2025-04-15T05:45:00 | 54.527119 | 7.499767 | 2.0 | 8.013 | 2 | 33.536 | 8.163 | 31.985 | 2 |
| 2025-04-15T05:46:00 | 54.527126 | 7.497310 | 2.0 | 8.019 | 2 | 33.547 | 8.176 | 31.985 | 2 |
| 2025-04-15T05:47:00 | 54.527113 | 7.494869 | 2.0 | 8.029 | 2 | 33.555 | 8.193 | 31.977 | 2 |
| 2025-04-15T05:48:00 | 54.527099 | 7.492417 | 2.0 | 8.019 | 2 | 33.560 | 8.193 | 31.983 | 2 |
| 2025-04-15T05:49:00 | 54.527078 | 7.489956 | 2.0 | 8.057 | 2 | 33.564 | 8.200 | 31.981 | 2 |
| 2025-04-15T05:50:00 | 54.527070 | 7.487475 | 2.0 | 8.055 | 2 | 33.585 | 8.223 | 31.982 | 2 |
| 2025-04-15T05:51:00 | 54.527062 | 7.484997 | 2.0 | 8.064 | 2 | 33.578 | 8.221 | 31.976 | 2 |
| 2025-04-15T05:52:00 | 54.527050 | 7.482510 | 2.0 | 8.061 | 2 | 33.598 | 8.233 | 31.986 | 2 |
| 2025-04-15T05:53:00 | 54.527059 | 7.480005 | 2.0 | 8.072 | 2 | 33.597 | 8.231 | 31.987 | 2 |
| 2025-04-15T05:54:00 | 54.527073 | 7.477482 | 2.0 | 8.077 | 2 | 33.605 | 8.236 | 31.991 | 2 |
| 2025-04-15T05:55:00 | 54.527086 | 7.474943 | 2.0 | 8.083 | 2 | 33.589 | 8.246 | 31.965 | 2 |
| 2025-04-15T05:56:00 | 54.527097 | 7.472384 | 2.0 | 8.083 | 2 | 33.623 | 8.250 | 31.997 | 2 |
| 2025-04-15T05:57:00 | 54.527109 | 7.469818 | 2.0 | 8.081 | 2 | 33.639 | 8.252 | 32.012 | 2 |
| 2025-04-15T05:58:00 | 54.527118 | 7.467273 | 2.0 | 8.069 | 2 | 33.658 | 8.246 | 32.038 | 2 |
| 2025-04-15T05:59:00 | 54.527129 | 7.464733 | 2.0 | 8.052 | 2 | 33.672 | 8.232 | 32.066 | 2 |
| 2025-04-15T06:00:00 | 54.527139 | 7.462193 | 2.0 | 8.052 | 2 | 33.644 | 8.220 | 32.047 | 2 |
| 2025-04-15T06:01:00 | 54.527153 | 7.459653 | 2.0 | 8.050 | 2 | 33.692 | 8.218 | 32.099 | 2 |
| 2025-04-15T06:02:00 | 54.527163 | 7.457113 | 2.0 | 8.048 | 2 | 33.478 | 8.217 | 31.874 | 2 |
| 2025-04-15T06:03:00 | 54.527182 | 7.454564 | 2.0 | 8.055 | 2 | 33.690 | 8.219 | 32.096 | 2 |
| 2025-04-15T06:04:00 | 54.527193 | 7.452027 | 2.0 | 8.050 | 2 | 33.710 | 8.222 | 32.115 | 2 |
| 2025-04-15T06:05:00 | 54.527185 | 7.449511 | 2.0 | 8.055 | 2 | 33.359 | 8.217 | 31.749 | 2 |
| 2025-04-15T06:06:00 | 54.527168 | 7.447004 | 2.0 | 8.054 | 2 | 33.252 | 8.225 | 31.629 | 2 |
| 2025-04-15T06:07:00 | 54.527153 | 7.444516 | 2.0 | 8.056 | 2 | 33.397 | 8.222 | 31.784 | 2 |
| 2025-04-15T06:08:00 | 54.527143 | 7.442051 | 2.0 | 8.057 | 2 | 33.079 | 8.222 | 31.449 | 2 |
| 2025-04-15T06:09:00 | 54.527128 | 7.439641 | 2.0 | 8.061 | 2 | 33.480 | 8.227 | 31.867 | 2 |
| 2025-04-15T06:10:00 | 54.527122 | 7.437347 | 2.0 | 8.072 | 2 | 33.618 | 8.233 | 32.008 | 2 |
| 2025-04-15T06:11:00 | 54.527121 | 7.435143 | 2.0 | 8.087 | 2 | 33.542 | 8.239 | 31.922 | 2 |
| 2025-04-15T06:12:00 | 54.527128 | 7.432986 | 2.0 | 8.103 | 2 | 33.044 | 8.255 | 31.383 | 2 |
| 2025-04-15T06:13:00 | 54.527145 | 7.430857 | 2.0 | 8.119 | 2 | 33.339 | 8.272 | 31.678 | 2 |
| 2025-04-15T06:14:00 | 54.527143 | 7.428768 | 2.0 | 8.133 | 2 | 33.432 | 8.285 | 31.764 | 2 |
| 2025-04-15T06:15:00 | 54.527144 | 7.426702 | 2.0 | 8.153 | 2 | 33.280 | 8.301 | 31.590 | 2 |
| 2025-04-15T06:16:00 | 54.527163 | 7.424650 | 2.0 | 8.166 | 2 | 33.455 | 8.321 | 31.756 | 2 |
| 2025-04-15T06:17:00 | 54.527462 | 7.423081 | 2.0 | 8.177 | 2 | 33.626 | 8.333 | 31.925 | 2 |
| 2025-04-15T06:18:00 | 54.527925 | 7.422555 | 2.0 | 8.180 | 2 | 33.430 | 8.342 | 31.711 | 2 |
| 2025-04-15T06:19:00 | 54.528248 | 7.422306 | 2.0 | 8.183 | 2 | 33.563 | 8.347 | 31.846 | 2 |
| 2025-04-15T06:20:00 | 54.528475 | 7.422136 | 2.0 | 8.185 | 2 | 33.240 | 8.350 | 31.504 | 2 |
| 2025-04-15T06:21:00 | 54.528639 | 7.422000 | 2.0 | 8.185 | 2 | 33.310 | 8.351 | 31.576 | 2 |
| 2025-04-15T06:22:00 | 54.528721 | 7.421794 | 2.0 | 8.185 | 2 | 33.379 | 8.351 | 31.649 | 2 |
| 2025-04-15T06:23:00 | 54.528782 | 7.421523 | 2.0 | 8.185 | 2 | 33.466 | 8.353 | 31.739 | 2 |
| 2025-04-15T06:24:00 | 54.528837 | 7.421206 | 2.0 | 8.188 | 2 | 33.576 | 8.353 | 31.854 | 2 |
| 2025-04-15T06:25:00 | 54.528920 | 7.420920 | 2.0 | 8.187 | 2 | 33.529 | 8.355 | 31.803 | 2 |
| 2025-04-15T06:26:00 | 54.529019 | 7.420663 | 2.0 | 8.182 | 2 | 33.385 | 8.353 | 31.653 | 2 |
| 2025-04-15T06:27:00 | 54.529103 | 7.420396 | 2.0 | 8.183 | 2 | 33.442 | 8.349 | 31.717 | 2 |
| 2025-04-15T06:28:00 | 54.529194 | 7.420107 | 2.0 | 8.186 | 2 | 33.447 | 8.350 | 31.721 | 2 |
| 2025-04-15T06:29:00 | 54.529300 | 7.419843 | 2.0 | 8.188 | 2 | 33.535 | 8.354 | 31.810 | 2 |
| 2025-04-15T06:30:00 | 54.529401 | 7.419608 | 2.0 | 8.188 | 2 | 33.363 | 8.355 | 31.629 | 2 |
| 2025-04-15T06:31:00 | 54.529485 | 7.419392 | 2.0 | 8.187 | 2 | 33.299 | 8.353 | 31.563 | 2 |
| 2025-04-15T06:32:00 | 54.529550 | 7.419356 | 2.0 | 8.182 | 2 | 33.729 | 8.354 | 32.014 | 2 |
| 2025-04-15T06:33:00 | 54.529606 | 7.419445 | 2.0 | 8.177 | 2 | 33.729 | 8.347 | 32.021 | 2 |
| 2025-04-15T06:34:00 | 54.529637 | 7.419567 | 2.0 | 8.179 | 2 | 33.729 | 8.345 | 32.023 | 2 |
| 2025-04-15T06:35:00 | 54.529617 | 7.419994 | 2.0 | 8.167 | 2 | 33.729 | 8.342 | 32.025 | 2 |
| 2025-04-15T06:36:00 | 54.529401 | 7.421625 | 2.0 | 8.152 | 2 | 33.734 | 8.332 | 32.040 | 2 |
| 2025-04-15T06:37:00 | 54.529126 | 7.423627 | 2.0 | 8.135 | 2 | 33.740 | 8.317 | 32.060 | 2 |
| 2025-04-15T06:38:00 | 54.528839 | 7.425672 | 2.0 | 8.108 | 2 | 33.737 | 8.299 | 32.073 | 2 |
| 2025-04-15T06:39:00 | 54.528546 | 7.427749 | 2.0 | 8.089 | 2 | 33.736 | 8.275 | 32.094 | 2 |
| 2025-04-15T06:40:00 | 54.528268 | 7.429669 | 2.0 | 8.068 | 2 | 33.743 | 8.254 | 32.120 | 2 |
| 2025-04-15T06:41:00 | 54.528058 | 7.431198 | 2.0 | 8.038 | 2 | 33.748 | 8.231 | 32.147 | 2 |
| 2025-04-15T06:42:00 | 54.527885 | 7.432466 | 2.0 | 8.031 | 2 | 33.746 | 8.209 | 32.165 | 2 |
| 2025-04-15T06:43:00 | 54.527739 | 7.433585 | 2.0 | 8.032 | 2 | 33.742 | 8.201 | 32.168 | 2 |
| 2025-04-15T06:44:00 | 54.527615 | 7.434554 | 2.0 | 8.020 | 2 | 33.734 | 8.199 | 32.161 | 2 |
| 2025-04-15T06:45:00 | 54.527507 | 7.435439 | 2.0 | 8.022 | 2 | 33.737 | 8.189 | 32.174 | 2 |
| 2025-04-15T06:46:00 | 54.527412 | 7.436234 | 2.0 | 8.022 | 2 | 33.741 | 8.188 | 32.179 | 2 |
| 2025-04-15T06:47:00 | 54.527331 | 7.436885 | 2.0 | 8.038 | 2 | 33.740 | 8.192 | 32.174 | 2 |
| 2025-04-15T06:48:00 | 54.527259 | 7.437459 | 2.0 | 8.042 | 2 | 33.621 | 8.207 | 32.034 | 2 |
| 2025-04-15T06:49:00 | 54.527205 | 7.438007 | 2.0 | 8.023 | 2 | 33.738 | 8.206 | 32.159 | 2 |
| 2025-04-15T06:50:00 | 54.527148 | 7.438505 | 2.0 | 8.019 | 2 | 33.741 | 8.190 | 32.177 | 2 |
| 2025-04-15T06:51:00 | 54.527098 | 7.438966 | 2.0 | 8.019 | 2 | 33.738 | 8.188 | 32.176 | 2 |
| 2025-04-15T06:52:00 | 54.527056 | 7.439422 | 2.0 | 8.020 | 2 | 33.738 | 8.188 | 32.176 | 2 |
| 2025-04-15T06:53:00 | 54.526994 | 7.439894 | 2.0 | 8.020 | 2 | 33.742 | 8.187 | 32.181 | 2 |
| 2025-04-15T06:54:00 | 54.527004 | 7.440854 | 2.0 | 8.016 | 2 | 33.723 | 8.185 | 32.162 | 2 |
| 2025-04-15T06:55:00 | 54.527075 | 7.442907 | 2.0 | 8.009 | 2 | 33.740 | 8.182 | 32.183 | 2 |
| 2025-04-15T06:56:00 | 54.527134 | 7.445789 | 2.0 | 8.004 | 2 | 33.743 | 8.174 | 32.194 | 2 |
| 2025-04-15T06:57:00 | 54.527174 | 7.449473 | 2.0 | 8.015 | 2 | 33.735 | 8.177 | 32.182 | 2 |
| 2025-04-15T06:58:00 | 54.527378 | 7.453660 | 2.0 | 8.021 | 2 | 33.721 | 8.185 | 32.160 | 2 |
| 2025-04-15T06:59:00 | 54.527861 | 7.457946 | 2.0 | 8.010 | 2 | 33.707 | 8.186 | 32.145 | 2 |
| 2025-04-15T07:00:00 | 54.528348 | 7.462312 | 2.0 | 8.021 | 2 | 33.683 | 8.184 | 32.121 | 2 |
| 2025-04-15T07:01:00 | 54.528812 | 7.466705 | 2.0 | 8.016 | 2 | 33.215 | 8.187 | 31.624 | 2 |
| 2025-04-15T07:02:00 | 54.529064 | 7.471137 | 2.0 | 8.000 | 2 | 33.633 | 8.185 | 32.067 | 2 |
| 2025-04-15T07:03:00 | 54.529302 | 7.475606 | 2.0 | 8.004 | 2 | 33.431 | 8.172 | 31.866 | 2 |
| 2025-04-15T07:04:00 | 54.529547 | 7.480106 | 2.0 | 7.977 | 2 | 33.297 | 8.174 | 31.722 | 2 |
| 2025-04-15T07:05:00 | 54.529784 | 7.484596 | 2.0 | 7.921 | 2 | 33.448 | 8.138 | 31.914 | 2 |
| 2025-04-15T07:06:00 | 54.530021 | 7.489089 | 2.0 | 7.900 | 2 | 33.509 | 8.090 | 32.023 | 2 |
| 2025-04-15T07:07:00 | 54.530252 | 7.493596 | 2.0 | 7.898 | 2 | 33.442 | 8.072 | 31.968 | 2 |
| 2025-04-15T07:09:00 | 54.530713 | 7.502617 | 2.0 | 7.850 | 2 | 33.468 | 8.048 | 32.018 | 2 |
| 2025-04-15T07:10:00 | 54.530937 | 7.507137 | 2.0 | 7.839 | 2 | 33.438 | 8.021 | 32.011 | 2 |
| 2025-04-15T07:11:00 | 54.531080 | 7.511181 | 2.0 | 7.832 | 2 | 33.410 | 8.012 | 31.989 | 2 |
| 2025-04-15T07:12:00 | 54.531116 | 7.513664 | 2.0 | 7.829 | 2 | 33.392 | 8.001 | 31.980 | 2 |
| 2025-04-15T07:13:00 | 54.531054 | 7.515059 | 2.0 | 7.832 | 2 | 33.370 | 7.999 | 31.958 | 2 |
| 2025-04-15T07:14:00 | 54.530843 | 7.515771 | 2.0 | 7.838 | 2 | 33.369 | 8.003 | 31.954 | 2 |
| 2025-04-15T07:15:00 | 54.530793 | 7.516248 | 2.0 | 7.837 | 2 | 33.373 | 8.006 | 31.955 | 2 |
| 2025-04-15T07:16:00 | 54.530705 | 7.516475 | 2.0 | 7.837 | 2 | 33.371 | 8.004 | 31.955 | 2 |
| 2025-04-15T07:17:00 | 54.530628 | 7.516489 | 2.0 | 7.840 | 2 | 33.372 | 8.006 | 31.954 | 2 |
| 2025-04-15T07:18:00 | 54.530620 | 7.516413 | 2.0 | 7.836 | 2 | 33.373 | 8.007 | 31.954 | 2 |
| 2025-04-15T07:19:00 | 54.530657 | 7.516335 | 2.0 | 7.832 | 2 | 33.372 | 8.003 | 31.957 | 2 |
| 2025-04-15T07:20:00 | 54.530694 | 7.516262 | 2.0 | 7.835 | 2 | 33.371 | 8.001 | 31.958 | 2 |
| 2025-04-15T07:21:00 | 54.530729 | 7.516178 | 2.0 | 7.834 | 2 | 33.373 | 8.002 | 31.959 | 2 |
| 2025-04-15T07:22:00 | 54.530765 | 7.516110 | 2.0 | 7.831 | 2 | 33.376 | 8.002 | 31.962 | 2 |
| 2025-04-15T07:23:00 | 54.530801 | 7.516107 | 2.0 | 7.835 | 2 | 33.404 | 7.999 | 31.995 | 2 |
| 2025-04-15T07:24:00 | 54.530819 | 7.516153 | 2.0 | 7.839 | 2 | 33.401 | 8.005 | 31.986 | 2 |
| 2025-04-15T07:25:00 | 54.530821 | 7.516168 | 2.0 | 7.840 | 2 | 33.384 | 8.006 | 31.967 | 2 |
| 2025-04-15T07:26:00 | 54.530822 | 7.516170 | 2.0 | 7.835 | 2 | 33.386 | 8.007 | 31.968 | 2 |
| 2025-04-15T07:27:00 | 54.530822 | 7.516177 | 2.0 | 7.841 | 2 | 33.387 | 8.005 | 31.971 | 2 |
| 2025-04-15T07:28:00 | 54.530804 | 7.516192 | 2.0 | 7.841 | 2 | 33.386 | 8.008 | 31.967 | 2 |
| 2025-04-15T07:29:00 | 54.530820 | 7.516159 | 2.0 | 7.840 | 2 | 33.386 | 8.008 | 31.967 | 2 |
| 2025-04-15T07:30:00 | 54.530855 | 7.516122 | 2.0 | 7.842 | 2 | 33.386 | 8.009 | 31.966 | 2 |
| 2025-04-15T07:31:00 | 54.530853 | 7.516111 | 2.0 | 7.839 | 2 | 33.390 | 8.008 | 31.971 | 2 |
| 2025-04-15T07:32:00 | 54.530857 | 7.516110 | 2.0 | 7.848 | 2 | 33.398 | 8.009 | 31.979 | 2 |
| 2025-04-15T07:33:00 | 54.530883 | 7.516123 | 2.0 | 7.835 | 2 | 33.399 | 8.012 | 31.977 | 2 |
| 2025-04-15T07:34:00 | 54.530896 | 7.516166 | 2.0 | 7.838 | 2 | 33.419 | 8.005 | 32.005 | 2 |
| 2025-04-15T07:35:00 | 54.530897 | 7.516238 | 2.0 | 7.851 | 2 | 33.417 | 8.007 | 32.001 | 2 |
| 2025-04-15T07:36:00 | 54.530917 | 7.516312 | 2.0 | 7.841 | 2 | 33.406 | 8.017 | 31.980 | 2 |
| 2025-04-15T07:37:00 | 54.530953 | 7.516323 | 2.0 | 7.840 | 2 | 33.411 | 8.009 | 31.993 | 2 |
| 2025-04-15T07:38:00 | 54.530968 | 7.516250 | 2.0 | 7.839 | 2 | 33.410 | 8.010 | 31.991 | 2 |
| 2025-04-15T07:39:00 | 54.530959 | 7.516144 | 2.0 | 7.837 | 2 | 33.451 | 8.004 | 32.040 | 2 |
| 2025-04-15T07:40:00 | 54.530934 | 7.515967 | 2.0 | 7.829 | 2 | 33.454 | 8.004 | 32.043 | 2 |
| 2025-04-15T07:41:00 | 54.530846 | 7.515890 | 2.0 | 7.831 | 2 | 33.440 | 7.999 | 32.033 | 2 |
| 2025-04-15T07:42:00 | 54.530812 | 7.515832 | 2.0 | 7.834 | 2 | 33.424 | 7.999 | 32.016 | 2 |
| 2025-04-15T07:43:00 | 54.530866 | 7.515777 | 2.0 | 7.844 | 2 | 33.415 | 8.004 | 32.002 | 2 |
| 2025-04-15T07:44:00 | 54.530972 | 7.515728 | 2.0 | 7.848 | 2 | 33.420 | 8.013 | 31.999 | 2 |
| 2025-04-15T07:45:00 | 54.531146 | 7.515692 | 2.0 | 7.845 | 2 | 33.405 | 8.014 | 31.982 | 2 |
| 2025-04-15T07:46:00 | 54.531319 | 7.515679 | 2.0 | 7.847 | 2 | 33.405 | 8.013 | 31.983 | 2 |
| 2025-04-15T07:47:00 | 54.531505 | 7.515838 | 2.0 | 7.850 | 2 | 33.409 | 8.016 | 31.984 | 2 |
| 2025-04-15T07:48:00 | 54.531632 | 7.515839 | 2.0 | 7.856 | 2 | 33.413 | 8.019 | 31.986 | 2 |
| 2025-04-15T07:49:00 | 54.531695 | 7.515841 | 2.0 | 7.865 | 2 | 33.419 | 8.026 | 31.986 | 2 |
| 2025-04-15T07:50:00 | 54.531629 | 7.515853 | 2.0 | 7.854 | 2 | 33.427 | 8.032 | 31.989 | 2 |
| 2025-04-15T07:51:00 | 54.531480 | 7.515936 | 2.0 | 7.853 | 2 | 33.434 | 8.022 | 32.005 | 2 |
| 2025-04-15T07:52:00 | 54.531314 | 7.516114 | 2.0 | 7.854 | 2 | 33.431 | 8.023 | 32.001 | 2 |
| 2025-04-15T07:53:00 | 54.531229 | 7.516196 | 2.0 | 7.857 | 2 | 33.424 | 8.023 | 31.994 | 2 |
| 2025-04-15T07:54:00 | 54.531228 | 7.516282 | 2.0 | 7.857 | 2 | 33.423 | 8.024 | 31.992 | 2 |
| 2025-04-15T07:55:00 | 54.531036 | 7.516337 | 2.0 | 7.854 | 2 | 33.424 | 8.025 | 31.992 | 2 |
| 2025-04-15T07:56:00 | 54.530797 | 7.515398 | 2.0 | 7.852 | 2 | 33.418 | 8.021 | 31.989 | 2 |
| 2025-04-15T07:57:00 | 54.530688 | 7.513563 | 2.0 | 7.851 | 2 | 33.420 | 8.021 | 31.991 | 2 |
| 2025-04-15T07:58:00 | 54.530639 | 7.511310 | 2.0 | 7.858 | 2 | 33.436 | 8.024 | 32.006 | 2 |
| 2025-04-15T07:59:00 | 54.530721 | 7.508845 | 2.0 | 7.869 | 2 | 33.462 | 8.041 | 32.018 | 2 |
| 2025-04-15T08:00:00 | 54.530805 | 7.506267 | 2.0 | 7.883 | 2 | 33.470 | 8.057 | 32.012 | 2 |
| 2025-04-15T08:01:00 | 54.531344 | 7.505295 | 2.0 | 7.893 | 2 | 33.494 | 8.070 | 32.025 | 2 |
| 2025-04-15T08:02:00 | 54.531710 | 7.505396 | 2.0 | 7.892 | 2 | 33.506 | 8.079 | 32.030 | 2 |
| 2025-04-15T08:03:00 | 54.531954 | 7.505540 | 2.0 | 7.894 | 2 | 33.505 | 8.082 | 32.026 | 2 |
| 2025-04-15T08:04:00 | 54.532145 | 7.505663 | 2.0 | 7.897 | 2 | 33.508 | 8.086 | 32.025 | 2 |
| 2025-04-15T08:05:00 | 54.532244 | 7.505636 | 2.0 | 7.907 | 2 | 33.512 | 8.091 | 32.025 | 2 |
| 2025-04-15T08:06:00 | 54.532307 | 7.505473 | 2.0 | 7.910 | 2 | 33.523 | 8.101 | 32.028 | 2 |
| 2025-04-15T08:07:00 | 54.532350 | 7.505290 | 2.0 | 7.916 | 2 | 33.532 | 8.104 | 32.034 | 2 |
| 2025-04-15T08:08:00 | 54.532247 | 7.505228 | 2.0 | 7.931 | 2 | 33.538 | 8.112 | 32.033 | 2 |
| 2025-04-15T08:09:00 | 54.532084 | 7.505291 | 2.0 | 7.932 | 2 | 33.545 | 8.125 | 32.029 | 2 |
| 2025-04-15T08:10:00 | 54.531929 | 7.505355 | 2.0 | 7.931 | 2 | 33.543 | 8.126 | 32.026 | 2 |
| 2025-04-15T08:11:00 | 54.531773 | 7.505533 | 2.0 | 7.935 | 2 | 33.547 | 8.127 | 32.029 | 2 |
| 2025-04-15T08:12:00 | 54.531655 | 7.505689 | 2.0 | 7.929 | 2 | 33.550 | 8.128 | 32.031 | 2 |
| 2025-04-15T08:13:00 | 54.531517 | 7.505857 | 2.0 | 7.933 | 2 | 33.548 | 8.126 | 32.031 | 2 |
| 2025-04-15T08:14:00 | 54.531432 | 7.505950 | 2.0 | 7.928 | 2 | 33.546 | 8.128 | 32.027 | 2 |
| 2025-04-15T08:15:00 | 54.531418 | 7.505937 | 2.0 | 7.924 | 2 | 33.541 | 8.123 | 32.027 | 2 |
| 2025-04-15T08:16:00 | 54.531469 | 7.505949 | 2.0 | 7.929 | 2 | 33.539 | 8.121 | 32.026 | 2 |
| 2025-04-15T08:17:00 | 54.531536 | 7.506072 | 2.0 | 7.927 | 2 | 33.542 | 8.124 | 32.027 | 2 |
| 2025-04-15T08:18:00 | 54.531607 | 7.506533 | 2.0 | 7.931 | 2 | 33.544 | 8.125 | 32.028 | 2 |
| 2025-04-15T08:19:00 | 54.531689 | 7.507307 | 2.0 | 7.925 | 2 | 33.568 | 8.129 | 32.050 | 2 |
| 2025-04-15T08:20:00 | 54.531758 | 7.508066 | 2.0 | 7.931 | 2 | 33.620 | 8.122 | 32.111 | 2 |
| 2025-04-15T08:21:00 | 54.531809 | 7.508987 | 2.0 | 7.935 | 2 | 33.593 | 8.130 | 32.075 | 2 |
| 2025-04-15T08:22:00 | 54.531849 | 7.509968 | 2.0 | 7.930 | 2 | 33.567 | 8.134 | 32.044 | 2 |
| 2025-04-15T08:23:00 | 54.531903 | 7.510606 | 2.0 | 7.915 | 2 | 33.562 | 8.128 | 32.044 | 2 |
| 2025-04-15T08:24:00 | 54.531948 | 7.510742 | 2.0 | 7.929 | 2 | 33.598 | 8.116 | 32.093 | 2 |
| 2025-04-15T08:25:00 | 54.531986 | 7.510732 | 2.0 | 7.936 | 2 | 33.588 | 8.129 | 32.071 | 2 |
| 2025-04-15T08:26:00 | 54.532001 | 7.511074 | 2.0 | 7.941 | 2 | 33.594 | 8.137 | 32.070 | 2 |
| 2025-04-15T08:27:00 | 54.531987 | 7.511674 | 2.0 | 7.937 | 2 | 33.595 | 8.142 | 32.066 | 2 |
| 2025-04-15T08:28:00 | 54.531853 | 7.513364 | 2.0 | 7.924 | 2 | 33.610 | 8.135 | 32.089 | 2 |
| 2025-04-15T08:29:00 | 54.531148 | 7.513631 | 2.0 | 7.929 | 2 | 33.605 | 8.126 | 32.092 | 2 |
| 2025-04-15T08:30:00 | 54.530074 | 7.512579 | 2.0 | 7.924 | 2 | 33.559 | 8.130 | 32.039 | 2 |
| 2025-04-15T08:31:00 | 54.529916 | 7.510174 | 2.0 | 7.933 | 2 | 33.558 | 8.129 | 32.039 | 2 |
| 2025-04-15T08:32:00 | 54.530351 | 7.507315 | 2.0 | 7.958 | 2 | 33.562 | 8.140 | 32.033 | 2 |
| 2025-04-15T08:33:00 | 54.530868 | 7.504218 | 2.0 | 7.967 | 2 | 33.577 | 8.164 | 32.027 | 2 |
| 2025-04-15T08:34:00 | 54.531848 | 7.504144 | 2.0 | 7.964 | 2 | 33.596 | 8.168 | 32.044 | 2 |
| 2025-04-15T08:35:00 | 54.532967 | 7.504170 | 2.0 | 7.962 | 2 | 33.602 | 8.168 | 32.050 | 2 |
| 2025-04-15T08:36:00 | 54.534068 | 7.502974 | 2.0 | 7.976 | 2 | 33.605 | 8.169 | 32.052 | 2 |
| 2025-04-15T08:37:00 | 54.535228 | 7.501353 | 2.0 | 8.043 | 2 | 33.623 | 8.192 | 32.050 | 2 |
| 2025-04-15T08:38:00 | 54.536304 | 7.499842 | 2.0 | 8.094 | 2 | 33.684 | 8.251 | 32.061 | 2 |
| 2025-04-15T08:39:00 | 54.537202 | 7.498639 | 2.0 | 8.090 | 2 | 33.733 | 8.292 | 32.075 | 2 |
| 2025-04-15T08:40:00 | 54.537959 | 7.498263 | 2.0 | 8.090 | 2 | 33.765 | 8.288 | 32.113 | 2 |
| 2025-04-15T08:41:00 | 54.538288 | 7.498902 | 2.0 | 8.090 | 2 | 33.777 | 8.293 | 32.121 | 2 |
| 2025-04-15T08:42:00 | 54.538401 | 7.499301 | 2.0 | 8.096 | 2 | 33.779 | 8.291 | 32.125 | 2 |
| 2025-04-15T08:43:00 | 54.538413 | 7.499357 | 2.0 | 8.093 | 2 | 33.781 | 8.296 | 32.122 | 2 |
| 2025-04-15T08:44:00 | 54.538615 | 7.499568 | 2.0 | 8.080 | 2 | 33.789 | 8.292 | 32.134 | 2 |
| 2025-04-15T08:45:00 | 54.538791 | 7.499837 | 2.0 | 8.084 | 2 | 33.789 | 8.283 | 32.142 | 2 |
| 2025-04-15T08:46:00 | 54.538920 | 7.500074 | 2.0 | 8.085 | 2 | 33.790 | 8.285 | 32.142 | 2 |
| 2025-04-15T08:47:00 | 54.538998 | 7.500290 | 2.0 | 8.091 | 2 | 33.795 | 8.289 | 32.143 | 2 |
| 2025-04-15T08:48:00 | 54.539048 | 7.500651 | 2.0 | 8.084 | 2 | 33.799 | 8.292 | 32.145 | 2 |
| 2025-04-15T08:49:00 | 54.539054 | 7.500769 | 2.0 | 8.094 | 2 | 33.803 | 8.289 | 32.152 | 2 |
| 2025-04-15T08:50:00 | 54.539048 | 7.500745 | 2.0 | 8.077 | 2 | 33.809 | 8.295 | 32.153 | 2 |
| 2025-04-15T08:51:00 | 54.539089 | 7.500774 | 2.0 | 8.085 | 2 | 33.809 | 8.285 | 32.162 | 2 |
| 2025-04-15T08:52:00 | 54.539133 | 7.500889 | 2.0 | 8.055 | 2 | 33.807 | 8.279 | 32.165 | 2 |
| 2025-04-15T08:53:00 | 54.539211 | 7.501184 | 2.0 | 8.058 | 2 | 33.800 | 8.262 | 32.173 | 2 |
| 2025-04-15T08:54:00 | 54.539247 | 7.501179 | 2.0 | 8.080 | 2 | 33.746 | 8.264 | 32.114 | 2 |
| 2025-04-15T08:55:00 | 54.539232 | 7.501238 | 2.0 | 8.008 | 2 | 33.746 | 8.273 | 32.106 | 2 |
| 2025-04-15T08:56:00 | 54.539228 | 7.501248 | 2.0 | 8.002 | 2 | 33.774 | 8.214 | 32.190 | 2 |
| 2025-04-15T08:57:00 | 54.539277 | 7.501498 | 2.0 | 8.004 | 2 | 33.744 | 8.215 | 32.157 | 2 |
| 2025-04-15T08:58:00 | 54.539350 | 7.501719 | 2.0 | 8.064 | 2 | 33.806 | 8.231 | 32.208 | 2 |
| 2025-04-15T08:59:00 | 54.539538 | 7.502169 | 2.0 | 8.082 | 2 | 33.750 | 8.272 | 32.111 | 2 |
| 2025-04-15T09:00:00 | 54.539759 | 7.503052 | 2.0 | 8.097 | 2 | 33.734 | 8.295 | 32.073 | 2 |
| 2025-04-15T09:01:00 | 54.539721 | 7.505321 | 2.0 | 8.103 | 2 | 33.759 | 8.307 | 32.089 | 2 |
| 2025-04-15T09:02:00 | 54.538165 | 7.507438 | 2.0 | 8.080 | 2 | 33.755 | 8.297 | 32.094 | 2 |
| 2025-04-15T09:03:00 | 54.536877 | 7.505083 | 2.0 | 8.102 | 2 | 33.750 | 8.301 | 32.085 | 2 |
| 2025-04-15T09:04:00 | 54.536462 | 7.500867 | 2.0 | 8.107 | 2 | 33.754 | 8.314 | 32.077 | 2 |
| 2025-04-15T09:05:00 | 54.537692 | 7.497235 | 2.0 | 8.093 | 2 | 33.801 | 8.319 | 32.122 | 2 |
| 2025-04-15T09:06:00 | 54.540266 | 7.495765 | 2.0 | 8.101 | 2 | 33.851 | 8.307 | 32.186 | 2 |
| 2025-04-15T09:07:00 | 54.543115 | 7.496113 | 2.0 | 8.144 | 2 | 33.863 | 8.320 | 32.187 | 2 |
| 2025-04-15T09:08:00 | 54.545985 | 7.496436 | 2.0 | 8.145 | 2 | 33.882 | 8.359 | 32.171 | 2 |
| 2025-04-15T09:09:00 | 54.548412 | 7.497166 | 2.0 | 8.156 | 2 | 33.905 | 8.360 | 32.194 | 2 |
| 2025-04-15T09:10:00 | 54.550229 | 7.498163 | 2.0 | 8.165 | 2 | 33.902 | 8.369 | 32.183 | 2 |
| 2025-04-15T09:11:00 | 54.551446 | 7.499175 | 2.0 | 8.168 | 2 | 33.899 | 8.374 | 32.175 | 2 |
| 2025-04-15T09:12:00 | 54.551673 | 7.500082 | 2.0 | 8.167 | 2 | 33.897 | 8.372 | 32.175 | 2 |
| 2025-04-15T09:13:00 | 54.551758 | 7.500053 | 2.0 | 8.168 | 2 | 33.898 | 8.375 | 32.173 | 2 |
| 2025-04-15T09:14:00 | 54.551784 | 7.499918 | 2.0 | 8.157 | 2 | 33.900 | 8.377 | 32.174 | 2 |
| 2025-04-15T09:15:00 | 54.551793 | 7.500101 | 2.0 | 8.141 | 2 | 33.906 | 8.362 | 32.194 | 2 |
| 2025-04-15T09:16:00 | 54.551774 | 7.500158 | 2.0 | 8.125 | 2 | 33.915 | 8.348 | 32.216 | 2 |
| 2025-04-15T09:17:00 | 54.551792 | 7.500476 | 2.0 | 8.088 | 2 | 33.922 | 8.337 | 32.233 | 2 |
| 2025-04-15T09:18:00 | 54.551820 | 7.501602 | 2.0 | 8.160 | 2 | 33.942 | 8.307 | 32.282 | 2 |
| 2025-04-15T09:19:00 | 54.551844 | 7.503419 | 2.0 | 8.129 | 2 | 33.919 | 8.353 | 32.215 | 2 |
| 2025-04-15T09:20:00 | 54.551877 | 7.504742 | 2.0 | 8.085 | 2 | 33.917 | 8.351 | 32.215 | 2 |
| 2025-04-15T09:21:00 | 54.551865 | 7.505465 | 2.0 | 8.039 | 2 | 33.948 | 8.267 | 32.325 | 2 |
| 2025-04-15T09:22:00 | 54.551832 | 7.505735 | 2.0 | 8.128 | 2 | 33.937 | 8.275 | 32.306 | 2 |
| 2025-04-15T09:23:00 | 54.551857 | 7.506097 | 2.0 | 8.146 | 2 | 33.922 | 8.337 | 32.233 | 2 |
| 2025-04-15T09:24:00 | 54.551908 | 7.506398 | 2.0 | 8.150 | 2 | 33.925 | 8.361 | 32.214 | 2 |
| 2025-04-15T09:25:00 | 54.552189 | 7.507253 | 2.0 | 8.176 | 2 | 33.927 | 8.364 | 32.214 | 2 |
| 2025-04-15T09:26:00 | 54.552683 | 7.509203 | 2.0 | 8.178 | 2 | 33.920 | 8.386 | 32.186 | 2 |
| 2025-04-15T09:27:00 | 54.553148 | 7.511782 | 2.0 | 8.182 | 2 | 33.916 | 8.397 | 32.172 | 2 |
| 2025-04-15T09:28:00 | 54.552491 | 7.513018 | 2.0 | 8.186 | 2 | 33.918 | 8.397 | 32.174 | 2 |
| 2025-04-15T09:29:00 | 54.551196 | 7.514039 | 2.0 | 8.188 | 2 | 33.924 | 8.405 | 32.173 | 2 |
| 2025-04-15T09:30:00 | 54.549530 | 7.514457 | 2.0 | 8.179 | 2 | 33.930 | 8.403 | 32.181 | 2 |
| 2025-04-15T09:31:00 | 54.547696 | 7.515007 | 2.0 | 8.183 | 2 | 33.930 | 8.396 | 32.188 | 2 |
| 2025-04-15T09:32:00 | 54.545835 | 7.515866 | 2.0 | 8.188 | 2 | 33.918 | 8.394 | 32.177 | 2 |
| 2025-04-15T09:33:00 | 54.543922 | 7.516775 | 2.0 | 8.164 | 2 | 33.901 | 8.383 | 32.169 | 2 |
| 2025-04-15T09:34:00 | 54.542042 | 7.517727 | 2.0 | 8.132 | 2 | 33.894 | 8.355 | 32.187 | 2 |
| 2025-04-15T09:35:00 | 54.540287 | 7.518608 | 2.0 | 8.128 | 2 | 33.899 | 8.326 | 32.219 | 2 |
| 2025-04-15T09:36:00 | 54.538632 | 7.519444 | 2.0 | 8.135 | 2 | 33.893 | 8.321 | 32.217 | 2 |
| 2025-04-15T09:37:00 | 54.537009 | 7.520266 | 2.0 | 8.137 | 2 | 33.876 | 8.328 | 32.193 | 2 |
| 2025-04-15T09:38:00 | 54.535471 | 7.521065 | 2.0 | 8.132 | 2 | 33.857 | 8.323 | 32.178 | 2 |
| 2025-04-15T09:39:00 | 54.534020 | 7.521807 | 2.0 | 8.114 | 2 | 33.836 | 8.317 | 32.161 | 2 |
| 2025-04-15T09:40:00 | 54.532598 | 7.522534 | 2.0 | 8.099 | 2 | 33.826 | 8.299 | 32.167 | 2 |
| 2025-04-15T09:41:00 | 54.531214 | 7.523242 | 2.0 | 8.084 | 2 | 33.828 | 8.282 | 32.185 | 2 |
| 2025-04-15T09:42:00 | 54.530204 | 7.523039 | 2.0 | 8.084 | 2 | 33.828 | 8.274 | 32.192 | 2 |
| 2025-04-15T09:43:00 | 54.529539 | 7.521646 | 2.0 | 8.073 | 2 | 33.812 | 8.261 | 32.187 | 2 |
| 2025-04-15T09:44:00 | 54.529022 | 7.519454 | 2.0 | 8.087 | 2 | 33.815 | 8.263 | 32.188 | 2 |
| 2025-04-15T09:45:00 | 54.528587 | 7.517188 | 2.0 | 8.086 | 2 | 33.819 | 8.271 | 32.185 | 2 |
| 2025-04-15T09:46:00 | 54.528177 | 7.515011 | 2.0 | 8.086 | 2 | 33.824 | 8.270 | 32.191 | 2 |
| 2025-04-15T09:47:00 | 54.527929 | 7.512869 | 2.0 | 8.087 | 2 | 33.819 | 8.269 | 32.187 | 2 |
| 2025-04-15T09:48:00 | 54.527923 | 7.510726 | 2.0 | 8.109 | 2 | 33.812 | 8.275 | 32.174 | 2 |
| 2025-04-15T09:49:00 | 54.527924 | 7.508568 | 2.0 | 8.124 | 2 | 33.821 | 8.294 | 32.166 | 2 |
| 2025-04-15T09:50:00 | 54.527922 | 7.506418 | 2.0 | 8.123 | 2 | 33.836 | 8.303 | 32.174 | 2 |
| 2025-04-15T09:51:00 | 54.527930 | 7.504302 | 2.0 | 8.150 | 2 | 33.843 | 8.304 | 32.180 | 2 |
| 2025-04-15T09:52:00 | 54.528432 | 7.503832 | 2.0 | 8.142 | 2 | 33.834 | 8.341 | 32.137 | 2 |
| 2025-04-15T09:53:00 | 54.528760 | 7.504437 | 2.0 | 8.130 | 2 | 33.859 | 8.320 | 32.182 | 2 |
| 2025-04-15T09:54:00 | 54.528926 | 7.505000 | 2.0 | 8.143 | 2 | 33.864 | 8.312 | 32.195 | 2 |
| 2025-04-15T09:55:00 | 54.529066 | 7.505633 | 2.0 | 8.141 | 2 | 33.870 | 8.323 | 32.191 | 2 |
| 2025-04-15T09:56:00 | 54.529057 | 7.506317 | 2.0 | 8.127 | 2 | 33.870 | 8.319 | 32.195 | 2 |
| 2025-04-15T09:57:00 | 54.528898 | 7.506971 | 2.0 | 8.151 | 2 | 33.866 | 8.309 | 32.200 | 2 |
| 2025-04-15T09:58:00 | 54.528638 | 7.507522 | 2.0 | 8.148 | 2 | 33.877 | 8.328 | 32.194 | 2 |
| 2025-04-15T09:59:00 | 54.528348 | 7.507983 | 2.0 | 8.190 | 2 | 33.866 | 8.339 | 32.172 | 2 |
| 2025-04-15T10:00:00 | 54.528124 | 7.508622 | 2.0 | 8.189 | 2 | 33.848 | 8.364 | 32.131 | 2 |
| 2025-04-15T10:01:00 | 54.527954 | 7.509188 | 2.0 | 8.196 | 2 | 33.837 | 8.372 | 32.112 | 2 |
| 2025-04-15T10:02:00 | 54.527852 | 7.509584 | 2.0 | 8.192 | 2 | 33.828 | 8.372 | 32.102 | 2 |
| 2025-04-15T10:03:00 | 54.527855 | 7.509893 | 2.0 | 8.191 | 2 | 33.828 | 8.371 | 32.103 | 2 |
| 2025-04-15T10:04:00 | 54.527957 | 7.510227 | 2.0 | 8.181 | 2 | 33.827 | 8.370 | 32.103 | 2 |
| 2025-04-15T10:05:00 | 54.528145 | 7.510612 | 2.0 | 8.172 | 2 | 33.827 | 8.356 | 32.116 | 2 |
| 2025-04-15T10:06:00 | 54.528356 | 7.511087 | 2.0 | 8.173 | 2 | 33.829 | 8.351 | 32.122 | 2 |
| 2025-04-15T10:07:00 | 54.528473 | 7.511499 | 2.0 | 8.189 | 2 | 33.826 | 8.354 | 32.117 | 2 |
| 2025-04-15T10:08:00 | 54.528518 | 7.511896 | 2.0 | 8.220 | 2 | 33.819 | 8.374 | 32.091 | 2 |
| 2025-04-15T10:09:00 | 54.528498 | 7.512260 | 2.0 | 8.184 | 2 | 33.803 | 8.393 | 32.057 | 2 |
| 2025-04-15T10:10:00 | 54.528453 | 7.512588 | 2.0 | 8.220 | 2 | 33.763 | 8.363 | 32.042 | 2 |
| 2025-04-15T10:11:00 | 54.528358 | 7.512973 | 2.0 | 8.237 | 2 | 33.709 | 8.399 | 31.953 | 2 |
| 2025-04-15T10:12:00 | 54.528266 | 7.513347 | 2.0 | 8.241 | 2 | 33.809 | 8.413 | 32.045 | 2 |
| 2025-04-15T10:13:00 | 54.528190 | 7.513750 | 2.0 | 8.235 | 2 | 33.681 | 8.417 | 31.907 | 2 |
| 2025-04-15T10:14:00 | 54.528179 | 7.514045 | 2.0 | 8.230 | 2 | 33.788 | 8.410 | 32.026 | 2 |
| 2025-04-15T10:15:00 | 54.528218 | 7.514240 | 2.0 | 8.204 | 2 | 33.696 | 8.402 | 31.936 | 2 |
| 2025-04-15T10:16:00 | 54.528297 | 7.514384 | 2.0 | 8.219 | 2 | 33.812 | 8.382 | 32.076 | 2 |
| 2025-04-15T10:17:00 | 54.528487 | 7.514532 | 2.0 | 8.229 | 2 | 33.800 | 8.399 | 32.048 | 2 |
| 2025-04-15T10:18:00 | 54.528694 | 7.514735 | 2.0 | 8.236 | 2 | 33.643 | 8.405 | 31.878 | 2 |
| 2025-04-15T10:19:00 | 54.528918 | 7.514930 | 2.0 | 8.238 | 2 | 33.369 | 8.411 | 31.585 | 2 |
| 2025-04-15T10:20:00 | 54.529206 | 7.515274 | 2.0 | 8.240 | 2 | 33.807 | 8.414 | 32.042 | 2 |
| 2025-04-15T10:21:00 | 54.529399 | 7.515840 | 2.0 | 8.240 | 2 | 33.565 | 8.417 | 31.785 | 2 |
| 2025-04-15T10:22:00 | 54.528976 | 7.516304 | 2.0 | 8.213 | 2 | 33.807 | 8.410 | 32.046 | 2 |
| 2025-04-15T10:23:00 | 54.528606 | 7.514614 | 2.0 | 8.200 | 2 | 33.574 | 8.385 | 31.823 | 2 |
| 2025-04-15T10:24:00 | 54.528672 | 7.511784 | 2.0 | 8.198 | 2 | 33.796 | 8.388 | 32.054 | 2 |
| 2025-04-15T10:25:00 | 54.529079 | 7.508597 | 2.0 | 8.208 | 2 | 33.814 | 8.397 | 32.065 | 2 |
| 2025-04-15T10:26:00 | 54.529431 | 7.505630 | 2.0 | 8.228 | 2 | 33.826 | 8.411 | 32.065 | 2 |
| 2025-04-15T10:27:00 | 54.530285 | 7.503630 | 2.0 | 8.217 | 2 | 33.842 | 8.422 | 32.071 | 2 |
| 2025-04-15T10:28:00 | 54.531357 | 7.503754 | 2.0 | 8.210 | 2 | 33.844 | 8.415 | 32.080 | 2 |
| 2025-04-15T10:29:00 | 54.531880 | 7.504834 | 2.0 | 8.207 | 2 | 33.835 | 8.411 | 32.074 | 2 |
| 2025-04-15T10:30:00 | 54.531882 | 7.505870 | 2.0 | 8.210 | 2 | 33.829 | 8.409 | 32.070 | 2 |
| 2025-04-15T10:31:00 | 54.531722 | 7.506632 | 2.0 | 8.227 | 2 | 33.834 | 8.414 | 32.070 | 2 |
| 2025-04-15T10:32:00 | 54.531494 | 7.507202 | 2.0 | 8.227 | 2 | 33.844 | 8.425 | 32.071 | 2 |
| 2025-04-15T10:33:00 | 54.531437 | 7.507250 | 2.0 | 8.237 | 2 | 33.852 | 8.429 | 32.076 | 2 |
| 2025-04-15T10:34:00 | 54.531324 | 7.507249 | 2.0 | 8.237 | 2 | 33.862 | 8.440 | 32.076 | 2 |
| 2025-04-15T10:35:00 | 54.531377 | 7.507159 | 2.0 | 8.238 | 2 | 33.868 | 8.444 | 32.079 | 2 |
| 2025-04-15T10:36:00 | 54.531328 | 7.507125 | 2.0 | 8.214 | 2 | 33.874 | 8.439 | 32.090 | 2 |
| 2025-04-15T10:37:00 | 54.531286 | 7.507085 | 2.0 | 8.242 | 2 | 33.869 | 8.432 | 32.091 | 2 |
| 2025-04-15T10:38:00 | 54.531379 | 7.507054 | 2.0 | 8.255 | 2 | 33.877 | 8.452 | 32.081 | 2 |
| 2025-04-15T10:39:00 | 54.531298 | 7.506935 | 2.0 | 8.259 | 2 | 33.890 | 8.467 | 32.081 | 2 |
| 2025-04-15T10:40:00 | 54.531319 | 7.506822 | 2.0 | 8.264 | 2 | 33.897 | 8.470 | 32.086 | 2 |
| 2025-04-15T10:41:00 | 54.531424 | 7.506728 | 2.0 | 8.268 | 2 | 33.905 | 8.477 | 32.088 | 2 |
| 2025-04-15T10:42:00 | 54.531429 | 7.506585 | 2.0 | 8.269 | 2 | 33.912 | 8.484 | 32.089 | 2 |
| 2025-04-15T10:43:00 | 54.531385 | 7.506555 | 2.0 | 8.290 | 2 | 33.918 | 8.492 | 32.088 | 2 |
| 2025-04-15T10:44:00 | 54.531261 | 7.506836 | 2.0 | 8.293 | 2 | 33.935 | 8.509 | 32.090 | 2 |
| 2025-04-15T10:45:00 | 54.531148 | 7.506972 | 2.0 | 8.297 | 2 | 33.939 | 8.511 | 32.092 | 2 |
| 2025-04-15T10:46:00 | 54.530896 | 7.507183 | 2.0 | 8.299 | 2 | 33.944 | 8.513 | 32.096 | 2 |
| 2025-04-15T10:47:00 | 54.530647 | 7.506389 | 2.0 | 8.278 | 2 | 33.944 | 8.507 | 32.101 | 2 |
| 2025-04-15T10:48:00 | 54.531538 | 7.506382 | 2.0 | 8.286 | 2 | 33.937 | 8.499 | 32.101 | 2 |
| 2025-04-15T10:49:00 | 54.532441 | 7.508432 | 2.0 | 8.283 | 2 | 33.938 | 8.505 | 32.097 | 2 |
| 2025-04-15T10:50:00 | 54.532914 | 7.511473 | 2.0 | 8.273 | 2 | 33.926 | 8.498 | 32.091 | 2 |
| 2025-04-15T10:51:00 | 54.532522 | 7.513798 | 2.0 | 8.239 | 2 | 33.913 | 8.491 | 32.083 | 2 |
| 2025-04-15T10:52:00 | 54.531703 | 7.513863 | 2.0 | 8.208 | 2 | 33.920 | 8.449 | 32.129 | 2 |
| 2025-04-15T10:53:00 | 54.531533 | 7.513255 | 2.0 | 8.222 | 2 | 33.929 | 8.430 | 32.156 | 2 |
| 2025-04-15T10:54:00 | 54.531613 | 7.512612 | 2.0 | 8.244 | 2 | 33.922 | 8.444 | 32.136 | 2 |
| 2025-04-15T10:55:00 | 54.531672 | 7.511749 | 2.0 | 8.248 | 2 | 33.933 | 8.461 | 32.132 | 2 |
| 2025-04-15T10:56:00 | 54.531688 | 7.511196 | 2.0 | 8.304 | 2 | 33.942 | 8.471 | 32.132 | 2 |
| 2025-04-15T10:57:00 | 54.531755 | 7.510938 | 2.0 | 8.256 | 2 | 33.954 | 8.517 | 32.103 | 2 |
| 2025-04-15T10:58:00 | 54.531784 | 7.510904 | 2.0 | 8.237 | 2 | 33.978 | 8.465 | 32.175 | 2 |
| 2025-04-15T10:59:00 | 54.531888 | 7.509960 | 2.0 | 8.296 | 2 | 33.963 | 8.474 | 32.151 | 2 |
| 2025-04-15T11:00:00 | 54.532072 | 7.509642 | 2.0 | 8.305 | 2 | 33.958 | 8.505 | 32.118 | 2 |
| 2025-04-15T11:01:00 | 54.532415 | 7.509602 | 2.0 | 8.334 | 2 | 33.971 | 8.527 | 32.111 | 2 |
| 2025-04-15T11:02:00 | 54.533322 | 7.509619 | 2.0 | 8.343 | 2 | 33.989 | 8.556 | 32.104 | 2 |
| 2025-04-15T11:03:00 | 54.534582 | 7.509150 | 2.0 | 8.412 | 2 | 33.648 | 8.576 | 31.729 | 2 |
| 2025-04-15T11:04:00 | 54.536013 | 7.508286 | 2.0 | 8.455 | 2 | 34.034 | 8.638 | 32.076 | 2 |
| 2025-04-15T11:05:00 | 54.537559 | 7.507320 | 2.0 | 8.504 | 2 | 34.058 | 8.687 | 32.057 | 2 |
| 2025-04-15T11:06:00 | 54.538226 | 7.505895 | 2.0 | 8.528 | 2 | 34.114 | 8.729 | 32.078 | 2 |
| 2025-04-15T11:07:00 | 54.538570 | 7.504488 | 2.0 | 8.535 | 2 | 34.111 | 8.742 | 32.063 | 2 |
| 2025-04-15T11:08:00 | 54.538846 | 7.503296 | 2.0 | 8.533 | 2 | 34.179 | 8.754 | 32.123 | 2 |
| 2025-04-15T11:09:00 | 54.538983 | 7.502434 | 2.0 | 8.540 | 2 | 34.196 | 8.751 | 32.143 | 2 |
| 2025-04-15T11:10:00 | 54.539049 | 7.501989 | 2.0 | 8.536 | 2 | 34.208 | 8.761 | 32.147 | 2 |
| 2025-04-15T11:11:00 | 54.539138 | 7.502080 | 2.0 | 8.551 | 2 | 34.216 | 8.760 | 32.156 | 2 |
| 2025-04-15T11:12:00 | 54.539160 | 7.501986 | 2.0 | 8.537 | 2 | 34.057 | 8.752 | 31.997 | 2 |
| 2025-04-15T11:13:00 | 54.539084 | 7.501906 | 2.0 | 8.551 | 2 | 34.231 | 8.769 | 32.163 | 2 |
| 2025-04-15T11:14:00 | 54.539044 | 7.501565 | 2.0 | 8.560 | 2 | 34.234 | 8.772 | 32.164 | 2 |
| 2025-04-15T11:15:00 | 54.539058 | 7.501576 | 2.0 | 8.549 | 2 | 33.912 | 8.777 | 31.824 | 2 |
| 2025-04-15T11:16:00 | 54.538950 | 7.501374 | 2.0 | 8.578 | 2 | 34.248 | 8.781 | 32.170 | 2 |
| 2025-04-15T11:17:00 | 54.538937 | 7.501025 | 2.0 | 8.564 | 2 | 34.171 | 8.796 | 32.076 | 2 |
| 2025-04-15T11:18:00 | 54.539215 | 7.500566 | 2.0 | 8.550 | 2 | 34.028 | 8.787 | 31.935 | 2 |
| 2025-04-15T11:19:00 | 54.540142 | 7.501123 | 2.0 | 8.532 | 2 | 34.068 | 8.770 | 31.992 | 2 |
| 2025-04-15T11:20:00 | 54.541455 | 7.502505 | 2.0 | 8.522 | 2 | 34.274 | 8.756 | 32.220 | 2 |
| 2025-04-15T11:21:00 | 54.543278 | 7.504323 | 2.0 | 8.524 | 2 | 34.193 | 8.749 | 32.142 | 2 |
| 2025-04-15T11:22:00 | 54.545339 | 7.506363 | 2.0 | 8.524 | 2 | 34.253 | 8.751 | 32.203 | 2 |
| 2025-04-15T11:23:00 | 54.547479 | 7.508407 | 2.0 | 8.519 | 2 | 34.042 | 8.752 | 31.982 | 2 |
| 2025-04-15T11:24:00 | 54.549457 | 7.510056 | 2.0 | 8.497 | 2 | 33.886 | 8.739 | 31.831 | 2 |
| 2025-04-15T11:25:00 | 54.550926 | 7.510748 | 2.0 | 8.478 | 2 | 33.973 | 8.719 | 31.939 | 2 |
| 2025-04-15T11:26:00 | 54.551344 | 7.509884 | 2.0 | 8.481 | 2 | 34.360 | 8.706 | 32.355 | 2 |
| 2025-04-15T11:27:00 | 54.551418 | 7.508877 | 2.0 | 8.481 | 2 | 34.097 | 8.707 | 32.080 | 2 |
| 2025-04-15T11:28:00 | 54.551490 | 7.507732 | 2.0 | 8.465 | 2 | 34.299 | 8.703 | 32.294 | 2 |
| 2025-04-15T11:29:00 | 54.551531 | 7.506553 | 2.0 | 8.415 | 2 | 34.111 | 8.680 | 32.119 | 2 |
| 2025-04-15T11:30:00 | 54.551620 | 7.505934 | 2.0 | 8.300 | 2 | 34.298 | 8.596 | 32.391 | 2 |
| 2025-04-15T11:31:00 | 54.551628 | 7.505773 | 2.0 | 8.126 | 2 | 34.105 | 8.484 | 32.291 | 2 |
| 2025-04-15T11:32:00 | 54.551615 | 7.505749 | 2.0 | 8.386 | 2 | 34.400 | 8.383 | 32.695 | 2 |
| 2025-04-15T11:33:00 | 54.551632 | 7.505267 | 2.0 | 8.461 | 2 | 34.337 | 8.623 | 32.407 | 2 |
| 2025-04-15T11:34:00 | 54.551616 | 7.504326 | 2.0 | 8.460 | 2 | 34.070 | 8.683 | 32.073 | 2 |
| 2025-04-15T11:35:00 | 54.551541 | 7.502944 | 2.0 | 8.466 | 2 | 34.511 | 8.688 | 32.530 | 2 |
| 2025-04-15T11:36:00 | 54.551476 | 7.501640 | 2.0 | 8.447 | 2 | 34.523 | 8.680 | 32.550 | 2 |
| 2025-04-15T11:37:00 | 54.551473 | 7.500690 | 2.0 | 8.451 | 2 | 34.366 | 8.668 | 32.396 | 2 |
| 2025-04-15T11:38:00 | 54.551505 | 7.500465 | 2.0 | 8.470 | 2 | 34.291 | 8.679 | 32.308 | 2 |
| 2025-04-15T11:39:00 | 54.551567 | 7.500047 | 2.0 | 8.467 | 2 | 34.349 | 8.686 | 32.362 | 2 |
| 2025-04-15T11:40:00 | 54.551606 | 7.499902 | 2.0 | 8.456 | 2 | 34.299 | 8.688 | 32.308 | 2 |
| 2025-04-15T11:41:00 | 54.551630 | 7.499566 | 2.0 | 8.460 | 2 | 34.288 | 8.686 | 32.298 | 2 |
| 2025-04-15T11:42:00 | 54.551624 | 7.498996 | 2.0 | 8.454 | 2 | 34.484 | 8.689 | 32.501 | 2 |
| 2025-04-15T11:43:00 | 54.551592 | 7.498237 | 2.0 | 8.453 | 2 | 34.443 | 8.679 | 32.467 | 2 |
| 2025-04-15T11:44:00 | 54.551548 | 7.497341 | 2.0 | 8.446 | 2 | 34.602 | 8.675 | 32.637 | 2 |
| 2025-04-15T11:45:00 | 54.551480 | 7.496345 | 2.0 | 8.439 | 2 | 34.591 | 8.672 | 32.628 | 2 |
| 2025-04-15T11:46:00 | 54.551420 | 7.495284 | 2.0 | 8.435 | 2 | 34.464 | 8.671 | 32.496 | 2 |
| 2025-04-15T11:47:00 | 54.551458 | 7.493823 | 2.0 | 8.439 | 2 | 34.438 | 8.657 | 32.482 | 2 |
| 2025-04-15T11:48:00 | 54.551838 | 7.491509 | 2.0 | 8.429 | 2 | 34.463 | 8.651 | 32.514 | 2 |
| 2025-04-15T11:49:00 | 54.552325 | 7.488686 | 2.0 | 8.368 | 2 | 34.522 | 8.625 | 32.599 | 2 |
| 2025-04-15T11:50:00 | 54.553212 | 7.485908 | 2.0 | 8.330 | 2 | 34.459 | 8.569 | 32.585 | 2 |
| 2025-04-15T11:51:00 | 54.554306 | 7.483144 | 2.0 | 8.290 | 2 | 34.509 | 8.523 | 32.680 | 2 |
| 2025-04-15T11:52:00 | 54.555419 | 7.480311 | 2.0 | 8.275 | 2 | 34.486 | 8.496 | 32.681 | 2 |
| 2025-04-15T11:53:00 | 54.556742 | 7.477770 | 2.0 | 8.224 | 2 | 34.512 | 8.465 | 32.737 | 2 |
| 2025-04-15T11:54:00 | 54.558141 | 7.475243 | 2.0 | 8.212 | 2 | 34.479 | 8.425 | 32.739 | 2 |
| 2025-04-15T11:55:00 | 54.559570 | 7.472626 | 2.0 | 8.156 | 2 | 34.356 | 8.411 | 32.623 | 2 |
| 2025-04-15T11:56:00 | 54.561015 | 7.469974 | 2.0 | 8.164 | 2 | 34.484 | 8.355 | 32.810 | 2 |
| 2025-04-15T11:57:00 | 54.562669 | 7.466900 | 2.0 | 8.203 | 2 | 34.465 | 8.370 | 32.776 | 2 |
| 2025-04-15T11:58:00 | 54.564553 | 7.463390 | 2.0 | 8.253 | 2 | 34.436 | 8.403 | 32.714 | 2 |
| 2025-04-15T11:59:00 | 54.566519 | 7.459772 | 2.0 | 8.337 | 2 | 34.413 | 8.459 | 32.638 | 2 |
| 2025-04-15T12:00:00 | 54.568518 | 7.456106 | 2.0 | 8.428 | 2 | 34.433 | 8.545 | 32.580 | 2 |
| 2025-04-15T12:01:00 | 54.570518 | 7.452416 | 2.0 | 8.459 | 2 | 34.504 | 8.622 | 32.583 | 2 |
| 2025-04-15T12:02:00 | 54.572535 | 7.448702 | 2.0 | 8.445 | 2 | 34.520 | 8.651 | 32.573 | 2 |
| 2025-04-15T12:03:00 | 54.574536 | 7.445014 | 2.0 | 8.433 | 2 | 34.526 | 8.641 | 32.589 | 2 |
| 2025-04-15T12:04:00 | 54.576541 | 7.441281 | 2.0 | 8.409 | 2 | 34.546 | 8.619 | 32.630 | 2 |
| 2025-04-15T12:05:00 | 54.578544 | 7.437560 | 2.0 | 8.388 | 2 | 34.593 | 8.598 | 32.699 | 2 |
| 2025-04-15T12:06:00 | 54.580549 | 7.433821 | 2.0 | 8.387 | 2 | 34.716 | 8.579 | 32.846 | 2 |
| 2025-04-15T12:07:00 | 54.582558 | 7.430071 | 2.0 | 8.398 | 2 | 34.735 | 8.582 | 32.863 | 2 |
| 2025-04-15T12:08:00 | 54.584575 | 7.426306 | 2.0 | 8.395 | 2 | 34.753 | 8.590 | 32.874 | 2 |
| 2025-04-15T12:09:00 | 54.586594 | 7.422513 | 2.0 | 8.343 | 2 | 34.767 | 8.573 | 32.905 | 2 |
| 2025-04-15T12:10:00 | 54.588602 | 7.418718 | 2.0 | 8.362 | 2 | 34.757 | 8.542 | 32.923 | 2 |
| 2025-04-15T12:11:00 | 54.590493 | 7.414797 | 2.0 | 8.391 | 2 | 34.779 | 8.559 | 32.930 | 2 |
| 2025-04-15T12:12:00 | 54.592175 | 7.410621 | 2.0 | 8.398 | 2 | 34.810 | 8.582 | 32.942 | 2 |
| 2025-04-15T12:13:00 | 54.593881 | 7.406454 | 2.0 | 8.405 | 2 | 34.834 | 8.588 | 32.961 | 2 |
| 2025-04-15T12:14:00 | 54.595688 | 7.402382 | 2.0 | 8.412 | 2 | 34.852 | 8.595 | 32.974 | 2 |
| 2025-04-15T12:15:00 | 54.597527 | 7.398320 | 2.0 | 8.367 | 2 | 34.864 | 8.597 | 32.984 | 2 |
| 2025-04-15T12:16:00 | 54.599356 | 7.394275 | 2.0 | 8.316 | 2 | 34.857 | 8.548 | 33.023 | 2 |
| 2025-04-15T12:17:00 | 54.601185 | 7.390236 | 2.0 | 8.296 | 2 | 34.843 | 8.505 | 33.048 | 2 |
| 2025-04-15T12:18:00 | 54.603029 | 7.386189 | 2.0 | 8.291 | 2 | 34.843 | 8.489 | 33.063 | 2 |
| 2025-04-15T12:19:00 | 54.604867 | 7.382154 | 2.0 | 8.301 | 2 | 34.853 | 8.483 | 33.079 | 2 |
| 2025-04-15T12:20:00 | 54.606711 | 7.378136 | 2.0 | 8.261 | 2 | 34.873 | 8.483 | 33.101 | 2 |
| 2025-04-15T12:21:00 | 54.608550 | 7.374131 | 2.0 | 8.233 | 2 | 34.872 | 8.445 | 33.135 | 2 |
| 2025-04-15T12:22:00 | 54.610391 | 7.370119 | 2.0 | 8.224 | 2 | 34.869 | 8.423 | 33.153 | 2 |
| 2025-04-15T12:23:00 | 54.612225 | 7.366100 | 2.0 | 8.227 | 2 | 34.878 | 8.416 | 33.169 | 2 |
| 2025-04-15T12:24:00 | 54.613957 | 7.361967 | 2.0 | 8.246 | 2 | 34.891 | 8.417 | 33.182 | 2 |
| 2025-04-15T12:25:00 | 54.615680 | 7.357840 | 2.0 | 8.261 | 2 | 34.919 | 8.437 | 33.192 | 2 |
| 2025-04-15T12:26:00 | 54.617426 | 7.353671 | 2.0 | 8.265 | 2 | 34.933 | 8.451 | 33.194 | 2 |
| 2025-04-15T12:27:00 | 54.619165 | 7.349439 | 2.0 | 8.114 | 2 | 34.917 | 8.417 | 33.209 | 2 |
| 2025-04-15T12:28:00 | 54.620905 | 7.345158 | 2.0 | 7.848 | 2 | 34.821 | 8.265 | 33.251 | 2 |
| 2025-04-15T12:29:00 | 54.622682 | 7.340912 | 2.0 | 7.816 | 2 | 34.641 | 8.032 | 33.281 | 2 |
| 2025-04-15T12:30:00 | 54.624464 | 7.336697 | 2.0 | 7.858 | 2 | 34.588 | 8.016 | 33.239 | 2 |
| 2025-04-15T12:31:00 | 54.626270 | 7.332454 | 2.0 | 7.870 | 2 | 34.606 | 8.051 | 33.225 | 2 |
| 2025-04-15T12:32:00 | 54.628076 | 7.328233 | 2.0 | 7.884 | 2 | 34.621 | 8.065 | 33.228 | 2 |
| 2025-04-15T12:33:00 | 54.629886 | 7.324048 | 2.0 | 7.924 | 2 | 34.629 | 8.077 | 33.225 | 2 |
| 2025-04-15T12:34:00 | 54.631704 | 7.319867 | 2.0 | 7.993 | 2 | 34.659 | 8.122 | 33.214 | 2 |
| 2025-04-15T12:35:00 | 54.633528 | 7.315694 | 2.0 | 8.160 | 2 | 34.705 | 8.205 | 33.185 | 2 |
| 2025-04-15T12:36:00 | 54.635348 | 7.311549 | 2.0 | 8.207 | 2 | 34.774 | 8.338 | 33.132 | 2 |
| 2025-04-15T12:37:00 | 54.637152 | 7.307430 | 2.0 | 8.221 | 2 | 34.804 | 8.393 | 33.112 | 2 |
| 2025-04-15T12:38:00 | 54.638939 | 7.303299 | 2.0 | 8.252 | 2 | 34.803 | 8.409 | 33.096 | 2 |
| 2025-04-15T12:39:00 | 54.640717 | 7.299178 | 2.0 | 8.265 | 2 | 34.811 | 8.433 | 33.082 | 2 |
| 2025-04-15T12:40:00 | 54.642512 | 7.295033 | 2.0 | 8.263 | 2 | 34.816 | 8.444 | 33.077 | 2 |
| 2025-04-15T12:41:00 | 54.644309 | 7.290885 | 2.0 | 8.264 | 2 | 34.806 | 8.443 | 33.067 | 2 |
| 2025-04-15T12:42:00 | 54.646118 | 7.286730 | 2.0 | 8.277 | 2 | 34.801 | 8.450 | 33.056 | 2 |
| 2025-04-15T12:43:00 | 54.647939 | 7.282561 | 2.0 | 8.296 | 2 | 34.797 | 8.460 | 33.042 | 2 |
| 2025-04-15T12:44:00 | 54.649760 | 7.278374 | 2.0 | 8.332 | 2 | 34.801 | 8.482 | 33.026 | 2 |
| 2025-04-15T12:45:00 | 54.651584 | 7.274203 | 2.0 | 8.375 | 2 | 34.827 | 8.523 | 33.015 | 2 |
| 2025-04-15T12:46:00 | 54.653413 | 7.270021 | 2.0 | 8.402 | 2 | 34.855 | 8.558 | 33.011 | 2 |
| 2025-04-15T12:47:00 | 54.655247 | 7.265834 | 2.0 | 8.426 | 2 | 34.875 | 8.583 | 33.009 | 2 |
| 2025-04-15T12:48:00 | 54.657086 | 7.261619 | 2.0 | 8.444 | 2 | 34.903 | 8.611 | 33.012 | 2 |
| 2025-04-15T12:49:00 | 54.658936 | 7.257401 | 2.0 | 8.463 | 2 | 34.921 | 8.627 | 33.016 | 2 |
| 2025-04-15T12:50:00 | 54.660784 | 7.253181 | 2.0 | 8.477 | 2 | 34.468 | 8.646 | 32.523 | 2 |
| 2025-04-15T12:51:00 | 54.662619 | 7.248973 | 2.0 | 8.477 | 2 | 34.973 | 8.659 | 33.041 | 2 |
| 2025-04-15T12:52:00 | 54.664447 | 7.244723 | 2.0 | 8.508 | 2 | 34.983 | 8.667 | 33.044 | 2 |
| 2025-04-15T12:53:00 | 54.666270 | 7.240477 | 2.0 | 8.549 | 2 | 35.003 | 8.697 | 33.037 | 2 |
| 2025-04-15T12:54:00 | 54.668093 | 7.236206 | 2.0 | 8.520 | 2 | 35.039 | 8.725 | 33.048 | 2 |
| 2025-04-15T12:55:00 | 54.669926 | 7.231936 | 2.0 | 8.526 | 2 | 35.039 | 8.702 | 33.070 | 2 |
| 2025-04-15T12:56:00 | 54.671720 | 7.227743 | 2.0 | 8.542 | 2 | 35.043 | 8.709 | 33.068 | 2 |
| 2025-04-15T12:57:00 | 54.673204 | 7.224318 | 2.0 | 8.560 | 2 | 35.052 | 8.722 | 33.065 | 2 |
| 2025-04-15T12:58:00 | 54.674448 | 7.221439 | 2.0 | 8.563 | 2 | 35.063 | 8.737 | 33.062 | 2 |
| 2025-04-15T12:59:00 | 54.675570 | 7.218827 | 2.0 | 8.569 | 2 | 35.075 | 8.744 | 33.068 | 2 |
| 2025-04-15T13:00:00 | 54.676629 | 7.216341 | 2.0 | 8.566 | 2 | 35.091 | 8.752 | 33.078 | 2 |
| 2025-04-15T13:01:00 | 54.677813 | 7.214286 | 2.0 | 8.557 | 2 | 35.092 | 8.739 | 33.091 | 2 |
| 2025-04-15T13:02:00 | 54.679056 | 7.214141 | 2.0 | 8.577 | 2 | 35.099 | 8.741 | 33.096 | 2 |
| 2025-04-15T13:03:00 | 54.679782 | 7.214670 | 2.0 | 8.569 | 2 | 35.108 | 8.748 | 33.099 | 2 |
| 2025-04-15T13:04:00 | 54.680262 | 7.215099 | 2.0 | 8.562 | 2 | 35.103 | 8.744 | 33.098 | 2 |
| 2025-04-15T13:05:00 | 54.680660 | 7.215321 | 2.0 | 8.573 | 2 | 35.096 | 8.743 | 33.091 | 2 |
| 2025-04-15T13:06:00 | 54.680988 | 7.215379 | 2.0 | 8.582 | 2 | 35.099 | 8.751 | 33.087 | 2 |
| 2025-04-15T13:07:00 | 54.681283 | 7.215302 | 2.0 | 8.589 | 2 | 35.104 | 8.760 | 33.084 | 2 |
| 2025-04-15T13:08:00 | 54.681608 | 7.215120 | 2.0 | 8.594 | 2 | 35.109 | 8.766 | 33.083 | 2 |
| 2025-04-15T13:09:00 | 54.681889 | 7.214946 | 2.0 | 8.599 | 2 | 35.113 | 8.771 | 33.083 | 2 |
| 2025-04-15T13:10:00 | 54.682118 | 7.214625 | 2.0 | 8.601 | 2 | 35.117 | 8.776 | 33.082 | 2 |
| 2025-04-15T13:11:00 | 54.682398 | 7.214499 | 2.0 | 8.600 | 2 | 35.120 | 8.778 | 33.084 | 2 |
| 2025-04-15T13:12:00 | 54.682605 | 7.214225 | 2.0 | 8.603 | 2 | 35.121 | 8.779 | 33.084 | 2 |
| 2025-04-15T13:13:00 | 54.682771 | 7.213818 | 2.0 | 8.611 | 2 | 35.122 | 8.779 | 33.085 | 2 |
| 2025-04-15T13:14:00 | 54.682939 | 7.213393 | 2.0 | 8.602 | 2 | 35.130 | 8.787 | 33.086 | 2 |
| 2025-04-15T13:15:00 | 54.683098 | 7.212910 | 2.0 | 8.595 | 2 | 35.126 | 8.779 | 33.089 | 2 |
| 2025-04-15T13:16:00 | 54.683339 | 7.212499 | 2.0 | 8.600 | 2 | 35.119 | 8.769 | 33.091 | 2 |
| 2025-04-15T13:17:00 | 54.683670 | 7.212315 | 2.0 | 8.612 | 2 | 35.125 | 8.777 | 33.090 | 2 |
| 2025-04-15T13:18:00 | 54.683830 | 7.212430 | 2.0 | 8.612 | 2 | 35.135 | 8.788 | 33.090 | 2 |
| 2025-04-15T13:19:00 | 54.683931 | 7.212961 | 2.0 | 8.615 | 2 | 35.136 | 8.787 | 33.092 | 2 |
| 2025-04-15T13:20:00 | 54.684068 | 7.213588 | 2.0 | 8.609 | 2 | 35.140 | 8.790 | 33.093 | 2 |
| 2025-04-15T13:21:00 | 54.684199 | 7.214260 | 2.0 | 8.605 | 2 | 35.133 | 8.784 | 33.092 | 2 |
| 2025-04-15T13:22:00 | 54.684317 | 7.215678 | 2.0 | 8.610 | 2 | 35.126 | 8.784 | 33.084 | 2 |
| 2025-04-15T13:23:00 | 54.684678 | 7.217544 | 2.0 | 8.607 | 2 | 35.124 | 8.787 | 33.080 | 2 |
| 2025-04-15T13:24:00 | 54.684976 | 7.219457 | 2.0 | 8.604 | 2 | 35.108 | 8.785 | 33.065 | 2 |
| 2025-04-15T13:25:00 | 54.685219 | 7.221412 | 2.0 | 8.624 | 2 | 35.092 | 8.779 | 33.054 | 2 |
| 2025-04-15T13:26:00 | 54.685465 | 7.223374 | 2.0 | 8.602 | 2 | 35.102 | 8.798 | 33.046 | 2 |
| 2025-04-15T13:27:00 | 54.685949 | 7.225075 | 2.0 | 8.597 | 2 | 35.083 | 8.785 | 33.038 | 2 |
| 2025-04-15T13:28:00 | 54.686782 | 7.226464 | 2.0 | 8.585 | 2 | 35.062 | 8.776 | 33.025 | 2 |
| 2025-04-15T13:29:00 | 54.687550 | 7.228064 | 2.0 | 8.558 | 2 | 35.030 | 8.757 | 33.009 | 2 |
| 2025-04-15T13:30:00 | 54.688202 | 7.229814 | 2.0 | 8.553 | 2 | 34.999 | 8.735 | 32.997 | 2 |
| 2025-04-15T13:31:00 | 54.688850 | 7.231597 | 2.0 | 8.546 | 2 | 34.977 | 8.728 | 32.981 | 2 |
| 2025-04-15T13:32:00 | 54.689597 | 7.233309 | 2.0 | 8.551 | 2 | 34.957 | 8.724 | 32.963 | 2 |
| 2025-04-15T13:33:00 | 54.690297 | 7.235088 | 2.0 | 8.564 | 2 | 34.951 | 8.730 | 32.952 | 2 |
| 2025-04-15T13:34:00 | 54.691076 | 7.236839 | 2.0 | 8.548 | 2 | 34.944 | 8.735 | 32.940 | 2 |
| 2025-04-15T13:35:00 | 54.691831 | 7.238617 | 2.0 | 8.530 | 2 | 34.921 | 8.723 | 32.927 | 2 |
| 2025-04-15T13:36:00 | 54.692543 | 7.240405 | 2.0 | 8.449 | 2 | 34.885 | 8.682 | 32.927 | 2 |
| 2025-04-15T13:37:00 | 54.693249 | 7.242178 | 2.0 | 8.413 | 2 | 34.852 | 8.640 | 32.932 | 2 |
| 2025-04-15T13:38:00 | 54.694005 | 7.243909 | 2.0 | 8.418 | 2 | 34.813 | 8.588 | 32.939 | 2 |
| 2025-04-15T13:39:00 | 54.694790 | 7.245623 | 2.0 | 8.453 | 2 | 34.838 | 8.621 | 32.935 | 2 |
| 2025-04-15T13:40:00 | 54.695556 | 7.247351 | 2.0 | 8.389 | 2 | 34.839 | 8.608 | 32.948 | 2 |
| 2025-04-15T13:41:00 | 54.696289 | 7.249071 | 2.0 | 8.335 | 2 | 34.809 | 8.568 | 32.954 | 2 |
| 2025-04-15T13:42:00 | 54.696995 | 7.250778 | 2.0 | 8.257 | 2 | 34.767 | 8.493 | 32.979 | 2 |
| 2025-04-15T13:43:00 | 54.697686 | 7.252459 | 2.0 | 8.284 | 2 | 34.714 | 8.442 | 32.971 | 2 |
| 2025-04-15T13:44:00 | 54.698381 | 7.254139 | 2.0 | 8.307 | 2 | 34.724 | 8.469 | 32.957 | 2 |
| 2025-04-15T13:45:00 | 54.699103 | 7.255804 | 2.0 | 8.341 | 2 | 34.721 | 8.489 | 32.935 | 2 |
| 2025-04-15T13:46:00 | 54.699868 | 7.257454 | 2.0 | 8.347 | 2 | 34.723 | 8.520 | 32.908 | 2 |
| 2025-04-15T13:47:00 | 54.700647 | 7.259087 | 2.0 | 8.335 | 2 | 34.712 | 8.521 | 32.895 | 2 |
| 2025-04-15T13:48:00 | 54.701405 | 7.260745 | 2.0 | 8.343 | 2 | 34.687 | 8.511 | 32.878 | 2 |
| 2025-04-15T13:49:00 | 54.702165 | 7.262409 | 2.0 | 8.338 | 2 | 34.674 | 8.520 | 32.856 | 2 |
| 2025-04-15T13:50:00 | 54.702883 | 7.264085 | 2.0 | 8.355 | 2 | 34.660 | 8.515 | 32.846 | 2 |
| 2025-04-15T13:51:00 | 54.703646 | 7.265765 | 2.0 | 8.369 | 2 | 34.657 | 8.530 | 32.829 | 2 |
| 2025-04-15T13:52:00 | 54.704674 | 7.267037 | 2.0 | 8.379 | 2 | 34.655 | 8.543 | 32.815 | 2 |
| 2025-04-15T13:53:00 | 54.705978 | 7.267697 | 2.0 | 8.339 | 2 | 34.652 | 8.549 | 32.806 | 2 |
| 2025-04-15T13:54:00 | 54.707271 | 7.268337 | 2.0 | 8.347 | 2 | 34.635 | 8.522 | 32.813 | 2 |
| 2025-04-15T13:55:00 | 54.708464 | 7.269072 | 2.0 | 8.328 | 2 | 34.626 | 8.518 | 32.808 | 2 |
| 2025-04-15T13:56:00 | 54.709205 | 7.270408 | 2.0 | 8.319 | 2 | 34.610 | 8.505 | 32.803 | 2 |
| 2025-04-15T13:57:00 | 54.709181 | 7.272084 | 2.0 | 8.307 | 2 | 34.592 | 8.492 | 32.796 | 2 |
| 2025-04-15T13:58:00 | 54.708315 | 7.273354 | 2.0 | 8.324 | 2 | 34.582 | 8.488 | 32.789 | 2 |
| 2025-04-15T13:59:00 | 54.707027 | 7.273633 | 2.0 | 8.317 | 2 | 34.587 | 8.499 | 32.784 | 2 |
| 2025-04-15T14:00:00 | 54.705869 | 7.272541 | 2.0 | 8.341 | 2 | 34.591 | 8.498 | 32.789 | 2 |
| 2025-04-15T14:01:00 | 54.704912 | 7.270871 | 2.0 | 8.359 | 2 | 34.618 | 8.521 | 32.796 | 2 |
| 2025-04-15T14:02:00 | 54.704092 | 7.269109 | 2.0 | 8.357 | 2 | 34.633 | 8.534 | 32.800 | 2 |
| 2025-04-15T14:03:00 | 54.703401 | 7.267340 | 2.0 | 8.369 | 2 | 34.644 | 8.533 | 32.813 | 2 |
| 2025-04-15T14:04:00 | 54.702697 | 7.265770 | 2.0 | 8.368 | 2 | 34.665 | 8.549 | 32.820 | 2 |
| 2025-04-15T14:05:00 | 54.702031 | 7.264128 | 2.0 | 8.347 | 2 | 34.668 | 8.544 | 32.828 | 2 |
| 2025-04-15T14:06:00 | 54.701332 | 7.262463 | 2.0 | 8.366 | 2 | 34.665 | 8.529 | 32.838 | 2 |
| 2025-04-15T14:07:00 | 54.700596 | 7.260812 | 2.0 | 8.337 | 2 | 34.693 | 8.539 | 32.859 | 2 |
| 2025-04-15T14:08:00 | 54.699839 | 7.259167 | 2.0 | 8.313 | 2 | 34.698 | 8.512 | 32.889 | 2 |
| 2025-04-15T14:09:00 | 54.699076 | 7.257464 | 2.0 | 8.281 | 2 | 34.700 | 8.485 | 32.916 | 2 |
| 2025-04-15T14:10:00 | 54.698326 | 7.255713 | 2.0 | 8.285 | 2 | 34.693 | 8.458 | 32.934 | 2 |
| 2025-04-15T14:11:00 | 54.697587 | 7.253948 | 2.0 | 8.319 | 2 | 34.627 | 8.462 | 32.861 | 2 |
| 2025-04-15T14:12:00 | 54.696838 | 7.252176 | 2.0 | 8.427 | 2 | 34.762 | 8.513 | 32.955 | 2 |
| 2025-04-15T14:13:00 | 54.696092 | 7.250426 | 2.0 | 8.483 | 2 | 34.835 | 8.615 | 32.937 | 2 |
| 2025-04-15T14:14:00 | 54.695325 | 7.248732 | 2.0 | 8.478 | 2 | 34.829 | 8.652 | 32.896 | 2 |
| 2025-04-15T14:15:00 | 54.694561 | 7.247021 | 2.0 | 8.471 | 2 | 34.817 | 8.649 | 32.886 | 2 |
| 2025-04-15T14:16:00 | 54.693804 | 7.245282 | 2.0 | 8.460 | 2 | 34.823 | 8.645 | 32.897 | 2 |
| 2025-04-15T14:17:00 | 54.693053 | 7.243536 | 2.0 | 8.456 | 2 | 34.805 | 8.634 | 32.888 | 2 |
| 2025-04-15T14:18:00 | 54.692307 | 7.241769 | 2.0 | 8.493 | 2 | 34.838 | 8.637 | 32.920 | 2 |
| 2025-04-15T14:19:00 | 54.691547 | 7.240079 | 2.0 | 8.539 | 2 | 34.879 | 8.674 | 32.928 | 2 |
| 2025-04-15T14:20:00 | 54.690778 | 7.238404 | 2.0 | 8.590 | 2 | 34.928 | 8.715 | 32.941 | 2 |
| 2025-04-15T14:21:00 | 54.690018 | 7.236669 | 2.0 | 8.590 | 2 | 34.976 | 8.762 | 32.948 | 2 |
| 2025-04-15T14:22:00 | 54.689260 | 7.234900 | 2.0 | 8.571 | 2 | 34.971 | 8.756 | 32.948 | 2 |
| 2025-04-15T14:23:00 | 54.688504 | 7.233099 | 2.0 | 8.617 | 2 | 34.978 | 8.756 | 32.956 | 2 |
| 2025-04-15T14:24:00 | 54.687747 | 7.231301 | 2.0 | 8.616 | 2 | 35.012 | 8.786 | 32.963 | 2 |
| 2025-04-15T14:25:00 | 54.686982 | 7.229553 | 2.0 | 8.618 | 2 | 35.026 | 8.788 | 32.976 | 2 |
| 2025-04-15T14:26:00 | 54.686197 | 7.227859 | 2.0 | 8.628 | 2 | 35.041 | 8.787 | 32.993 | 2 |
| 2025-04-15T14:27:00 | 54.685423 | 7.226146 | 2.0 | 8.628 | 2 | 35.053 | 8.798 | 32.995 | 2 |
| 2025-04-15T14:28:00 | 54.684682 | 7.224369 | 2.0 | 8.629 | 2 | 35.078 | 8.811 | 33.009 | 2 |
| 2025-04-15T14:29:00 | 54.684380 | 7.222145 | 2.0 | 8.628 | 2 | 35.079 | 8.803 | 33.018 | 2 |
| 2025-04-15T14:30:00 | 54.684571 | 7.219667 | 2.0 | 8.631 | 2 | 34.960 | 8.800 | 32.896 | 2 |
| 2025-04-15T14:31:00 | 54.684536 | 7.217279 | 2.0 | 8.625 | 2 | 35.055 | 8.802 | 32.993 | 2 |
| 2025-04-15T14:32:00 | 54.683906 | 7.215861 | 2.0 | 8.616 | 2 | 34.999 | 8.801 | 32.936 | 2 |
| 2025-04-15T14:33:00 | 54.683038 | 7.215714 | 2.0 | 8.632 | 2 | 35.028 | 8.792 | 32.974 | 2 |
| 2025-04-15T14:34:00 | 54.682316 | 7.216734 | 2.0 | 8.637 | 2 | 35.061 | 8.800 | 33.001 | 2 |
| 2025-04-15T14:35:00 | 54.682013 | 7.218528 | 2.0 | 8.661 | 2 | 35.065 | 8.814 | 32.993 | 2 |
| 2025-04-15T14:36:00 | 54.682463 | 7.220324 | 2.0 | 8.649 | 2 | 35.080 | 8.829 | 32.994 | 2 |
| 2025-04-15T14:37:00 | 54.683145 | 7.222028 | 2.0 | 8.627 | 2 | 35.060 | 8.819 | 32.983 | 2 |
| 2025-04-15T14:38:00 | 54.683735 | 7.223803 | 2.0 | 8.627 | 2 | 35.051 | 8.804 | 32.987 | 2 |
| 2025-04-15T14:39:00 | 54.684425 | 7.225565 | 2.0 | 8.626 | 2 | 35.037 | 8.804 | 32.973 | 2 |
| 2025-04-15T14:40:00 | 54.685161 | 7.227329 | 2.0 | 8.632 | 2 | 35.028 | 8.799 | 32.968 | 2 |
| 2025-04-15T14:41:00 | 54.685894 | 7.229125 | 2.0 | 8.619 | 2 | 35.024 | 8.802 | 32.961 | 2 |
| 2025-04-15T14:42:00 | 54.686647 | 7.230935 | 2.0 | 8.589 | 2 | 35.017 | 8.790 | 32.965 | 2 |
| 2025-04-15T14:43:00 | 54.687426 | 7.232689 | 2.0 | 8.594 | 2 | 34.960 | 8.769 | 32.925 | 2 |
| 2025-04-15T14:44:00 | 54.688191 | 7.234384 | 2.0 | 8.566 | 2 | 34.992 | 8.765 | 32.962 | 2 |
| 2025-04-15T14:45:00 | 54.688949 | 7.236044 | 2.0 | 8.572 | 2 | 34.952 | 8.745 | 32.939 | 2 |
| 2025-04-15T14:46:00 | 54.689687 | 7.237682 | 2.0 | 8.564 | 2 | 34.956 | 8.742 | 32.946 | 2 |
| 2025-04-15T14:47:00 | 54.690402 | 7.239318 | 2.0 | 8.554 | 2 | 34.939 | 8.738 | 32.932 | 2 |
| 2025-04-15T14:48:00 | 54.691092 | 7.240960 | 2.0 | 8.558 | 2 | 34.925 | 8.729 | 32.925 | 2 |
| 2025-04-15T14:49:00 | 54.691786 | 7.242590 | 2.0 | 8.554 | 2 | 34.921 | 8.727 | 32.923 | 2 |
| 2025-04-15T14:50:00 | 54.692496 | 7.244203 | 2.0 | 8.546 | 2 | 34.928 | 8.728 | 32.929 | 2 |
| 2025-04-15T14:51:00 | 54.693218 | 7.245837 | 2.0 | 8.529 | 2 | 34.918 | 8.721 | 32.925 | 2 |
| 2025-04-15T14:52:00 | 54.693984 | 7.247564 | 2.0 | 8.521 | 2 | 34.907 | 8.704 | 32.930 | 2 |
| 2025-04-15T14:53:00 | 54.694761 | 7.249343 | 2.0 | 8.528 | 2 | 34.898 | 8.696 | 32.928 | 2 |
| 2025-04-15T14:54:00 | 54.695531 | 7.251098 | 2.0 | 8.519 | 2 | 34.909 | 8.700 | 32.935 | 2 |
| 2025-04-15T14:55:00 | 54.696276 | 7.252847 | 2.0 | 8.506 | 2 | 34.909 | 8.690 | 32.945 | 2 |
| 2025-04-15T14:56:00 | 54.697020 | 7.254590 | 2.0 | 8.487 | 2 | 34.909 | 8.676 | 32.958 | 2 |
| 2025-04-15T14:57:00 | 54.697772 | 7.256304 | 2.0 | 8.468 | 2 | 34.906 | 8.662 | 32.968 | 2 |
| 2025-04-15T14:58:00 | 54.698552 | 7.258001 | 2.0 | 8.374 | 2 | 34.895 | 8.630 | 32.986 | 2 |
| 2025-04-15T14:59:00 | 54.699340 | 7.259679 | 2.0 | 8.328 | 2 | 34.826 | 8.545 | 32.993 | 2 |
| 2025-04-15T15:00:00 | 54.700071 | 7.261358 | 2.0 | 8.312 | 2 | 34.762 | 8.500 | 32.968 | 2 |
| 2025-04-15T15:01:00 | 54.700779 | 7.263022 | 2.0 | 8.297 | 2 | 34.727 | 8.487 | 32.943 | 2 |
| 2025-04-15T15:02:00 | 54.701507 | 7.264689 | 2.0 | 8.294 | 2 | 34.697 | 8.473 | 32.924 | 2 |
| 2025-04-15T15:03:00 | 54.702234 | 7.266360 | 2.0 | 8.278 | 2 | 34.670 | 8.465 | 32.903 | 2 |
| 2025-04-15T15:04:00 | 54.703034 | 7.267954 | 2.0 | 8.288 | 2 | 34.641 | 8.456 | 32.881 | 2 |
| 2025-04-15T15:05:00 | 54.704105 | 7.269246 | 2.0 | 8.264 | 2 | 34.627 | 8.459 | 32.864 | 2 |
| 2025-04-15T15:06:00 | 54.705379 | 7.270153 | 2.0 | 8.255 | 2 | 34.587 | 8.438 | 32.841 | 2 |
| 2025-04-15T15:07:00 | 54.706636 | 7.271010 | 2.0 | 8.280 | 2 | 34.578 | 8.441 | 32.829 | 2 |
| 2025-04-15T15:08:00 | 54.707310 | 7.272470 | 2.0 | 8.293 | 2 | 34.582 | 8.458 | 32.817 | 2 |
| 2025-04-15T15:09:00 | 54.707125 | 7.274109 | 2.0 | 8.297 | 2 | 34.581 | 8.464 | 32.811 | 2 |
| 2025-04-15T15:10:00 | 54.706081 | 7.275244 | 2.0 | 8.281 | 2 | 34.583 | 8.469 | 32.808 | 2 |
| 2025-04-15T15:11:00 | 54.704666 | 7.274868 | 2.0 | 8.286 | 2 | 34.584 | 8.460 | 32.817 | 2 |
| 2025-04-15T15:12:00 | 54.703744 | 7.272931 | 2.0 | 8.254 | 2 | 34.591 | 8.455 | 32.829 | 2 |
| 2025-04-15T15:13:00 | 54.703004 | 7.271043 | 2.0 | 8.243 | 2 | 34.581 | 8.428 | 32.844 | 2 |
| 2025-04-15T15:14:00 | 54.702363 | 7.269283 | 2.0 | 8.246 | 2 | 34.583 | 8.417 | 32.856 | 2 |
| 2025-04-15T15:15:00 | 54.701761 | 7.267607 | 2.0 | 8.239 | 2 | 34.593 | 8.417 | 32.867 | 2 |
| 2025-04-15T15:16:00 | 54.701108 | 7.265996 | 2.0 | 8.269 | 2 | 34.604 | 8.417 | 32.879 | 2 |
| 2025-04-15T15:17:00 | 54.700465 | 7.264261 | 2.0 | 8.309 | 2 | 34.639 | 8.450 | 32.885 | 2 |
| 2025-04-15T15:18:00 | 54.699788 | 7.262520 | 2.0 | 8.323 | 2 | 34.684 | 8.487 | 32.898 | 2 |
| 2025-04-15T15:19:00 | 54.699078 | 7.260827 | 2.0 | 8.324 | 2 | 34.709 | 8.495 | 32.916 | 2 |
| 2025-04-15T15:20:00 | 54.698356 | 7.259213 | 2.0 | 8.318 | 2 | 34.731 | 8.498 | 32.937 | 2 |
| 2025-04-15T15:21:00 | 54.697614 | 7.257627 | 2.0 | 8.478 | 2 | 34.776 | 8.526 | 32.958 | 2 |
| 2025-04-15T15:22:00 | 54.696858 | 7.256098 | 2.0 | 8.487 | 2 | 34.904 | 8.635 | 32.991 | 2 |
| 2025-04-15T15:23:00 | 54.696101 | 7.254542 | 2.0 | 8.511 | 2 | 34.916 | 8.662 | 32.978 | 2 |
| 2025-04-15T15:24:00 | 54.695367 | 7.252893 | 2.0 | 8.492 | 2 | 34.914 | 8.677 | 32.962 | 2 |
| 2025-04-15T15:25:00 | 54.694656 | 7.251166 | 2.0 | 8.499 | 2 | 34.886 | 8.660 | 32.949 | 2 |
| 2025-04-15T15:26:00 | 54.693948 | 7.249403 | 2.0 | 8.506 | 2 | 34.889 | 8.674 | 32.939 | 2 |
| 2025-04-15T15:27:00 | 54.693217 | 7.247667 | 2.0 | 8.492 | 2 | 34.891 | 8.675 | 32.940 | 2 |
| 2025-04-15T15:28:00 | 54.692467 | 7.245943 | 2.0 | 8.537 | 2 | 34.890 | 8.673 | 32.941 | 2 |
| 2025-04-15T15:29:00 | 54.691714 | 7.244199 | 2.0 | 8.552 | 2 | 34.919 | 8.705 | 32.941 | 2 |
| 2025-04-15T15:30:00 | 54.690965 | 7.242455 | 2.0 | 8.583 | 2 | 34.938 | 8.726 | 32.942 | 2 |
| 2025-04-15T15:31:00 | 54.690196 | 7.240740 | 2.0 | 8.614 | 2 | 34.968 | 8.759 | 32.942 | 2 |
| 2025-04-15T15:32:00 | 54.689427 | 7.239027 | 2.0 | 8.618 | 2 | 34.996 | 8.785 | 32.947 | 2 |
| 2025-04-15T15:33:00 | 54.688656 | 7.237314 | 2.0 | 8.606 | 2 | 35.006 | 8.786 | 32.957 | 2 |
| 2025-04-15T15:34:00 | 54.687901 | 7.235558 | 2.0 | 8.599 | 2 | 35.005 | 8.777 | 32.964 | 2 |
| 2025-04-15T15:35:00 | 54.687159 | 7.233775 | 2.0 | 8.601 | 2 | 35.012 | 8.775 | 32.974 | 2 |
| 2025-04-15T15:36:00 | 54.686420 | 7.232020 | 2.0 | 8.590 | 2 | 35.018 | 8.769 | 32.985 | 2 |
| 2025-04-15T15:37:00 | 54.685658 | 7.230296 | 2.0 | 8.584 | 2 | 35.020 | 8.762 | 32.994 | 2 |
| 2025-04-15T15:38:00 | 54.684890 | 7.228589 | 2.0 | 8.579 | 2 | 35.025 | 8.756 | 33.005 | 2 |
| 2025-04-15T15:39:00 | 54.684110 | 7.226883 | 2.0 | 8.573 | 2 | 35.027 | 8.747 | 33.015 | 2 |
| 2025-04-15T15:40:00 | 54.683427 | 7.225016 | 2.0 | 8.562 | 2 | 35.032 | 8.745 | 33.022 | 2 |
| 2025-04-15T15:41:00 | 54.683288 | 7.222549 | 2.0 | 8.574 | 2 | 35.033 | 8.737 | 33.031 | 2 |
| 2025-04-15T15:42:00 | 54.683528 | 7.219919 | 2.0 | 8.562 | 2 | 35.044 | 8.743 | 33.037 | 2 |
| 2025-04-15T15:43:00 | 54.683319 | 7.217689 | 2.0 | 8.582 | 2 | 35.043 | 8.734 | 33.044 | 2 |
| 2025-04-15T15:44:00 | 54.682616 | 7.216607 | 2.0 | 8.614 | 2 | 35.063 | 8.756 | 33.045 | 2 |
| 2025-04-15T15:45:00 | 54.681761 | 7.216795 | 2.0 | 8.652 | 2 | 35.098 | 8.788 | 33.051 | 2 |
| 2025-04-15T15:46:00 | 54.681203 | 7.218093 | 2.0 | 8.662 | 2 | 35.141 | 8.824 | 33.063 | 2 |
| 2025-04-15T15:47:00 | 54.681278 | 7.220040 | 2.0 | 8.638 | 2 | 35.147 | 8.826 | 33.067 | 2 |
| 2025-04-15T15:48:00 | 54.681833 | 7.222066 | 2.0 | 8.596 | 2 | 35.114 | 8.799 | 33.058 | 2 |
| 2025-04-15T15:49:00 | 54.682353 | 7.223963 | 2.0 | 8.570 | 2 | 35.069 | 8.764 | 33.043 | 2 |
| 2025-04-15T15:50:00 | 54.682916 | 7.225668 | 2.0 | 8.543 | 2 | 35.041 | 8.741 | 33.036 | 2 |
| 2025-04-15T15:51:00 | 54.683549 | 7.227331 | 2.0 | 8.554 | 2 | 35.012 | 8.718 | 33.027 | 2 |
| 2025-04-15T15:52:00 | 54.684216 | 7.228989 | 2.0 | 8.556 | 2 | 35.009 | 8.727 | 33.015 | 2 |
| 2025-04-15T15:53:00 | 54.684905 | 7.230678 | 2.0 | 8.551 | 2 | 35.007 | 8.729 | 33.011 | 2 |
| 2025-04-15T15:54:00 | 54.685617 | 7.232372 | 2.0 | 8.555 | 2 | 34.994 | 8.722 | 33.004 | 2 |
| 2025-04-15T15:55:00 | 54.686343 | 7.234075 | 2.0 | 8.551 | 2 | 34.991 | 8.726 | 32.997 | 2 |
| 2025-04-15T15:56:00 | 54.687084 | 7.235777 | 2.0 | 8.548 | 2 | 34.977 | 8.722 | 32.986 | 2 |
| 2025-04-15T15:57:00 | 54.687851 | 7.237507 | 2.0 | 8.538 | 2 | 34.964 | 8.719 | 32.975 | 2 |
| 2025-04-15T15:58:00 | 54.688615 | 7.239263 | 2.0 | 8.524 | 2 | 34.946 | 8.707 | 32.968 | 2 |
| 2025-04-15T15:59:00 | 54.689412 | 7.241002 | 2.0 | 8.518 | 2 | 34.925 | 8.698 | 32.954 | 2 |
| 2025-04-15T16:00:00 | 54.690205 | 7.242743 | 2.0 | 8.471 | 2 | 34.923 | 8.684 | 32.965 | 2 |
| 2025-04-15T16:01:00 | 54.690955 | 7.244508 | 2.0 | 8.456 | 2 | 34.893 | 8.646 | 32.969 | 2 |
| 2025-04-15T16:02:00 | 54.691689 | 7.246259 | 2.0 | 8.452 | 2 | 34.880 | 8.632 | 32.968 | 2 |
| 2025-04-15T16:03:00 | 54.692419 | 7.247995 | 2.0 | 8.412 | 2 | 34.874 | 8.612 | 32.981 | 2 |
| 2025-04-15T16:04:00 | 54.693178 | 7.249701 | 2.0 | 8.410 | 2 | 34.864 | 8.599 | 32.982 | 2 |
| 2025-04-15T16:05:00 | 54.693984 | 7.251373 | 2.0 | 8.271 | 2 | 34.881 | 8.566 | 33.031 | 2 |
| 2025-04-15T16:06:00 | 54.694770 | 7.253070 | 2.0 | 8.165 | 2 | 34.753 | 8.423 | 33.030 | 2 |
| 2025-04-15T16:07:00 | 54.695489 | 7.254766 | 2.0 | 8.130 | 2 | 34.669 | 8.342 | 33.018 | 2 |
| 2025-04-15T16:08:00 | 54.696213 | 7.256494 | 2.0 | 8.109 | 2 | 34.616 | 8.303 | 32.998 | 2 |
| 2025-04-15T16:09:00 | 54.696932 | 7.258226 | 2.0 | 8.078 | 2 | 34.575 | 8.283 | 32.973 | 2 |
| 2025-04-15T16:10:00 | 54.697648 | 7.259949 | 2.0 | 8.068 | 2 | 34.452 | 8.255 | 32.869 | 2 |
| 2025-04-15T16:11:00 | 54.698379 | 7.261656 | 2.0 | 8.079 | 2 | 34.517 | 8.248 | 32.945 | 2 |
| 2025-04-15T16:12:00 | 54.699128 | 7.263335 | 2.0 | 8.057 | 2 | 34.508 | 8.249 | 32.934 | 2 |
| 2025-04-15T16:13:00 | 54.699884 | 7.265050 | 2.0 | 8.083 | 2 | 34.491 | 8.236 | 32.928 | 2 |
| 2025-04-15T16:14:00 | 54.700646 | 7.266762 | 2.0 | 8.100 | 2 | 34.497 | 8.258 | 32.914 | 2 |
| 2025-04-15T16:15:00 | 54.701416 | 7.268451 | 2.0 | 8.130 | 2 | 34.493 | 8.284 | 32.886 | 2 |
| 2025-04-15T16:16:00 | 54.702487 | 7.269683 | 2.0 | 8.107 | 2 | 34.468 | 8.297 | 32.847 | 2 |
| 2025-04-15T16:17:00 | 54.703906 | 7.270209 | 2.0 | 8.105 | 2 | 34.443 | 8.282 | 32.835 | 2 |
| 2025-04-15T16:18:00 | 54.705099 | 7.271162 | 2.0 | 8.097 | 2 | 34.426 | 8.279 | 32.819 | 2 |
| 2025-04-15T16:19:00 | 54.705410 | 7.272800 | 2.0 | 8.085 | 2 | 34.411 | 8.270 | 32.812 | 2 |
| 2025-04-15T16:20:00 | 54.704709 | 7.274279 | 2.0 | 8.061 | 2 | 34.403 | 8.257 | 32.816 | 2 |
| 2025-04-15T16:21:00 | 54.703470 | 7.274679 | 2.0 | 8.029 | 2 | 34.386 | 8.233 | 32.820 | 2 |
| 2025-04-15T16:22:00 | 54.702392 | 7.273462 | 2.0 | 8.019 | 2 | 34.360 | 8.203 | 32.821 | 2 |
| 2025-04-15T16:23:00 | 54.701708 | 7.271535 | 2.0 | 8.028 | 2 | 34.364 | 8.196 | 32.831 | 2 |
| 2025-04-15T16:24:00 | 54.701075 | 7.269736 | 2.0 | 8.041 | 2 | 34.385 | 8.206 | 32.844 | 2 |
| 2025-04-15T16:25:00 | 54.700383 | 7.268175 | 2.0 | 8.036 | 2 | 34.405 | 8.214 | 32.858 | 2 |
| 2025-04-15T16:26:00 | 54.699716 | 7.266586 | 2.0 | 8.033 | 2 | 34.404 | 8.208 | 32.862 | 2 |
| 2025-04-15T16:27:00 | 54.699070 | 7.264954 | 2.0 | 8.046 | 2 | 34.406 | 8.209 | 32.864 | 2 |
| 2025-04-15T16:28:00 | 54.698410 | 7.263371 | 2.0 | 8.053 | 2 | 34.430 | 8.221 | 32.878 | 2 |
| 2025-04-15T16:29:00 | 54.697722 | 7.261848 | 2.0 | 8.073 | 2 | 34.456 | 8.229 | 32.898 | 2 |
| 2025-04-15T16:30:00 | 54.697030 | 7.260368 | 2.0 | 8.077 | 2 | 34.504 | 8.248 | 32.931 | 2 |
| 2025-04-15T16:31:00 | 54.696337 | 7.258901 | 2.0 | 8.063 | 2 | 34.530 | 8.246 | 32.960 | 2 |
| 2025-04-15T16:32:00 | 54.695649 | 7.257365 | 2.0 | 8.062 | 2 | 34.529 | 8.234 | 32.971 | 2 |
| 2025-04-15T16:33:00 | 54.694968 | 7.255721 | 2.0 | 8.066 | 2 | 34.531 | 8.237 | 32.970 | 2 |
| 2025-04-15T16:34:00 | 54.694289 | 7.254060 | 2.0 | 8.022 | 2 | 34.542 | 8.231 | 32.987 | 2 |
| 2025-04-15T16:35:00 | 54.693566 | 7.252447 | 2.0 | 8.007 | 2 | 34.546 | 8.192 | 33.028 | 2 |
| 2025-04-15T16:36:00 | 54.692819 | 7.250854 | 2.0 | 8.027 | 2 | 34.554 | 8.185 | 33.043 | 2 |
| 2025-04-15T16:37:00 | 54.692069 | 7.249263 | 2.0 | 8.079 | 2 | 34.583 | 8.211 | 33.050 | 2 |
| 2025-04-15T16:38:00 | 54.691324 | 7.247630 | 2.0 | 8.088 | 2 | 34.616 | 8.252 | 33.046 | 2 |
| 2025-04-15T16:39:00 | 54.690608 | 7.245915 | 2.0 | 8.090 | 2 | 34.624 | 8.260 | 33.047 | 2 |
| 2025-04-15T16:40:00 | 54.689901 | 7.244182 | 2.0 | 8.093 | 2 | 34.628 | 8.262 | 33.049 | 2 |
| 2025-04-15T16:41:00 | 54.689196 | 7.242441 | 2.0 | 8.125 | 2 | 34.633 | 8.272 | 33.045 | 2 |
| 2025-04-15T16:42:00 | 54.688466 | 7.240753 | 2.0 | 8.335 | 2 | 34.704 | 8.340 | 33.056 | 2 |
| 2025-04-15T16:43:00 | 54.687703 | 7.239178 | 2.0 | 8.347 | 2 | 34.849 | 8.495 | 33.064 | 2 |
| 2025-04-15T16:44:00 | 54.686951 | 7.237582 | 2.0 | 8.387 | 2 | 34.875 | 8.521 | 33.067 | 2 |
| 2025-04-15T16:45:00 | 54.686220 | 7.235950 | 2.0 | 8.412 | 2 | 34.900 | 8.562 | 33.055 | 2 |
| 2025-04-15T16:46:00 | 54.685490 | 7.234302 | 2.0 | 8.369 | 2 | 34.900 | 8.573 | 33.045 | 2 |
| 2025-04-15T16:47:00 | 54.684768 | 7.232623 | 2.0 | 8.339 | 2 | 34.851 | 8.531 | 33.032 | 2 |
| 2025-04-15T16:48:00 | 54.684053 | 7.230912 | 2.0 | 8.423 | 2 | 34.842 | 8.530 | 33.024 | 2 |
| 2025-04-15T16:49:00 | 54.683331 | 7.229204 | 2.0 | 8.441 | 2 | 34.905 | 8.590 | 33.034 | 2 |
| 2025-04-15T16:50:00 | 54.682603 | 7.227527 | 2.0 | 8.444 | 2 | 34.922 | 8.615 | 33.028 | 2 |
| 2025-04-15T16:51:00 | 54.682084 | 7.225531 | 2.0 | 8.426 | 2 | 34.907 | 8.612 | 33.015 | 2 |
| 2025-04-15T16:52:00 | 54.682085 | 7.223217 | 2.0 | 8.415 | 2 | 34.890 | 8.595 | 33.014 | 2 |
| 2025-04-15T16:53:00 | 54.682225 | 7.220853 | 2.0 | 8.432 | 2 | 34.881 | 8.587 | 33.012 | 2 |
| 2025-04-15T16:54:00 | 54.681827 | 7.218872 | 2.0 | 8.448 | 2 | 34.900 | 8.604 | 33.016 | 2 |
| 2025-04-15T16:55:00 | 54.680983 | 7.218085 | 2.0 | 8.461 | 2 | 34.922 | 8.621 | 33.023 | 2 |
| 2025-04-15T16:56:00 | 54.680204 | 7.218688 | 2.0 | 8.460 | 2 | 34.936 | 8.629 | 33.030 | 2 |
| 2025-04-15T16:57:00 | 54.679886 | 7.220370 | 2.0 | 8.435 | 2 | 34.935 | 8.627 | 33.031 | 2 |
| 2025-04-15T16:58:00 | 54.680212 | 7.222181 | 2.0 | 8.409 | 2 | 34.909 | 8.602 | 33.027 | 2 |
| 2025-04-15T16:59:00 | 54.680771 | 7.223952 | 2.0 | 8.410 | 2 | 34.883 | 8.581 | 33.019 | 2 |
| 2025-04-15T17:00:00 | 54.681325 | 7.225799 | 2.0 | 8.418 | 2 | 34.881 | 8.582 | 33.016 | 2 |
| 2025-04-15T17:01:00 | 54.681948 | 7.227627 | 2.0 | 8.460 | 2 | 34.900 | 8.598 | 33.021 | 2 |
| 2025-04-15T17:02:00 | 54.682701 | 7.229320 | 2.0 | 8.440 | 2 | 34.933 | 8.625 | 33.031 | 2 |
| 2025-04-15T17:03:00 | 54.683420 | 7.231018 | 2.0 | 8.422 | 2 | 34.863 | 8.607 | 32.974 | 2 |
| 2025-04-15T17:04:00 | 54.684123 | 7.232697 | 2.0 | 8.386 | 2 | 34.900 | 8.587 | 33.032 | 2 |
| 2025-04-15T17:05:00 | 54.684840 | 7.234342 | 2.0 | 8.332 | 2 | 34.883 | 8.547 | 33.051 | 2 |
| 2025-04-15T17:06:00 | 54.685570 | 7.235944 | 2.0 | 8.199 | 2 | 34.838 | 8.492 | 33.055 | 2 |
| 2025-04-15T17:07:00 | 54.686282 | 7.237567 | 2.0 | 8.070 | 2 | 34.737 | 8.339 | 33.092 | 2 |
| 2025-04-15T17:08:00 | 54.687004 | 7.239207 | 2.0 | 7.991 | 2 | 34.660 | 8.239 | 33.105 | 2 |
| 2025-04-15T17:09:00 | 54.687720 | 7.240859 | 2.0 | 7.967 | 2 | 34.576 | 8.171 | 33.080 | 2 |
| 2025-04-15T17:10:00 | 54.688419 | 7.242516 | 2.0 | 7.954 | 2 | 34.537 | 8.146 | 33.062 | 2 |
| 2025-04-15T17:11:00 | 54.689108 | 7.244198 | 2.0 | 7.921 | 2 | 34.486 | 8.126 | 33.027 | 2 |
| 2025-04-15T17:12:00 | 54.689807 | 7.245893 | 2.0 | 7.906 | 2 | 34.476 | 8.096 | 33.044 | 2 |
| 2025-04-15T17:13:00 | 54.690552 | 7.247566 | 2.0 | 7.913 | 2 | 34.469 | 8.082 | 33.050 | 2 |
| 2025-04-15T17:14:00 | 54.691312 | 7.249243 | 2.0 | 7.899 | 2 | 34.481 | 8.089 | 33.056 | 2 |
| 2025-04-15T17:15:00 | 54.692083 | 7.250902 | 2.0 | 7.889 | 2 | 34.479 | 8.066 | 33.076 | 2 |
| 2025-04-15T17:16:00 | 54.692900 | 7.252492 | 2.0 | 7.949 | 2 | 34.471 | 8.083 | 33.051 | 2 |
| 2025-04-15T17:17:00 | 54.693659 | 7.254076 | 2.0 | 7.915 | 2 | 34.477 | 8.115 | 33.027 | 2 |
| 2025-04-15T17:18:00 | 54.694293 | 7.255684 | 2.0 | 7.888 | 2 | 34.443 | 8.085 | 33.019 | 2 |
| 2025-04-15T17:19:00 | 54.694936 | 7.257258 | 2.0 | 7.884 | 2 | 34.417 | 8.063 | 33.013 | 2 |
| 2025-04-15T17:20:00 | 54.695656 | 7.258848 | 2.0 | 7.870 | 2 | 34.406 | 8.060 | 33.004 | 2 |
| 2025-04-15T17:21:00 | 54.696395 | 7.260467 | 2.0 | 7.855 | 2 | 34.379 | 8.040 | 32.994 | 2 |
| 2025-04-15T17:22:00 | 54.697124 | 7.262115 | 2.0 | 7.846 | 2 | 34.355 | 8.032 | 32.976 | 2 |
| 2025-04-15T17:23:00 | 54.697804 | 7.263806 | 2.0 | 7.824 | 2 | 34.336 | 8.017 | 32.970 | 2 |
| 2025-04-15T17:24:00 | 54.698468 | 7.265491 | 2.0 | 7.795 | 2 | 34.302 | 7.995 | 32.954 | 2 |
| 2025-04-15T17:25:00 | 54.699165 | 7.267143 | 2.0 | 7.804 | 2 | 34.263 | 7.970 | 32.936 | 2 |
| 2025-04-15T17:26:00 | 54.699880 | 7.268780 | 2.0 | 7.814 | 2 | 34.272 | 7.982 | 32.934 | 2 |
| 2025-04-15T17:27:00 | 54.700600 | 7.270280 | 2.0 | 7.826 | 2 | 34.282 | 7.996 | 32.932 | 2 |
| 2025-04-15T17:28:00 | 54.701593 | 7.271594 | 2.0 | 7.750 | 2 | 34.265 | 7.986 | 32.923 | 2 |
| 2025-04-15T17:29:00 | 54.702841 | 7.272588 | 2.0 | 7.706 | 2 | 34.192 | 7.918 | 32.909 | 2 |
| 2025-04-15T17:30:00 | 54.704265 | 7.273311 | 2.0 | 7.765 | 2 | 34.150 | 7.886 | 32.894 | 2 |
| 2025-04-15T17:31:00 | 54.705117 | 7.274723 | 2.0 | 7.841 | 2 | 34.210 | 7.956 | 32.893 | 2 |
| 2025-04-15T17:32:00 | 54.704653 | 7.276237 | 2.0 | 7.830 | 2 | 34.273 | 8.012 | 32.907 | 2 |
| 2025-04-15T17:33:00 | 54.703263 | 7.276194 | 2.0 | 7.743 | 2 | 34.257 | 7.986 | 32.915 | 2 |
| 2025-04-15T17:34:00 | 54.702022 | 7.274623 | 2.0 | 7.738 | 2 | 34.190 | 7.918 | 32.907 | 2 |
| 2025-04-15T17:35:00 | 54.700978 | 7.272993 | 2.0 | 7.757 | 2 | 34.191 | 7.914 | 32.912 | 2 |
| 2025-04-15T17:36:00 | 54.700030 | 7.271395 | 2.0 | 7.795 | 2 | 34.226 | 7.941 | 32.924 | 2 |
| 2025-04-15T17:37:00 | 54.699232 | 7.269586 | 2.0 | 7.771 | 2 | 34.263 | 7.961 | 32.945 | 2 |
| 2025-04-15T17:38:00 | 54.698515 | 7.267630 | 2.0 | 7.778 | 2 | 34.261 | 7.947 | 32.956 | 2 |
| 2025-04-15T17:39:00 | 54.697802 | 7.265690 | 2.0 | 7.789 | 2 | 34.277 | 7.954 | 32.966 | 2 |
| 2025-04-15T17:40:00 | 54.697044 | 7.263905 | 2.0 | 7.786 | 2 | 34.298 | 7.961 | 32.982 | 2 |
| 2025-04-15T17:41:00 | 54.696274 | 7.262210 | 2.0 | 7.794 | 2 | 34.310 | 7.960 | 32.996 | 2 |
| 2025-04-15T17:42:00 | 54.695511 | 7.260534 | 2.0 | 7.806 | 2 | 34.322 | 7.969 | 33.000 | 2 |
| 2025-04-15T17:43:00 | 54.694752 | 7.258855 | 2.0 | 7.807 | 2 | 34.343 | 7.980 | 33.012 | 2 |
| 2025-04-15T17:44:00 | 54.694000 | 7.257212 | 2.0 | 7.798 | 2 | 34.361 | 7.978 | 33.033 | 2 |
| 2025-04-15T17:45:00 | 54.693245 | 7.255574 | 2.0 | 7.793 | 2 | 34.363 | 7.972 | 33.041 | 2 |
| 2025-04-15T17:46:00 | 54.692484 | 7.253850 | 2.0 | 7.797 | 2 | 34.358 | 7.967 | 33.040 | 2 |
| 2025-04-15T17:47:00 | 54.691732 | 7.252039 | 2.0 | 7.821 | 2 | 34.365 | 7.972 | 33.043 | 2 |
| 2025-04-15T17:48:00 | 54.690987 | 7.250161 | 2.0 | 7.870 | 2 | 34.403 | 8.000 | 33.057 | 2 |
| 2025-04-15T17:49:00 | 54.690223 | 7.248351 | 2.0 | 8.005 | 2 | 34.483 | 8.064 | 33.082 | 2 |
| 2025-04-15T17:50:00 | 54.689409 | 7.246646 | 2.0 | 8.077 | 2 | 34.657 | 8.192 | 33.146 | 2 |
| 2025-04-15T17:51:00 | 54.688563 | 7.245038 | 2.0 | 7.882 | 2 | 34.730 | 8.217 | 33.200 | 2 |
| 2025-04-15T17:52:00 | 54.687721 | 7.243392 | 2.0 | 7.775 | 2 | 34.538 | 8.022 | 33.180 | 2 |
| 2025-04-15T17:53:00 | 54.686933 | 7.241586 | 2.0 | 7.742 | 2 | 34.424 | 7.949 | 33.128 | 2 |
| 2025-04-15T17:54:00 | 54.686217 | 7.239601 | 2.0 | 7.751 | 2 | 34.377 | 7.919 | 33.106 | 2 |
| 2025-04-15T17:55:00 | 54.685475 | 7.237614 | 2.0 | 7.798 | 2 | 33.789 | 7.930 | 32.468 | 2 |
| 2025-04-15T17:56:00 | 54.684668 | 7.235735 | 2.0 | 8.111 | 2 | 34.057 | 8.023 | 32.667 | 2 |
| 2025-04-15T17:57:00 | 54.683836 | 7.233968 | 2.0 | 8.067 | 2 | 34.426 | 8.235 | 32.861 | 2 |
| 2025-04-15T17:58:00 | 54.682986 | 7.232241 | 2.0 | 8.269 | 2 | 34.559 | 8.281 | 32.958 | 2 |
| 2025-04-15T17:59:00 | 54.682146 | 7.230474 | 2.0 | 8.325 | 2 | 34.118 | 8.429 | 32.355 | 2 |
| 2025-04-15T18:00:00 | 54.681315 | 7.228674 | 2.0 | 8.375 | 2 | 34.535 | 8.496 | 32.732 | 2 |
| 2025-04-15T18:01:00 | 54.680510 | 7.226862 | 2.0 | 8.415 | 2 | 34.795 | 8.547 | 32.958 | 2 |
| 2025-04-15T18:02:00 | 54.679851 | 7.224863 | 2.0 | 8.426 | 2 | 34.889 | 8.580 | 33.026 | 2 |
| 2025-04-15T18:03:00 | 54.679718 | 7.222435 | 2.0 | 8.450 | 2 | 34.859 | 8.598 | 32.978 | 2 |
| 2025-04-15T18:04:00 | 54.679977 | 7.219871 | 2.0 | 8.466 | 2 | 34.759 | 8.618 | 32.854 | 2 |
| 2025-04-15T18:05:00 | 54.679729 | 7.217471 | 2.0 | 8.469 | 2 | 34.719 | 8.632 | 32.799 | 2 |
| 2025-04-15T18:06:00 | 54.678813 | 7.216516 | 2.0 | 8.456 | 2 | 34.983 | 8.631 | 33.078 | 2 |
| 2025-04-15T18:07:00 | 54.677846 | 7.217139 | 2.0 | 8.448 | 2 | 34.974 | 8.622 | 33.077 | 2 |
| 2025-04-15T18:08:00 | 54.677401 | 7.218974 | 2.0 | 8.440 | 2 | 34.968 | 8.613 | 33.079 | 2 |
| 2025-04-15T18:09:00 | 54.677621 | 7.221265 | 2.0 | 8.432 | 2 | 34.971 | 8.609 | 33.086 | 2 |
| 2025-04-15T18:10:00 | 54.678376 | 7.223154 | 2.0 | 8.413 | 2 | 34.971 | 8.599 | 33.095 | 2 |
| 2025-04-15T18:11:00 | 54.678951 | 7.224894 | 2.0 | 8.392 | 2 | 34.961 | 8.579 | 33.103 | 2 |
| 2025-04-15T18:12:00 | 54.679585 | 7.226503 | 2.0 | 8.370 | 2 | 34.948 | 8.558 | 33.109 | 2 |
| 2025-04-15T18:13:00 | 54.680285 | 7.228081 | 2.0 | 8.333 | 2 | 34.933 | 8.532 | 33.118 | 2 |
| 2025-04-15T18:14:00 | 54.681029 | 7.229692 | 2.0 | 8.286 | 2 | 34.909 | 8.499 | 33.123 | 2 |
| 2025-04-15T18:15:00 | 54.681759 | 7.231364 | 2.0 | 8.196 | 2 | 34.871 | 8.439 | 33.140 | 2 |
| 2025-04-15T18:16:00 | 54.682449 | 7.233087 | 2.0 | 8.164 | 2 | 34.811 | 8.364 | 33.147 | 2 |
| 2025-04-15T18:17:00 | 54.683188 | 7.234791 | 2.0 | 8.145 | 2 | 34.781 | 8.331 | 33.146 | 2 |
| 2025-04-15T18:18:00 | 54.683983 | 7.236460 | 2.0 | 8.199 | 2 | 34.787 | 8.339 | 33.145 | 2 |
| 2025-04-15T18:19:00 | 54.684778 | 7.238146 | 2.0 | 8.262 | 2 | 34.824 | 8.377 | 33.149 | 2 |
| 2025-04-15T18:20:00 | 54.685572 | 7.239830 | 2.0 | 8.232 | 2 | 34.873 | 8.428 | 33.152 | 2 |
| 2025-04-15T18:21:00 | 54.686338 | 7.241535 | 2.0 | 8.238 | 2 | 34.871 | 8.408 | 33.169 | 2 |
| 2025-04-15T18:22:00 | 54.687103 | 7.243251 | 2.0 | 8.193 | 2 | 34.874 | 8.401 | 33.179 | 2 |
| 2025-04-15T18:23:00 | 54.687849 | 7.244985 | 2.0 | 7.956 | 2 | 34.838 | 8.336 | 33.202 | 2 |
| 2025-04-15T18:24:00 | 54.688606 | 7.246702 | 2.0 | 7.923 | 2 | 34.652 | 8.128 | 33.201 | 2 |
| 2025-04-15T18:25:00 | 54.689345 | 7.248405 | 2.0 | 7.896 | 2 | 34.590 | 8.100 | 33.162 | 2 |
| 2025-04-15T18:26:00 | 54.690051 | 7.250157 | 2.0 | 7.844 | 2 | 34.545 | 8.063 | 33.149 | 2 |
| 2025-04-15T18:27:00 | 54.690768 | 7.251897 | 2.0 | 7.786 | 2 | 34.487 | 8.011 | 33.136 | 2 |
| 2025-04-15T18:28:00 | 54.691512 | 7.253613 | 2.0 | 7.771 | 2 | 34.418 | 7.960 | 33.111 | 2 |
| 2025-04-15T18:29:00 | 54.692288 | 7.255317 | 2.0 | 7.753 | 2 | 34.396 | 7.946 | 33.101 | 2 |
| 2025-04-15T18:30:00 | 54.693058 | 7.257047 | 2.0 | 7.731 | 2 | 34.133 | 7.927 | 32.838 | 2 |
| 2025-04-15T18:31:00 | 54.693812 | 7.258819 | 2.0 | 7.708 | 2 | 34.346 | 7.903 | 33.088 | 2 |
| 2025-04-15T18:32:00 | 54.694561 | 7.260588 | 2.0 | 7.698 | 2 | 34.021 | 7.882 | 32.760 | 2 |
| 2025-04-15T18:33:00 | 54.695326 | 7.262336 | 2.0 | 7.687 | 2 | 33.922 | 7.875 | 32.661 | 2 |
| 2025-04-15T18:34:00 | 54.696090 | 7.264068 | 2.0 | 7.685 | 2 | 33.994 | 7.859 | 32.753 | 2 |
| 2025-04-15T18:35:00 | 54.696872 | 7.265814 | 2.0 | 7.693 | 2 | 34.234 | 7.864 | 33.005 | 2 |
| 2025-04-15T18:36:00 | 54.697642 | 7.267545 | 2.0 | 7.683 | 2 | 34.269 | 7.866 | 33.041 | 2 |
| 2025-04-15T18:37:00 | 54.698375 | 7.269276 | 2.0 | 7.660 | 2 | 34.060 | 7.852 | 32.830 | 2 |
| 2025-04-15T18:38:00 | 54.699103 | 7.271022 | 2.0 | 7.661 | 2 | 34.052 | 7.836 | 32.837 | 2 |
| 2025-04-15T18:39:00 | 54.699991 | 7.272575 | 2.0 | 7.653 | 2 | 34.214 | 7.834 | 33.012 | 2 |
| 2025-04-15T18:40:00 | 54.701082 | 7.273836 | 2.0 | 7.648 | 2 | 33.973 | 7.828 | 32.760 | 2 |
| 2025-04-15T18:41:00 | 54.702347 | 7.274701 | 2.0 | 7.591 | 2 | 34.146 | 7.819 | 32.953 | 2 |
| 2025-04-15T18:42:00 | 54.703677 | 7.275374 | 2.0 | 7.550 | 2 | 33.879 | 7.758 | 32.725 | 2 |
| 2025-04-15T18:43:00 | 54.704550 | 7.276940 | 2.0 | 7.527 | 2 | 33.718 | 7.722 | 32.586 | 2 |
| 2025-04-15T18:44:00 | 54.704461 | 7.278941 | 2.0 | 7.514 | 2 | 33.957 | 7.700 | 32.863 | 2 |
| 2025-04-15T18:45:00 | 54.703451 | 7.280239 | 2.0 | 7.492 | 2 | 33.937 | 7.686 | 32.855 | 2 |
| 2025-04-15T18:46:00 | 54.702015 | 7.280137 | 2.0 | 7.493 | 2 | 33.704 | 7.666 | 32.623 | 2 |
| 2025-04-15T18:47:00 | 54.700989 | 7.278447 | 2.0 | 7.531 | 2 | 33.803 | 7.673 | 32.723 | 2 |
| 2025-04-15T18:48:00 | 54.700195 | 7.276562 | 2.0 | 7.567 | 2 | 33.791 | 7.713 | 32.673 | 2 |
| 2025-04-15T18:49:00 | 54.699515 | 7.274676 | 2.0 | 7.602 | 2 | 33.613 | 7.747 | 32.450 | 2 |
| 2025-04-15T18:50:00 | 54.698859 | 7.272917 | 2.0 | 7.617 | 2 | 33.714 | 7.776 | 32.531 | 2 |
| 2025-04-15T18:52:00 | 54.697508 | 7.269314 | 2.0 | 7.632 | 2 | 33.905 | 7.796 | 32.717 | 2 |
| 2025-04-15T18:53:00 | 54.696819 | 7.267328 | 2.0 | 7.644 | 2 | 34.170 | 7.808 | 32.990 | 2 |
| 2025-04-15T18:54:00 | 54.696048 | 7.265497 | 2.0 | 7.649 | 2 | 33.864 | 7.814 | 32.656 | 2 |
| 2025-04-15T18:55:00 | 54.695212 | 7.263742 | 2.0 | 7.654 | 2 | 34.039 | 7.824 | 32.834 | 2 |
| 2025-04-15T18:56:00 | 54.694385 | 7.262028 | 2.0 | 7.643 | 2 | 34.242 | 7.822 | 33.053 | 2 |
| 2025-04-15T18:57:00 | 54.693571 | 7.260301 | 2.0 | 7.653 | 2 | 34.260 | 7.818 | 33.077 | 2 |
| 2025-04-15T18:58:00 | 54.692792 | 7.258496 | 2.0 | 7.692 | 2 | 34.203 | 7.832 | 33.002 | 2 |
| 2025-04-15T18:59:00 | 54.692013 | 7.256685 | 2.0 | 7.725 | 2 | 34.068 | 7.869 | 32.823 | 2 |
| 2025-04-15T19:00:00 | 54.691227 | 7.254882 | 2.0 | 7.740 | 2 | 33.999 | 7.900 | 32.720 | 2 |
| 2025-04-15T19:01:00 | 54.690427 | 7.253114 | 2.0 | 7.746 | 2 | 34.209 | 7.909 | 32.936 | 2 |
| 2025-04-15T19:02:00 | 54.689627 | 7.251367 | 2.0 | 7.775 | 2 | 34.038 | 7.925 | 32.738 | 2 |
| 2025-04-15T19:03:00 | 54.688826 | 7.249625 | 2.0 | 7.814 | 2 | 34.418 | 7.949 | 33.121 | 2 |
| 2025-04-15T19:04:00 | 54.688045 | 7.247877 | 2.0 | 7.842 | 2 | 34.318 | 7.989 | 32.977 | 2 |
| 2025-04-15T19:05:00 | 54.687271 | 7.246110 | 2.0 | 7.854 | 2 | 34.309 | 8.010 | 32.947 | 2 |
| 2025-04-15T19:06:00 | 54.686518 | 7.244276 | 2.0 | 7.932 | 2 | 34.526 | 8.038 | 33.152 | 2 |
| 2025-04-15T19:07:00 | 54.685770 | 7.242413 | 2.0 | 8.030 | 2 | 34.272 | 8.109 | 32.815 | 2 |
| 2025-04-15T19:08:00 | 54.685006 | 7.240615 | 2.0 | 7.990 | 2 | 34.394 | 8.186 | 32.872 | 2 |
| 2025-04-15T19:09:00 | 54.684207 | 7.238891 | 2.0 | 7.964 | 2 | 34.685 | 8.155 | 33.211 | 2 |
| 2025-04-15T19:10:00 | 54.683400 | 7.237186 | 2.0 | 7.995 | 2 | 34.381 | 8.139 | 32.903 | 2 |
| 2025-04-15T19:11:00 | 54.682621 | 7.235418 | 2.0 | 8.039 | 2 | 34.259 | 8.170 | 32.744 | 2 |
| 2025-04-15T19:12:00 | 54.681869 | 7.233616 | 2.0 | 8.058 | 2 | 34.632 | 8.212 | 33.101 | 2 |
| 2025-04-15T19:13:00 | 54.681100 | 7.231812 | 2.0 | 8.058 | 2 | 34.545 | 8.228 | 32.993 | 2 |
| 2025-04-15T19:14:00 | 54.680325 | 7.230030 | 2.0 | 8.068 | 2 | 34.309 | 8.225 | 32.746 | 2 |
| 2025-04-15T19:15:00 | 54.679769 | 7.227971 | 2.0 | 8.071 | 2 | 34.702 | 8.238 | 33.150 | 2 |
| 2025-04-15T19:16:00 | 54.679618 | 7.225563 | 2.0 | 8.097 | 2 | 34.394 | 8.235 | 32.827 | 2 |
| 2025-04-15T19:17:00 | 54.679901 | 7.223096 | 2.0 | 8.139 | 2 | 34.466 | 8.272 | 32.868 | 2 |
| 2025-04-15T19:18:00 | 54.679839 | 7.220715 | 2.0 | 8.195 | 2 | 34.454 | 8.315 | 32.815 | 2 |
| 2025-04-15T19:19:00 | 54.678953 | 7.219407 | 2.0 | 8.246 | 2 | 34.575 | 8.369 | 32.893 | 2 |
| 2025-04-15T19:20:00 | 54.677926 | 7.219648 | 2.0 | 8.269 | 2 | 34.457 | 8.419 | 32.722 | 2 |
| 2025-04-15T19:21:00 | 54.677321 | 7.221075 | 2.0 | 8.251 | 2 | 34.840 | 8.431 | 33.115 | 2 |
| 2025-04-15T19:22:00 | 54.677496 | 7.222980 | 2.0 | 8.199 | 2 | 34.670 | 8.409 | 32.956 | 2 |
| 2025-04-15T19:23:00 | 54.678120 | 7.224741 | 2.0 | 8.135 | 2 | 34.700 | 8.355 | 33.038 | 2 |
| 2025-04-15T19:24:00 | 54.678550 | 7.226620 | 2.0 | 8.083 | 2 | 34.566 | 8.299 | 32.949 | 2 |
| 2025-04-15T19:25:00 | 54.679073 | 7.228455 | 2.0 | 8.046 | 2 | 34.549 | 8.249 | 32.978 | 2 |
| 2025-04-15T19:26:00 | 54.679682 | 7.230317 | 2.0 | 8.026 | 2 | 34.637 | 8.212 | 33.106 | 2 |
| 2025-04-15T19:27:00 | 54.680368 | 7.232177 | 2.0 | 7.995 | 2 | 34.482 | 8.193 | 32.959 | 2 |
| 2025-04-15T19:28:00 | 54.681115 | 7.233981 | 2.0 | 7.984 | 2 | 34.579 | 8.162 | 33.092 | 2 |
| 2025-04-15T19:29:00 | 54.681912 | 7.235725 | 2.0 | 7.970 | 2 | 34.474 | 8.154 | 32.987 | 2 |
| 2025-04-15T19:30:00 | 54.682710 | 7.237448 | 2.0 | 7.960 | 2 | 34.399 | 8.139 | 32.922 | 2 |
| 2025-04-15T19:31:00 | 54.683501 | 7.239149 | 2.0 | 7.927 | 2 | 34.243 | 8.125 | 32.769 | 2 |
| 2025-04-15T19:32:00 | 54.684306 | 7.240910 | 2.0 | 7.930 | 2 | 34.404 | 8.107 | 32.957 | 2 |
| 2025-04-15T19:33:00 | 54.685142 | 7.242615 | 2.0 | 7.960 | 2 | 34.330 | 8.107 | 32.879 | 2 |
| 2025-04-15T19:34:00 | 54.685951 | 7.244389 | 2.0 | 7.939 | 2 | 34.412 | 8.124 | 32.950 | 2 |
| 2025-04-15T19:35:00 | 54.686751 | 7.246209 | 2.0 | 7.859 | 2 | 34.120 | 8.090 | 32.671 | 2 |
| 2025-04-15T19:36:00 | 54.687523 | 7.248060 | 2.0 | 7.818 | 2 | 34.384 | 8.027 | 33.011 | 2 |
| 2025-04-15T19:37:00 | 54.688290 | 7.249931 | 2.0 | 7.804 | 2 | 34.508 | 7.994 | 33.175 | 2 |
| 2025-04-15T19:38:00 | 54.689065 | 7.251778 | 2.0 | 7.759 | 2 | 34.485 | 7.970 | 33.173 | 2 |
| 2025-04-15T19:39:00 | 54.689846 | 7.253647 | 2.0 | 7.743 | 2 | 34.442 | 7.930 | 33.165 | 2 |
| 2025-04-15T19:40:00 | 54.690630 | 7.255500 | 2.0 | 7.720 | 2 | 34.411 | 7.912 | 33.149 | 2 |
| 2025-04-15T19:41:00 | 54.691438 | 7.257325 | 2.0 | 7.722 | 2 | 34.378 | 7.895 | 33.130 | 2 |
| 2025-04-15T19:42:00 | 54.692246 | 7.259140 | 2.0 | 7.689 | 2 | 34.363 | 7.890 | 33.119 | 2 |
| 2025-04-15T19:43:00 | 54.693021 | 7.260981 | 2.0 | 7.645 | 2 | 34.320 | 7.855 | 33.106 | 2 |
| 2025-04-15T19:44:00 | 54.693814 | 7.262812 | 2.0 | 7.617 | 2 | 34.274 | 7.815 | 33.094 | 2 |
| 2025-04-15T19:45:00 | 54.694645 | 7.264598 | 2.0 | 7.616 | 2 | 34.243 | 7.792 | 33.083 | 2 |
| 2025-04-15T19:46:00 | 54.695453 | 7.266391 | 2.0 | 7.625 | 2 | 34.234 | 7.792 | 33.073 | 2 |
| 2025-04-15T19:47:00 | 54.696228 | 7.268189 | 2.0 | 7.610 | 2 | 34.221 | 7.793 | 33.058 | 2 |
| 2025-04-15T19:48:00 | 54.696970 | 7.269995 | 2.0 | 7.615 | 2 | 34.204 | 7.786 | 33.047 | 2 |
| 2025-04-15T19:49:00 | 54.697748 | 7.271820 | 2.0 | 7.607 | 2 | 34.201 | 7.788 | 33.042 | 2 |
| 2025-04-15T19:50:00 | 54.698581 | 7.273571 | 2.0 | 7.614 | 2 | 34.186 | 7.781 | 33.032 | 2 |
| 2025-04-15T19:51:00 | 54.699694 | 7.274876 | 2.0 | 7.601 | 2 | 34.185 | 7.785 | 33.027 | 2 |
| 2025-04-15T19:52:00 | 54.700983 | 7.275816 | 2.0 | 7.482 | 2 | 34.176 | 7.757 | 33.044 | 2 |
| 2025-04-15T19:53:00 | 54.702269 | 7.276752 | 2.0 | 7.455 | 2 | 34.081 | 7.657 | 33.037 | 2 |
| 2025-04-15T19:54:00 | 54.703253 | 7.278483 | 2.0 | 7.422 | 2 | 34.037 | 7.623 | 33.022 | 2 |
| 2025-04-15T19:55:00 | 54.703351 | 7.280912 | 2.0 | 7.438 | 2 | 34.002 | 7.599 | 33.007 | 2 |
| 2025-04-15T19:56:00 | 54.702303 | 7.282562 | 2.0 | 7.421 | 2 | 34.010 | 7.608 | 33.007 | 2 |
| 2025-04-15T19:57:00 | 54.700774 | 7.282211 | 2.0 | 7.420 | 2 | 34.007 | 7.597 | 33.014 | 2 |
| 2025-04-15T19:58:00 | 54.699721 | 7.280287 | 2.0 | 7.443 | 2 | 34.012 | 7.598 | 33.019 | 2 |
| 2025-04-15T19:59:00 | 54.698986 | 7.278336 | 2.0 | 7.484 | 2 | 34.043 | 7.621 | 33.030 | 2 |
| 2025-04-15T20:00:00 | 54.698437 | 7.276488 | 2.0 | 7.602 | 2 | 34.114 | 7.700 | 33.032 | 2 |
| 2025-04-15T20:01:00 | 54.697857 | 7.274728 | 2.0 | 7.600 | 2 | 34.171 | 7.769 | 33.028 | 2 |
| 2025-04-15T20:02:00 | 54.697340 | 7.272908 | 2.0 | 7.614 | 2 | 34.173 | 7.770 | 33.029 | 2 |
| 2025-04-15T20:03:00 | 54.696638 | 7.271323 | 2.0 | 7.623 | 2 | 34.190 | 7.783 | 33.035 | 2 |
| 2025-04-15T20:04:00 | 54.695925 | 7.269739 | 2.0 | 7.622 | 2 | 34.205 | 7.792 | 33.042 | 2 |
| 2025-04-15T20:05:00 | 54.695217 | 7.268082 | 2.0 | 7.624 | 2 | 33.886 | 7.794 | 32.698 | 2 |
| 2025-04-15T20:06:00 | 54.694546 | 7.266294 | 2.0 | 7.631 | 2 | 33.795 | 7.795 | 32.600 | 2 |
| 2025-04-15T20:07:00 | 54.693821 | 7.264549 | 2.0 | 7.657 | 2 | 33.870 | 7.808 | 32.668 | 2 |
| 2025-04-15T20:08:00 | 54.693043 | 7.262840 | 2.0 | 7.677 | 2 | 33.940 | 7.826 | 32.726 | 2 |
| 2025-04-15T20:09:00 | 54.692266 | 7.261113 | 2.0 | 7.715 | 2 | 33.760 | 7.852 | 32.509 | 2 |
| 2025-04-15T20:10:00 | 54.691482 | 7.259383 | 2.0 | 7.730 | 2 | 34.017 | 7.888 | 32.750 | 2 |
| 2025-04-15T20:11:00 | 54.690675 | 7.257659 | 2.0 | 7.723 | 2 | 34.376 | 7.895 | 33.128 | 2 |
| 2025-04-15T20:12:00 | 54.689902 | 7.255888 | 2.0 | 7.755 | 2 | 34.135 | 7.900 | 32.865 | 2 |
| 2025-04-15T20:13:00 | 54.689141 | 7.254125 | 2.0 | 7.800 | 2 | 34.438 | 7.935 | 33.156 | 2 |
| 2025-04-15T20:14:00 | 54.688409 | 7.252366 | 2.0 | 7.836 | 2 | 34.479 | 7.969 | 33.168 | 2 |
| 2025-04-15T20:15:00 | 54.687708 | 7.250590 | 2.0 | 7.908 | 2 | 34.248 | 8.011 | 32.881 | 2 |
| 2025-04-15T20:16:00 | 54.686941 | 7.248908 | 2.0 | 7.940 | 2 | 34.315 | 8.086 | 32.882 | 2 |
| 2025-04-15T20:17:00 | 54.686153 | 7.247300 | 2.0 | 7.862 | 2 | 34.211 | 8.088 | 32.770 | 2 |
| 2025-04-15T20:18:00 | 54.685358 | 7.245681 | 2.0 | 7.922 | 2 | 34.320 | 8.037 | 32.934 | 2 |
| 2025-04-15T20:19:00 | 54.684635 | 7.243943 | 2.0 | 7.966 | 2 | 34.397 | 8.095 | 32.961 | 2 |
| 2025-04-15T20:20:00 | 54.683946 | 7.242154 | 2.0 | 7.998 | 2 | 33.951 | 8.140 | 32.445 | 2 |
| 2025-04-15T20:21:00 | 54.683232 | 7.240407 | 2.0 | 8.024 | 2 | 34.315 | 8.168 | 32.805 | 2 |
| 2025-04-15T20:22:00 | 54.682487 | 7.238690 | 2.0 | 8.029 | 2 | 34.316 | 8.188 | 32.788 | 2 |
| 2025-04-15T20:23:00 | 54.681720 | 7.236996 | 2.0 | 8.005 | 2 | 34.323 | 8.194 | 32.790 | 2 |
| 2025-04-15T20:24:00 | 54.680952 | 7.235337 | 2.0 | 7.994 | 2 | 34.307 | 8.170 | 32.795 | 2 |
| 2025-04-15T20:25:00 | 54.680198 | 7.233703 | 2.0 | 8.047 | 2 | 34.434 | 8.165 | 32.935 | 2 |
| 2025-04-15T20:26:00 | 54.679474 | 7.232026 | 2.0 | 8.146 | 2 | 34.587 | 8.231 | 33.035 | 2 |
| 2025-04-15T20:27:00 | 54.678863 | 7.230247 | 2.0 | 8.242 | 2 | 34.508 | 8.327 | 32.861 | 2 |
| 2025-04-15T20:28:00 | 54.678568 | 7.228238 | 2.0 | 8.328 | 2 | 34.544 | 8.407 | 32.825 | 2 |
| 2025-04-15T20:29:00 | 54.678673 | 7.226159 | 2.0 | 8.334 | 2 | 34.631 | 8.496 | 32.833 | 2 |
| 2025-04-15T20:30:00 | 54.678838 | 7.224036 | 2.0 | 8.343 | 2 | 34.705 | 8.497 | 32.910 | 2 |
| 2025-04-15T20:31:00 | 54.678244 | 7.222025 | 2.0 | 8.367 | 2 | 34.618 | 8.514 | 32.803 | 2 |
| 2025-04-15T20:32:00 | 54.676999 | 7.221679 | 2.0 | 8.491 | 2 | 34.541 | 8.558 | 32.681 | 2 |
| 2025-04-15T20:33:00 | 54.676039 | 7.223179 | 2.0 | 8.501 | 2 | 34.837 | 8.646 | 32.910 | 2 |
| 2025-04-15T20:34:00 | 54.675975 | 7.225692 | 2.0 | 8.451 | 2 | 34.926 | 8.653 | 32.997 | 2 |
| 2025-04-15T20:35:00 | 54.676713 | 7.227746 | 2.0 | 8.365 | 2 | 34.675 | 8.603 | 32.780 | 2 |
| 2025-04-15T20:36:00 | 54.677473 | 7.229673 | 2.0 | 8.362 | 2 | 34.123 | 8.538 | 32.261 | 2 |
| 2025-04-15T20:37:00 | 54.678199 | 7.231569 | 2.0 | 8.327 | 2 | 34.973 | 8.532 | 33.160 | 2 |
| 2025-04-15T20:38:00 | 54.679039 | 7.233243 | 2.0 | 8.244 | 2 | 34.932 | 8.474 | 33.171 | 2 |
| 2025-04-15T20:39:00 | 54.679901 | 7.234897 | 2.0 | 8.174 | 2 | 34.853 | 8.404 | 33.154 | 2 |
| 2025-04-15T20:40:00 | 54.680743 | 7.236599 | 2.0 | 8.061 | 2 | 34.795 | 8.331 | 33.161 | 2 |
| 2025-04-15T20:41:00 | 54.681495 | 7.238405 | 2.0 | 8.011 | 2 | 34.707 | 8.222 | 33.171 | 2 |
| 2025-04-15T20:42:00 | 54.682221 | 7.240225 | 2.0 | 7.992 | 2 | 34.661 | 8.180 | 33.162 | 2 |
| 2025-04-15T20:43:00 | 54.682989 | 7.241953 | 2.0 | 7.999 | 2 | 34.646 | 8.167 | 33.158 | 2 |
| 2025-04-15T20:44:00 | 54.683762 | 7.243611 | 2.0 | 8.005 | 2 | 34.648 | 8.171 | 33.156 | 2 |
| 2025-04-15T20:45:00 | 54.684529 | 7.245273 | 2.0 | 7.998 | 2 | 34.655 | 8.176 | 33.159 | 2 |
| 2025-04-15T20:46:00 | 54.685307 | 7.246895 | 2.0 | 7.986 | 2 | 34.655 | 8.170 | 33.165 | 2 |
| 2025-04-15T20:47:00 | 54.686048 | 7.248541 | 2.0 | 7.947 | 2 | 34.645 | 8.153 | 33.170 | 2 |
| 2025-04-15T20:48:00 | 54.686748 | 7.250255 | 2.0 | 7.878 | 2 | 34.606 | 8.096 | 33.183 | 2 |
| 2025-04-15T20:49:00 | 54.687449 | 7.251968 | 2.0 | 7.938 | 2 | 34.568 | 8.067 | 33.170 | 2 |
| 2025-04-15T20:50:00 | 54.688169 | 7.253607 | 2.0 | 8.024 | 2 | 34.615 | 8.120 | 33.170 | 2 |
| 2025-04-15T20:51:00 | 54.688880 | 7.255249 | 2.0 | 8.057 | 2 | 34.691 | 8.196 | 33.178 | 2 |
| 2025-04-15T20:52:00 | 54.689575 | 7.256930 | 2.0 | 8.055 | 2 | 34.728 | 8.222 | 33.193 | 2 |
| 2025-04-15T20:53:00 | 54.690305 | 7.258601 | 2.0 | 7.944 | 2 | 34.732 | 8.218 | 33.201 | 2 |
| 2025-04-15T20:54:00 | 54.691067 | 7.260227 | 2.0 | 7.813 | 2 | 34.617 | 8.084 | 33.206 | 2 |
| 2025-04-15T20:55:00 | 54.691779 | 7.261944 | 2.0 | 7.765 | 2 | 34.491 | 7.979 | 33.171 | 2 |
| 2025-04-15T20:56:00 | 54.692491 | 7.263627 | 2.0 | 7.780 | 2 | 34.423 | 7.946 | 33.130 | 2 |
| 2025-04-15T20:57:00 | 54.693182 | 7.265324 | 2.0 | 7.756 | 2 | 34.348 | 7.948 | 33.048 | 2 |
| 2025-04-15T20:58:00 | 54.693916 | 7.266967 | 2.0 | 7.746 | 2 | 34.375 | 7.928 | 33.095 | 2 |
| 2025-04-15T20:59:00 | 54.694684 | 7.268527 | 2.0 | 7.728 | 2 | 34.346 | 7.917 | 33.075 | 2 |
| 2025-04-15T21:00:00 | 54.695410 | 7.270123 | 2.0 | 7.714 | 2 | 34.309 | 7.900 | 33.051 | 2 |
| 2025-04-15T21:01:00 | 54.696104 | 7.271755 | 2.0 | 7.712 | 2 | 34.280 | 7.886 | 33.034 | 2 |
| 2025-04-15T21:02:00 | 54.696822 | 7.273431 | 2.0 | 7.716 | 2 | 34.262 | 7.884 | 33.016 | 2 |
| 2025-04-15T21:03:00 | 54.697653 | 7.275005 | 2.0 | 7.715 | 2 | 34.251 | 7.885 | 33.003 | 2 |
| 2025-04-15T21:04:00 | 54.698677 | 7.276096 | 2.0 | 7.724 | 2 | 33.893 | 7.889 | 32.617 | 2 |
| 2025-04-15T21:05:00 | 54.699795 | 7.276909 | 2.0 | 7.737 | 2 | 34.233 | 7.896 | 32.974 | 2 |
| 2025-04-15T21:06:00 | 54.700980 | 7.277763 | 2.0 | 7.746 | 2 | 34.231 | 7.907 | 32.961 | 2 |
| 2025-04-15T21:07:00 | 54.702040 | 7.279668 | 2.0 | 7.736 | 2 | 34.205 | 7.915 | 32.926 | 2 |
| 2025-04-15T21:08:00 | 54.701988 | 7.282525 | 2.0 | 7.700 | 2 | 34.157 | 7.899 | 32.890 | 2 |
| 2025-04-15T21:09:00 | 54.700860 | 7.284188 | 2.0 | 7.685 | 2 | 34.121 | 7.868 | 32.880 | 2 |
| 2025-04-15T21:10:00 | 54.699747 | 7.283749 | 2.0 | 7.693 | 2 | 34.181 | 7.857 | 32.955 | 2 |
| 2025-04-15T21:11:00 | 54.699083 | 7.281909 | 2.0 | 7.716 | 2 | 34.189 | 7.869 | 32.952 | 2 |
| 2025-04-15T21:12:00 | 54.698329 | 7.279990 | 2.0 | 7.720 | 2 | 34.156 | 7.888 | 32.899 | 2 |
| 2025-04-15T21:13:00 | 54.697683 | 7.278230 | 2.0 | 7.724 | 2 | 34.213 | 7.892 | 32.956 | 2 |
| 2025-04-15T21:14:00 | 54.697085 | 7.276526 | 2.0 | 7.717 | 2 | 34.095 | 7.894 | 32.828 | 2 |
| 2025-04-15T21:15:00 | 54.696427 | 7.274850 | 2.0 | 7.723 | 2 | 34.243 | 7.886 | 32.994 | 2 |
| 2025-04-15T21:17:00 | 54.695135 | 7.271360 | 2.0 | 7.772 | 2 | 34.300 | 7.925 | 33.018 | 2 |
| 2025-04-15T21:18:00 | 54.694394 | 7.269674 | 2.0 | 7.789 | 2 | 33.961 | 7.945 | 32.637 | 2 |
| 2025-04-15T21:19:00 | 54.693616 | 7.268013 | 2.0 | 7.802 | 2 | 34.035 | 7.960 | 32.702 | 2 |
| 2025-04-15T21:20:00 | 54.692841 | 7.266330 | 2.0 | 7.786 | 2 | 34.171 | 7.967 | 32.841 | 2 |
| 2025-04-15T21:21:00 | 54.692071 | 7.264615 | 2.0 | 7.783 | 2 | 33.960 | 7.953 | 32.629 | 2 |
| 2025-04-15T21:22:00 | 54.691302 | 7.262900 | 2.0 | 7.750 | 2 | 33.847 | 7.939 | 32.521 | 2 |
| 2025-04-15T21:23:00 | 54.690534 | 7.261155 | 2.0 | 7.718 | 2 | 34.160 | 7.916 | 32.877 | 2 |
| 2025-04-15T21:24:00 | 54.689771 | 7.259380 | 2.0 | 7.774 | 2 | 34.150 | 7.898 | 32.883 | 2 |
| 2025-04-15T21:25:00 | 54.689028 | 7.257663 | 2.0 | 7.803 | 2 | 34.273 | 7.954 | 32.962 | 2 |
| 2025-04-15T21:26:00 | 54.688302 | 7.256016 | 2.0 | 7.827 | 2 | 34.448 | 7.975 | 33.129 | 2 |
| 2025-04-15T21:27:00 | 54.687596 | 7.254420 | 2.0 | 7.844 | 2 | 34.408 | 7.998 | 33.064 | 2 |
| 2025-04-15T21:28:00 | 54.686892 | 7.252847 | 2.0 | 7.848 | 2 | 34.243 | 8.014 | 32.873 | 2 |
| 2025-04-15T21:29:00 | 54.686207 | 7.251262 | 2.0 | 7.901 | 2 | 34.207 | 8.011 | 32.838 | 2 |
| 2025-04-15T21:30:00 | 54.685557 | 7.249645 | 2.0 | 8.144 | 2 | 34.314 | 8.117 | 32.852 | 2 |
| 2025-04-15T21:31:00 | 54.684884 | 7.248098 | 2.0 | 8.268 | 2 | 34.521 | 8.323 | 32.879 | 2 |
| 2025-04-15T21:32:00 | 54.684188 | 7.246591 | 2.0 | 8.335 | 2 | 34.470 | 8.439 | 32.717 | 2 |
| 2025-04-15T21:33:00 | 54.683517 | 7.245070 | 2.0 | 8.361 | 2 | 34.768 | 8.498 | 32.976 | 2 |
| 2025-04-15T21:34:00 | 54.682859 | 7.243570 | 2.0 | 8.374 | 2 | 34.495 | 8.523 | 32.665 | 2 |
| 2025-04-15T21:35:00 | 54.682195 | 7.242101 | 2.0 | 8.368 | 2 | 34.801 | 8.536 | 32.975 | 2 |
| 2025-04-15T21:36:00 | 54.681551 | 7.240615 | 2.0 | 8.348 | 2 | 34.710 | 8.530 | 32.885 | 2 |
| 2025-04-15T21:37:00 | 54.680901 | 7.239128 | 2.0 | 8.338 | 2 | 34.728 | 8.512 | 32.921 | 2 |
| 2025-04-15T21:38:00 | 54.680257 | 7.237623 | 2.0 | 8.352 | 2 | 34.403 | 8.507 | 32.583 | 2 |
| 2025-04-15T21:39:00 | 54.679597 | 7.236130 | 2.0 | 8.397 | 2 | 34.577 | 8.520 | 32.754 | 2 |
| 2025-04-15T21:40:00 | 54.678952 | 7.234633 | 2.0 | 8.465 | 2 | 34.192 | 8.580 | 32.295 | 2 |
| 2025-04-15T21:41:00 | 54.678296 | 7.233122 | 2.0 | 8.441 | 2 | 34.657 | 8.626 | 32.740 | 2 |
| 2025-04-15T21:42:00 | 54.677644 | 7.231579 | 2.0 | 8.445 | 2 | 34.430 | 8.593 | 32.532 | 2 |
| 2025-04-15T21:43:00 | 54.677387 | 7.229810 | 2.0 | 8.520 | 2 | 34.506 | 8.629 | 32.579 | 2 |
| 2025-04-15T21:44:00 | 54.677411 | 7.227823 | 2.0 | 8.545 | 2 | 34.576 | 8.683 | 32.602 | 2 |
| 2025-04-15T21:45:00 | 54.677286 | 7.225967 | 2.0 | 8.564 | 2 | 34.386 | 8.714 | 32.375 | 2 |
| 2025-04-15T21:46:00 | 54.676401 | 7.225077 | 2.0 | 8.545 | 2 | 34.259 | 8.720 | 32.237 | 2 |
| 2025-04-15T21:47:00 | 54.675255 | 7.225677 | 2.0 | 8.536 | 2 | 34.012 | 8.709 | 31.989 | 2 |
| 2025-04-15T21:48:00 | 54.674696 | 7.227408 | 2.0 | 8.543 | 2 | 34.552 | 8.702 | 32.560 | 2 |
| 2025-04-15T21:49:00 | 54.674902 | 7.229267 | 2.0 | 8.559 | 2 | 34.405 | 8.711 | 32.398 | 2 |
| 2025-04-15T21:50:00 | 54.675633 | 7.230740 | 2.0 | 8.577 | 2 | 34.998 | 8.726 | 33.005 | 2 |
| 2025-04-15T21:51:00 | 54.676569 | 7.232196 | 2.0 | 8.551 | 2 | 34.662 | 8.741 | 32.639 | 2 |
| 2025-04-15T21:52:00 | 54.677625 | 7.233650 | 2.0 | 8.506 | 2 | 35.027 | 8.707 | 33.053 | 2 |
| 2025-04-15T21:53:00 | 54.678435 | 7.235496 | 2.0 | 8.425 | 2 | 34.891 | 8.652 | 32.961 | 2 |
| 2025-04-15T21:54:00 | 54.679177 | 7.237333 | 2.0 | 8.443 | 2 | 34.771 | 8.599 | 32.885 | 2 |
| 2025-04-15T21:55:00 | 54.679968 | 7.239117 | 2.0 | 8.478 | 2 | 34.671 | 8.619 | 32.761 | 2 |
| 2025-04-15T21:56:00 | 54.680774 | 7.240856 | 2.0 | 8.378 | 2 | 34.431 | 8.612 | 32.516 | 2 |
| 2025-04-15T21:57:00 | 54.681557 | 7.242579 | 2.0 | 8.369 | 2 | 34.554 | 8.552 | 32.700 | 2 |
| 2025-04-15T21:58:00 | 54.682307 | 7.244380 | 2.0 | 8.350 | 2 | 34.418 | 8.535 | 32.573 | 2 |
| 2025-04-15T21:59:00 | 54.683093 | 7.246125 | 2.0 | 8.330 | 2 | 34.718 | 8.516 | 32.906 | 2 |
| 2025-04-15T22:00:00 | 54.683926 | 7.247818 | 2.0 | 8.330 | 2 | 34.588 | 8.498 | 32.786 | 2 |
| 2025-04-15T22:01:00 | 54.684743 | 7.249565 | 2.0 | 8.332 | 2 | 34.682 | 8.500 | 32.883 | 2 |
| 2025-04-15T22:02:00 | 54.685522 | 7.251398 | 2.0 | 8.341 | 2 | 34.566 | 8.501 | 32.760 | 2 |
| 2025-04-15T22:03:00 | 54.686322 | 7.253209 | 2.0 | 8.357 | 2 | 34.499 | 8.512 | 32.680 | 2 |
| 2025-04-15T22:04:00 | 54.687103 | 7.255053 | 2.0 | 8.361 | 2 | 34.901 | 8.525 | 33.091 | 2 |
| 2025-04-15T22:05:00 | 54.687889 | 7.256905 | 2.0 | 8.338 | 2 | 34.911 | 8.526 | 33.100 | 2 |
| 2025-04-15T22:06:00 | 54.688706 | 7.258728 | 2.0 | 8.263 | 2 | 34.900 | 8.494 | 33.119 | 2 |
| 2025-04-15T22:07:00 | 54.689527 | 7.260535 | 2.0 | 7.988 | 2 | 34.841 | 8.399 | 33.146 | 2 |
| 2025-04-15T22:08:00 | 54.690291 | 7.262390 | 2.0 | 7.923 | 2 | 34.620 | 8.147 | 33.149 | 2 |
| 2025-04-15T22:09:00 | 54.691062 | 7.264195 | 2.0 | 7.921 | 2 | 34.555 | 8.100 | 33.125 | 2 |
| 2025-04-15T22:10:00 | 54.691831 | 7.265960 | 2.0 | 7.880 | 2 | 34.544 | 8.088 | 33.124 | 2 |
| 2025-04-15T22:11:00 | 54.692610 | 7.267685 | 2.0 | 7.839 | 2 | 34.513 | 8.051 | 33.126 | 2 |
| 2025-04-15T22:12:00 | 54.693382 | 7.269422 | 2.0 | 7.779 | 2 | 34.469 | 8.002 | 33.126 | 2 |
| 2025-04-15T22:13:00 | 54.694162 | 7.271144 | 2.0 | 7.759 | 2 | 34.418 | 7.957 | 33.114 | 2 |
| 2025-04-15T22:14:00 | 54.694924 | 7.272912 | 2.0 | 7.746 | 2 | 34.376 | 7.928 | 33.096 | 2 |
| 2025-04-15T22:15:00 | 54.695686 | 7.274670 | 2.0 | 7.784 | 2 | 34.360 | 7.931 | 33.076 | 2 |
| 2025-04-15T22:16:00 | 54.696466 | 7.276364 | 2.0 | 7.781 | 2 | 34.372 | 7.954 | 33.068 | 2 |
| 2025-04-15T22:17:00 | 54.697397 | 7.277497 | 2.0 | 7.804 | 2 | 34.365 | 7.957 | 33.057 | 2 |
| 2025-04-15T22:18:00 | 54.698379 | 7.278470 | 2.0 | 7.802 | 2 | 34.376 | 7.975 | 33.052 | 2 |
| 2025-04-15T22:19:00 | 54.699348 | 7.279584 | 2.0 | 7.767 | 2 | 34.352 | 7.956 | 33.044 | 2 |
| 2025-04-15T22:20:00 | 54.700324 | 7.280726 | 2.0 | 7.768 | 2 | 34.314 | 7.938 | 33.021 | 2 |
| 2025-04-15T22:21:00 | 54.701231 | 7.281995 | 2.0 | 7.802 | 2 | 34.300 | 7.947 | 32.997 | 2 |
| 2025-04-15T22:22:00 | 54.701659 | 7.283951 | 2.0 | 7.818 | 2 | 34.305 | 7.974 | 32.977 | 2 |
| 2025-04-15T22:23:00 | 54.701309 | 7.285976 | 2.0 | 7.824 | 2 | 34.306 | 7.987 | 32.966 | 2 |
| 2025-04-15T22:24:00 | 54.700249 | 7.286996 | 2.0 | 7.813 | 2 | 34.305 | 7.990 | 32.962 | 2 |
| 2025-04-15T22:25:00 | 54.699158 | 7.286229 | 2.0 | 7.791 | 2 | 34.305 | 7.979 | 32.972 | 2 |
| 2025-04-15T22:26:00 | 54.698468 | 7.284434 | 2.0 | 7.776 | 2 | 34.301 | 7.958 | 32.988 | 2 |
| 2025-04-15T22:27:00 | 54.697761 | 7.282633 | 2.0 | 7.776 | 2 | 34.315 | 7.946 | 33.014 | 2 |
| 2025-04-15T22:28:00 | 54.697073 | 7.280806 | 2.0 | 7.791 | 2 | 34.345 | 7.955 | 33.038 | 2 |
| 2025-04-15T22:29:00 | 54.696388 | 7.278966 | 2.0 | 7.769 | 2 | 34.362 | 7.957 | 33.054 | 2 |
| 2025-04-15T22:30:00 | 54.695698 | 7.277133 | 2.0 | 7.764 | 2 | 34.360 | 7.943 | 33.065 | 2 |
| 2025-04-15T22:31:00 | 54.695003 | 7.275302 | 2.0 | 7.733 | 2 | 34.354 | 7.928 | 33.073 | 2 |
| 2025-04-15T22:32:00 | 54.694272 | 7.273507 | 2.0 | 7.807 | 2 | 34.354 | 7.917 | 33.083 | 2 |
| 2025-04-15T22:33:00 | 54.693487 | 7.271762 | 2.0 | 7.929 | 2 | 34.435 | 8.000 | 33.091 | 2 |
| 2025-04-15T22:34:00 | 54.692732 | 7.269997 | 2.0 | 7.970 | 2 | 34.536 | 8.102 | 33.102 | 2 |
| 2025-04-15T22:35:00 | 54.691996 | 7.268223 | 2.0 | 8.029 | 2 | 34.570 | 8.134 | 33.108 | 2 |
| 2025-04-15T22:36:00 | 54.691217 | 7.266494 | 2.0 | 8.292 | 2 | 34.659 | 8.252 | 33.092 | 2 |
| 2025-04-15T22:37:00 | 54.690452 | 7.264766 | 2.0 | 8.314 | 2 | 34.834 | 8.447 | 33.093 | 2 |
| 2025-04-15T22:38:00 | 54.689712 | 7.263023 | 2.0 | 8.299 | 2 | 34.846 | 8.472 | 33.082 | 2 |
| 2025-04-15T22:39:00 | 54.688947 | 7.261334 | 2.0 | 8.301 | 2 | 34.813 | 8.463 | 33.056 | 2 |
| 2025-04-15T22:40:00 | 54.688199 | 7.259624 | 2.0 | 8.320 | 2 | 34.802 | 8.470 | 33.038 | 2 |
| 2025-04-15T22:41:00 | 54.687460 | 7.257904 | 2.0 | 8.346 | 2 | 34.814 | 8.488 | 33.034 | 2 |
| 2025-04-15T22:42:00 | 54.686705 | 7.256183 | 2.0 | 8.370 | 2 | 34.843 | 8.514 | 33.040 | 2 |
| 2025-04-15T22:43:00 | 54.685956 | 7.254432 | 2.0 | 8.384 | 2 | 34.876 | 8.535 | 33.055 | 2 |
| 2025-04-15T22:44:00 | 54.685190 | 7.252692 | 2.0 | 8.399 | 2 | 34.903 | 8.553 | 33.066 | 2 |
| 2025-04-15T22:45:00 | 54.684427 | 7.250943 | 2.0 | 8.391 | 2 | 34.917 | 8.563 | 33.072 | 2 |
| 2025-04-15T22:46:00 | 54.683668 | 7.249210 | 2.0 | 8.395 | 2 | 34.924 | 8.557 | 33.085 | 2 |
| 2025-04-15T22:47:00 | 54.682897 | 7.247495 | 2.0 | 8.488 | 2 | 34.958 | 8.580 | 33.099 | 2 |
| 2025-04-15T22:48:00 | 54.682117 | 7.245812 | 2.0 | 8.520 | 2 | 35.045 | 8.658 | 33.117 | 2 |
| 2025-04-15T22:49:00 | 54.681370 | 7.244102 | 2.0 | 8.535 | 2 | 35.072 | 8.685 | 33.120 | 2 |
| 2025-04-15T22:50:00 | 54.680622 | 7.242409 | 2.0 | 8.580 | 2 | 35.089 | 8.703 | 33.121 | 2 |
| 2025-04-15T22:51:00 | 54.679874 | 7.240735 | 2.0 | 8.638 | 2 | 35.150 | 8.761 | 33.131 | 2 |
| 2025-04-15T22:52:00 | 54.679130 | 7.239045 | 2.0 | 8.626 | 2 | 35.191 | 8.797 | 33.140 | 2 |
| 2025-04-15T22:53:00 | 54.678421 | 7.237300 | 2.0 | 8.611 | 2 | 35.180 | 8.786 | 33.139 | 2 |
| 2025-04-15T22:54:00 | 54.677708 | 7.235556 | 2.0 | 8.607 | 2 | 35.171 | 8.775 | 33.140 | 2 |
| 2025-04-15T22:55:00 | 54.676975 | 7.233817 | 2.0 | 8.601 | 2 | 35.170 | 8.771 | 33.143 | 2 |
| 2025-04-15T22:56:00 | 54.676350 | 7.232010 | 2.0 | 8.575 | 2 | 35.167 | 8.762 | 33.148 | 2 |
| 2025-04-15T22:57:00 | 54.676229 | 7.230015 | 2.0 | 8.583 | 2 | 34.870 | 8.741 | 32.857 | 2 |
| 2025-04-15T22:58:00 | 54.676297 | 7.227965 | 2.0 | 8.584 | 2 | 35.181 | 8.750 | 33.174 | 2 |
| 2025-04-15T22:59:00 | 54.676428 | 7.225891 | 2.0 | 8.576 | 2 | 35.188 | 8.748 | 33.183 | 2 |
| 2025-04-15T23:00:00 | 54.676506 | 7.223793 | 2.0 | 8.557 | 2 | 35.203 | 8.739 | 33.207 | 2 |
| 2025-04-15T23:01:00 | 54.676047 | 7.221945 | 2.0 | 8.511 | 2 | 35.190 | 8.716 | 33.215 | 2 |
| 2025-04-15T23:02:00 | 54.674824 | 7.221357 | 2.0 | 8.499 | 2 | 35.150 | 8.673 | 33.214 | 2 |
| 2025-04-15T23:03:00 | 54.673795 | 7.222692 | 2.0 | 8.527 | 2 | 35.146 | 8.671 | 33.211 | 2 |
| 2025-04-15T23:04:00 | 54.673708 | 7.224828 | 2.0 | 8.564 | 2 | 35.178 | 8.699 | 33.219 | 2 |
| 2025-04-15T23:05:00 | 54.674313 | 7.226935 | 2.0 | 8.585 | 2 | 34.529 | 8.732 | 32.508 | 2 |
| 2025-04-15T23:06:00 | 54.674938 | 7.229187 | 2.0 | 8.583 | 2 | 35.220 | 8.750 | 33.215 | 2 |
| 2025-04-15T23:07:00 | 54.675509 | 7.231437 | 2.0 | 8.585 | 2 | 35.212 | 8.749 | 33.207 | 2 |
| 2025-04-15T23:08:00 | 54.676185 | 7.233438 | 2.0 | 8.585 | 2 | 35.201 | 8.749 | 33.196 | 2 |
| 2025-04-15T23:09:00 | 54.676870 | 7.235356 | 2.0 | 8.580 | 2 | 35.189 | 8.750 | 33.182 | 2 |
| 2025-04-15T23:10:00 | 54.677550 | 7.237229 | 2.0 | 8.574 | 2 | 35.180 | 8.745 | 33.177 | 2 |
| 2025-04-15T23:11:00 | 54.678319 | 7.238928 | 2.0 | 8.594 | 2 | 34.816 | 8.746 | 32.795 | 2 |
| 2025-04-15T23:12:00 | 54.679087 | 7.240647 | 2.0 | 8.607 | 2 | 35.166 | 8.760 | 33.149 | 2 |
| 2025-04-15T23:13:00 | 54.679821 | 7.242418 | 2.0 | 8.613 | 2 | 34.931 | 8.772 | 32.892 | 2 |
| 2025-04-15T23:14:00 | 54.680567 | 7.244140 | 2.0 | 8.628 | 2 | 35.124 | 8.781 | 33.085 | 2 |
| 2025-04-15T23:15:00 | 54.681318 | 7.245832 | 2.0 | 8.644 | 2 | 34.981 | 8.795 | 32.922 | 2 |
| 2025-04-15T23:16:00 | 54.682069 | 7.247538 | 2.0 | 8.661 | 2 | 34.825 | 8.811 | 32.745 | 2 |
| 2025-04-15T23:17:00 | 54.682820 | 7.249252 | 2.0 | 8.653 | 2 | 34.923 | 8.827 | 32.832 | 2 |
| 2025-04-15T23:18:00 | 54.683613 | 7.251028 | 2.0 | 8.582 | 2 | 34.906 | 8.801 | 32.839 | 2 |
| 2025-04-15T23:19:00 | 54.684432 | 7.252808 | 2.0 | 8.573 | 2 | 35.130 | 8.751 | 33.119 | 2 |
| 2025-04-15T23:20:00 | 54.685217 | 7.254641 | 2.0 | 8.574 | 2 | 34.838 | 8.740 | 32.824 | 2 |
| 2025-04-15T23:21:00 | 54.685999 | 7.256497 | 2.0 | 8.567 | 2 | 35.112 | 8.740 | 33.111 | 2 |
| 2025-04-15T23:22:00 | 54.686830 | 7.258279 | 2.0 | 8.502 | 2 | 34.869 | 8.727 | 32.868 | 2 |
| 2025-04-15T23:23:00 | 54.687667 | 7.260052 | 2.0 | 8.464 | 2 | 34.856 | 8.663 | 32.914 | 2 |
| 2025-04-15T23:24:00 | 54.688453 | 7.261906 | 2.0 | 8.447 | 2 | 34.707 | 8.630 | 32.789 | 2 |
| 2025-04-15T23:25:00 | 54.689218 | 7.263809 | 2.0 | 8.431 | 2 | 34.707 | 8.612 | 32.805 | 2 |
| 2025-04-15T23:26:00 | 54.690011 | 7.265643 | 2.0 | 8.414 | 2 | 34.753 | 8.599 | 32.866 | 2 |
| 2025-04-15T23:27:00 | 54.690811 | 7.267443 | 2.0 | 8.389 | 2 | 34.753 | 8.580 | 32.884 | 2 |
| 2025-04-15T23:28:00 | 54.691590 | 7.269235 | 2.0 | 8.363 | 2 | 34.550 | 8.553 | 32.695 | 2 |
| 2025-04-15T23:29:00 | 54.692348 | 7.271020 | 2.0 | 8.364 | 2 | 34.637 | 8.534 | 32.804 | 2 |
| 2025-04-15T23:30:00 | 54.693136 | 7.272732 | 2.0 | 8.363 | 2 | 34.716 | 8.532 | 32.889 | 2 |
| 2025-04-15T23:31:00 | 54.693920 | 7.274447 | 2.0 | 8.361 | 2 | 34.730 | 8.533 | 32.903 | 2 |
| 2025-04-15T23:32:00 | 54.694685 | 7.276195 | 2.0 | 8.338 | 2 | 34.568 | 8.526 | 32.739 | 2 |
| 2025-04-15T23:33:00 | 54.695458 | 7.277966 | 2.0 | 8.311 | 2 | 34.705 | 8.504 | 32.904 | 2 |
| 2025-04-15T23:34:00 | 54.696324 | 7.279489 | 2.0 | 8.300 | 2 | 34.501 | 8.478 | 32.713 | 2 |
| 2025-04-15T23:35:00 | 54.697358 | 7.280385 | 2.0 | 8.289 | 2 | 34.250 | 8.470 | 32.457 | 2 |
| 2025-04-15T23:36:00 | 54.698423 | 7.281198 | 2.0 | 8.258 | 2 | 34.751 | 8.455 | 32.998 | 2 |
| 2025-04-15T23:37:00 | 54.699497 | 7.282240 | 2.0 | 8.124 | 2 | 34.745 | 8.402 | 33.042 | 2 |
| 2025-04-15T23:38:00 | 54.700565 | 7.283424 | 2.0 | 8.047 | 2 | 34.679 | 8.287 | 33.080 | 2 |
| 2025-04-15T23:39:00 | 54.701209 | 7.285273 | 2.0 | 7.967 | 2 | 34.625 | 8.218 | 33.088 | 2 |
| 2025-04-15T23:40:00 | 54.700962 | 7.287460 | 2.0 | 7.886 | 2 | 34.546 | 8.130 | 33.087 | 2 |
| 2025-04-15T23:41:00 | 54.699886 | 7.288626 | 2.0 | 7.866 | 2 | 34.462 | 8.057 | 33.066 | 2 |
| 2025-04-15T23:42:00 | 54.698754 | 7.287923 | 2.0 | 8.002 | 2 | 34.448 | 8.049 | 33.059 | 2 |
| 2025-04-15T23:43:00 | 54.698055 | 7.286214 | 2.0 | 8.146 | 2 | 34.579 | 8.201 | 33.055 | 2 |
| 2025-04-15T23:44:00 | 54.697306 | 7.284626 | 2.0 | 8.296 | 2 | 34.703 | 8.360 | 33.037 | 2 |
| 2025-04-15T23:45:00 | 54.696571 | 7.283092 | 2.0 | 8.296 | 2 | 34.767 | 8.443 | 33.026 | 2 |
| 2025-04-15T23:46:00 | 54.695861 | 7.281458 | 2.0 | 8.308 | 2 | 34.771 | 8.461 | 33.014 | 2 |
| 2025-04-15T23:47:00 | 54.695151 | 7.279714 | 2.0 | 8.334 | 2 | 34.781 | 8.474 | 33.012 | 2 |
| 2025-04-15T23:48:00 | 54.694412 | 7.277947 | 2.0 | 8.367 | 2 | 34.811 | 8.507 | 33.013 | 2 |
| 2025-04-15T23:49:00 | 54.693696 | 7.276143 | 2.0 | 8.374 | 2 | 34.840 | 8.532 | 33.020 | 2 |
| 2025-04-15T23:50:00 | 54.692946 | 7.274358 | 2.0 | 8.382 | 2 | 34.852 | 8.542 | 33.023 | 2 |
| 2025-04-15T23:51:00 | 54.692178 | 7.272575 | 2.0 | 8.387 | 2 | 34.864 | 8.548 | 33.030 | 2 |
| 2025-04-15T23:52:00 | 54.691410 | 7.270792 | 2.0 | 8.417 | 2 | 34.881 | 8.559 | 33.038 | 2 |
| 2025-04-15T23:53:00 | 54.690628 | 7.269019 | 2.0 | 8.463 | 2 | 34.915 | 8.587 | 33.047 | 2 |
| 2025-04-15T23:54:00 | 54.689861 | 7.267213 | 2.0 | 8.491 | 2 | 34.967 | 8.631 | 33.061 | 2 |
| 2025-04-15T23:55:00 | 54.689094 | 7.265428 | 2.0 | 8.512 | 2 | 35.004 | 8.654 | 33.078 | 2 |
| 2025-04-15T23:56:00 | 54.688302 | 7.263664 | 2.0 | 8.567 | 2 | 35.048 | 8.690 | 33.091 | 2 |
| 2025-04-15T23:57:00 | 54.687542 | 7.261876 | 2.0 | 8.596 | 2 | 35.096 | 8.735 | 33.099 | 2 |
| 2025-04-15T23:58:00 | 54.686772 | 7.260115 | 2.0 | 8.613 | 2 | 35.128 | 8.762 | 33.107 | 2 |
| 2025-04-15T23:59:00 | 54.685977 | 7.258375 | 2.0 | 8.624 | 2 | 35.120 | 8.779 | 33.083 | 2 |
| 2025-04-16T00:00:00 | 54.685198 | 7.256604 | 2.0 | 8.624 | 2 | 35.169 | 8.788 | 33.126 | 2 |
| 2025-04-16T00:01:00 | 54.684431 | 7.254841 | 2.0 | 8.626 | 2 | 35.171 | 8.789 | 33.127 | 2 |
| 2025-04-16T00:02:00 | 54.683657 | 7.253091 | 2.0 | 8.623 | 2 | 35.170 | 8.792 | 33.123 | 2 |
| 2025-04-16T00:03:00 | 54.682906 | 7.251308 | 2.0 | 8.592 | 2 | 35.174 | 8.780 | 33.138 | 2 |
| 2025-04-16T00:04:00 | 54.682150 | 7.249544 | 2.0 | 8.579 | 2 | 35.163 | 8.760 | 33.146 | 2 |
| 2025-04-16T00:05:00 | 54.681361 | 7.247823 | 2.0 | 8.569 | 2 | 35.163 | 8.741 | 33.163 | 2 |
| 2025-04-16T00:06:00 | 54.680577 | 7.246093 | 2.0 | 8.568 | 2 | 34.918 | 8.738 | 32.910 | 2 |
| 2025-04-16T00:07:00 | 54.679807 | 7.244361 | 2.0 | 8.551 | 2 | 34.695 | 8.731 | 32.683 | 2 |
| 2025-04-16T00:08:00 | 54.679047 | 7.242610 | 2.0 | 8.530 | 2 | 34.780 | 8.713 | 32.788 | 2 |
| 2025-04-16T00:09:00 | 54.678278 | 7.240863 | 2.0 | 8.528 | 2 | 35.150 | 8.696 | 33.192 | 2 |
| 2025-04-16T00:10:00 | 54.677517 | 7.239111 | 2.0 | 8.526 | 2 | 35.144 | 8.696 | 33.186 | 2 |
| 2025-04-16T00:11:00 | 54.676761 | 7.237356 | 2.0 | 8.516 | 2 | 34.554 | 8.691 | 32.572 | 2 |
| 2025-04-16T00:12:00 | 54.676014 | 7.235600 | 2.0 | 8.521 | 2 | 34.810 | 8.684 | 32.847 | 2 |
| 2025-04-16T00:13:00 | 54.675449 | 7.233714 | 2.0 | 8.532 | 2 | 35.148 | 8.690 | 33.195 | 2 |
| 2025-04-16T00:14:00 | 54.675300 | 7.231632 | 2.0 | 8.535 | 2 | 35.164 | 8.699 | 33.204 | 2 |
| 2025-04-16T00:15:00 | 54.675328 | 7.229500 | 2.0 | 8.535 | 2 | 35.175 | 8.701 | 33.213 | 2 |
| 2025-04-16T00:16:00 | 54.675422 | 7.227319 | 2.0 | 8.535 | 2 | 35.130 | 8.701 | 33.166 | 2 |
| 2025-04-16T00:17:00 | 54.675424 | 7.225141 | 2.0 | 8.538 | 2 | 35.156 | 8.701 | 33.194 | 2 |
| 2025-04-16T00:18:00 | 54.674733 | 7.223481 | 2.0 | 8.539 | 2 | 34.955 | 8.703 | 32.981 | 2 |
| 2025-04-16T00:19:00 | 54.673646 | 7.223582 | 2.0 | 8.543 | 2 | 34.627 | 8.704 | 32.636 | 2 |
| 2025-04-16T00:20:00 | 54.673028 | 7.225328 | 2.0 | 8.536 | 2 | 34.934 | 8.707 | 32.955 | 2 |
| 2025-04-16T00:21:00 | 54.673266 | 7.227431 | 2.0 | 8.530 | 2 | 34.806 | 8.701 | 32.827 | 2 |
| 2025-04-16T00:22:00 | 54.673742 | 7.229552 | 2.0 | 8.531 | 2 | 34.833 | 8.698 | 32.858 | 2 |
| 2025-04-16T00:23:00 | 54.674255 | 7.231645 | 2.0 | 8.533 | 2 | 34.842 | 8.698 | 32.867 | 2 |
| 2025-04-16T00:24:00 | 54.674836 | 7.233639 | 2.0 | 8.533 | 2 | 35.012 | 8.700 | 33.043 | 2 |
| 2025-04-16T00:25:00 | 54.675450 | 7.235575 | 2.0 | 8.534 | 2 | 35.001 | 8.699 | 33.033 | 2 |
| 2025-04-16T00:26:00 | 54.676097 | 7.237460 | 2.0 | 8.527 | 2 | 34.827 | 8.699 | 32.850 | 2 |
| 2025-04-16T00:27:00 | 54.676805 | 7.239268 | 2.0 | 8.519 | 2 | 34.964 | 8.693 | 33.000 | 2 |
| 2025-04-16T00:28:00 | 54.677563 | 7.241022 | 2.0 | 8.519 | 2 | 34.935 | 8.686 | 32.976 | 2 |
| 2025-04-16T00:29:00 | 54.678339 | 7.242762 | 2.0 | 8.532 | 2 | 34.772 | 8.689 | 32.802 | 2 |
| 2025-04-16T00:30:00 | 54.679108 | 7.244503 | 2.0 | 8.536 | 2 | 35.035 | 8.700 | 33.068 | 2 |
| 2025-04-16T00:31:00 | 54.679853 | 7.246252 | 2.0 | 8.538 | 2 | 34.892 | 8.702 | 32.916 | 2 |
| 2025-04-16T00:32:00 | 54.680597 | 7.247999 | 2.0 | 8.538 | 2 | 34.875 | 8.705 | 32.895 | 2 |
| 2025-04-16T00:33:00 | 54.681365 | 7.249705 | 2.0 | 8.548 | 2 | 34.863 | 8.705 | 32.883 | 2 |
| 2025-04-16T00:34:00 | 54.682125 | 7.251423 | 2.0 | 8.575 | 2 | 34.946 | 8.721 | 32.955 | 2 |
| 2025-04-16T00:35:00 | 54.682887 | 7.253132 | 2.0 | 8.575 | 2 | 34.844 | 8.739 | 32.831 | 2 |
| 2025-04-16T00:36:00 | 54.683636 | 7.254858 | 2.0 | 8.585 | 2 | 34.794 | 8.741 | 32.777 | 2 |
| 2025-04-16T00:38:00 | 54.685130 | 7.258282 | 2.0 | 8.614 | 2 | 35.162 | 8.767 | 33.138 | 2 |
| 2025-04-16T00:39:00 | 54.685893 | 7.259952 | 2.0 | 8.623 | 2 | 35.169 | 8.784 | 33.129 | 2 |
| 2025-04-16T00:40:00 | 54.686645 | 7.261665 | 2.0 | 8.627 | 2 | 35.171 | 8.789 | 33.127 | 2 |
| 2025-04-16T00:41:00 | 54.687426 | 7.263423 | 2.0 | 8.633 | 2 | 35.172 | 8.793 | 33.124 | 2 |
| 2025-04-16T00:42:00 | 54.688210 | 7.265234 | 2.0 | 8.622 | 2 | 35.177 | 8.798 | 33.125 | 2 |
| 2025-04-16T00:43:00 | 54.689018 | 7.267060 | 2.0 | 8.614 | 2 | 35.165 | 8.786 | 33.123 | 2 |
| 2025-04-16T00:44:00 | 54.689828 | 7.268866 | 2.0 | 8.598 | 2 | 35.148 | 8.778 | 33.113 | 2 |
| 2025-04-16T00:45:00 | 54.690591 | 7.270667 | 2.0 | 8.549 | 2 | 35.125 | 8.757 | 33.109 | 2 |
| 2025-04-16T00:46:00 | 54.691340 | 7.272460 | 2.0 | 8.515 | 2 | 35.075 | 8.706 | 33.104 | 2 |
| 2025-04-16T00:47:00 | 54.692111 | 7.274209 | 2.0 | 8.501 | 2 | 34.872 | 8.683 | 32.913 | 2 |
| 2025-04-16T00:48:00 | 54.692888 | 7.275944 | 2.0 | 8.472 | 2 | 35.009 | 8.664 | 33.074 | 2 |
| 2025-04-16T00:49:00 | 54.693666 | 7.277664 | 2.0 | 8.443 | 2 | 34.976 | 8.638 | 33.064 | 2 |
| 2025-04-16T00:50:00 | 54.694443 | 7.279374 | 2.0 | 8.414 | 2 | 34.940 | 8.607 | 33.055 | 2 |
| 2025-04-16T00:51:00 | 54.695341 | 7.280812 | 2.0 | 8.409 | 2 | 34.906 | 8.584 | 33.041 | 2 |
| 2025-04-16T00:52:00 | 54.696425 | 7.281812 | 2.0 | 8.408 | 2 | 34.891 | 8.578 | 33.030 | 2 |
| 2025-04-16T00:53:00 | 54.697545 | 7.282748 | 2.0 | 8.391 | 2 | 34.885 | 8.574 | 33.028 | 2 |
| 2025-04-16T00:54:00 | 54.698695 | 7.283617 | 2.0 | 8.374 | 2 | 34.866 | 8.557 | 33.024 | 2 |
| 2025-04-16T00:55:00 | 54.699740 | 7.284836 | 2.0 | 8.371 | 2 | 34.844 | 8.543 | 33.014 | 2 |
| 2025-04-16T00:56:00 | 54.700123 | 7.287022 | 2.0 | 8.356 | 2 | 34.830 | 8.535 | 33.007 | 2 |
| 2025-04-16T00:57:00 | 54.699447 | 7.288892 | 2.0 | 8.349 | 2 | 34.816 | 8.523 | 33.003 | 2 |
| 2025-04-16T00:58:00 | 54.698255 | 7.289120 | 2.0 | 8.344 | 2 | 34.808 | 8.516 | 33.001 | 2 |
| 2025-04-16T00:59:00 | 54.697473 | 7.287657 | 2.0 | 8.345 | 2 | 34.807 | 8.513 | 33.003 | 2 |
| 2025-04-16T01:00:00 | 54.696839 | 7.286094 | 2.0 | 8.358 | 2 | 34.815 | 8.516 | 33.009 | 2 |
| 2025-04-16T01:01:00 | 54.696097 | 7.284719 | 2.0 | 8.368 | 2 | 34.810 | 8.528 | 32.992 | 2 |
| 2025-04-16T01:02:00 | 54.695323 | 7.283182 | 2.0 | 8.395 | 2 | 34.846 | 8.540 | 33.019 | 2 |
| 2025-04-16T01:03:00 | 54.694539 | 7.281533 | 2.0 | 8.406 | 2 | 34.836 | 8.563 | 32.987 | 2 |
| 2025-04-16T01:04:00 | 54.693744 | 7.279840 | 2.0 | 8.425 | 2 | 34.891 | 8.575 | 33.033 | 2 |
| 2025-04-16T01:05:00 | 54.692958 | 7.278093 | 2.0 | 8.463 | 2 | 34.923 | 8.598 | 33.045 | 2 |
| 2025-04-16T01:06:00 | 54.692168 | 7.276345 | 2.0 | 8.493 | 2 | 34.965 | 8.633 | 33.057 | 2 |
| 2025-04-16T01:07:00 | 54.691420 | 7.274578 | 2.0 | 8.505 | 2 | 35.005 | 8.662 | 33.072 | 2 |
| 2025-04-16T01:08:00 | 54.690668 | 7.272836 | 2.0 | 8.533 | 2 | 34.996 | 8.671 | 33.054 | 2 |
| 2025-04-16T01:09:00 | 54.689904 | 7.271118 | 2.0 | 8.585 | 2 | 35.042 | 8.710 | 33.066 | 2 |
| 2025-04-16T01:10:00 | 54.689150 | 7.269396 | 2.0 | 8.604 | 2 | 34.803 | 8.751 | 32.777 | 2 |
| 2025-04-16T01:11:00 | 54.688392 | 7.267670 | 2.0 | 8.612 | 2 | 34.763 | 8.768 | 32.720 | 2 |
| 2025-04-16T01:12:00 | 54.687636 | 7.265912 | 2.0 | 8.632 | 2 | 35.159 | 8.783 | 33.120 | 2 |
| 2025-04-16T01:13:00 | 54.686882 | 7.264144 | 2.0 | 8.630 | 2 | 35.043 | 8.796 | 32.986 | 2 |
| 2025-04-16T01:14:00 | 54.686119 | 7.262395 | 2.0 | 8.626 | 2 | 34.741 | 8.793 | 32.674 | 2 |
| 2025-04-16T01:15:00 | 54.685345 | 7.260649 | 2.0 | 8.621 | 2 | 34.892 | 8.791 | 32.833 | 2 |
| 2025-04-16T01:16:00 | 54.684581 | 7.258883 | 2.0 | 8.601 | 2 | 34.727 | 8.782 | 32.669 | 2 |
| 2025-04-16T01:17:00 | 54.683808 | 7.257133 | 2.0 | 8.568 | 2 | 35.164 | 8.764 | 33.143 | 2 |
| 2025-04-16T01:18:00 | 54.683024 | 7.255408 | 2.0 | 8.562 | 2 | 34.965 | 8.731 | 32.965 | 2 |
| 2025-04-16T01:19:00 | 54.682255 | 7.253656 | 2.0 | 8.559 | 2 | 35.036 | 8.729 | 33.042 | 2 |
| 2025-04-16T01:20:00 | 54.681497 | 7.251900 | 2.0 | 8.541 | 2 | 34.947 | 8.722 | 32.955 | 2 |
| 2025-04-16T01:21:00 | 54.680734 | 7.250174 | 2.0 | 8.536 | 2 | 34.963 | 8.707 | 32.986 | 2 |
| 2025-04-16T01:22:00 | 54.679972 | 7.248442 | 2.0 | 8.535 | 2 | 35.093 | 8.703 | 33.126 | 2 |
| 2025-04-16T01:23:00 | 54.679224 | 7.246702 | 2.0 | 8.528 | 2 | 34.950 | 8.701 | 32.978 | 2 |
| 2025-04-16T01:24:00 | 54.678469 | 7.244987 | 2.0 | 8.518 | 2 | 34.935 | 8.694 | 32.968 | 2 |
| 2025-04-16T01:25:00 | 54.677706 | 7.243288 | 2.0 | 8.513 | 2 | 34.954 | 8.684 | 32.998 | 2 |
| 2025-04-16T01:26:00 | 54.676945 | 7.241579 | 2.0 | 8.519 | 2 | 34.960 | 8.680 | 33.008 | 2 |
| 2025-04-16T01:27:00 | 54.676194 | 7.239875 | 2.0 | 8.519 | 2 | 35.067 | 8.687 | 33.113 | 2 |
| 2025-04-16T01:28:00 | 54.675458 | 7.238160 | 2.0 | 8.528 | 2 | 35.047 | 8.686 | 33.093 | 2 |
| 2025-04-16T01:29:00 | 54.674743 | 7.236419 | 2.0 | 8.531 | 2 | 34.921 | 8.695 | 32.953 | 2 |
| 2025-04-16T01:30:00 | 54.674365 | 7.234365 | 2.0 | 8.535 | 2 | 35.095 | 8.699 | 33.131 | 2 |
| 2025-04-16T01:31:00 | 54.674283 | 7.232131 | 2.0 | 8.535 | 2 | 35.055 | 8.702 | 33.087 | 2 |
| 2025-04-16T01:32:00 | 54.674160 | 7.229875 | 2.0 | 8.542 | 2 | 35.127 | 8.702 | 33.162 | 2 |
| 2025-04-16T01:33:00 | 54.673971 | 7.227630 | 2.0 | 8.589 | 2 | 35.001 | 8.718 | 33.015 | 2 |
| 2025-04-16T01:34:00 | 54.673581 | 7.225624 | 2.0 | 8.588 | 2 | 34.938 | 8.751 | 32.918 | 2 |
| 2025-04-16T01:35:00 | 54.672761 | 7.224580 | 2.0 | 8.588 | 2 | 35.104 | 8.751 | 33.092 | 2 |
| 2025-04-16T01:36:00 | 54.671768 | 7.224809 | 2.0 | 8.603 | 2 | 34.946 | 8.756 | 32.922 | 2 |
| 2025-04-16T01:37:00 | 54.671023 | 7.226238 | 2.0 | 8.609 | 2 | 35.036 | 8.768 | 33.005 | 2 |
| 2025-04-16T01:38:00 | 54.670875 | 7.228410 | 2.0 | 8.612 | 2 | 34.998 | 8.774 | 32.960 | 2 |
| 2025-04-16T01:39:00 | 54.671540 | 7.230574 | 2.0 | 8.605 | 2 | 34.850 | 8.776 | 32.803 | 2 |
| 2025-04-16T01:40:00 | 54.672413 | 7.232760 | 2.0 | 8.599 | 2 | 34.779 | 8.770 | 32.734 | 2 |
| 2025-04-16T01:41:00 | 54.673280 | 7.235067 | 2.0 | 8.559 | 2 | 34.987 | 8.763 | 32.959 | 2 |
| 2025-04-16T01:42:00 | 54.674222 | 7.237257 | 2.0 | 8.529 | 2 | 34.907 | 8.718 | 32.917 | 2 |
| 2025-04-16T01:43:00 | 54.675075 | 7.239204 | 2.0 | 8.516 | 2 | 34.922 | 8.696 | 32.953 | 2 |
| 2025-04-16T01:44:00 | 54.675815 | 7.240994 | 2.0 | 8.512 | 2 | 34.755 | 8.684 | 32.789 | 2 |
| 2025-04-16T01:45:00 | 54.676509 | 7.242654 | 2.0 | 8.515 | 2 | 34.859 | 8.682 | 32.900 | 2 |
| 2025-04-16T01:46:00 | 54.677190 | 7.244224 | 2.0 | 8.515 | 2 | 34.826 | 8.683 | 32.864 | 2 |
| 2025-04-16T01:47:00 | 54.677876 | 7.245740 | 2.0 | 8.516 | 2 | 34.910 | 8.682 | 32.953 | 2 |
| 2025-04-16T01:48:00 | 54.678566 | 7.247246 | 2.0 | 8.518 | 2 | 34.808 | 8.684 | 32.845 | 2 |
| 2025-04-16T01:49:00 | 54.679250 | 7.248761 | 2.0 | 8.516 | 2 | 34.573 | 8.685 | 32.597 | 2 |
| 2025-04-16T01:50:00 | 54.679966 | 7.250279 | 2.0 | 8.508 | 2 | 35.113 | 8.681 | 33.167 | 2 |
| 2025-04-16T01:51:00 | 54.680712 | 7.251787 | 2.0 | 8.557 | 2 | 34.803 | 8.687 | 32.836 | 2 |
| 2025-04-16T01:52:00 | 54.681428 | 7.253351 | 2.0 | 8.579 | 2 | 34.915 | 8.725 | 32.919 | 2 |
| 2025-04-16T01:53:00 | 54.682095 | 7.254970 | 2.0 | 8.575 | 2 | 34.996 | 8.743 | 32.987 | 2 |
| 2025-04-16T01:54:00 | 54.682763 | 7.256595 | 2.0 | 8.570 | 2 | 34.966 | 8.739 | 32.959 | 2 |
| 2025-04-16T01:55:00 | 54.683462 | 7.258192 | 2.0 | 8.591 | 2 | 34.863 | 8.737 | 32.853 | 2 |
| 2025-04-16T01:56:00 | 54.684172 | 7.259782 | 2.0 | 8.613 | 2 | 34.948 | 8.759 | 32.921 | 2 |
| 2025-04-16T01:57:00 | 54.684886 | 7.261372 | 2.0 | 8.635 | 2 | 35.098 | 8.783 | 33.056 | 2 |
| 2025-04-16T01:58:00 | 54.685601 | 7.262986 | 2.0 | 8.645 | 2 | 35.145 | 8.802 | 33.087 | 2 |
| 2025-04-16T01:59:00 | 54.686309 | 7.264614 | 2.0 | 8.645 | 2 | 35.110 | 8.810 | 33.043 | 2 |
| 2025-04-16T02:00:00 | 54.687008 | 7.266241 | 2.0 | 8.633 | 2 | 34.967 | 8.810 | 32.894 | 2 |
| 2025-04-16T02:01:00 | 54.687706 | 7.267865 | 2.0 | 8.584 | 2 | 34.993 | 8.786 | 32.943 | 2 |
| 2025-04-16T02:02:00 | 54.688434 | 7.269458 | 2.0 | 8.580 | 2 | 35.010 | 8.753 | 32.992 | 2 |
| 2025-04-16T02:03:00 | 54.689167 | 7.271044 | 2.0 | 8.570 | 2 | 34.911 | 8.747 | 32.894 | 2 |
| 2025-04-16T02:04:00 | 54.689864 | 7.272656 | 2.0 | 8.561 | 2 | 34.927 | 8.736 | 32.921 | 2 |
| 2025-04-16T02:05:00 | 54.690543 | 7.274290 | 2.0 | 8.480 | 2 | 34.949 | 8.723 | 32.956 | 2 |
| 2025-04-16T02:06:00 | 54.691221 | 7.275915 | 2.0 | 8.456 | 2 | 34.962 | 8.650 | 33.038 | 2 |
| 2025-04-16T02:07:00 | 54.691916 | 7.277523 | 2.0 | 8.420 | 2 | 34.836 | 8.619 | 32.934 | 2 |
| 2025-04-16T02:08:00 | 54.692620 | 7.279125 | 2.0 | 8.417 | 2 | 34.836 | 8.588 | 32.963 | 2 |
| 2025-04-16T02:09:00 | 54.693439 | 7.280413 | 2.0 | 8.411 | 2 | 34.785 | 8.583 | 32.914 | 2 |
| 2025-04-16T02:10:00 | 54.694528 | 7.280777 | 2.0 | 8.402 | 2 | 34.809 | 8.575 | 32.947 | 2 |
| 2025-04-16T02:11:00 | 54.695683 | 7.280970 | 2.0 | 8.398 | 2 | 34.796 | 8.571 | 32.937 | 2 |
| 2025-04-16T02:12:00 | 54.696745 | 7.281661 | 2.0 | 8.379 | 2 | 34.791 | 8.561 | 32.941 | 2 |
| 2025-04-16T02:13:00 | 54.697365 | 7.283088 | 2.0 | 8.372 | 2 | 34.754 | 8.546 | 32.916 | 2 |
| 2025-04-16T02:14:00 | 54.697324 | 7.284804 | 2.0 | 8.363 | 2 | 34.843 | 8.537 | 33.018 | 2 |
| 2025-04-16T02:15:00 | 54.696663 | 7.286058 | 2.0 | 8.361 | 2 | 34.816 | 8.531 | 32.996 | 2 |
| 2025-04-16T02:16:00 | 54.695664 | 7.286338 | 2.0 | 8.360 | 2 | 34.838 | 8.529 | 33.021 | 2 |
| 2025-04-16T02:17:00 | 54.694710 | 7.285457 | 2.0 | 8.366 | 2 | 34.818 | 8.527 | 33.001 | 2 |
| 2025-04-16T02:18:00 | 54.694024 | 7.283961 | 2.0 | 8.379 | 2 | 34.851 | 8.536 | 33.028 | 2 |
| 2025-04-16T02:19:00 | 54.693305 | 7.282524 | 2.0 | 8.409 | 2 | 34.859 | 8.551 | 33.022 | 2 |
| 2025-04-16T02:20:00 | 54.692590 | 7.280965 | 2.0 | 8.399 | 2 | 34.810 | 8.571 | 32.952 | 2 |
| 2025-04-16T02:21:00 | 54.691847 | 7.279315 | 2.0 | 8.412 | 2 | 34.847 | 8.568 | 32.994 | 2 |
| 2025-04-16T02:22:00 | 54.691098 | 7.277649 | 2.0 | 8.403 | 2 | 34.875 | 8.577 | 33.015 | 2 |
| 2025-04-16T02:23:00 | 54.690367 | 7.275948 | 2.0 | 8.397 | 2 | 34.923 | 8.569 | 33.073 | 2 |
| 2025-04-16T02:24:00 | 54.689651 | 7.274218 | 2.0 | 8.462 | 2 | 34.887 | 8.576 | 33.028 | 2 |
| 2025-04-16T02:25:00 | 54.688928 | 7.272509 | 2.0 | 8.510 | 2 | 34.972 | 8.634 | 33.063 | 2 |
| 2025-04-16T02:26:00 | 54.688196 | 7.270829 | 2.0 | 8.530 | 2 | 35.053 | 8.675 | 33.110 | 2 |
| 2025-04-16T02:27:00 | 54.687462 | 7.269160 | 2.0 | 8.539 | 2 | 35.072 | 8.696 | 33.110 | 2 |
| 2025-04-16T02:28:00 | 54.686729 | 7.267490 | 2.0 | 8.588 | 2 | 35.071 | 8.709 | 33.097 | 2 |
| 2025-04-16T02:29:00 | 54.685986 | 7.265837 | 2.0 | 8.621 | 2 | 35.134 | 8.761 | 33.114 | 2 |
| 2025-04-16T02:30:00 | 54.685243 | 7.264174 | 2.0 | 8.627 | 2 | 35.160 | 8.785 | 33.119 | 2 |
| 2025-04-16T02:31:00 | 54.684514 | 7.262479 | 2.0 | 8.623 | 2 | 35.181 | 8.789 | 33.137 | 2 |
| 2025-04-16T02:32:00 | 54.683792 | 7.260759 | 2.0 | 8.613 | 2 | 35.181 | 8.785 | 33.141 | 2 |
| 2025-04-16T02:33:00 | 54.683052 | 7.259058 | 2.0 | 8.599 | 2 | 35.169 | 8.777 | 33.136 | 2 |
| 2025-04-16T02:34:00 | 54.682303 | 7.257384 | 2.0 | 8.571 | 2 | 35.163 | 8.761 | 33.145 | 2 |
| 2025-04-16T02:35:00 | 54.681559 | 7.255673 | 2.0 | 8.556 | 2 | 35.146 | 8.731 | 33.155 | 2 |
| 2025-04-16T02:36:00 | 54.680815 | 7.253957 | 2.0 | 8.555 | 2 | 35.151 | 8.722 | 33.169 | 2 |
| 2025-04-16T02:37:00 | 54.680059 | 7.252280 | 2.0 | 8.568 | 2 | 35.161 | 8.724 | 33.177 | 2 |
| 2025-04-16T02:38:00 | 54.679296 | 7.250585 | 2.0 | 8.564 | 2 | 35.178 | 8.733 | 33.187 | 2 |
| 2025-04-16T02:39:00 | 54.678540 | 7.248899 | 2.0 | 8.549 | 2 | 35.182 | 8.726 | 33.197 | 2 |
| 2025-04-16T02:40:00 | 54.677777 | 7.247219 | 2.0 | 8.529 | 2 | 35.188 | 8.713 | 33.216 | 2 |
| 2025-04-16T02:41:00 | 54.677010 | 7.245542 | 2.0 | 8.564 | 2 | 35.194 | 8.699 | 33.235 | 2 |
| 2025-04-16T02:42:00 | 54.676250 | 7.243877 | 2.0 | 8.598 | 2 | 35.228 | 8.735 | 33.237 | 2 |
| 2025-04-16T02:43:00 | 54.675502 | 7.242222 | 2.0 | 8.624 | 2 | 35.247 | 8.767 | 33.227 | 2 |
| 2025-04-16T02:44:00 | 54.674767 | 7.240549 | 2.0 | 8.639 | 2 | 35.260 | 8.790 | 33.219 | 2 |
| 2025-04-16T02:45:00 | 54.674049 | 7.238849 | 2.0 | 8.642 | 2 | 35.267 | 8.803 | 33.214 | 2 |
| 2025-04-16T02:46:00 | 54.673617 | 7.236850 | 2.0 | 8.640 | 2 | 35.267 | 8.806 | 33.211 | 2 |
| 2025-04-16T02:47:00 | 54.673687 | 7.234581 | 2.0 | 8.635 | 2 | 35.263 | 8.804 | 33.209 | 2 |
| 2025-04-16T02:48:00 | 54.673756 | 7.232278 | 2.0 | 8.629 | 2 | 35.260 | 8.799 | 33.211 | 2 |
| 2025-04-16T02:49:00 | 54.673331 | 7.230473 | 2.0 | 8.621 | 2 | 35.257 | 8.792 | 33.214 | 2 |
| 2025-04-16T02:50:00 | 54.672510 | 7.229787 | 2.0 | 8.618 | 2 | 35.250 | 8.785 | 33.213 | 2 |
| 2025-04-16T02:51:00 | 54.671586 | 7.230353 | 2.0 | 8.618 | 2 | 35.244 | 8.783 | 33.209 | 2 |
| 2025-04-16T02:52:00 | 54.670983 | 7.231902 | 2.0 | 8.616 | 2 | 35.238 | 8.783 | 33.203 | 2 |
| 2025-04-16T02:53:00 | 54.671122 | 7.233806 | 2.0 | 8.618 | 2 | 35.232 | 8.782 | 33.197 | 2 |
| 2025-04-16T02:54:00 | 54.671814 | 7.235470 | 2.0 | 8.620 | 2 | 35.234 | 8.783 | 33.198 | 2 |
| 2025-04-16T02:55:00 | 54.672551 | 7.237201 | 2.0 | 8.626 | 2 | 35.239 | 8.787 | 33.200 | 2 |
| 2025-04-16T02:56:00 | 54.673297 | 7.238957 | 2.0 | 8.631 | 2 | 35.247 | 8.793 | 33.203 | 2 |
| 2025-04-16T02:57:00 | 54.674051 | 7.240734 | 2.0 | 8.633 | 2 | 35.254 | 8.797 | 33.206 | 2 |
| 2025-04-16T02:58:00 | 54.674820 | 7.242516 | 2.0 | 8.633 | 2 | 35.259 | 8.798 | 33.211 | 2 |
| 2025-04-16T02:59:00 | 54.675596 | 7.244259 | 2.0 | 8.629 | 2 | 35.263 | 8.798 | 33.215 | 2 |
| 2025-04-16T03:00:00 | 54.676393 | 7.245929 | 2.0 | 8.624 | 2 | 35.269 | 8.794 | 33.225 | 2 |
| 2025-04-16T03:01:00 | 54.677169 | 7.247581 | 2.0 | 8.558 | 2 | 35.273 | 8.781 | 33.241 | 2 |
| 2025-04-16T03:02:00 | 54.677869 | 7.249272 | 2.0 | 8.544 | 2 | 35.211 | 8.726 | 33.228 | 2 |
| 2025-04-16T03:03:00 | 54.678545 | 7.250953 | 2.0 | 8.535 | 2 | 35.178 | 8.711 | 33.207 | 2 |
| 2025-04-16T03:04:00 | 54.679230 | 7.252614 | 2.0 | 8.526 | 2 | 35.156 | 8.702 | 33.193 | 2 |
| 2025-04-16T03:05:00 | 54.679949 | 7.254248 | 2.0 | 8.524 | 2 | 35.131 | 8.690 | 33.178 | 2 |
| 2025-04-16T03:06:00 | 54.680693 | 7.255846 | 2.0 | 8.550 | 2 | 35.120 | 8.697 | 33.160 | 2 |
| 2025-04-16T03:07:00 | 54.681418 | 7.257449 | 2.0 | 8.568 | 2 | 35.132 | 8.718 | 33.152 | 2 |
| 2025-04-16T03:08:00 | 54.682112 | 7.259074 | 2.0 | 8.557 | 2 | 35.141 | 8.731 | 33.150 | 2 |
| 2025-04-16T03:09:00 | 54.682813 | 7.260690 | 2.0 | 8.539 | 2 | 35.134 | 8.721 | 33.152 | 2 |
| 2025-04-16T03:10:00 | 54.683531 | 7.262284 | 2.0 | 8.538 | 2 | 35.121 | 8.706 | 33.152 | 2 |
| 2025-04-16T03:11:00 | 54.684253 | 7.263868 | 2.0 | 8.537 | 2 | 35.117 | 8.703 | 33.151 | 2 |
| 2025-04-16T03:12:00 | 54.684961 | 7.265458 | 2.0 | 8.536 | 2 | 35.116 | 8.706 | 33.147 | 2 |
| 2025-04-16T03:13:00 | 54.685647 | 7.267069 | 2.0 | 8.541 | 2 | 35.111 | 8.700 | 33.147 | 2 |
| 2025-04-16T03:14:00 | 54.686321 | 7.268684 | 2.0 | 8.539 | 2 | 35.115 | 8.707 | 33.145 | 2 |
| 2025-04-16T03:15:00 | 54.687025 | 7.270273 | 2.0 | 8.534 | 2 | 35.112 | 8.704 | 33.145 | 2 |
| 2025-04-16T03:16:00 | 54.687757 | 7.271837 | 2.0 | 8.519 | 2 | 35.108 | 8.701 | 33.143 | 2 |
| 2025-04-16T03:17:00 | 54.688487 | 7.273405 | 2.0 | 8.502 | 2 | 35.064 | 8.684 | 33.113 | 2 |
| 2025-04-16T03:18:00 | 54.689193 | 7.274991 | 2.0 | 8.497 | 2 | 35.075 | 8.672 | 33.136 | 2 |
| 2025-04-16T03:19:00 | 54.689870 | 7.276601 | 2.0 | 8.464 | 2 | 35.057 | 8.655 | 33.133 | 2 |
| 2025-04-16T03:20:00 | 54.690543 | 7.278213 | 2.0 | 8.440 | 2 | 35.025 | 8.629 | 33.124 | 2 |
| 2025-04-16T03:21:00 | 54.691230 | 7.279812 | 2.0 | 8.436 | 2 | 34.997 | 8.608 | 33.114 | 2 |
| 2025-04-16T03:22:00 | 54.691922 | 7.281418 | 2.0 | 8.440 | 2 | 34.992 | 8.605 | 33.111 | 2 |
| 2025-04-16T03:23:00 | 54.692581 | 7.283117 | 2.0 | 8.416 | 2 | 34.532 | 8.606 | 32.627 | 2 |
| 2025-04-16T03:24:00 | 54.692790 | 7.284829 | 2.0 | 8.371 | 2 | 34.772 | 8.577 | 32.906 | 2 |
| 2025-04-16T03:25:00 | 54.692825 | 7.286512 | 2.0 | 8.343 | 2 | 34.913 | 8.534 | 33.095 | 2 |
| 2025-04-16T03:26:00 | 54.692846 | 7.288247 | 2.0 | 8.340 | 2 | 34.679 | 8.511 | 32.870 | 2 |
| 2025-04-16T03:27:00 | 54.692863 | 7.289906 | 2.0 | 8.338 | 2 | 34.601 | 8.508 | 32.791 | 2 |
| 2025-04-16T03:28:00 | 54.692830 | 7.291367 | 2.0 | 8.346 | 2 | 34.869 | 8.508 | 33.073 | 2 |
| 2025-04-16T03:29:00 | 54.692743 | 7.292582 | 2.0 | 8.347 | 2 | 34.877 | 8.515 | 33.075 | 2 |
| 2025-04-16T03:30:00 | 54.692549 | 7.293479 | 2.0 | 8.350 | 2 | 34.730 | 8.515 | 32.920 | 2 |
| 2025-04-16T03:31:00 | 54.692424 | 7.294222 | 2.0 | 8.351 | 2 | 34.885 | 8.518 | 33.080 | 2 |
| 2025-04-16T03:32:00 | 54.692393 | 7.294744 | 2.0 | 8.351 | 2 | 34.637 | 8.518 | 32.819 | 2 |
| 2025-04-16T03:33:00 | 54.692410 | 7.295030 | 2.0 | 8.343 | 2 | 34.887 | 8.514 | 33.086 | 2 |
| 2025-04-16T03:34:00 | 54.692421 | 7.295191 | 2.0 | 8.344 | 2 | 34.884 | 8.512 | 33.085 | 2 |
| 2025-04-16T03:35:00 | 54.692472 | 7.295318 | 2.0 | 8.341 | 2 | 34.852 | 8.509 | 33.054 | 2 |
| 2025-04-16T03:36:00 | 54.692433 | 7.295588 | 2.0 | 8.339 | 2 | 34.888 | 8.507 | 33.094 | 2 |
| 2025-04-16T03:37:00 | 54.692095 | 7.296177 | 2.0 | 8.338 | 2 | 34.453 | 8.506 | 32.637 | 2 |
| 2025-04-16T03:38:00 | 54.691367 | 7.297145 | 2.0 | 8.348 | 2 | 34.462 | 8.504 | 32.648 | 2 |
| 2025-04-16T03:39:00 | 54.690303 | 7.298419 | 2.0 | 8.421 | 2 | 34.524 | 8.529 | 32.690 | 2 |
| 2025-04-16T03:40:00 | 54.688988 | 7.300172 | 2.0 | 8.446 | 2 | 34.715 | 8.590 | 32.834 | 2 |
| 2025-04-16T03:41:00 | 54.687415 | 7.302631 | 2.0 | 8.441 | 2 | 34.753 | 8.611 | 32.855 | 2 |
| 2025-04-16T03:42:00 | 54.685555 | 7.305595 | 2.0 | 8.428 | 2 | 34.642 | 8.606 | 32.743 | 2 |
| 2025-04-16T03:43:00 | 54.683541 | 7.308757 | 2.0 | 8.404 | 2 | 34.723 | 8.596 | 32.837 | 2 |
| 2025-04-16T03:44:00 | 54.681555 | 7.312149 | 2.0 | 8.338 | 2 | 34.846 | 8.564 | 32.996 | 2 |
| 2025-04-16T03:45:00 | 54.679460 | 7.315364 | 2.0 | 8.243 | 2 | 34.561 | 8.493 | 32.763 | 2 |
| 2025-04-16T03:46:00 | 54.677427 | 7.318719 | 2.0 | 8.313 | 2 | 34.606 | 8.432 | 32.867 | 2 |
| 2025-04-16T03:47:00 | 54.675363 | 7.322021 | 2.0 | 8.380 | 2 | 34.739 | 8.494 | 32.949 | 2 |
| 2025-04-16T03:48:00 | 54.673296 | 7.325308 | 2.0 | 8.445 | 2 | 34.684 | 8.561 | 32.829 | 2 |
| 2025-04-16T03:49:00 | 54.671244 | 7.328640 | 2.0 | 8.400 | 2 | 35.062 | 8.602 | 33.188 | 2 |
| 2025-04-16T03:50:00 | 54.669161 | 7.331918 | 2.0 | 8.400 | 2 | 34.988 | 8.508 | 33.198 | 2 |
| 2025-04-16T03:51:00 | 54.667125 | 7.335286 | 2.0 | 8.468 | 2 | 35.004 | 8.565 | 33.162 | 2 |
| 2025-04-16T03:52:00 | 54.665068 | 7.338632 | 2.0 | 8.504 | 2 | 35.049 | 8.637 | 33.141 | 2 |
| 2025-04-16T03:53:00 | 54.663007 | 7.341979 | 2.0 | 8.647 | 2 | 35.074 | 8.694 | 33.114 | 2 |
| 2025-04-16T03:54:00 | 54.660927 | 7.345288 | 2.0 | 8.735 | 2 | 35.137 | 8.829 | 33.054 | 2 |
| 2025-04-16T03:55:00 | 54.658837 | 7.348564 | 2.0 | 8.759 | 2 | 35.162 | 8.899 | 33.015 | 2 |
| 2025-04-16T03:56:00 | 54.656779 | 7.351872 | 2.0 | 8.775 | 2 | 35.159 | 8.914 | 32.998 | 2 |
| 2025-04-16T03:57:00 | 54.654743 | 7.355234 | 2.0 | 8.861 | 2 | 35.150 | 8.959 | 32.947 | 2 |
| 2025-04-16T03:58:00 | 54.652651 | 7.358505 | 2.0 | 8.887 | 2 | 35.169 | 9.026 | 32.904 | 2 |
| 2025-04-16T03:59:00 | 54.650600 | 7.361857 | 2.0 | 8.906 | 2 | 35.176 | 9.052 | 32.888 | 2 |
| 2025-04-16T04:00:00 | 54.648514 | 7.365138 | 2.0 | 8.913 | 2 | 35.176 | 9.068 | 32.873 | 2 |
| 2025-04-16T04:01:00 | 54.646487 | 7.368527 | 2.0 | 8.934 | 2 | 35.158 | 9.082 | 32.841 | 2 |
| 2025-04-16T04:02:00 | 54.644397 | 7.371804 | 2.0 | 8.939 | 2 | 35.126 | 9.100 | 32.791 | 2 |
| 2025-04-16T04:03:00 | 54.642341 | 7.375167 | 2.0 | 8.949 | 2 | 35.085 | 9.103 | 32.746 | 2 |
| 2025-04-16T04:04:00 | 54.640242 | 7.378459 | 2.0 | 8.965 | 2 | 35.052 | 9.113 | 32.703 | 2 |
| 2025-04-16T04:05:00 | 54.638195 | 7.381861 | 2.0 | 8.981 | 2 | 35.024 | 9.130 | 32.658 | 2 |
| 2025-04-16T04:06:00 | 54.636091 | 7.385167 | 2.0 | 9.000 | 2 | 35.001 | 9.149 | 32.617 | 2 |
| 2025-04-16T04:07:00 | 54.634013 | 7.388528 | 2.0 | 8.998 | 2 | 34.974 | 9.164 | 32.575 | 2 |
| 2025-04-16T04:08:00 | 54.631902 | 7.391848 | 2.0 | 8.990 | 2 | 34.933 | 9.163 | 32.534 | 2 |
| 2025-04-16T04:09:00 | 54.629842 | 7.395278 | 2.0 | 8.998 | 2 | 34.881 | 9.157 | 32.485 | 2 |
| 2025-04-16T04:10:00 | 54.627736 | 7.398607 | 2.0 | 9.009 | 2 | 34.840 | 9.168 | 32.433 | 2 |
| 2025-04-16T04:11:00 | 54.625656 | 7.401992 | 2.0 | 9.007 | 2 | 34.785 | 9.175 | 32.370 | 2 |
| 2025-04-16T04:12:00 | 54.623540 | 7.405314 | 2.0 | 9.008 | 2 | 34.752 | 9.174 | 32.337 | 2 |
| 2025-04-16T04:13:00 | 54.621464 | 7.408727 | 2.0 | 9.006 | 2 | 34.731 | 9.174 | 32.315 | 2 |
| 2025-04-16T04:14:00 | 54.619356 | 7.412088 | 2.0 | 9.004 | 2 | 34.704 | 9.171 | 32.290 | 2 |
| 2025-04-16T04:15:00 | 54.617240 | 7.415443 | 2.0 | 9.006 | 2 | 34.691 | 9.172 | 32.275 | 2 |
| 2025-04-16T04:16:00 | 54.615155 | 7.418856 | 2.0 | 9.001 | 2 | 34.689 | 9.171 | 32.274 | 2 |
| 2025-04-16T04:17:00 | 54.613030 | 7.422207 | 2.0 | 9.001 | 2 | 34.646 | 9.168 | 32.232 | 2 |
| 2025-04-16T04:18:00 | 54.610931 | 7.425618 | 2.0 | 9.004 | 2 | 34.625 | 9.168 | 32.211 | 2 |
| 2025-04-16T04:19:00 | 54.608800 | 7.428970 | 2.0 | 9.008 | 2 | 34.605 | 9.172 | 32.187 | 2 |
| 2025-04-16T04:20:00 | 54.606698 | 7.432385 | 2.0 | 8.997 | 2 | 34.596 | 9.172 | 32.177 | 2 |
| 2025-04-16T04:21:00 | 54.604569 | 7.435764 | 2.0 | 8.986 | 2 | 34.591 | 9.163 | 32.180 | 2 |
| 2025-04-16T04:22:00 | 54.602449 | 7.439161 | 2.0 | 8.985 | 2 | 34.587 | 9.153 | 32.185 | 2 |
| 2025-04-16T04:23:00 | 54.600340 | 7.442566 | 2.0 | 8.981 | 2 | 34.583 | 9.152 | 32.182 | 2 |
| 2025-04-16T04:24:00 | 54.598225 | 7.445944 | 2.0 | 8.970 | 2 | 34.574 | 9.146 | 32.178 | 2 |
| 2025-04-16T04:25:00 | 54.596119 | 7.449334 | 2.0 | 8.963 | 2 | 34.573 | 9.135 | 32.187 | 2 |
| 2025-04-16T04:26:00 | 54.593942 | 7.452593 | 2.0 | 8.960 | 2 | 34.562 | 9.131 | 32.179 | 2 |
| 2025-04-16T04:27:00 | 54.591441 | 7.455082 | 2.0 | 8.952 | 2 | 34.541 | 9.124 | 32.164 | 2 |
| 2025-04-16T04:28:00 | 54.589021 | 7.457777 | 2.0 | 8.944 | 2 | 34.530 | 9.119 | 32.157 | 2 |
| 2025-04-16T04:29:00 | 54.586575 | 7.460437 | 2.0 | 8.920 | 2 | 34.558 | 9.107 | 32.197 | 2 |
| 2025-04-16T04:30:00 | 54.584111 | 7.463049 | 2.0 | 8.897 | 2 | 34.552 | 9.085 | 32.210 | 2 |
| 2025-04-16T04:31:00 | 54.581648 | 7.465675 | 2.0 | 8.879 | 2 | 34.542 | 9.062 | 32.221 | 2 |
| 2025-04-16T04:32:00 | 54.579200 | 7.468352 | 2.0 | 8.886 | 2 | 34.538 | 9.051 | 32.227 | 2 |
| 2025-04-16T04:33:00 | 54.576703 | 7.470984 | 2.0 | 8.873 | 2 | 34.525 | 9.053 | 32.211 | 2 |
| 2025-04-16T04:34:00 | 54.574211 | 7.473588 | 2.0 | 8.813 | 2 | 34.521 | 9.032 | 32.226 | 2 |
| 2025-04-16T04:35:00 | 54.571759 | 7.476303 | 2.0 | 8.769 | 2 | 34.505 | 8.976 | 32.260 | 2 |
| 2025-04-16T04:36:00 | 54.569294 | 7.478925 | 2.0 | 8.783 | 2 | 34.480 | 8.943 | 32.264 | 2 |
| 2025-04-16T04:37:00 | 54.566893 | 7.481649 | 2.0 | 8.812 | 2 | 34.448 | 8.958 | 32.218 | 2 |
| 2025-04-16T04:38:00 | 54.564483 | 7.484302 | 2.0 | 8.826 | 2 | 34.420 | 8.983 | 32.166 | 2 |
| 2025-04-16T04:39:00 | 54.562089 | 7.487011 | 2.0 | 8.857 | 2 | 34.382 | 8.998 | 32.113 | 2 |
| 2025-04-16T04:40:00 | 54.559674 | 7.489707 | 2.0 | 8.894 | 2 | 34.334 | 9.029 | 32.035 | 2 |
| 2025-04-16T04:41:00 | 54.557245 | 7.492394 | 2.0 | 8.901 | 2 | 34.302 | 9.062 | 31.972 | 2 |
| 2025-04-16T04:42:00 | 54.554829 | 7.495072 | 2.0 | 8.882 | 2 | 34.272 | 9.066 | 31.938 | 2 |
| 2025-04-16T04:43:00 | 54.552414 | 7.497734 | 2.0 | 8.863 | 2 | 34.228 | 9.045 | 31.911 | 2 |
| 2025-04-16T04:44:00 | 54.550022 | 7.500425 | 2.0 | 8.863 | 2 | 34.192 | 9.031 | 31.886 | 2 |
| 2025-04-16T04:45:00 | 54.547630 | 7.503100 | 2.0 | 8.866 | 2 | 34.169 | 9.033 | 31.861 | 2 |
| 2025-04-16T04:46:00 | 54.545182 | 7.505582 | 2.0 | 8.873 | 2 | 34.164 | 9.034 | 31.855 | 2 |
| 2025-04-16T04:47:00 | 54.542775 | 7.508090 | 2.0 | 8.875 | 2 | 34.176 | 9.042 | 31.860 | 2 |
| 2025-04-16T04:48:00 | 54.540256 | 7.509917 | 2.0 | 8.884 | 2 | 34.182 | 9.044 | 31.864 | 2 |
| 2025-04-16T04:49:00 | 54.538026 | 7.511076 | 2.0 | 8.903 | 2 | 34.192 | 9.054 | 31.866 | 2 |
| 2025-04-16T04:50:00 | 54.536217 | 7.511771 | 2.0 | 8.913 | 2 | 34.207 | 9.071 | 31.866 | 2 |
| 2025-04-16T04:51:00 | 54.534804 | 7.512501 | 2.0 | 8.917 | 2 | 34.212 | 9.079 | 31.864 | 2 |
| 2025-04-16T04:52:00 | 54.533613 | 7.512739 | 2.0 | 8.925 | 2 | 34.212 | 9.083 | 31.861 | 2 |
| 2025-04-16T04:53:00 | 54.532594 | 7.512628 | 2.0 | 8.933 | 2 | 34.215 | 9.090 | 31.857 | 2 |
| 2025-04-16T04:54:00 | 54.531934 | 7.512829 | 2.0 | 8.934 | 2 | 34.219 | 9.097 | 31.855 | 2 |
| 2025-04-16T04:55:00 | 54.531780 | 7.513331 | 2.0 | 8.933 | 2 | 34.218 | 9.098 | 31.853 | 2 |
| 2025-04-16T04:56:00 | 54.531666 | 7.513720 | 2.0 | 8.931 | 2 | 34.216 | 9.097 | 31.852 | 2 |
| 2025-04-16T04:57:00 | 54.531530 | 7.513943 | 2.0 | 8.926 | 2 | 34.214 | 9.094 | 31.853 | 2 |
| 2025-04-16T04:58:00 | 54.531428 | 7.514081 | 2.0 | 8.925 | 2 | 34.211 | 9.090 | 31.853 | 2 |
| 2025-04-16T04:59:00 | 54.531355 | 7.514155 | 2.0 | 8.923 | 2 | 34.210 | 9.089 | 31.853 | 2 |
| 2025-04-16T05:00:00 | 54.531317 | 7.514188 | 2.0 | 8.923 | 2 | 34.210 | 9.088 | 31.854 | 2 |
| 2025-04-16T05:01:00 | 54.531307 | 7.514183 | 2.0 | 8.924 | 2 | 34.210 | 9.087 | 31.855 | 2 |
| 2025-04-16T05:02:00 | 54.531312 | 7.514158 | 2.0 | 8.924 | 2 | 34.212 | 9.088 | 31.856 | 2 |
| 2025-04-16T05:03:00 | 54.531308 | 7.514118 | 2.0 | 8.926 | 2 | 34.213 | 9.089 | 31.856 | 2 |
| 2025-04-16T05:04:00 | 54.531332 | 7.513994 | 2.0 | 8.927 | 2 | 34.215 | 9.090 | 31.857 | 2 |
| 2025-04-16T05:05:00 | 54.531364 | 7.514021 | 2.0 | 8.929 | 2 | 34.218 | 9.092 | 31.859 | 2 |
| 2025-04-16T05:06:00 | 54.531346 | 7.514117 | 2.0 | 8.930 | 2 | 34.221 | 9.093 | 31.861 | 2 |
| 2025-04-16T05:07:00 | 54.531316 | 7.514242 | 2.0 | 8.931 | 2 | 34.224 | 9.095 | 31.862 | 2 |
| 2025-04-16T05:08:00 | 54.531279 | 7.514317 | 2.0 | 8.930 | 2 | 34.226 | 9.095 | 31.864 | 2 |
| 2025-04-16T05:09:00 | 54.531241 | 7.514314 | 2.0 | 8.929 | 2 | 34.226 | 9.094 | 31.865 | 2 |
| 2025-04-16T05:10:00 | 54.531242 | 7.514302 | 2.0 | 8.927 | 2 | 34.227 | 9.093 | 31.867 | 2 |
| 2025-04-16T05:11:00 | 54.531243 | 7.514298 | 2.0 | 8.926 | 2 | 34.227 | 9.091 | 31.869 | 2 |
| 2025-04-16T05:12:00 | 54.531237 | 7.514246 | 2.0 | 8.927 | 2 | 34.226 | 9.090 | 31.869 | 2 |
| 2025-04-16T05:13:00 | 54.531227 | 7.514147 | 2.0 | 8.928 | 2 | 34.226 | 9.090 | 31.869 | 2 |
| 2025-04-16T05:14:00 | 54.531228 | 7.514158 | 2.0 | 8.928 | 2 | 34.227 | 9.091 | 31.869 | 2 |
| 2025-04-16T05:15:00 | 54.531222 | 7.514234 | 2.0 | 8.929 | 2 | 34.228 | 9.091 | 31.870 | 2 |
| 2025-04-16T05:16:00 | 54.531210 | 7.514353 | 2.0 | 8.926 | 2 | 34.229 | 9.092 | 31.870 | 2 |
| 2025-04-16T05:17:00 | 54.531176 | 7.514516 | 2.0 | 8.926 | 2 | 34.228 | 9.089 | 31.872 | 2 |
| 2025-04-16T05:18:00 | 54.531124 | 7.514773 | 2.0 | 8.927 | 2 | 34.229 | 9.090 | 31.872 | 2 |
| 2025-04-16T05:19:00 | 54.531075 | 7.515083 | 2.0 | 8.927 | 2 | 34.231 | 9.091 | 31.873 | 2 |
| 2025-04-16T05:20:00 | 54.531041 | 7.515403 | 2.0 | 8.925 | 2 | 34.233 | 9.090 | 31.876 | 2 |
| 2025-04-16T05:21:00 | 54.531022 | 7.515720 | 2.0 | 8.922 | 2 | 34.237 | 9.093 | 31.877 | 2 |
| 2025-04-16T05:22:00 | 54.530994 | 7.515966 | 2.0 | 8.919 | 2 | 34.241 | 9.097 | 31.878 | 2 |
| 2025-04-16T05:23:00 | 54.530973 | 7.516146 | 2.0 | 8.915 | 2 | 34.242 | 9.097 | 31.879 | 2 |
| 2025-04-16T05:24:00 | 54.530955 | 7.516341 | 2.0 | 8.892 | 2 | 34.242 | 9.094 | 31.882 | 2 |
| 2025-04-16T05:25:00 | 54.530965 | 7.516466 | 2.0 | 8.850 | 2 | 34.231 | 9.072 | 31.890 | 2 |
| 2025-04-16T05:26:00 | 54.531008 | 7.516545 | 2.0 | 8.888 | 2 | 34.206 | 9.033 | 31.899 | 2 |
| 2025-04-16T05:27:00 | 54.531041 | 7.516549 | 2.0 | 8.891 | 2 | 34.224 | 9.072 | 31.883 | 2 |
| 2025-04-16T05:28:00 | 54.531092 | 7.516529 | 2.0 | 8.893 | 2 | 34.232 | 9.080 | 31.884 | 2 |
| 2025-04-16T05:29:00 | 54.531135 | 7.516553 | 2.0 | 8.894 | 2 | 34.234 | 9.084 | 31.882 | 2 |
| 2025-04-16T05:30:00 | 54.531156 | 7.516570 | 2.0 | 8.888 | 2 | 34.234 | 9.084 | 31.882 | 2 |
| 2025-04-16T05:31:00 | 54.531162 | 7.516578 | 2.0 | 8.879 | 2 | 34.232 | 9.079 | 31.885 | 2 |
| 2025-04-16T05:32:00 | 54.531168 | 7.516589 | 2.0 | 8.873 | 2 | 34.227 | 9.070 | 31.888 | 2 |
| 2025-04-16T05:33:00 | 54.531182 | 7.516637 | 2.0 | 8.866 | 2 | 34.225 | 9.066 | 31.889 | 2 |
| 2025-04-16T05:34:00 | 54.531195 | 7.516678 | 2.0 | 8.862 | 2 | 34.216 | 9.044 | 31.900 | 2 |
| 2025-04-16T05:35:00 | 54.531193 | 7.516677 | 2.0 | 8.860 | 2 | 34.217 | 9.053 | 31.893 | 2 |
| 2025-04-16T05:36:00 | 54.531194 | 7.516687 | 2.0 | 8.858 | 2 | 34.218 | 9.053 | 31.894 | 2 |
| 2025-04-16T05:37:00 | 54.531171 | 7.516728 | 2.0 | 8.837 | 2 | 34.216 | 9.048 | 31.896 | 2 |
| 2025-04-16T05:38:00 | 54.531099 | 7.516846 | 2.0 | 8.827 | 2 | 34.208 | 9.029 | 31.905 | 2 |
| 2025-04-16T05:39:00 | 54.531030 | 7.516918 | 2.0 | 8.800 | 2 | 34.207 | 9.015 | 31.916 | 2 |
| 2025-04-16T05:40:00 | 54.530990 | 7.516986 | 2.0 | 8.796 | 2 | 34.201 | 9.007 | 31.917 | 2 |
| 2025-04-16T05:41:00 | 54.530939 | 7.517022 | 2.0 | 8.828 | 2 | 34.199 | 8.999 | 31.922 | 2 |
| 2025-04-16T05:42:00 | 54.530822 | 7.517135 | 2.0 | 8.833 | 2 | 34.212 | 9.025 | 31.912 | 2 |
| 2025-04-16T05:43:00 | 54.530725 | 7.517169 | 2.0 | 8.835 | 2 | 34.217 | 9.030 | 31.913 | 2 |
| 2025-04-16T05:44:00 | 54.530566 | 7.517197 | 2.0 | 8.835 | 2 | 34.220 | 9.033 | 31.914 | 2 |
| 2025-04-16T05:45:00 | 54.530050 | 7.517254 | 2.0 | 8.831 | 2 | 34.220 | 9.033 | 31.914 | 2 |
| 2025-04-16T05:46:00 | 54.529142 | 7.517185 | 2.0 | 8.819 | 2 | 34.217 | 9.029 | 31.914 | 2 |
| 2025-04-16T05:47:00 | 54.528378 | 7.517247 | 2.0 | 8.820 | 2 | 34.209 | 9.022 | 31.912 | 2 |
| 2025-04-16T05:48:00 | 54.528010 | 7.517809 | 2.0 | 8.823 | 2 | 34.208 | 9.023 | 31.910 | 2 |
| 2025-04-16T05:49:00 | 54.527774 | 7.518459 | 2.0 | 8.822 | 2 | 34.209 | 9.025 | 31.909 | 2 |
| 2025-04-16T05:50:00 | 54.527573 | 7.519073 | 2.0 | 8.786 | 2 | 34.208 | 9.021 | 31.912 | 2 |
| 2025-04-16T05:51:00 | 54.527393 | 7.519648 | 2.0 | 8.808 | 2 | 34.195 | 8.995 | 31.922 | 2 |
| 2025-04-16T05:52:00 | 54.527232 | 7.520195 | 2.0 | 8.710 | 2 | 34.198 | 8.996 | 31.924 | 2 |
| 2025-04-16T05:53:00 | 54.527092 | 7.520717 | 2.0 | 8.671 | 2 | 34.151 | 8.902 | 31.960 | 2 |
| 2025-04-16T05:54:00 | 54.526973 | 7.521223 | 2.0 | 8.726 | 2 | 34.140 | 8.897 | 31.953 | 2 |
| 2025-04-16T05:55:00 | 54.526860 | 7.521713 | 2.0 | 8.717 | 2 | 34.148 | 8.912 | 31.948 | 2 |
| 2025-04-16T05:56:00 | 54.526755 | 7.522197 | 2.0 | 8.699 | 2 | 34.139 | 8.897 | 31.952 | 2 |
| 2025-04-16T05:57:00 | 54.526655 | 7.522656 | 2.0 | 8.675 | 2 | 34.134 | 8.878 | 31.964 | 2 |
| 2025-04-16T05:58:00 | 54.526689 | 7.523081 | 2.0 | 8.682 | 2 | 34.129 | 8.864 | 31.971 | 2 |
| 2025-04-16T05:59:00 | 54.526937 | 7.523373 | 2.0 | 8.839 | 2 | 34.148 | 8.926 | 31.935 | 2 |
| 2025-04-16T06:00:00 | 54.527302 | 7.523373 | 2.0 | 8.843 | 2 | 34.195 | 9.012 | 31.907 | 2 |
| 2025-04-16T06:01:00 | 54.527646 | 7.523090 | 2.0 | 8.850 | 2 | 34.203 | 9.021 | 31.907 | 2 |
| 2025-04-16T06:02:00 | 54.527928 | 7.522722 | 2.0 | 8.852 | 2 | 34.207 | 9.026 | 31.906 | 2 |
| 2025-04-16T06:03:00 | 54.528190 | 7.522319 | 2.0 | 8.852 | 2 | 34.208 | 9.027 | 31.907 | 2 |
| 2025-04-16T06:04:00 | 54.528447 | 7.521884 | 2.0 | 8.854 | 2 | 34.209 | 9.027 | 31.908 | 2 |
| 2025-04-16T06:05:00 | 54.528710 | 7.521422 | 2.0 | 8.853 | 2 | 34.210 | 9.028 | 31.908 | 2 |
| 2025-04-16T06:06:00 | 54.528981 | 7.520944 | 2.0 | 8.854 | 2 | 34.211 | 9.028 | 31.909 | 2 |
| 2025-04-16T06:07:00 | 54.529242 | 7.520389 | 2.0 | 8.852 | 2 | 34.211 | 9.027 | 31.910 | 2 |
| 2025-04-16T06:08:00 | 54.529345 | 7.519641 | 2.0 | 8.852 | 2 | 34.211 | 9.026 | 31.911 | 2 |
| 2025-04-16T06:09:00 | 54.529207 | 7.518722 | 2.0 | 8.850 | 2 | 34.210 | 9.025 | 31.910 | 2 |
| 2025-04-16T06:10:00 | 54.528908 | 7.517659 | 2.0 | 8.851 | 2 | 34.207 | 9.024 | 31.908 | 2 |
| 2025-04-16T06:11:00 | 54.528647 | 7.516691 | 2.0 | 8.825 | 2 | 33.680 | 9.024 | 31.363 | 2 |
| 2025-04-16T06:12:00 | 54.528465 | 7.515846 | 2.0 | 8.816 | 2 | 34.188 | 8.982 | 31.926 | 2 |
| 2025-04-16T06:13:00 | 54.528352 | 7.515079 | 2.0 | 8.753 | 2 | 34.071 | 8.995 | 31.793 | 2 |
| 2025-04-16T06:14:00 | 54.528261 | 7.514592 | 2.0 | 8.799 | 2 | 33.885 | 8.908 | 31.678 | 2 |
| 2025-04-16T06:15:00 | 54.528182 | 7.514362 | 2.0 | 8.776 | 2 | 34.173 | 8.976 | 31.916 | 2 |
| 2025-04-16T06:16:00 | 54.528181 | 7.514073 | 2.0 | 8.674 | 2 | 34.130 | 8.921 | 31.921 | 2 |
| 2025-04-16T06:17:00 | 54.528251 | 7.513744 | 2.0 | 8.734 | 2 | 34.153 | 8.859 | 32.001 | 2 |
| 2025-04-16T06:18:00 | 54.528397 | 7.513376 | 2.0 | 8.767 | 2 | 34.154 | 8.916 | 31.950 | 2 |
| 2025-04-16T06:19:00 | 54.528572 | 7.512880 | 2.0 | 8.825 | 2 | 34.167 | 8.942 | 31.940 | 2 |
| 2025-04-16T06:20:00 | 54.528900 | 7.512162 | 2.0 | 8.774 | 2 | 34.095 | 8.994 | 31.819 | 2 |
| 2025-04-16T06:21:00 | 54.529326 | 7.511933 | 2.0 | 8.569 | 2 | 34.141 | 8.866 | 31.982 | 2 |
| 2025-04-16T06:22:00 | 54.529556 | 7.511872 | 2.0 | 8.662 | 2 | 34.083 | 8.765 | 32.013 | 2 |
| 2025-04-16T06:23:00 | 54.529731 | 7.511773 | 2.0 | 8.717 | 2 | 33.799 | 8.846 | 31.644 | 2 |
| 2025-04-16T06:24:00 | 54.529819 | 7.511759 | 2.0 | 8.732 | 2 | 34.058 | 8.895 | 31.870 | 2 |
| 2025-04-16T06:25:00 | 54.529751 | 7.511942 | 2.0 | 8.745 | 2 | 34.147 | 8.896 | 31.961 | 2 |
| 2025-04-16T06:26:00 | 54.529659 | 7.512134 | 2.0 | 8.706 | 2 | 33.947 | 8.926 | 31.727 | 2 |
| 2025-04-16T06:27:00 | 54.529572 | 7.512323 | 2.0 | 8.594 | 2 | 33.904 | 8.857 | 31.744 | 2 |
| 2025-04-16T06:28:00 | 54.529474 | 7.512504 | 2.0 | 8.574 | 2 | 33.923 | 8.765 | 31.846 | 2 |
| 2025-04-16T06:29:00 | 54.529401 | 7.512674 | 2.0 | 8.653 | 2 | 33.940 | 8.773 | 31.856 | 2 |
| 2025-04-16T06:30:00 | 54.529361 | 7.512812 | 2.0 | 8.685 | 2 | 33.687 | 8.829 | 31.543 | 2 |
| 2025-04-16T06:31:00 | 54.529338 | 7.512924 | 2.0 | 8.713 | 2 | 33.700 | 8.869 | 31.521 | 2 |
| 2025-04-16T06:32:00 | 54.529327 | 7.513013 | 2.0 | 8.712 | 2 | 33.723 | 8.879 | 31.536 | 2 |
| 2025-04-16T06:33:00 | 54.529327 | 7.513076 | 2.0 | 8.753 | 2 | 34.057 | 8.889 | 31.874 | 2 |
| 2025-04-16T06:34:00 | 54.529344 | 7.513118 | 2.0 | 8.772 | 2 | 34.000 | 8.921 | 31.786 | 2 |
| 2025-04-16T06:35:00 | 54.529370 | 7.513157 | 2.0 | 8.775 | 2 | 33.797 | 8.940 | 31.559 | 2 |
| 2025-04-16T06:36:00 | 54.529418 | 7.513194 | 2.0 | 8.786 | 2 | 33.882 | 8.948 | 31.640 | 2 |
| 2025-04-16T06:37:00 | 54.529493 | 7.513233 | 2.0 | 8.789 | 2 | 33.889 | 8.958 | 31.638 | 2 |
| 2025-04-16T06:38:00 | 54.529586 | 7.513260 | 2.0 | 8.795 | 2 | 33.995 | 8.962 | 31.744 | 2 |
| 2025-04-16T06:39:00 | 54.529691 | 7.513272 | 2.0 | 8.801 | 2 | 33.893 | 8.968 | 31.633 | 2 |
| 2025-04-16T06:40:00 | 54.529797 | 7.513271 | 2.0 | 8.803 | 2 | 33.887 | 8.972 | 31.623 | 2 |
| 2025-04-16T06:41:00 | 54.529892 | 7.513272 | 2.0 | 8.807 | 2 | 33.714 | 8.974 | 31.443 | 2 |
| 2025-04-16T06:42:00 | 54.529969 | 7.513276 | 2.0 | 8.813 | 2 | 34.164 | 8.980 | 31.903 | 2 |
| 2025-04-16T06:43:00 | 54.530018 | 7.513265 | 2.0 | 8.814 | 2 | 34.048 | 8.984 | 31.779 | 2 |
| 2025-04-16T06:44:00 | 54.530015 | 7.513247 | 2.0 | 8.817 | 2 | 33.968 | 8.985 | 31.696 | 2 |
| 2025-04-16T06:45:00 | 54.529982 | 7.513247 | 2.0 | 8.812 | 2 | 33.998 | 8.987 | 31.725 | 2 |
| 2025-04-16T06:46:00 | 54.529896 | 7.513271 | 2.0 | 8.775 | 2 | 33.902 | 8.979 | 31.633 | 2 |
| 2025-04-16T06:47:00 | 54.529779 | 7.513311 | 2.0 | 8.744 | 2 | 33.928 | 8.937 | 31.697 | 2 |
| 2025-04-16T06:48:00 | 54.529683 | 7.513354 | 2.0 | 8.736 | 2 | 33.980 | 8.918 | 31.768 | 2 |
| 2025-04-16T06:49:00 | 54.529621 | 7.513417 | 2.0 | 8.757 | 2 | 33.966 | 8.911 | 31.760 | 2 |
| 2025-04-16T06:50:00 | 54.529593 | 7.513487 | 2.0 | 8.773 | 2 | 34.023 | 8.930 | 31.802 | 2 |
| 2025-04-16T06:51:00 | 54.529595 | 7.513552 | 2.0 | 8.780 | 2 | 33.961 | 8.945 | 31.724 | 2 |
| 2025-04-16T06:52:00 | 54.529616 | 7.513605 | 2.0 | 8.779 | 2 | 34.021 | 8.950 | 31.782 | 2 |
| 2025-04-16T06:53:00 | 54.529651 | 7.513642 | 2.0 | 8.781 | 2 | 34.005 | 8.949 | 31.766 | 2 |
| 2025-04-16T06:54:00 | 54.529692 | 7.513676 | 2.0 | 8.781 | 2 | 34.058 | 8.951 | 31.819 | 2 |
| 2025-04-16T06:55:00 | 54.529740 | 7.513712 | 2.0 | 8.779 | 2 | 34.011 | 8.950 | 31.771 | 2 |
| 2025-04-16T06:56:00 | 54.529758 | 7.513740 | 2.0 | 8.780 | 2 | 33.960 | 8.949 | 31.720 | 2 |
| 2025-04-16T06:57:00 | 54.529719 | 7.513737 | 2.0 | 8.780 | 2 | 34.037 | 8.950 | 31.798 | 2 |
| 2025-04-16T06:58:00 | 54.529639 | 7.513710 | 2.0 | 8.762 | 2 | 33.951 | 8.947 | 31.712 | 2 |
| 2025-04-16T06:59:00 | 54.529539 | 7.513680 | 2.0 | 8.752 | 2 | 34.037 | 8.929 | 31.817 | 2 |
| 2025-04-16T07:00:00 | 54.529446 | 7.513679 | 2.0 | 8.758 | 2 | 34.007 | 8.925 | 31.790 | 2 |
| 2025-04-16T07:01:00 | 54.529333 | 7.513711 | 2.0 | 8.760 | 2 | 34.014 | 8.930 | 31.792 | 2 |
| 2025-04-16T07:02:00 | 54.529239 | 7.513755 | 2.0 | 8.751 | 2 | 34.017 | 8.928 | 31.797 | 2 |
| 2025-04-16T07:03:00 | 54.529199 | 7.513774 | 2.0 | 8.754 | 2 | 34.004 | 8.922 | 31.789 | 2 |
| 2025-04-16T07:04:00 | 54.529200 | 7.513770 | 2.0 | 8.759 | 2 | 34.072 | 8.925 | 31.857 | 2 |
| 2025-04-16T07:05:00 | 54.529211 | 7.513765 | 2.0 | 8.762 | 2 | 34.007 | 8.930 | 31.785 | 2 |
| 2025-04-16T07:06:00 | 54.529270 | 7.513751 | 2.0 | 8.765 | 2 | 34.037 | 8.933 | 31.814 | 2 |
| 2025-04-16T07:07:00 | 54.529348 | 7.513758 | 2.0 | 8.765 | 2 | 34.041 | 8.934 | 31.817 | 2 |
| 2025-04-16T07:08:00 | 54.529444 | 7.513803 | 2.0 | 8.766 | 2 | 34.047 | 8.935 | 31.822 | 2 |
| 2025-04-16T07:09:00 | 54.529533 | 7.513899 | 2.0 | 8.765 | 2 | 34.025 | 8.935 | 31.799 | 2 |
| 2025-04-16T07:10:00 | 54.529598 | 7.514022 | 2.0 | 8.765 | 2 | 34.069 | 8.935 | 31.845 | 2 |
| 2025-04-16T07:11:00 | 54.529615 | 7.514161 | 2.0 | 8.765 | 2 | 34.077 | 8.935 | 31.853 | 2 |
| 2025-04-16T07:12:00 | 54.529620 | 7.514309 | 2.0 | 8.767 | 2 | 34.074 | 8.935 | 31.850 | 2 |
| 2025-04-16T07:13:00 | 54.529639 | 7.514453 | 2.0 | 8.765 | 2 | 34.087 | 8.937 | 31.862 | 2 |
| 2025-04-16T07:14:00 | 54.529665 | 7.514576 | 2.0 | 8.744 | 2 | 34.099 | 8.929 | 31.882 | 2 |
| 2025-04-16T07:15:00 | 54.529692 | 7.514682 | 2.0 | 8.745 | 2 | 34.081 | 8.915 | 31.875 | 2 |
| 2025-04-16T07:16:00 | 54.529737 | 7.514783 | 2.0 | 8.748 | 2 | 34.112 | 8.916 | 31.907 | 2 |
| 2025-04-16T07:17:00 | 54.529760 | 7.514909 | 2.0 | 8.751 | 2 | 34.132 | 8.918 | 31.926 | 2 |
| 2025-04-16T07:18:00 | 54.529758 | 7.515042 | 2.0 | 8.759 | 2 | 34.143 | 8.923 | 31.933 | 2 |
| 2025-04-16T07:19:00 | 54.529727 | 7.515182 | 2.0 | 8.746 | 2 | 34.111 | 8.925 | 31.898 | 2 |
| 2025-04-16T07:20:00 | 54.529666 | 7.515333 | 2.0 | 8.756 | 2 | 34.086 | 8.917 | 31.879 | 2 |
| 2025-04-16T07:21:00 | 54.529586 | 7.515497 | 2.0 | 8.766 | 2 | 34.174 | 8.929 | 31.959 | 2 |
| 2025-04-16T07:22:00 | 54.529503 | 7.515671 | 2.0 | 8.762 | 2 | 34.189 | 8.934 | 31.970 | 2 |
| 2025-04-16T07:23:00 | 54.529440 | 7.515864 | 2.0 | 8.762 | 2 | 34.188 | 8.932 | 31.971 | 2 |
| 2025-04-16T07:24:00 | 54.529387 | 7.516053 | 2.0 | 8.763 | 2 | 34.188 | 8.932 | 31.971 | 2 |
| 2025-04-16T07:25:00 | 54.529345 | 7.516234 | 2.0 | 8.763 | 2 | 34.188 | 8.933 | 31.970 | 2 |
| 2025-04-16T07:26:00 | 54.529309 | 7.516398 | 2.0 | 8.765 | 2 | 34.188 | 8.933 | 31.970 | 2 |
| 2025-04-16T07:27:00 | 54.529275 | 7.516559 | 2.0 | 8.765 | 2 | 34.190 | 8.934 | 31.971 | 2 |
| 2025-04-16T07:28:00 | 54.529233 | 7.516722 | 2.0 | 8.762 | 2 | 34.191 | 8.934 | 31.973 | 2 |
| 2025-04-16T07:29:00 | 54.529176 | 7.516878 | 2.0 | 8.763 | 2 | 34.190 | 8.933 | 31.972 | 2 |
| 2025-04-16T07:30:00 | 54.529111 | 7.517030 | 2.0 | 8.763 | 2 | 34.191 | 8.933 | 31.973 | 2 |
| 2025-04-16T07:31:00 | 54.529045 | 7.517198 | 2.0 | 8.760 | 2 | 34.192 | 8.932 | 31.975 | 2 |
| 2025-04-16T07:32:00 | 54.528979 | 7.517354 | 2.0 | 8.757 | 2 | 34.191 | 8.929 | 31.977 | 2 |
| 2025-04-16T07:33:00 | 54.528908 | 7.517482 | 2.0 | 8.758 | 2 | 34.189 | 8.927 | 31.977 | 2 |
| 2025-04-16T07:34:00 | 54.528825 | 7.517558 | 2.0 | 8.756 | 2 | 34.190 | 8.927 | 31.978 | 2 |
| 2025-04-16T07:35:00 | 54.528724 | 7.517595 | 2.0 | 8.751 | 2 | 34.189 | 8.926 | 31.978 | 2 |
| 2025-04-16T07:36:00 | 54.528605 | 7.517606 | 2.0 | 8.734 | 2 | 34.185 | 8.916 | 31.982 | 2 |
| 2025-04-16T07:37:00 | 54.528487 | 7.517585 | 2.0 | 8.733 | 2 | 34.181 | 8.906 | 31.987 | 2 |
| 2025-04-16T07:38:00 | 54.528382 | 7.517542 | 2.0 | 8.730 | 2 | 34.182 | 8.903 | 31.991 | 2 |
| 2025-04-16T07:39:00 | 54.528280 | 7.517486 | 2.0 | 8.725 | 2 | 34.180 | 8.898 | 31.994 | 2 |
| 2025-04-16T07:40:00 | 54.528183 | 7.517402 | 2.0 | 8.727 | 2 | 34.178 | 8.896 | 31.993 | 2 |
| 2025-04-16T07:41:00 | 54.528103 | 7.517282 | 2.0 | 8.735 | 2 | 34.180 | 8.898 | 31.994 | 2 |
| 2025-04-16T07:42:00 | 54.528047 | 7.517135 | 2.0 | 8.736 | 2 | 34.186 | 8.904 | 31.994 | 2 |
| 2025-04-16T07:43:00 | 54.528031 | 7.516962 | 2.0 | 8.730 | 2 | 34.186 | 8.904 | 31.994 | 2 |
| 2025-04-16T07:44:00 | 54.528069 | 7.516757 | 2.0 | 8.732 | 2 | 34.181 | 8.899 | 31.994 | 2 |
| 2025-04-16T07:45:00 | 54.528143 | 7.516560 | 2.0 | 8.731 | 2 | 33.827 | 8.901 | 31.624 | 2 |
| 2025-04-16T07:46:00 | 54.528199 | 7.516388 | 2.0 | 8.736 | 2 | 34.173 | 8.901 | 31.984 | 2 |
| 2025-04-16T07:47:00 | 54.528247 | 7.516225 | 2.0 | 8.743 | 2 | 34.187 | 8.908 | 31.992 | 2 |
| 2025-04-16T07:48:00 | 54.528308 | 7.516060 | 2.0 | 8.747 | 2 | 34.188 | 8.912 | 31.989 | 2 |
| 2025-04-16T07:49:00 | 54.528386 | 7.515905 | 2.0 | 8.748 | 2 | 34.188 | 8.916 | 31.986 | 2 |
| 2025-04-16T07:50:00 | 54.528491 | 7.515768 | 2.0 | 8.749 | 2 | 34.087 | 8.917 | 31.880 | 2 |
| 2025-04-16T07:51:00 | 54.528622 | 7.515681 | 2.0 | 8.750 | 2 | 33.650 | 8.916 | 31.428 | 2 |
| 2025-04-16T07:53:00 | 54.528721 | 7.515853 | 2.0 | 8.748 | 2 | 33.707 | 8.913 | 31.489 | 2 |
| 2025-04-16T07:54:00 | 54.528704 | 7.516049 | 2.0 | 8.743 | 2 | 34.187 | 8.919 | 31.982 | 2 |
| 2025-04-16T07:55:00 | 54.528701 | 7.516236 | 2.0 | 8.508 | 2 | 34.172 | 8.883 | 31.999 | 2 |
| 2025-04-16T07:56:00 | 54.528713 | 7.516411 | 2.0 | 8.649 | 2 | 34.054 | 8.710 | 32.032 | 2 |
| 2025-04-16T07:57:00 | 54.528733 | 7.516588 | 2.0 | 8.544 | 2 | 34.106 | 8.811 | 31.995 | 2 |
| 2025-04-16T07:58:00 | 54.528768 | 7.516771 | 2.0 | 8.470 | 2 | 34.057 | 8.713 | 32.033 | 2 |
| 2025-04-16T07:59:00 | 54.528814 | 7.516961 | 2.0 | 8.525 | 2 | 34.002 | 8.622 | 32.057 | 2 |
| 2025-04-16T08:00:00 | 54.528866 | 7.517156 | 2.0 | 8.674 | 2 | 34.049 | 8.737 | 32.002 | 2 |
| 2025-04-16T08:01:00 | 54.528926 | 7.517358 | 2.0 | 8.701 | 2 | 34.131 | 8.844 | 31.991 | 2 |
| 2025-04-16T08:02:00 | 54.528991 | 7.517563 | 2.0 | 8.732 | 2 | 34.155 | 8.875 | 31.988 | 2 |
| 2025-04-16T08:03:00 | 54.529062 | 7.517769 | 2.0 | 8.766 | 2 | 34.176 | 8.905 | 31.983 | 2 |
| 2025-04-16T08:04:00 | 54.529134 | 7.517975 | 2.0 | 8.772 | 2 | 34.195 | 8.932 | 31.978 | 2 |
| 2025-04-16T08:05:00 | 54.529216 | 7.518178 | 2.0 | 8.780 | 2 | 34.203 | 8.941 | 31.979 | 2 |
| 2025-04-16T08:06:00 | 54.529283 | 7.518297 | 2.0 | 8.780 | 2 | 34.208 | 8.946 | 31.979 | 2 |
| 2025-04-16T08:07:00 | 54.529303 | 7.518104 | 2.0 | 8.771 | 2 | 34.208 | 8.946 | 31.979 | 2 |
| 2025-04-16T08:08:00 | 54.529234 | 7.517419 | 2.0 | 8.761 | 2 | 34.200 | 8.934 | 31.982 | 2 |
| 2025-04-16T08:09:00 | 54.529095 | 7.516349 | 2.0 | 8.778 | 2 | 34.196 | 8.931 | 31.980 | 2 |
| 2025-04-16T08:10:00 | 54.528913 | 7.515014 | 2.0 | 8.783 | 2 | 34.203 | 8.946 | 31.974 | 2 |
| 2025-04-16T08:11:00 | 54.528699 | 7.513504 | 2.0 | 8.778 | 2 | 34.202 | 8.951 | 31.969 | 2 |
| 2025-04-16T08:12:00 | 54.528485 | 7.512048 | 2.0 | 8.774 | 2 | 34.197 | 8.947 | 31.967 | 2 |
| 2025-04-16T08:13:00 | 54.528288 | 7.510728 | 2.0 | 8.776 | 2 | 34.191 | 8.944 | 31.964 | 2 |
| 2025-04-16T08:14:00 | 54.528104 | 7.509511 | 2.0 | 8.781 | 2 | 34.190 | 8.945 | 31.962 | 2 |
| 2025-04-16T08:15:00 | 54.527927 | 7.508368 | 2.0 | 8.784 | 2 | 34.195 | 8.950 | 31.962 | 2 |
| 2025-04-16T08:16:00 | 54.527759 | 7.507313 | 2.0 | 8.777 | 2 | 34.199 | 8.950 | 31.966 | 2 |
| 2025-04-16T08:17:00 | 54.527599 | 7.506372 | 2.0 | 8.768 | 2 | 34.199 | 8.944 | 31.972 | 2 |
| 2025-04-16T08:18:00 | 54.527438 | 7.505518 | 2.0 | 8.761 | 2 | 34.195 | 8.935 | 31.976 | 2 |
| 2025-04-16T08:19:00 | 54.527281 | 7.504736 | 2.0 | 8.755 | 2 | 34.194 | 8.928 | 31.981 | 2 |
| 2025-04-16T08:20:00 | 54.527139 | 7.504016 | 2.0 | 8.760 | 2 | 34.192 | 8.926 | 31.981 | 2 |
| 2025-04-16T08:21:00 | 54.527054 | 7.503344 | 2.0 | 8.759 | 2 | 34.195 | 8.927 | 31.983 | 2 |
| 2025-04-16T08:22:00 | 54.526990 | 7.502710 | 2.0 | 8.753 | 2 | 34.190 | 8.926 | 31.979 | 2 |
| 2025-04-16T08:23:00 | 54.526926 | 7.502109 | 2.0 | 8.751 | 2 | 34.193 | 8.922 | 31.985 | 2 |
| 2025-04-16T08:24:00 | 54.526873 | 7.501536 | 2.0 | 8.750 | 2 | 34.196 | 8.919 | 31.991 | 2 |
| 2025-04-16T08:25:00 | 54.526828 | 7.500978 | 2.0 | 8.747 | 2 | 34.030 | 8.916 | 31.822 | 2 |
| 2025-04-16T08:26:00 | 54.526787 | 7.500432 | 2.0 | 8.756 | 2 | 34.206 | 8.921 | 32.000 | 2 |
| 2025-04-16T08:27:00 | 54.526748 | 7.499897 | 2.0 | 8.771 | 2 | 34.152 | 8.926 | 31.939 | 2 |
| 2025-04-16T08:28:00 | 54.526706 | 7.499375 | 2.0 | 8.765 | 2 | 34.216 | 8.937 | 31.996 | 2 |
| 2025-04-16T08:29:00 | 54.526665 | 7.498862 | 2.0 | 8.758 | 2 | 34.208 | 8.929 | 31.995 | 2 |
| 2025-04-16T08:30:00 | 54.526612 | 7.498355 | 2.0 | 8.770 | 2 | 34.210 | 8.929 | 31.997 | 2 |
| 2025-04-16T08:31:00 | 54.526557 | 7.497845 | 2.0 | 8.772 | 2 | 34.216 | 8.937 | 31.996 | 2 |
| 2025-04-16T08:32:00 | 54.526503 | 7.497348 | 2.0 | 8.771 | 2 | 34.217 | 8.940 | 31.994 | 2 |
| 2025-04-16T08:33:00 | 54.526451 | 7.496861 | 2.0 | 8.765 | 2 | 33.976 | 8.938 | 31.746 | 2 |
| 2025-04-16T08:34:00 | 54.526395 | 7.496378 | 2.0 | 8.775 | 2 | 34.073 | 8.936 | 31.848 | 2 |
| 2025-04-16T08:35:00 | 54.526341 | 7.495907 | 2.0 | 8.776 | 2 | 34.065 | 8.941 | 31.836 | 2 |
| 2025-04-16T08:36:00 | 54.526287 | 7.495429 | 2.0 | 8.780 | 2 | 33.725 | 8.945 | 31.480 | 2 |
| 2025-04-16T08:37:00 | 54.526360 | 7.494796 | 2.0 | 8.778 | 2 | 33.969 | 8.945 | 31.732 | 2 |
| 2025-04-16T08:38:00 | 54.526750 | 7.493825 | 2.0 | 8.876 | 2 | 33.889 | 8.948 | 31.647 | 2 |
| 2025-04-16T08:39:00 | 54.527403 | 7.492136 | 2.0 | 8.968 | 2 | 34.028 | 9.068 | 31.684 | 2 |
| 2025-04-16T08:40:00 | 54.528155 | 7.490150 | 2.0 | 9.025 | 2 | 34.057 | 9.145 | 31.645 | 2 |
| 2025-04-16T08:41:00 | 54.528829 | 7.488366 | 2.0 | 9.046 | 2 | 33.794 | 9.193 | 31.332 | 2 |
| 2025-04-16T08:42:00 | 54.529026 | 7.486903 | 2.0 | 9.049 | 2 | 34.068 | 9.209 | 31.600 | 2 |
| 2025-04-16T08:43:00 | 54.529079 | 7.485696 | 2.0 | 9.048 | 2 | 34.126 | 9.214 | 31.655 | 2 |
| 2025-04-16T08:44:00 | 54.529188 | 7.484649 | 2.0 | 9.039 | 2 | 34.199 | 9.215 | 31.729 | 2 |
| 2025-04-16T08:45:00 | 54.529415 | 7.483850 | 2.0 | 9.041 | 2 | 34.049 | 9.204 | 31.585 | 2 |
| 2025-04-16T08:46:00 | 54.529502 | 7.483207 | 2.0 | 9.044 | 2 | 34.084 | 9.207 | 31.618 | 2 |
| 2025-04-16T08:47:00 | 54.529493 | 7.482970 | 2.0 | 9.049 | 2 | 34.118 | 9.208 | 31.652 | 2 |
| 2025-04-16T08:48:00 | 54.529437 | 7.482918 | 2.0 | 9.061 | 2 | 33.902 | 9.217 | 31.422 | 2 |
| 2025-04-16T08:49:00 | 54.529346 | 7.482885 | 2.0 | 9.066 | 2 | 34.148 | 9.226 | 31.667 | 2 |
| 2025-04-16T08:50:00 | 54.529259 | 7.482821 | 2.0 | 9.057 | 2 | 34.214 | 9.231 | 31.731 | 2 |
| 2025-04-16T08:51:00 | 54.529210 | 7.482743 | 2.0 | 9.061 | 2 | 34.013 | 9.226 | 31.528 | 2 |
| 2025-04-16T08:52:00 | 54.529187 | 7.482666 | 2.0 | 9.065 | 2 | 34.134 | 9.229 | 31.650 | 2 |
| 2025-04-16T08:53:00 | 54.529164 | 7.482570 | 2.0 | 9.076 | 2 | 34.090 | 9.232 | 31.602 | 2 |
| 2025-04-16T08:54:00 | 54.529142 | 7.482451 | 2.0 | 9.080 | 2 | 34.280 | 9.243 | 31.788 | 2 |
| 2025-04-16T08:55:00 | 54.529128 | 7.482349 | 2.0 | 9.087 | 2 | 34.115 | 9.243 | 31.618 | 2 |
| 2025-04-16T08:56:00 | 54.529122 | 7.482300 | 2.0 | 9.085 | 2 | 34.286 | 9.253 | 31.785 | 2 |
| 2025-04-16T08:57:00 | 54.529109 | 7.482233 | 2.0 | 9.097 | 2 | 34.243 | 9.253 | 31.741 | 2 |
| 2025-04-16T08:58:00 | 54.529106 | 7.482178 | 2.0 | 9.100 | 2 | 34.110 | 9.262 | 31.596 | 2 |
| 2025-04-16T08:59:00 | 54.529105 | 7.482143 | 2.0 | 9.102 | 2 | 34.272 | 9.267 | 31.758 | 2 |
| 2025-04-16T09:00:00 | 54.529094 | 7.482068 | 2.0 | 9.096 | 2 | 34.109 | 9.264 | 31.593 | 2 |
| 2025-04-16T09:01:00 | 54.529081 | 7.481994 | 2.0 | 9.101 | 2 | 34.246 | 9.263 | 31.735 | 2 |
| 2025-04-16T09:02:00 | 54.529058 | 7.481896 | 2.0 | 9.091 | 2 | 34.205 | 9.265 | 31.691 | 2 |
| 2025-04-16T09:03:00 | 54.529024 | 7.481806 | 2.0 | 9.080 | 2 | 34.303 | 9.253 | 31.803 | 2 |
| 2025-04-16T09:04:00 | 54.528993 | 7.481712 | 2.0 | 9.078 | 2 | 34.220 | 9.248 | 31.722 | 2 |
| 2025-04-16T09:05:00 | 54.528967 | 7.481629 | 2.0 | 9.076 | 2 | 34.230 | 9.242 | 31.737 | 2 |
| 2025-04-16T09:06:00 | 54.528935 | 7.481524 | 2.0 | 9.076 | 2 | 34.141 | 9.244 | 31.644 | 2 |
| 2025-04-16T09:07:00 | 54.528918 | 7.481414 | 2.0 | 9.077 | 2 | 34.283 | 9.243 | 31.791 | 2 |
| 2025-04-16T09:08:00 | 54.528908 | 7.481317 | 2.0 | 9.076 | 2 | 34.186 | 9.242 | 31.692 | 2 |
| 2025-04-16T09:09:00 | 54.528895 | 7.481232 | 2.0 | 9.064 | 2 | 34.212 | 9.241 | 31.720 | 2 |
| 2025-04-16T09:10:00 | 54.528906 | 7.481149 | 2.0 | 9.060 | 2 | 34.197 | 9.228 | 31.716 | 2 |
| 2025-04-16T09:11:00 | 54.528923 | 7.481070 | 2.0 | 9.073 | 2 | 34.179 | 9.230 | 31.695 | 2 |
| 2025-04-16T09:12:00 | 54.528943 | 7.481014 | 2.0 | 9.064 | 2 | 34.212 | 9.238 | 31.722 | 2 |
| 2025-04-16T09:13:00 | 54.528948 | 7.480975 | 2.0 | 9.061 | 2 | 34.205 | 9.229 | 31.723 | 2 |
| 2025-04-16T09:14:00 | 54.528945 | 7.480961 | 2.0 | 9.062 | 2 | 34.213 | 9.227 | 31.733 | 2 |
| 2025-04-16T09:15:00 | 54.528945 | 7.480929 | 2.0 | 9.069 | 2 | 34.247 | 9.231 | 31.765 | 2 |
| 2025-04-16T09:16:00 | 54.528942 | 7.480888 | 2.0 | 9.079 | 2 | 34.235 | 9.237 | 31.747 | 2 |
| 2025-04-16T09:17:00 | 54.528950 | 7.480885 | 2.0 | 9.081 | 2 | 34.253 | 9.245 | 31.758 | 2 |
| 2025-04-16T09:18:00 | 54.528950 | 7.480898 | 2.0 | 9.095 | 2 | 34.280 | 9.252 | 31.780 | 2 |
| 2025-04-16T09:19:00 | 54.528944 | 7.480909 | 2.0 | 9.096 | 2 | 34.253 | 9.259 | 31.746 | 2 |
| 2025-04-16T09:20:00 | 54.528948 | 7.480917 | 2.0 | 9.088 | 2 | 34.241 | 9.258 | 31.734 | 2 |
| 2025-04-16T09:21:00 | 54.528950 | 7.480936 | 2.0 | 9.101 | 2 | 34.163 | 9.259 | 31.653 | 2 |
| 2025-04-16T09:22:00 | 54.528956 | 7.481063 | 2.0 | 9.096 | 2 | 34.269 | 9.267 | 31.755 | 2 |
| 2025-04-16T09:23:00 | 54.528961 | 7.481132 | 2.0 | 9.094 | 2 | 34.381 | 9.260 | 31.877 | 2 |
| 2025-04-16T09:24:00 | 54.528965 | 7.481164 | 2.0 | 9.090 | 2 | 34.378 | 9.258 | 31.875 | 2 |
| 2025-04-16T09:25:00 | 54.528970 | 7.480964 | 2.0 | 9.078 | 2 | 34.372 | 9.251 | 31.875 | 2 |
| 2025-04-16T09:26:00 | 54.529041 | 7.480371 | 2.0 | 9.069 | 2 | 34.364 | 9.242 | 31.875 | 2 |
| 2025-04-16T09:27:00 | 54.529249 | 7.479624 | 2.0 | 9.069 | 2 | 34.359 | 9.235 | 31.876 | 2 |
| 2025-04-16T09:28:00 | 54.529523 | 7.478624 | 2.0 | 9.065 | 2 | 34.359 | 9.234 | 31.877 | 2 |
| 2025-04-16T09:29:00 | 54.529921 | 7.477556 | 2.0 | 9.056 | 2 | 34.357 | 9.229 | 31.880 | 2 |
| 2025-04-16T09:30:00 | 54.530637 | 7.477651 | 2.0 | 9.059 | 2 | 34.351 | 9.221 | 31.881 | 2 |
| 2025-04-16T09:31:00 | 54.531296 | 7.478390 | 2.0 | 9.055 | 2 | 34.353 | 9.226 | 31.878 | 2 |
| 2025-04-16T09:32:00 | 54.531427 | 7.479376 | 2.0 | 9.026 | 2 | 34.341 | 9.210 | 31.880 | 2 |
| 2025-04-16T09:33:00 | 54.531306 | 7.480235 | 2.0 | 9.069 | 2 | 34.328 | 9.202 | 31.874 | 2 |
| 2025-04-16T09:34:00 | 54.531095 | 7.480726 | 2.0 | 9.088 | 2 | 34.359 | 9.240 | 31.872 | 2 |
| 2025-04-16T09:35:00 | 54.531065 | 7.480902 | 2.0 | 9.064 | 2 | 34.370 | 9.245 | 31.879 | 2 |
| 2025-04-16T09:36:00 | 54.531051 | 7.480746 | 2.0 | 8.938 | 2 | 34.337 | 9.196 | 31.888 | 2 |
| 2025-04-16T09:37:00 | 54.531014 | 7.480490 | 2.0 | 9.057 | 2 | 34.278 | 9.128 | 31.888 | 2 |
| 2025-04-16T09:38:00 | 54.531013 | 7.480219 | 2.0 | 9.071 | 2 | 34.346 | 9.221 | 31.875 | 2 |
| 2025-04-16T09:39:00 | 54.531016 | 7.479974 | 2.0 | 9.067 | 2 | 34.364 | 9.235 | 31.881 | 2 |
| 2025-04-16T09:40:00 | 54.531028 | 7.479758 | 2.0 | 9.058 | 2 | 34.366 | 9.235 | 31.884 | 2 |
| 2025-04-16T09:41:00 | 54.531059 | 7.479569 | 2.0 | 9.058 | 2 | 34.356 | 9.221 | 31.886 | 2 |
| 2025-04-16T09:42:00 | 54.531087 | 7.479411 | 2.0 | 9.057 | 2 | 34.358 | 9.226 | 31.883 | 2 |
| 2025-04-16T09:43:00 | 54.531097 | 7.479306 | 2.0 | 9.055 | 2 | 34.351 | 9.216 | 31.885 | 2 |
| 2025-04-16T09:44:00 | 54.531134 | 7.479179 | 2.0 | 9.052 | 2 | 34.353 | 9.223 | 31.881 | 2 |
| 2025-04-16T09:45:00 | 54.531165 | 7.479094 | 2.0 | 9.035 | 2 | 34.348 | 9.215 | 31.883 | 2 |
| 2025-04-16T09:46:00 | 54.531162 | 7.479039 | 2.0 | 9.049 | 2 | 34.336 | 9.206 | 31.879 | 2 |
| 2025-04-16T09:47:00 | 54.531160 | 7.479009 | 2.0 | 9.042 | 2 | 34.345 | 9.216 | 31.879 | 2 |
| 2025-04-16T09:48:00 | 54.531167 | 7.478973 | 2.0 | 9.052 | 2 | 34.339 | 9.210 | 31.878 | 2 |
| 2025-04-16T09:49:00 | 54.531097 | 7.478824 | 2.0 | 9.061 | 2 | 34.346 | 9.219 | 31.877 | 2 |
| 2025-04-16T09:50:00 | 54.530841 | 7.478735 | 2.0 | 9.056 | 2 | 34.352 | 9.225 | 31.878 | 2 |
| 2025-04-16T09:51:00 | 54.530335 | 7.478731 | 2.0 | 9.042 | 2 | 34.350 | 9.223 | 31.878 | 2 |
| 2025-04-16T09:52:00 | 54.529707 | 7.478670 | 2.0 | 9.014 | 2 | 34.333 | 9.201 | 31.880 | 2 |
| 2025-04-16T09:53:00 | 54.529011 | 7.478810 | 2.0 | 9.021 | 2 | 34.317 | 9.184 | 31.879 | 2 |
| 2025-04-16T09:54:00 | 54.528294 | 7.479321 | 2.0 | 9.041 | 2 | 34.048 | 9.191 | 31.595 | 2 |
| 2025-04-16T09:55:00 | 54.527592 | 7.479619 | 2.0 | 9.023 | 2 | 34.333 | 9.202 | 31.879 | 2 |
| 2025-04-16T09:56:00 | 54.526930 | 7.479736 | 2.0 | 9.030 | 2 | 34.324 | 9.192 | 31.879 | 2 |
| 2025-04-16T09:57:00 | 54.526622 | 7.479696 | 2.0 | 9.013 | 2 | 34.329 | 9.195 | 31.881 | 2 |
| 2025-04-16T09:58:00 | 54.526626 | 7.479649 | 2.0 | 9.020 | 2 | 34.034 | 9.179 | 31.591 | 2 |
| 2025-04-16T09:59:00 | 54.526670 | 7.479550 | 2.0 | 9.040 | 2 | 34.186 | 9.187 | 31.741 | 2 |
| 2025-04-16T10:00:00 | 54.526672 | 7.479474 | 2.0 | 9.025 | 2 | 34.316 | 9.203 | 31.861 | 2 |
| 2025-04-16T10:01:00 | 54.526708 | 7.479367 | 2.0 | 9.016 | 2 | 34.320 | 9.190 | 31.876 | 2 |
| 2025-04-16T10:02:00 | 54.526742 | 7.479241 | 2.0 | 9.007 | 2 | 34.246 | 9.183 | 31.806 | 2 |
| 2025-04-16T10:03:00 | 54.526758 | 7.479076 | 2.0 | 9.013 | 2 | 34.308 | 9.176 | 31.876 | 2 |
| 2025-04-16T10:04:00 | 54.526769 | 7.478955 | 2.0 | 9.006 | 2 | 34.247 | 9.180 | 31.810 | 2 |
| 2025-04-16T10:05:00 | 54.526780 | 7.478881 | 2.0 | 9.015 | 2 | 34.309 | 9.175 | 31.878 | 2 |
| 2025-04-16T10:06:00 | 54.526787 | 7.478864 | 2.0 | 9.030 | 2 | 33.963 | 9.185 | 31.513 | 2 |
| 2025-04-16T10:07:00 | 54.526793 | 7.478854 | 2.0 | 9.022 | 2 | 33.931 | 9.193 | 31.473 | 2 |
| 2025-04-16T10:08:00 | 54.526801 | 7.478842 | 2.0 | 9.024 | 2 | 34.059 | 9.188 | 31.609 | 2 |
| 2025-04-16T10:09:00 | 54.526809 | 7.478830 | 2.0 | 9.017 | 2 | 34.081 | 9.183 | 31.636 | 2 |
| 2025-04-16T10:10:00 | 54.526857 | 7.478783 | 2.0 | 9.022 | 2 | 34.088 | 9.183 | 31.644 | 2 |
| 2025-04-16T10:11:00 | 54.526863 | 7.478750 | 2.0 | 9.022 | 2 | 33.850 | 9.188 | 31.394 | 2 |
| 2025-04-16T10:12:00 | 54.526858 | 7.478719 | 2.0 | 9.014 | 2 | 34.099 | 9.187 | 31.651 | 2 |
| 2025-04-16T10:13:00 | 54.526858 | 7.478512 | 2.0 | 9.017 | 2 | 34.026 | 9.180 | 31.582 | 2 |
| 2025-04-16T10:14:00 | 54.526881 | 7.478202 | 2.0 | 9.011 | 2 | 34.298 | 9.180 | 31.863 | 2 |
| 2025-04-16T10:15:00 | 54.527265 | 7.477898 | 2.0 | 8.986 | 2 | 33.880 | 9.172 | 31.439 | 2 |
| 2025-04-16T10:16:00 | 54.527895 | 7.477635 | 2.0 | 8.986 | 2 | 34.096 | 9.154 | 31.678 | 2 |
| 2025-04-16T10:17:00 | 54.528681 | 7.477339 | 2.0 | 8.987 | 2 | 34.210 | 9.150 | 31.799 | 2 |
| 2025-04-16T10:18:00 | 54.529592 | 7.477187 | 2.0 | 8.989 | 2 | 34.209 | 9.156 | 31.792 | 2 |
| 2025-04-16T10:19:00 | 54.530492 | 7.477066 | 2.0 | 8.998 | 2 | 34.124 | 9.159 | 31.702 | 2 |
| 2025-04-16T10:20:00 | 54.531360 | 7.476949 | 2.0 | 9.016 | 2 | 34.052 | 9.166 | 31.622 | 2 |
| 2025-04-16T10:21:00 | 54.531881 | 7.477663 | 2.0 | 8.995 | 2 | 34.237 | 9.174 | 31.805 | 2 |
| 2025-04-16T10:22:00 | 54.531961 | 7.478567 | 2.0 | 8.977 | 2 | 33.849 | 9.152 | 31.425 | 2 |
| 2025-04-16T10:23:00 | 54.531894 | 7.479409 | 2.0 | 9.012 | 2 | 33.723 | 9.152 | 31.295 | 2 |
| 2025-04-16T10:24:00 | 54.531741 | 7.480300 | 2.0 | 9.000 | 2 | 34.369 | 9.177 | 31.938 | 2 |
| 2025-04-16T10:25:00 | 54.531499 | 7.480985 | 2.0 | 9.017 | 2 | 34.361 | 9.164 | 31.942 | 2 |
| 2025-04-16T10:26:00 | 54.531354 | 7.481201 | 2.0 | 9.026 | 2 | 34.370 | 9.184 | 31.933 | 2 |
| 2025-04-16T10:27:00 | 54.531406 | 7.480960 | 2.0 | 9.032 | 2 | 34.375 | 9.184 | 31.938 | 2 |
| 2025-04-16T10:28:00 | 54.531347 | 7.480568 | 2.0 | 8.940 | 2 | 34.380 | 9.184 | 31.944 | 2 |
| 2025-04-16T10:29:00 | 54.531338 | 7.480060 | 2.0 | 8.996 | 2 | 34.327 | 9.113 | 31.952 | 2 |
| 2025-04-16T10:30:00 | 54.531376 | 7.479591 | 2.0 | 9.039 | 2 | 34.372 | 9.182 | 31.937 | 2 |
| 2025-04-16T10:31:00 | 54.531389 | 7.479254 | 2.0 | 9.043 | 2 | 34.404 | 9.205 | 31.949 | 2 |
| 2025-04-16T10:32:00 | 54.531419 | 7.479000 | 2.0 | 9.042 | 2 | 34.406 | 9.203 | 31.953 | 2 |
| 2025-04-16T10:33:00 | 54.531437 | 7.478819 | 2.0 | 9.047 | 2 | 34.413 | 9.209 | 31.955 | 2 |
| 2025-04-16T10:34:00 | 54.531447 | 7.478701 | 2.0 | 9.059 | 2 | 34.417 | 9.212 | 31.957 | 2 |
| 2025-04-16T10:35:00 | 54.531474 | 7.478625 | 2.0 | 9.059 | 2 | 34.427 | 9.220 | 31.960 | 2 |
| 2025-04-16T10:36:00 | 54.531500 | 7.478596 | 2.0 | 9.061 | 2 | 34.436 | 9.231 | 31.959 | 2 |
| 2025-04-16T10:37:00 | 54.531525 | 7.478548 | 2.0 | 9.078 | 2 | 34.442 | 9.233 | 31.964 | 2 |
| 2025-04-16T10:38:00 | 54.531542 | 7.478470 | 2.0 | 9.087 | 2 | 34.455 | 9.247 | 31.964 | 2 |
| 2025-04-16T10:39:00 | 54.531550 | 7.478401 | 2.0 | 9.089 | 2 | 34.464 | 9.252 | 31.969 | 2 |
| 2025-04-16T10:40:00 | 54.531563 | 7.478330 | 2.0 | 9.122 | 2 | 34.471 | 9.263 | 31.967 | 2 |
| 2025-04-16T10:41:00 | 54.531569 | 7.478290 | 2.0 | 9.116 | 2 | 34.492 | 9.283 | 31.970 | 2 |
| 2025-04-16T10:42:00 | 54.531574 | 7.478269 | 2.0 | 9.126 | 2 | 34.495 | 9.288 | 31.969 | 2 |
| 2025-04-16T10:43:00 | 54.531582 | 7.478244 | 2.0 | 9.097 | 2 | 34.489 | 9.284 | 31.966 | 2 |
| 2025-04-16T10:44:00 | 54.531588 | 7.478204 | 2.0 | 9.122 | 2 | 34.465 | 9.268 | 31.956 | 2 |
| 2025-04-16T10:45:00 | 54.531608 | 7.478144 | 2.0 | 9.111 | 2 | 34.474 | 9.283 | 31.952 | 2 |
| 2025-04-16T10:46:00 | 54.531544 | 7.477868 | 2.0 | 9.109 | 2 | 34.472 | 9.281 | 31.951 | 2 |
| 2025-04-16T10:47:00 | 54.531227 | 7.477825 | 2.0 | 9.105 | 2 | 34.464 | 9.272 | 31.951 | 2 |
| 2025-04-16T10:48:00 | 54.530744 | 7.477868 | 2.0 | 9.099 | 2 | 34.459 | 9.266 | 31.952 | 2 |
| 2025-04-16T10:49:00 | 54.530136 | 7.477889 | 2.0 | 9.086 | 2 | 34.458 | 9.265 | 31.951 | 2 |
| 2025-04-16T10:50:00 | 54.529435 | 7.478278 | 2.0 | 9.105 | 2 | 34.447 | 9.252 | 31.952 | 2 |
| 2025-04-16T10:51:00 | 54.528695 | 7.478737 | 2.0 | 9.123 | 2 | 34.469 | 9.267 | 31.961 | 2 |
| 2025-04-16T10:52:00 | 54.527926 | 7.479063 | 2.0 | 9.144 | 2 | 34.494 | 9.295 | 31.962 | 2 |
| 2025-04-16T10:53:00 | 54.527125 | 7.479433 | 2.0 | 9.214 | 2 | 34.514 | 9.319 | 31.961 | 2 |
| 2025-04-16T10:54:00 | 54.526488 | 7.479601 | 2.0 | 9.225 | 2 | 34.578 | 9.377 | 31.975 | 2 |
| 2025-04-16T10:55:00 | 54.526380 | 7.479597 | 2.0 | 9.172 | 2 | 34.587 | 9.377 | 31.984 | 2 |
| 2025-04-16T10:56:00 | 54.526412 | 7.479549 | 2.0 | 9.116 | 2 | 34.529 | 9.323 | 31.973 | 2 |
| 2025-04-16T10:57:00 | 54.526501 | 7.479505 | 2.0 | 9.136 | 2 | 34.475 | 9.289 | 31.947 | 2 |
| 2025-04-16T10:58:00 | 54.526566 | 7.479499 | 2.0 | 9.147 | 2 | 34.482 | 9.304 | 31.941 | 2 |
| 2025-04-16T10:59:00 | 54.526593 | 7.479438 | 2.0 | 9.136 | 2 | 34.492 | 9.311 | 31.945 | 2 |
| 2025-04-16T11:00:00 | 54.526610 | 7.479279 | 2.0 | 9.135 | 2 | 34.493 | 9.305 | 31.952 | 2 |
| 2025-04-16T11:01:00 | 54.526627 | 7.479127 | 2.0 | 9.126 | 2 | 34.486 | 9.295 | 31.953 | 2 |
| 2025-04-16T11:02:00 | 54.526651 | 7.478966 | 2.0 | 9.147 | 2 | 34.479 | 9.293 | 31.948 | 2 |
| 2025-04-16T11:03:00 | 54.526676 | 7.478815 | 2.0 | 9.158 | 2 | 34.491 | 9.312 | 31.943 | 2 |
| 2025-04-16T11:04:00 | 54.526707 | 7.478694 | 2.0 | 9.155 | 2 | 34.501 | 9.323 | 31.944 | 2 |
| 2025-04-16T11:05:00 | 54.526735 | 7.478598 | 2.0 | 9.146 | 2 | 34.293 | 9.317 | 31.735 | 2 |
| 2025-04-16T11:06:00 | 54.526758 | 7.478521 | 2.0 | 9.149 | 2 | 34.478 | 9.314 | 31.928 | 2 |
| 2025-04-16T11:07:00 | 54.526786 | 7.478467 | 2.0 | 9.150 | 2 | 34.493 | 9.314 | 31.944 | 2 |
| 2025-04-16T11:08:00 | 54.526838 | 7.478299 | 2.0 | 9.155 | 2 | 34.495 | 9.317 | 31.943 | 2 |
| 2025-04-16T11:09:00 | 54.527116 | 7.478045 | 2.0 | 9.142 | 2 | 34.117 | 9.317 | 31.555 | 2 |
| 2025-04-16T11:10:00 | 54.527656 | 7.478000 | 2.0 | 9.144 | 2 | 34.485 | 9.303 | 31.945 | 2 |
| 2025-04-16T11:11:00 | 54.528357 | 7.478116 | 2.0 | 9.147 | 2 | 34.483 | 9.311 | 31.936 | 2 |
| 2025-04-16T11:12:00 | 54.529151 | 7.478327 | 2.0 | 9.149 | 2 | 34.489 | 9.311 | 31.942 | 2 |
| 2025-04-16T11:13:00 | 54.529994 | 7.478568 | 2.0 | 9.140 | 2 | 34.468 | 9.314 | 31.918 | 2 |
| 2025-04-16T11:14:00 | 54.530869 | 7.478797 | 2.0 | 9.158 | 2 | 34.013 | 9.308 | 31.456 | 2 |
| 2025-04-16T11:15:00 | 54.531628 | 7.478805 | 2.0 | 9.186 | 2 | 34.501 | 9.324 | 31.943 | 2 |
| 2025-04-16T11:16:00 | 54.531898 | 7.478467 | 2.0 | 9.200 | 2 | 34.322 | 9.353 | 31.733 | 2 |
| 2025-04-16T11:17:00 | 54.531900 | 7.478233 | 2.0 | 9.202 | 2 | 34.209 | 9.363 | 31.608 | 2 |
| 2025-04-16T11:18:00 | 54.531782 | 7.478153 | 2.0 | 9.204 | 2 | 34.402 | 9.365 | 31.805 | 2 |
| 2025-04-16T11:19:00 | 54.531587 | 7.478194 | 2.0 | 9.218 | 2 | 33.857 | 9.375 | 31.237 | 2 |
| 2025-04-16T11:20:00 | 54.531349 | 7.478283 | 2.0 | 9.207 | 2 | 34.525 | 9.382 | 31.916 | 2 |
| 2025-04-16T11:21:00 | 54.531160 | 7.478312 | 2.0 | 9.210 | 2 | 34.507 | 9.376 | 31.903 | 2 |
| 2025-04-16T11:22:00 | 54.531139 | 7.478294 | 2.0 | 9.207 | 2 | 34.101 | 9.372 | 31.490 | 2 |
| 2025-04-16T11:23:00 | 54.531174 | 7.478238 | 2.0 | 9.222 | 2 | 34.275 | 9.375 | 31.666 | 2 |
| 2025-04-16T11:24:00 | 54.531193 | 7.478170 | 2.0 | 9.240 | 2 | 34.559 | 9.392 | 31.942 | 2 |
| 2025-04-16T11:25:00 | 54.531228 | 7.478092 | 2.0 | 9.233 | 2 | 34.353 | 9.402 | 31.722 | 2 |
| 2025-04-16T11:26:00 | 54.531261 | 7.478027 | 2.0 | 9.236 | 2 | 34.371 | 9.390 | 31.751 | 2 |
| 2025-04-16T11:27:00 | 54.531276 | 7.477978 | 2.0 | 9.241 | 2 | 34.259 | 9.402 | 31.625 | 2 |
| 2025-04-16T11:28:00 | 54.531310 | 7.477938 | 2.0 | 9.245 | 2 | 34.325 | 9.408 | 31.688 | 2 |
| 2025-04-16T11:29:00 | 54.531356 | 7.477906 | 2.0 | 9.246 | 2 | 34.334 | 9.410 | 31.695 | 2 |
| 2025-04-16T11:30:00 | 54.531320 | 7.477736 | 2.0 | 9.234 | 2 | 34.341 | 9.405 | 31.707 | 2 |
| 2025-04-16T11:31:00 | 54.530994 | 7.477714 | 2.0 | 9.235 | 2 | 34.357 | 9.403 | 31.725 | 2 |
| 2025-04-16T11:32:00 | 54.530431 | 7.477938 | 2.0 | 9.216 | 2 | 34.330 | 9.398 | 31.702 | 2 |
| 2025-04-16T11:33:00 | 54.529690 | 7.478113 | 2.0 | 9.219 | 2 | 34.219 | 9.381 | 31.603 | 2 |
| 2025-04-16T11:34:00 | 54.528824 | 7.478281 | 2.0 | 9.198 | 2 | 34.292 | 9.379 | 31.679 | 2 |
| 2025-04-16T11:35:00 | 54.527919 | 7.478687 | 2.0 | 9.215 | 2 | 34.381 | 9.367 | 31.781 | 2 |
| 2025-04-16T11:36:00 | 54.527251 | 7.478820 | 2.0 | 9.194 | 2 | 34.330 | 9.374 | 31.723 | 2 |
| 2025-04-16T11:37:00 | 54.527016 | 7.478598 | 2.0 | 9.190 | 2 | 34.443 | 9.353 | 31.857 | 2 |
| 2025-04-16T11:38:00 | 54.526942 | 7.478393 | 2.0 | 9.219 | 2 | 34.426 | 9.364 | 31.830 | 2 |
| 2025-04-16T11:39:00 | 54.526989 | 7.478271 | 2.0 | 9.234 | 2 | 34.277 | 9.387 | 31.657 | 2 |
| 2025-04-16T11:40:00 | 54.527082 | 7.478159 | 2.0 | 9.246 | 2 | 34.150 | 9.401 | 31.515 | 2 |
| 2025-04-16T11:41:00 | 54.527119 | 7.478027 | 2.0 | 9.286 | 2 | 34.435 | 9.420 | 31.790 | 2 |
| 2025-04-16T11:42:00 | 54.527125 | 7.477895 | 2.0 | 9.285 | 2 | 34.473 | 9.447 | 31.805 | 2 |
| 2025-04-16T11:43:00 | 54.527161 | 7.477758 | 2.0 | 9.279 | 2 | 34.562 | 9.451 | 31.892 | 2 |
| 2025-04-16T11:44:00 | 54.527223 | 7.477640 | 2.0 | 9.302 | 2 | 34.409 | 9.448 | 31.738 | 2 |
| 2025-04-16T11:45:00 | 54.527338 | 7.477388 | 2.0 | 9.296 | 2 | 34.405 | 9.466 | 31.718 | 2 |
| 2025-04-16T11:46:00 | 54.527697 | 7.477218 | 2.0 | 9.273 | 2 | 34.290 | 9.455 | 31.610 | 2 |
| 2025-04-16T11:47:00 | 54.528267 | 7.477540 | 2.0 | 9.260 | 2 | 34.389 | 9.431 | 31.733 | 2 |
| 2025-04-16T11:48:00 | 54.528949 | 7.477871 | 2.0 | 9.272 | 2 | 34.549 | 9.430 | 31.898 | 2 |
| 2025-04-16T11:49:00 | 54.529735 | 7.478239 | 2.0 | 9.266 | 2 | 34.432 | 9.437 | 31.771 | 2 |
| 2025-04-16T11:50:00 | 54.530400 | 7.478302 | 2.0 | 9.305 | 2 | 34.389 | 9.434 | 31.730 | 2 |
| 2025-04-16T11:51:00 | 54.530736 | 7.477991 | 2.0 | 9.338 | 2 | 34.355 | 9.475 | 31.659 | 2 |
| 2025-04-16T11:52:00 | 54.530926 | 7.477652 | 2.0 | 9.375 | 2 | 34.558 | 9.509 | 31.837 | 2 |
| 2025-04-16T11:53:00 | 54.531056 | 7.477349 | 2.0 | 9.373 | 2 | 34.623 | 9.536 | 31.879 | 2 |
| 2025-04-16T11:54:00 | 54.531198 | 7.477098 | 2.0 | 9.310 | 2 | 34.582 | 9.523 | 31.849 | 2 |
| 2025-04-16T11:55:00 | 54.531238 | 7.476892 | 2.0 | 9.374 | 2 | 34.483 | 9.492 | 31.775 | 2 |
| 2025-04-16T11:56:00 | 54.531204 | 7.476762 | 2.0 | 9.385 | 2 | 34.495 | 9.540 | 31.745 | 2 |
| 2025-04-16T11:57:00 | 54.531162 | 7.476650 | 2.0 | 9.375 | 2 | 34.445 | 9.547 | 31.687 | 2 |
| 2025-04-16T11:58:00 | 54.531158 | 7.476600 | 2.0 | 9.376 | 2 | 34.249 | 9.541 | 31.493 | 2 |
| 2025-04-16T11:59:00 | 54.531162 | 7.476577 | 2.0 | 9.379 | 2 | 34.262 | 9.535 | 31.511 | 2 |
| 2025-04-16T12:00:00 | 54.531124 | 7.476484 | 2.0 | 9.401 | 2 | 34.238 | 9.549 | 31.474 | 2 |
| 2025-04-16T12:01:00 | 54.531115 | 7.476475 | 2.0 | 9.380 | 2 | 34.504 | 9.559 | 31.737 | 2 |
| 2025-04-16T12:02:00 | 54.531145 | 7.476510 | 2.0 | 9.392 | 2 | 34.506 | 9.547 | 31.750 | 2 |
| 2025-04-16T12:03:00 | 54.531183 | 7.476581 | 2.0 | 9.378 | 2 | 34.356 | 9.553 | 31.591 | 2 |
| 2025-04-16T12:04:00 | 54.531203 | 7.476672 | 2.0 | 9.385 | 2 | 34.639 | 9.544 | 31.888 | 2 |
| 2025-04-16T12:05:00 | 54.531223 | 7.476776 | 2.0 | 9.390 | 2 | 34.686 | 9.551 | 31.930 | 2 |
| 2025-04-16T12:06:00 | 54.531264 | 7.476913 | 2.0 | 9.406 | 2 | 34.690 | 9.554 | 31.931 | 2 |
| 2025-04-16T12:07:00 | 54.531306 | 7.477069 | 2.0 | 9.450 | 2 | 34.706 | 9.578 | 31.926 | 2 |
| 2025-04-16T12:08:00 | 54.531349 | 7.477233 | 2.0 | 9.443 | 2 | 34.735 | 9.612 | 31.926 | 2 |
| 2025-04-16T12:09:00 | 54.531391 | 7.477408 | 2.0 | 9.449 | 2 | 34.733 | 9.611 | 31.925 | 2 |
| 2025-04-16T12:10:00 | 54.531444 | 7.477592 | 2.0 | 9.426 | 2 | 34.729 | 9.605 | 31.926 | 2 |
| 2025-04-16T12:11:00 | 54.531494 | 7.477747 | 2.0 | 9.424 | 2 | 34.715 | 9.592 | 31.923 | 2 |
| 2025-04-16T12:12:00 | 54.531511 | 7.477810 | 2.0 | 9.417 | 2 | 34.709 | 9.586 | 31.922 | 2 |
| 2025-04-16T12:13:00 | 54.531494 | 7.477773 | 2.0 | 9.408 | 2 | 34.704 | 9.580 | 31.923 | 2 |
| 2025-04-16T12:14:00 | 54.531484 | 7.477718 | 2.0 | 9.403 | 2 | 34.693 | 9.570 | 31.920 | 2 |
| 2025-04-16T12:15:00 | 54.531468 | 7.477688 | 2.0 | 9.392 | 2 | 34.687 | 9.564 | 31.919 | 2 |
| 2025-04-16T12:16:00 | 54.531462 | 7.477676 | 2.0 | 9.402 | 2 | 34.683 | 9.564 | 31.915 | 2 |
| 2025-04-16T12:17:00 | 54.531472 | 7.477678 | 2.0 | 9.402 | 2 | 34.683 | 9.562 | 31.917 | 2 |
| 2025-04-16T12:18:00 | 54.531482 | 7.477684 | 2.0 | 9.406 | 2 | 34.687 | 9.569 | 31.915 | 2 |
| 2025-04-16T12:19:00 | 54.531477 | 7.477691 | 2.0 | 9.397 | 2 | 34.688 | 9.569 | 31.916 | 2 |
| 2025-04-16T12:20:00 | 54.531481 | 7.477776 | 2.0 | 9.405 | 2 | 34.683 | 9.565 | 31.914 | 2 |
| 2025-04-16T12:21:00 | 54.531498 | 7.477797 | 2.0 | 9.388 | 2 | 34.685 | 9.567 | 31.915 | 2 |
| 2025-04-16T12:22:00 | 54.531477 | 7.477772 | 2.0 | 9.401 | 2 | 34.577 | 9.554 | 31.816 | 2 |
| 2025-04-16T12:23:00 | 54.531446 | 7.477732 | 2.0 | 9.377 | 2 | 34.680 | 9.561 | 31.915 | 2 |
| 2025-04-16T12:24:00 | 54.531413 | 7.477600 | 2.0 | 9.384 | 2 | 34.442 | 9.536 | 31.694 | 2 |
| 2025-04-16T12:25:00 | 54.531392 | 7.477528 | 2.0 | 9.383 | 2 | 34.589 | 9.551 | 31.831 | 2 |
| 2025-04-16T12:26:00 | 54.531363 | 7.477504 | 2.0 | 9.392 | 2 | 34.669 | 9.550 | 31.914 | 2 |
| 2025-04-16T12:27:00 | 54.531290 | 7.477315 | 2.0 | 9.354 | 2 | 34.667 | 9.547 | 31.914 | 2 |
| 2025-04-16T12:28:00 | 54.531001 | 7.477038 | 2.0 | 9.370 | 2 | 34.597 | 9.520 | 31.867 | 2 |
| 2025-04-16T12:29:00 | 54.530403 | 7.476930 | 2.0 | 9.409 | 2 | 34.605 | 9.538 | 31.859 | 2 |
| 2025-04-16T12:30:00 | 54.529567 | 7.477156 | 2.0 | 9.398 | 2 | 34.625 | 9.572 | 31.849 | 2 |
| 2025-04-16T12:31:00 | 54.528579 | 7.477661 | 2.0 | 9.363 | 2 | 34.118 | 9.554 | 31.348 | 2 |
| 2025-04-16T12:32:00 | 54.527559 | 7.478422 | 2.0 | 9.355 | 2 | 34.650 | 9.532 | 31.910 | 2 |
| 2025-04-16T12:33:00 | 54.526652 | 7.479113 | 2.0 | 9.337 | 2 | 34.635 | 9.519 | 31.906 | 2 |
| 2025-04-16T12:34:00 | 54.526257 | 7.479033 | 2.0 | 9.266 | 2 | 34.605 | 9.483 | 31.908 | 2 |
| 2025-04-16T12:35:00 | 54.526149 | 7.478936 | 2.0 | 9.266 | 2 | 34.263 | 9.439 | 31.597 | 2 |
| 2025-04-16T12:36:00 | 54.526143 | 7.478873 | 2.0 | 9.292 | 2 | 34.530 | 9.444 | 31.866 | 2 |
| 2025-04-16T12:37:00 | 54.526202 | 7.478805 | 2.0 | 9.327 | 2 | 34.292 | 9.462 | 31.606 | 2 |
| 2025-04-16T12:38:00 | 54.526262 | 7.478695 | 2.0 | 9.357 | 2 | 34.460 | 9.498 | 31.746 | 2 |
| 2025-04-16T12:39:00 | 54.526338 | 7.478568 | 2.0 | 9.350 | 2 | 34.570 | 9.515 | 31.843 | 2 |
| 2025-04-16T12:40:00 | 54.526439 | 7.478485 | 2.0 | 9.370 | 2 | 34.502 | 9.520 | 31.770 | 2 |
| 2025-04-16T12:42:00 | 54.526609 | 7.478418 | 2.0 | 9.395 | 2 | 34.656 | 9.548 | 31.902 | 2 |
| 2025-04-16T12:43:00 | 54.526721 | 7.478350 | 2.0 | 9.372 | 2 | 34.663 | 9.554 | 31.904 | 2 |
| 2025-04-16T12:44:00 | 54.526744 | 7.478328 | 2.0 | 9.372 | 2 | 34.645 | 9.530 | 31.907 | 2 |
| 2025-04-16T12:45:00 | 54.526693 | 7.478352 | 2.0 | 9.321 | 2 | 34.643 | 9.530 | 31.905 | 2 |
| 2025-04-16T12:46:00 | 54.526566 | 7.478434 | 2.0 | 9.336 | 2 | 34.610 | 9.489 | 31.907 | 2 |
| 2025-04-16T12:47:00 | 54.526478 | 7.478533 | 2.0 | 9.328 | 2 | 34.616 | 9.499 | 31.905 | 2 |
| 2025-04-16T12:48:00 | 54.526417 | 7.478637 | 2.0 | 9.351 | 2 | 34.616 | 9.502 | 31.902 | 2 |
| 2025-04-16T12:49:00 | 54.526376 | 7.478690 | 2.0 | 9.340 | 2 | 34.628 | 9.513 | 31.905 | 2 |
| 2025-04-16T12:50:00 | 54.526368 | 7.478585 | 2.0 | 9.337 | 2 | 34.621 | 9.505 | 31.904 | 2 |
| 2025-04-16T12:51:00 | 54.526392 | 7.478442 | 2.0 | 9.365 | 2 | 34.624 | 9.510 | 31.903 | 2 |
| 2025-04-16T12:52:00 | 54.526414 | 7.478326 | 2.0 | 9.360 | 2 | 34.639 | 9.529 | 31.902 | 2 |
| 2025-04-16T12:53:00 | 54.526428 | 7.478225 | 2.0 | 9.365 | 2 | 34.639 | 9.526 | 31.904 | 2 |
| 2025-04-16T12:54:00 | 54.526448 | 7.478147 | 2.0 | 9.351 | 2 | 34.638 | 9.523 | 31.906 | 2 |
| 2025-04-16T12:55:00 | 54.526458 | 7.478115 | 2.0 | 9.340 | 2 | 34.632 | 9.517 | 31.905 | 2 |
| 2025-04-16T12:56:00 | 54.526461 | 7.478029 | 2.0 | 9.335 | 2 | 34.620 | 9.502 | 31.906 | 2 |
| 2025-04-16T12:57:00 | 54.526459 | 7.477962 | 2.0 | 9.343 | 2 | 34.620 | 9.505 | 31.903 | 2 |
| 2025-04-16T12:58:00 | 54.526466 | 7.477954 | 2.0 | 9.336 | 2 | 34.623 | 9.505 | 31.907 | 2 |
| 2025-04-16T12:59:00 | 54.526473 | 7.477956 | 2.0 | 9.356 | 2 | 34.622 | 9.506 | 31.905 | 2 |
| 2025-04-16T13:00:00 | 54.526476 | 7.477965 | 2.0 | 9.336 | 2 | 34.630 | 9.514 | 31.906 | 2 |
| 2025-04-16T13:01:00 | 54.526462 | 7.478019 | 2.0 | 9.343 | 2 | 34.620 | 9.502 | 31.906 | 2 |
| 2025-04-16T13:02:00 | 54.526450 | 7.478021 | 2.0 | 9.339 | 2 | 34.625 | 9.509 | 31.905 | 2 |
| 2025-04-16T13:03:00 | 54.526460 | 7.477984 | 2.0 | 9.342 | 2 | 34.622 | 9.503 | 31.907 | 2 |
| 2025-04-16T13:04:00 | 54.526474 | 7.477958 | 2.0 | 9.361 | 2 | 34.628 | 9.512 | 31.905 | 2 |
| 2025-04-16T13:05:00 | 54.526475 | 7.477915 | 2.0 | 9.371 | 2 | 34.641 | 9.528 | 31.904 | 2 |
| 2025-04-16T13:06:00 | 54.526509 | 7.477674 | 2.0 | 9.364 | 2 | 34.647 | 9.533 | 31.906 | 2 |
| 2025-04-16T13:07:00 | 54.526566 | 7.477487 | 2.0 | 9.382 | 2 | 34.643 | 9.529 | 31.906 | 2 |
| 2025-04-16T13:08:00 | 54.526602 | 7.477439 | 2.0 | 9.380 | 2 | 34.657 | 9.547 | 31.904 | 2 |
| 2025-04-16T13:09:00 | 54.526621 | 7.477436 | 2.0 | 9.379 | 2 | 34.656 | 9.544 | 31.906 | 2 |
| 2025-04-16T13:10:00 | 54.526640 | 7.477395 | 2.0 | 9.376 | 2 | 34.654 | 9.541 | 31.906 | 2 |
| 2025-04-16T13:11:00 | 54.526712 | 7.477032 | 2.0 | 9.369 | 2 | 34.649 | 9.537 | 31.905 | 2 |
| 2025-04-16T13:12:00 | 54.527125 | 7.476648 | 2.0 | 9.371 | 2 | 34.647 | 9.536 | 31.904 | 2 |
| 2025-04-16T13:13:00 | 54.527805 | 7.476937 | 2.0 | 9.387 | 2 | 34.647 | 9.536 | 31.904 | 2 |
| 2025-04-16T13:14:00 | 54.528591 | 7.477702 | 2.0 | 9.405 | 2 | 34.659 | 9.553 | 31.901 | 2 |
| 2025-04-16T13:15:00 | 54.529269 | 7.478980 | 2.0 | 9.416 | 2 | 34.675 | 9.569 | 31.903 | 2 |
| 2025-04-16T13:16:00 | 54.529973 | 7.480552 | 2.0 | 9.429 | 2 | 34.685 | 9.581 | 31.902 | 2 |
| 2025-04-16T13:17:00 | 54.530724 | 7.482509 | 2.0 | 9.438 | 2 | 34.697 | 9.594 | 31.903 | 2 |
| 2025-04-16T13:18:00 | 54.531354 | 7.484960 | 2.0 | 9.443 | 2 | 34.707 | 9.600 | 31.908 | 2 |
| 2025-04-16T13:19:00 | 54.531841 | 7.487729 | 2.0 | 9.355 | 2 | 34.714 | 9.599 | 31.916 | 2 |
| 2025-04-16T13:20:00 | 54.532233 | 7.490705 | 2.0 | 9.350 | 2 | 34.657 | 9.515 | 31.932 | 2 |
| 2025-04-16T13:21:00 | 54.532589 | 7.493884 | 2.0 | 9.393 | 2 | 34.660 | 9.530 | 31.922 | 2 |
| 2025-04-16T13:22:00 | 54.532957 | 7.497173 | 2.0 | 9.363 | 2 | 34.683 | 9.542 | 31.935 | 2 |
| 2025-04-16T13:23:00 | 54.533317 | 7.500523 | 2.0 | 9.441 | 2 | 34.686 | 9.547 | 31.934 | 2 |
| 2025-04-16T13:24:00 | 54.533694 | 7.503903 | 2.0 | 9.356 | 2 | 34.729 | 9.582 | 31.946 | 2 |
| 2025-04-16T13:25:00 | 54.534062 | 7.507309 | 2.0 | 9.382 | 2 | 34.698 | 9.530 | 31.961 | 2 |
| 2025-04-16T13:26:00 | 54.534429 | 7.510720 | 2.0 | 9.388 | 2 | 34.718 | 9.551 | 31.963 | 2 |
| 2025-04-16T13:27:00 | 54.534800 | 7.514145 | 2.0 | 9.382 | 2 | 34.725 | 9.544 | 31.976 | 2 |
| 2025-04-16T13:28:00 | 54.535159 | 7.517430 | 2.0 | 9.356 | 2 | 34.731 | 9.545 | 31.981 | 2 |
| 2025-04-16T13:29:00 | 54.535359 | 7.520444 | 2.0 | 9.324 | 2 | 34.717 | 9.511 | 31.997 | 2 |
| 2025-04-16T13:30:00 | 54.535262 | 7.522997 | 2.0 | 9.358 | 2 | 34.709 | 9.497 | 32.002 | 2 |
| 2025-04-16T13:31:00 | 54.534500 | 7.523667 | 2.0 | 9.377 | 2 | 34.731 | 9.525 | 31.999 | 2 |
| 2025-04-16T13:32:00 | 54.533747 | 7.523273 | 2.0 | 9.392 | 2 | 34.741 | 9.548 | 31.989 | 2 |
| 2025-04-16T13:33:00 | 54.533023 | 7.522558 | 2.0 | 9.331 | 2 | 34.732 | 9.540 | 31.987 | 2 |
| 2025-04-16T13:34:00 | 54.532370 | 7.521576 | 2.0 | 9.289 | 2 | 34.682 | 9.493 | 31.978 | 2 |
| 2025-04-16T13:35:00 | 54.531734 | 7.520540 | 2.0 | 9.321 | 2 | 34.640 | 9.451 | 31.972 | 2 |
| 2025-04-16T13:36:00 | 54.531153 | 7.519487 | 2.0 | 9.348 | 2 | 34.665 | 9.503 | 31.951 | 2 |
| 2025-04-16T13:37:00 | 54.530587 | 7.518516 | 2.0 | 9.331 | 2 | 34.668 | 9.509 | 31.949 | 2 |
| 2025-04-16T13:38:00 | 54.530056 | 7.517557 | 2.0 | 9.338 | 2 | 34.655 | 9.499 | 31.945 | 2 |
| 2025-04-16T13:39:00 | 54.529542 | 7.516647 | 2.0 | 9.283 | 2 | 34.655 | 9.501 | 31.943 | 2 |
| 2025-04-16T13:40:00 | 54.529062 | 7.516323 | 2.0 | 9.276 | 2 | 34.613 | 9.451 | 31.944 | 2 |
| 2025-04-16T13:41:00 | 54.528839 | 7.516783 | 2.0 | 9.293 | 2 | 34.429 | 9.442 | 31.764 | 2 |
| 2025-04-16T13:42:00 | 54.528950 | 7.517896 | 2.0 | 9.292 | 2 | 34.609 | 9.453 | 31.939 | 2 |
| 2025-04-16T13:43:00 | 54.529170 | 7.519918 | 2.0 | 9.333 | 2 | 34.622 | 9.470 | 31.937 | 2 |
| 2025-04-16T13:44:00 | 54.529497 | 7.522398 | 2.0 | 9.334 | 2 | 34.124 | 9.495 | 31.405 | 2 |
| 2025-04-16T13:45:00 | 54.530308 | 7.523056 | 2.0 | 9.354 | 2 | 34.179 | 9.503 | 31.455 | 2 |
| 2025-04-16T13:46:00 | 54.530700 | 7.522529 | 2.0 | 9.357 | 2 | 34.508 | 9.521 | 31.775 | 2 |
| 2025-04-16T13:47:00 | 54.530781 | 7.521472 | 2.0 | 9.325 | 2 | 34.663 | 9.517 | 31.937 | 2 |
| 2025-04-16T13:48:00 | 54.530779 | 7.520071 | 2.0 | 9.344 | 2 | 34.232 | 9.498 | 31.513 | 2 |
| 2025-04-16T13:49:00 | 54.530774 | 7.518529 | 2.0 | 9.318 | 2 | 34.476 | 9.492 | 31.768 | 2 |
| 2025-04-16T13:50:00 | 54.530766 | 7.516922 | 2.0 | 9.310 | 2 | 34.553 | 9.493 | 31.846 | 2 |
| 2025-04-16T13:51:00 | 54.530757 | 7.515270 | 2.0 | 9.347 | 2 | 34.599 | 9.479 | 31.905 | 2 |
| 2025-04-16T13:52:00 | 54.531017 | 7.514095 | 2.0 | 9.369 | 2 | 34.442 | 9.522 | 31.706 | 2 |
| 2025-04-16T13:53:00 | 54.531626 | 7.514087 | 2.0 | 9.371 | 2 | 34.357 | 9.528 | 31.614 | 2 |
| 2025-04-16T13:54:00 | 54.532013 | 7.515002 | 2.0 | 9.347 | 2 | 34.515 | 9.528 | 31.776 | 2 |
| 2025-04-16T13:55:00 | 54.532211 | 7.516739 | 2.0 | 9.381 | 2 | 34.684 | 9.539 | 31.939 | 2 |
| 2025-04-16T13:56:00 | 54.532403 | 7.518713 | 2.0 | 9.365 | 2 | 34.704 | 9.554 | 31.946 | 2 |
| 2025-04-16T13:57:00 | 54.532417 | 7.520543 | 2.0 | 9.366 | 2 | 34.702 | 9.547 | 31.950 | 2 |
| 2025-04-16T13:58:00 | 54.531973 | 7.521736 | 2.0 | 9.314 | 2 | 34.689 | 9.527 | 31.954 | 2 |
| 2025-04-16T13:59:00 | 54.531500 | 7.522316 | 2.0 | 9.141 | 2 | 34.655 | 9.481 | 31.961 | 2 |
| 2025-04-16T14:00:00 | 54.531257 | 7.522703 | 2.0 | 9.286 | 2 | 34.556 | 9.364 | 31.964 | 2 |
| 2025-04-16T14:01:00 | 54.531150 | 7.522919 | 2.0 | 9.346 | 2 | 34.630 | 9.477 | 31.939 | 2 |
| 2025-04-16T14:02:00 | 54.531142 | 7.523074 | 2.0 | 9.248 | 2 | 34.671 | 9.514 | 31.948 | 2 |
| 2025-04-16T14:03:00 | 54.531139 | 7.523150 | 2.0 | 9.205 | 2 | 34.626 | 9.405 | 31.999 | 2 |
| 2025-04-16T14:04:00 | 54.531129 | 7.523192 | 2.0 | 9.352 | 2 | 34.635 | 9.460 | 31.959 | 2 |
| 2025-04-16T14:05:00 | 54.531122 | 7.523228 | 2.0 | 9.123 | 2 | 34.673 | 9.505 | 31.958 | 2 |
| 2025-04-16T14:06:00 | 54.531129 | 7.523299 | 2.0 | 9.192 | 2 | 34.565 | 9.340 | 31.994 | 2 |
| 2025-04-16T14:07:00 | 54.531142 | 7.523410 | 2.0 | 9.183 | 2 | 34.574 | 9.380 | 31.968 | 2 |
| 2025-04-16T14:08:00 | 54.531010 | 7.523528 | 2.0 | 9.248 | 2 | 34.570 | 9.384 | 31.960 | 2 |
| 2025-04-16T14:09:00 | 54.530542 | 7.523527 | 2.0 | 9.292 | 2 | 34.618 | 9.456 | 31.945 | 2 |
| 2025-04-16T14:10:00 | 54.529925 | 7.523189 | 2.0 | 9.349 | 2 | 34.625 | 9.465 | 31.944 | 2 |
| 2025-04-16T14:11:00 | 54.529446 | 7.523557 | 2.0 | 9.347 | 2 | 34.680 | 9.531 | 31.942 | 2 |
| 2025-04-16T14:12:00 | 54.529324 | 7.524595 | 2.0 | 9.344 | 2 | 34.690 | 9.542 | 31.942 | 2 |
| 2025-04-16T14:13:00 | 54.529297 | 7.526033 | 2.0 | 9.296 | 2 | 34.688 | 9.531 | 31.950 | 2 |
| 2025-04-16T14:14:00 | 54.529370 | 7.527844 | 2.0 | 9.292 | 2 | 34.659 | 9.495 | 31.952 | 2 |
| 2025-04-16T14:15:00 | 54.530036 | 7.528741 | 2.0 | 9.329 | 2 | 34.660 | 9.498 | 31.951 | 2 |
| 2025-04-16T14:16:00 | 54.530803 | 7.528369 | 2.0 | 9.272 | 2 | 34.678 | 9.518 | 31.951 | 2 |
| 2025-04-16T14:17:00 | 54.531144 | 7.527100 | 2.0 | 9.284 | 2 | 34.631 | 9.452 | 31.962 | 2 |
| 2025-04-16T14:19:00 | 54.530988 | 7.523575 | 2.0 | 9.146 | 2 | 34.528 | 9.399 | 31.904 | 2 |
| 2025-04-16T14:20:00 | 54.530892 | 7.521915 | 2.0 | 9.352 | 2 | 34.555 | 9.387 | 31.942 | 2 |
| 2025-04-16T14:21:00 | 54.530841 | 7.520321 | 2.0 | 9.322 | 2 | 34.655 | 9.511 | 31.934 | 2 |
| 2025-04-16T14:22:00 | 54.530927 | 7.518778 | 2.0 | 9.281 | 2 | 34.577 | 9.491 | 31.872 | 2 |
| 2025-04-16T14:23:00 | 54.530884 | 7.517339 | 2.0 | 9.157 | 2 | 34.259 | 9.427 | 31.603 | 2 |
| 2025-04-16T14:24:00 | 54.530783 | 7.516083 | 2.0 | 9.302 | 2 | 34.276 | 9.352 | 31.687 | 2 |
| 2025-04-16T14:25:00 | 54.530832 | 7.514989 | 2.0 | 9.315 | 2 | 34.489 | 9.470 | 31.801 | 2 |
| 2025-04-16T14:26:00 | 54.531005 | 7.514077 | 2.0 | 9.344 | 2 | 34.489 | 9.488 | 31.785 | 2 |
| 2025-04-16T14:27:00 | 54.531443 | 7.513064 | 2.0 | 9.351 | 2 | 34.580 | 9.522 | 31.847 | 2 |
| 2025-04-16T14:28:00 | 54.532256 | 7.511983 | 2.0 | 9.325 | 2 | 34.666 | 9.522 | 31.935 | 2 |
| 2025-04-16T14:29:00 | 54.533415 | 7.510660 | 2.0 | 9.357 | 2 | 34.423 | 9.502 | 31.705 | 2 |
| 2025-04-16T14:30:00 | 54.535016 | 7.509050 | 2.0 | 9.375 | 2 | 34.650 | 9.532 | 31.910 | 2 |
| 2025-04-16T14:31:00 | 54.536830 | 7.507237 | 2.0 | 9.388 | 2 | 34.587 | 9.550 | 31.830 | 2 |
| 2025-04-16T14:32:00 | 54.538720 | 7.505292 | 2.0 | 9.423 | 2 | 34.713 | 9.555 | 31.954 | 2 |
| 2025-04-16T14:33:00 | 54.540700 | 7.503249 | 2.0 | 9.427 | 2 | 34.523 | 9.592 | 31.727 | 2 |
| 2025-04-16T14:34:00 | 54.543052 | 7.500774 | 2.0 | 9.390 | 2 | 34.475 | 9.599 | 31.672 | 2 |
| 2025-04-16T14:35:00 | 54.545631 | 7.498156 | 2.0 | 9.384 | 2 | 34.532 | 9.561 | 31.764 | 2 |
| 2025-04-16T14:36:00 | 54.548265 | 7.495464 | 2.0 | 9.369 | 2 | 34.292 | 9.545 | 31.533 | 2 |
| 2025-04-16T14:37:00 | 54.550917 | 7.492731 | 2.0 | 9.397 | 2 | 34.391 | 9.552 | 31.628 | 2 |
| 2025-04-16T14:38:00 | 54.553569 | 7.490005 | 2.0 | 9.403 | 2 | 34.324 | 9.563 | 31.550 | 2 |
| 2025-04-16T14:39:00 | 54.556218 | 7.487286 | 2.0 | 9.406 | 2 | 34.414 | 9.578 | 31.628 | 2 |
| 2025-04-16T14:40:00 | 54.558852 | 7.484534 | 2.0 | 9.388 | 2 | 34.440 | 9.572 | 31.660 | 2 |
| 2025-04-16T14:41:00 | 54.561503 | 7.481815 | 2.0 | 9.356 | 2 | 34.345 | 9.555 | 31.578 | 2 |
| 2025-04-16T14:42:00 | 54.564138 | 7.479028 | 2.0 | 9.367 | 2 | 34.496 | 9.534 | 31.751 | 2 |
| 2025-04-16T14:43:00 | 54.566814 | 7.476324 | 2.0 | 9.385 | 2 | 34.500 | 9.545 | 31.745 | 2 |
| 2025-04-16T14:44:00 | 54.569467 | 7.473597 | 2.0 | 9.350 | 2 | 34.268 | 9.548 | 31.506 | 2 |
| 2025-04-16T14:45:00 | 54.572095 | 7.470821 | 2.0 | 9.345 | 2 | 34.540 | 9.522 | 31.807 | 2 |
| 2025-04-16T14:46:00 | 54.574727 | 7.468080 | 2.0 | 9.367 | 2 | 34.588 | 9.522 | 31.856 | 2 |
| 2025-04-16T14:47:00 | 54.577380 | 7.465357 | 2.0 | 9.379 | 2 | 34.467 | 9.539 | 31.717 | 2 |
| 2025-04-16T14:48:00 | 54.580039 | 7.462648 | 2.0 | 9.370 | 2 | 34.475 | 9.546 | 31.719 | 2 |
| 2025-04-16T14:49:00 | 54.582692 | 7.459927 | 2.0 | 9.365 | 2 | 34.507 | 9.540 | 31.757 | 2 |
| 2025-04-16T14:50:00 | 54.585307 | 7.457151 | 2.0 | 9.345 | 2 | 34.446 | 9.530 | 31.703 | 2 |
| 2025-04-16T14:51:00 | 54.587946 | 7.454438 | 2.0 | 9.363 | 2 | 34.436 | 9.516 | 31.706 | 2 |
| 2025-04-16T14:52:00 | 54.590585 | 7.451714 | 2.0 | 9.370 | 2 | 34.604 | 9.536 | 31.860 | 2 |
| 2025-04-16T14:53:00 | 54.593233 | 7.448998 | 2.0 | 9.391 | 2 | 34.534 | 9.545 | 31.780 | 2 |
| 2025-04-16T14:54:00 | 54.595876 | 7.446240 | 2.0 | 9.263 | 2 | 34.630 | 9.538 | 31.884 | 2 |
| 2025-04-16T14:55:00 | 54.598548 | 7.443510 | 2.0 | 9.304 | 2 | 34.569 | 9.452 | 31.898 | 2 |
| 2025-04-16T14:56:00 | 54.601201 | 7.440761 | 2.0 | 9.349 | 2 | 34.682 | 9.485 | 31.985 | 2 |
| 2025-04-16T14:57:00 | 54.603868 | 7.438066 | 2.0 | 9.374 | 2 | 34.799 | 9.524 | 32.070 | 2 |
| 2025-04-16T14:58:00 | 54.606515 | 7.435293 | 2.0 | 9.357 | 2 | 34.808 | 9.541 | 32.064 | 2 |
| 2025-04-16T14:59:00 | 54.609176 | 7.432536 | 2.0 | 9.348 | 2 | 34.928 | 9.528 | 32.198 | 2 |
| 2025-04-16T15:00:00 | 54.611845 | 7.429765 | 2.0 | 9.351 | 2 | 34.943 | 9.518 | 32.222 | 2 |
| 2025-04-16T15:01:00 | 54.614336 | 7.426622 | 2.0 | 9.341 | 2 | 35.011 | 9.522 | 32.288 | 2 |
| 2025-04-16T15:02:00 | 54.616801 | 7.423383 | 2.0 | 9.361 | 2 | 35.003 | 9.516 | 32.286 | 2 |
| 2025-04-16T15:03:00 | 54.619290 | 7.420189 | 2.0 | 9.348 | 2 | 35.087 | 9.529 | 32.360 | 2 |
| 2025-04-16T15:04:00 | 54.621764 | 7.416943 | 2.0 | 9.374 | 2 | 35.076 | 9.518 | 32.359 | 2 |
| 2025-04-16T15:05:00 | 54.624255 | 7.413710 | 2.0 | 9.361 | 2 | 35.160 | 9.542 | 32.423 | 2 |
| 2025-04-16T15:06:00 | 54.626690 | 7.410352 | 2.0 | 9.328 | 2 | 35.192 | 9.532 | 32.465 | 2 |
| 2025-04-16T15:07:00 | 54.629094 | 7.406879 | 2.0 | 9.342 | 2 | 35.210 | 9.503 | 32.510 | 2 |
| 2025-04-16T15:08:00 | 54.631518 | 7.403413 | 2.0 | 9.332 | 2 | 35.215 | 9.504 | 32.514 | 2 |
| 2025-04-16T15:09:00 | 54.633891 | 7.399846 | 2.0 | 9.343 | 2 | 34.405 | 9.503 | 31.685 | 2 |
| 2025-04-16T15:10:00 | 54.636089 | 7.395966 | 2.0 | 9.350 | 2 | 34.466 | 9.516 | 31.736 | 2 |
| 2025-04-16T15:11:00 | 54.638314 | 7.392119 | 2.0 | 9.300 | 2 | 35.492 | 9.507 | 32.795 | 2 |
| 2025-04-16T15:12:00 | 54.640527 | 7.388235 | 2.0 | 9.309 | 2 | 35.493 | 9.475 | 32.826 | 2 |
| 2025-04-16T15:13:00 | 54.642774 | 7.384417 | 2.0 | 9.267 | 2 | 35.531 | 9.478 | 32.862 | 2 |
| 2025-04-16T15:14:00 | 54.645001 | 7.380560 | 2.0 | 9.121 | 2 | 35.530 | 9.418 | 32.916 | 2 |
| 2025-04-16T15:15:00 | 54.647227 | 7.376687 | 2.0 | 9.021 | 2 | 35.474 | 9.287 | 32.979 | 2 |
| 2025-04-16T15:16:00 | 54.649464 | 7.372813 | 2.0 | 8.961 | 2 | 35.444 | 9.199 | 33.029 | 2 |
| 2025-04-16T15:17:00 | 54.651697 | 7.368937 | 2.0 | 8.871 | 2 | 35.415 | 9.125 | 33.068 | 2 |
| 2025-04-16T15:18:00 | 54.653936 | 7.365063 | 2.0 | 8.832 | 2 | 35.364 | 9.047 | 33.088 | 2 |
| 2025-04-16T15:19:00 | 54.656192 | 7.361207 | 2.0 | 8.771 | 2 | 35.335 | 8.998 | 33.103 | 2 |
| 2025-04-16T15:20:00 | 54.658429 | 7.357314 | 2.0 | 8.739 | 2 | 35.300 | 8.945 | 33.116 | 2 |
| 2025-04-16T15:21:00 | 54.660675 | 7.353419 | 2.0 | 8.682 | 2 | 35.281 | 8.910 | 33.129 | 2 |
| 2025-04-16T15:22:00 | 54.662945 | 7.349546 | 2.0 | 8.625 | 2 | 35.247 | 8.853 | 33.146 | 2 |
| 2025-04-16T15:23:00 | 54.665190 | 7.345613 | 2.0 | 8.613 | 2 | 35.212 | 8.799 | 33.160 | 2 |
| 2025-04-16T15:24:00 | 54.667415 | 7.341677 | 2.0 | 8.779 | 2 | 35.230 | 8.815 | 33.164 | 2 |
| 2025-04-16T15:25:00 | 54.669529 | 7.337600 | 2.0 | 8.858 | 2 | 35.363 | 8.956 | 33.171 | 2 |
| 2025-04-16T15:26:00 | 54.671655 | 7.333507 | 2.0 | 8.836 | 2 | 35.436 | 9.023 | 33.185 | 2 |
| 2025-04-16T15:27:00 | 54.673793 | 7.329417 | 2.0 | 8.819 | 2 | 35.419 | 9.001 | 33.188 | 2 |
| 2025-04-16T15:28:00 | 54.675934 | 7.325331 | 2.0 | 8.860 | 2 | 35.408 | 8.998 | 33.179 | 2 |
| 2025-04-16T15:29:00 | 54.678059 | 7.321229 | 2.0 | 8.934 | 2 | 35.437 | 9.044 | 33.166 | 2 |
| 2025-04-16T15:30:00 | 54.680181 | 7.317149 | 2.0 | 8.943 | 2 | 35.493 | 9.106 | 33.167 | 2 |
| 2025-04-16T15:31:00 | 54.682316 | 7.313066 | 2.0 | 8.912 | 2 | 35.506 | 9.110 | 33.176 | 2 |
| 2025-04-16T15:32:00 | 54.684442 | 7.308975 | 2.0 | 8.902 | 2 | 35.484 | 9.084 | 33.178 | 2 |
| 2025-04-16T15:33:00 | 54.686578 | 7.304905 | 2.0 | 8.884 | 2 | 35.473 | 9.075 | 33.175 | 2 |
| 2025-04-16T15:34:00 | 54.688483 | 7.301195 | 2.0 | 8.828 | 2 | 35.450 | 9.042 | 33.182 | 2 |
| 2025-04-16T15:35:00 | 54.690064 | 7.298025 | 2.0 | 8.898 | 2 | 35.419 | 9.011 | 33.178 | 2 |
| 2025-04-16T15:36:00 | 54.691528 | 7.295091 | 2.0 | 8.958 | 2 | 35.474 | 9.078 | 33.173 | 2 |
| 2025-04-16T15:37:00 | 54.692798 | 7.292074 | 2.0 | 8.945 | 2 | 35.522 | 9.126 | 33.178 | 2 |
| 2025-04-16T15:38:00 | 54.694020 | 7.289086 | 2.0 | 8.964 | 2 | 35.518 | 9.117 | 33.182 | 2 |
| 2025-04-16T15:39:00 | 54.695158 | 7.286291 | 2.0 | 8.982 | 2 | 35.529 | 9.137 | 33.175 | 2 |
| 2025-04-16T15:40:00 | 54.696235 | 7.284080 | 2.0 | 8.983 | 2 | 35.537 | 9.149 | 33.172 | 2 |
| 2025-04-16T15:41:00 | 54.697091 | 7.283764 | 2.0 | 8.911 | 2 | 35.523 | 9.134 | 33.172 | 2 |
| 2025-04-16T15:42:00 | 54.697325 | 7.283977 | 2.0 | 8.869 | 2 | 35.467 | 9.071 | 33.172 | 2 |
| 2025-04-16T15:43:00 | 54.697361 | 7.284186 | 2.0 | 8.891 | 2 | 35.433 | 9.041 | 33.165 | 2 |
| 2025-04-16T15:44:00 | 54.697309 | 7.284360 | 2.0 | 8.925 | 2 | 35.445 | 9.058 | 33.162 | 2 |
| 2025-04-16T15:45:00 | 54.697256 | 7.284472 | 2.0 | 8.903 | 2 | 35.473 | 9.086 | 33.165 | 2 |
| 2025-04-16T15:46:00 | 54.697203 | 7.284498 | 2.0 | 8.766 | 2 | 35.454 | 9.050 | 33.178 | 2 |
| 2025-04-16T15:47:00 | 54.697169 | 7.284426 | 2.0 | 8.858 | 2 | 35.373 | 8.962 | 33.176 | 2 |
| 2025-04-16T15:48:00 | 54.697128 | 7.284258 | 2.0 | 8.944 | 2 | 35.431 | 9.047 | 33.157 | 2 |
| 2025-04-16T15:49:00 | 54.696998 | 7.284092 | 2.0 | 8.900 | 2 | 35.490 | 9.103 | 33.166 | 2 |
| 2025-04-16T15:50:00 | 54.696955 | 7.284414 | 2.0 | 8.929 | 2 | 35.468 | 9.072 | 33.172 | 2 |
| 2025-04-16T15:51:00 | 54.697076 | 7.285280 | 2.0 | 8.901 | 2 | 35.478 | 9.087 | 33.169 | 2 |
| 2025-04-16T15:52:00 | 54.697333 | 7.286488 | 2.0 | 8.884 | 2 | 35.462 | 9.068 | 33.170 | 2 |
| 2025-04-16T15:53:00 | 54.697629 | 7.287987 | 2.0 | 8.889 | 2 | 35.444 | 9.054 | 33.164 | 2 |
| 2025-04-16T15:54:00 | 54.697932 | 7.289645 | 2.0 | 8.893 | 2 | 35.445 | 9.061 | 33.159 | 2 |
| 2025-04-16T15:55:00 | 54.697999 | 7.291340 | 2.0 | 8.882 | 2 | 35.442 | 9.058 | 33.158 | 2 |
| 2025-04-16T15:56:00 | 54.697670 | 7.292898 | 2.0 | 8.896 | 2 | 35.164 | 9.058 | 32.870 | 2 |
| 2025-04-16T15:57:00 | 54.697027 | 7.294236 | 2.0 | 8.894 | 2 | 35.451 | 9.066 | 33.160 | 2 |
| 2025-04-16T15:58:00 | 54.696121 | 7.295203 | 2.0 | 8.914 | 2 | 35.459 | 9.065 | 33.170 | 2 |
| 2025-04-16T15:59:00 | 54.695004 | 7.295691 | 2.0 | 8.925 | 2 | 35.486 | 9.090 | 33.174 | 2 |
| 2025-04-16T16:00:00 | 54.693789 | 7.295479 | 2.0 | 8.876 | 2 | 35.484 | 9.082 | 33.180 | 2 |
| 2025-04-16T16:01:00 | 54.692752 | 7.294246 | 2.0 | 8.838 | 2 | 35.444 | 9.041 | 33.176 | 2 |
| 2025-04-16T16:02:00 | 54.692210 | 7.292283 | 2.0 | 8.812 | 2 | 35.412 | 9.005 | 33.177 | 2 |
| 2025-04-16T16:03:00 | 54.692156 | 7.290104 | 2.0 | 8.812 | 2 | 35.393 | 8.984 | 33.176 | 2 |
| 2025-04-16T16:04:00 | 54.692063 | 7.287961 | 2.0 | 8.895 | 2 | 35.410 | 9.006 | 33.174 | 2 |
| 2025-04-16T16:05:00 | 54.691868 | 7.285872 | 2.0 | 8.890 | 2 | 35.463 | 9.058 | 33.180 | 2 |
| 2025-04-16T16:06:00 | 54.691571 | 7.283862 | 2.0 | 8.891 | 2 | 35.466 | 9.061 | 33.181 | 2 |
| 2025-04-16T16:07:00 | 54.691110 | 7.282023 | 2.0 | 8.896 | 2 | 35.466 | 9.061 | 33.181 | 2 |
| 2025-04-16T16:08:00 | 54.690541 | 7.280319 | 2.0 | 8.894 | 2 | 35.468 | 9.063 | 33.181 | 2 |
| 2025-04-16T16:09:00 | 54.689849 | 7.278817 | 2.0 | 8.901 | 2 | 35.467 | 9.062 | 33.181 | 2 |
| 2025-04-16T16:10:00 | 54.689165 | 7.277150 | 2.0 | 8.913 | 2 | 35.477 | 9.073 | 33.181 | 2 |
| 2025-04-16T16:11:00 | 54.688471 | 7.275379 | 2.0 | 8.916 | 2 | 35.485 | 9.081 | 33.182 | 2 |
| 2025-04-16T16:12:00 | 54.687733 | 7.273637 | 2.0 | 8.907 | 2 | 35.486 | 9.083 | 33.181 | 2 |
| 2025-04-16T16:13:00 | 54.686963 | 7.271939 | 2.0 | 8.894 | 2 | 35.478 | 9.076 | 33.179 | 2 |
| 2025-04-16T16:14:00 | 54.686195 | 7.270216 | 2.0 | 8.905 | 2 | 35.469 | 9.063 | 33.182 | 2 |
| 2025-04-16T16:15:00 | 54.685439 | 7.268445 | 2.0 | 8.928 | 2 | 35.486 | 9.078 | 33.186 | 2 |
| 2025-04-16T16:16:00 | 54.684688 | 7.266687 | 2.0 | 8.948 | 2 | 35.506 | 9.097 | 33.189 | 2 |
| 2025-04-16T16:17:00 | 54.683938 | 7.264977 | 2.0 | 8.986 | 2 | 35.530 | 9.122 | 33.190 | 2 |
| 2025-04-16T16:18:00 | 54.683190 | 7.263284 | 2.0 | 9.014 | 2 | 35.563 | 9.159 | 33.190 | 2 |
| 2025-04-16T16:19:00 | 54.682448 | 7.261573 | 2.0 | 9.036 | 2 | 35.583 | 9.184 | 33.187 | 2 |
| 2025-04-16T16:20:00 | 54.681718 | 7.259847 | 2.0 | 9.052 | 2 | 35.598 | 9.206 | 33.183 | 2 |
| 2025-04-16T16:21:00 | 54.680988 | 7.258141 | 2.0 | 9.048 | 2 | 35.603 | 9.217 | 33.177 | 2 |
| 2025-04-16T16:22:00 | 54.680241 | 7.256469 | 2.0 | 9.048 | 2 | 35.591 | 9.215 | 33.167 | 2 |
| 2025-04-16T16:23:00 | 54.679480 | 7.254830 | 2.0 | 9.059 | 2 | 35.588 | 9.217 | 33.162 | 2 |
| 2025-04-16T16:24:00 | 54.678727 | 7.253191 | 2.0 | 9.064 | 2 | 35.588 | 9.227 | 33.153 | 2 |
| 2025-04-16T16:25:00 | 54.678003 | 7.251543 | 2.0 | 9.063 | 2 | 35.583 | 9.230 | 33.145 | 2 |
| 2025-04-16T16:26:00 | 54.677285 | 7.249868 | 2.0 | 9.077 | 2 | 35.577 | 9.233 | 33.136 | 2 |
| 2025-04-16T16:27:00 | 54.676564 | 7.248196 | 2.0 | 9.082 | 2 | 35.575 | 9.244 | 33.123 | 2 |
| 2025-04-16T16:28:00 | 54.675843 | 7.246521 | 2.0 | 9.080 | 2 | 35.565 | 9.247 | 33.110 | 2 |
| 2025-04-16T16:29:00 | 54.675128 | 7.244836 | 2.0 | 9.096 | 2 | 35.561 | 9.249 | 33.104 | 2 |
| 2025-04-16T16:30:00 | 54.674391 | 7.243201 | 2.0 | 9.104 | 2 | 35.568 | 9.264 | 33.098 | 2 |
| 2025-04-16T16:31:00 | 54.673628 | 7.241633 | 2.0 | 9.084 | 2 | 35.567 | 9.268 | 33.093 | 2 |
| 2025-04-16T16:32:00 | 54.672882 | 7.240037 | 2.0 | 9.073 | 2 | 35.536 | 9.244 | 33.083 | 2 |
| 2025-04-16T16:33:00 | 54.672450 | 7.238003 | 2.0 | 9.069 | 2 | 35.520 | 9.240 | 33.070 | 2 |
| 2025-04-16T16:34:00 | 54.672528 | 7.235738 | 2.0 | 9.058 | 2 | 35.517 | 9.236 | 33.071 | 2 |
| 2025-04-16T16:35:00 | 54.672614 | 7.233546 | 2.0 | 9.047 | 2 | 35.506 | 9.224 | 33.071 | 2 |
| 2025-04-16T16:36:00 | 54.672202 | 7.231873 | 2.0 | 9.034 | 2 | 35.496 | 9.213 | 33.070 | 2 |
| 2025-04-16T16:37:00 | 54.671432 | 7.231194 | 2.0 | 9.016 | 2 | 35.482 | 9.198 | 33.070 | 2 |
| 2025-04-16T16:38:00 | 54.670611 | 7.231573 | 2.0 | 9.014 | 2 | 35.466 | 9.183 | 33.067 | 2 |
| 2025-04-16T16:39:00 | 54.670027 | 7.232859 | 2.0 | 9.022 | 2 | 35.464 | 9.184 | 33.064 | 2 |
| 2025-04-16T16:40:00 | 54.670056 | 7.234572 | 2.0 | 9.032 | 2 | 35.468 | 9.190 | 33.063 | 2 |
| 2025-04-16T16:41:00 | 54.670652 | 7.236133 | 2.0 | 9.054 | 2 | 35.476 | 9.202 | 33.060 | 2 |
| 2025-04-16T16:42:00 | 54.671316 | 7.237833 | 2.0 | 9.065 | 2 | 35.496 | 9.223 | 33.061 | 2 |
| 2025-04-16T16:43:00 | 54.672020 | 7.239588 | 2.0 | 9.057 | 2 | 35.506 | 9.229 | 33.066 | 2 |
| 2025-04-16T16:44:00 | 54.672745 | 7.241298 | 2.0 | 9.100 | 2 | 35.514 | 9.237 | 33.067 | 2 |
| 2025-04-16T16:45:00 | 54.673454 | 7.243010 | 2.0 | 9.103 | 2 | 35.545 | 9.267 | 33.071 | 2 |
| 2025-04-16T16:46:00 | 54.674179 | 7.244689 | 2.0 | 9.083 | 2 | 35.561 | 9.266 | 33.088 | 2 |
| 2025-04-16T16:47:00 | 54.674923 | 7.246343 | 2.0 | 9.072 | 2 | 35.556 | 9.248 | 33.100 | 2 |
| 2025-04-16T16:48:00 | 54.675646 | 7.248014 | 2.0 | 9.070 | 2 | 35.558 | 9.241 | 33.109 | 2 |
| 2025-04-16T16:49:00 | 54.676329 | 7.249708 | 2.0 | 9.065 | 2 | 35.565 | 9.238 | 33.119 | 2 |
| 2025-04-16T16:50:00 | 54.677018 | 7.251381 | 2.0 | 9.057 | 2 | 35.572 | 9.232 | 33.131 | 2 |
| 2025-04-16T16:51:00 | 54.677744 | 7.253010 | 2.0 | 9.057 | 2 | 35.575 | 9.225 | 33.141 | 2 |
| 2025-04-16T16:52:00 | 54.678488 | 7.254623 | 2.0 | 9.060 | 2 | 35.583 | 9.225 | 33.149 | 2 |
| 2025-04-16T16:53:00 | 54.679198 | 7.256251 | 2.0 | 9.065 | 2 | 35.593 | 9.228 | 33.157 | 2 |
| 2025-04-16T16:54:00 | 54.679891 | 7.257899 | 2.0 | 9.059 | 2 | 35.600 | 9.232 | 33.160 | 2 |
| 2025-04-16T16:55:00 | 54.680595 | 7.259541 | 2.0 | 9.025 | 2 | 35.605 | 9.221 | 33.176 | 2 |
| 2025-04-16T16:56:00 | 54.681350 | 7.261142 | 2.0 | 9.003 | 2 | 35.585 | 9.191 | 33.183 | 2 |
| 2025-04-16T16:57:00 | 54.682113 | 7.262742 | 2.0 | 8.899 | 2 | 35.562 | 9.156 | 33.192 | 2 |
| 2025-04-16T16:58:00 | 54.682855 | 7.264367 | 2.0 | 8.878 | 2 | 35.492 | 9.073 | 33.196 | 2 |
| 2025-04-16T16:59:00 | 54.683560 | 7.266021 | 2.0 | 8.854 | 2 | 35.468 | 9.045 | 33.198 | 2 |
| 2025-04-16T17:00:00 | 54.684235 | 7.267689 | 2.0 | 8.852 | 2 | 35.452 | 9.025 | 33.200 | 2 |
| 2025-04-16T17:01:00 | 54.684941 | 7.269344 | 2.0 | 8.848 | 2 | 35.452 | 9.022 | 33.202 | 2 |
| 2025-04-16T17:02:00 | 54.685675 | 7.270973 | 2.0 | 8.838 | 2 | 35.449 | 9.014 | 33.207 | 2 |
| 2025-04-16T17:03:00 | 54.686404 | 7.272603 | 2.0 | 8.853 | 2 | 35.439 | 9.013 | 33.197 | 2 |
| 2025-04-16T17:04:00 | 54.687112 | 7.274238 | 2.0 | 8.878 | 2 | 35.433 | 9.026 | 33.179 | 2 |
| 2025-04-16T17:05:00 | 54.687805 | 7.275869 | 2.0 | 8.886 | 2 | 35.445 | 9.047 | 33.172 | 2 |
| 2025-04-16T17:06:00 | 54.688498 | 7.277491 | 2.0 | 8.896 | 2 | 35.450 | 9.055 | 33.170 | 2 |
| 2025-04-16T17:07:00 | 54.689189 | 7.279117 | 2.0 | 8.913 | 2 | 35.459 | 9.067 | 33.168 | 2 |
| 2025-04-16T17:08:00 | 54.689895 | 7.280729 | 2.0 | 8.905 | 2 | 35.462 | 9.080 | 33.159 | 2 |
| 2025-04-16T17:09:00 | 54.690629 | 7.282307 | 2.0 | 8.906 | 2 | 35.465 | 9.075 | 33.166 | 2 |
| 2025-04-16T17:10:00 | 54.691632 | 7.283212 | 2.0 | 8.909 | 2 | 35.463 | 9.074 | 33.165 | 2 |
| 2025-04-16T17:11:00 | 54.692707 | 7.283695 | 2.0 | 8.902 | 2 | 35.465 | 9.076 | 33.166 | 2 |
| 2025-04-16T17:12:00 | 54.693254 | 7.285066 | 2.0 | 8.885 | 2 | 35.457 | 9.065 | 33.167 | 2 |
| 2025-04-16T17:13:00 | 54.692837 | 7.286542 | 2.0 | 8.865 | 2 | 35.444 | 9.050 | 33.168 | 2 |
| 2025-04-16T17:14:00 | 54.691729 | 7.286655 | 2.0 | 8.841 | 2 | 35.417 | 9.026 | 33.162 | 2 |
| 2025-04-16T17:15:00 | 54.690971 | 7.285052 | 2.0 | 8.857 | 2 | 35.407 | 9.014 | 33.163 | 2 |
| 2025-04-16T17:16:00 | 54.690239 | 7.283300 | 2.0 | 8.861 | 2 | 35.421 | 9.026 | 33.166 | 2 |
| 2025-04-16T17:17:00 | 54.689448 | 7.281538 | 2.0 | 8.870 | 2 | 35.426 | 9.032 | 33.166 | 2 |
| 2025-04-16T17:18:00 | 54.688699 | 7.279692 | 2.0 | 8.839 | 2 | 35.423 | 9.023 | 33.171 | 2 |
| 2025-04-16T17:19:00 | 54.687954 | 7.277869 | 2.0 | 8.867 | 2 | 35.412 | 9.017 | 33.165 | 2 |
| 2025-04-16T17:20:00 | 54.687194 | 7.276141 | 2.0 | 8.879 | 2 | 35.431 | 9.037 | 33.167 | 2 |
| 2025-04-16T17:21:00 | 54.686413 | 7.274458 | 2.0 | 8.886 | 2 | 35.450 | 9.050 | 33.174 | 2 |
| 2025-04-16T17:22:00 | 54.685628 | 7.272804 | 2.0 | 8.872 | 2 | 35.463 | 9.050 | 33.188 | 2 |
| 2025-04-16T17:23:00 | 54.684862 | 7.271108 | 2.0 | 8.847 | 2 | 35.454 | 9.037 | 33.190 | 2 |
| 2025-04-16T17:24:00 | 54.684118 | 7.269374 | 2.0 | 8.831 | 2 | 35.436 | 9.015 | 33.192 | 2 |
| 2025-04-16T17:25:00 | 54.683378 | 7.267620 | 2.0 | 8.813 | 2 | 35.419 | 8.994 | 33.194 | 2 |
| 2025-04-16T17:26:00 | 54.682610 | 7.265884 | 2.0 | 8.820 | 2 | 35.419 | 8.988 | 33.200 | 2 |
| 2025-04-16T17:27:00 | 54.681830 | 7.264177 | 2.0 | 8.862 | 2 | 35.425 | 8.990 | 33.204 | 2 |
| 2025-04-16T17:28:00 | 54.681047 | 7.262465 | 2.0 | 8.932 | 2 | 35.459 | 9.043 | 33.190 | 2 |
| 2025-04-16T17:29:00 | 54.680275 | 7.260713 | 2.0 | 8.982 | 2 | 35.513 | 9.106 | 33.187 | 2 |
| 2025-04-16T17:30:00 | 54.679516 | 7.258943 | 2.0 | 9.021 | 2 | 35.549 | 9.154 | 33.180 | 2 |
| 2025-04-16T17:31:00 | 54.678756 | 7.257173 | 2.0 | 9.047 | 2 | 35.576 | 9.192 | 33.173 | 2 |
| 2025-04-16T17:32:00 | 54.677989 | 7.255421 | 2.0 | 9.061 | 2 | 35.589 | 9.214 | 33.166 | 2 |
| 2025-04-16T17:33:00 | 54.677219 | 7.253657 | 2.0 | 9.061 | 2 | 35.594 | 9.227 | 33.159 | 2 |
| 2025-04-16T17:34:00 | 54.676448 | 7.251876 | 2.0 | 9.063 | 2 | 35.588 | 9.226 | 33.154 | 2 |
| 2025-04-16T17:35:00 | 54.675669 | 7.250106 | 2.0 | 9.074 | 2 | 35.583 | 9.229 | 33.146 | 2 |
| 2025-04-16T17:36:00 | 54.674891 | 7.248331 | 2.0 | 9.094 | 2 | 35.587 | 9.244 | 33.136 | 2 |
| 2025-04-16T17:37:00 | 54.674125 | 7.246523 | 2.0 | 9.105 | 2 | 35.595 | 9.262 | 33.127 | 2 |
| 2025-04-16T17:38:00 | 54.673351 | 7.244720 | 2.0 | 9.108 | 2 | 35.594 | 9.271 | 33.118 | 2 |
| 2025-04-16T17:39:00 | 54.672559 | 7.242940 | 2.0 | 9.099 | 2 | 35.585 | 9.273 | 33.107 | 2 |
| 2025-04-16T17:40:00 | 54.671746 | 7.241180 | 2.0 | 9.094 | 2 | 35.569 | 9.265 | 33.098 | 2 |
| 2025-04-16T17:41:00 | 54.671076 | 7.239265 | 2.0 | 9.100 | 2 | 35.555 | 9.262 | 33.086 | 2 |
| 2025-04-16T17:42:00 | 54.671005 | 7.237112 | 2.0 | 9.100 | 2 | 35.553 | 9.266 | 33.080 | 2 |
| 2025-04-16T17:43:00 | 54.671251 | 7.234965 | 2.0 | 9.092 | 2 | 35.547 | 9.265 | 33.075 | 2 |
| 2025-04-16T17:44:00 | 54.671271 | 7.232780 | 2.0 | 9.087 | 2 | 35.540 | 9.258 | 33.074 | 2 |
| 2025-04-16T17:45:00 | 54.670615 | 7.231143 | 2.0 | 9.084 | 2 | 35.272 | 9.252 | 32.803 | 2 |
| 2025-04-16T17:46:00 | 54.669615 | 7.230875 | 2.0 | 9.085 | 2 | 34.986 | 9.250 | 32.509 | 2 |
| 2025-04-16T17:47:00 | 54.668842 | 7.232001 | 2.0 | 9.090 | 2 | 35.459 | 9.252 | 32.996 | 2 |
| 2025-04-16T17:48:00 | 54.668690 | 7.233938 | 2.0 | 9.098 | 2 | 35.396 | 9.257 | 32.926 | 2 |
| 2025-04-16T17:49:00 | 54.669311 | 7.235840 | 2.0 | 9.103 | 2 | 35.266 | 9.263 | 32.786 | 2 |
| 2025-04-16T17:50:00 | 54.670057 | 7.237806 | 2.0 | 9.118 | 2 | 34.995 | 9.272 | 32.498 | 2 |
| 2025-04-16T17:51:00 | 54.670609 | 7.239904 | 2.0 | 9.119 | 2 | 35.529 | 9.284 | 33.039 | 2 |
| 2025-04-16T17:52:00 | 54.671225 | 7.241868 | 2.0 | 9.113 | 2 | 35.577 | 9.286 | 33.086 | 2 |
| 2025-04-16T17:53:00 | 54.672002 | 7.243574 | 2.0 | 9.105 | 2 | 35.308 | 9.278 | 32.816 | 2 |
| 2025-04-16T17:54:00 | 54.672780 | 7.245234 | 2.0 | 9.098 | 2 | 35.475 | 9.272 | 32.994 | 2 |
| 2025-04-16T17:55:00 | 54.673480 | 7.246955 | 2.0 | 9.084 | 2 | 35.418 | 9.261 | 32.945 | 2 |
| 2025-04-16T17:56:00 | 54.674148 | 7.248698 | 2.0 | 9.101 | 2 | 35.083 | 9.257 | 32.603 | 2 |
| 2025-04-16T17:57:00 | 54.674842 | 7.250414 | 2.0 | 9.075 | 2 | 35.410 | 9.261 | 32.937 | 2 |
| 2025-04-16T17:58:00 | 54.675583 | 7.252097 | 2.0 | 9.078 | 2 | 35.593 | 9.244 | 33.142 | 2 |
| 2025-04-16T17:59:00 | 54.676365 | 7.253747 | 2.0 | 9.070 | 2 | 35.371 | 9.242 | 32.914 | 2 |
| 2025-04-16T18:00:00 | 54.677137 | 7.255400 | 2.0 | 9.059 | 2 | 35.397 | 9.237 | 32.946 | 2 |
| 2025-04-16T18:01:00 | 54.677860 | 7.257102 | 2.0 | 9.024 | 2 | 35.392 | 9.220 | 32.956 | 2 |
| 2025-04-16T18:02:00 | 54.678566 | 7.258826 | 2.0 | 8.963 | 2 | 35.300 | 9.182 | 32.896 | 2 |
| 2025-04-16T18:03:00 | 54.679318 | 7.260512 | 2.0 | 8.887 | 2 | 35.202 | 9.119 | 32.853 | 2 |
| 2025-04-16T18:04:00 | 54.680103 | 7.262158 | 2.0 | 8.818 | 2 | 35.246 | 9.048 | 32.964 | 2 |
| 2025-04-16T18:05:00 | 54.680889 | 7.263806 | 2.0 | 8.768 | 2 | 35.317 | 8.986 | 33.095 | 2 |
| 2025-04-16T18:06:00 | 54.681628 | 7.265505 | 2.0 | 8.713 | 2 | 35.033 | 8.934 | 32.848 | 2 |
| 2025-04-16T18:07:00 | 54.682345 | 7.267240 | 2.0 | 8.689 | 2 | 35.268 | 8.881 | 33.142 | 2 |
| 2025-04-16T18:08:00 | 54.683064 | 7.268955 | 2.0 | 8.609 | 2 | 34.916 | 8.851 | 32.803 | 2 |
| 2025-04-16T18:09:00 | 54.683810 | 7.270631 | 2.0 | 8.610 | 2 | 35.092 | 8.780 | 33.053 | 2 |
| 2025-04-16T18:10:00 | 54.684573 | 7.272296 | 2.0 | 8.634 | 2 | 35.046 | 8.789 | 32.996 | 2 |
| 2025-04-16T18:11:00 | 54.685333 | 7.273974 | 2.0 | 8.608 | 2 | 35.050 | 8.801 | 32.989 | 2 |
| 2025-04-16T18:12:00 | 54.686054 | 7.275661 | 2.0 | 8.585 | 2 | 34.918 | 8.773 | 32.877 | 2 |
| 2025-04-16T18:13:00 | 54.686764 | 7.277363 | 2.0 | 8.638 | 2 | 35.107 | 8.756 | 33.091 | 2 |
| 2025-04-16T18:14:00 | 54.687478 | 7.279056 | 2.0 | 8.753 | 2 | 34.988 | 8.846 | 32.882 | 2 |
| 2025-04-16T18:15:00 | 54.688209 | 7.280723 | 2.0 | 8.732 | 2 | 35.309 | 8.917 | 33.151 | 2 |
| 2025-04-16T18:16:00 | 54.688951 | 7.282373 | 2.0 | 8.741 | 2 | 35.136 | 8.899 | 32.988 | 2 |
| 2025-04-16T18:17:00 | 54.689678 | 7.284029 | 2.0 | 8.760 | 2 | 35.092 | 8.916 | 32.926 | 2 |
| 2025-04-16T18:18:00 | 54.690628 | 7.285227 | 2.0 | 8.726 | 2 | 35.221 | 8.922 | 33.055 | 2 |
| 2025-04-16T18:19:00 | 54.691818 | 7.285559 | 2.0 | 8.679 | 2 | 35.191 | 8.888 | 33.055 | 2 |
| 2025-04-16T18:20:00 | 54.692929 | 7.286362 | 2.0 | 8.607 | 2 | 35.001 | 8.831 | 32.910 | 2 |
| 2025-04-16T18:21:00 | 54.693339 | 7.288241 | 2.0 | 8.550 | 2 | 35.028 | 8.766 | 32.999 | 2 |
| 2025-04-16T18:22:00 | 54.692656 | 7.289845 | 2.0 | 8.567 | 2 | 34.960 | 8.722 | 32.968 | 2 |
| 2025-04-16T18:23:00 | 54.691452 | 7.289461 | 2.0 | 8.636 | 2 | 35.036 | 8.747 | 33.025 | 2 |
| 2025-04-16T18:24:00 | 54.690593 | 7.287574 | 2.0 | 8.691 | 2 | 34.973 | 8.813 | 32.897 | 2 |
| 2025-04-16T18:25:00 | 54.689733 | 7.285776 | 2.0 | 8.732 | 2 | 35.054 | 8.867 | 32.932 | 2 |
| 2025-04-16T18:26:00 | 54.688823 | 7.284213 | 2.0 | 8.659 | 2 | 35.018 | 8.894 | 32.869 | 2 |
| 2025-04-16T18:27:00 | 54.688053 | 7.282506 | 2.0 | 8.654 | 2 | 34.766 | 8.827 | 32.668 | 2 |
| 2025-04-16T18:28:00 | 54.687379 | 7.280710 | 2.0 | 8.624 | 2 | 34.945 | 8.822 | 32.860 | 2 |
| 2025-04-16T18:29:00 | 54.686660 | 7.279020 | 2.0 | 8.597 | 2 | 34.892 | 8.785 | 32.839 | 2 |
| 2025-04-16T18:30:00 | 54.685907 | 7.277401 | 2.0 | 8.617 | 2 | 34.926 | 8.773 | 32.885 | 2 |
| 2025-04-16T18:31:00 | 54.685145 | 7.275744 | 2.0 | 8.658 | 2 | 34.842 | 8.795 | 32.777 | 2 |
| 2025-04-16T18:32:00 | 54.684382 | 7.274033 | 2.0 | 8.697 | 2 | 34.952 | 8.832 | 32.858 | 2 |
| 2025-04-16T18:33:00 | 54.683620 | 7.272318 | 2.0 | 8.714 | 2 | 35.020 | 8.868 | 32.895 | 2 |
| 2025-04-16T18:34:00 | 54.682868 | 7.270602 | 2.0 | 8.723 | 2 | 35.082 | 8.882 | 32.947 | 2 |
| 2025-04-16T18:35:00 | 54.682116 | 7.268865 | 2.0 | 8.708 | 2 | 35.084 | 8.888 | 32.944 | 2 |
| 2025-04-16T18:36:00 | 54.681356 | 7.267148 | 2.0 | 8.717 | 2 | 34.568 | 8.874 | 32.419 | 2 |
| 2025-04-16T18:37:00 | 54.680599 | 7.265438 | 2.0 | 8.720 | 2 | 34.912 | 8.885 | 32.767 | 2 |
| 2025-04-16T18:38:00 | 54.679870 | 7.263737 | 2.0 | 8.716 | 2 | 34.771 | 8.887 | 32.618 | 2 |
| 2025-04-16T18:39:00 | 54.679125 | 7.262037 | 2.0 | 8.725 | 2 | 35.101 | 8.883 | 32.966 | 2 |
| 2025-04-16T18:40:00 | 54.678372 | 7.260360 | 2.0 | 8.773 | 2 | 34.645 | 8.903 | 32.472 | 2 |
| 2025-04-16T18:41:00 | 54.677626 | 7.258692 | 2.0 | 8.817 | 2 | 35.163 | 8.947 | 32.971 | 2 |
| 2025-04-16T18:42:00 | 54.676909 | 7.257017 | 2.0 | 8.857 | 2 | 35.223 | 8.987 | 32.997 | 2 |
| 2025-04-16T18:43:00 | 54.676178 | 7.255334 | 2.0 | 8.924 | 2 | 35.302 | 9.033 | 33.036 | 2 |
| 2025-04-16T18:44:00 | 54.675427 | 7.253669 | 2.0 | 8.985 | 2 | 35.373 | 9.100 | 33.048 | 2 |
| 2025-04-16T18:45:00 | 54.674683 | 7.251982 | 2.0 | 9.025 | 2 | 35.331 | 9.154 | 32.954 | 2 |
| 2025-04-16T18:46:00 | 54.673956 | 7.250286 | 2.0 | 9.052 | 2 | 35.421 | 9.189 | 33.015 | 2 |
| 2025-04-16T18:47:00 | 54.673232 | 7.248587 | 2.0 | 9.075 | 2 | 35.436 | 9.221 | 33.001 | 2 |
| 2025-04-16T18:48:00 | 54.672500 | 7.246900 | 2.0 | 9.082 | 2 | 35.451 | 9.240 | 32.999 | 2 |
| 2025-04-16T18:49:00 | 54.671760 | 7.245218 | 2.0 | 9.085 | 2 | 35.448 | 9.245 | 32.991 | 2 |
| 2025-04-16T18:50:00 | 54.671016 | 7.243553 | 2.0 | 9.104 | 2 | 35.511 | 9.253 | 33.049 | 2 |
| 2025-04-16T18:51:00 | 54.670420 | 7.241746 | 2.0 | 9.099 | 2 | 35.070 | 9.268 | 32.579 | 2 |
| 2025-04-16T18:52:00 | 54.670389 | 7.239753 | 2.0 | 9.109 | 2 | 35.583 | 9.265 | 33.112 | 2 |
| 2025-04-16T18:53:00 | 54.670629 | 7.237638 | 2.0 | 9.119 | 2 | 35.585 | 9.276 | 33.104 | 2 |
| 2025-04-16T18:54:00 | 54.670468 | 7.235561 | 2.0 | 9.116 | 2 | 35.588 | 9.282 | 33.102 | 2 |
| 2025-04-16T18:55:00 | 54.669638 | 7.234356 | 2.0 | 9.114 | 2 | 35.579 | 9.279 | 33.095 | 2 |
| 2025-04-16T18:56:00 | 54.668600 | 7.234609 | 2.0 | 9.118 | 2 | 35.574 | 9.278 | 33.091 | 2 |
| 2025-04-16T18:57:00 | 54.668000 | 7.236173 | 2.0 | 9.125 | 2 | 35.572 | 9.284 | 33.083 | 2 |
| 2025-04-16T18:58:00 | 54.668267 | 7.238115 | 2.0 | 9.123 | 2 | 35.575 | 9.289 | 33.082 | 2 |
| 2025-04-16T18:59:00 | 54.669083 | 7.239945 | 2.0 | 9.099 | 2 | 35.580 | 9.284 | 33.091 | 2 |
| 2025-04-16T19:00:00 | 54.669762 | 7.241955 | 2.0 | 9.105 | 2 | 35.581 | 9.269 | 33.106 | 2 |
| 2025-04-16T19:01:00 | 54.670347 | 7.243898 | 2.0 | 9.093 | 2 | 35.262 | 9.269 | 32.777 | 2 |
| 2025-04-16T19:02:00 | 54.671030 | 7.245630 | 2.0 | 9.082 | 2 | 35.176 | 9.259 | 32.697 | 2 |
| 2025-04-16T19:03:00 | 54.671786 | 7.247216 | 2.0 | 9.071 | 2 | 35.417 | 9.249 | 32.955 | 2 |
| 2025-04-16T19:04:00 | 54.672523 | 7.248813 | 2.0 | 9.049 | 2 | 35.596 | 9.235 | 33.153 | 2 |
| 2025-04-16T19:05:00 | 54.673244 | 7.250449 | 2.0 | 9.025 | 2 | 35.587 | 9.213 | 33.165 | 2 |
| 2025-04-16T19:06:00 | 54.673979 | 7.252086 | 2.0 | 8.977 | 2 | 35.574 | 9.187 | 33.175 | 2 |
| 2025-04-16T19:07:00 | 54.674729 | 7.253722 | 2.0 | 8.925 | 2 | 35.495 | 9.138 | 33.139 | 2 |
| 2025-04-16T19:08:00 | 54.675487 | 7.255334 | 2.0 | 8.885 | 2 | 35.509 | 9.089 | 33.199 | 2 |
| 2025-04-16T19:09:00 | 54.676230 | 7.256956 | 2.0 | 8.843 | 2 | 35.481 | 9.050 | 33.206 | 2 |
| 2025-04-16T19:10:00 | 54.676935 | 7.258632 | 2.0 | 8.807 | 2 | 35.447 | 9.006 | 33.212 | 2 |
| 2025-04-16T19:11:00 | 54.677621 | 7.260355 | 2.0 | 8.800 | 2 | 35.107 | 8.978 | 32.884 | 2 |
| 2025-04-16T19:12:00 | 54.678313 | 7.262066 | 2.0 | 8.808 | 2 | 35.248 | 8.972 | 33.037 | 2 |
| 2025-04-16T19:13:00 | 54.679036 | 7.263745 | 2.0 | 8.803 | 2 | 35.024 | 8.974 | 32.802 | 2 |
| 2025-04-16T19:14:00 | 54.679776 | 7.265413 | 2.0 | 8.809 | 2 | 35.384 | 8.974 | 33.176 | 2 |
| 2025-04-16T19:15:00 | 54.680518 | 7.267087 | 2.0 | 8.766 | 2 | 34.983 | 8.971 | 32.762 | 2 |
| 2025-04-16T19:16:00 | 54.681247 | 7.268773 | 2.0 | 8.803 | 2 | 35.294 | 8.942 | 33.112 | 2 |
| 2025-04-16T19:17:00 | 54.681957 | 7.270471 | 2.0 | 8.811 | 2 | 35.292 | 8.973 | 33.081 | 2 |
| 2025-04-16T19:18:00 | 54.682684 | 7.272151 | 2.0 | 8.782 | 2 | 35.151 | 8.975 | 32.933 | 2 |
| 2025-04-16T19:19:00 | 54.683442 | 7.273812 | 2.0 | 8.750 | 2 | 35.090 | 8.945 | 32.897 | 2 |
| 2025-04-16T19:20:00 | 54.684212 | 7.275475 | 2.0 | 8.716 | 2 | 35.004 | 8.913 | 32.837 | 2 |
| 2025-04-16T19:21:00 | 54.684971 | 7.277166 | 2.0 | 8.689 | 2 | 34.850 | 8.881 | 32.706 | 2 |
| 2025-04-16T19:22:00 | 54.685689 | 7.278910 | 2.0 | 8.659 | 2 | 34.999 | 8.855 | 32.886 | 2 |
| 2025-04-16T19:23:00 | 54.686414 | 7.280654 | 2.0 | 8.642 | 2 | 35.010 | 8.825 | 32.925 | 2 |
| 2025-04-16T19:24:00 | 54.687172 | 7.282374 | 2.0 | 8.600 | 2 | 34.680 | 8.804 | 32.600 | 2 |
| 2025-04-16T19:25:00 | 54.687957 | 7.284066 | 2.0 | 8.580 | 2 | 34.660 | 8.770 | 32.610 | 2 |
| 2025-04-16T19:26:00 | 54.688751 | 7.285736 | 2.0 | 8.548 | 2 | 34.801 | 8.747 | 32.779 | 2 |
| 2025-04-16T19:27:00 | 54.689717 | 7.286908 | 2.0 | 8.522 | 2 | 34.870 | 8.716 | 32.880 | 2 |
| 2025-04-16T19:28:00 | 54.690864 | 7.287120 | 2.0 | 8.501 | 2 | 34.835 | 8.690 | 32.867 | 2 |
| 2025-04-16T19:29:00 | 54.692074 | 7.287605 | 2.0 | 8.538 | 2 | 34.893 | 8.682 | 32.935 | 2 |
| 2025-04-16T19:31:00 | 54.692279 | 7.291439 | 2.0 | 8.490 | 2 | 35.079 | 8.669 | 33.143 | 2 |
| 2025-04-16T19:32:00 | 54.691076 | 7.292114 | 2.0 | 8.496 | 2 | 35.064 | 8.660 | 33.135 | 2 |
| 2025-04-16T19:33:00 | 54.689950 | 7.291022 | 2.0 | 8.502 | 2 | 35.061 | 8.666 | 33.127 | 2 |
| 2025-04-16T19:34:00 | 54.689247 | 7.289086 | 2.0 | 8.523 | 2 | 35.059 | 8.672 | 33.119 | 2 |
| 2025-04-16T19:35:00 | 54.688546 | 7.287230 | 2.0 | 8.557 | 2 | 35.072 | 8.699 | 33.107 | 2 |
| 2025-04-16T19:36:00 | 54.687749 | 7.285610 | 2.0 | 8.589 | 2 | 35.096 | 8.731 | 33.103 | 2 |
| 2025-04-16T19:37:00 | 54.686995 | 7.283984 | 2.0 | 8.612 | 2 | 35.117 | 8.758 | 33.099 | 2 |
| 2025-04-16T19:38:00 | 54.686300 | 7.282310 | 2.0 | 8.632 | 2 | 35.138 | 8.781 | 33.100 | 2 |
| 2025-04-16T19:39:00 | 54.685598 | 7.280665 | 2.0 | 8.664 | 2 | 35.155 | 8.802 | 33.098 | 2 |
| 2025-04-16T19:40:00 | 54.684897 | 7.279061 | 2.0 | 8.695 | 2 | 35.180 | 8.834 | 33.094 | 2 |
| 2025-04-16T19:41:00 | 54.684209 | 7.277438 | 2.0 | 8.746 | 2 | 35.206 | 8.871 | 33.087 | 2 |
| 2025-04-16T19:42:00 | 54.683527 | 7.275793 | 2.0 | 8.774 | 2 | 35.245 | 8.916 | 33.086 | 2 |
| 2025-04-16T19:43:00 | 54.682823 | 7.274162 | 2.0 | 8.793 | 2 | 35.269 | 8.942 | 33.086 | 2 |
| 2025-04-16T19:44:00 | 54.682089 | 7.272570 | 2.0 | 8.815 | 2 | 35.286 | 8.962 | 33.085 | 2 |
| 2025-04-16T19:45:00 | 54.681352 | 7.270951 | 2.0 | 8.833 | 2 | 35.305 | 8.984 | 33.085 | 2 |
| 2025-04-16T19:46:00 | 54.680627 | 7.269298 | 2.0 | 8.837 | 2 | 35.319 | 8.999 | 33.085 | 2 |
| 2025-04-16T19:47:00 | 54.679904 | 7.267624 | 2.0 | 8.820 | 2 | 35.315 | 9.000 | 33.080 | 2 |
| 2025-04-16T19:48:00 | 54.679173 | 7.265952 | 2.0 | 8.835 | 2 | 35.307 | 8.995 | 33.077 | 2 |
| 2025-04-16T19:49:00 | 54.678437 | 7.264283 | 2.0 | 8.791 | 2 | 35.323 | 8.990 | 33.098 | 2 |
| 2025-04-16T19:50:00 | 54.677693 | 7.262627 | 2.0 | 8.780 | 2 | 35.307 | 8.954 | 33.115 | 2 |
| 2025-04-16T19:51:00 | 54.676951 | 7.260968 | 2.0 | 8.821 | 2 | 35.338 | 8.960 | 33.142 | 2 |
| 2025-04-16T19:52:00 | 54.676226 | 7.259299 | 2.0 | 8.813 | 2 | 35.392 | 8.982 | 33.177 | 2 |
| 2025-04-16T19:53:00 | 54.675495 | 7.257634 | 2.0 | 8.823 | 2 | 35.402 | 8.982 | 33.188 | 2 |
| 2025-04-16T19:54:00 | 54.674750 | 7.255972 | 2.0 | 8.866 | 2 | 35.414 | 8.995 | 33.188 | 2 |
| 2025-04-16T19:55:00 | 54.674013 | 7.254307 | 2.0 | 8.915 | 2 | 35.448 | 9.041 | 33.180 | 2 |
| 2025-04-16T19:56:00 | 54.673286 | 7.252640 | 2.0 | 8.943 | 2 | 35.482 | 9.083 | 33.177 | 2 |
| 2025-04-16T19:57:00 | 54.672563 | 7.250974 | 2.0 | 8.974 | 2 | 35.500 | 9.112 | 33.168 | 2 |
| 2025-04-16T19:58:00 | 54.671836 | 7.249299 | 2.0 | 9.003 | 2 | 35.519 | 9.142 | 33.160 | 2 |
| 2025-04-16T19:59:00 | 54.671106 | 7.247607 | 2.0 | 9.034 | 2 | 35.534 | 9.171 | 33.149 | 2 |
| 2025-04-16T20:00:00 | 54.670361 | 7.245909 | 2.0 | 9.053 | 2 | 35.547 | 9.199 | 33.136 | 2 |
| 2025-04-16T20:01:00 | 54.669621 | 7.244196 | 2.0 | 9.066 | 2 | 35.557 | 9.220 | 33.127 | 2 |
| 2025-04-16T20:02:00 | 54.669269 | 7.242249 | 2.0 | 9.072 | 2 | 35.555 | 9.230 | 33.116 | 2 |
| 2025-04-16T20:03:00 | 54.669609 | 7.240136 | 2.0 | 9.068 | 2 | 35.561 | 9.235 | 33.117 | 2 |
| 2025-04-16T20:04:00 | 54.669691 | 7.237878 | 2.0 | 9.073 | 2 | 35.548 | 9.230 | 33.108 | 2 |
| 2025-04-16T20:05:00 | 54.668846 | 7.236315 | 2.0 | 9.073 | 2 | 35.537 | 9.234 | 33.093 | 2 |
| 2025-04-16T20:06:00 | 54.667544 | 7.236368 | 2.0 | 9.082 | 2 | 35.547 | 9.242 | 33.096 | 2 |
| 2025-04-16T20:07:00 | 54.666653 | 7.237979 | 2.0 | 9.085 | 2 | 35.539 | 9.247 | 33.083 | 2 |
| 2025-04-16T20:08:00 | 54.666663 | 7.240135 | 2.0 | 9.083 | 2 | 35.545 | 9.250 | 33.087 | 2 |
| 2025-04-16T20:09:00 | 54.667416 | 7.241948 | 2.0 | 9.076 | 2 | 35.545 | 9.246 | 33.090 | 2 |
| 2025-04-16T20:10:00 | 54.668349 | 7.243862 | 2.0 | 9.066 | 2 | 35.551 | 9.240 | 33.102 | 2 |
| 2025-04-16T20:11:00 | 54.669363 | 7.245677 | 2.0 | 9.053 | 2 | 35.556 | 9.229 | 33.118 | 2 |
| 2025-04-16T20:12:00 | 54.670250 | 7.247363 | 2.0 | 9.000 | 2 | 35.555 | 9.208 | 33.136 | 2 |
| 2025-04-16T20:13:00 | 54.670995 | 7.249124 | 2.0 | 9.000 | 2 | 35.527 | 9.169 | 33.143 | 2 |
| 2025-04-16T20:14:00 | 54.671723 | 7.250823 | 2.0 | 8.992 | 2 | 35.529 | 9.165 | 33.149 | 2 |
| 2025-04-16T20:15:00 | 54.672451 | 7.252458 | 2.0 | 8.960 | 2 | 35.527 | 9.153 | 33.158 | 2 |
| 2025-04-16T20:16:00 | 54.673180 | 7.254063 | 2.0 | 8.928 | 2 | 35.511 | 9.122 | 33.170 | 2 |
| 2025-04-16T20:17:00 | 54.673905 | 7.255636 | 2.0 | 8.905 | 2 | 35.494 | 9.093 | 33.180 | 2 |
| 2025-04-16T20:18:00 | 54.674627 | 7.257200 | 2.0 | 8.873 | 2 | 35.480 | 9.070 | 33.187 | 2 |
| 2025-04-16T20:19:00 | 54.675355 | 7.258819 | 2.0 | 8.830 | 2 | 35.452 | 9.035 | 33.190 | 2 |
| 2025-04-16T20:20:00 | 54.676073 | 7.260531 | 2.0 | 8.810 | 2 | 35.422 | 8.996 | 33.195 | 2 |
| 2025-04-16T20:21:00 | 54.676800 | 7.262289 | 2.0 | 8.807 | 2 | 35.402 | 8.978 | 33.191 | 2 |
| 2025-04-16T20:22:00 | 54.677527 | 7.264055 | 2.0 | 8.810 | 2 | 35.387 | 8.977 | 33.177 | 2 |
| 2025-04-16T20:23:00 | 54.678251 | 7.265818 | 2.0 | 8.762 | 2 | 35.364 | 8.967 | 33.162 | 2 |
| 2025-04-16T20:24:00 | 54.679009 | 7.267569 | 2.0 | 8.786 | 2 | 35.279 | 8.938 | 33.101 | 2 |
| 2025-04-16T20:25:00 | 54.679783 | 7.269323 | 2.0 | 8.780 | 2 | 35.295 | 8.953 | 33.103 | 2 |
| 2025-04-16T20:26:00 | 54.680551 | 7.271098 | 2.0 | 8.791 | 2 | 35.291 | 8.947 | 33.105 | 2 |
| 2025-04-16T20:27:00 | 54.681335 | 7.272888 | 2.0 | 8.814 | 2 | 35.286 | 8.965 | 33.083 | 2 |
| 2025-04-16T20:28:00 | 54.682123 | 7.274696 | 2.0 | 8.796 | 2 | 35.296 | 8.978 | 33.081 | 2 |
| 2025-04-16T20:29:00 | 54.682878 | 7.276510 | 2.0 | 8.802 | 2 | 35.288 | 8.962 | 33.088 | 2 |
| 2025-04-16T20:30:00 | 54.683614 | 7.278293 | 2.0 | 8.780 | 2 | 35.287 | 8.960 | 33.088 | 2 |
| 2025-04-16T20:31:00 | 54.684383 | 7.280023 | 2.0 | 8.768 | 2 | 35.274 | 8.949 | 33.085 | 2 |
| 2025-04-16T20:32:00 | 54.685188 | 7.281682 | 2.0 | 8.731 | 2 | 35.256 | 8.930 | 33.084 | 2 |
| 2025-04-16T20:33:00 | 54.685993 | 7.283315 | 2.0 | 8.675 | 2 | 35.219 | 8.890 | 33.083 | 2 |
| 2025-04-16T20:34:00 | 54.686765 | 7.284990 | 2.0 | 8.628 | 2 | 35.175 | 8.837 | 33.086 | 2 |
| 2025-04-16T20:35:00 | 54.687496 | 7.286741 | 2.0 | 8.594 | 2 | 35.147 | 8.795 | 33.096 | 2 |
| 2025-04-16T20:36:00 | 54.688355 | 7.288092 | 2.0 | 8.575 | 2 | 35.116 | 8.764 | 33.093 | 2 |
| 2025-04-16T20:37:00 | 54.689334 | 7.288644 | 2.0 | 8.543 | 2 | 35.100 | 8.740 | 33.098 | 2 |
| 2025-04-16T20:38:00 | 54.690315 | 7.288938 | 2.0 | 8.518 | 2 | 35.075 | 8.710 | 33.100 | 2 |
| 2025-04-16T20:39:00 | 54.691360 | 7.289710 | 2.0 | 8.480 | 2 | 35.050 | 8.680 | 33.102 | 2 |
| 2025-04-16T20:40:00 | 54.691986 | 7.291743 | 2.0 | 8.481 | 2 | 35.027 | 8.653 | 33.103 | 2 |
| 2025-04-16T20:41:00 | 54.691471 | 7.293820 | 2.0 | 8.468 | 2 | 35.043 | 8.651 | 33.122 | 2 |
| 2025-04-16T20:42:00 | 54.690399 | 7.294419 | 2.0 | 8.504 | 2 | 35.035 | 8.642 | 33.122 | 2 |
| 2025-04-16T20:43:00 | 54.689455 | 7.293393 | 2.0 | 8.520 | 2 | 35.043 | 8.671 | 33.103 | 2 |
| 2025-04-16T20:44:00 | 54.688834 | 7.291386 | 2.0 | 8.527 | 2 | 35.059 | 8.693 | 33.099 | 2 |
| 2025-04-16T20:45:00 | 54.687931 | 7.289647 | 2.0 | 8.579 | 2 | 35.060 | 8.681 | 33.112 | 2 |
| 2025-04-16T20:46:00 | 54.687170 | 7.287971 | 2.0 | 8.605 | 2 | 35.092 | 8.738 | 33.092 | 2 |
| 2025-04-16T20:47:00 | 54.686533 | 7.286283 | 2.0 | 8.640 | 2 | 35.131 | 8.777 | 33.096 | 2 |
| 2025-04-16T20:48:00 | 54.685834 | 7.284681 | 2.0 | 8.692 | 2 | 35.159 | 8.814 | 33.091 | 2 |
| 2025-04-16T20:49:00 | 54.685073 | 7.283068 | 2.0 | 8.738 | 2 | 35.195 | 8.864 | 33.082 | 2 |
| 2025-04-16T20:50:00 | 54.684292 | 7.281432 | 2.0 | 8.771 | 2 | 35.239 | 8.908 | 33.087 | 2 |
| 2025-04-16T20:51:00 | 54.683528 | 7.279748 | 2.0 | 8.791 | 2 | 35.270 | 8.937 | 33.092 | 2 |
| 2025-04-16T20:52:00 | 54.682771 | 7.278014 | 2.0 | 8.797 | 2 | 35.291 | 8.958 | 33.094 | 2 |
| 2025-04-16T20:53:00 | 54.682002 | 7.276269 | 2.0 | 8.795 | 2 | 35.291 | 8.962 | 33.091 | 2 |
| 2025-04-16T20:54:00 | 54.681224 | 7.274526 | 2.0 | 8.756 | 2 | 35.280 | 8.955 | 33.086 | 2 |
| 2025-04-16T20:55:00 | 54.680430 | 7.272770 | 2.0 | 8.767 | 2 | 35.249 | 8.928 | 33.079 | 2 |
| 2025-04-16T20:56:00 | 54.679613 | 7.271020 | 2.0 | 8.787 | 2 | 35.295 | 8.939 | 33.116 | 2 |
| 2025-04-16T20:57:00 | 54.678810 | 7.269241 | 2.0 | 8.787 | 2 | 35.336 | 8.949 | 33.150 | 2 |
| 2025-04-16T20:58:00 | 54.678059 | 7.267388 | 2.0 | 8.778 | 2 | 35.365 | 8.953 | 33.176 | 2 |
| 2025-04-16T20:59:00 | 54.677307 | 7.265542 | 2.0 | 8.770 | 2 | 35.377 | 8.944 | 33.197 | 2 |
| 2025-04-16T21:00:00 | 54.676530 | 7.263802 | 2.0 | 8.788 | 2 | 35.362 | 8.941 | 33.184 | 2 |
| 2025-04-16T21:01:00 | 54.675763 | 7.262106 | 2.0 | 8.819 | 2 | 35.397 | 8.961 | 33.202 | 2 |
| 2025-04-16T21:02:00 | 54.675036 | 7.260398 | 2.0 | 8.846 | 2 | 35.394 | 8.987 | 33.175 | 2 |
| 2025-04-16T21:03:00 | 54.674314 | 7.258676 | 2.0 | 8.893 | 2 | 35.432 | 9.019 | 33.184 | 2 |
| 2025-04-16T21:04:00 | 54.673594 | 7.256970 | 2.0 | 8.932 | 2 | 35.466 | 9.065 | 33.177 | 2 |
| 2025-04-16T21:05:00 | 54.672880 | 7.255289 | 2.0 | 8.953 | 2 | 35.492 | 9.098 | 33.173 | 2 |
| 2025-04-16T21:06:00 | 54.672129 | 7.253637 | 2.0 | 8.982 | 2 | 35.504 | 9.122 | 33.163 | 2 |
| 2025-04-16T21:07:00 | 54.671372 | 7.251964 | 2.0 | 9.007 | 2 | 35.518 | 9.151 | 33.151 | 2 |
| 2025-04-16T21:08:00 | 54.670616 | 7.250302 | 2.0 | 9.038 | 2 | 35.532 | 9.177 | 33.141 | 2 |
| 2025-04-16T21:09:00 | 54.669868 | 7.248659 | 2.0 | 9.053 | 2 | 35.283 | 9.204 | 32.858 | 2 |
| 2025-04-16T21:10:00 | 54.669152 | 7.247023 | 2.0 | 9.053 | 2 | 35.545 | 9.216 | 33.118 | 2 |
| 2025-04-16T21:11:00 | 54.668458 | 7.245369 | 2.0 | 9.064 | 2 | 35.524 | 9.218 | 33.095 | 2 |
| 2025-04-16T21:12:00 | 54.668226 | 7.243538 | 2.0 | 9.075 | 2 | 34.996 | 9.231 | 32.537 | 2 |
| 2025-04-16T21:13:00 | 54.668665 | 7.241724 | 2.0 | 9.067 | 2 | 35.278 | 9.238 | 32.822 | 2 |
| 2025-04-16T21:14:00 | 54.669041 | 7.239585 | 2.0 | 9.041 | 2 | 35.535 | 9.223 | 33.101 | 2 |
| 2025-04-16T21:15:00 | 54.668419 | 7.237518 | 2.0 | 9.059 | 2 | 35.057 | 9.209 | 32.620 | 2 |
| 2025-04-16T21:16:00 | 54.666996 | 7.237043 | 2.0 | 9.077 | 2 | 35.227 | 9.226 | 32.780 | 2 |
| 2025-04-16T21:17:00 | 54.665855 | 7.238568 | 2.0 | 9.080 | 2 | 34.963 | 9.242 | 32.493 | 2 |
| 2025-04-16T21:18:00 | 54.665718 | 7.240758 | 2.0 | 9.077 | 2 | 35.147 | 9.244 | 32.681 | 2 |
| 2025-04-16T21:19:00 | 54.666308 | 7.242595 | 2.0 | 9.066 | 2 | 35.385 | 9.241 | 32.930 | 2 |
| 2025-04-16T21:20:00 | 54.667169 | 7.244487 | 2.0 | 9.070 | 2 | 35.363 | 9.232 | 32.915 | 2 |
| 2025-04-16T21:21:00 | 54.667997 | 7.246525 | 2.0 | 9.058 | 2 | 35.149 | 9.228 | 32.698 | 2 |
| 2025-04-16T21:22:00 | 54.668852 | 7.248354 | 2.0 | 9.049 | 2 | 35.547 | 9.224 | 33.113 | 2 |
| 2025-04-16T21:23:00 | 54.669712 | 7.250019 | 2.0 | 9.047 | 2 | 35.233 | 9.217 | 32.794 | 2 |
| 2025-04-16T21:24:00 | 54.670515 | 7.251700 | 2.0 | 9.035 | 2 | 35.375 | 9.211 | 32.947 | 2 |
| 2025-04-16T21:25:00 | 54.671253 | 7.253430 | 2.0 | 9.019 | 2 | 35.315 | 9.198 | 32.897 | 2 |
| 2025-04-16T21:26:00 | 54.671963 | 7.255140 | 2.0 | 8.992 | 2 | 35.212 | 9.183 | 32.804 | 2 |
| 2025-04-16T21:27:00 | 54.672679 | 7.256788 | 2.0 | 8.963 | 2 | 35.319 | 9.155 | 32.941 | 2 |
| 2025-04-16T21:28:00 | 54.673403 | 7.258395 | 2.0 | 8.935 | 2 | 35.300 | 9.126 | 32.948 | 2 |
| 2025-04-16T21:29:00 | 54.674126 | 7.259996 | 2.0 | 8.910 | 2 | 35.250 | 9.100 | 32.920 | 2 |
| 2025-04-16T21:30:00 | 54.674826 | 7.261615 | 2.0 | 8.881 | 2 | 35.321 | 9.074 | 33.018 | 2 |
| 2025-04-16T21:31:00 | 54.675532 | 7.263231 | 2.0 | 8.843 | 2 | 35.117 | 9.043 | 32.835 | 2 |
| 2025-04-16T21:32:00 | 54.676245 | 7.264853 | 2.0 | 8.804 | 2 | 35.428 | 9.006 | 33.192 | 2 |
| 2025-04-16T21:33:00 | 54.676957 | 7.266475 | 2.0 | 8.773 | 2 | 35.140 | 8.969 | 32.927 | 2 |
| 2025-04-16T21:34:00 | 54.677672 | 7.268100 | 2.0 | 8.746 | 2 | 35.073 | 8.938 | 32.886 | 2 |
| 2025-04-16T21:35:00 | 54.678390 | 7.269724 | 2.0 | 8.713 | 2 | 35.121 | 8.912 | 32.960 | 2 |
| 2025-04-16T21:36:00 | 54.679108 | 7.271345 | 2.0 | 8.691 | 2 | 35.085 | 8.879 | 32.953 | 2 |
| 2025-04-16T21:37:00 | 54.679825 | 7.272974 | 2.0 | 8.654 | 2 | 35.295 | 8.855 | 33.195 | 2 |
| 2025-04-16T21:38:00 | 54.680545 | 7.274610 | 2.0 | 8.648 | 2 | 35.058 | 8.823 | 32.977 | 2 |
| 2025-04-16T21:39:00 | 54.681270 | 7.276257 | 2.0 | 8.701 | 2 | 35.106 | 8.824 | 33.026 | 2 |
| 2025-04-16T21:40:00 | 54.682001 | 7.277908 | 2.0 | 8.731 | 2 | 35.043 | 8.880 | 32.908 | 2 |
| 2025-04-16T21:41:00 | 54.682717 | 7.279590 | 2.0 | 8.717 | 2 | 35.107 | 8.892 | 32.964 | 2 |
| 2025-04-16T21:42:00 | 54.683433 | 7.281254 | 2.0 | 8.719 | 2 | 35.071 | 8.885 | 32.933 | 2 |
| 2025-04-16T21:43:00 | 54.684162 | 7.282893 | 2.0 | 8.735 | 2 | 35.147 | 8.890 | 33.008 | 2 |
| 2025-04-16T21:44:00 | 54.684902 | 7.284521 | 2.0 | 8.738 | 2 | 35.111 | 8.905 | 32.956 | 2 |
| 2025-04-16T21:45:00 | 54.685639 | 7.286147 | 2.0 | 8.724 | 2 | 34.980 | 8.903 | 32.821 | 2 |
| 2025-04-16T21:46:00 | 54.686383 | 7.287769 | 2.0 | 8.682 | 2 | 34.959 | 8.888 | 32.813 | 2 |
| 2025-04-16T21:47:00 | 54.687128 | 7.289372 | 2.0 | 8.635 | 2 | 35.128 | 8.844 | 33.031 | 2 |
| 2025-04-16T21:48:00 | 54.687954 | 7.290682 | 2.0 | 8.605 | 2 | 34.989 | 8.802 | 32.924 | 2 |
| 2025-04-16T21:49:00 | 54.688845 | 7.291599 | 2.0 | 8.594 | 2 | 34.952 | 8.769 | 32.916 | 2 |
| 2025-04-16T21:50:00 | 54.689797 | 7.292195 | 2.0 | 8.666 | 2 | 34.942 | 8.776 | 32.899 | 2 |
| 2025-04-16T21:51:00 | 54.690903 | 7.292816 | 2.0 | 8.681 | 2 | 35.044 | 8.838 | 32.948 | 2 |
| 2025-04-16T21:52:00 | 54.691980 | 7.294309 | 2.0 | 8.659 | 2 | 35.016 | 8.843 | 32.914 | 2 |
| 2025-04-16T21:53:00 | 54.692094 | 7.296646 | 2.0 | 8.663 | 2 | 35.025 | 8.829 | 32.937 | 2 |
| 2025-04-16T21:54:00 | 54.691268 | 7.298292 | 2.0 | 8.645 | 2 | 35.016 | 8.827 | 32.929 | 2 |
| 2025-04-16T21:55:00 | 54.690246 | 7.298386 | 2.0 | 8.647 | 2 | 35.058 | 8.812 | 32.987 | 2 |
| 2025-04-16T21:56:00 | 54.689649 | 7.297256 | 2.0 | 8.671 | 2 | 35.041 | 8.817 | 32.965 | 2 |
| 2025-04-16T21:57:00 | 54.689113 | 7.295617 | 2.0 | 8.653 | 2 | 35.050 | 8.841 | 32.952 | 2 |
| 2025-04-16T21:58:00 | 54.688386 | 7.293983 | 2.0 | 8.613 | 2 | 35.021 | 8.801 | 32.959 | 2 |
| 2025-04-16T21:59:00 | 54.687706 | 7.292376 | 2.0 | 8.588 | 2 | 35.021 | 8.778 | 32.980 | 2 |
| 2025-04-16T22:00:00 | 54.687031 | 7.290859 | 2.0 | 8.600 | 2 | 34.859 | 8.759 | 32.828 | 2 |
| 2025-04-16T22:01:00 | 54.686355 | 7.289398 | 2.0 | 8.627 | 2 | 34.703 | 8.773 | 32.652 | 2 |
| 2025-04-16T22:02:00 | 54.685635 | 7.287855 | 2.0 | 8.654 | 2 | 34.840 | 8.798 | 32.772 | 2 |
| 2025-04-16T22:03:00 | 54.684861 | 7.286272 | 2.0 | 8.650 | 2 | 35.011 | 8.821 | 32.930 | 2 |
| 2025-04-16T22:04:00 | 54.684120 | 7.284603 | 2.0 | 8.651 | 2 | 34.687 | 8.815 | 32.597 | 2 |
| 2025-04-16T22:05:00 | 54.683396 | 7.282894 | 2.0 | 8.659 | 2 | 35.005 | 8.822 | 32.922 | 2 |
| 2025-04-16T22:06:00 | 54.682641 | 7.281194 | 2.0 | 8.638 | 2 | 34.979 | 8.827 | 32.891 | 2 |
| 2025-04-16T22:07:00 | 54.681907 | 7.279501 | 2.0 | 8.634 | 2 | 35.051 | 8.800 | 32.991 | 2 |
| 2025-04-16T22:08:00 | 54.681190 | 7.277844 | 2.0 | 8.669 | 2 | 34.931 | 8.806 | 32.860 | 2 |
| 2025-04-16T22:09:00 | 54.680460 | 7.276183 | 2.0 | 8.724 | 2 | 34.826 | 8.843 | 32.716 | 2 |
| 2025-04-16T22:10:00 | 54.679715 | 7.274534 | 2.0 | 8.751 | 2 | 34.859 | 8.894 | 32.704 | 2 |
| 2025-04-16T22:11:00 | 54.678974 | 7.272873 | 2.0 | 8.759 | 2 | 34.888 | 8.913 | 32.716 | 2 |
| 2025-04-16T22:12:00 | 54.678238 | 7.271186 | 2.0 | 8.745 | 2 | 35.083 | 8.906 | 32.926 | 2 |
| 2025-04-16T22:13:00 | 54.677514 | 7.269472 | 2.0 | 8.779 | 2 | 35.142 | 8.907 | 32.987 | 2 |
| 2025-04-16T22:14:00 | 54.676778 | 7.267761 | 2.0 | 8.821 | 2 | 35.128 | 8.949 | 32.933 | 2 |
| 2025-04-16T22:15:00 | 54.676010 | 7.266068 | 2.0 | 8.860 | 2 | 35.310 | 8.985 | 33.089 | 2 |
| 2025-04-16T22:16:00 | 54.675241 | 7.264374 | 2.0 | 8.900 | 2 | 35.206 | 9.029 | 32.940 | 2 |
| 2025-04-16T22:17:00 | 54.674498 | 7.262666 | 2.0 | 8.937 | 2 | 35.169 | 9.066 | 32.867 | 2 |
| 2025-04-16T22:18:00 | 54.673775 | 7.260955 | 2.0 | 8.954 | 2 | 35.378 | 9.103 | 33.050 | 2 |
| 2025-04-16T22:19:00 | 54.673021 | 7.259288 | 2.0 | 8.958 | 2 | 35.348 | 9.117 | 33.006 | 2 |
| 2025-04-16T22:20:00 | 54.672255 | 7.257631 | 2.0 | 8.980 | 2 | 35.346 | 9.124 | 32.997 | 2 |
| 2025-04-16T22:21:00 | 54.671510 | 7.255918 | 2.0 | 8.982 | 2 | 35.437 | 9.144 | 33.073 | 2 |
| 2025-04-16T22:22:00 | 54.670783 | 7.254193 | 2.0 | 8.991 | 2 | 35.331 | 9.148 | 32.960 | 2 |
| 2025-04-16T22:23:00 | 54.670026 | 7.252482 | 2.0 | 9.006 | 2 | 35.366 | 9.158 | 32.987 | 2 |
| 2025-04-16T22:24:00 | 54.669272 | 7.250779 | 2.0 | 9.018 | 2 | 35.383 | 9.171 | 32.992 | 2 |
| 2025-04-16T22:25:00 | 54.668520 | 7.249082 | 2.0 | 9.033 | 2 | 35.398 | 9.184 | 32.996 | 2 |
| 2025-04-16T22:26:00 | 54.667786 | 7.247377 | 2.0 | 9.043 | 2 | 35.399 | 9.199 | 32.983 | 2 |
| 2025-04-16T22:27:00 | 54.667114 | 7.245623 | 2.0 | 9.042 | 2 | 35.442 | 9.207 | 33.020 | 2 |
| 2025-04-16T22:28:00 | 54.666572 | 7.243815 | 2.0 | 9.036 | 2 | 35.390 | 9.204 | 32.969 | 2 |
| 2025-04-16T22:29:00 | 54.665849 | 7.242142 | 2.0 | 9.023 | 2 | 35.391 | 9.200 | 32.974 | 2 |
| 2025-04-16T22:30:00 | 54.665217 | 7.240374 | 2.0 | 9.026 | 2 | 35.395 | 9.187 | 32.990 | 2 |
| 2025-04-16T22:31:00 | 54.664692 | 7.238576 | 2.0 | 9.025 | 2 | 35.429 | 9.192 | 33.020 | 2 |
| 2025-04-16T22:32:00 | 54.663646 | 7.237824 | 2.0 | 9.023 | 2 | 35.401 | 9.189 | 32.994 | 2 |
| 2025-04-16T22:33:00 | 54.662701 | 7.239015 | 2.0 | 9.021 | 2 | 35.392 | 9.186 | 32.988 | 2 |
| 2025-04-16T22:34:00 | 54.662691 | 7.240923 | 2.0 | 9.028 | 2 | 35.380 | 9.187 | 32.974 | 2 |
| 2025-04-16T22:35:00 | 54.663376 | 7.242329 | 2.0 | 9.035 | 2 | 35.424 | 9.194 | 33.013 | 2 |
| 2025-04-16T22:36:00 | 54.664352 | 7.243553 | 2.0 | 9.015 | 2 | 35.436 | 9.200 | 33.020 | 2 |
| 2025-04-16T22:37:00 | 54.665340 | 7.244859 | 2.0 | 9.026 | 2 | 35.442 | 9.176 | 33.049 | 2 |
| 2025-04-16T22:38:00 | 54.666237 | 7.246492 | 2.0 | 9.034 | 2 | 35.465 | 9.191 | 33.059 | 2 |
| 2025-04-16T22:39:00 | 54.667152 | 7.248108 | 2.0 | 9.039 | 2 | 35.484 | 9.200 | 33.070 | 2 |
| 2025-04-16T22:40:00 | 54.668033 | 7.249829 | 2.0 | 9.030 | 2 | 35.491 | 9.203 | 33.074 | 2 |
| 2025-04-16T22:41:00 | 54.668839 | 7.251724 | 2.0 | 9.026 | 2 | 35.501 | 9.196 | 33.091 | 2 |
| 2025-04-16T22:42:00 | 54.669658 | 7.253585 | 2.0 | 9.015 | 2 | 35.502 | 9.189 | 33.099 | 2 |
| 2025-04-16T22:43:00 | 54.670527 | 7.255358 | 2.0 | 9.005 | 2 | 35.508 | 9.180 | 33.113 | 2 |
| 2025-04-16T22:44:00 | 54.671380 | 7.257158 | 2.0 | 8.990 | 2 | 35.504 | 9.169 | 33.119 | 2 |
| 2025-04-16T22:45:00 | 54.672186 | 7.259017 | 2.0 | 8.981 | 2 | 35.502 | 9.154 | 33.131 | 2 |
| 2025-04-16T22:46:00 | 54.672988 | 7.260902 | 2.0 | 8.974 | 2 | 35.502 | 9.147 | 33.138 | 2 |
| 2025-04-16T22:47:00 | 54.673780 | 7.262799 | 2.0 | 8.953 | 2 | 35.499 | 9.137 | 33.144 | 2 |
| 2025-04-16T22:48:00 | 54.674574 | 7.264630 | 2.0 | 8.917 | 2 | 35.489 | 9.117 | 33.152 | 2 |
| 2025-04-16T22:49:00 | 54.675368 | 7.266420 | 2.0 | 8.892 | 2 | 35.466 | 9.078 | 33.165 | 2 |
| 2025-04-16T22:50:00 | 54.676136 | 7.268217 | 2.0 | 8.876 | 2 | 35.446 | 9.058 | 33.163 | 2 |
| 2025-04-16T22:51:00 | 54.676901 | 7.269994 | 2.0 | 8.884 | 2 | 35.438 | 9.045 | 33.166 | 2 |
| 2025-04-16T22:52:00 | 54.677686 | 7.271727 | 2.0 | 8.874 | 2 | 35.444 | 9.050 | 33.168 | 2 |
| 2025-04-16T22:53:00 | 54.678473 | 7.273459 | 2.0 | 8.853 | 2 | 35.437 | 9.037 | 33.173 | 2 |
| 2025-04-16T22:54:00 | 54.679245 | 7.275201 | 2.0 | 8.806 | 2 | 35.421 | 9.013 | 33.179 | 2 |
| 2025-04-16T22:55:00 | 54.680011 | 7.276963 | 2.0 | 8.786 | 2 | 35.387 | 8.973 | 33.180 | 2 |
| 2025-04-16T22:56:00 | 54.680760 | 7.278731 | 2.0 | 8.787 | 2 | 35.372 | 8.953 | 33.184 | 2 |
| 2025-04-16T22:57:00 | 54.681508 | 7.280476 | 2.0 | 8.814 | 2 | 35.377 | 8.958 | 33.184 | 2 |
| 2025-04-16T22:58:00 | 54.682269 | 7.282197 | 2.0 | 8.827 | 2 | 35.382 | 8.983 | 33.166 | 2 |
| 2025-04-16T22:59:00 | 54.683041 | 7.283902 | 2.0 | 8.832 | 2 | 35.388 | 8.994 | 33.162 | 2 |
| 2025-04-16T23:00:00 | 54.683825 | 7.285593 | 2.0 | 8.827 | 2 | 35.386 | 8.999 | 33.155 | 2 |
| 2025-04-16T23:01:00 | 54.684606 | 7.287292 | 2.0 | 8.810 | 2 | 35.372 | 8.991 | 33.148 | 2 |
| 2025-04-16T23:02:00 | 54.685354 | 7.289053 | 2.0 | 8.776 | 2 | 35.350 | 8.971 | 33.144 | 2 |
| 2025-04-16T23:03:00 | 54.686090 | 7.290837 | 2.0 | 8.778 | 2 | 35.324 | 8.945 | 33.141 | 2 |
| 2025-04-16T23:04:00 | 54.686950 | 7.292179 | 2.0 | 8.782 | 2 | 35.325 | 8.946 | 33.141 | 2 |
| 2025-04-16T23:05:00 | 54.687889 | 7.292944 | 2.0 | 8.788 | 2 | 35.329 | 8.950 | 33.141 | 2 |
| 2025-04-16T23:06:00 | 54.688906 | 7.293649 | 2.0 | 8.793 | 2 | 35.324 | 8.955 | 33.132 | 2 |
| 2025-04-16T23:07:00 | 54.689717 | 7.295407 | 2.0 | 8.789 | 2 | 35.331 | 8.957 | 33.137 | 2 |
| 2025-04-16T23:08:00 | 54.689571 | 7.297778 | 2.0 | 8.782 | 2 | 35.315 | 8.955 | 33.122 | 2 |
| 2025-04-16T23:09:00 | 54.688549 | 7.299019 | 2.0 | 8.773 | 2 | 35.322 | 8.946 | 33.138 | 2 |
| 2025-04-16T23:10:00 | 54.687698 | 7.298566 | 2.0 | 8.775 | 2 | 35.320 | 8.939 | 33.142 | 2 |
| 2025-04-16T23:11:00 | 54.687156 | 7.297124 | 2.0 | 8.778 | 2 | 35.321 | 8.941 | 33.142 | 2 |
| 2025-04-16T23:12:00 | 54.686559 | 7.295308 | 2.0 | 8.774 | 2 | 35.323 | 8.945 | 33.140 | 2 |
| 2025-04-16T23:13:00 | 54.685906 | 7.293606 | 2.0 | 8.792 | 2 | 35.320 | 8.935 | 33.146 | 2 |
| 2025-04-16T23:14:00 | 54.685333 | 7.291856 | 2.0 | 8.796 | 2 | 35.335 | 8.958 | 33.140 | 2 |
| 2025-04-16T23:15:00 | 54.684724 | 7.290031 | 2.0 | 8.815 | 2 | 35.339 | 8.964 | 33.139 | 2 |
| 2025-04-16T23:16:00 | 54.683997 | 7.288265 | 2.0 | 8.835 | 2 | 35.352 | 8.984 | 33.134 | 2 |
| 2025-04-16T23:17:00 | 54.683185 | 7.286525 | 2.0 | 8.838 | 2 | 35.377 | 9.001 | 33.144 | 2 |
| 2025-04-16T23:18:00 | 54.682412 | 7.284714 | 2.0 | 8.830 | 2 | 35.385 | 9.004 | 33.149 | 2 |
| 2025-04-16T23:19:00 | 54.681605 | 7.282909 | 2.0 | 8.814 | 2 | 35.386 | 8.993 | 33.161 | 2 |
| 2025-04-16T23:20:00 | 54.680811 | 7.281129 | 2.0 | 8.805 | 2 | 35.379 | 8.979 | 33.167 | 2 |
| 2025-04-16T23:21:00 | 54.680052 | 7.279358 | 2.0 | 8.809 | 2 | 35.387 | 8.972 | 33.181 | 2 |
| 2025-04-16T23:22:00 | 54.679306 | 7.277608 | 2.0 | 8.830 | 2 | 35.389 | 8.978 | 33.178 | 2 |
| 2025-04-16T23:23:00 | 54.678599 | 7.275851 | 2.0 | 8.852 | 2 | 35.402 | 8.998 | 33.173 | 2 |
| 2025-04-16T23:24:00 | 54.677922 | 7.274101 | 2.0 | 8.883 | 2 | 35.418 | 9.022 | 33.167 | 2 |
| 2025-04-16T23:25:00 | 54.677187 | 7.272445 | 2.0 | 8.915 | 2 | 35.444 | 9.052 | 33.166 | 2 |
| 2025-04-16T23:26:00 | 54.676441 | 7.270799 | 2.0 | 8.948 | 2 | 35.470 | 9.085 | 33.162 | 2 |
| 2025-04-16T23:27:00 | 54.675736 | 7.269123 | 2.0 | 8.968 | 2 | 35.491 | 9.115 | 33.156 | 2 |
| 2025-04-16T23:28:00 | 54.675042 | 7.267447 | 2.0 | 8.989 | 2 | 35.505 | 9.136 | 33.151 | 2 |
| 2025-04-16T23:29:00 | 54.674316 | 7.265783 | 2.0 | 9.000 | 2 | 35.516 | 9.154 | 33.146 | 2 |
| 2025-04-16T23:30:00 | 54.673575 | 7.264116 | 2.0 | 9.008 | 2 | 35.517 | 9.165 | 33.137 | 2 |
| 2025-04-16T23:31:00 | 54.672840 | 7.262455 | 2.0 | 9.016 | 2 | 35.514 | 9.173 | 33.126 | 2 |
| 2025-04-16T23:32:00 | 54.672111 | 7.260780 | 2.0 | 9.023 | 2 | 35.515 | 9.182 | 33.119 | 2 |
| 2025-04-16T23:33:00 | 54.671382 | 7.259083 | 2.0 | 9.026 | 2 | 35.510 | 9.187 | 33.109 | 2 |
| 2025-04-16T23:34:00 | 54.670654 | 7.257377 | 2.0 | 9.033 | 2 | 35.502 | 9.192 | 33.096 | 2 |
| 2025-04-16T23:35:00 | 54.669915 | 7.255666 | 2.0 | 9.038 | 2 | 35.499 | 9.198 | 33.087 | 2 |
| 2025-04-16T23:36:00 | 54.669168 | 7.253976 | 2.0 | 9.023 | 2 | 35.494 | 9.200 | 33.080 | 2 |
| 2025-04-16T23:37:00 | 54.668400 | 7.252303 | 2.0 | 9.015 | 2 | 35.468 | 9.187 | 33.065 | 2 |
| 2025-04-16T23:38:00 | 54.667668 | 7.250592 | 2.0 | 9.007 | 2 | 35.453 | 9.179 | 33.057 | 2 |
| 2025-04-16T23:39:00 | 54.666952 | 7.248867 | 2.0 | 9.002 | 2 | 35.442 | 9.172 | 33.052 | 2 |
| 2025-04-16T23:40:00 | 54.666264 | 7.247128 | 2.0 | 9.006 | 2 | 35.437 | 9.168 | 33.051 | 2 |
| 2025-04-16T23:41:00 | 54.665877 | 7.245189 | 2.0 | 8.999 | 2 | 35.439 | 9.171 | 33.050 | 2 |
| 2025-04-16T23:42:00 | 54.665782 | 7.243134 | 2.0 | 8.972 | 2 | 35.430 | 9.160 | 33.051 | 2 |
| 2025-04-16T23:43:00 | 54.665235 | 7.241239 | 2.0 | 8.950 | 2 | 35.412 | 9.135 | 33.056 | 2 |
| 2025-04-16T23:44:00 | 54.663984 | 7.240668 | 2.0 | 8.955 | 2 | 35.393 | 9.116 | 33.054 | 2 |
| 2025-04-16T23:45:00 | 54.662908 | 7.241924 | 2.0 | 8.967 | 2 | 35.396 | 9.123 | 33.050 | 2 |
| 2025-04-16T23:46:00 | 54.662788 | 7.243898 | 2.0 | 8.970 | 2 | 35.400 | 9.132 | 33.046 | 2 |
| 2025-04-16T23:47:00 | 54.663532 | 7.245268 | 2.0 | 8.974 | 2 | 35.398 | 9.134 | 33.042 | 2 |
| 2025-04-16T23:48:00 | 54.664656 | 7.246486 | 2.0 | 8.993 | 2 | 35.405 | 9.143 | 33.041 | 2 |
| 2025-04-16T23:49:00 | 54.665605 | 7.248102 | 2.0 | 9.003 | 2 | 35.420 | 9.156 | 33.044 | 2 |
| 2025-04-16T23:50:00 | 54.666453 | 7.249886 | 2.0 | 9.004 | 2 | 35.434 | 9.167 | 33.049 | 2 |
| 2025-04-16T23:51:00 | 54.667301 | 7.251641 | 2.0 | 9.005 | 2 | 35.440 | 9.169 | 33.053 | 2 |
| 2025-04-16T23:52:00 | 54.668084 | 7.253460 | 2.0 | 9.014 | 2 | 35.441 | 9.172 | 33.051 | 2 |
| 2025-04-16T23:53:00 | 54.668877 | 7.255220 | 2.0 | 9.017 | 2 | 35.452 | 9.179 | 33.056 | 2 |
| 2025-04-16T23:54:00 | 54.669661 | 7.256973 | 2.0 | 9.022 | 2 | 35.462 | 9.183 | 33.063 | 2 |
| 2025-04-16T23:55:00 | 54.670438 | 7.258737 | 2.0 | 9.027 | 2 | 35.473 | 9.187 | 33.071 | 2 |
| 2025-04-16T23:56:00 | 54.671206 | 7.260519 | 2.0 | 9.022 | 2 | 35.487 | 9.192 | 33.081 | 2 |
| 2025-04-16T23:57:00 | 54.671961 | 7.262305 | 2.0 | 9.021 | 2 | 35.486 | 9.186 | 33.085 | 2 |
| 2025-04-16T23:58:00 | 54.672753 | 7.264020 | 2.0 | 9.018 | 2 | 35.502 | 9.185 | 33.103 | 2 |
| 2025-04-16T23:59:00 | 54.673535 | 7.265758 | 2.0 | 9.011 | 2 | 35.510 | 9.183 | 33.113 | 2 |
| 2025-04-17T00:00:00 | 54.674293 | 7.267536 | 2.0 | 9.004 | 2 | 35.512 | 9.175 | 33.122 | 2 |
| 2025-04-17T00:01:00 | 54.675059 | 7.269311 | 2.0 | 8.995 | 2 | 35.516 | 9.169 | 33.132 | 2 |
| 2025-04-17T00:02:00 | 54.675824 | 7.271077 | 2.0 | 8.987 | 2 | 35.513 | 9.158 | 33.139 | 2 |
| 2025-04-17T00:03:00 | 54.676605 | 7.272821 | 2.0 | 8.979 | 2 | 35.521 | 9.152 | 33.153 | 2 |
| 2025-04-17T00:04:00 | 54.677377 | 7.274587 | 2.0 | 8.970 | 2 | 35.520 | 9.144 | 33.159 | 2 |
| 2025-04-17T00:05:00 | 54.678140 | 7.276370 | 2.0 | 8.942 | 2 | 35.514 | 9.132 | 33.164 | 2 |
| 2025-04-17T00:06:00 | 54.678910 | 7.278108 | 2.0 | 8.901 | 2 | 35.493 | 9.104 | 33.169 | 2 |
| 2025-04-17T00:07:00 | 54.679688 | 7.279824 | 2.0 | 8.854 | 2 | 35.450 | 9.061 | 33.164 | 2 |
| 2025-04-17T00:08:00 | 54.680467 | 7.281526 | 2.0 | 8.843 | 2 | 35.407 | 9.020 | 33.157 | 2 |
| 2025-04-17T00:09:00 | 54.681225 | 7.283251 | 2.0 | 8.854 | 2 | 35.398 | 9.015 | 33.153 | 2 |
| 2025-04-17T00:10:00 | 54.681956 | 7.285013 | 2.0 | 8.842 | 2 | 35.408 | 9.020 | 33.158 | 2 |
| 2025-04-17T00:11:00 | 54.682703 | 7.286745 | 2.0 | 8.823 | 2 | 35.403 | 9.006 | 33.166 | 2 |
| 2025-04-17T00:12:00 | 54.683473 | 7.288439 | 2.0 | 8.811 | 2 | 35.381 | 8.988 | 33.160 | 2 |
| 2025-04-17T00:13:00 | 54.684261 | 7.290094 | 2.0 | 8.817 | 2 | 35.367 | 8.979 | 33.154 | 2 |
| 2025-04-17T00:14:00 | 54.685045 | 7.291739 | 2.0 | 8.834 | 2 | 35.373 | 8.987 | 33.153 | 2 |
| 2025-04-17T00:15:00 | 54.685943 | 7.293052 | 2.0 | 8.857 | 2 | 35.380 | 9.003 | 33.145 | 2 |
| 2025-04-17T00:16:00 | 54.687064 | 7.293942 | 2.0 | 8.861 | 2 | 35.394 | 9.023 | 33.141 | 2 |
| 2025-04-17T00:17:00 | 54.688207 | 7.294893 | 2.0 | 8.841 | 2 | 35.397 | 9.024 | 33.143 | 2 |
| 2025-04-17T00:18:00 | 54.688826 | 7.296823 | 2.0 | 8.815 | 2 | 35.377 | 9.001 | 33.144 | 2 |
| 2025-04-17T00:19:00 | 54.688408 | 7.299001 | 2.0 | 8.811 | 2 | 35.354 | 8.980 | 33.140 | 2 |
| 2025-04-17T00:20:00 | 54.687219 | 7.299676 | 2.0 | 8.832 | 2 | 35.352 | 8.981 | 33.137 | 2 |
| 2025-04-17T00:21:00 | 54.686395 | 7.298467 | 2.0 | 8.857 | 2 | 35.371 | 9.001 | 33.138 | 2 |
| 2025-04-17T00:22:00 | 54.685896 | 7.296565 | 2.0 | 8.864 | 2 | 35.394 | 9.025 | 33.139 | 2 |
| 2025-04-17T00:23:00 | 54.685197 | 7.294813 | 2.0 | 8.837 | 2 | 35.401 | 9.030 | 33.142 | 2 |
| 2025-04-17T00:24:00 | 54.684519 | 7.293064 | 2.0 | 8.835 | 2 | 35.382 | 9.000 | 33.150 | 2 |
| 2025-04-17T00:25:00 | 54.683857 | 7.291314 | 2.0 | 8.809 | 2 | 35.380 | 8.996 | 33.152 | 2 |
| 2025-04-17T00:26:00 | 54.683097 | 7.289574 | 2.0 | 8.810 | 2 | 35.356 | 8.975 | 33.146 | 2 |
| 2025-04-17T00:27:00 | 54.682338 | 7.287753 | 2.0 | 8.833 | 2 | 35.362 | 8.981 | 33.147 | 2 |
| 2025-04-17T00:28:00 | 54.681585 | 7.285972 | 2.0 | 8.860 | 2 | 35.384 | 9.004 | 33.148 | 2 |
| 2025-04-17T00:29:00 | 54.680830 | 7.284275 | 2.0 | 8.877 | 2 | 35.401 | 9.029 | 33.143 | 2 |
| 2025-04-17T00:30:00 | 54.680085 | 7.282594 | 2.0 | 8.834 | 2 | 35.417 | 9.036 | 33.153 | 2 |
| 2025-04-17T00:31:00 | 54.679336 | 7.280922 | 2.0 | 8.840 | 2 | 35.379 | 9.000 | 33.147 | 2 |
| 2025-04-17T00:32:00 | 54.678613 | 7.279239 | 2.0 | 8.903 | 2 | 35.396 | 9.016 | 33.150 | 2 |
| 2025-04-17T00:33:00 | 54.677882 | 7.277542 | 2.0 | 8.941 | 2 | 35.457 | 9.077 | 33.156 | 2 |
| 2025-04-17T00:34:00 | 54.677146 | 7.275844 | 2.0 | 8.955 | 2 | 35.483 | 9.106 | 33.156 | 2 |
| 2025-04-17T00:35:00 | 54.676411 | 7.274155 | 2.0 | 8.960 | 2 | 35.506 | 9.123 | 33.164 | 2 |
| 2025-04-17T00:36:00 | 54.675673 | 7.272479 | 2.0 | 8.976 | 2 | 35.504 | 9.125 | 33.160 | 2 |
| 2025-04-17T00:37:00 | 54.674938 | 7.270805 | 2.0 | 8.991 | 2 | 35.513 | 9.143 | 33.153 | 2 |
| 2025-04-17T00:38:00 | 54.674209 | 7.269135 | 2.0 | 9.005 | 2 | 35.518 | 9.159 | 33.143 | 2 |
| 2025-04-17T00:39:00 | 54.673489 | 7.267452 | 2.0 | 9.006 | 2 | 35.479 | 9.169 | 33.094 | 2 |
| 2025-04-17T00:40:00 | 54.672763 | 7.265760 | 2.0 | 9.008 | 2 | 35.513 | 9.171 | 33.127 | 2 |
| 2025-04-17T00:41:00 | 54.672036 | 7.264072 | 2.0 | 9.008 | 2 | 35.504 | 9.172 | 33.117 | 2 |
| 2025-04-17T00:42:00 | 54.671299 | 7.262416 | 2.0 | 9.015 | 2 | 35.495 | 9.175 | 33.105 | 2 |
| 2025-04-17T00:43:00 | 54.670584 | 7.260766 | 2.0 | 9.018 | 2 | 35.484 | 9.180 | 33.089 | 2 |
| 2025-04-17T00:44:00 | 54.669873 | 7.259159 | 2.0 | 9.015 | 2 | 35.480 | 9.182 | 33.083 | 2 |
| 2025-04-17T00:45:00 | 54.669150 | 7.257567 | 2.0 | 9.013 | 2 | 35.473 | 9.181 | 33.076 | 2 |
| 2025-04-17T00:46:00 | 54.668430 | 7.255949 | 2.0 | 8.985 | 2 | 35.454 | 9.172 | 33.065 | 2 |
| 2025-04-17T00:47:00 | 54.667706 | 7.254317 | 2.0 | 8.948 | 2 | 35.410 | 9.144 | 33.045 | 2 |
| 2025-04-17T00:48:00 | 54.666988 | 7.252669 | 2.0 | 8.936 | 2 | 35.367 | 9.112 | 33.030 | 2 |
| 2025-04-17T00:49:00 | 54.666274 | 7.250992 | 2.0 | 8.918 | 2 | 35.371 | 9.103 | 33.043 | 2 |
| 2025-04-17T00:50:00 | 54.665556 | 7.249361 | 2.0 | 8.865 | 2 | 35.345 | 9.077 | 33.040 | 2 |
| 2025-04-17T00:51:00 | 54.664874 | 7.247706 | 2.0 | 8.872 | 2 | 35.287 | 9.030 | 33.023 | 2 |
| 2025-04-17T00:52:00 | 54.664604 | 7.245724 | 2.0 | 8.879 | 2 | 35.341 | 9.042 | 33.068 | 2 |
| 2025-04-17T00:53:00 | 54.664695 | 7.243588 | 2.0 | 8.873 | 2 | 35.358 | 9.044 | 33.084 | 2 |
| 2025-04-17T00:54:00 | 54.664527 | 7.241475 | 2.0 | 8.863 | 2 | 35.355 | 9.035 | 33.089 | 2 |
| 2025-04-17T00:55:00 | 54.663554 | 7.240298 | 2.0 | 8.868 | 2 | 35.351 | 9.032 | 33.088 | 2 |
| 2025-04-17T00:56:00 | 54.662445 | 7.240978 | 2.0 | 8.877 | 2 | 35.347 | 9.033 | 33.083 | 2 |
| 2025-04-17T00:57:00 | 54.662068 | 7.242889 | 2.0 | 8.879 | 2 | 35.352 | 9.040 | 33.082 | 2 |
| 2025-04-17T00:58:00 | 54.662640 | 7.244710 | 2.0 | 8.893 | 2 | 35.354 | 9.047 | 33.077 | 2 |
| 2025-04-17T00:59:00 | 54.663525 | 7.246395 | 2.0 | 8.891 | 2 | 35.358 | 9.060 | 33.069 | 2 |
| 2025-04-17T01:00:00 | 54.664268 | 7.248233 | 2.0 | 8.870 | 2 | 35.345 | 9.049 | 33.066 | 2 |
| 2025-04-17T01:01:00 | 54.664998 | 7.250035 | 2.0 | 8.879 | 2 | 35.335 | 9.040 | 33.064 | 2 |
| 2025-04-17T01:02:00 | 54.665762 | 7.251751 | 2.0 | 8.911 | 2 | 35.328 | 9.051 | 33.046 | 2 |
| 2025-04-17T01:03:00 | 54.666526 | 7.253451 | 2.0 | 8.934 | 2 | 35.348 | 9.082 | 33.038 | 2 |
| 2025-04-17T01:04:00 | 54.667264 | 7.255171 | 2.0 | 8.938 | 2 | 35.355 | 9.098 | 33.031 | 2 |
| 2025-04-17T01:05:00 | 54.668015 | 7.256865 | 2.0 | 8.981 | 2 | 35.361 | 9.112 | 33.024 | 2 |
| 2025-04-17T01:06:00 | 54.668784 | 7.258519 | 2.0 | 9.006 | 2 | 35.416 | 9.149 | 33.047 | 2 |
| 2025-04-17T01:07:00 | 54.669531 | 7.260187 | 2.0 | 9.010 | 2 | 35.452 | 9.169 | 33.066 | 2 |
| 2025-04-17T01:08:00 | 54.670255 | 7.261878 | 2.0 | 9.007 | 2 | 35.468 | 9.174 | 33.078 | 2 |
| 2025-04-17T01:09:00 | 54.670981 | 7.263544 | 2.0 | 8.990 | 2 | 35.464 | 9.166 | 33.081 | 2 |
| 2025-04-17T01:10:00 | 54.671700 | 7.265201 | 2.0 | 8.985 | 2 | 35.459 | 9.159 | 33.082 | 2 |
| 2025-04-17T01:11:00 | 54.672418 | 7.266854 | 2.0 | 8.991 | 2 | 35.464 | 9.150 | 33.096 | 2 |
| 2025-04-17T01:12:00 | 54.673153 | 7.268489 | 2.0 | 8.997 | 2 | 35.490 | 9.157 | 33.116 | 2 |
| 2025-04-17T01:13:00 | 54.673882 | 7.270129 | 2.0 | 8.987 | 2 | 35.512 | 9.162 | 33.134 | 2 |
| 2025-04-17T01:14:00 | 54.674594 | 7.271785 | 2.0 | 8.963 | 2 | 35.506 | 9.148 | 33.141 | 2 |
| 2025-04-17T01:15:00 | 54.675306 | 7.273448 | 2.0 | 8.938 | 2 | 35.486 | 9.124 | 33.143 | 2 |
| 2025-04-17T01:16:00 | 54.676032 | 7.275081 | 2.0 | 8.928 | 2 | 35.458 | 9.100 | 33.136 | 2 |
| 2025-04-17T01:17:00 | 54.676764 | 7.276712 | 2.0 | 8.931 | 2 | 35.452 | 9.097 | 33.132 | 2 |
| 2025-04-17T01:18:00 | 54.677484 | 7.278351 | 2.0 | 8.906 | 2 | 35.460 | 9.096 | 33.142 | 2 |
| 2025-04-17T01:19:00 | 54.678204 | 7.279994 | 2.0 | 8.851 | 2 | 35.437 | 9.062 | 33.149 | 2 |
| 2025-04-17T01:20:00 | 54.678924 | 7.281631 | 2.0 | 8.825 | 2 | 35.393 | 9.015 | 33.148 | 2 |
| 2025-04-17T01:21:00 | 54.679647 | 7.283277 | 2.0 | 8.834 | 2 | 35.367 | 8.995 | 33.139 | 2 |
| 2025-04-17T01:22:00 | 54.680365 | 7.284929 | 2.0 | 8.851 | 2 | 35.372 | 9.008 | 33.132 | 2 |
| 2025-04-17T01:23:00 | 54.681075 | 7.286580 | 2.0 | 8.830 | 2 | 35.379 | 9.012 | 33.136 | 2 |
| 2025-04-17T01:24:00 | 54.681786 | 7.288199 | 2.0 | 8.812 | 2 | 35.353 | 8.994 | 33.125 | 2 |
| 2025-04-17T01:25:00 | 54.682510 | 7.289780 | 2.0 | 8.806 | 2 | 35.332 | 8.978 | 33.118 | 2 |
| 2025-04-17T01:26:00 | 54.683227 | 7.291361 | 2.0 | 8.826 | 2 | 35.347 | 8.977 | 33.135 | 2 |
| 2025-04-17T01:27:00 | 54.683937 | 7.292964 | 2.0 | 8.836 | 2 | 35.375 | 8.994 | 33.148 | 2 |
| 2025-04-17T01:28:00 | 54.684751 | 7.294361 | 2.0 | 8.852 | 2 | 35.375 | 9.005 | 33.138 | 2 |
| 2025-04-17T01:29:00 | 54.685699 | 7.295466 | 2.0 | 8.836 | 2 | 35.385 | 9.014 | 33.140 | 2 |
| 2025-04-17T01:30:00 | 54.686721 | 7.296471 | 2.0 | 8.818 | 2 | 35.369 | 8.996 | 33.140 | 2 |
| 2025-04-17T01:31:00 | 54.687615 | 7.297807 | 2.0 | 8.825 | 2 | 35.351 | 8.985 | 33.132 | 2 |
| 2025-04-17T01:32:00 | 54.687543 | 7.299604 | 2.0 | 8.813 | 2 | 35.359 | 8.987 | 33.138 | 2 |
| 2025-04-17T01:33:00 | 54.686615 | 7.300342 | 2.0 | 8.811 | 2 | 35.349 | 8.977 | 33.137 | 2 |
| 2025-04-17T01:34:00 | 54.685676 | 7.299289 | 2.0 | 8.800 | 2 | 35.344 | 8.974 | 33.135 | 2 |
| 2025-04-17T01:35:00 | 54.685019 | 7.297502 | 2.0 | 8.819 | 2 | 35.334 | 8.969 | 33.129 | 2 |
| 2025-04-17T01:36:00 | 54.684254 | 7.295756 | 2.0 | 8.853 | 2 | 35.354 | 8.993 | 33.127 | 2 |
| 2025-04-17T01:37:00 | 54.683473 | 7.293965 | 2.0 | 8.835 | 2 | 35.386 | 9.013 | 33.142 | 2 |
| 2025-04-17T01:38:00 | 54.682718 | 7.292193 | 2.0 | 8.823 | 2 | 35.386 | 9.002 | 33.152 | 2 |
| 2025-04-17T01:39:00 | 54.681980 | 7.290453 | 2.0 | 8.806 | 2 | 35.377 | 8.986 | 33.158 | 2 |
| 2025-04-17T01:40:00 | 54.681240 | 7.288751 | 2.0 | 8.807 | 2 | 35.360 | 8.972 | 33.153 | 2 |
| 2025-04-17T01:41:00 | 54.680499 | 7.287095 | 2.0 | 8.829 | 2 | 35.351 | 8.978 | 33.138 | 2 |
| 2025-04-17T01:42:00 | 54.679755 | 7.285437 | 2.0 | 8.847 | 2 | 35.365 | 8.997 | 33.135 | 2 |
| 2025-04-17T01:43:00 | 54.679023 | 7.283815 | 2.0 | 8.853 | 2 | 35.378 | 9.013 | 33.134 | 2 |
| 2025-04-17T01:44:00 | 54.678314 | 7.282208 | 2.0 | 8.830 | 2 | 35.386 | 9.017 | 33.138 | 2 |
| 2025-04-17T01:45:00 | 54.677611 | 7.280593 | 2.0 | 8.833 | 2 | 35.368 | 8.995 | 33.140 | 2 |
| 2025-04-17T01:46:00 | 54.676919 | 7.278995 | 2.0 | 8.867 | 2 | 35.380 | 9.004 | 33.144 | 2 |
| 2025-04-17T01:47:00 | 54.676217 | 7.277385 | 2.0 | 8.900 | 2 | 35.420 | 9.041 | 33.151 | 2 |
| 2025-04-17T01:48:00 | 54.675492 | 7.275704 | 2.0 | 8.928 | 2 | 35.442 | 9.071 | 33.146 | 2 |
| 2025-04-17T01:49:00 | 54.674747 | 7.273967 | 2.0 | 8.929 | 2 | 35.460 | 9.092 | 33.145 | 2 |
| 2025-04-17T01:50:00 | 54.674004 | 7.272227 | 2.0 | 8.926 | 2 | 35.455 | 9.090 | 33.142 | 2 |
| 2025-04-17T01:51:00 | 54.673265 | 7.270485 | 2.0 | 8.963 | 2 | 35.443 | 9.099 | 33.121 | 2 |
| 2025-04-17T01:52:00 | 54.672534 | 7.268755 | 2.0 | 8.991 | 2 | 35.489 | 9.132 | 33.138 | 2 |
| 2025-04-17T01:53:00 | 54.671802 | 7.267054 | 2.0 | 8.992 | 2 | 35.507 | 9.155 | 33.136 | 2 |
| 2025-04-17T01:54:00 | 54.671067 | 7.265391 | 2.0 | 8.979 | 2 | 35.491 | 9.154 | 33.120 | 2 |
| 2025-04-17T01:55:00 | 54.670323 | 7.263720 | 2.0 | 8.968 | 2 | 35.461 | 9.142 | 33.100 | 2 |
| 2025-04-17T01:56:00 | 54.669578 | 7.262022 | 2.0 | 8.984 | 2 | 35.440 | 9.136 | 33.084 | 2 |
| 2025-04-17T01:57:00 | 54.668819 | 7.260273 | 2.0 | 8.997 | 2 | 35.449 | 9.152 | 33.078 | 2 |
| 2025-04-17T01:58:00 | 54.668063 | 7.258545 | 2.0 | 9.000 | 2 | 35.453 | 9.162 | 33.073 | 2 |
| 2025-04-17T01:59:00 | 54.667315 | 7.256828 | 2.0 | 8.992 | 2 | 35.445 | 9.162 | 33.065 | 2 |
| 2025-04-17T02:00:00 | 54.666582 | 7.255118 | 2.0 | 8.945 | 2 | 35.374 | 9.149 | 33.003 | 2 |
| 2025-04-17T02:01:00 | 54.665838 | 7.253385 | 2.0 | 8.945 | 2 | 35.134 | 9.112 | 32.789 | 2 |
| 2025-04-17T02:02:00 | 54.665109 | 7.251638 | 2.0 | 8.922 | 2 | 35.379 | 9.109 | 33.046 | 2 |
| 2025-04-17T02:03:00 | 54.664449 | 7.249807 | 2.0 | 8.889 | 2 | 35.364 | 9.082 | 33.055 | 2 |
| 2025-04-17T02:04:00 | 54.664282 | 7.247776 | 2.0 | 8.874 | 2 | 35.265 | 9.053 | 32.979 | 2 |
| 2025-04-17T02:05:00 | 54.664355 | 7.245770 | 2.0 | 8.858 | 2 | 35.307 | 9.039 | 33.036 | 2 |
| 2025-04-17T02:06:00 | 54.664103 | 7.243888 | 2.0 | 8.847 | 2 | 35.292 | 9.022 | 33.036 | 2 |
| 2025-04-17T02:07:00 | 54.663384 | 7.242764 | 2.0 | 8.876 | 2 | 34.841 | 9.022 | 32.567 | 2 |
| 2025-04-17T02:08:00 | 54.662482 | 7.242741 | 2.0 | 8.867 | 2 | 34.754 | 9.039 | 32.461 | 2 |
| 2025-04-17T02:09:00 | 54.661746 | 7.243854 | 2.0 | 8.866 | 2 | 35.040 | 9.032 | 32.765 | 2 |
| 2025-04-17T02:10:00 | 54.661518 | 7.245715 | 2.0 | 8.896 | 2 | 35.000 | 9.038 | 32.718 | 2 |
| 2025-04-17T02:11:00 | 54.662040 | 7.247424 | 2.0 | 8.889 | 2 | 35.114 | 9.062 | 32.814 | 2 |
| 2025-04-17T02:12:00 | 54.662870 | 7.248871 | 2.0 | 8.849 | 2 | 35.315 | 9.038 | 33.045 | 2 |
| 2025-04-17T02:13:00 | 54.663646 | 7.250525 | 2.0 | 8.901 | 2 | 34.919 | 9.027 | 32.644 | 2 |
| 2025-04-17T02:14:00 | 54.664415 | 7.252256 | 2.0 | 8.938 | 2 | 35.189 | 9.077 | 32.878 | 2 |
| 2025-04-17T02:15:00 | 54.665211 | 7.253906 | 2.0 | 8.943 | 2 | 34.971 | 9.100 | 32.631 | 2 |
| 2025-04-17T02:16:00 | 54.665979 | 7.255549 | 2.0 | 8.971 | 2 | 35.131 | 9.112 | 32.785 | 2 |
| 2025-04-17T02:17:00 | 54.666710 | 7.257220 | 2.0 | 8.987 | 2 | 34.992 | 9.139 | 32.617 | 2 |
| 2025-04-17T02:18:00 | 54.667415 | 7.258916 | 2.0 | 8.999 | 2 | 35.031 | 9.152 | 32.645 | 2 |
| 2025-04-17T02:19:00 | 54.668125 | 7.260603 | 2.0 | 9.002 | 2 | 35.124 | 9.163 | 32.731 | 2 |
| 2025-04-17T02:20:00 | 54.668850 | 7.262273 | 2.0 | 8.984 | 2 | 35.222 | 9.159 | 32.836 | 2 |
| 2025-04-17T02:21:00 | 54.669579 | 7.263923 | 2.0 | 8.989 | 2 | 35.274 | 9.151 | 32.898 | 2 |
| 2025-04-17T02:22:00 | 54.670326 | 7.265561 | 2.0 | 8.983 | 2 | 35.307 | 9.156 | 32.927 | 2 |
| 2025-04-17T02:23:00 | 54.671058 | 7.267198 | 2.0 | 8.958 | 2 | 35.121 | 9.144 | 32.746 | 2 |
| 2025-04-17T02:24:00 | 54.671765 | 7.268856 | 2.0 | 8.931 | 2 | 35.258 | 9.119 | 32.911 | 2 |
| 2025-04-17T02:25:00 | 54.672457 | 7.270514 | 2.0 | 8.922 | 2 | 35.204 | 9.095 | 32.877 | 2 |
| 2025-04-17T02:26:00 | 54.673161 | 7.272156 | 2.0 | 8.907 | 2 | 35.155 | 9.084 | 32.836 | 2 |
| 2025-04-17T02:27:00 | 54.673884 | 7.273786 | 2.0 | 8.910 | 2 | 35.284 | 9.075 | 32.978 | 2 |
| 2025-04-17T02:28:00 | 54.674611 | 7.275419 | 2.0 | 8.890 | 2 | 35.377 | 9.076 | 33.074 | 2 |
| 2025-04-17T02:29:00 | 54.675336 | 7.277053 | 2.0 | 8.835 | 2 | 35.281 | 9.043 | 33.005 | 2 |
| 2025-04-17T02:30:00 | 54.676051 | 7.278694 | 2.0 | 8.837 | 2 | 35.196 | 9.004 | 32.953 | 2 |
| 2025-04-17T02:31:00 | 54.676755 | 7.280342 | 2.0 | 8.835 | 2 | 35.321 | 9.004 | 33.083 | 2 |
| 2025-04-17T02:32:00 | 54.677462 | 7.281966 | 2.0 | 8.844 | 2 | 35.196 | 9.003 | 32.954 | 2 |
| 2025-04-17T02:33:00 | 54.678171 | 7.283578 | 2.0 | 8.809 | 2 | 35.237 | 9.001 | 32.998 | 2 |
| 2025-04-17T02:34:00 | 54.678888 | 7.285168 | 2.0 | 8.792 | 2 | 35.156 | 8.978 | 32.935 | 2 |
| 2025-04-17T02:35:00 | 54.679602 | 7.286754 | 2.0 | 8.803 | 2 | 35.088 | 8.959 | 32.882 | 2 |
| 2025-04-17T02:36:00 | 54.680324 | 7.288323 | 2.0 | 8.827 | 2 | 35.060 | 8.974 | 32.839 | 2 |
| 2025-04-17T02:37:00 | 54.681027 | 7.289916 | 2.0 | 8.839 | 2 | 35.222 | 8.995 | 32.988 | 2 |
| 2025-04-17T02:38:00 | 54.681714 | 7.291520 | 2.0 | 8.858 | 2 | 35.221 | 9.007 | 32.976 | 2 |
| 2025-04-17T02:39:00 | 54.682395 | 7.293126 | 2.0 | 8.858 | 2 | 35.131 | 9.025 | 32.866 | 2 |
| 2025-04-17T02:40:00 | 54.683248 | 7.294438 | 2.0 | 8.748 | 2 | 35.212 | 8.999 | 32.974 | 2 |
| 2025-04-17T02:41:00 | 54.684426 | 7.294934 | 2.0 | 8.745 | 2 | 34.984 | 8.918 | 32.812 | 2 |
| 2025-04-17T02:42:00 | 54.685693 | 7.295356 | 2.0 | 8.762 | 2 | 35.000 | 8.913 | 32.833 | 2 |
| 2025-04-17T02:43:00 | 54.686578 | 7.296667 | 2.0 | 8.772 | 2 | 34.785 | 8.925 | 32.598 | 2 |
| 2025-04-17T02:44:00 | 54.686635 | 7.298493 | 2.0 | 8.766 | 2 | 35.032 | 8.936 | 32.845 | 2 |
| 2025-04-17T02:45:00 | 54.685916 | 7.299915 | 2.0 | 8.764 | 2 | 35.053 | 8.931 | 32.871 | 2 |
| 2025-04-17T02:46:00 | 54.684748 | 7.300158 | 2.0 | 8.778 | 2 | 34.964 | 8.933 | 32.777 | 2 |
| 2025-04-17T02:47:00 | 54.683734 | 7.298965 | 2.0 | 8.796 | 2 | 34.547 | 8.946 | 32.331 | 2 |
| 2025-04-17T02:48:00 | 54.683095 | 7.297075 | 2.0 | 8.801 | 2 | 34.958 | 8.963 | 32.743 | 2 |
| 2025-04-17T02:49:00 | 54.682410 | 7.295288 | 2.0 | 8.785 | 2 | 35.253 | 8.956 | 33.057 | 2 |
| 2025-04-17T02:50:00 | 54.681674 | 7.293497 | 2.0 | 8.778 | 2 | 35.301 | 8.951 | 33.111 | 2 |
| 2025-04-17T02:51:00 | 54.680928 | 7.291731 | 2.0 | 8.821 | 2 | 35.291 | 8.951 | 33.101 | 2 |
| 2025-04-17T02:52:00 | 54.680174 | 7.289993 | 2.0 | 8.843 | 2 | 35.344 | 8.998 | 33.112 | 2 |
| 2025-04-17T02:53:00 | 54.679434 | 7.288318 | 2.0 | 8.826 | 2 | 35.372 | 9.003 | 33.137 | 2 |
| 2025-04-17T02:54:00 | 54.678713 | 7.286668 | 2.0 | 8.803 | 2 | 35.359 | 8.987 | 33.138 | 2 |
| 2025-04-17T02:55:00 | 54.677974 | 7.284995 | 2.0 | 8.791 | 2 | 35.344 | 8.968 | 33.140 | 2 |
| 2025-04-17T02:56:00 | 54.677233 | 7.283312 | 2.0 | 8.787 | 2 | 35.335 | 8.958 | 33.140 | 2 |
| 2025-04-17T02:57:00 | 54.676484 | 7.281612 | 2.0 | 8.798 | 2 | 35.337 | 8.958 | 33.142 | 2 |
| 2025-04-17T02:58:00 | 54.675734 | 7.279916 | 2.0 | 8.811 | 2 | 35.344 | 8.964 | 33.144 | 2 |
| 2025-04-17T02:59:00 | 54.674971 | 7.278217 | 2.0 | 8.808 | 2 | 35.355 | 8.974 | 33.146 | 2 |
| 2025-04-17T03:00:00 | 54.674186 | 7.276459 | 2.0 | 8.821 | 2 | 35.351 | 8.978 | 33.138 | 2 |
| 2025-04-17T03:01:00 | 54.673410 | 7.274712 | 2.0 | 8.873 | 2 | 35.363 | 8.997 | 33.133 | 2 |
| 2025-04-17T03:02:00 | 54.672645 | 7.273007 | 2.0 | 8.901 | 2 | 35.418 | 9.046 | 33.145 | 2 |
| 2025-04-17T03:03:00 | 54.671910 | 7.271305 | 2.0 | 8.903 | 2 | 35.440 | 9.065 | 33.150 | 2 |
| 2025-04-17T03:04:00 | 54.671181 | 7.269559 | 2.0 | 8.931 | 2 | 35.444 | 9.076 | 33.144 | 2 |
| 2025-04-17T03:05:00 | 54.670451 | 7.267814 | 2.0 | 8.946 | 2 | 35.465 | 9.096 | 33.147 | 2 |
| 2025-04-17T03:06:00 | 54.669708 | 7.266083 | 2.0 | 8.950 | 2 | 35.477 | 9.111 | 33.145 | 2 |
| 2025-04-17T03:07:00 | 54.668982 | 7.264419 | 2.0 | 8.954 | 2 | 35.475 | 9.115 | 33.140 | 2 |
| 2025-04-17T03:08:00 | 54.668263 | 7.262752 | 2.0 | 8.971 | 2 | 35.467 | 9.121 | 33.126 | 2 |
| 2025-04-17T03:09:00 | 54.667561 | 7.261152 | 2.0 | 8.983 | 2 | 35.466 | 9.137 | 33.110 | 2 |
| 2025-04-17T03:10:00 | 54.666820 | 7.259528 | 2.0 | 8.994 | 2 | 35.463 | 9.149 | 33.096 | 2 |
| 2025-04-17T03:11:00 | 54.666080 | 7.257906 | 2.0 | 8.996 | 2 | 35.458 | 9.158 | 33.082 | 2 |
| 2025-04-17T03:12:00 | 54.665356 | 7.256347 | 2.0 | 9.003 | 2 | 35.449 | 9.161 | 33.070 | 2 |
| 2025-04-17T03:13:00 | 54.664648 | 7.254679 | 2.0 | 8.999 | 2 | 35.326 | 9.166 | 32.938 | 2 |
| 2025-04-17T03:14:00 | 54.663994 | 7.252917 | 2.0 | 8.996 | 2 | 35.430 | 9.163 | 33.048 | 2 |
| 2025-04-17T03:15:00 | 54.663360 | 7.251201 | 2.0 | 8.993 | 2 | 35.309 | 9.160 | 32.926 | 2 |
| 2025-04-17T03:16:00 | 54.663116 | 7.249155 | 2.0 | 8.986 | 2 | 35.409 | 9.155 | 33.034 | 2 |
| 2025-04-17T03:17:00 | 54.663223 | 7.247000 | 2.0 | 8.977 | 2 | 35.399 | 9.150 | 33.028 | 2 |
| 2025-04-17T03:18:00 | 54.663081 | 7.245027 | 2.0 | 8.975 | 2 | 35.217 | 9.142 | 32.847 | 2 |
| 2025-04-17T03:19:00 | 54.662397 | 7.243791 | 2.0 | 8.971 | 2 | 34.948 | 9.138 | 32.572 | 2 |
| 2025-04-17T03:20:00 | 54.661484 | 7.243758 | 2.0 | 8.966 | 2 | 35.359 | 9.136 | 33.000 | 2 |
| 2025-04-17T03:21:00 | 54.660730 | 7.244828 | 2.0 | 8.961 | 2 | 34.839 | 9.129 | 32.467 | 2 |
| 2025-04-17T03:22:00 | 54.660480 | 7.246530 | 2.0 | 8.967 | 2 | 35.267 | 9.127 | 32.913 | 2 |
| 2025-04-17T03:23:00 | 54.660919 | 7.248022 | 2.0 | 8.970 | 2 | 35.079 | 9.132 | 32.713 | 2 |
| 2025-04-17T03:24:00 | 54.661666 | 7.249254 | 2.0 | 8.978 | 2 | 34.736 | 9.137 | 32.354 | 2 |
| 2025-04-17T03:25:00 | 54.662357 | 7.250769 | 2.0 | 8.988 | 2 | 34.939 | 9.145 | 32.556 | 2 |
| 2025-04-17T03:26:00 | 54.663080 | 7.252402 | 2.0 | 8.995 | 2 | 34.896 | 9.153 | 32.505 | 2 |
| 2025-04-17T03:27:00 | 54.663804 | 7.254042 | 2.0 | 8.996 | 2 | 35.153 | 9.160 | 32.764 | 2 |
| 2025-04-17T03:28:00 | 54.664493 | 7.255711 | 2.0 | 8.992 | 2 | 35.282 | 9.160 | 32.898 | 2 |
| 2025-04-17T03:29:00 | 54.665188 | 7.257345 | 2.0 | 8.993 | 2 | 35.297 | 9.158 | 32.915 | 2 |
| 2025-04-17T03:30:00 | 54.665912 | 7.258951 | 2.0 | 8.993 | 2 | 35.446 | 9.158 | 33.070 | 2 |
| 2025-04-17T03:31:00 | 54.666628 | 7.260535 | 2.0 | 8.989 | 2 | 35.098 | 9.157 | 32.710 | 2 |
| 2025-04-17T03:32:00 | 54.667337 | 7.262128 | 2.0 | 8.975 | 2 | 35.288 | 9.152 | 32.911 | 2 |
| 2025-04-17T03:33:00 | 54.668035 | 7.263713 | 2.0 | 8.964 | 2 | 35.160 | 9.140 | 32.790 | 2 |
| 2025-04-17T03:34:00 | 54.668728 | 7.265305 | 2.0 | 8.949 | 2 | 35.183 | 9.128 | 32.825 | 2 |
| 2025-04-17T03:35:00 | 54.669400 | 7.266918 | 2.0 | 8.920 | 2 | 35.132 | 9.110 | 32.788 | 2 |
| 2025-04-17T03:36:00 | 54.670063 | 7.268533 | 2.0 | 8.904 | 2 | 35.078 | 9.082 | 32.758 | 2 |
| 2025-04-17T03:37:00 | 54.670759 | 7.270094 | 2.0 | 8.854 | 2 | 35.113 | 9.061 | 32.814 | 2 |
| 2025-04-17T03:38:00 | 54.671458 | 7.271651 | 2.0 | 8.840 | 2 | 35.043 | 9.022 | 32.777 | 2 |
| 2025-04-17T03:39:00 | 54.672154 | 7.273195 | 2.0 | 8.775 | 2 | 35.140 | 9.000 | 32.898 | 2 |
| 2025-04-17T03:40:00 | 54.672853 | 7.274730 | 2.0 | 8.771 | 2 | 34.959 | 8.944 | 32.762 | 2 |
| 2025-04-17T03:41:00 | 54.673534 | 7.276289 | 2.0 | 8.761 | 2 | 34.872 | 8.937 | 32.677 | 2 |
| 2025-04-17T03:42:00 | 54.674201 | 7.277869 | 2.0 | 8.768 | 2 | 35.081 | 8.930 | 32.902 | 2 |
| 2025-04-17T03:43:00 | 54.674863 | 7.279457 | 2.0 | 8.769 | 2 | 35.139 | 8.936 | 32.956 | 2 |
| 2025-04-17T03:44:00 | 54.675549 | 7.281027 | 2.0 | 8.760 | 2 | 35.134 | 8.935 | 32.952 | 2 |
| 2025-04-17T03:45:00 | 54.676251 | 7.282576 | 2.0 | 8.728 | 2 | 35.176 | 8.922 | 33.008 | 2 |
| 2025-04-17T03:46:00 | 54.676954 | 7.284131 | 2.0 | 8.707 | 2 | 35.075 | 8.893 | 32.930 | 2 |
| 2025-04-17T03:47:00 | 54.677640 | 7.285703 | 2.0 | 8.695 | 2 | 35.100 | 8.874 | 32.973 | 2 |
| 2025-04-17T03:48:00 | 54.678323 | 7.287277 | 2.0 | 8.664 | 2 | 35.226 | 8.859 | 33.119 | 2 |
| 2025-04-17T03:49:00 | 54.679009 | 7.288853 | 2.0 | 8.586 | 2 | 35.009 | 8.818 | 32.930 | 2 |
| 2025-04-17T03:50:00 | 54.679700 | 7.290418 | 2.0 | 8.522 | 2 | 34.918 | 8.743 | 32.905 | 2 |
| 2025-04-17T03:51:00 | 54.680390 | 7.291975 | 2.0 | 8.450 | 2 | 34.951 | 8.680 | 32.998 | 2 |
| 2025-04-17T03:52:00 | 54.681073 | 7.293532 | 2.0 | 8.426 | 2 | 34.860 | 8.617 | 32.961 | 2 |
| 2025-04-17T03:53:00 | 54.681791 | 7.295040 | 2.0 | 8.441 | 2 | 34.897 | 8.582 | 33.033 | 2 |
| 2025-04-17T03:54:00 | 54.682842 | 7.295837 | 2.0 | 8.469 | 2 | 34.809 | 8.618 | 32.907 | 2 |
| 2025-04-17T03:55:00 | 54.684067 | 7.296153 | 2.0 | 8.386 | 2 | 34.941 | 8.629 | 33.035 | 2 |
| 2025-04-17T03:56:00 | 54.685174 | 7.296893 | 2.0 | 8.300 | 2 | 34.748 | 8.543 | 32.913 | 2 |
| 2025-04-17T03:57:00 | 54.685651 | 7.298423 | 2.0 | 8.242 | 2 | 34.305 | 8.463 | 32.521 | 2 |
| 2025-04-17T03:58:00 | 54.685349 | 7.300127 | 2.0 | 8.213 | 2 | 34.390 | 8.413 | 32.657 | 2 |
| 2025-04-17T03:59:00 | 54.684355 | 7.301210 | 2.0 | 8.201 | 2 | 34.513 | 8.383 | 32.814 | 2 |
| 2025-04-17T04:00:00 | 54.683100 | 7.300836 | 2.0 | 8.239 | 2 | 34.177 | 8.377 | 32.465 | 2 |
| 2025-04-17T04:01:00 | 54.682324 | 7.299029 | 2.0 | 8.309 | 2 | 34.805 | 8.421 | 33.087 | 2 |
| 2025-04-17T04:02:00 | 54.681691 | 7.297048 | 2.0 | 8.380 | 2 | 34.891 | 8.495 | 33.108 | 2 |
| 2025-04-17T04:03:00 | 54.680964 | 7.295370 | 2.0 | 8.398 | 2 | 34.975 | 8.551 | 33.144 | 2 |
| 2025-04-17T04:04:00 | 54.680301 | 7.293680 | 2.0 | 8.397 | 2 | 34.986 | 8.559 | 33.148 | 2 |
| 2025-04-17T04:05:00 | 54.679621 | 7.292124 | 2.0 | 8.407 | 2 | 34.991 | 8.568 | 33.145 | 2 |
| 2025-04-17T04:06:00 | 54.678944 | 7.290565 | 2.0 | 8.401 | 2 | 34.993 | 8.569 | 33.146 | 2 |
| 2025-04-17T04:07:00 | 54.678226 | 7.288881 | 2.0 | 8.403 | 2 | 34.991 | 8.569 | 33.144 | 2 |
| 2025-04-17T04:08:00 | 54.677484 | 7.287172 | 2.0 | 8.406 | 2 | 34.993 | 8.565 | 33.150 | 2 |
| 2025-04-17T04:09:00 | 54.676700 | 7.285428 | 2.0 | 8.457 | 2 | 35.009 | 8.581 | 33.152 | 2 |
| 2025-04-17T04:10:00 | 54.675920 | 7.283728 | 2.0 | 8.561 | 2 | 35.055 | 8.639 | 33.146 | 2 |
| 2025-04-17T04:11:00 | 54.675123 | 7.281929 | 2.0 | 8.618 | 2 | 35.140 | 8.734 | 33.146 | 2 |
| 2025-04-17T04:12:00 | 54.674301 | 7.280102 | 2.0 | 8.660 | 2 | 35.194 | 8.789 | 33.151 | 2 |
| 2025-04-17T04:13:00 | 54.673494 | 7.278297 | 2.0 | 8.690 | 2 | 35.222 | 8.827 | 33.145 | 2 |
| 2025-04-17T04:14:00 | 54.672749 | 7.276552 | 2.0 | 8.755 | 2 | 35.203 | 8.863 | 33.091 | 2 |
| 2025-04-17T04:15:00 | 54.672054 | 7.274939 | 2.0 | 8.803 | 2 | 35.310 | 8.927 | 33.143 | 2 |
| 2025-04-17T04:16:00 | 54.671399 | 7.273484 | 2.0 | 8.817 | 2 | 35.346 | 8.965 | 33.145 | 2 |
| 2025-04-17T04:17:00 | 54.670728 | 7.272004 | 2.0 | 8.827 | 2 | 35.353 | 8.982 | 33.137 | 2 |
| 2025-04-17T04:18:00 | 54.670041 | 7.270504 | 2.0 | 8.868 | 2 | 35.358 | 8.993 | 33.132 | 2 |
| 2025-04-17T04:19:00 | 54.669337 | 7.268951 | 2.0 | 8.911 | 2 | 35.394 | 9.043 | 33.122 | 2 |
| 2025-04-17T04:20:00 | 54.668613 | 7.267308 | 2.0 | 8.936 | 2 | 35.421 | 9.079 | 33.117 | 2 |
| 2025-04-17T04:21:00 | 54.667896 | 7.265604 | 2.0 | 8.937 | 2 | 35.430 | 9.098 | 33.109 | 2 |
| 2025-04-17T04:22:00 | 54.667195 | 7.263938 | 2.0 | 8.950 | 2 | 35.421 | 9.103 | 33.095 | 2 |
| 2025-04-17T04:23:00 | 54.666491 | 7.262291 | 2.0 | 8.965 | 2 | 35.428 | 9.115 | 33.091 | 2 |
| 2025-04-17T04:24:00 | 54.665768 | 7.260657 | 2.0 | 8.986 | 2 | 35.427 | 9.131 | 33.075 | 2 |
| 2025-04-17T04:25:00 | 54.665015 | 7.258975 | 2.0 | 8.983 | 2 | 35.424 | 9.147 | 33.057 | 2 |
| 2025-04-17T04:26:00 | 54.664252 | 7.257302 | 2.0 | 8.986 | 2 | 35.417 | 9.146 | 33.051 | 2 |
| 2025-04-17T04:27:00 | 54.663508 | 7.255573 | 2.0 | 8.998 | 2 | 35.410 | 9.152 | 33.038 | 2 |
| 2025-04-17T04:28:00 | 54.662788 | 7.253757 | 2.0 | 8.997 | 2 | 35.356 | 9.160 | 32.974 | 2 |
| 2025-04-17T04:29:00 | 54.662131 | 7.251848 | 2.0 | 8.996 | 2 | 35.227 | 9.160 | 32.841 | 2 |
| 2025-04-17T04:30:00 | 54.661970 | 7.249666 | 2.0 | 8.998 | 2 | 35.159 | 9.162 | 32.768 | 2 |
| 2025-04-17T04:31:00 | 54.662114 | 7.247457 | 2.0 | 8.998 | 2 | 35.282 | 9.162 | 32.896 | 2 |
| 2025-04-17T04:32:00 | 54.661948 | 7.245434 | 2.0 | 9.015 | 2 | 34.890 | 9.162 | 32.490 | 2 |
| 2025-04-17T04:33:00 | 54.661279 | 7.244314 | 2.0 | 9.023 | 2 | 35.282 | 9.181 | 32.878 | 2 |
| 2025-04-17T04:34:00 | 54.660435 | 7.244429 | 2.0 | 9.035 | 2 | 34.942 | 9.189 | 32.519 | 2 |
| 2025-04-17T04:35:00 | 54.659855 | 7.245585 | 2.0 | 9.041 | 2 | 34.988 | 9.200 | 32.557 | 2 |
| 2025-04-17T04:36:00 | 54.659931 | 7.247219 | 2.0 | 9.023 | 2 | 35.213 | 9.200 | 32.789 | 2 |
| 2025-04-17T04:37:00 | 54.660503 | 7.248869 | 2.0 | 9.013 | 2 | 34.831 | 9.186 | 32.407 | 2 |
| 2025-04-17T04:38:00 | 54.661027 | 7.250658 | 2.0 | 9.009 | 2 | 35.167 | 9.179 | 32.761 | 2 |
| 2025-04-17T04:39:00 | 54.661631 | 7.252393 | 2.0 | 9.006 | 2 | 35.400 | 9.173 | 33.008 | 2 |
| 2025-04-17T04:40:00 | 54.662273 | 7.254099 | 2.0 | 8.996 | 2 | 35.049 | 9.168 | 32.649 | 2 |
| 2025-04-17T04:41:00 | 54.662909 | 7.255826 | 2.0 | 8.994 | 2 | 35.218 | 9.160 | 32.831 | 2 |
| 2025-04-17T04:42:00 | 54.663596 | 7.257485 | 2.0 | 8.990 | 2 | 35.316 | 9.158 | 32.935 | 2 |
| 2025-04-17T04:43:00 | 54.664342 | 7.259086 | 2.0 | 8.986 | 2 | 35.244 | 9.154 | 32.864 | 2 |
| 2025-04-17T04:44:00 | 54.665079 | 7.260710 | 2.0 | 8.978 | 2 | 35.176 | 9.149 | 32.798 | 2 |
| 2025-04-17T04:45:00 | 54.665798 | 7.262352 | 2.0 | 8.974 | 2 | 35.323 | 9.142 | 32.957 | 2 |
| 2025-04-17T04:46:00 | 54.666495 | 7.264018 | 2.0 | 8.948 | 2 | 35.097 | 9.134 | 32.730 | 2 |
| 2025-04-17T04:47:00 | 54.667200 | 7.265685 | 2.0 | 8.928 | 2 | 35.040 | 9.111 | 32.692 | 2 |
| 2025-04-17T04:48:00 | 54.667915 | 7.267345 | 2.0 | 8.907 | 2 | 34.890 | 9.091 | 32.555 | 2 |
| 2025-04-17T04:49:00 | 54.668638 | 7.269003 | 2.0 | 8.864 | 2 | 35.049 | 9.069 | 32.740 | 2 |
| 2025-04-17T04:50:00 | 54.669361 | 7.270663 | 2.0 | 8.810 | 2 | 35.053 | 9.021 | 32.788 | 2 |
| 2025-04-17T04:51:00 | 54.670114 | 7.272302 | 2.0 | 8.777 | 2 | 35.061 | 8.973 | 32.841 | 2 |
| 2025-04-17T04:52:00 | 54.670867 | 7.273948 | 2.0 | 8.718 | 2 | 35.076 | 8.937 | 32.890 | 2 |
| 2025-04-17T04:53:00 | 54.671619 | 7.275617 | 2.0 | 8.691 | 2 | 35.128 | 8.880 | 32.997 | 2 |
| 2025-04-17T04:54:00 | 54.672375 | 7.277292 | 2.0 | 8.696 | 2 | 35.015 | 8.862 | 32.896 | 2 |
| 2025-04-17T04:55:00 | 54.673114 | 7.278993 | 2.0 | 8.699 | 2 | 34.968 | 8.865 | 32.844 | 2 |
| 2025-04-17T04:56:00 | 54.673856 | 7.280700 | 2.0 | 8.681 | 2 | 34.923 | 8.865 | 32.797 | 2 |
| 2025-04-17T04:57:00 | 54.674607 | 7.282413 | 2.0 | 8.623 | 2 | 35.071 | 8.839 | 32.976 | 2 |
| 2025-04-17T04:58:00 | 54.675376 | 7.284129 | 2.0 | 8.452 | 2 | 34.911 | 8.765 | 32.877 | 2 |
| 2025-04-17T04:59:00 | 54.676139 | 7.285850 | 2.0 | 8.316 | 2 | 34.783 | 8.613 | 32.884 | 2 |
| 2025-04-17T05:00:00 | 54.676895 | 7.287576 | 2.0 | 8.242 | 2 | 34.687 | 8.475 | 32.912 | 2 |
| 2025-04-17T05:01:00 | 54.677640 | 7.289313 | 2.0 | 8.198 | 2 | 34.510 | 8.410 | 32.786 | 2 |
| 2025-04-17T05:02:00 | 54.678397 | 7.291037 | 2.0 | 8.162 | 2 | 34.714 | 8.366 | 33.043 | 2 |
| 2025-04-17T05:03:00 | 54.679122 | 7.292741 | 2.0 | 8.145 | 2 | 34.686 | 8.334 | 33.043 | 2 |
| 2025-04-17T05:04:00 | 54.679832 | 7.294424 | 2.0 | 8.117 | 2 | 34.565 | 8.315 | 32.933 | 2 |
| 2025-04-17T05:05:00 | 54.680495 | 7.295966 | 2.0 | 8.089 | 2 | 34.514 | 8.286 | 32.906 | 2 |
| 2025-04-17T05:06:00 | 54.681012 | 7.297326 | 2.0 | 8.086 | 2 | 34.427 | 8.262 | 32.836 | 2 |
| 2025-04-17T05:07:00 | 54.681436 | 7.298506 | 2.0 | 8.075 | 2 | 34.381 | 8.257 | 32.792 | 2 |
| 2025-04-17T05:08:00 | 54.681747 | 7.299626 | 2.0 | 8.073 | 2 | 34.455 | 8.244 | 32.883 | 2 |
| 2025-04-17T05:09:00 | 54.682015 | 7.300957 | 2.0 | 8.073 | 2 | 34.505 | 8.243 | 32.937 | 2 |
| 2025-04-17T05:10:00 | 54.682210 | 7.302360 | 2.0 | 8.070 | 2 | 34.460 | 8.244 | 32.888 | 2 |
| 2025-04-17T05:11:00 | 54.682251 | 7.303591 | 2.0 | 8.062 | 2 | 34.476 | 8.240 | 32.909 | 2 |
| 2025-04-17T05:12:00 | 54.682246 | 7.304579 | 2.0 | 8.061 | 2 | 34.451 | 8.233 | 32.889 | 2 |
| 2025-04-17T05:13:00 | 54.682170 | 7.305357 | 2.0 | 8.062 | 2 | 34.383 | 8.232 | 32.818 | 2 |
| 2025-04-17T05:14:00 | 54.682103 | 7.305986 | 2.0 | 8.075 | 2 | 34.305 | 8.235 | 32.732 | 2 |
| 2025-04-17T05:15:00 | 54.682057 | 7.306495 | 2.0 | 8.077 | 2 | 34.377 | 8.244 | 32.800 | 2 |
| 2025-04-17T05:16:00 | 54.682034 | 7.306839 | 2.0 | 8.075 | 2 | 34.215 | 8.244 | 32.629 | 2 |
| 2025-04-17T05:17:00 | 54.682039 | 7.307021 | 2.0 | 8.073 | 2 | 34.386 | 8.243 | 32.811 | 2 |
| 2025-04-17T05:18:00 | 54.682078 | 7.307105 | 2.0 | 8.067 | 2 | 34.488 | 8.241 | 32.921 | 2 |
| 2025-04-17T05:19:00 | 54.682119 | 7.307189 | 2.0 | 8.063 | 2 | 34.414 | 8.237 | 32.846 | 2 |
| 2025-04-17T05:20:00 | 54.682107 | 7.307194 | 2.0 | 8.063 | 2 | 34.400 | 8.233 | 32.835 | 2 |
| 2025-04-17T05:21:00 | 54.682104 | 7.307160 | 2.0 | 8.061 | 2 | 34.274 | 8.232 | 32.702 | 2 |
| 2025-04-17T05:22:00 | 54.682120 | 7.307117 | 2.0 | 8.066 | 2 | 34.323 | 8.232 | 32.754 | 2 |
| 2025-04-17T05:23:00 | 54.682076 | 7.307391 | 2.0 | 8.061 | 2 | 34.412 | 8.233 | 32.848 | 2 |
| 2025-04-17T05:24:00 | 54.681895 | 7.308284 | 2.0 | 8.065 | 2 | 34.662 | 8.230 | 33.115 | 2 |
| 2025-04-17T05:25:00 | 54.681600 | 7.309702 | 2.0 | 8.057 | 2 | 34.613 | 8.232 | 33.062 | 2 |
| 2025-04-17T05:26:00 | 54.681192 | 7.311654 | 2.0 | 8.045 | 2 | 34.663 | 8.225 | 33.121 | 2 |
| 2025-04-17T05:27:00 | 54.680706 | 7.313982 | 2.0 | 8.023 | 2 | 34.655 | 8.210 | 33.127 | 2 |
| 2025-04-17T05:28:00 | 54.680015 | 7.316974 | 2.0 | 7.998 | 2 | 34.641 | 8.190 | 33.131 | 2 |
| 2025-04-17T05:29:00 | 54.678503 | 7.319911 | 2.0 | 8.002 | 2 | 34.623 | 8.169 | 33.132 | 2 |
| 2025-04-17T05:30:00 | 54.676308 | 7.322197 | 2.0 | 8.003 | 2 | 34.619 | 8.173 | 33.124 | 2 |
| 2025-04-17T05:31:00 | 54.673904 | 7.324518 | 2.0 | 8.190 | 2 | 34.620 | 8.178 | 33.120 | 2 |
| 2025-04-17T05:32:00 | 54.671536 | 7.327053 | 2.0 | 8.681 | 2 | 34.753 | 8.433 | 33.021 | 2 |
| 2025-04-17T05:33:00 | 54.669171 | 7.329588 | 2.0 | 8.943 | 2 | 35.038 | 8.856 | 32.925 | 2 |
| 2025-04-17T05:34:00 | 54.666772 | 7.332050 | 2.0 | 9.010 | 2 | 35.209 | 9.098 | 32.879 | 2 |
| 2025-04-17T05:35:00 | 54.664386 | 7.334544 | 2.0 | 9.073 | 2 | 35.245 | 9.174 | 32.846 | 2 |
| 2025-04-17T05:36:00 | 54.661985 | 7.336976 | 2.0 | 9.146 | 2 | 35.242 | 9.240 | 32.783 | 2 |
| 2025-04-17T05:37:00 | 54.659610 | 7.339477 | 2.0 | 9.168 | 2 | 35.281 | 9.306 | 32.762 | 2 |
| 2025-04-17T05:38:00 | 54.657217 | 7.341932 | 2.0 | 9.169 | 2 | 35.286 | 9.327 | 32.748 | 2 |
| 2025-04-17T05:39:00 | 54.654833 | 7.344404 | 2.0 | 9.166 | 2 | 35.269 | 9.329 | 32.729 | 2 |
| 2025-04-17T05:40:00 | 54.652448 | 7.346876 | 2.0 | 9.112 | 2 | 35.253 | 9.322 | 32.719 | 2 |
| 2025-04-17T05:41:00 | 54.650071 | 7.349385 | 2.0 | 9.067 | 2 | 34.947 | 9.270 | 32.451 | 2 |
| 2025-04-17T05:42:00 | 54.647662 | 7.351926 | 2.0 | 9.057 | 2 | 34.916 | 9.232 | 32.453 | 2 |
| 2025-04-17T05:43:00 | 54.645216 | 7.354386 | 2.0 | 9.062 | 2 | 35.136 | 9.225 | 32.687 | 2 |
| 2025-04-17T05:44:00 | 54.642787 | 7.356964 | 2.0 | 9.074 | 2 | 35.100 | 9.227 | 32.648 | 2 |
| 2025-04-17T05:45:00 | 54.640329 | 7.359473 | 2.0 | 9.108 | 2 | 35.081 | 9.245 | 32.612 | 2 |
| 2025-04-17T05:46:00 | 54.637876 | 7.361991 | 2.0 | 9.112 | 2 | 34.725 | 9.274 | 32.218 | 2 |
| 2025-04-17T05:47:00 | 54.635424 | 7.364546 | 2.0 | 9.101 | 2 | 35.027 | 9.275 | 32.529 | 2 |
| 2025-04-17T05:48:00 | 54.632964 | 7.367107 | 2.0 | 9.056 | 2 | 34.948 | 9.264 | 32.457 | 2 |
| 2025-04-17T05:49:00 | 54.630490 | 7.369667 | 2.0 | 9.001 | 2 | 34.386 | 9.211 | 31.926 | 2 |
| 2025-04-17T05:50:00 | 54.628022 | 7.372238 | 2.0 | 9.005 | 2 | 34.719 | 9.173 | 32.303 | 2 |
| 2025-04-17T05:51:00 | 54.625544 | 7.374769 | 2.0 | 9.016 | 2 | 34.633 | 9.173 | 32.215 | 2 |
| 2025-04-17T05:52:00 | 54.623085 | 7.377365 | 2.0 | 9.055 | 2 | 34.675 | 9.189 | 32.243 | 2 |
| 2025-04-17T05:53:00 | 54.620604 | 7.379919 | 2.0 | 9.091 | 2 | 34.691 | 9.227 | 32.226 | 2 |
| 2025-04-17T05:54:00 | 54.618127 | 7.382461 | 2.0 | 9.104 | 2 | 34.698 | 9.258 | 32.205 | 2 |
| 2025-04-17T05:55:00 | 54.615669 | 7.385057 | 2.0 | 9.105 | 2 | 34.408 | 9.270 | 31.895 | 2 |
| 2025-04-17T05:56:00 | 54.613183 | 7.387565 | 2.0 | 9.117 | 2 | 34.593 | 9.272 | 32.084 | 2 |
| 2025-04-17T05:57:00 | 54.610711 | 7.390117 | 2.0 | 9.130 | 2 | 34.627 | 9.282 | 32.110 | 2 |
| 2025-04-17T05:58:00 | 54.608256 | 7.392733 | 2.0 | 9.130 | 2 | 34.626 | 9.295 | 32.097 | 2 |
| 2025-04-17T05:59:00 | 54.605766 | 7.395239 | 2.0 | 9.133 | 2 | 34.609 | 9.294 | 32.081 | 2 |
| 2025-04-17T06:00:00 | 54.603290 | 7.397816 | 2.0 | 9.130 | 2 | 34.604 | 9.298 | 32.072 | 2 |
| 2025-04-17T06:01:00 | 54.600810 | 7.400400 | 2.0 | 9.143 | 2 | 34.595 | 9.297 | 32.064 | 2 |
| 2025-04-17T06:02:00 | 54.598310 | 7.402972 | 2.0 | 9.141 | 2 | 34.599 | 9.310 | 32.056 | 2 |
| 2025-04-17T06:03:00 | 54.595827 | 7.405566 | 2.0 | 9.129 | 2 | 34.574 | 9.304 | 32.036 | 2 |
| 2025-04-17T06:04:00 | 54.593330 | 7.408096 | 2.0 | 9.114 | 2 | 34.522 | 9.291 | 31.994 | 2 |
| 2025-04-17T06:05:00 | 54.590987 | 7.410936 | 2.0 | 9.123 | 2 | 34.469 | 9.281 | 31.948 | 2 |
| 2025-04-17T06:06:00 | 54.588673 | 7.413869 | 2.0 | 9.135 | 2 | 34.471 | 9.290 | 31.942 | 2 |
| 2025-04-17T06:07:00 | 54.586345 | 7.416768 | 2.0 | 9.152 | 2 | 34.487 | 9.304 | 31.946 | 2 |
| 2025-04-17T06:08:00 | 54.583985 | 7.419639 | 2.0 | 9.169 | 2 | 34.515 | 9.320 | 31.961 | 2 |
| 2025-04-17T06:09:00 | 54.581641 | 7.422564 | 2.0 | 9.179 | 2 | 34.549 | 9.336 | 31.981 | 2 |
| 2025-04-17T06:10:00 | 54.579295 | 7.425471 | 2.0 | 9.175 | 2 | 34.582 | 9.345 | 32.007 | 2 |
| 2025-04-17T06:11:00 | 54.576967 | 7.428426 | 2.0 | 9.175 | 2 | 34.588 | 9.341 | 32.017 | 2 |
| 2025-04-17T06:12:00 | 54.574618 | 7.431331 | 2.0 | 9.177 | 2 | 34.584 | 9.342 | 32.012 | 2 |
| 2025-04-17T06:13:00 | 54.572286 | 7.434262 | 2.0 | 9.201 | 2 | 34.597 | 9.347 | 32.021 | 2 |
| 2025-04-17T06:14:00 | 54.569930 | 7.437157 | 2.0 | 9.211 | 2 | 34.614 | 9.367 | 32.020 | 2 |
| 2025-04-17T06:15:00 | 54.567611 | 7.440123 | 2.0 | 9.222 | 2 | 34.621 | 9.378 | 32.018 | 2 |
| 2025-04-17T06:16:00 | 54.565268 | 7.443040 | 2.0 | 9.232 | 2 | 34.641 | 9.389 | 32.029 | 2 |
| 2025-04-17T06:17:00 | 54.562906 | 7.445948 | 2.0 | 9.233 | 2 | 34.655 | 9.397 | 32.036 | 2 |
| 2025-04-17T06:18:00 | 54.560575 | 7.448931 | 2.0 | 9.223 | 2 | 34.668 | 9.397 | 32.049 | 2 |
| 2025-04-17T06:19:00 | 54.558246 | 7.451899 | 2.0 | 9.207 | 2 | 34.665 | 9.385 | 32.057 | 2 |
| 2025-04-17T06:20:00 | 54.555889 | 7.454789 | 2.0 | 9.211 | 2 | 34.659 | 9.375 | 32.060 | 2 |
| 2025-04-17T06:21:00 | 54.553525 | 7.457672 | 2.0 | 9.211 | 2 | 34.671 | 9.377 | 32.070 | 2 |
| 2025-04-17T06:22:00 | 54.550947 | 7.459997 | 2.0 | 9.129 | 2 | 34.674 | 9.374 | 32.076 | 2 |
| 2025-04-17T06:23:00 | 54.548341 | 7.462269 | 2.0 | 9.084 | 2 | 34.570 | 9.281 | 32.052 | 2 |
| 2025-04-17T06:24:00 | 54.545834 | 7.464465 | 2.0 | 9.044 | 2 | 34.467 | 9.249 | 31.975 | 2 |
| 2025-04-17T06:25:00 | 54.543609 | 7.466479 | 2.0 | 9.049 | 2 | 34.390 | 9.213 | 31.928 | 2 |
| 2025-04-17T06:26:00 | 54.541716 | 7.468113 | 2.0 | 9.036 | 2 | 34.379 | 9.217 | 31.913 | 2 |
| 2025-04-17T06:27:00 | 54.540063 | 7.469535 | 2.0 | 9.040 | 2 | 34.351 | 9.204 | 31.896 | 2 |
| 2025-04-17T06:28:00 | 54.538577 | 7.470952 | 2.0 | 9.019 | 2 | 34.335 | 9.203 | 31.880 | 2 |
| 2025-04-17T06:29:00 | 54.537062 | 7.472429 | 2.0 | 9.024 | 2 | 34.322 | 9.182 | 31.886 | 2 |
| 2025-04-17T06:30:00 | 54.535503 | 7.473936 | 2.0 | 9.037 | 2 | 34.327 | 9.193 | 31.881 | 2 |
| 2025-04-17T06:31:00 | 54.534007 | 7.475391 | 2.0 | 9.064 | 2 | 34.342 | 9.215 | 31.877 | 2 |
| 2025-04-17T06:32:00 | 54.532620 | 7.476699 | 2.0 | 9.085 | 2 | 34.360 | 9.245 | 31.868 | 2 |
| 2025-04-17T06:33:00 | 54.531299 | 7.477926 | 2.0 | 9.101 | 2 | 34.379 | 9.265 | 31.870 | 2 |
| 2025-04-17T06:34:00 | 54.530388 | 7.477757 | 2.0 | 8.848 | 2 | 34.387 | 9.248 | 31.894 | 2 |
| 2025-04-17T06:35:00 | 54.530219 | 7.476923 | 2.0 | 8.640 | 2 | 34.259 | 8.958 | 32.021 | 2 |
| 2025-04-17T06:36:00 | 54.530192 | 7.476360 | 2.0 | 9.005 | 2 | 34.202 | 8.907 | 32.008 | 2 |
| 2025-04-17T06:37:00 | 54.530297 | 7.475899 | 2.0 | 9.103 | 2 | 34.330 | 9.183 | 31.893 | 2 |
| 2025-04-17T06:38:00 | 54.530381 | 7.475633 | 2.0 | 9.056 | 2 | 34.390 | 9.279 | 31.869 | 2 |
| 2025-04-17T06:39:00 | 54.530419 | 7.475531 | 2.0 | 8.616 | 2 | 34.340 | 9.128 | 31.952 | 2 |
| 2025-04-17T06:40:00 | 54.530480 | 7.475702 | 2.0 | 8.491 | 2 | 34.160 | 8.786 | 32.074 | 2 |
| 2025-04-17T06:41:00 | 54.530514 | 7.476116 | 2.0 | 9.054 | 2 | 34.116 | 8.790 | 32.024 | 2 |
| 2025-04-17T06:42:00 | 54.530518 | 7.476433 | 2.0 | 9.085 | 2 | 34.347 | 9.221 | 31.876 | 2 |
| 2025-04-17T06:43:00 | 54.530491 | 7.476563 | 2.0 | 9.082 | 2 | 34.391 | 9.267 | 31.881 | 2 |
| 2025-04-17T06:44:00 | 54.530454 | 7.476588 | 2.0 | 9.083 | 2 | 34.390 | 9.261 | 31.885 | 2 |
| 2025-04-17T06:45:00 | 54.530443 | 7.476612 | 2.0 | 9.052 | 2 | 34.394 | 9.270 | 31.881 | 2 |
| 2025-04-17T06:46:00 | 54.530514 | 7.476514 | 2.0 | 9.074 | 2 | 34.357 | 9.186 | 31.918 | 2 |
| 2025-04-17T06:47:00 | 54.530715 | 7.476359 | 2.0 | 9.065 | 2 | 34.379 | 9.249 | 31.884 | 2 |
| 2025-04-17T06:48:00 | 54.530972 | 7.476447 | 2.0 | 9.077 | 2 | 34.391 | 9.256 | 31.890 | 2 |
| 2025-04-17T06:49:00 | 54.531194 | 7.477082 | 2.0 | 9.080 | 2 | 34.395 | 9.269 | 31.883 | 2 |
| 2025-04-17T06:50:00 | 54.531369 | 7.477707 | 2.0 | 9.072 | 2 | 34.395 | 9.272 | 31.880 | 2 |
| 2025-04-17T06:51:00 | 54.531476 | 7.478166 | 2.0 | 9.066 | 2 | 34.388 | 9.258 | 31.886 | 2 |
| 2025-04-17T06:52:00 | 54.531525 | 7.478400 | 2.0 | 9.064 | 2 | 34.387 | 9.259 | 31.884 | 2 |
| 2025-04-17T06:53:00 | 54.531565 | 7.478729 | 2.0 | 9.061 | 2 | 34.387 | 9.259 | 31.884 | 2 |
| 2025-04-17T06:54:00 | 54.531673 | 7.479376 | 2.0 | 9.057 | 2 | 34.384 | 9.255 | 31.884 | 2 |
| 2025-04-17T06:55:00 | 54.531888 | 7.480419 | 2.0 | 9.048 | 2 | 34.381 | 9.252 | 31.884 | 2 |
| 2025-04-17T06:56:00 | 54.532138 | 7.481797 | 2.0 | 8.998 | 2 | 34.375 | 9.232 | 31.895 | 2 |
| 2025-04-17T06:57:00 | 54.532405 | 7.483369 | 2.0 | 8.979 | 2 | 34.358 | 9.193 | 31.913 | 2 |
| 2025-04-17T06:58:00 | 54.532660 | 7.484756 | 2.0 | 8.941 | 2 | 34.346 | 9.174 | 31.917 | 2 |
| 2025-04-17T06:59:00 | 54.532880 | 7.485955 | 2.0 | 8.915 | 2 | 34.323 | 9.136 | 31.928 | 2 |
| 2025-04-17T07:00:00 | 54.533038 | 7.487000 | 2.0 | 8.860 | 2 | 34.301 | 9.105 | 31.933 | 2 |
| 2025-04-17T07:01:00 | 54.533033 | 7.487792 | 2.0 | 8.855 | 2 | 34.277 | 9.060 | 31.948 | 2 |
| 2025-04-17T07:02:00 | 54.532949 | 7.488170 | 2.0 | 8.855 | 2 | 34.264 | 9.054 | 31.940 | 2 |
| 2025-04-17T07:03:00 | 54.532898 | 7.488411 | 2.0 | 8.840 | 2 | 34.258 | 9.050 | 31.938 | 2 |
| 2025-04-17T07:04:00 | 54.532902 | 7.488514 | 2.0 | 8.837 | 2 | 34.249 | 9.040 | 31.937 | 2 |
| 2025-04-17T07:05:00 | 54.532930 | 7.488538 | 2.0 | 8.835 | 2 | 34.244 | 9.034 | 31.938 | 2 |
| 2025-04-17T07:06:00 | 54.532998 | 7.488555 | 2.0 | 8.831 | 2 | 34.243 | 9.034 | 31.937 | 2 |
| 2025-04-17T07:07:00 | 54.533048 | 7.488622 | 2.0 | 8.819 | 2 | 34.238 | 9.027 | 31.938 | 2 |
| 2025-04-17T07:08:00 | 54.533061 | 7.488697 | 2.0 | 8.818 | 2 | 34.231 | 9.018 | 31.938 | 2 |
| 2025-04-17T07:09:00 | 54.533048 | 7.488755 | 2.0 | 8.821 | 2 | 34.229 | 9.017 | 31.937 | 2 |
| 2025-04-17T07:10:00 | 54.533048 | 7.488799 | 2.0 | 8.828 | 2 | 34.229 | 9.020 | 31.935 | 2 |
| 2025-04-17T07:11:00 | 54.533056 | 7.488889 | 2.0 | 8.832 | 2 | 34.230 | 9.026 | 31.930 | 2 |
| 2025-04-17T07:12:00 | 54.533044 | 7.489029 | 2.0 | 8.832 | 2 | 34.231 | 9.029 | 31.929 | 2 |
| 2025-04-17T07:13:00 | 54.533021 | 7.489130 | 2.0 | 8.829 | 2 | 33.835 | 9.029 | 31.519 | 2 |
| 2025-04-17T07:14:00 | 54.533007 | 7.489193 | 2.0 | 8.824 | 2 | 34.226 | 9.026 | 31.926 | 2 |
| 2025-04-17T07:15:00 | 54.533011 | 7.489262 | 2.0 | 8.818 | 2 | 34.223 | 9.022 | 31.927 | 2 |
| 2025-04-17T07:16:00 | 54.532998 | 7.489364 | 2.0 | 8.788 | 2 | 34.217 | 9.011 | 31.930 | 2 |
| 2025-04-17T07:17:00 | 54.532975 | 7.489451 | 2.0 | 8.795 | 2 | 34.211 | 8.990 | 31.943 | 2 |
| 2025-04-17T07:18:00 | 54.532942 | 7.489507 | 2.0 | 8.795 | 2 | 34.208 | 8.992 | 31.938 | 2 |
| 2025-04-17T07:19:00 | 54.532894 | 7.489544 | 2.0 | 8.794 | 2 | 34.202 | 8.993 | 31.931 | 2 |
| 2025-04-17T07:20:00 | 54.532905 | 7.489672 | 2.0 | 8.793 | 2 | 34.199 | 8.993 | 31.928 | 2 |
| 2025-04-17T07:21:00 | 54.532961 | 7.489807 | 2.0 | 8.791 | 2 | 34.173 | 8.992 | 31.902 | 2 |
| 2025-04-17T07:22:00 | 54.532984 | 7.489903 | 2.0 | 8.788 | 2 | 33.902 | 8.990 | 31.623 | 2 |
| 2025-04-17T07:23:00 | 54.532982 | 7.489993 | 2.0 | 8.784 | 2 | 33.744 | 8.987 | 31.462 | 2 |
| 2025-04-17T07:24:00 | 54.532939 | 7.490076 | 2.0 | 8.780 | 2 | 34.188 | 8.983 | 31.925 | 2 |
| 2025-04-17T07:25:00 | 54.532882 | 7.490193 | 2.0 | 8.772 | 2 | 33.847 | 8.979 | 31.576 | 2 |
| 2025-04-17T07:26:00 | 54.532820 | 7.490313 | 2.0 | 8.763 | 2 | 34.175 | 8.969 | 31.924 | 2 |
| 2025-04-17T07:27:00 | 54.532943 | 7.490448 | 2.0 | 8.760 | 2 | 33.778 | 8.964 | 31.518 | 2 |
| 2025-04-17T07:28:00 | 54.533101 | 7.490376 | 2.0 | 8.771 | 2 | 33.960 | 8.962 | 31.708 | 2 |
| 2025-04-17T07:29:00 | 54.533185 | 7.490219 | 2.0 | 8.772 | 2 | 34.027 | 8.971 | 31.769 | 2 |
| 2025-04-17T07:30:00 | 54.533178 | 7.490062 | 2.0 | 8.773 | 2 | 33.807 | 8.971 | 31.542 | 2 |
| 2025-04-17T07:31:00 | 54.533134 | 7.489693 | 2.0 | 8.751 | 2 | 33.869 | 8.971 | 31.606 | 2 |
| 2025-04-17T07:32:00 | 54.533089 | 7.489329 | 2.0 | 8.728 | 2 | 33.832 | 8.932 | 31.602 | 2 |
| 2025-04-17T07:33:00 | 54.533023 | 7.489071 | 2.0 | 8.711 | 2 | 33.936 | 8.921 | 31.720 | 2 |
| 2025-04-17T07:34:00 | 54.532932 | 7.488925 | 2.0 | 8.704 | 2 | 33.912 | 8.913 | 31.702 | 2 |
| 2025-04-17T07:35:00 | 54.532884 | 7.488856 | 2.0 | 8.747 | 2 | 34.080 | 8.912 | 31.877 | 2 |
| 2025-04-17T07:36:00 | 54.532862 | 7.488840 | 2.0 | 8.738 | 2 | 33.893 | 8.946 | 31.653 | 2 |
| 2025-04-17T07:37:00 | 54.532881 | 7.488893 | 2.0 | 8.730 | 2 | 33.747 | 8.937 | 31.510 | 2 |
| 2025-04-17T07:38:00 | 54.532879 | 7.488934 | 2.0 | 8.716 | 2 | 33.862 | 8.924 | 31.640 | 2 |
| 2025-04-17T07:39:00 | 54.532832 | 7.489003 | 2.0 | 8.741 | 2 | 33.988 | 8.924 | 31.771 | 2 |
| 2025-04-17T07:40:00 | 54.532811 | 7.489140 | 2.0 | 8.739 | 2 | 33.904 | 8.940 | 31.670 | 2 |
| 2025-04-17T07:41:00 | 54.532801 | 7.489292 | 2.0 | 8.737 | 2 | 33.953 | 8.939 | 31.721 | 2 |
| 2025-04-17T07:42:00 | 54.532797 | 7.489424 | 2.0 | 8.743 | 2 | 33.929 | 8.940 | 31.695 | 2 |
| 2025-04-17T07:43:00 | 54.532796 | 7.489531 | 2.0 | 8.742 | 2 | 33.933 | 8.943 | 31.697 | 2 |
| 2025-04-17T07:44:00 | 54.532803 | 7.489614 | 2.0 | 8.740 | 2 | 33.861 | 8.942 | 31.623 | 2 |
| 2025-04-17T07:45:00 | 54.532822 | 7.489642 | 2.0 | 8.734 | 2 | 33.929 | 8.932 | 31.703 | 2 |
| 2025-04-17T07:46:00 | 54.532842 | 7.489646 | 2.0 | 8.731 | 2 | 34.009 | 8.922 | 31.794 | 2 |
| 2025-04-17T07:47:00 | 54.532871 | 7.489647 | 2.0 | 8.732 | 2 | 33.994 | 8.917 | 31.783 | 2 |
| 2025-04-17T07:48:00 | 54.532909 | 7.489633 | 2.0 | 8.731 | 2 | 34.070 | 8.916 | 31.863 | 2 |
| 2025-04-17T07:49:00 | 54.532956 | 7.489628 | 2.0 | 8.732 | 2 | 34.028 | 8.913 | 31.822 | 2 |
| 2025-04-17T07:50:00 | 54.533004 | 7.489626 | 2.0 | 8.733 | 2 | 33.805 | 8.913 | 31.591 | 2 |
| 2025-04-17T07:51:00 | 54.533051 | 7.489664 | 2.0 | 8.735 | 2 | 33.962 | 8.913 | 31.754 | 2 |
| 2025-04-17T07:52:00 | 54.533079 | 7.489764 | 2.0 | 8.733 | 2 | 33.951 | 8.914 | 31.741 | 2 |
| 2025-04-17T07:53:00 | 54.533093 | 7.489895 | 2.0 | 8.731 | 2 | 34.030 | 8.911 | 31.826 | 2 |
| 2025-04-17T07:54:00 | 54.533095 | 7.490048 | 2.0 | 8.727 | 2 | 33.989 | 8.909 | 31.785 | 2 |
| 2025-04-17T07:55:00 | 54.533096 | 7.490205 | 2.0 | 8.725 | 2 | 34.007 | 8.904 | 31.809 | 2 |
| 2025-04-17T07:56:00 | 54.533110 | 7.490351 | 2.0 | 8.723 | 2 | 33.905 | 8.902 | 31.704 | 2 |
| 2025-04-17T07:57:00 | 54.533142 | 7.490424 | 2.0 | 8.722 | 2 | 33.910 | 8.900 | 31.711 | 2 |
| 2025-04-17T07:58:00 | 54.533208 | 7.490435 | 2.0 | 8.721 | 2 | 33.999 | 8.899 | 31.805 | 2 |
| 2025-04-17T07:59:00 | 54.533303 | 7.490423 | 2.0 | 8.725 | 2 | 34.013 | 8.899 | 31.819 | 2 |
| 2025-04-17T08:00:00 | 54.533369 | 7.490377 | 2.0 | 8.729 | 2 | 33.763 | 8.903 | 31.556 | 2 |
| 2025-04-17T08:01:00 | 54.533410 | 7.490293 | 2.0 | 8.731 | 2 | 33.747 | 8.906 | 31.537 | 2 |
| 2025-04-17T08:02:00 | 54.533429 | 7.490174 | 2.0 | 8.731 | 2 | 33.790 | 8.907 | 31.581 | 2 |
| 2025-04-17T08:03:00 | 54.533431 | 7.490013 | 2.0 | 8.732 | 2 | 33.620 | 8.907 | 31.405 | 2 |
| 2025-04-17T08:04:00 | 54.533429 | 7.489854 | 2.0 | 8.730 | 2 | 33.782 | 8.908 | 31.572 | 2 |
| 2025-04-17T08:05:00 | 54.533430 | 7.489696 | 2.0 | 8.735 | 2 | 33.915 | 8.906 | 31.711 | 2 |
| 2025-04-17T08:06:00 | 54.533433 | 7.489555 | 2.0 | 8.736 | 2 | 33.716 | 8.909 | 31.502 | 2 |
| 2025-04-17T08:07:00 | 54.533420 | 7.489406 | 2.0 | 8.736 | 2 | 33.856 | 8.911 | 31.646 | 2 |
| 2025-04-17T08:08:00 | 54.533416 | 7.489281 | 2.0 | 8.736 | 2 | 33.944 | 8.911 | 31.737 | 2 |
| 2025-04-17T08:09:00 | 54.533409 | 7.489179 | 2.0 | 8.736 | 2 | 33.897 | 8.911 | 31.688 | 2 |
| 2025-04-17T08:10:00 | 54.533399 | 7.489083 | 2.0 | 8.735 | 2 | 33.959 | 8.911 | 31.752 | 2 |
| 2025-04-17T08:11:00 | 54.533359 | 7.489000 | 2.0 | 8.737 | 2 | 34.070 | 8.910 | 31.869 | 2 |
| 2025-04-17T08:12:00 | 54.533310 | 7.488933 | 2.0 | 8.740 | 2 | 34.126 | 8.912 | 31.925 | 2 |
| 2025-04-17T08:13:00 | 54.533239 | 7.488870 | 2.0 | 8.741 | 2 | 34.141 | 8.913 | 31.940 | 2 |
| 2025-04-17T08:14:00 | 54.533127 | 7.488816 | 2.0 | 8.741 | 2 | 34.142 | 8.913 | 31.941 | 2 |
| 2025-04-17T08:15:00 | 54.532985 | 7.488767 | 2.0 | 8.733 | 2 | 34.143 | 8.915 | 31.940 | 2 |
| 2025-04-17T08:16:00 | 54.532841 | 7.488667 | 2.0 | 8.566 | 2 | 34.126 | 8.858 | 31.973 | 2 |
| 2025-04-17T08:17:00 | 54.532688 | 7.488576 | 2.0 | 8.693 | 2 | 34.083 | 8.792 | 31.988 | 2 |
| 2025-04-17T08:18:00 | 54.532537 | 7.488500 | 2.0 | 8.708 | 2 | 34.115 | 8.867 | 31.954 | 2 |
| 2025-04-17T08:19:00 | 54.532386 | 7.488456 | 2.0 | 8.724 | 2 | 34.126 | 8.884 | 31.950 | 2 |
| 2025-04-17T08:20:00 | 54.532247 | 7.488405 | 2.0 | 8.722 | 2 | 34.087 | 8.896 | 31.899 | 2 |
| 2025-04-17T08:21:00 | 54.532101 | 7.488336 | 2.0 | 8.718 | 2 | 34.134 | 8.895 | 31.948 | 2 |
| 2025-04-17T08:22:00 | 54.531955 | 7.488250 | 2.0 | 8.716 | 2 | 33.926 | 8.892 | 31.735 | 2 |
| 2025-04-17T08:23:00 | 54.531821 | 7.488147 | 2.0 | 8.715 | 2 | 34.131 | 8.889 | 31.951 | 2 |
| 2025-04-17T08:24:00 | 54.531727 | 7.488012 | 2.0 | 8.716 | 2 | 34.092 | 8.890 | 31.909 | 2 |
| 2025-04-17T08:25:00 | 54.531658 | 7.487855 | 2.0 | 8.710 | 2 | 33.787 | 8.889 | 31.594 | 2 |
| 2025-04-17T08:26:00 | 54.531618 | 7.487654 | 2.0 | 8.708 | 2 | 34.128 | 8.885 | 31.951 | 2 |
| 2025-04-17T08:27:00 | 54.531617 | 7.487464 | 2.0 | 8.715 | 2 | 34.127 | 8.885 | 31.950 | 2 |
| 2025-04-17T08:28:00 | 54.531642 | 7.487342 | 2.0 | 8.711 | 2 | 34.128 | 8.886 | 31.950 | 2 |
| 2025-04-17T08:29:00 | 54.531674 | 7.487243 | 2.0 | 8.702 | 2 | 34.022 | 8.882 | 31.844 | 2 |
| 2025-04-17T08:30:00 | 54.531717 | 7.487156 | 2.0 | 8.715 | 2 | 34.126 | 8.877 | 31.956 | 2 |
| 2025-04-17T08:31:00 | 54.531770 | 7.487095 | 2.0 | 8.726 | 2 | 33.942 | 8.890 | 31.754 | 2 |
| 2025-04-17T08:32:00 | 54.531837 | 7.487055 | 2.0 | 8.741 | 2 | 34.133 | 8.902 | 31.941 | 2 |
| 2025-04-17T08:33:00 | 54.531896 | 7.487006 | 2.0 | 8.734 | 2 | 34.133 | 8.912 | 31.932 | 2 |
| 2025-04-17T08:34:00 | 54.531951 | 7.486955 | 2.0 | 8.737 | 2 | 33.607 | 8.909 | 31.389 | 2 |
| 2025-04-17T08:35:00 | 54.532024 | 7.486934 | 2.0 | 8.735 | 2 | 33.824 | 8.917 | 31.607 | 2 |
| 2025-04-17T08:36:00 | 54.532086 | 7.486903 | 2.0 | 8.750 | 2 | 33.872 | 8.923 | 31.652 | 2 |
| 2025-04-17T08:37:00 | 54.532159 | 7.486945 | 2.0 | 8.748 | 2 | 33.402 | 8.936 | 31.153 | 2 |
| 2025-04-17T08:38:00 | 54.532259 | 7.487075 | 2.0 | 8.753 | 2 | 33.985 | 8.939 | 31.754 | 2 |
| 2025-04-17T08:39:00 | 54.532411 | 7.487304 | 2.0 | 8.762 | 2 | 33.641 | 8.945 | 31.393 | 2 |
| 2025-04-17T08:40:00 | 54.532546 | 7.487407 | 2.0 | 8.765 | 2 | 33.982 | 8.954 | 31.738 | 2 |
| 2025-04-17T08:41:00 | 54.532675 | 7.487438 | 2.0 | 8.772 | 2 | 33.563 | 8.957 | 31.301 | 2 |
| 2025-04-17T08:43:00 | 54.532612 | 7.486773 | 2.0 | 8.773 | 2 | 34.195 | 8.969 | 31.945 | 2 |
| 2025-04-17T08:44:00 | 54.531655 | 7.485145 | 2.0 | 8.768 | 2 | 34.192 | 8.966 | 31.945 | 2 |
| 2025-04-17T08:45:00 | 54.530023 | 7.482844 | 2.0 | 8.742 | 2 | 34.188 | 8.960 | 31.946 | 2 |
| 2025-04-17T08:46:00 | 54.528597 | 7.480261 | 2.0 | 8.731 | 2 | 34.168 | 8.941 | 31.942 | 2 |
| 2025-04-17T08:47:00 | 54.528456 | 7.478535 | 2.0 | 8.740 | 2 | 34.153 | 8.927 | 31.939 | 2 |
| 2025-04-17T08:48:00 | 54.528858 | 7.477905 | 2.0 | 8.761 | 2 | 34.161 | 8.940 | 31.936 | 2 |
| 2025-04-17T08:49:00 | 54.529228 | 7.477527 | 2.0 | 8.775 | 2 | 34.176 | 8.958 | 31.935 | 2 |
| 2025-04-17T08:50:00 | 54.529496 | 7.477326 | 2.0 | 8.790 | 2 | 34.191 | 8.973 | 31.937 | 2 |
| 2025-04-17T08:51:00 | 54.529692 | 7.477111 | 2.0 | 8.797 | 2 | 34.204 | 8.986 | 31.939 | 2 |
| 2025-04-17T08:52:00 | 54.529892 | 7.476891 | 2.0 | 8.804 | 2 | 34.214 | 8.994 | 31.942 | 2 |
| 2025-04-17T08:53:00 | 54.530123 | 7.476631 | 2.0 | 8.788 | 2 | 34.222 | 8.997 | 31.948 | 2 |
| 2025-04-17T08:54:00 | 54.530277 | 7.476377 | 2.0 | 8.790 | 2 | 34.226 | 8.986 | 31.962 | 2 |
| 2025-04-17T08:55:00 | 54.530540 | 7.476440 | 2.0 | 8.794 | 2 | 34.229 | 8.987 | 31.964 | 2 |
| 2025-04-17T08:56:00 | 54.531010 | 7.476547 | 2.0 | 8.802 | 2 | 34.232 | 8.992 | 31.963 | 2 |
| 2025-04-17T08:57:00 | 54.531424 | 7.476423 | 2.0 | 8.822 | 2 | 34.238 | 9.002 | 31.960 | 2 |
| 2025-04-17T08:58:00 | 54.531806 | 7.476219 | 2.0 | 8.842 | 2 | 34.249 | 9.022 | 31.953 | 2 |
| 2025-04-17T08:59:00 | 54.532202 | 7.476077 | 2.0 | 8.863 | 2 | 34.262 | 9.041 | 31.950 | 2 |
| 2025-04-17T09:00:00 | 54.532423 | 7.476738 | 2.0 | 8.864 | 2 | 34.277 | 9.060 | 31.948 | 2 |
| 2025-04-17T09:01:00 | 54.532429 | 7.478084 | 2.0 | 8.859 | 2 | 34.279 | 9.059 | 31.951 | 2 |
| 2025-04-17T09:02:00 | 54.532135 | 7.479379 | 2.0 | 8.844 | 2 | 34.275 | 9.054 | 31.952 | 2 |
| 2025-04-17T09:03:00 | 54.531570 | 7.480075 | 2.0 | 8.826 | 2 | 34.263 | 9.039 | 31.953 | 2 |
| 2025-04-17T09:04:00 | 54.530974 | 7.480222 | 2.0 | 8.812 | 2 | 34.248 | 9.019 | 31.955 | 2 |
| 2025-04-17T09:05:00 | 54.530293 | 7.480414 | 2.0 | 8.794 | 2 | 34.239 | 9.009 | 31.955 | 2 |
| 2025-04-17T09:06:00 | 54.529526 | 7.480646 | 2.0 | 8.786 | 2 | 34.228 | 8.990 | 31.960 | 2 |
| 2025-04-17T09:07:00 | 54.528700 | 7.480936 | 2.0 | 8.712 | 2 | 34.213 | 8.978 | 31.956 | 2 |
| 2025-04-17T09:08:00 | 54.527850 | 7.481209 | 2.0 | 8.705 | 2 | 34.170 | 8.904 | 31.978 | 2 |
| 2025-04-17T09:09:00 | 54.527253 | 7.481134 | 2.0 | 8.737 | 2 | 34.156 | 8.904 | 31.963 | 2 |
| 2025-04-17T09:10:00 | 54.527051 | 7.480964 | 2.0 | 8.727 | 2 | 34.164 | 8.927 | 31.951 | 2 |
| 2025-04-17T09:11:00 | 54.526988 | 7.480963 | 2.0 | 8.742 | 2 | 34.165 | 8.928 | 31.951 | 2 |
| 2025-04-17T09:12:00 | 54.527003 | 7.480953 | 2.0 | 8.749 | 2 | 34.169 | 8.940 | 31.944 | 2 |
| 2025-04-17T09:13:00 | 54.527079 | 7.480876 | 2.0 | 8.760 | 2 | 34.174 | 8.948 | 31.942 | 2 |
| 2025-04-17T09:14:00 | 54.527206 | 7.480742 | 2.0 | 8.766 | 2 | 34.182 | 8.959 | 31.941 | 2 |
| 2025-04-17T09:15:00 | 54.527332 | 7.480625 | 2.0 | 8.774 | 2 | 34.188 | 8.966 | 31.941 | 2 |
| 2025-04-17T09:16:00 | 54.527414 | 7.480507 | 2.0 | 8.778 | 2 | 34.197 | 8.974 | 31.943 | 2 |
| 2025-04-17T09:17:00 | 54.527478 | 7.480431 | 2.0 | 8.784 | 2 | 34.203 | 8.977 | 31.946 | 2 |
| 2025-04-17T09:18:00 | 54.527558 | 7.480334 | 2.0 | 8.786 | 2 | 34.210 | 8.982 | 31.949 | 2 |
| 2025-04-17T09:19:00 | 54.527716 | 7.480085 | 2.0 | 8.792 | 2 | 34.214 | 8.986 | 31.950 | 2 |
| 2025-04-17T09:20:00 | 54.527934 | 7.479719 | 2.0 | 8.790 | 2 | 34.222 | 8.991 | 31.953 | 2 |
| 2025-04-17T09:21:00 | 54.528202 | 7.479244 | 2.0 | 8.791 | 2 | 34.225 | 8.989 | 31.958 | 2 |
| 2025-04-17T09:22:00 | 54.528514 | 7.478713 | 2.0 | 8.797 | 2 | 34.204 | 8.992 | 31.934 | 2 |
| 2025-04-17T09:23:00 | 54.528861 | 7.478162 | 2.0 | 8.833 | 2 | 34.241 | 9.002 | 31.963 | 2 |
| 2025-04-17T09:24:00 | 54.529189 | 7.477660 | 2.0 | 8.859 | 2 | 34.265 | 9.037 | 31.957 | 2 |
| 2025-04-17T09:25:00 | 54.529443 | 7.477368 | 2.0 | 8.822 | 2 | 34.282 | 9.058 | 31.955 | 2 |
| 2025-04-17T09:26:00 | 54.529562 | 7.477244 | 2.0 | 8.624 | 2 | 34.234 | 8.927 | 32.023 | 2 |
| 2025-04-17T09:27:00 | 54.529615 | 7.477178 | 2.0 | 8.899 | 2 | 34.191 | 8.929 | 31.977 | 2 |
| 2025-04-17T09:28:00 | 54.529649 | 7.477147 | 2.0 | 8.912 | 2 | 34.296 | 9.091 | 31.940 | 2 |
| 2025-04-17T09:29:00 | 54.529706 | 7.477115 | 2.0 | 8.909 | 2 | 34.312 | 9.107 | 31.942 | 2 |
| 2025-04-17T09:30:00 | 54.529756 | 7.477090 | 2.0 | 8.902 | 2 | 34.313 | 9.106 | 31.944 | 2 |
| 2025-04-17T09:31:00 | 54.529777 | 7.477041 | 2.0 | 8.926 | 2 | 34.312 | 9.103 | 31.946 | 2 |
| 2025-04-17T09:32:00 | 54.529787 | 7.476985 | 2.0 | 8.939 | 2 | 34.322 | 9.123 | 31.938 | 2 |
| 2025-04-17T09:33:00 | 54.529811 | 7.476930 | 2.0 | 8.960 | 2 | 34.333 | 9.142 | 31.933 | 2 |
| 2025-04-17T09:34:00 | 54.529860 | 7.476874 | 2.0 | 8.979 | 2 | 34.344 | 9.162 | 31.926 | 2 |
| 2025-04-17T09:35:00 | 54.529896 | 7.476820 | 2.0 | 8.982 | 2 | 34.352 | 9.173 | 31.925 | 2 |
| 2025-04-17T09:36:00 | 54.529929 | 7.476763 | 2.0 | 9.006 | 2 | 34.233 | 9.188 | 31.788 | 2 |
| 2025-04-17T09:37:00 | 54.529964 | 7.476711 | 2.0 | 9.016 | 2 | 34.370 | 9.208 | 31.912 | 2 |
| 2025-04-17T09:38:00 | 54.530005 | 7.476671 | 2.0 | 9.015 | 2 | 34.374 | 9.214 | 31.911 | 2 |
| 2025-04-17T09:39:00 | 54.530053 | 7.476643 | 2.0 | 9.018 | 2 | 34.375 | 9.215 | 31.911 | 2 |
| 2025-04-17T09:40:00 | 54.530100 | 7.476627 | 2.0 | 9.025 | 2 | 34.376 | 9.219 | 31.908 | 2 |
| 2025-04-17T09:41:00 | 54.530146 | 7.476646 | 2.0 | 9.030 | 2 | 34.070 | 9.225 | 31.588 | 2 |
| 2025-04-17T09:42:00 | 54.530162 | 7.476752 | 2.0 | 8.793 | 2 | 34.361 | 9.185 | 31.923 | 2 |
| 2025-04-17T09:43:00 | 54.530102 | 7.476918 | 2.0 | 8.865 | 2 | 34.272 | 9.029 | 31.971 | 2 |
| 2025-04-17T09:44:00 | 54.530016 | 7.477105 | 2.0 | 9.015 | 2 | 34.282 | 9.061 | 31.953 | 2 |
| 2025-04-17T09:45:00 | 54.529930 | 7.477269 | 2.0 | 9.048 | 2 | 34.361 | 9.213 | 31.898 | 2 |
| 2025-04-17T09:46:00 | 54.529870 | 7.477405 | 2.0 | 9.052 | 2 | 34.391 | 9.247 | 31.899 | 2 |
| 2025-04-17T09:47:00 | 54.529886 | 7.477477 | 2.0 | 9.057 | 2 | 34.397 | 9.253 | 31.899 | 2 |
| 2025-04-17T09:48:00 | 54.529898 | 7.477536 | 2.0 | 9.064 | 2 | 34.401 | 9.258 | 31.899 | 2 |
| 2025-04-17T09:49:00 | 54.529943 | 7.477545 | 2.0 | 9.066 | 2 | 34.404 | 9.264 | 31.897 | 2 |
| 2025-04-17T09:50:00 | 54.530025 | 7.477555 | 2.0 | 9.072 | 2 | 34.406 | 9.269 | 31.894 | 2 |
| 2025-04-17T09:51:00 | 54.530108 | 7.477581 | 2.0 | 9.075 | 2 | 34.407 | 9.273 | 31.892 | 2 |
| 2025-04-17T09:52:00 | 54.530149 | 7.477580 | 2.0 | 9.070 | 2 | 34.404 | 9.273 | 31.889 | 2 |
| 2025-04-17T09:53:00 | 54.530193 | 7.477595 | 2.0 | 9.068 | 2 | 34.399 | 9.271 | 31.885 | 2 |
| 2025-04-17T09:54:00 | 54.530238 | 7.477630 | 2.0 | 9.064 | 2 | 34.395 | 9.268 | 31.884 | 2 |
| 2025-04-17T09:55:00 | 54.530260 | 7.477641 | 2.0 | 9.061 | 2 | 34.392 | 9.265 | 31.883 | 2 |
| 2025-04-17T09:56:00 | 54.530285 | 7.477621 | 2.0 | 9.053 | 2 | 34.387 | 9.260 | 31.883 | 2 |
| 2025-04-17T09:57:00 | 54.530344 | 7.477554 | 2.0 | 9.048 | 2 | 34.381 | 9.256 | 31.880 | 2 |
| 2025-04-17T09:58:00 | 54.530379 | 7.477504 | 2.0 | 9.039 | 2 | 34.374 | 9.247 | 31.881 | 2 |
| 2025-04-17T09:59:00 | 54.530391 | 7.477476 | 2.0 | 9.034 | 2 | 34.368 | 9.240 | 31.881 | 2 |
| 2025-04-17T10:00:00 | 54.530423 | 7.477425 | 2.0 | 9.031 | 2 | 34.366 | 9.237 | 31.882 | 2 |
| 2025-04-17T10:01:00 | 54.530480 | 7.477378 | 2.0 | 9.023 | 2 | 34.363 | 9.233 | 31.882 | 2 |
| 2025-04-17T10:02:00 | 54.530535 | 7.477351 | 2.0 | 9.017 | 2 | 34.359 | 9.225 | 31.885 | 2 |
| 2025-04-17T10:03:00 | 54.530589 | 7.477348 | 2.0 | 9.014 | 2 | 34.346 | 9.219 | 31.877 | 2 |
| 2025-04-17T10:04:00 | 54.530642 | 7.477383 | 2.0 | 9.007 | 2 | 34.350 | 9.216 | 31.884 | 2 |
| 2025-04-17T10:05:00 | 54.530716 | 7.477465 | 2.0 | 9.012 | 2 | 34.350 | 9.211 | 31.888 | 2 |
| 2025-04-17T10:06:00 | 54.530777 | 7.477848 | 2.0 | 9.012 | 2 | 34.352 | 9.214 | 31.888 | 2 |
| 2025-04-17T10:07:00 | 54.530742 | 7.478195 | 2.0 | 9.002 | 2 | 34.352 | 9.213 | 31.889 | 2 |
| 2025-04-17T10:08:00 | 54.530758 | 7.478300 | 2.0 | 9.006 | 2 | 34.350 | 9.202 | 31.897 | 2 |
| 2025-04-17T10:09:00 | 54.530802 | 7.478201 | 2.0 | 9.006 | 2 | 34.353 | 9.209 | 31.893 | 2 |
| 2025-04-17T10:10:00 | 54.530779 | 7.478181 | 2.0 | 9.005 | 2 | 34.355 | 9.208 | 31.896 | 2 |
| 2025-04-17T10:11:00 | 54.530724 | 7.478193 | 2.0 | 9.007 | 2 | 34.357 | 9.211 | 31.896 | 2 |
| 2025-04-17T10:12:00 | 54.530690 | 7.478203 | 2.0 | 9.008 | 2 | 34.356 | 9.212 | 31.894 | 2 |
| 2025-04-17T10:13:00 | 54.530687 | 7.478162 | 2.0 | 9.013 | 2 | 34.356 | 9.212 | 31.894 | 2 |
| 2025-04-17T10:14:00 | 54.530709 | 7.478087 | 2.0 | 9.016 | 2 | 34.359 | 9.217 | 31.892 | 2 |
| 2025-04-17T10:15:00 | 54.530739 | 7.478024 | 2.0 | 9.019 | 2 | 34.360 | 9.220 | 31.891 | 2 |
| 2025-04-17T10:16:00 | 54.530732 | 7.477976 | 2.0 | 9.019 | 2 | 34.364 | 9.222 | 31.893 | 2 |
| 2025-04-17T10:17:00 | 54.530733 | 7.477932 | 2.0 | 9.019 | 2 | 34.366 | 9.223 | 31.894 | 2 |
| 2025-04-17T10:18:00 | 54.530752 | 7.477874 | 2.0 | 9.024 | 2 | 34.367 | 9.223 | 31.895 | 2 |
| 2025-04-17T10:19:00 | 54.530765 | 7.477805 | 2.0 | 9.027 | 2 | 34.374 | 9.228 | 31.898 | 2 |
| 2025-04-17T10:20:00 | 54.530770 | 7.477765 | 2.0 | 9.042 | 2 | 34.384 | 9.233 | 31.904 | 2 |
| 2025-04-17T10:21:00 | 54.530777 | 7.477725 | 2.0 | 9.009 | 2 | 34.398 | 9.240 | 31.912 | 2 |
| 2025-04-17T10:22:00 | 54.530809 | 7.477623 | 2.0 | 9.020 | 2 | 34.378 | 9.218 | 31.911 | 2 |
| 2025-04-17T10:23:00 | 54.530827 | 7.477502 | 2.0 | 9.025 | 2 | 34.377 | 9.226 | 31.903 | 2 |
| 2025-04-17T10:24:00 | 54.530834 | 7.477423 | 2.0 | 9.025 | 2 | 34.384 | 9.231 | 31.906 | 2 |
| 2025-04-17T10:25:00 | 54.530826 | 7.477351 | 2.0 | 9.029 | 2 | 34.385 | 9.231 | 31.907 | 2 |
| 2025-04-17T10:26:00 | 54.530866 | 7.477195 | 2.0 | 9.034 | 2 | 34.390 | 9.234 | 31.909 | 2 |
| 2025-04-17T10:27:00 | 54.530957 | 7.476924 | 2.0 | 9.043 | 2 | 34.398 | 9.240 | 31.912 | 2 |
| 2025-04-17T10:28:00 | 54.531086 | 7.476542 | 2.0 | 9.043 | 2 | 34.405 | 9.247 | 31.913 | 2 |
| 2025-04-17T10:29:00 | 54.531242 | 7.476103 | 2.0 | 9.018 | 2 | 34.412 | 9.243 | 31.924 | 2 |
| 2025-04-17T10:30:00 | 54.531538 | 7.475535 | 2.0 | 9.011 | 2 | 34.396 | 9.219 | 31.929 | 2 |
| 2025-04-17T10:31:00 | 54.532395 | 7.475849 | 2.0 | 9.016 | 2 | 34.390 | 9.216 | 31.925 | 2 |
| 2025-04-17T10:32:00 | 54.532875 | 7.478140 | 2.0 | 9.023 | 2 | 34.391 | 9.220 | 31.923 | 2 |
| 2025-04-17T10:33:00 | 54.532812 | 7.481300 | 2.0 | 9.039 | 2 | 34.399 | 9.229 | 31.923 | 2 |
| 2025-04-17T10:34:00 | 54.532947 | 7.484811 | 2.0 | 9.073 | 2 | 34.419 | 9.250 | 31.925 | 2 |
| 2025-04-17T10:35:00 | 54.533093 | 7.488575 | 2.0 | 9.069 | 2 | 34.437 | 9.276 | 31.920 | 2 |
| 2025-04-17T10:36:00 | 54.533155 | 7.492478 | 2.0 | 9.059 | 2 | 34.429 | 9.271 | 31.916 | 2 |
| 2025-04-17T10:37:00 | 54.533218 | 7.496440 | 2.0 | 9.060 | 2 | 34.421 | 9.264 | 31.914 | 2 |
| 2025-04-17T10:38:00 | 54.533282 | 7.500426 | 2.0 | 9.057 | 2 | 34.422 | 9.267 | 31.913 | 2 |
| 2025-04-17T10:39:00 | 54.533180 | 7.504410 | 2.0 | 9.065 | 2 | 34.406 | 9.262 | 31.901 | 2 |
| 2025-04-17T10:40:00 | 54.533033 | 7.508405 | 2.0 | 9.091 | 2 | 34.400 | 9.276 | 31.882 | 2 |
| 2025-04-17T10:41:00 | 54.532887 | 7.512411 | 2.0 | 9.105 | 2 | 34.397 | 9.298 | 31.859 | 2 |
| 2025-04-17T10:42:00 | 54.532731 | 7.516415 | 2.0 | 9.118 | 2 | 34.413 | 9.313 | 31.862 | 2 |
| 2025-04-17T10:43:00 | 54.532576 | 7.520064 | 2.0 | 9.119 | 2 | 34.427 | 9.323 | 31.868 | 2 |
| 2025-04-17T10:44:00 | 54.532316 | 7.523173 | 2.0 | 9.104 | 2 | 34.435 | 9.321 | 31.878 | 2 |
| 2025-04-17T10:45:00 | 54.531651 | 7.525641 | 2.0 | 9.084 | 2 | 34.432 | 9.305 | 31.889 | 2 |
| 2025-04-17T10:46:00 | 54.530762 | 7.527331 | 2.0 | 9.057 | 2 | 34.423 | 9.285 | 31.898 | 2 |
| 2025-04-17T10:47:00 | 54.529845 | 7.528174 | 2.0 | 9.045 | 2 | 34.412 | 9.259 | 31.909 | 2 |
| 2025-04-17T10:48:00 | 54.529382 | 7.528346 | 2.0 | 9.033 | 2 | 34.404 | 9.242 | 31.916 | 2 |
| 2025-04-17T10:49:00 | 54.529154 | 7.528513 | 2.0 | 9.042 | 2 | 34.401 | 9.238 | 31.917 | 2 |
| 2025-04-17T10:50:00 | 54.529213 | 7.528053 | 2.0 | 9.044 | 2 | 34.407 | 9.245 | 31.917 | 2 |
| 2025-04-17T10:51:00 | 54.529438 | 7.527373 | 2.0 | 9.059 | 2 | 34.409 | 9.249 | 31.915 | 2 |
| 2025-04-17T10:52:00 | 54.529701 | 7.526418 | 2.0 | 9.077 | 2 | 34.415 | 9.264 | 31.908 | 2 |
| 2025-04-17T10:53:00 | 54.529934 | 7.525446 | 2.0 | 9.092 | 2 | 34.424 | 9.283 | 31.900 | 2 |
| 2025-04-17T10:54:00 | 54.530069 | 7.524791 | 2.0 | 9.101 | 2 | 34.429 | 9.298 | 31.892 | 2 |
| 2025-04-17T10:55:00 | 54.530051 | 7.524671 | 2.0 | 9.095 | 2 | 34.428 | 9.300 | 31.889 | 2 |
| 2025-04-17T10:56:00 | 54.530025 | 7.524648 | 2.0 | 9.109 | 2 | 34.424 | 9.299 | 31.886 | 2 |
| 2025-04-17T10:57:00 | 54.530167 | 7.524467 | 2.0 | 9.111 | 2 | 34.429 | 9.312 | 31.880 | 2 |
| 2025-04-17T10:58:00 | 54.530470 | 7.524222 | 2.0 | 9.101 | 2 | 34.430 | 9.315 | 31.878 | 2 |
| 2025-04-17T10:59:00 | 54.530676 | 7.524136 | 2.0 | 9.088 | 2 | 34.422 | 9.300 | 31.883 | 2 |
| 2025-04-17T11:00:00 | 54.530693 | 7.523972 | 2.0 | 9.090 | 2 | 34.415 | 9.294 | 31.881 | 2 |
| 2025-04-17T11:01:00 | 54.530743 | 7.523909 | 2.0 | 9.100 | 2 | 34.415 | 9.292 | 31.883 | 2 |
| 2025-04-17T11:02:00 | 54.530791 | 7.523903 | 2.0 | 9.119 | 2 | 34.421 | 9.313 | 31.870 | 2 |
| 2025-04-17T11:03:00 | 54.530828 | 7.523853 | 2.0 | 9.110 | 2 | 34.426 | 9.321 | 31.868 | 2 |
| 2025-04-17T11:04:00 | 54.530846 | 7.523752 | 2.0 | 9.112 | 2 | 34.422 | 9.317 | 31.868 | 2 |
| 2025-04-17T11:05:00 | 54.530864 | 7.523633 | 2.0 | 9.105 | 2 | 34.422 | 9.319 | 31.866 | 2 |
| 2025-04-17T11:06:00 | 54.530952 | 7.523293 | 2.0 | 9.100 | 2 | 34.420 | 9.315 | 31.868 | 2 |
| 2025-04-17T11:07:00 | 54.531047 | 7.522886 | 2.0 | 9.099 | 2 | 34.416 | 9.311 | 31.867 | 2 |
| 2025-04-17T11:08:00 | 54.531245 | 7.522781 | 2.0 | 9.095 | 2 | 34.417 | 9.311 | 31.868 | 2 |
| 2025-04-17T11:09:00 | 54.531269 | 7.522783 | 2.0 | 9.094 | 2 | 34.412 | 9.296 | 31.876 | 2 |
| 2025-04-17T11:10:00 | 54.531181 | 7.523078 | 2.0 | 8.510 | 2 | 34.410 | 9.270 | 31.898 | 2 |
| 2025-04-17T11:11:00 | 54.531207 | 7.523077 | 2.0 | 8.924 | 2 | 34.223 | 8.801 | 32.126 | 2 |
| 2025-04-17T11:12:00 | 54.531207 | 7.523008 | 2.0 | 9.092 | 2 | 34.324 | 9.150 | 31.916 | 2 |
| 2025-04-17T11:13:00 | 54.531192 | 7.522914 | 2.0 | 9.092 | 2 | 34.414 | 9.294 | 31.880 | 2 |
| 2025-04-17T11:14:00 | 54.531199 | 7.522817 | 2.0 | 9.092 | 2 | 34.430 | 9.303 | 31.889 | 2 |
| 2025-04-17T11:15:00 | 54.531207 | 7.522733 | 2.0 | 9.090 | 2 | 34.435 | 9.303 | 31.894 | 2 |
| 2025-04-17T11:16:00 | 54.531210 | 7.522644 | 2.0 | 9.088 | 2 | 34.438 | 9.304 | 31.896 | 2 |
| 2025-04-17T11:17:00 | 54.531218 | 7.522562 | 2.0 | 9.086 | 2 | 34.440 | 9.302 | 31.900 | 2 |
| 2025-04-17T11:18:00 | 54.531223 | 7.522500 | 2.0 | 9.081 | 2 | 34.440 | 9.298 | 31.903 | 2 |
| 2025-04-17T11:19:00 | 54.531225 | 7.522432 | 2.0 | 9.084 | 2 | 34.434 | 9.295 | 31.900 | 2 |
| 2025-04-17T11:20:00 | 54.531231 | 7.522385 | 2.0 | 9.087 | 2 | 34.442 | 9.298 | 31.905 | 2 |
| 2025-04-17T11:21:00 | 54.531258 | 7.522297 | 2.0 | 9.091 | 2 | 34.447 | 9.300 | 31.909 | 2 |
| 2025-04-17T11:22:00 | 54.531266 | 7.522251 | 2.0 | 9.095 | 2 | 34.454 | 9.303 | 31.913 | 2 |
| 2025-04-17T11:23:00 | 54.531058 | 7.522206 | 2.0 | 9.096 | 2 | 33.972 | 9.307 | 31.415 | 2 |
| 2025-04-17T11:24:00 | 54.530545 | 7.521889 | 2.0 | 9.092 | 2 | 34.466 | 9.308 | 31.921 | 2 |
| 2025-04-17T11:25:00 | 54.530088 | 7.521102 | 2.0 | 9.080 | 2 | 34.086 | 9.302 | 31.536 | 2 |
| 2025-04-17T11:26:00 | 54.529942 | 7.520264 | 2.0 | 9.079 | 2 | 33.935 | 9.291 | 31.391 | 2 |
| 2025-04-17T11:27:00 | 54.530036 | 7.519575 | 2.0 | 9.080 | 2 | 34.453 | 9.291 | 31.923 | 2 |
| 2025-04-17T11:28:00 | 54.530147 | 7.519096 | 2.0 | 9.088 | 2 | 34.456 | 9.293 | 31.924 | 2 |
| 2025-04-17T11:29:00 | 54.530237 | 7.518753 | 2.0 | 9.089 | 2 | 34.260 | 9.295 | 31.721 | 2 |
| 2025-04-17T11:30:00 | 54.530371 | 7.518339 | 2.0 | 9.093 | 2 | 34.168 | 9.303 | 31.619 | 2 |
| 2025-04-17T11:31:00 | 54.530443 | 7.517985 | 2.0 | 9.081 | 2 | 34.475 | 9.301 | 31.937 | 2 |
| 2025-04-17T11:32:00 | 54.530565 | 7.517719 | 2.0 | 9.072 | 2 | 34.178 | 9.291 | 31.640 | 2 |
| 2025-04-17T11:33:00 | 54.530697 | 7.517380 | 2.0 | 9.062 | 2 | 33.993 | 9.281 | 31.459 | 2 |
| 2025-04-17T11:34:00 | 54.530740 | 7.517230 | 2.0 | 8.966 | 2 | 34.221 | 9.228 | 31.740 | 2 |
| 2025-04-17T11:35:00 | 54.530752 | 7.517055 | 2.0 | 9.060 | 2 | 34.061 | 9.226 | 31.578 | 2 |
| 2025-04-17T11:36:00 | 54.530771 | 7.516915 | 2.0 | 9.072 | 2 | 34.355 | 9.272 | 31.839 | 2 |
| 2025-04-17T11:37:00 | 54.530812 | 7.516765 | 2.0 | 9.076 | 2 | 34.142 | 9.276 | 31.617 | 2 |
| 2025-04-17T11:38:00 | 54.530935 | 7.516453 | 2.0 | 9.080 | 2 | 34.375 | 9.287 | 31.846 | 2 |
| 2025-04-17T11:39:00 | 54.530954 | 7.516436 | 2.0 | 8.991 | 2 | 34.297 | 9.246 | 31.803 | 2 |
| 2025-04-17T11:40:00 | 54.531035 | 7.516368 | 2.0 | 9.065 | 2 | 34.232 | 9.228 | 31.752 | 2 |
| 2025-04-17T11:41:00 | 54.531116 | 7.516174 | 2.0 | 9.081 | 2 | 34.030 | 9.281 | 31.497 | 2 |
| 2025-04-17T11:42:00 | 54.531220 | 7.515769 | 2.0 | 9.068 | 2 | 34.083 | 9.290 | 31.544 | 2 |
| 2025-04-17T11:43:00 | 54.531326 | 7.515299 | 2.0 | 9.068 | 2 | 34.317 | 9.284 | 31.789 | 2 |
| 2025-04-17T11:44:00 | 54.531455 | 7.514759 | 2.0 | 9.072 | 2 | 34.359 | 9.285 | 31.832 | 2 |
| 2025-04-17T11:45:00 | 54.531607 | 7.514176 | 2.0 | 9.076 | 2 | 34.061 | 9.288 | 31.523 | 2 |
| 2025-04-17T11:46:00 | 54.531774 | 7.513565 | 2.0 | 9.080 | 2 | 33.952 | 9.293 | 31.407 | 2 |
| 2025-04-17T11:47:00 | 54.531927 | 7.512976 | 2.0 | 9.081 | 2 | 34.522 | 9.292 | 31.993 | 2 |
| 2025-04-17T11:48:00 | 54.532065 | 7.512433 | 2.0 | 9.088 | 2 | 34.531 | 9.299 | 31.996 | 2 |
| 2025-04-17T11:49:00 | 54.532209 | 7.511902 | 2.0 | 9.092 | 2 | 34.533 | 9.301 | 31.996 | 2 |
| 2025-04-17T11:50:00 | 54.532344 | 7.511379 | 2.0 | 9.100 | 2 | 34.534 | 9.309 | 31.990 | 2 |
| 2025-04-17T11:51:00 | 54.532472 | 7.510860 | 2.0 | 9.103 | 2 | 34.534 | 9.311 | 31.988 | 2 |
| 2025-04-17T11:52:00 | 54.532605 | 7.510335 | 2.0 | 9.111 | 2 | 34.538 | 9.319 | 31.985 | 2 |
| 2025-04-17T11:53:00 | 54.532747 | 7.509801 | 2.0 | 9.119 | 2 | 34.543 | 9.323 | 31.987 | 2 |
| 2025-04-17T11:54:00 | 54.532875 | 7.509254 | 2.0 | 9.122 | 2 | 34.551 | 9.330 | 31.989 | 2 |
| 2025-04-17T11:55:00 | 54.533007 | 7.508699 | 2.0 | 9.118 | 2 | 34.558 | 9.333 | 31.993 | 2 |
| 2025-04-17T11:56:00 | 54.533143 | 7.508137 | 2.0 | 9.120 | 2 | 34.553 | 9.329 | 31.992 | 2 |
| 2025-04-17T11:57:00 | 54.533548 | 7.507807 | 2.0 | 9.187 | 2 | 34.573 | 9.347 | 31.996 | 2 |
| 2025-04-17T11:58:00 | 54.534346 | 7.508443 | 2.0 | 9.162 | 2 | 34.640 | 9.388 | 32.028 | 2 |
| 2025-04-17T11:59:00 | 54.534487 | 7.510574 | 2.0 | 9.139 | 2 | 34.627 | 9.368 | 32.033 | 2 |
| 2025-04-17T12:00:00 | 54.534355 | 7.513392 | 2.0 | 9.112 | 2 | 34.599 | 9.348 | 32.022 | 2 |
| 2025-04-17T12:01:00 | 54.534214 | 7.516605 | 2.0 | 9.127 | 2 | 34.569 | 9.322 | 32.015 | 2 |
| 2025-04-17T12:02:00 | 54.534070 | 7.519726 | 2.0 | 9.173 | 2 | 34.445 | 9.355 | 31.858 | 2 |
| 2025-04-17T12:03:00 | 54.533658 | 7.522656 | 2.0 | 9.164 | 2 | 34.670 | 9.374 | 32.072 | 2 |
| 2025-04-17T12:04:00 | 54.532986 | 7.525249 | 2.0 | 9.185 | 2 | 34.677 | 9.380 | 32.074 | 2 |
| 2025-04-17T12:05:00 | 54.532178 | 7.525835 | 2.0 | 9.160 | 2 | 34.692 | 9.390 | 32.080 | 2 |
| 2025-04-17T12:06:00 | 54.531818 | 7.525834 | 2.0 | 9.143 | 2 | 34.665 | 9.365 | 32.075 | 2 |
| 2025-04-17T12:07:00 | 54.531592 | 7.525683 | 2.0 | 9.109 | 2 | 34.655 | 9.362 | 32.067 | 2 |
| 2025-04-17T12:08:00 | 54.531434 | 7.525187 | 2.0 | 9.047 | 2 | 34.587 | 9.301 | 32.052 | 2 |
| 2025-04-17T12:09:00 | 54.531391 | 7.524864 | 2.0 | 9.083 | 2 | 34.530 | 9.271 | 32.020 | 2 |
| 2025-04-17T12:10:00 | 54.531299 | 7.524691 | 2.0 | 9.086 | 2 | 34.555 | 9.294 | 32.025 | 2 |
| 2025-04-17T12:11:00 | 54.531233 | 7.524603 | 2.0 | 9.087 | 2 | 34.557 | 9.297 | 32.025 | 2 |
| 2025-04-17T12:12:00 | 54.531146 | 7.524542 | 2.0 | 9.076 | 2 | 34.554 | 9.296 | 32.022 | 2 |
| 2025-04-17T12:13:00 | 54.531094 | 7.524407 | 2.0 | 9.074 | 2 | 34.541 | 9.287 | 32.017 | 2 |
| 2025-04-17T12:14:00 | 54.531095 | 7.523900 | 2.0 | 9.087 | 2 | 34.537 | 9.290 | 32.010 | 2 |
| 2025-04-17T12:15:00 | 54.531271 | 7.523111 | 2.0 | 9.103 | 2 | 34.541 | 9.301 | 32.005 | 2 |
| 2025-04-17T12:16:00 | 54.531599 | 7.521859 | 2.0 | 9.116 | 2 | 34.467 | 9.317 | 31.914 | 2 |
| 2025-04-17T12:17:00 | 54.531647 | 7.520238 | 2.0 | 9.128 | 2 | 34.237 | 9.331 | 31.666 | 2 |
| 2025-04-17T12:18:00 | 54.531672 | 7.518338 | 2.0 | 9.126 | 2 | 34.567 | 9.339 | 31.997 | 2 |
| 2025-04-17T12:19:00 | 54.531743 | 7.516307 | 2.0 | 9.185 | 2 | 34.570 | 9.340 | 31.999 | 2 |
| 2025-04-17T12:20:00 | 54.531760 | 7.514171 | 2.0 | 9.225 | 2 | 34.645 | 9.400 | 32.023 | 2 |
| 2025-04-17T12:21:00 | 54.531735 | 7.511967 | 2.0 | 9.226 | 2 | 34.712 | 9.439 | 32.057 | 2 |
| 2025-04-17T12:22:00 | 54.531973 | 7.509856 | 2.0 | 9.217 | 2 | 34.485 | 9.435 | 31.828 | 2 |
| 2025-04-17T12:23:00 | 54.532821 | 7.508715 | 2.0 | 9.216 | 2 | 34.112 | 9.427 | 31.453 | 2 |
| 2025-04-17T12:24:00 | 54.534013 | 7.508985 | 2.0 | 9.216 | 2 | 34.696 | 9.428 | 32.050 | 2 |
| 2025-04-17T12:25:00 | 54.534940 | 7.510295 | 2.0 | 9.218 | 2 | 34.693 | 9.427 | 32.048 | 2 |
| 2025-04-17T12:26:00 | 54.534894 | 7.512642 | 2.0 | 9.218 | 2 | 34.661 | 9.429 | 32.013 | 2 |
| 2025-04-17T12:27:00 | 54.534476 | 7.514882 | 2.0 | 9.220 | 2 | 34.472 | 9.430 | 31.819 | 2 |
| 2025-04-17T12:28:00 | 54.533475 | 7.515690 | 2.0 | 9.219 | 2 | 34.366 | 9.429 | 31.711 | 2 |
| 2025-04-17T12:29:00 | 54.532441 | 7.515727 | 2.0 | 9.222 | 2 | 34.295 | 9.431 | 31.637 | 2 |
| 2025-04-17T12:30:00 | 54.531409 | 7.515521 | 2.0 | 9.226 | 2 | 34.505 | 9.433 | 31.850 | 2 |
| 2025-04-17T12:31:00 | 54.530297 | 7.515509 | 2.0 | 9.188 | 2 | 34.325 | 9.434 | 31.665 | 2 |
| 2025-04-17T12:32:00 | 54.529137 | 7.515574 | 2.0 | 9.132 | 2 | 34.264 | 9.390 | 31.641 | 2 |
| 2025-04-17T12:33:00 | 54.528009 | 7.515462 | 2.0 | 9.101 | 2 | 34.153 | 9.342 | 31.570 | 2 |
| 2025-04-17T12:34:00 | 54.527533 | 7.514478 | 2.0 | 9.089 | 2 | 34.134 | 9.307 | 31.581 | 2 |
| 2025-04-17T12:35:00 | 54.527412 | 7.512976 | 2.0 | 9.098 | 2 | 34.176 | 9.301 | 31.629 | 2 |
| 2025-04-17T12:36:00 | 54.527758 | 7.511417 | 2.0 | 9.125 | 2 | 34.328 | 9.314 | 31.774 | 2 |
| 2025-04-17T12:37:00 | 54.528254 | 7.509687 | 2.0 | 9.154 | 2 | 34.366 | 9.337 | 31.793 | 2 |
| 2025-04-17T12:38:00 | 54.529100 | 7.508719 | 2.0 | 9.192 | 2 | 34.421 | 9.373 | 31.817 | 2 |
| 2025-04-17T12:39:00 | 54.530060 | 7.509705 | 2.0 | 9.208 | 2 | 34.528 | 9.402 | 31.901 | 2 |
| 2025-04-17T12:40:00 | 54.530282 | 7.511969 | 2.0 | 9.224 | 2 | 34.415 | 9.420 | 31.769 | 2 |
| 2025-04-17T12:41:00 | 54.530326 | 7.514321 | 2.0 | 9.214 | 2 | 34.552 | 9.432 | 31.899 | 2 |
| 2025-04-17T12:42:00 | 54.530389 | 7.516652 | 2.0 | 9.221 | 2 | 34.523 | 9.425 | 31.875 | 2 |
| 2025-04-17T12:43:00 | 54.530344 | 7.519002 | 2.0 | 9.231 | 2 | 34.591 | 9.433 | 31.938 | 2 |
| 2025-04-17T12:44:00 | 54.530113 | 7.521266 | 2.0 | 9.234 | 2 | 34.523 | 9.441 | 31.861 | 2 |
| 2025-04-17T12:45:00 | 54.529181 | 7.522914 | 2.0 | 9.157 | 2 | 34.599 | 9.431 | 31.948 | 2 |
| 2025-04-17T12:46:00 | 54.527934 | 7.523984 | 2.0 | 9.092 | 2 | 34.340 | 9.353 | 31.752 | 2 |
| 2025-04-17T12:47:00 | 54.526886 | 7.523234 | 2.0 | 9.083 | 2 | 34.282 | 9.305 | 31.735 | 2 |
| 2025-04-17T12:48:00 | 54.526786 | 7.521574 | 2.0 | 9.081 | 2 | 34.290 | 9.293 | 31.754 | 2 |
| 2025-04-17T12:49:00 | 54.527532 | 7.520344 | 2.0 | 9.127 | 2 | 34.372 | 9.291 | 31.840 | 2 |
| 2025-04-17T12:50:00 | 54.528454 | 7.518898 | 2.0 | 9.197 | 2 | 34.432 | 9.349 | 31.850 | 2 |
| 2025-04-17T12:51:00 | 54.529605 | 7.518008 | 2.0 | 9.217 | 2 | 34.318 | 9.402 | 31.686 | 2 |
| 2025-04-17T12:52:00 | 54.530901 | 7.518161 | 2.0 | 9.226 | 2 | 34.588 | 9.426 | 31.941 | 2 |
| 2025-04-17T12:53:00 | 54.532090 | 7.518019 | 2.0 | 9.224 | 2 | 34.523 | 9.431 | 31.870 | 2 |
| 2025-04-17T12:54:00 | 54.533248 | 7.517870 | 2.0 | 9.230 | 2 | 34.473 | 9.433 | 31.817 | 2 |
| 2025-04-17T12:55:00 | 54.534320 | 7.517643 | 2.0 | 9.248 | 2 | 34.597 | 9.443 | 31.935 | 2 |
| 2025-04-17T12:56:00 | 54.535051 | 7.516919 | 2.0 | 9.258 | 2 | 34.532 | 9.457 | 31.856 | 2 |
| 2025-04-17T12:57:00 | 54.535547 | 7.515683 | 2.0 | 9.260 | 2 | 34.621 | 9.466 | 31.939 | 2 |
| 2025-04-17T12:58:00 | 54.535950 | 7.514292 | 2.0 | 9.266 | 2 | 34.648 | 9.471 | 31.962 | 2 |
| 2025-04-17T12:59:00 | 54.536344 | 7.513040 | 2.0 | 9.268 | 2 | 34.592 | 9.475 | 31.902 | 2 |
| 2025-04-17T13:00:00 | 54.536915 | 7.512306 | 2.0 | 9.264 | 2 | 34.613 | 9.477 | 31.921 | 2 |
| 2025-04-17T13:01:00 | 54.537584 | 7.511659 | 2.0 | 9.267 | 2 | 34.575 | 9.474 | 31.885 | 2 |
| 2025-04-17T13:02:00 | 54.538080 | 7.510503 | 2.0 | 9.261 | 2 | 34.514 | 9.472 | 31.824 | 2 |
| 2025-04-17T13:03:00 | 54.538779 | 7.508014 | 2.0 | 9.258 | 2 | 34.504 | 9.470 | 31.816 | 2 |
| 2025-04-17T13:04:00 | 54.539850 | 7.504259 | 2.0 | 9.251 | 2 | 34.499 | 9.467 | 31.813 | 2 |
| 2025-04-17T13:05:00 | 54.541097 | 7.500201 | 2.0 | 9.248 | 2 | 34.479 | 9.462 | 31.797 | 2 |
| 2025-04-17T13:06:00 | 54.542401 | 7.496061 | 2.0 | 9.247 | 2 | 34.465 | 9.459 | 31.786 | 2 |
| 2025-04-17T13:07:00 | 54.543716 | 7.491896 | 2.0 | 9.251 | 2 | 34.482 | 9.461 | 31.801 | 2 |
| 2025-04-17T13:08:00 | 54.545039 | 7.487733 | 2.0 | 9.251 | 2 | 34.528 | 9.465 | 31.845 | 2 |
| 2025-04-17T13:09:00 | 54.546375 | 7.483582 | 2.0 | 9.250 | 2 | 34.531 | 9.466 | 31.847 | 2 |
| 2025-04-17T13:10:00 | 54.547708 | 7.479472 | 2.0 | 9.248 | 2 | 34.457 | 9.464 | 31.773 | 2 |
| 2025-04-17T13:11:00 | 54.549047 | 7.475351 | 2.0 | 9.249 | 2 | 34.563 | 9.462 | 31.883 | 2 |
| 2025-04-17T13:12:00 | 54.550392 | 7.471189 | 2.0 | 9.255 | 2 | 34.629 | 9.459 | 31.954 | 2 |
| 2025-04-17T13:13:00 | 54.551744 | 7.466994 | 2.0 | 9.260 | 2 | 34.617 | 9.456 | 31.944 | 2 |
| 2025-04-17T13:14:00 | 54.553112 | 7.462772 | 2.0 | 9.263 | 2 | 34.610 | 9.457 | 31.936 | 2 |
| 2025-04-17T13:15:00 | 54.554498 | 7.458542 | 2.0 | 9.265 | 2 | 34.604 | 9.456 | 31.931 | 2 |
| 2025-04-17T13:16:00 | 54.555884 | 7.454289 | 2.0 | 9.270 | 2 | 34.598 | 9.458 | 31.923 | 2 |
| 2025-04-17T13:17:00 | 54.557264 | 7.450047 | 2.0 | 9.273 | 2 | 34.593 | 9.462 | 31.914 | 2 |
| 2025-04-17T13:18:00 | 54.558639 | 7.445826 | 2.0 | 9.273 | 2 | 34.587 | 9.463 | 31.907 | 2 |
| 2025-04-17T13:19:00 | 54.560012 | 7.441593 | 2.0 | 9.274 | 2 | 34.584 | 9.462 | 31.905 | 2 |
| 2025-04-17T13:20:00 | 54.561398 | 7.437335 | 2.0 | 9.282 | 2 | 34.586 | 9.464 | 31.905 | 2 |
| 2025-04-17T13:21:00 | 54.562788 | 7.433047 | 2.0 | 9.289 | 2 | 34.589 | 9.469 | 31.904 | 2 |
| 2025-04-17T13:22:00 | 54.564175 | 7.428743 | 2.0 | 9.300 | 2 | 34.592 | 9.479 | 31.898 | 2 |
| 2025-04-17T13:23:00 | 54.565558 | 7.424446 | 2.0 | 9.306 | 2 | 34.597 | 9.488 | 31.895 | 2 |
| 2025-04-17T13:24:00 | 54.566944 | 7.420127 | 2.0 | 9.302 | 2 | 34.596 | 9.490 | 31.892 | 2 |
| 2025-04-17T13:25:00 | 54.568328 | 7.415799 | 2.0 | 9.295 | 2 | 34.590 | 9.486 | 31.890 | 2 |
| 2025-04-17T13:26:00 | 54.569615 | 7.411409 | 2.0 | 9.309 | 2 | 34.592 | 9.483 | 31.894 | 2 |
| 2025-04-17T13:27:00 | 54.570830 | 7.406959 | 2.0 | 9.303 | 2 | 34.611 | 9.494 | 31.904 | 2 |
| 2025-04-17T13:28:00 | 54.572033 | 7.402486 | 2.0 | 9.235 | 2 | 34.614 | 9.485 | 31.915 | 2 |
| 2025-04-17T13:29:00 | 54.573233 | 7.398008 | 2.0 | 9.224 | 2 | 34.545 | 9.420 | 31.902 | 2 |
| 2025-04-17T13:30:00 | 54.574437 | 7.393523 | 2.0 | 9.224 | 2 | 34.586 | 9.413 | 31.951 | 2 |
| 2025-04-17T13:31:00 | 54.575649 | 7.389070 | 2.0 | 9.162 | 2 | 34.593 | 9.399 | 31.970 | 2 |
| 2025-04-17T13:32:00 | 54.576846 | 7.384606 | 2.0 | 9.143 | 2 | 34.570 | 9.348 | 31.992 | 2 |
| 2025-04-17T13:33:00 | 54.578074 | 7.380167 | 2.0 | 9.135 | 2 | 34.571 | 9.327 | 32.012 | 2 |
| 2025-04-17T13:34:00 | 54.579250 | 7.375704 | 2.0 | 9.116 | 2 | 34.607 | 9.318 | 32.057 | 2 |
| 2025-04-17T13:35:00 | 54.580487 | 7.371308 | 2.0 | 9.083 | 2 | 34.612 | 9.297 | 32.081 | 2 |
| 2025-04-17T13:36:00 | 54.581672 | 7.366862 | 2.0 | 9.086 | 2 | 34.593 | 9.269 | 32.087 | 2 |
| 2025-04-17T13:37:00 | 54.582854 | 7.362405 | 2.0 | 9.110 | 2 | 34.619 | 9.274 | 32.109 | 2 |
| 2025-04-17T13:38:00 | 54.584030 | 7.357951 | 2.0 | 9.122 | 2 | 34.644 | 9.299 | 32.112 | 2 |
| 2025-04-17T13:39:00 | 54.585268 | 7.353540 | 2.0 | 9.097 | 2 | 34.657 | 9.302 | 32.123 | 2 |
| 2025-04-17T13:40:00 | 54.586453 | 7.349065 | 2.0 | 9.083 | 2 | 34.642 | 9.280 | 32.127 | 2 |
| 2025-04-17T13:41:00 | 54.587666 | 7.344598 | 2.0 | 9.104 | 2 | 34.624 | 9.275 | 32.113 | 2 |
| 2025-04-17T13:42:00 | 54.588886 | 7.340144 | 2.0 | 9.212 | 2 | 34.431 | 9.296 | 31.896 | 2 |
| 2025-04-17T13:43:00 | 54.590085 | 7.335679 | 2.0 | 9.271 | 2 | 34.830 | 9.410 | 32.204 | 2 |
| 2025-04-17T13:44:00 | 54.591251 | 7.331206 | 2.0 | 9.262 | 2 | 35.354 | 9.441 | 32.714 | 2 |
| 2025-04-17T13:45:00 | 54.592482 | 7.326791 | 2.0 | 9.297 | 2 | 35.404 | 9.450 | 32.757 | 2 |
| 2025-04-17T13:46:00 | 54.593654 | 7.322336 | 2.0 | 9.300 | 2 | 35.012 | 9.476 | 32.331 | 2 |
| 2025-04-17T13:47:00 | 54.594875 | 7.317908 | 2.0 | 9.301 | 2 | 35.499 | 9.481 | 32.826 | 2 |
| 2025-04-17T13:48:00 | 54.596084 | 7.313462 | 2.0 | 9.303 | 2 | 35.349 | 9.481 | 32.672 | 2 |
| 2025-04-17T13:49:00 | 54.597321 | 7.309033 | 2.0 | 9.316 | 2 | 35.434 | 9.486 | 32.755 | 2 |
| 2025-04-17T13:50:00 | 54.598527 | 7.304588 | 2.0 | 9.338 | 2 | 35.259 | 9.504 | 32.559 | 2 |
| 2025-04-17T13:51:00 | 54.599731 | 7.300155 | 2.0 | 9.331 | 2 | 35.347 | 9.517 | 32.637 | 2 |
| 2025-04-17T13:52:00 | 54.600938 | 7.295700 | 2.0 | 9.324 | 2 | 35.580 | 9.512 | 32.881 | 2 |
| 2025-04-17T13:53:00 | 54.602141 | 7.291239 | 2.0 | 9.276 | 2 | 35.559 | 9.492 | 32.878 | 2 |
| 2025-04-17T13:54:00 | 54.603365 | 7.286802 | 2.0 | 9.273 | 2 | 35.252 | 9.461 | 32.591 | 2 |
| 2025-04-17T13:55:00 | 54.604570 | 7.282330 | 2.0 | 9.282 | 2 | 34.993 | 9.455 | 32.330 | 2 |
| 2025-04-17T13:56:00 | 54.605789 | 7.277853 | 2.0 | 9.298 | 2 | 35.247 | 9.467 | 32.580 | 2 |
| 2025-04-17T13:57:00 | 54.607020 | 7.273366 | 2.0 | 9.329 | 2 | 35.318 | 9.482 | 32.640 | 2 |
| 2025-04-17T13:58:00 | 54.608244 | 7.268858 | 2.0 | 9.336 | 2 | 35.562 | 9.511 | 32.864 | 2 |
| 2025-04-17T13:59:00 | 54.609414 | 7.264327 | 2.0 | 9.317 | 2 | 35.599 | 9.515 | 32.898 | 2 |
| 2025-04-17T14:00:00 | 54.610634 | 7.259842 | 2.0 | 9.270 | 2 | 35.279 | 9.488 | 32.594 | 2 |
| 2025-04-17T14:01:00 | 54.611890 | 7.255398 | 2.0 | 9.249 | 2 | 35.510 | 9.450 | 32.866 | 2 |
| 2025-04-17T14:02:00 | 54.613091 | 7.250916 | 2.0 | 9.201 | 2 | 35.496 | 9.422 | 32.877 | 2 |
| 2025-04-17T14:03:00 | 54.614299 | 7.246434 | 2.0 | 9.189 | 2 | 35.477 | 9.382 | 32.895 | 2 |
| 2025-04-17T14:04:00 | 54.615497 | 7.241966 | 2.0 | 9.121 | 2 | 35.485 | 9.369 | 32.915 | 2 |
| 2025-04-17T14:05:00 | 54.616718 | 7.237504 | 2.0 | 8.983 | 2 | 35.510 | 9.273 | 33.029 | 2 |
| 2025-04-17T14:06:00 | 54.617907 | 7.233006 | 2.0 | 8.971 | 2 | 35.506 | 9.173 | 33.118 | 2 |
| 2025-04-17T14:07:00 | 54.619141 | 7.228533 | 2.0 | 9.027 | 2 | 35.521 | 9.159 | 33.146 | 2 |
| 2025-04-17T14:08:00 | 54.620334 | 7.224032 | 2.0 | 9.086 | 2 | 35.567 | 9.223 | 33.135 | 2 |
| 2025-04-17T14:09:00 | 54.621562 | 7.219541 | 2.0 | 9.120 | 2 | 35.599 | 9.269 | 33.125 | 2 |
| 2025-04-17T14:10:00 | 54.622782 | 7.214989 | 2.0 | 9.105 | 2 | 35.621 | 9.299 | 33.120 | 2 |
| 2025-04-17T14:11:00 | 54.624022 | 7.210417 | 2.0 | 9.100 | 2 | 35.635 | 9.282 | 33.150 | 2 |
| 2025-04-17T14:12:00 | 54.625217 | 7.205750 | 2.0 | 9.135 | 2 | 35.655 | 9.285 | 33.168 | 2 |
| 2025-04-17T14:13:00 | 54.626503 | 7.201132 | 2.0 | 9.141 | 2 | 35.716 | 9.318 | 33.200 | 2 |
| 2025-04-17T14:14:00 | 54.627733 | 7.196474 | 2.0 | 9.107 | 2 | 35.739 | 9.318 | 33.224 | 2 |
| 2025-04-17T14:15:00 | 54.629006 | 7.191833 | 2.0 | 9.079 | 2 | 35.722 | 9.279 | 33.243 | 2 |
| 2025-04-17T14:16:00 | 54.630252 | 7.187179 | 2.0 | 9.088 | 2 | 35.722 | 9.263 | 33.258 | 2 |
| 2025-04-17T14:17:00 | 54.631509 | 7.182541 | 2.0 | 9.084 | 2 | 35.717 | 9.266 | 33.250 | 2 |
| 2025-04-17T14:18:00 | 54.632770 | 7.177892 | 2.0 | 9.141 | 2 | 35.698 | 9.277 | 33.220 | 2 |
| 2025-04-17T14:19:00 | 54.634016 | 7.173196 | 2.0 | 9.156 | 2 | 35.688 | 9.320 | 33.170 | 2 |
| 2025-04-17T14:20:00 | 54.635324 | 7.168536 | 2.0 | 9.172 | 2 | 35.682 | 9.337 | 33.148 | 2 |
| 2025-04-17T14:21:00 | 54.636583 | 7.163811 | 2.0 | 9.179 | 2 | 35.675 | 9.351 | 33.127 | 2 |
| 2025-04-17T14:22:00 | 54.637883 | 7.159097 | 2.0 | 9.165 | 2 | 35.659 | 9.355 | 33.107 | 2 |
| 2025-04-17T14:23:00 | 54.639164 | 7.154346 | 2.0 | 9.156 | 2 | 35.629 | 9.344 | 33.086 | 2 |
| 2025-04-17T14:24:00 | 54.640409 | 7.149596 | 2.0 | 9.133 | 2 | 35.599 | 9.331 | 33.068 | 2 |
| 2025-04-17T14:25:00 | 54.641711 | 7.144886 | 2.0 | 9.130 | 2 | 35.571 | 9.312 | 33.056 | 2 |
| 2025-04-17T14:26:00 | 54.642984 | 7.140156 | 2.0 | 9.111 | 2 | 35.557 | 9.309 | 33.045 | 2 |
| 2025-04-17T14:27:00 | 54.644234 | 7.135425 | 2.0 | 9.051 | 2 | 35.525 | 9.280 | 33.038 | 2 |
| 2025-04-17T14:28:00 | 54.645544 | 7.130721 | 2.0 | 8.996 | 2 | 35.462 | 9.226 | 33.023 | 2 |
| 2025-04-17T14:29:00 | 54.646832 | 7.126005 | 2.0 | 8.978 | 2 | 35.405 | 9.173 | 33.013 | 2 |
| 2025-04-17T14:30:00 | 54.648107 | 7.121297 | 2.0 | 8.977 | 2 | 35.386 | 9.161 | 33.005 | 2 |
| 2025-04-17T14:31:00 | 54.649384 | 7.116576 | 2.0 | 8.964 | 2 | 35.381 | 9.157 | 33.003 | 2 |
| 2025-04-17T14:32:00 | 54.650675 | 7.111833 | 2.0 | 8.947 | 2 | 35.367 | 9.143 | 33.002 | 2 |
| 2025-04-17T14:33:00 | 54.651968 | 7.107070 | 2.0 | 8.943 | 2 | 35.358 | 9.127 | 33.007 | 2 |
| 2025-04-17T14:34:00 | 54.653269 | 7.102306 | 2.0 | 8.935 | 2 | 35.356 | 9.124 | 33.008 | 2 |
| 2025-04-17T14:35:00 | 54.654557 | 7.097513 | 2.0 | 8.952 | 2 | 35.344 | 9.114 | 33.005 | 2 |
| 2025-04-17T14:36:00 | 54.655847 | 7.092721 | 2.0 | 8.979 | 2 | 35.350 | 9.137 | 32.989 | 2 |
| 2025-04-17T14:37:00 | 54.657125 | 7.087920 | 2.0 | 8.973 | 2 | 35.380 | 9.156 | 33.003 | 2 |
| 2025-04-17T14:38:00 | 54.658430 | 7.083159 | 2.0 | 8.962 | 2 | 35.402 | 9.150 | 33.031 | 2 |
| 2025-04-17T14:39:00 | 54.659727 | 7.078396 | 2.0 | 8.951 | 2 | 35.405 | 9.141 | 33.043 | 2 |
| 2025-04-17T14:40:00 | 54.661003 | 7.073621 | 2.0 | 8.910 | 2 | 35.407 | 9.128 | 33.057 | 2 |
| 2025-04-17T14:41:00 | 54.662296 | 7.068856 | 2.0 | 8.862 | 2 | 35.434 | 9.084 | 33.126 | 2 |
| 2025-04-17T14:42:00 | 54.663585 | 7.064090 | 2.0 | 8.815 | 2 | 35.473 | 9.032 | 33.215 | 2 |
| 2025-04-17T14:43:00 | 54.664870 | 7.059303 | 2.0 | 8.843 | 2 | 35.479 | 9.005 | 33.246 | 2 |
| 2025-04-17T14:44:00 | 54.666141 | 7.054490 | 2.0 | 8.856 | 2 | 35.485 | 9.023 | 33.236 | 2 |
| 2025-04-17T14:45:00 | 54.667436 | 7.049701 | 2.0 | 8.797 | 2 | 35.489 | 9.026 | 33.237 | 2 |
| 2025-04-17T14:46:00 | 54.668746 | 7.044926 | 2.0 | 8.635 | 2 | 35.526 | 8.950 | 33.347 | 2 |
| 2025-04-17T14:47:00 | 54.670019 | 7.040108 | 2.0 | 8.560 | 2 | 35.548 | 8.817 | 33.495 | 2 |
| 2025-04-17T14:48:00 | 54.671346 | 7.035303 | 2.0 | 8.464 | 2 | 35.507 | 8.740 | 33.525 | 2 |
| 2025-04-17T14:49:00 | 54.672617 | 7.030464 | 2.0 | 8.250 | 2 | 35.474 | 8.609 | 33.615 | 2 |
| 2025-04-17T14:50:00 | 54.673949 | 7.025672 | 2.0 | 8.217 | 2 | 35.486 | 8.422 | 33.806 | 2 |
| 2025-04-17T14:51:00 | 54.675251 | 7.020870 | 2.0 | 8.344 | 2 | 35.570 | 8.420 | 33.897 | 2 |
| 2025-04-17T14:52:00 | 54.676547 | 7.016059 | 2.0 | 8.426 | 2 | 35.657 | 8.549 | 33.865 | 2 |
| 2025-04-17T14:53:00 | 54.677835 | 7.011250 | 2.0 | 8.430 | 2 | 35.697 | 8.603 | 33.856 | 2 |
| 2025-04-17T14:54:00 | 54.679121 | 7.006451 | 2.0 | 8.449 | 2 | 35.695 | 8.614 | 33.843 | 2 |
| 2025-04-17T14:55:00 | 54.680414 | 7.001648 | 2.0 | 8.455 | 2 | 35.708 | 8.630 | 33.841 | 2 |
| 2025-04-17T14:56:00 | 54.681756 | 6.996854 | 2.0 | 8.450 | 2 | 35.710 | 8.630 | 33.843 | 2 |
| 2025-04-17T14:57:00 | 54.683047 | 6.991998 | 2.0 | 8.473 | 2 | 35.708 | 8.637 | 33.835 | 2 |
| 2025-04-17T14:58:00 | 54.684362 | 6.987149 | 2.0 | 8.444 | 2 | 35.696 | 8.646 | 33.813 | 2 |
| 2025-04-17T14:59:00 | 54.685680 | 6.982277 | 2.0 | 8.427 | 2 | 35.698 | 8.624 | 33.837 | 2 |
| 2025-04-17T15:00:00 | 54.686997 | 6.977407 | 2.0 | 8.445 | 2 | 35.692 | 8.608 | 33.846 | 2 |
| 2025-04-17T15:01:00 | 54.688327 | 6.972547 | 2.0 | 8.390 | 2 | 35.704 | 8.621 | 33.846 | 2 |
| 2025-04-17T15:02:00 | 54.689654 | 6.967682 | 2.0 | 8.386 | 2 | 35.682 | 8.567 | 33.874 | 2 |
| 2025-04-17T15:03:00 | 54.690970 | 6.962798 | 2.0 | 8.334 | 2 | 35.668 | 8.564 | 33.862 | 2 |
| 2025-04-17T15:04:00 | 54.692285 | 6.957909 | 2.0 | 8.306 | 2 | 35.658 | 8.507 | 33.907 | 2 |
| 2025-04-17T15:05:00 | 54.693617 | 6.953061 | 2.0 | 8.291 | 2 | 35.682 | 8.487 | 33.951 | 2 |
| 2025-04-17T15:06:00 | 54.694911 | 6.948184 | 2.0 | 8.227 | 2 | 35.699 | 8.473 | 33.983 | 2 |
| 2025-04-17T15:07:00 | 54.696267 | 6.943365 | 2.0 | 8.181 | 2 | 35.647 | 8.405 | 33.993 | 2 |
| 2025-04-17T15:08:00 | 54.697561 | 6.938480 | 2.0 | 8.309 | 2 | 35.638 | 8.374 | 34.014 | 2 |
| 2025-04-17T15:09:00 | 54.698857 | 6.933620 | 2.0 | 8.410 | 2 | 35.781 | 8.505 | 34.039 | 2 |
| 2025-04-17T15:10:00 | 54.700181 | 6.928787 | 2.0 | 8.440 | 2 | 35.889 | 8.593 | 34.068 | 2 |
| 2025-04-17T15:11:00 | 54.701486 | 6.923960 | 2.0 | 8.393 | 2 | 35.935 | 8.605 | 34.105 | 2 |
| 2025-04-17T15:12:00 | 54.702802 | 6.919173 | 2.0 | 8.445 | 2 | 35.931 | 8.586 | 34.119 | 2 |
| 2025-04-17T15:13:00 | 54.704087 | 6.914343 | 2.0 | 8.486 | 2 | 35.977 | 8.628 | 34.127 | 2 |
| 2025-04-17T15:14:00 | 54.705420 | 6.909520 | 2.0 | 8.469 | 2 | 36.003 | 8.661 | 34.122 | 2 |
| 2025-04-17T15:15:00 | 54.706692 | 6.904663 | 2.0 | 8.396 | 2 | 35.976 | 8.640 | 34.114 | 2 |
| 2025-04-17T15:16:00 | 54.707968 | 6.899794 | 2.0 | 8.298 | 2 | 35.899 | 8.559 | 34.111 | 2 |
| 2025-04-17T15:17:00 | 54.709294 | 6.894967 | 2.0 | 8.276 | 2 | 35.815 | 8.477 | 34.102 | 2 |
| 2025-04-17T15:18:00 | 54.710620 | 6.890149 | 2.0 | 8.303 | 2 | 35.792 | 8.462 | 34.092 | 2 |
| 2025-04-17T15:19:00 | 54.711906 | 6.885290 | 2.0 | 8.333 | 2 | 35.817 | 8.491 | 34.090 | 2 |
| 2025-04-17T15:20:00 | 54.713212 | 6.880420 | 2.0 | 8.368 | 2 | 35.847 | 8.523 | 34.091 | 2 |
| 2025-04-17T15:21:00 | 54.714546 | 6.875553 | 2.0 | 8.368 | 2 | 35.870 | 8.548 | 34.091 | 2 |
| 2025-04-17T15:22:00 | 54.715861 | 6.870695 | 2.0 | 8.171 | 2 | 35.870 | 8.529 | 34.110 | 2 |
| 2025-04-17T15:23:00 | 54.717119 | 6.865813 | 2.0 | 7.974 | 2 | 35.734 | 8.318 | 34.170 | 2 |
| 2025-04-17T15:24:00 | 54.718444 | 6.861040 | 2.0 | 7.960 | 2 | 35.649 | 8.174 | 34.220 | 2 |
| 2025-04-17T15:25:00 | 54.719717 | 6.856231 | 2.0 | 7.954 | 2 | 35.634 | 8.143 | 34.234 | 2 |
| 2025-04-17T15:26:00 | 54.721015 | 6.851446 | 2.0 | 7.911 | 2 | 35.626 | 8.138 | 34.230 | 2 |
| 2025-04-17T15:27:00 | 54.722343 | 6.846706 | 2.0 | 7.909 | 2 | 35.590 | 8.100 | 34.229 | 2 |
| 2025-04-17T15:28:00 | 54.723608 | 6.841920 | 2.0 | 7.904 | 2 | 35.577 | 8.095 | 34.220 | 2 |
| 2025-04-17T15:29:00 | 54.724903 | 6.837135 | 2.0 | 7.902 | 2 | 35.576 | 8.089 | 34.225 | 2 |
| 2025-04-17T15:30:00 | 54.726193 | 6.832354 | 2.0 | 7.985 | 2 | 35.590 | 8.092 | 34.237 | 2 |
| 2025-04-17T15:31:00 | 54.727463 | 6.827531 | 2.0 | 8.179 | 2 | 35.678 | 8.198 | 34.227 | 2 |
| 2025-04-17T15:32:00 | 54.728774 | 6.822712 | 2.0 | 8.244 | 2 | 35.822 | 8.359 | 34.224 | 2 |
| 2025-04-17T15:33:00 | 54.730083 | 6.817873 | 2.0 | 8.306 | 2 | 35.881 | 8.428 | 34.219 | 2 |
| 2025-04-17T15:34:00 | 54.731370 | 6.813016 | 2.0 | 8.340 | 2 | 35.916 | 8.484 | 34.202 | 2 |
| 2025-04-17T15:35:00 | 54.732705 | 6.808182 | 2.0 | 8.313 | 2 | 35.935 | 8.517 | 34.190 | 2 |
| 2025-04-17T15:36:00 | 54.733985 | 6.803292 | 2.0 | 8.372 | 2 | 35.909 | 8.489 | 34.190 | 2 |
| 2025-04-17T15:37:00 | 54.735340 | 6.798458 | 2.0 | 8.333 | 2 | 35.943 | 8.541 | 34.175 | 2 |
| 2025-04-17T15:38:00 | 54.736711 | 6.793649 | 2.0 | 8.384 | 2 | 35.928 | 8.513 | 34.186 | 2 |
| 2025-04-17T15:39:00 | 54.738058 | 6.788932 | 2.0 | 8.288 | 2 | 35.957 | 8.544 | 34.187 | 2 |
| 2025-04-17T15:40:00 | 54.739110 | 6.785015 | 2.0 | 8.188 | 2 | 35.901 | 8.453 | 34.216 | 2 |
| 2025-04-17T15:41:00 | 54.740032 | 6.781833 | 2.0 | 8.117 | 2 | 35.830 | 8.357 | 34.234 | 2 |
| 2025-04-17T15:42:00 | 54.740855 | 6.779301 | 2.0 | 8.080 | 2 | 35.775 | 8.294 | 34.237 | 2 |
| 2025-04-17T15:43:00 | 54.741513 | 6.777209 | 2.0 | 8.055 | 2 | 35.755 | 8.264 | 34.245 | 2 |
| 2025-04-17T15:44:00 | 54.742071 | 6.775556 | 2.0 | 8.044 | 2 | 35.754 | 8.245 | 34.262 | 2 |
| 2025-04-17T15:45:00 | 54.742588 | 6.775002 | 2.0 | 8.057 | 2 | 35.755 | 8.243 | 34.265 | 2 |
| 2025-04-17T15:46:00 | 54.742749 | 6.775177 | 2.0 | 8.059 | 2 | 35.765 | 8.258 | 34.261 | 2 |
| 2025-04-17T15:47:00 | 54.742667 | 6.775427 | 2.0 | 8.068 | 2 | 35.768 | 8.262 | 34.261 | 2 |
| 2025-04-17T15:48:00 | 54.742569 | 6.775536 | 2.0 | 8.074 | 2 | 35.771 | 8.268 | 34.258 | 2 |
| 2025-04-17T15:49:00 | 54.742483 | 6.775665 | 2.0 | 8.084 | 2 | 35.766 | 8.269 | 34.252 | 2 |
| 2025-04-17T15:50:00 | 54.742391 | 6.775769 | 2.0 | 8.087 | 2 | 35.761 | 8.270 | 34.246 | 2 |
| 2025-04-17T15:51:00 | 54.742331 | 6.775945 | 2.0 | 8.201 | 2 | 35.761 | 8.283 | 34.233 | 2 |
| 2025-04-17T15:52:00 | 54.742140 | 6.776171 | 2.0 | 8.156 | 2 | 35.806 | 8.367 | 34.199 | 2 |
| 2025-04-17T15:53:00 | 54.741851 | 6.775957 | 2.0 | 8.082 | 2 | 35.789 | 8.318 | 34.229 | 2 |
| 2025-04-17T15:54:00 | 54.741665 | 6.775442 | 2.0 | 8.080 | 2 | 35.755 | 8.266 | 34.243 | 2 |
| 2025-04-17T15:55:00 | 54.741845 | 6.774409 | 2.0 | 8.077 | 2 | 35.750 | 8.260 | 34.244 | 2 |
| 2025-04-17T15:56:00 | 54.742480 | 6.773202 | 2.0 | 8.059 | 2 | 35.751 | 8.253 | 34.251 | 2 |
| 2025-04-17T15:57:00 | 54.743316 | 6.772299 | 2.0 | 8.113 | 2 | 35.749 | 8.247 | 34.255 | 2 |
| 2025-04-17T15:58:00 | 54.744309 | 6.771518 | 2.0 | 8.123 | 2 | 35.769 | 8.302 | 34.223 | 2 |
| 2025-04-17T15:59:00 | 54.745390 | 6.770931 | 2.0 | 8.101 | 2 | 35.772 | 8.298 | 34.230 | 2 |
| 2025-04-17T16:00:00 | 54.746486 | 6.770550 | 2.0 | 8.215 | 2 | 35.768 | 8.296 | 34.228 | 2 |
| 2025-04-17T16:01:00 | 54.747581 | 6.770195 | 2.0 | 8.256 | 2 | 35.825 | 8.391 | 34.196 | 2 |
| 2025-04-17T16:02:00 | 54.748667 | 6.769906 | 2.0 | 8.322 | 2 | 35.861 | 8.442 | 34.184 | 2 |
| 2025-04-17T16:03:00 | 54.749727 | 6.770471 | 2.0 | 8.365 | 2 | 35.907 | 8.503 | 34.174 | 2 |
| 2025-04-17T16:04:00 | 54.750331 | 6.772272 | 2.0 | 8.391 | 2 | 35.938 | 8.542 | 34.169 | 2 |
| 2025-04-17T16:05:00 | 54.750029 | 6.774249 | 2.0 | 8.441 | 2 | 35.964 | 8.573 | 34.166 | 2 |
| 2025-04-17T16:06:00 | 54.749078 | 6.775665 | 2.0 | 8.452 | 2 | 35.996 | 8.615 | 34.160 | 2 |
| 2025-04-17T16:07:00 | 54.748018 | 6.776924 | 2.0 | 8.430 | 2 | 35.999 | 8.621 | 34.157 | 2 |
| 2025-04-17T16:08:00 | 54.746761 | 6.777025 | 2.0 | 8.399 | 2 | 35.977 | 8.601 | 34.153 | 2 |
| 2025-04-17T16:09:00 | 54.745833 | 6.775655 | 2.0 | 8.356 | 2 | 35.959 | 8.570 | 34.164 | 2 |
| 2025-04-17T16:10:00 | 54.745606 | 6.773639 | 2.0 | 8.339 | 2 | 35.932 | 8.531 | 34.173 | 2 |
| 2025-04-17T16:11:00 | 54.746084 | 6.771945 | 2.0 | 8.335 | 2 | 35.918 | 8.514 | 34.175 | 2 |
| 2025-04-17T16:12:00 | 54.746973 | 6.770918 | 2.0 | 8.340 | 2 | 35.915 | 8.512 | 34.174 | 2 |
| 2025-04-17T16:13:00 | 54.747982 | 6.770203 | 2.0 | 8.351 | 2 | 35.917 | 8.514 | 34.174 | 2 |
| 2025-04-17T16:14:00 | 54.748954 | 6.769035 | 2.0 | 8.371 | 2 | 35.926 | 8.529 | 34.169 | 2 |
| 2025-04-17T16:15:00 | 54.750018 | 6.767881 | 2.0 | 8.371 | 2 | 35.941 | 8.547 | 34.167 | 2 |
| 2025-04-17T16:16:00 | 54.751117 | 6.766763 | 2.0 | 8.372 | 2 | 35.941 | 8.541 | 34.173 | 2 |
| 2025-04-17T16:17:00 | 54.752183 | 6.765586 | 2.0 | 8.375 | 2 | 35.946 | 8.550 | 34.170 | 2 |
| 2025-04-17T16:18:00 | 54.753235 | 6.764404 | 2.0 | 8.370 | 2 | 35.949 | 8.550 | 34.173 | 2 |
| 2025-04-17T16:19:00 | 54.754287 | 6.763258 | 2.0 | 8.372 | 2 | 35.947 | 8.546 | 34.175 | 2 |
| 2025-04-17T16:20:00 | 54.755342 | 6.762159 | 2.0 | 8.368 | 2 | 35.948 | 8.547 | 34.175 | 2 |
| 2025-04-17T16:21:00 | 54.756382 | 6.761049 | 2.0 | 8.360 | 2 | 35.945 | 8.543 | 34.175 | 2 |
| 2025-04-17T16:22:00 | 54.757418 | 6.759938 | 2.0 | 8.351 | 2 | 35.940 | 8.534 | 34.179 | 2 |
| 2025-04-17T16:23:00 | 54.758435 | 6.758791 | 2.0 | 8.341 | 2 | 35.933 | 8.526 | 34.179 | 2 |
| 2025-04-17T16:24:00 | 54.759442 | 6.757636 | 2.0 | 8.323 | 2 | 35.926 | 8.514 | 34.183 | 2 |
| 2025-04-17T16:25:00 | 54.760446 | 6.756464 | 2.0 | 8.272 | 2 | 35.915 | 8.495 | 34.190 | 2 |
| 2025-04-17T16:26:00 | 54.761463 | 6.755344 | 2.0 | 8.205 | 2 | 35.881 | 8.437 | 34.210 | 2 |
| 2025-04-17T16:27:00 | 54.762505 | 6.754261 | 2.0 | 8.182 | 2 | 35.835 | 8.379 | 34.218 | 2 |
| 2025-04-17T16:28:00 | 54.763542 | 6.753184 | 2.0 | 8.165 | 2 | 35.210 | 8.360 | 33.573 | 2 |
| 2025-04-17T16:29:00 | 54.764579 | 6.752081 | 2.0 | 8.152 | 2 | 35.524 | 8.340 | 33.926 | 2 |
| 2025-04-17T16:30:00 | 54.765606 | 6.750962 | 2.0 | 8.135 | 2 | 35.681 | 8.326 | 34.106 | 2 |
| 2025-04-17T16:31:00 | 54.766624 | 6.749807 | 2.0 | 8.123 | 2 | 35.423 | 8.311 | 33.846 | 2 |
| 2025-04-17T16:32:00 | 54.767631 | 6.748627 | 2.0 | 8.099 | 2 | 35.759 | 8.299 | 34.215 | 2 |
| 2025-04-17T16:33:00 | 54.768650 | 6.747506 | 2.0 | 8.085 | 2 | 35.387 | 8.276 | 33.842 | 2 |
| 2025-04-17T16:34:00 | 54.769676 | 6.746402 | 2.0 | 8.075 | 2 | 35.634 | 8.262 | 34.118 | 2 |
| 2025-04-17T16:35:00 | 54.770710 | 6.745294 | 2.0 | 8.050 | 2 | 35.176 | 8.248 | 33.644 | 2 |
| 2025-04-17T16:36:00 | 54.771741 | 6.744198 | 2.0 | 8.001 | 2 | 35.267 | 8.224 | 33.764 | 2 |
| 2025-04-17T16:37:00 | 54.772757 | 6.743100 | 2.0 | 7.966 | 2 | 35.517 | 8.174 | 34.079 | 2 |
| 2025-04-17T16:38:00 | 54.773764 | 6.741981 | 2.0 | 7.952 | 2 | 35.708 | 8.143 | 34.313 | 2 |
| 2025-04-17T16:39:00 | 54.774759 | 6.740869 | 2.0 | 7.941 | 2 | 35.488 | 8.130 | 34.091 | 2 |
| 2025-04-17T16:40:00 | 54.775749 | 6.739751 | 2.0 | 7.934 | 2 | 35.351 | 8.118 | 33.956 | 2 |
| 2025-04-17T16:41:00 | 54.776761 | 6.738647 | 2.0 | 7.928 | 2 | 34.976 | 8.112 | 33.562 | 2 |
| 2025-04-17T16:42:00 | 54.777761 | 6.737565 | 2.0 | 7.921 | 2 | 35.282 | 8.105 | 33.895 | 2 |
| 2025-04-17T16:43:00 | 54.778758 | 6.736475 | 2.0 | 7.928 | 2 | 35.098 | 8.099 | 33.704 | 2 |
| 2025-04-17T16:44:00 | 54.779768 | 6.735386 | 2.0 | 8.007 | 2 | 35.566 | 8.114 | 34.190 | 2 |
| 2025-04-17T16:45:00 | 54.780754 | 6.734240 | 2.0 | 8.112 | 2 | 35.363 | 8.198 | 33.891 | 2 |
| 2025-04-17T16:46:00 | 54.781726 | 6.733093 | 2.0 | 8.173 | 2 | 35.458 | 8.294 | 33.900 | 2 |
| 2025-04-17T16:47:00 | 54.782709 | 6.731975 | 2.0 | 8.236 | 2 | 35.532 | 8.356 | 33.919 | 2 |
| 2025-04-17T16:48:00 | 54.783698 | 6.730935 | 2.0 | 8.278 | 2 | 35.621 | 8.413 | 33.958 | 2 |
| 2025-04-17T16:49:00 | 54.784696 | 6.729939 | 2.0 | 8.337 | 2 | 35.697 | 8.458 | 33.995 | 2 |
| 2025-04-17T16:50:00 | 54.785694 | 6.728924 | 2.0 | 8.405 | 2 | 35.791 | 8.515 | 34.040 | 2 |
| 2025-04-17T16:51:00 | 54.786691 | 6.727884 | 2.0 | 8.416 | 2 | 35.922 | 8.580 | 34.115 | 2 |
| 2025-04-17T16:52:00 | 54.787669 | 6.726828 | 2.0 | 8.425 | 2 | 35.887 | 8.586 | 34.072 | 2 |
| 2025-04-17T16:53:00 | 54.788639 | 6.725749 | 2.0 | 8.392 | 2 | 35.916 | 8.595 | 34.094 | 2 |
| 2025-04-17T16:54:00 | 54.789608 | 6.724675 | 2.0 | 8.341 | 2 | 35.662 | 8.558 | 33.862 | 2 |
| 2025-04-17T16:55:00 | 54.790596 | 6.723614 | 2.0 | 8.346 | 2 | 35.849 | 8.513 | 34.103 | 2 |
| 2025-04-17T16:56:00 | 54.791582 | 6.722507 | 2.0 | 8.338 | 2 | 35.747 | 8.518 | 33.990 | 2 |
| 2025-04-17T16:57:00 | 54.792574 | 6.721406 | 2.0 | 8.351 | 2 | 35.624 | 8.515 | 33.863 | 2 |
| 2025-04-17T16:58:00 | 54.793568 | 6.720342 | 2.0 | 8.364 | 2 | 35.777 | 8.528 | 34.012 | 2 |
| 2025-04-17T16:59:00 | 54.794560 | 6.719313 | 2.0 | 8.360 | 2 | 35.745 | 8.536 | 33.971 | 2 |
| 2025-04-17T17:00:00 | 54.795535 | 6.718226 | 2.0 | 8.337 | 2 | 35.743 | 8.528 | 33.976 | 2 |
| 2025-04-17T17:01:00 | 54.796497 | 6.717153 | 2.0 | 8.367 | 2 | 35.802 | 8.512 | 34.054 | 2 |
| 2025-04-17T17:02:00 | 54.797446 | 6.716069 | 2.0 | 8.384 | 2 | 35.771 | 8.549 | 33.986 | 2 |
| 2025-04-17T17:03:00 | 54.798418 | 6.715009 | 2.0 | 8.373 | 2 | 35.751 | 8.552 | 33.962 | 2 |
| 2025-04-17T17:04:00 | 54.799423 | 6.713959 | 2.0 | 8.402 | 2 | 35.754 | 8.556 | 33.961 | 2 |
| 2025-04-17T17:05:00 | 54.800440 | 6.712867 | 2.0 | 8.440 | 2 | 35.907 | 8.568 | 34.111 | 2 |
| 2025-04-17T17:06:00 | 54.801459 | 6.711722 | 2.0 | 8.456 | 2 | 35.841 | 8.621 | 33.990 | 2 |
| 2025-04-17T17:07:00 | 54.802475 | 6.710529 | 2.0 | 8.490 | 2 | 35.621 | 8.632 | 33.748 | 2 |
| 2025-04-17T17:08:00 | 54.803514 | 6.709326 | 2.0 | 8.514 | 2 | 35.897 | 8.665 | 34.007 | 2 |
| 2025-04-17T17:09:00 | 54.804566 | 6.708161 | 2.0 | 8.500 | 2 | 35.875 | 8.685 | 33.964 | 2 |
| 2025-04-17T17:10:00 | 54.805613 | 6.707011 | 2.0 | 8.517 | 2 | 35.691 | 8.671 | 33.784 | 2 |
| 2025-04-17T17:11:00 | 54.806663 | 6.705854 | 2.0 | 8.526 | 2 | 35.811 | 8.688 | 33.894 | 2 |
| 2025-04-17T17:12:00 | 54.807715 | 6.704658 | 2.0 | 8.522 | 2 | 35.888 | 8.696 | 33.968 | 2 |
| 2025-04-17T17:13:00 | 54.808783 | 6.703525 | 2.0 | 8.475 | 2 | 35.781 | 8.687 | 33.864 | 2 |
| 2025-04-17T17:14:00 | 54.809854 | 6.702421 | 2.0 | 8.430 | 2 | 34.973 | 8.641 | 33.058 | 2 |
| 2025-04-17T17:15:00 | 54.810930 | 6.701323 | 2.0 | 8.413 | 2 | 35.735 | 8.602 | 33.897 | 2 |
| 2025-04-17T17:16:00 | 54.812003 | 6.700166 | 2.0 | 8.400 | 2 | 35.042 | 8.586 | 33.182 | 2 |
| 2025-04-17T17:17:00 | 54.813058 | 6.698957 | 2.0 | 8.365 | 2 | 35.981 | 8.569 | 34.188 | 2 |
| 2025-04-17T17:18:00 | 54.814110 | 6.697777 | 2.0 | 8.304 | 2 | 35.961 | 8.530 | 34.205 | 2 |
| 2025-04-17T17:19:00 | 54.815161 | 6.696640 | 2.0 | 8.278 | 2 | 35.929 | 8.473 | 34.226 | 2 |
| 2025-04-17T17:20:00 | 54.816199 | 6.695498 | 2.0 | 8.256 | 2 | 35.911 | 8.452 | 34.228 | 2 |
| 2025-04-17T17:21:00 | 54.817237 | 6.694376 | 2.0 | 8.240 | 2 | 35.898 | 8.429 | 34.236 | 2 |
| 2025-04-17T17:22:00 | 54.818271 | 6.693266 | 2.0 | 8.230 | 2 | 35.889 | 8.413 | 34.242 | 2 |
| 2025-04-17T17:23:00 | 54.819292 | 6.692150 | 2.0 | 8.225 | 2 | 35.883 | 8.404 | 34.245 | 2 |
| 2025-04-17T17:24:00 | 54.820309 | 6.691016 | 2.0 | 8.219 | 2 | 35.880 | 8.398 | 34.247 | 2 |
| 2025-04-17T17:25:00 | 54.821330 | 6.689902 | 2.0 | 8.215 | 2 | 35.879 | 8.393 | 34.251 | 2 |
| 2025-04-17T17:26:00 | 54.822353 | 6.688790 | 2.0 | 8.208 | 2 | 35.878 | 8.388 | 34.255 | 2 |
| 2025-04-17T17:27:00 | 54.823376 | 6.687653 | 2.0 | 8.188 | 2 | 35.876 | 8.380 | 34.261 | 2 |
| 2025-04-17T17:28:00 | 54.824386 | 6.686533 | 2.0 | 8.163 | 2 | 35.866 | 8.358 | 34.271 | 2 |
| 2025-04-17T17:29:00 | 54.825395 | 6.685451 | 2.0 | 8.144 | 2 | 35.855 | 8.335 | 34.282 | 2 |
| 2025-04-17T17:30:00 | 54.826390 | 6.684366 | 2.0 | 8.137 | 2 | 35.850 | 8.319 | 34.292 | 2 |
| 2025-04-17T17:31:00 | 54.827376 | 6.683258 | 2.0 | 8.141 | 2 | 35.849 | 8.313 | 34.297 | 2 |
| 2025-04-17T17:32:00 | 54.828369 | 6.682193 | 2.0 | 8.137 | 2 | 35.857 | 8.314 | 34.305 | 2 |
| 2025-04-17T17:33:00 | 54.829360 | 6.681150 | 2.0 | 8.139 | 2 | 35.857 | 8.312 | 34.307 | 2 |
| 2025-04-17T17:34:00 | 54.830345 | 6.680094 | 2.0 | 8.142 | 2 | 35.857 | 8.314 | 34.305 | 2 |
| 2025-04-17T17:35:00 | 54.831318 | 6.679004 | 2.0 | 8.145 | 2 | 35.855 | 8.315 | 34.302 | 2 |
| 2025-04-17T17:36:00 | 54.832272 | 6.677894 | 2.0 | 8.144 | 2 | 35.854 | 8.319 | 34.297 | 2 |
| 2025-04-17T17:37:00 | 54.833222 | 6.676819 | 2.0 | 8.148 | 2 | 35.854 | 8.318 | 34.298 | 2 |
| 2025-04-17T17:38:00 | 54.834176 | 6.675746 | 2.0 | 8.158 | 2 | 35.858 | 8.321 | 34.299 | 2 |
| 2025-04-17T17:39:00 | 54.835128 | 6.674690 | 2.0 | 8.173 | 2 | 35.869 | 8.334 | 34.298 | 2 |
| 2025-04-17T17:40:00 | 54.836066 | 6.673692 | 2.0 | 8.190 | 2 | 35.880 | 8.348 | 34.296 | 2 |
| 2025-04-17T17:41:00 | 54.836990 | 6.672683 | 2.0 | 8.225 | 2 | 35.892 | 8.368 | 34.289 | 2 |
| 2025-04-17T17:42:00 | 54.837902 | 6.671680 | 2.0 | 8.265 | 2 | 35.913 | 8.402 | 34.278 | 2 |
| 2025-04-17T17:43:00 | 54.838811 | 6.670670 | 2.0 | 8.297 | 2 | 35.940 | 8.442 | 34.268 | 2 |
| 2025-04-17T17:44:00 | 54.839719 | 6.669644 | 2.0 | 8.313 | 2 | 35.957 | 8.470 | 34.259 | 2 |
| 2025-04-17T17:45:00 | 54.840626 | 6.668613 | 2.0 | 8.318 | 2 | 35.962 | 8.484 | 34.251 | 2 |
| 2025-04-17T17:46:00 | 54.841550 | 6.667561 | 2.0 | 8.315 | 2 | 35.958 | 8.488 | 34.243 | 2 |
| 2025-04-17T17:47:00 | 54.842543 | 6.666484 | 2.0 | 8.301 | 2 | 35.949 | 8.483 | 34.238 | 2 |
| 2025-04-17T17:48:00 | 54.843588 | 6.665407 | 2.0 | 8.289 | 2 | 35.938 | 8.472 | 34.237 | 2 |
| 2025-04-17T17:49:00 | 54.844656 | 6.664324 | 2.0 | 8.279 | 2 | 35.927 | 8.458 | 34.239 | 2 |
| 2025-04-17T17:50:00 | 54.845714 | 6.663183 | 2.0 | 8.312 | 2 | 35.916 | 8.456 | 34.229 | 2 |
| 2025-04-17T17:51:00 | 54.846783 | 6.662014 | 2.0 | 8.337 | 2 | 35.915 | 8.488 | 34.197 | 2 |
| 2025-04-17T17:52:00 | 54.847859 | 6.660823 | 2.0 | 8.363 | 2 | 35.626 | 8.513 | 33.867 | 2 |
| 2025-04-17T17:53:00 | 54.848949 | 6.659630 | 2.0 | 8.384 | 2 | 35.462 | 8.536 | 33.672 | 2 |
| 2025-04-17T17:54:00 | 54.850056 | 6.658396 | 2.0 | 8.407 | 2 | 34.981 | 8.558 | 33.144 | 2 |
| 2025-04-17T17:55:00 | 54.851184 | 6.657192 | 2.0 | 8.427 | 2 | 35.981 | 8.579 | 34.179 | 2 |
| 2025-04-17T17:56:00 | 54.852297 | 6.656035 | 2.0 | 8.442 | 2 | 35.890 | 8.600 | 34.062 | 2 |
| 2025-04-17T17:57:00 | 54.853372 | 6.654858 | 2.0 | 8.444 | 2 | 35.869 | 8.612 | 34.028 | 2 |
| 2025-04-17T17:58:00 | 54.854411 | 6.653660 | 2.0 | 8.469 | 2 | 36.003 | 8.616 | 34.166 | 2 |
| 2025-04-17T17:59:00 | 54.855451 | 6.652495 | 2.0 | 8.500 | 2 | 35.676 | 8.645 | 33.793 | 2 |
| 2025-04-17T18:00:00 | 54.856501 | 6.651352 | 2.0 | 8.530 | 2 | 36.029 | 8.676 | 34.135 | 2 |
| 2025-04-17T18:01:00 | 54.857536 | 6.650163 | 2.0 | 8.551 | 2 | 35.822 | 8.702 | 33.892 | 2 |
| 2025-04-17T18:02:00 | 54.858564 | 6.648965 | 2.0 | 8.570 | 2 | 35.943 | 8.722 | 34.001 | 2 |
| 2025-04-17T18:03:00 | 54.859607 | 6.647788 | 2.0 | 8.577 | 2 | 36.081 | 8.740 | 34.128 | 2 |
| 2025-04-17T18:04:00 | 54.860672 | 6.646645 | 2.0 | 8.578 | 2 | 35.978 | 8.748 | 34.012 | 2 |
| 2025-04-17T18:05:00 | 54.861741 | 6.645528 | 2.0 | 8.578 | 2 | 35.826 | 8.748 | 33.853 | 2 |
| 2025-04-17T18:06:00 | 54.862811 | 6.644406 | 2.0 | 8.572 | 2 | 35.776 | 8.745 | 33.803 | 2 |
| 2025-04-17T18:07:00 | 54.863892 | 6.643259 | 2.0 | 8.563 | 2 | 35.760 | 8.741 | 33.790 | 2 |
| 2025-04-17T18:08:00 | 54.864972 | 6.642065 | 2.0 | 8.559 | 2 | 36.071 | 8.730 | 34.128 | 2 |
| 2025-04-17T18:09:00 | 54.866040 | 6.640856 | 2.0 | 8.560 | 2 | 35.793 | 8.731 | 33.834 | 2 |
| 2025-04-17T18:10:00 | 54.867103 | 6.639685 | 2.0 | 8.574 | 2 | 35.808 | 8.733 | 33.848 | 2 |
| 2025-04-17T18:11:00 | 54.868155 | 6.638515 | 2.0 | 8.571 | 2 | 35.600 | 8.744 | 33.619 | 2 |
| 2025-04-17T18:12:00 | 54.869220 | 6.637333 | 2.0 | 8.570 | 2 | 35.604 | 8.740 | 33.627 | 2 |
| 2025-04-17T18:13:00 | 54.870298 | 6.636164 | 2.0 | 8.581 | 2 | 35.781 | 8.743 | 33.810 | 2 |
| 2025-04-17T18:14:00 | 54.871374 | 6.635006 | 2.0 | 8.575 | 2 | 35.918 | 8.749 | 33.948 | 2 |
| 2025-04-17T18:15:00 | 54.872445 | 6.633823 | 2.0 | 8.573 | 2 | 35.972 | 8.744 | 34.010 | 2 |
| 2025-04-17T18:16:00 | 54.873517 | 6.632626 | 2.0 | 8.569 | 2 | 35.909 | 8.742 | 33.946 | 2 |
| 2025-04-17T18:17:00 | 54.874606 | 6.631443 | 2.0 | 8.571 | 2 | 35.977 | 8.741 | 34.018 | 2 |
| 2025-04-17T18:18:00 | 54.875698 | 6.630232 | 2.0 | 8.570 | 2 | 35.891 | 8.741 | 33.928 | 2 |
| 2025-04-17T18:19:00 | 54.876788 | 6.629034 | 2.0 | 8.577 | 2 | 35.893 | 8.740 | 33.931 | 2 |
| 2025-04-17T18:20:00 | 54.877864 | 6.627813 | 2.0 | 8.651 | 2 | 35.823 | 8.761 | 33.837 | 2 |
| 2025-04-17T18:21:00 | 54.878937 | 6.626621 | 2.0 | 8.681 | 2 | 35.953 | 8.825 | 33.912 | 2 |
| 2025-04-17T18:22:00 | 54.880003 | 6.625427 | 2.0 | 8.692 | 2 | 35.893 | 8.850 | 33.825 | 2 |
| 2025-04-17T18:23:00 | 54.881075 | 6.624242 | 2.0 | 8.695 | 2 | 35.853 | 8.861 | 33.773 | 2 |
| 2025-04-17T18:24:00 | 54.882161 | 6.623098 | 2.0 | 8.697 | 2 | 35.455 | 8.863 | 33.355 | 2 |
| 2025-04-17T18:25:00 | 54.883239 | 6.621979 | 2.0 | 8.696 | 2 | 36.082 | 8.865 | 34.009 | 2 |
| 2025-04-17T18:26:00 | 54.884301 | 6.620849 | 2.0 | 8.701 | 2 | 36.076 | 8.865 | 34.003 | 2 |
| 2025-04-17T18:27:00 | 54.885344 | 6.619666 | 2.0 | 8.718 | 2 | 36.067 | 8.873 | 33.986 | 2 |
| 2025-04-17T18:28:00 | 54.886377 | 6.618471 | 2.0 | 8.733 | 2 | 36.057 | 8.888 | 33.961 | 2 |
| 2025-04-17T18:29:00 | 54.887400 | 6.617322 | 2.0 | 8.749 | 2 | 36.056 | 8.903 | 33.946 | 2 |
| 2025-04-17T18:30:00 | 54.888411 | 6.616196 | 2.0 | 8.766 | 2 | 36.058 | 8.919 | 33.932 | 2 |
| 2025-04-17T18:31:00 | 54.889423 | 6.615049 | 2.0 | 8.790 | 2 | 36.061 | 8.938 | 33.917 | 2 |
| 2025-04-17T18:32:00 | 54.890442 | 6.613895 | 2.0 | 8.805 | 2 | 36.066 | 8.960 | 33.902 | 2 |
| 2025-04-17T18:33:00 | 54.891490 | 6.612783 | 2.0 | 8.814 | 2 | 36.071 | 8.973 | 33.894 | 2 |
| 2025-04-17T18:34:00 | 54.892539 | 6.611700 | 2.0 | 8.832 | 2 | 36.074 | 8.984 | 33.887 | 2 |
| 2025-04-17T18:35:00 | 54.893574 | 6.610601 | 2.0 | 8.836 | 2 | 36.081 | 9.000 | 33.879 | 2 |
| 2025-04-17T18:36:00 | 54.894601 | 6.609477 | 2.0 | 8.814 | 2 | 36.084 | 9.000 | 33.882 | 2 |
| 2025-04-17T18:37:00 | 54.895629 | 6.608355 | 2.0 | 8.791 | 2 | 36.074 | 8.977 | 33.894 | 2 |
| 2025-04-17T18:38:00 | 54.896655 | 6.607227 | 2.0 | 8.771 | 2 | 36.061 | 8.958 | 33.898 | 2 |
| 2025-04-17T18:39:00 | 54.897678 | 6.606110 | 2.0 | 8.739 | 2 | 36.046 | 8.936 | 33.904 | 2 |
| 2025-04-17T18:40:00 | 54.898696 | 6.605008 | 2.0 | 8.709 | 2 | 36.030 | 8.905 | 33.916 | 2 |
| 2025-04-17T18:41:00 | 54.899709 | 6.603892 | 2.0 | 8.674 | 2 | 36.023 | 8.875 | 33.938 | 2 |
| 2025-04-17T18:42:00 | 54.900728 | 6.602757 | 2.0 | 8.649 | 2 | 36.017 | 8.843 | 33.962 | 2 |
| 2025-04-17T18:43:00 | 54.901771 | 6.601628 | 2.0 | 8.629 | 2 | 36.013 | 8.818 | 33.982 | 2 |
| 2025-04-17T18:44:00 | 54.902815 | 6.600471 | 2.0 | 8.610 | 2 | 36.016 | 8.798 | 34.004 | 2 |
| 2025-04-17T18:45:00 | 54.903862 | 6.599296 | 2.0 | 8.608 | 2 | 36.028 | 8.781 | 34.033 | 2 |
| 2025-04-17T18:46:00 | 54.904914 | 6.598109 | 2.0 | 8.622 | 2 | 36.054 | 8.782 | 34.060 | 2 |
| 2025-04-17T18:47:00 | 54.905976 | 6.596927 | 2.0 | 8.639 | 2 | 36.083 | 8.794 | 34.078 | 2 |
| 2025-04-17T18:48:00 | 54.907051 | 6.595755 | 2.0 | 8.644 | 2 | 36.118 | 8.811 | 34.099 | 2 |
| 2025-04-17T18:49:00 | 54.908129 | 6.594590 | 2.0 | 8.652 | 2 | 36.138 | 8.814 | 34.117 | 2 |
| 2025-04-17T18:50:00 | 54.909210 | 6.593410 | 2.0 | 8.665 | 2 | 36.170 | 8.824 | 34.141 | 2 |
| 2025-04-17T18:51:00 | 54.910288 | 6.592224 | 2.0 | 8.667 | 2 | 36.193 | 8.835 | 34.155 | 2 |
| 2025-04-17T18:52:00 | 54.911371 | 6.591058 | 2.0 | 8.658 | 2 | 36.228 | 8.835 | 34.191 | 2 |
| 2025-04-17T18:53:00 | 54.912450 | 6.589894 | 2.0 | 8.643 | 2 | 36.226 | 8.825 | 34.199 | 2 |
| 2025-04-17T18:54:00 | 54.913525 | 6.588729 | 2.0 | 8.628 | 2 | 36.220 | 8.811 | 34.206 | 2 |
| 2025-04-17T18:55:00 | 54.914597 | 6.587569 | 2.0 | 8.613 | 2 | 36.211 | 8.796 | 34.211 | 2 |
| 2025-04-17T18:56:00 | 54.915661 | 6.586422 | 2.0 | 8.611 | 2 | 36.200 | 8.783 | 34.212 | 2 |
| 2025-04-17T18:57:00 | 54.916719 | 6.585282 | 2.0 | 8.606 | 2 | 36.196 | 8.781 | 34.210 | 2 |
| 2025-04-17T18:58:00 | 54.917681 | 6.583893 | 2.0 | 8.596 | 2 | 36.188 | 8.774 | 34.208 | 2 |
| 2025-04-17T18:59:00 | 54.918537 | 6.582272 | 2.0 | 8.586 | 2 | 36.178 | 8.765 | 34.206 | 2 |
| 2025-04-17T19:00:00 | 54.919767 | 6.581554 | 2.0 | 8.578 | 2 | 36.169 | 8.754 | 34.207 | 2 |
| 2025-04-17T19:01:00 | 54.921007 | 6.582568 | 2.0 | 8.585 | 2 | 36.163 | 8.748 | 34.207 | 2 |
| 2025-04-17T19:02:00 | 54.921523 | 6.584936 | 2.0 | 8.593 | 2 | 36.173 | 8.756 | 34.210 | 2 |
| 2025-04-17T19:03:00 | 54.920830 | 6.587212 | 2.0 | 8.600 | 2 | 36.186 | 8.763 | 34.217 | 2 |
| 2025-04-17T19:04:00 | 54.919490 | 6.588394 | 2.0 | 8.617 | 2 | 36.196 | 8.773 | 34.218 | 2 |
| 2025-04-17T19:05:00 | 54.918295 | 6.589728 | 2.0 | 8.630 | 2 | 36.210 | 8.788 | 34.218 | 2 |
| 2025-04-17T19:06:00 | 54.917211 | 6.591120 | 2.0 | 8.642 | 2 | 36.221 | 8.800 | 34.218 | 2 |
| 2025-04-17T19:07:00 | 54.916168 | 6.592427 | 2.0 | 8.655 | 2 | 36.229 | 8.813 | 34.214 | 2 |
| 2025-04-17T19:08:00 | 54.915149 | 6.593647 | 2.0 | 8.656 | 2 | 36.237 | 8.824 | 34.211 | 2 |
| 2025-04-17T19:09:00 | 54.914117 | 6.594722 | 2.0 | 8.666 | 2 | 36.233 | 8.825 | 34.206 | 2 |
| 2025-04-17T19:10:00 | 54.913066 | 6.595725 | 2.0 | 8.673 | 2 | 36.045 | 8.836 | 33.998 | 2 |
| 2025-04-17T19:11:00 | 54.912021 | 6.596835 | 2.0 | 8.662 | 2 | 36.213 | 8.839 | 34.172 | 2 |
| 2025-04-17T19:12:00 | 54.911000 | 6.598085 | 2.0 | 8.658 | 2 | 36.160 | 8.831 | 34.124 | 2 |
| 2025-04-17T19:13:00 | 54.909964 | 6.599386 | 2.0 | 8.629 | 2 | 35.827 | 8.825 | 33.780 | 2 |
| 2025-04-17T19:14:00 | 54.908910 | 6.600660 | 2.0 | 8.622 | 2 | 35.669 | 8.797 | 33.641 | 2 |
| 2025-04-17T19:15:00 | 54.907824 | 6.601789 | 2.0 | 8.621 | 2 | 36.050 | 8.792 | 34.046 | 2 |
| 2025-04-17T19:16:00 | 54.906720 | 6.602830 | 2.0 | 8.637 | 2 | 36.030 | 8.793 | 34.024 | 2 |
| 2025-04-17T19:17:00 | 54.905638 | 6.603916 | 2.0 | 8.659 | 2 | 35.775 | 8.809 | 33.741 | 2 |
| 2025-04-17T19:18:00 | 54.904572 | 6.605023 | 2.0 | 8.690 | 2 | 35.972 | 8.834 | 33.924 | 2 |
| 2025-04-17T19:19:00 | 54.903540 | 6.606189 | 2.0 | 8.723 | 2 | 35.668 | 8.861 | 33.579 | 2 |
| 2025-04-17T19:20:00 | 54.902536 | 6.607407 | 2.0 | 8.751 | 2 | 35.831 | 8.895 | 33.718 | 2 |
| 2025-04-17T19:21:00 | 54.901530 | 6.608623 | 2.0 | 8.793 | 2 | 35.626 | 8.927 | 33.473 | 2 |
| 2025-04-17T19:22:00 | 54.900512 | 6.609787 | 2.0 | 8.823 | 2 | 35.695 | 8.963 | 33.511 | 2 |
| 2025-04-17T19:23:00 | 54.899472 | 6.610884 | 2.0 | 8.836 | 2 | 35.929 | 8.989 | 33.731 | 2 |
| 2025-04-17T19:24:00 | 54.898418 | 6.611999 | 2.0 | 8.864 | 2 | 35.603 | 9.008 | 33.373 | 2 |
| 2025-04-17T19:25:00 | 54.897357 | 6.613169 | 2.0 | 8.870 | 2 | 35.806 | 9.032 | 33.562 | 2 |
| 2025-04-17T19:26:00 | 54.896287 | 6.614362 | 2.0 | 8.866 | 2 | 35.797 | 9.036 | 33.549 | 2 |
| 2025-04-17T19:27:00 | 54.895189 | 6.615519 | 2.0 | 8.868 | 2 | 35.952 | 9.034 | 33.712 | 2 |
| 2025-04-17T19:28:00 | 54.894082 | 6.616668 | 2.0 | 8.868 | 2 | 35.885 | 9.037 | 33.639 | 2 |
| 2025-04-17T19:29:00 | 54.892992 | 6.617796 | 2.0 | 8.861 | 2 | 36.015 | 9.034 | 33.778 | 2 |
| 2025-04-17T19:30:00 | 54.891932 | 6.618963 | 2.0 | 8.847 | 2 | 35.869 | 9.026 | 33.633 | 2 |
| 2025-04-17T19:31:00 | 54.890890 | 6.620171 | 2.0 | 8.835 | 2 | 35.890 | 9.015 | 33.665 | 2 |
| 2025-04-17T19:32:00 | 54.889872 | 6.621404 | 2.0 | 8.814 | 2 | 35.714 | 9.001 | 33.495 | 2 |
| 2025-04-17T19:33:00 | 54.888826 | 6.622587 | 2.0 | 8.801 | 2 | 35.912 | 8.981 | 33.721 | 2 |
| 2025-04-17T19:34:00 | 54.887753 | 6.623691 | 2.0 | 8.794 | 2 | 35.890 | 8.969 | 33.709 | 2 |
| 2025-04-17T19:35:00 | 54.886672 | 6.624754 | 2.0 | 8.802 | 2 | 35.871 | 8.966 | 33.692 | 2 |
| 2025-04-17T19:36:00 | 54.885641 | 6.625887 | 2.0 | 8.788 | 2 | 35.893 | 8.969 | 33.712 | 2 |
| 2025-04-17T19:37:00 | 54.884659 | 6.627121 | 2.0 | 8.778 | 2 | 35.819 | 8.957 | 33.646 | 2 |
| 2025-04-17T19:38:00 | 54.883676 | 6.628358 | 2.0 | 8.754 | 2 | 35.834 | 8.943 | 33.675 | 2 |
| 2025-04-17T19:39:00 | 54.882671 | 6.629555 | 2.0 | 8.732 | 2 | 35.876 | 8.920 | 33.741 | 2 |
| 2025-04-17T19:40:00 | 54.881632 | 6.630675 | 2.0 | 8.717 | 2 | 35.912 | 8.900 | 33.798 | 2 |
| 2025-04-17T19:41:00 | 54.880561 | 6.631717 | 2.0 | 8.730 | 2 | 35.864 | 8.889 | 33.758 | 2 |
| 2025-04-17T19:42:00 | 54.879497 | 6.632791 | 2.0 | 8.749 | 2 | 35.880 | 8.902 | 33.762 | 2 |
| 2025-04-17T19:43:00 | 54.878432 | 6.633871 | 2.0 | 8.755 | 2 | 35.838 | 8.920 | 33.701 | 2 |
| 2025-04-17T19:44:00 | 54.877392 | 6.634997 | 2.0 | 8.772 | 2 | 35.888 | 8.925 | 33.749 | 2 |
| 2025-04-17T19:45:00 | 54.876368 | 6.636162 | 2.0 | 8.772 | 2 | 35.744 | 8.940 | 33.584 | 2 |
| 2025-04-17T19:46:00 | 54.875347 | 6.637358 | 2.0 | 8.762 | 2 | 35.837 | 8.940 | 33.681 | 2 |
| 2025-04-17T19:47:00 | 54.874303 | 6.638535 | 2.0 | 8.747 | 2 | 35.765 | 8.930 | 33.615 | 2 |
| 2025-04-17T19:48:00 | 54.873232 | 6.639669 | 2.0 | 8.731 | 2 | 35.544 | 8.915 | 33.399 | 2 |
| 2025-04-17T19:49:00 | 54.872137 | 6.640770 | 2.0 | 8.706 | 2 | 35.417 | 8.897 | 33.283 | 2 |
| 2025-04-17T19:50:00 | 54.871035 | 6.641870 | 2.0 | 8.677 | 2 | 35.018 | 8.873 | 32.889 | 2 |
| 2025-04-17T19:51:00 | 54.869955 | 6.643037 | 2.0 | 8.643 | 2 | 35.978 | 8.841 | 33.923 | 2 |
| 2025-04-17T19:52:00 | 54.868920 | 6.644315 | 2.0 | 8.606 | 2 | 35.969 | 8.809 | 33.944 | 2 |
| 2025-04-17T19:53:00 | 54.867886 | 6.645591 | 2.0 | 8.569 | 2 | 35.964 | 8.772 | 33.975 | 2 |
| 2025-04-17T19:54:00 | 54.866814 | 6.646801 | 2.0 | 8.531 | 2 | 35.952 | 8.736 | 33.997 | 2 |
| 2025-04-17T19:55:00 | 54.865719 | 6.647944 | 2.0 | 8.500 | 2 | 35.943 | 8.700 | 34.022 | 2 |
| 2025-04-17T19:56:00 | 54.864613 | 6.649044 | 2.0 | 8.468 | 2 | 35.927 | 8.667 | 34.037 | 2 |
| 2025-04-17T19:57:00 | 54.863539 | 6.650202 | 2.0 | 8.444 | 2 | 35.915 | 8.637 | 34.053 | 2 |
| 2025-04-17T19:58:00 | 54.862466 | 6.651374 | 2.0 | 8.424 | 2 | 35.908 | 8.613 | 34.069 | 2 |
| 2025-04-17T19:59:00 | 54.861401 | 6.652596 | 2.0 | 8.421 | 2 | 35.905 | 8.595 | 34.083 | 2 |
| 2025-04-17T20:00:00 | 54.860341 | 6.653832 | 2.0 | 8.401 | 2 | 35.915 | 8.592 | 34.096 | 2 |
| 2025-04-17T20:01:00 | 54.859273 | 6.655040 | 2.0 | 8.407 | 2 | 35.924 | 8.573 | 34.124 | 2 |
| 2025-04-17T20:02:00 | 54.858178 | 6.656175 | 2.0 | 8.389 | 2 | 35.939 | 8.575 | 34.138 | 2 |
| 2025-04-17T20:03:00 | 54.857100 | 6.657292 | 2.0 | 8.414 | 2 | 35.935 | 8.562 | 34.146 | 2 |
| 2025-04-17T20:04:00 | 54.856038 | 6.658432 | 2.0 | 8.463 | 2 | 35.948 | 8.597 | 34.126 | 2 |
| 2025-04-17T20:05:00 | 54.854991 | 6.659584 | 2.0 | 8.460 | 2 | 35.961 | 8.631 | 34.107 | 2 |
| 2025-04-17T20:06:00 | 54.853959 | 6.660759 | 2.0 | 8.437 | 2 | 35.944 | 8.624 | 34.096 | 2 |
| 2025-04-17T20:07:00 | 54.852953 | 6.661994 | 2.0 | 8.417 | 2 | 35.893 | 8.605 | 34.060 | 2 |
| 2025-04-17T20:08:00 | 54.851942 | 6.663234 | 2.0 | 8.427 | 2 | 35.899 | 8.588 | 34.083 | 2 |
| 2025-04-17T20:09:00 | 54.850873 | 6.664322 | 2.0 | 8.438 | 2 | 35.799 | 8.602 | 33.964 | 2 |
| 2025-04-17T20:10:00 | 54.849788 | 6.665357 | 2.0 | 8.440 | 2 | 35.753 | 8.604 | 33.914 | 2 |
| 2025-04-17T20:11:00 | 54.848718 | 6.666442 | 2.0 | 8.424 | 2 | 35.019 | 8.610 | 33.135 | 2 |
| 2025-04-17T20:12:00 | 54.847676 | 6.667617 | 2.0 | 8.456 | 2 | 35.751 | 8.601 | 33.914 | 2 |
| 2025-04-17T20:13:00 | 54.846646 | 6.668828 | 2.0 | 8.473 | 2 | 35.721 | 8.622 | 33.863 | 2 |
| 2025-04-17T20:14:00 | 54.845623 | 6.670062 | 2.0 | 8.487 | 2 | 35.681 | 8.641 | 33.802 | 2 |
| 2025-04-17T20:15:00 | 54.844561 | 6.671181 | 2.0 | 8.477 | 2 | 35.619 | 8.654 | 33.725 | 2 |
| 2025-04-17T20:16:00 | 54.843483 | 6.672265 | 2.0 | 8.470 | 2 | 35.585 | 8.646 | 33.696 | 2 |
| 2025-04-17T20:17:00 | 54.842422 | 6.673411 | 2.0 | 8.465 | 2 | 35.579 | 8.639 | 33.697 | 2 |
| 2025-04-17T20:18:00 | 54.841367 | 6.674601 | 2.0 | 8.461 | 2 | 35.578 | 8.634 | 33.701 | 2 |
| 2025-04-17T20:19:00 | 54.840298 | 6.675804 | 2.0 | 8.443 | 2 | 35.566 | 8.627 | 33.695 | 2 |
| 2025-04-17T20:20:00 | 54.839222 | 6.677000 | 2.0 | 8.437 | 2 | 35.561 | 8.613 | 33.703 | 2 |
| 2025-04-17T20:21:00 | 54.838141 | 6.678206 | 2.0 | 8.460 | 2 | 35.554 | 8.609 | 33.699 | 2 |
| 2025-04-17T20:22:00 | 54.837056 | 6.679403 | 2.0 | 8.484 | 2 | 35.593 | 8.634 | 33.716 | 2 |
| 2025-04-17T20:23:00 | 54.835961 | 6.680589 | 2.0 | 8.488 | 2 | 35.612 | 8.653 | 33.718 | 2 |
| 2025-04-17T20:24:00 | 54.834896 | 6.681784 | 2.0 | 8.487 | 2 | 35.635 | 8.658 | 33.738 | 2 |
| 2025-04-17T20:25:00 | 54.833863 | 6.682945 | 2.0 | 8.491 | 2 | 35.663 | 8.658 | 33.767 | 2 |
| 2025-04-17T20:26:00 | 54.832838 | 6.684072 | 2.0 | 8.493 | 2 | 35.576 | 8.660 | 33.674 | 2 |
| 2025-04-17T20:27:00 | 54.831808 | 6.685144 | 2.0 | 8.490 | 2 | 35.473 | 8.662 | 33.563 | 2 |
| 2025-04-17T20:28:00 | 54.830791 | 6.686198 | 2.0 | 8.477 | 2 | 35.717 | 8.658 | 33.824 | 2 |
| 2025-04-17T20:29:00 | 54.829784 | 6.687288 | 2.0 | 8.460 | 2 | 35.561 | 8.643 | 33.674 | 2 |
| 2025-04-17T20:30:00 | 54.828791 | 6.688434 | 2.0 | 8.450 | 2 | 35.758 | 8.628 | 33.896 | 2 |
| 2025-04-17T20:31:00 | 54.827770 | 6.689565 | 2.0 | 8.442 | 2 | 35.773 | 8.620 | 33.919 | 2 |
| 2025-04-17T20:32:00 | 54.826736 | 6.690707 | 2.0 | 8.439 | 2 | 35.786 | 8.612 | 33.941 | 2 |
| 2025-04-17T20:33:00 | 54.825688 | 6.691840 | 2.0 | 8.432 | 2 | 35.544 | 8.608 | 33.690 | 2 |
| 2025-04-17T20:34:00 | 54.824639 | 6.693000 | 2.0 | 8.426 | 2 | 35.492 | 8.601 | 33.641 | 2 |
| 2025-04-17T20:35:00 | 54.823585 | 6.694159 | 2.0 | 8.415 | 2 | 35.738 | 8.595 | 33.907 | 2 |
| 2025-04-17T20:36:00 | 54.822532 | 6.695346 | 2.0 | 8.401 | 2 | 35.692 | 8.583 | 33.870 | 2 |
| 2025-04-17T20:37:00 | 54.821475 | 6.696527 | 2.0 | 8.399 | 2 | 35.579 | 8.570 | 33.763 | 2 |
| 2025-04-17T20:38:00 | 54.820412 | 6.697689 | 2.0 | 8.392 | 2 | 35.540 | 8.568 | 33.724 | 2 |
| 2025-04-17T20:39:00 | 54.819368 | 6.698881 | 2.0 | 8.385 | 2 | 35.447 | 8.560 | 33.633 | 2 |
| 2025-04-17T20:40:00 | 54.818305 | 6.700004 | 2.0 | 8.372 | 2 | 35.611 | 8.552 | 33.814 | 2 |
| 2025-04-17T20:41:00 | 54.817217 | 6.701103 | 2.0 | 8.355 | 2 | 35.531 | 8.541 | 33.740 | 2 |
| 2025-04-17T20:42:00 | 54.816144 | 6.702247 | 2.0 | 8.343 | 2 | 35.733 | 8.525 | 33.969 | 2 |
| 2025-04-17T20:43:00 | 54.815081 | 6.703444 | 2.0 | 8.304 | 2 | 35.693 | 8.507 | 33.944 | 2 |
| 2025-04-17T20:44:00 | 54.814014 | 6.704646 | 2.0 | 8.292 | 2 | 35.717 | 8.475 | 34.000 | 2 |
| 2025-04-17T20:45:00 | 54.812950 | 6.705829 | 2.0 | 8.284 | 2 | 35.655 | 8.462 | 33.947 | 2 |
| 2025-04-17T20:46:00 | 54.811880 | 6.706988 | 2.0 | 8.283 | 2 | 35.810 | 8.455 | 34.118 | 2 |
| 2025-04-17T20:47:00 | 54.810815 | 6.708150 | 2.0 | 8.284 | 2 | 35.507 | 8.454 | 33.798 | 2 |
| 2025-04-17T20:48:00 | 54.809769 | 6.709312 | 2.0 | 8.275 | 2 | 35.854 | 8.454 | 34.165 | 2 |
| 2025-04-17T20:49:00 | 54.808731 | 6.710488 | 2.0 | 8.261 | 2 | 35.825 | 8.443 | 34.145 | 2 |
| 2025-04-17T20:50:00 | 54.807670 | 6.711633 | 2.0 | 8.255 | 2 | 35.724 | 8.431 | 34.050 | 2 |
| 2025-04-17T20:51:00 | 54.806593 | 6.712755 | 2.0 | 8.253 | 2 | 35.801 | 8.426 | 34.136 | 2 |
| 2025-04-17T20:52:00 | 54.805520 | 6.713874 | 2.0 | 8.243 | 2 | 35.641 | 8.422 | 33.971 | 2 |
| 2025-04-17T20:53:00 | 54.804448 | 6.715025 | 2.0 | 8.238 | 2 | 35.689 | 8.413 | 34.030 | 2 |
| 2025-04-17T20:54:00 | 54.803383 | 6.716195 | 2.0 | 8.241 | 2 | 35.729 | 8.409 | 34.076 | 2 |
| 2025-04-17T20:55:00 | 54.802321 | 6.717381 | 2.0 | 8.251 | 2 | 35.599 | 8.412 | 33.936 | 2 |
| 2025-04-17T20:56:00 | 54.801265 | 6.718601 | 2.0 | 8.265 | 2 | 35.645 | 8.424 | 33.973 | 2 |
| 2025-04-17T20:57:00 | 54.800200 | 6.719825 | 2.0 | 8.283 | 2 | 35.682 | 8.439 | 33.998 | 2 |
| 2025-04-17T20:58:00 | 54.799126 | 6.721043 | 2.0 | 8.278 | 2 | 35.689 | 8.451 | 33.993 | 2 |
| 2025-04-17T20:59:00 | 54.798042 | 6.722225 | 2.0 | 8.267 | 2 | 35.745 | 8.446 | 34.058 | 2 |
| 2025-04-17T21:00:00 | 54.796932 | 6.723347 | 2.0 | 8.254 | 2 | 35.828 | 8.436 | 34.155 | 2 |
| 2025-04-17T21:01:00 | 54.795817 | 6.724462 | 2.0 | 8.226 | 2 | 35.606 | 8.419 | 33.936 | 2 |
| 2025-04-17T21:02:00 | 54.794711 | 6.725616 | 2.0 | 8.195 | 2 | 35.715 | 8.392 | 34.078 | 2 |
| 2025-04-17T21:03:00 | 54.793651 | 6.726820 | 2.0 | 8.145 | 2 | 35.576 | 8.358 | 33.963 | 2 |
| 2025-04-17T21:04:00 | 54.792625 | 6.728061 | 2.0 | 8.093 | 2 | 35.625 | 8.310 | 34.062 | 2 |
| 2025-04-17T21:05:00 | 54.791596 | 6.729240 | 2.0 | 8.032 | 2 | 35.534 | 8.257 | 34.016 | 2 |
| 2025-04-17T21:06:00 | 54.790557 | 6.730352 | 2.0 | 8.012 | 2 | 35.469 | 8.203 | 34.000 | 2 |
| 2025-04-17T21:07:00 | 54.789507 | 6.731414 | 2.0 | 8.027 | 2 | 35.514 | 8.189 | 34.061 | 2 |
| 2025-04-17T21:08:00 | 54.788457 | 6.732477 | 2.0 | 8.065 | 2 | 35.414 | 8.203 | 33.941 | 2 |
| 2025-04-17T21:09:00 | 54.787426 | 6.733580 | 2.0 | 8.097 | 2 | 35.182 | 8.241 | 33.657 | 2 |
| 2025-04-17T21:10:00 | 54.786399 | 6.734699 | 2.0 | 8.137 | 2 | 35.411 | 8.272 | 33.871 | 2 |
| 2025-04-17T21:11:00 | 54.785373 | 6.735847 | 2.0 | 8.180 | 2 | 35.383 | 8.315 | 33.800 | 2 |
| 2025-04-17T21:12:00 | 54.784351 | 6.736995 | 2.0 | 8.187 | 2 | 35.504 | 8.347 | 33.898 | 2 |
| 2025-04-17T21:13:00 | 54.783334 | 6.738149 | 2.0 | 8.185 | 2 | 35.596 | 8.356 | 33.987 | 2 |
| 2025-04-17T21:14:00 | 54.782330 | 6.739317 | 2.0 | 8.167 | 2 | 35.782 | 8.351 | 34.189 | 2 |
| 2025-04-17T21:15:00 | 54.781309 | 6.740465 | 2.0 | 8.165 | 2 | 35.768 | 8.336 | 34.189 | 2 |
| 2025-04-17T21:16:00 | 54.780272 | 6.741602 | 2.0 | 8.162 | 2 | 35.765 | 8.335 | 34.186 | 2 |
| 2025-04-17T21:17:00 | 54.779233 | 6.742718 | 2.0 | 8.165 | 2 | 35.765 | 8.333 | 34.188 | 2 |
| 2025-04-17T21:18:00 | 54.778184 | 6.743801 | 2.0 | 8.171 | 2 | 35.768 | 8.337 | 34.188 | 2 |
| 2025-04-17T21:19:00 | 54.777146 | 6.744904 | 2.0 | 8.178 | 2 | 35.770 | 8.342 | 34.185 | 2 |
| 2025-04-17T21:20:00 | 54.776126 | 6.746051 | 2.0 | 8.179 | 2 | 35.773 | 8.349 | 34.181 | 2 |
| 2025-04-17T21:21:00 | 54.775118 | 6.747238 | 2.0 | 8.187 | 2 | 35.763 | 8.348 | 34.172 | 2 |
| 2025-04-17T21:22:00 | 54.774114 | 6.748438 | 2.0 | 8.197 | 2 | 35.757 | 8.361 | 34.153 | 2 |
| 2025-04-17T21:23:00 | 54.773099 | 6.749606 | 2.0 | 8.232 | 2 | 35.760 | 8.368 | 34.149 | 2 |
| 2025-04-17T21:24:00 | 54.772071 | 6.750721 | 2.0 | 8.268 | 2 | 35.798 | 8.411 | 34.148 | 2 |
| 2025-04-17T21:25:00 | 54.771030 | 6.751791 | 2.0 | 8.284 | 2 | 35.827 | 8.437 | 34.153 | 2 |
| 2025-04-17T21:26:00 | 54.769980 | 6.752824 | 2.0 | 8.293 | 2 | 35.841 | 8.454 | 34.152 | 2 |
| 2025-04-17T21:27:00 | 54.768941 | 6.753895 | 2.0 | 8.296 | 2 | 35.848 | 8.462 | 34.151 | 2 |
| 2025-04-17T21:28:00 | 54.767918 | 6.755030 | 2.0 | 8.286 | 2 | 35.848 | 8.463 | 34.150 | 2 |
| 2025-04-17T21:29:00 | 54.766912 | 6.756228 | 2.0 | 8.262 | 2 | 35.840 | 8.452 | 34.152 | 2 |
| 2025-04-17T21:30:00 | 54.765898 | 6.757407 | 2.0 | 8.230 | 2 | 35.817 | 8.427 | 34.152 | 2 |
| 2025-04-17T21:31:00 | 54.764861 | 6.758518 | 2.0 | 8.182 | 2 | 35.786 | 8.390 | 34.155 | 2 |
| 2025-04-17T21:32:00 | 54.763821 | 6.759628 | 2.0 | 8.140 | 2 | 35.750 | 8.349 | 34.157 | 2 |
| 2025-04-17T21:33:00 | 54.762768 | 6.760739 | 2.0 | 8.125 | 2 | 35.717 | 8.312 | 34.158 | 2 |
| 2025-04-17T21:34:00 | 54.761722 | 6.761868 | 2.0 | 8.119 | 2 | 35.700 | 8.296 | 34.155 | 2 |
| 2025-04-17T21:35:00 | 54.760685 | 6.763039 | 2.0 | 8.117 | 2 | 35.696 | 8.290 | 34.157 | 2 |
| 2025-04-17T21:36:00 | 54.759634 | 6.764223 | 2.0 | 8.124 | 2 | 35.698 | 8.289 | 34.160 | 2 |
| 2025-04-17T21:37:00 | 54.758581 | 6.765394 | 2.0 | 8.130 | 2 | 35.709 | 8.296 | 34.165 | 2 |
| 2025-04-17T21:38:00 | 54.757535 | 6.766571 | 2.0 | 8.132 | 2 | 35.721 | 8.300 | 34.174 | 2 |
| 2025-04-17T21:39:00 | 54.756470 | 6.767714 | 2.0 | 8.118 | 2 | 35.727 | 8.300 | 34.180 | 2 |
| 2025-04-17T21:40:00 | 54.755405 | 6.768856 | 2.0 | 8.099 | 2 | 35.723 | 8.286 | 34.189 | 2 |
| 2025-04-17T21:41:00 | 54.754348 | 6.770024 | 2.0 | 8.076 | 2 | 35.618 | 8.267 | 34.096 | 2 |
| 2025-04-17T21:42:00 | 54.753329 | 6.771293 | 2.0 | 8.056 | 2 | 35.514 | 8.243 | 34.009 | 2 |
| 2025-04-17T21:43:00 | 54.752307 | 6.772552 | 2.0 | 8.044 | 2 | 35.677 | 8.226 | 34.199 | 2 |
| 2025-04-17T21:44:00 | 54.751181 | 6.773378 | 2.0 | 7.993 | 2 | 35.652 | 8.208 | 34.190 | 2 |
| 2025-04-17T21:45:00 | 54.749974 | 6.773960 | 2.0 | 7.935 | 2 | 35.639 | 8.161 | 34.222 | 2 |
| 2025-04-17T21:46:00 | 54.748788 | 6.774728 | 2.0 | 7.889 | 2 | 35.597 | 8.099 | 34.237 | 2 |
| 2025-04-17T21:47:00 | 54.747957 | 6.776316 | 2.0 | 7.912 | 2 | 35.433 | 8.067 | 34.093 | 2 |
| 2025-04-17T21:48:00 | 54.747749 | 6.778298 | 2.0 | 7.970 | 2 | 35.183 | 8.093 | 33.801 | 2 |
| 2025-04-17T21:49:00 | 54.748169 | 6.780037 | 2.0 | 8.030 | 2 | 35.617 | 8.149 | 34.210 | 2 |
| 2025-04-17T21:50:00 | 54.749124 | 6.781020 | 2.0 | 8.066 | 2 | 35.650 | 8.201 | 34.194 | 2 |
| 2025-04-17T21:51:00 | 54.750155 | 6.780757 | 2.0 | 8.078 | 2 | 35.441 | 8.237 | 33.937 | 2 |
| 2025-04-17T21:52:00 | 54.751090 | 6.779626 | 2.0 | 8.068 | 2 | 34.933 | 8.246 | 33.388 | 2 |
| 2025-04-17T21:53:00 | 54.752096 | 6.778711 | 2.0 | 8.064 | 2 | 35.676 | 8.237 | 34.187 | 2 |
| 2025-04-17T21:54:00 | 54.753007 | 6.777845 | 2.0 | 8.083 | 2 | 35.550 | 8.239 | 34.051 | 2 |
| 2025-04-17T21:55:00 | 54.753838 | 6.776930 | 2.0 | 8.100 | 2 | 35.662 | 8.256 | 34.154 | 2 |
| 2025-04-17T21:56:00 | 54.754652 | 6.776075 | 2.0 | 8.120 | 2 | 35.527 | 8.273 | 33.993 | 2 |
| 2025-04-17T21:57:00 | 54.755439 | 6.775254 | 2.0 | 8.140 | 2 | 35.441 | 8.292 | 33.884 | 2 |
| 2025-04-17T21:58:00 | 54.756197 | 6.774398 | 2.0 | 8.152 | 2 | 35.320 | 8.311 | 33.737 | 2 |
| 2025-04-17T21:59:00 | 54.756959 | 6.773535 | 2.0 | 8.153 | 2 | 35.295 | 8.321 | 33.701 | 2 |
| 2025-04-17T22:00:00 | 54.757806 | 6.772593 | 2.0 | 8.147 | 2 | 35.128 | 8.321 | 33.524 | 2 |
| 2025-04-17T22:01:00 | 54.758760 | 6.771599 | 2.0 | 8.137 | 2 | 35.383 | 8.314 | 33.801 | 2 |
| 2025-04-17T22:02:00 | 54.759797 | 6.770549 | 2.0 | 8.126 | 2 | 35.222 | 8.304 | 33.640 | 2 |
| 2025-04-17T22:03:00 | 54.760869 | 6.769433 | 2.0 | 8.124 | 2 | 35.554 | 8.296 | 34.000 | 2 |
| 2025-04-17T22:04:00 | 54.761951 | 6.768283 | 2.0 | 8.142 | 2 | 35.407 | 8.295 | 33.845 | 2 |
| 2025-04-17T22:05:00 | 54.762995 | 6.767120 | 2.0 | 8.186 | 2 | 35.520 | 8.318 | 33.943 | 2 |
| 2025-04-17T22:06:00 | 54.764006 | 6.765978 | 2.0 | 8.227 | 2 | 35.506 | 8.360 | 33.887 | 2 |
| 2025-04-17T22:07:00 | 54.765008 | 6.764884 | 2.0 | 8.260 | 2 | 35.516 | 8.399 | 33.860 | 2 |
| 2025-04-17T22:08:00 | 54.765978 | 6.763782 | 2.0 | 8.278 | 2 | 35.622 | 8.431 | 33.942 | 2 |
| 2025-04-17T22:09:00 | 54.766941 | 6.762724 | 2.0 | 8.286 | 2 | 35.384 | 8.445 | 33.676 | 2 |
| 2025-04-17T22:10:00 | 54.767970 | 6.761588 | 2.0 | 8.284 | 2 | 35.666 | 8.452 | 33.968 | 2 |
| 2025-04-17T22:11:00 | 54.769073 | 6.760407 | 2.0 | 8.272 | 2 | 35.653 | 8.450 | 33.956 | 2 |
| 2025-04-17T22:12:00 | 54.770199 | 6.759171 | 2.0 | 8.226 | 2 | 35.463 | 8.432 | 33.772 | 2 |
| 2025-04-17T22:13:00 | 54.771330 | 6.757922 | 2.0 | 8.183 | 2 | 35.413 | 8.389 | 33.761 | 2 |
| 2025-04-17T22:14:00 | 54.772390 | 6.756702 | 2.0 | 8.166 | 2 | 35.377 | 8.350 | 33.760 | 2 |
| 2025-04-17T22:15:00 | 54.773423 | 6.755555 | 2.0 | 8.167 | 2 | 35.595 | 8.336 | 34.005 | 2 |
| 2025-04-17T22:16:00 | 54.774449 | 6.754437 | 2.0 | 8.168 | 2 | 35.625 | 8.338 | 34.035 | 2 |
| 2025-04-17T22:17:00 | 54.775493 | 6.753347 | 2.0 | 8.165 | 2 | 35.700 | 8.337 | 34.115 | 2 |
| 2025-04-17T22:18:00 | 54.776521 | 6.752239 | 2.0 | 8.179 | 2 | 35.538 | 8.336 | 33.944 | 2 |
| 2025-04-17T22:19:00 | 54.777535 | 6.751099 | 2.0 | 8.183 | 2 | 35.608 | 8.349 | 34.006 | 2 |
| 2025-04-17T22:20:00 | 54.778549 | 6.749974 | 2.0 | 8.199 | 2 | 35.493 | 8.355 | 33.878 | 2 |
| 2025-04-17T22:21:00 | 54.779570 | 6.748886 | 2.0 | 8.189 | 2 | 35.520 | 8.367 | 33.895 | 2 |
| 2025-04-17T22:22:00 | 54.780591 | 6.747813 | 2.0 | 8.151 | 2 | 35.617 | 8.354 | 34.011 | 2 |
| 2025-04-17T22:23:00 | 54.781596 | 6.746690 | 2.0 | 8.106 | 2 | 35.533 | 8.315 | 33.959 | 2 |
| 2025-04-17T22:24:00 | 54.782598 | 6.745552 | 2.0 | 8.047 | 2 | 35.040 | 8.265 | 33.484 | 2 |
| 2025-04-17T22:25:00 | 54.783603 | 6.744423 | 2.0 | 8.049 | 2 | 35.366 | 8.218 | 33.875 | 2 |
| 2025-04-17T22:26:00 | 54.784616 | 6.743318 | 2.0 | 8.083 | 2 | 35.387 | 8.225 | 33.891 | 2 |
| 2025-04-17T22:27:00 | 54.785632 | 6.742207 | 2.0 | 8.134 | 2 | 35.627 | 8.261 | 34.112 | 2 |
| 2025-04-17T22:28:00 | 54.786636 | 6.741114 | 2.0 | 8.180 | 2 | 35.785 | 8.311 | 34.231 | 2 |
| 2025-04-17T22:29:00 | 54.787639 | 6.740020 | 2.0 | 8.212 | 2 | 35.813 | 8.352 | 34.221 | 2 |
| 2025-04-17T22:30:00 | 54.788654 | 6.738956 | 2.0 | 8.231 | 2 | 35.835 | 8.381 | 34.216 | 2 |
| 2025-04-17T22:31:00 | 54.789667 | 6.737904 | 2.0 | 8.245 | 2 | 35.849 | 8.400 | 34.212 | 2 |
| 2025-04-17T22:32:00 | 54.790667 | 6.736819 | 2.0 | 8.260 | 2 | 35.855 | 8.416 | 34.203 | 2 |
| 2025-04-17T22:33:00 | 54.791656 | 6.735702 | 2.0 | 8.258 | 2 | 35.859 | 8.428 | 34.196 | 2 |
| 2025-04-17T22:34:00 | 54.792654 | 6.734591 | 2.0 | 8.236 | 2 | 35.847 | 8.421 | 34.190 | 2 |
| 2025-04-17T22:35:00 | 54.793686 | 6.733487 | 2.0 | 8.236 | 2 | 35.824 | 8.406 | 34.180 | 2 |
| 2025-04-17T22:36:00 | 54.794744 | 6.732382 | 2.0 | 8.217 | 2 | 35.816 | 8.402 | 34.176 | 2 |
| 2025-04-17T22:37:00 | 54.795800 | 6.731217 | 2.0 | 8.215 | 2 | 35.800 | 8.387 | 34.173 | 2 |
| 2025-04-17T22:38:00 | 54.796862 | 6.730007 | 2.0 | 8.223 | 2 | 35.798 | 8.385 | 34.173 | 2 |
| 2025-04-17T22:39:00 | 54.797936 | 6.728835 | 2.0 | 8.233 | 2 | 35.806 | 8.394 | 34.173 | 2 |
| 2025-04-17T22:40:00 | 54.799013 | 6.727640 | 2.0 | 8.251 | 2 | 35.818 | 8.404 | 34.176 | 2 |
| 2025-04-17T22:41:00 | 54.800098 | 6.726431 | 2.0 | 8.270 | 2 | 35.839 | 8.423 | 34.180 | 2 |
| 2025-04-17T22:42:00 | 54.801192 | 6.725273 | 2.0 | 8.258 | 2 | 35.858 | 8.435 | 34.188 | 2 |
| 2025-04-17T22:43:00 | 54.802252 | 6.724112 | 2.0 | 8.279 | 2 | 35.858 | 8.429 | 34.194 | 2 |
| 2025-04-17T22:44:00 | 54.803307 | 6.722979 | 2.0 | 8.286 | 2 | 35.882 | 8.449 | 34.200 | 2 |
| 2025-04-17T22:45:00 | 54.804342 | 6.721817 | 2.0 | 8.272 | 2 | 35.886 | 8.451 | 34.202 | 2 |
| 2025-04-17T22:46:00 | 54.805378 | 6.720669 | 2.0 | 8.261 | 2 | 35.875 | 8.439 | 34.202 | 2 |
| 2025-04-17T22:47:00 | 54.806401 | 6.719513 | 2.0 | 8.253 | 2 | 35.864 | 8.429 | 34.200 | 2 |
| 2025-04-17T22:48:00 | 54.807422 | 6.718397 | 2.0 | 8.246 | 2 | 35.858 | 8.421 | 34.202 | 2 |
| 2025-04-17T22:49:00 | 54.808459 | 6.717308 | 2.0 | 8.233 | 2 | 35.852 | 8.413 | 34.203 | 2 |
| 2025-04-17T22:50:00 | 54.809484 | 6.716186 | 2.0 | 8.296 | 2 | 35.842 | 8.405 | 34.200 | 2 |
| 2025-04-17T22:51:00 | 54.810479 | 6.715009 | 2.0 | 8.348 | 2 | 35.845 | 8.478 | 34.133 | 2 |
| 2025-04-17T22:52:00 | 54.811495 | 6.713868 | 2.0 | 8.357 | 2 | 35.800 | 8.516 | 34.048 | 2 |
| 2025-04-17T22:53:00 | 54.812525 | 6.712767 | 2.0 | 8.365 | 2 | 35.847 | 8.525 | 34.089 | 2 |
| 2025-04-17T22:54:00 | 54.813549 | 6.711690 | 2.0 | 8.374 | 2 | 35.715 | 8.533 | 33.942 | 2 |
| 2025-04-17T22:55:00 | 54.814569 | 6.710605 | 2.0 | 8.387 | 2 | 35.825 | 8.543 | 34.049 | 2 |
| 2025-04-17T22:56:00 | 54.815592 | 6.709517 | 2.0 | 8.394 | 2 | 35.802 | 8.555 | 34.013 | 2 |
| 2025-04-17T22:57:00 | 54.816605 | 6.708412 | 2.0 | 8.415 | 2 | 35.781 | 8.565 | 33.981 | 2 |
| 2025-04-17T22:58:00 | 54.817604 | 6.707290 | 2.0 | 8.432 | 2 | 35.749 | 8.584 | 33.929 | 2 |
| 2025-04-17T22:59:00 | 54.818607 | 6.706212 | 2.0 | 8.440 | 2 | 35.730 | 8.600 | 33.893 | 2 |
| 2025-04-17T23:00:00 | 54.819604 | 6.705131 | 2.0 | 8.440 | 2 | 35.718 | 8.608 | 33.873 | 2 |
| 2025-04-17T23:01:00 | 54.820601 | 6.704055 | 2.0 | 8.433 | 2 | 35.708 | 8.605 | 33.865 | 2 |
| 2025-04-17T23:02:00 | 54.821585 | 6.702959 | 2.0 | 8.430 | 2 | 35.678 | 8.600 | 33.838 | 2 |
| 2025-04-17T23:03:00 | 54.822563 | 6.701837 | 2.0 | 8.427 | 2 | 35.675 | 8.596 | 33.839 | 2 |
| 2025-04-17T23:04:00 | 54.823557 | 6.700710 | 2.0 | 8.422 | 2 | 35.656 | 8.595 | 33.820 | 2 |
| 2025-04-17T23:05:00 | 54.824568 | 6.699619 | 2.0 | 8.418 | 2 | 35.382 | 8.589 | 33.537 | 2 |
| 2025-04-17T23:06:00 | 54.825587 | 6.698551 | 2.0 | 8.416 | 2 | 35.556 | 8.586 | 33.723 | 2 |
| 2025-04-17T23:07:00 | 54.826599 | 6.697440 | 2.0 | 8.402 | 2 | 35.302 | 8.581 | 33.460 | 2 |
| 2025-04-17T23:08:00 | 54.827623 | 6.696355 | 2.0 | 8.401 | 2 | 35.600 | 8.570 | 33.785 | 2 |
| 2025-04-17T23:09:00 | 54.828634 | 6.695258 | 2.0 | 8.406 | 2 | 35.605 | 8.569 | 33.791 | 2 |
| 2025-04-17T23:10:00 | 54.829637 | 6.694156 | 2.0 | 8.413 | 2 | 35.353 | 8.575 | 33.520 | 2 |
| 2025-04-17T23:11:00 | 54.830629 | 6.693033 | 2.0 | 8.418 | 2 | 35.605 | 8.582 | 33.779 | 2 |
| 2025-04-17T23:12:00 | 54.831611 | 6.691890 | 2.0 | 8.422 | 2 | 35.316 | 8.586 | 33.470 | 2 |
| 2025-04-17T23:13:00 | 54.832608 | 6.690775 | 2.0 | 8.425 | 2 | 35.471 | 8.590 | 33.630 | 2 |
| 2025-04-17T23:14:00 | 54.833604 | 6.689675 | 2.0 | 8.414 | 2 | 35.453 | 8.592 | 33.609 | 2 |
| 2025-04-17T23:15:00 | 54.834594 | 6.688584 | 2.0 | 8.357 | 2 | 35.454 | 8.577 | 33.624 | 2 |
| 2025-04-17T23:16:00 | 54.835614 | 6.687543 | 2.0 | 8.267 | 2 | 35.737 | 8.509 | 33.988 | 2 |
| 2025-04-17T23:17:00 | 54.836638 | 6.686514 | 2.0 | 8.271 | 2 | 35.800 | 8.440 | 34.122 | 2 |
| 2025-04-17T23:18:00 | 54.837635 | 6.685431 | 2.0 | 8.287 | 2 | 35.739 | 8.444 | 34.053 | 2 |
| 2025-04-17T23:19:00 | 54.838609 | 6.684301 | 2.0 | 8.313 | 2 | 35.615 | 8.460 | 33.906 | 2 |
| 2025-04-17T23:20:00 | 54.839592 | 6.683174 | 2.0 | 8.338 | 2 | 35.616 | 8.485 | 33.883 | 2 |
| 2025-04-17T23:21:00 | 54.840579 | 6.682050 | 2.0 | 8.363 | 2 | 35.711 | 8.510 | 33.960 | 2 |
| 2025-04-17T23:22:00 | 54.841571 | 6.680968 | 2.0 | 8.358 | 2 | 35.684 | 8.529 | 33.913 | 2 |
| 2025-04-17T23:23:00 | 54.842552 | 6.679906 | 2.0 | 8.367 | 2 | 35.551 | 8.527 | 33.774 | 2 |
| 2025-04-17T23:24:00 | 54.843523 | 6.678813 | 2.0 | 8.357 | 2 | 35.651 | 8.533 | 33.874 | 2 |
| 2025-04-17T23:25:00 | 54.844495 | 6.677722 | 2.0 | 8.378 | 2 | 35.659 | 8.529 | 33.887 | 2 |
| 2025-04-17T23:26:00 | 54.845502 | 6.676690 | 2.0 | 8.395 | 2 | 35.729 | 8.548 | 33.942 | 2 |
| 2025-04-17T23:27:00 | 54.846495 | 6.675622 | 2.0 | 8.419 | 2 | 35.730 | 8.566 | 33.926 | 2 |
| 2025-04-17T23:28:00 | 54.847450 | 6.674480 | 2.0 | 8.443 | 2 | 35.613 | 8.589 | 33.780 | 2 |
| 2025-04-17T23:29:00 | 54.848444 | 6.673412 | 2.0 | 8.454 | 2 | 35.706 | 8.612 | 33.856 | 2 |
| 2025-04-17T23:30:00 | 54.849443 | 6.672363 | 2.0 | 8.468 | 2 | 35.553 | 8.623 | 33.685 | 2 |
| 2025-04-17T23:31:00 | 54.850426 | 6.671287 | 2.0 | 8.487 | 2 | 35.775 | 8.638 | 33.904 | 2 |
| 2025-04-17T23:32:00 | 54.851404 | 6.670225 | 2.0 | 8.502 | 2 | 35.841 | 8.655 | 33.958 | 2 |
| 2025-04-17T23:33:00 | 54.852375 | 6.669171 | 2.0 | 8.523 | 2 | 35.821 | 8.672 | 33.920 | 2 |
| 2025-04-17T23:34:00 | 54.853332 | 6.668130 | 2.0 | 8.543 | 2 | 35.785 | 8.692 | 33.863 | 2 |
| 2025-04-17T23:35:00 | 54.854278 | 6.667055 | 2.0 | 8.571 | 2 | 35.834 | 8.713 | 33.894 | 2 |
| 2025-04-17T23:36:00 | 54.855235 | 6.666010 | 2.0 | 8.595 | 2 | 35.796 | 8.740 | 33.829 | 2 |
| 2025-04-17T23:37:00 | 54.856181 | 6.665009 | 2.0 | 8.615 | 2 | 35.786 | 8.763 | 33.796 | 2 |
| 2025-04-17T23:38:00 | 54.857115 | 6.663917 | 2.0 | 8.634 | 2 | 35.809 | 8.783 | 33.801 | 2 |
| 2025-04-17T23:39:00 | 54.858064 | 6.662844 | 2.0 | 8.650 | 2 | 35.729 | 8.801 | 33.700 | 2 |
| 2025-04-17T23:40:00 | 54.859026 | 6.661822 | 2.0 | 8.664 | 2 | 35.783 | 8.817 | 33.742 | 2 |
| 2025-04-17T23:41:00 | 54.859975 | 6.660753 | 2.0 | 8.677 | 2 | 35.838 | 8.831 | 33.786 | 2 |
| 2025-04-17T23:42:00 | 54.860942 | 6.659716 | 2.0 | 8.691 | 2 | 35.835 | 8.844 | 33.770 | 2 |
| 2025-04-17T23:43:00 | 54.861914 | 6.658683 | 2.0 | 8.701 | 2 | 35.802 | 8.858 | 33.722 | 2 |
| 2025-04-17T23:44:00 | 54.862909 | 6.657627 | 2.0 | 8.716 | 2 | 35.713 | 8.869 | 33.619 | 2 |
| 2025-04-17T23:45:00 | 54.863908 | 6.656556 | 2.0 | 8.725 | 2 | 35.761 | 8.882 | 33.657 | 2 |
| 2025-04-17T23:46:00 | 54.864894 | 6.655462 | 2.0 | 8.732 | 2 | 35.746 | 8.891 | 33.632 | 2 |
| 2025-04-17T23:47:00 | 54.865864 | 6.654329 | 2.0 | 8.733 | 2 | 35.736 | 8.897 | 33.616 | 2 |
| 2025-04-17T23:48:00 | 54.866863 | 6.653197 | 2.0 | 8.740 | 2 | 35.793 | 8.900 | 33.673 | 2 |
| 2025-04-17T23:49:00 | 54.867884 | 6.652143 | 2.0 | 8.740 | 2 | 35.740 | 8.905 | 33.613 | 2 |
| 2025-04-17T23:50:00 | 54.868919 | 6.651079 | 2.0 | 8.745 | 2 | 35.798 | 8.907 | 33.672 | 2 |
| 2025-04-17T23:51:00 | 54.869950 | 6.650008 | 2.0 | 8.743 | 2 | 35.756 | 8.910 | 33.625 | 2 |
| 2025-04-17T23:52:00 | 54.870953 | 6.648897 | 2.0 | 8.740 | 2 | 35.831 | 8.908 | 33.705 | 2 |
| 2025-04-17T23:53:00 | 54.871922 | 6.647723 | 2.0 | 8.744 | 2 | 35.805 | 8.906 | 33.680 | 2 |
| 2025-04-17T23:54:00 | 54.872908 | 6.646612 | 2.0 | 8.757 | 2 | 35.821 | 8.912 | 33.691 | 2 |
| 2025-04-17T23:55:00 | 54.873915 | 6.645525 | 2.0 | 8.769 | 2 | 35.839 | 8.924 | 33.698 | 2 |
| 2025-04-17T23:56:00 | 54.874934 | 6.644408 | 2.0 | 8.789 | 2 | 35.866 | 8.938 | 33.713 | 2 |
| 2025-04-17T23:57:00 | 54.875966 | 6.643306 | 2.0 | 8.808 | 2 | 35.884 | 8.958 | 33.713 | 2 |
| 2025-04-17T23:58:00 | 54.876989 | 6.642173 | 2.0 | 8.814 | 2 | 35.894 | 8.974 | 33.708 | 2 |
| 2025-04-17T23:59:00 | 54.878004 | 6.641047 | 2.0 | 8.801 | 2 | 35.934 | 8.977 | 33.747 | 2 |
| 2025-04-18T00:00:00 | 54.879019 | 6.639905 | 2.0 | 8.800 | 2 | 35.942 | 8.965 | 33.767 | 2 |
| 2025-04-18T00:01:00 | 54.880050 | 6.638770 | 2.0 | 8.804 | 2 | 35.965 | 8.968 | 33.788 | 2 |
| 2025-04-18T00:02:00 | 54.881095 | 6.637694 | 2.0 | 8.804 | 2 | 35.972 | 8.969 | 33.795 | 2 |
| 2025-04-18T00:03:00 | 54.882115 | 6.636586 | 2.0 | 8.815 | 2 | 35.950 | 8.971 | 33.770 | 2 |
| 2025-04-18T00:04:00 | 54.883136 | 6.635452 | 2.0 | 8.825 | 2 | 35.969 | 8.982 | 33.779 | 2 |
| 2025-04-18T00:05:00 | 54.884156 | 6.634295 | 2.0 | 8.828 | 2 | 36.027 | 8.991 | 33.831 | 2 |
| 2025-04-18T00:06:00 | 54.885183 | 6.633150 | 2.0 | 8.814 | 2 | 36.012 | 8.991 | 33.816 | 2 |
| 2025-04-18T00:07:00 | 54.886192 | 6.632045 | 2.0 | 8.780 | 2 | 35.990 | 8.974 | 33.809 | 2 |
| 2025-04-18T00:08:00 | 54.887199 | 6.630921 | 2.0 | 8.737 | 2 | 36.010 | 8.942 | 33.860 | 2 |
| 2025-04-18T00:09:00 | 54.888217 | 6.629785 | 2.0 | 8.723 | 2 | 35.986 | 8.902 | 33.873 | 2 |
| 2025-04-18T00:10:00 | 54.889261 | 6.628673 | 2.0 | 8.690 | 2 | 35.992 | 8.885 | 33.896 | 2 |
| 2025-04-18T00:11:00 | 54.890303 | 6.627534 | 2.0 | 8.644 | 2 | 35.984 | 8.852 | 33.919 | 2 |
| 2025-04-18T00:12:00 | 54.891347 | 6.626395 | 2.0 | 8.604 | 2 | 35.987 | 8.809 | 33.963 | 2 |
| 2025-04-18T00:13:00 | 54.892388 | 6.625261 | 2.0 | 8.593 | 2 | 35.943 | 8.771 | 33.953 | 2 |
| 2025-04-18T00:14:00 | 54.893408 | 6.624096 | 2.0 | 8.603 | 2 | 36.017 | 8.766 | 34.036 | 2 |
| 2025-04-18T00:15:00 | 54.894430 | 6.622915 | 2.0 | 8.629 | 2 | 36.074 | 8.775 | 34.087 | 2 |
| 2025-04-18T00:16:00 | 54.895468 | 6.621769 | 2.0 | 8.624 | 2 | 36.162 | 8.797 | 34.159 | 2 |
| 2025-04-18T00:17:00 | 54.896495 | 6.620718 | 2.0 | 8.615 | 2 | 36.211 | 8.790 | 34.217 | 2 |
| 2025-04-18T00:18:00 | 54.897509 | 6.619612 | 2.0 | 8.609 | 2 | 36.211 | 8.783 | 34.224 | 2 |
| 2025-04-18T00:19:00 | 54.898521 | 6.618501 | 2.0 | 8.593 | 2 | 36.205 | 8.774 | 34.226 | 2 |
| 2025-04-18T00:20:00 | 54.899522 | 6.617385 | 2.0 | 8.569 | 2 | 36.192 | 8.757 | 34.229 | 2 |
| 2025-04-18T00:21:00 | 54.900532 | 6.616305 | 2.0 | 8.581 | 2 | 36.175 | 8.737 | 34.230 | 2 |
| 2025-04-18T00:22:00 | 54.901508 | 6.615154 | 2.0 | 8.603 | 2 | 36.150 | 8.754 | 34.187 | 2 |
| 2025-04-18T00:23:00 | 54.902496 | 6.614059 | 2.0 | 8.599 | 2 | 36.137 | 8.769 | 34.159 | 2 |
| 2025-04-18T00:24:00 | 54.903498 | 6.613053 | 2.0 | 8.605 | 2 | 36.132 | 8.769 | 34.154 | 2 |
| 2025-04-18T00:25:00 | 54.904486 | 6.612038 | 2.0 | 8.613 | 2 | 36.125 | 8.772 | 34.144 | 2 |
| 2025-04-18T00:26:00 | 54.905442 | 6.610964 | 2.0 | 8.589 | 2 | 36.120 | 8.784 | 34.127 | 2 |
| 2025-04-18T00:27:00 | 54.906410 | 6.609866 | 2.0 | 8.552 | 2 | 36.129 | 8.741 | 34.178 | 2 |
| 2025-04-18T00:28:00 | 54.907384 | 6.608764 | 2.0 | 8.552 | 2 | 36.120 | 8.721 | 34.188 | 2 |
| 2025-04-18T00:29:00 | 54.908379 | 6.607671 | 2.0 | 8.555 | 2 | 36.106 | 8.721 | 34.173 | 2 |
| 2025-04-18T00:30:00 | 54.909395 | 6.606623 | 2.0 | 8.553 | 2 | 36.098 | 8.723 | 34.163 | 2 |
| 2025-04-18T00:31:00 | 54.910395 | 6.605527 | 2.0 | 8.552 | 2 | 36.089 | 8.722 | 34.154 | 2 |
| 2025-04-18T00:32:00 | 54.911383 | 6.604392 | 2.0 | 8.541 | 2 | 36.082 | 8.719 | 34.150 | 2 |
| 2025-04-18T00:33:00 | 54.912376 | 6.603264 | 2.0 | 8.533 | 2 | 36.071 | 8.708 | 34.149 | 2 |
| 2025-04-18T00:34:00 | 54.913394 | 6.602164 | 2.0 | 8.530 | 2 | 35.696 | 8.700 | 33.762 | 2 |
| 2025-04-18T00:35:00 | 54.914438 | 6.601106 | 2.0 | 8.524 | 2 | 36.067 | 8.697 | 34.155 | 2 |
| 2025-04-18T00:36:00 | 54.915469 | 6.600019 | 2.0 | 8.515 | 2 | 36.062 | 8.691 | 34.156 | 2 |
| 2025-04-18T00:37:00 | 54.916460 | 6.598864 | 2.0 | 8.509 | 2 | 36.054 | 8.683 | 34.155 | 2 |
| 2025-04-18T00:38:00 | 54.917454 | 6.597704 | 2.0 | 8.499 | 2 | 36.047 | 8.675 | 34.155 | 2 |
| 2025-04-18T00:39:00 | 54.918294 | 6.596314 | 2.0 | 8.491 | 2 | 36.039 | 8.666 | 34.156 | 2 |
| 2025-04-18T00:40:00 | 54.919075 | 6.594847 | 2.0 | 8.482 | 2 | 36.034 | 8.658 | 34.158 | 2 |
| 2025-04-18T00:41:00 | 54.920009 | 6.593670 | 2.0 | 8.473 | 2 | 36.033 | 8.649 | 34.166 | 2 |
| 2025-04-18T00:42:00 | 54.921277 | 6.593830 | 2.0 | 8.467 | 2 | 36.039 | 8.640 | 34.181 | 2 |
| 2025-04-18T00:43:00 | 54.922156 | 6.595678 | 2.0 | 8.472 | 2 | 36.040 | 8.637 | 34.185 | 2 |
| 2025-04-18T00:44:00 | 54.921995 | 6.598016 | 2.0 | 8.479 | 2 | 36.022 | 8.642 | 34.161 | 2 |
| 2025-04-18T00:45:00 | 54.921121 | 6.599617 | 2.0 | 8.487 | 2 | 36.039 | 8.649 | 34.172 | 2 |
| 2025-04-18T00:46:00 | 54.920077 | 6.600988 | 2.0 | 8.492 | 2 | 36.038 | 8.656 | 34.164 | 2 |
| 2025-04-18T00:47:00 | 54.919033 | 6.602397 | 2.0 | 8.502 | 2 | 36.040 | 8.663 | 34.160 | 2 |
| 2025-04-18T00:48:00 | 54.917983 | 6.603766 | 2.0 | 8.508 | 2 | 36.027 | 8.671 | 34.138 | 2 |
| 2025-04-18T00:49:00 | 54.916896 | 6.604986 | 2.0 | 8.514 | 2 | 36.049 | 8.676 | 34.156 | 2 |
| 2025-04-18T00:50:00 | 54.915798 | 6.606135 | 2.0 | 8.522 | 2 | 35.943 | 8.683 | 34.038 | 2 |
| 2025-04-18T00:51:00 | 54.914731 | 6.607369 | 2.0 | 8.525 | 2 | 35.625 | 8.689 | 33.698 | 2 |
| 2025-04-18T00:52:00 | 54.913672 | 6.608615 | 2.0 | 8.525 | 2 | 35.919 | 8.692 | 34.004 | 2 |
| 2025-04-18T00:53:00 | 54.912589 | 6.609784 | 2.0 | 8.535 | 2 | 35.985 | 8.693 | 34.073 | 2 |
| 2025-04-18T00:54:00 | 54.911504 | 6.610930 | 2.0 | 8.544 | 2 | 35.589 | 8.704 | 33.645 | 2 |
| 2025-04-18T00:55:00 | 54.910421 | 6.612083 | 2.0 | 8.548 | 2 | 35.840 | 8.711 | 33.903 | 2 |
| 2025-04-18T00:56:00 | 54.909341 | 6.613274 | 2.0 | 8.547 | 2 | 35.746 | 8.715 | 33.800 | 2 |
| 2025-04-18T00:57:00 | 54.908262 | 6.614486 | 2.0 | 8.562 | 2 | 36.074 | 8.715 | 34.145 | 2 |
| 2025-04-18T00:58:00 | 54.907164 | 6.615642 | 2.0 | 8.605 | 2 | 35.736 | 8.734 | 33.771 | 2 |
| 2025-04-18T00:59:00 | 54.906059 | 6.616765 | 2.0 | 8.619 | 2 | 35.916 | 8.777 | 33.919 | 2 |
| 2025-04-18T01:00:00 | 54.904984 | 6.617967 | 2.0 | 8.616 | 2 | 35.487 | 8.785 | 33.462 | 2 |
| 2025-04-18T01:01:00 | 54.903949 | 6.619280 | 2.0 | 8.615 | 2 | 36.016 | 8.783 | 34.019 | 2 |
| 2025-04-18T01:02:00 | 54.902902 | 6.620555 | 2.0 | 8.616 | 2 | 35.743 | 8.781 | 33.734 | 2 |
| 2025-04-18T01:03:00 | 54.901833 | 6.621769 | 2.0 | 8.630 | 2 | 35.750 | 8.785 | 33.737 | 2 |
| 2025-04-18T01:04:00 | 54.900749 | 6.622920 | 2.0 | 8.626 | 2 | 35.929 | 8.795 | 33.916 | 2 |
| 2025-04-18T01:05:00 | 54.899657 | 6.624009 | 2.0 | 8.624 | 2 | 36.149 | 8.793 | 34.149 | 2 |
| 2025-04-18T01:06:00 | 54.898563 | 6.625075 | 2.0 | 8.625 | 2 | 35.762 | 8.791 | 33.744 | 2 |
| 2025-04-18T01:07:00 | 54.897480 | 6.626173 | 2.0 | 8.621 | 2 | 35.889 | 8.791 | 33.878 | 2 |
| 2025-04-18T01:08:00 | 54.896422 | 6.627341 | 2.0 | 8.617 | 2 | 36.171 | 8.788 | 34.177 | 2 |
| 2025-04-18T01:09:00 | 54.895386 | 6.628572 | 2.0 | 8.620 | 2 | 35.911 | 8.784 | 33.907 | 2 |
| 2025-04-18T01:10:00 | 54.894364 | 6.629839 | 2.0 | 8.621 | 2 | 35.975 | 8.787 | 33.972 | 2 |
| 2025-04-18T01:11:00 | 54.893312 | 6.631043 | 2.0 | 8.627 | 2 | 35.942 | 8.789 | 33.935 | 2 |
| 2025-04-18T01:12:00 | 54.892236 | 6.632163 | 2.0 | 8.603 | 2 | 35.806 | 8.791 | 33.790 | 2 |
| 2025-04-18T01:13:00 | 54.891156 | 6.633277 | 2.0 | 8.592 | 2 | 35.790 | 8.770 | 33.794 | 2 |
| 2025-04-18T01:14:00 | 54.890099 | 6.634419 | 2.0 | 8.586 | 2 | 35.944 | 8.759 | 33.966 | 2 |
| 2025-04-18T01:15:00 | 54.889065 | 6.635593 | 2.0 | 8.609 | 2 | 35.798 | 8.755 | 33.816 | 2 |
| 2025-04-18T01:16:00 | 54.888022 | 6.636728 | 2.0 | 8.650 | 2 | 35.803 | 8.782 | 33.796 | 2 |
| 2025-04-18T01:17:00 | 54.886971 | 6.637839 | 2.0 | 8.682 | 2 | 35.758 | 8.821 | 33.712 | 2 |
| 2025-04-18T01:18:00 | 54.885912 | 6.638924 | 2.0 | 8.705 | 2 | 35.758 | 8.850 | 33.684 | 2 |
| 2025-04-18T01:19:00 | 54.884848 | 6.640007 | 2.0 | 8.715 | 2 | 35.685 | 8.871 | 33.588 | 2 |
| 2025-04-18T01:20:00 | 54.883806 | 6.641158 | 2.0 | 8.742 | 2 | 35.855 | 8.884 | 33.753 | 2 |
| 2025-04-18T01:21:00 | 54.882791 | 6.642381 | 2.0 | 8.772 | 2 | 35.855 | 8.910 | 33.728 | 2 |
| 2025-04-18T01:22:00 | 54.881780 | 6.643613 | 2.0 | 8.796 | 2 | 35.849 | 8.940 | 33.694 | 2 |
| 2025-04-18T01:23:00 | 54.880764 | 6.644829 | 2.0 | 8.808 | 2 | 35.824 | 8.962 | 33.647 | 2 |
| 2025-04-18T01:24:00 | 54.879728 | 6.645993 | 2.0 | 8.800 | 2 | 35.950 | 8.972 | 33.769 | 2 |
| 2025-04-18T01:25:00 | 54.878675 | 6.647097 | 2.0 | 8.790 | 2 | 35.880 | 8.963 | 33.704 | 2 |
| 2025-04-18T01:26:00 | 54.877615 | 6.648166 | 2.0 | 8.787 | 2 | 35.802 | 8.955 | 33.630 | 2 |
| 2025-04-18T01:27:00 | 54.876565 | 6.649255 | 2.0 | 8.779 | 2 | 35.950 | 8.952 | 33.788 | 2 |
| 2025-04-18T01:28:00 | 54.875546 | 6.650388 | 2.0 | 8.776 | 2 | 35.885 | 8.944 | 33.728 | 2 |
| 2025-04-18T01:29:00 | 54.874548 | 6.651549 | 2.0 | 8.792 | 2 | 35.901 | 8.946 | 33.742 | 2 |
| 2025-04-18T01:30:00 | 54.873546 | 6.652713 | 2.0 | 8.787 | 2 | 35.887 | 8.957 | 33.717 | 2 |
| 2025-04-18T01:31:00 | 54.872543 | 6.653860 | 2.0 | 8.773 | 2 | 35.830 | 8.951 | 33.663 | 2 |
| 2025-04-18T01:32:00 | 54.871526 | 6.654967 | 2.0 | 8.749 | 2 | 35.822 | 8.935 | 33.670 | 2 |
| 2025-04-18T01:33:00 | 54.870500 | 6.656033 | 2.0 | 8.733 | 2 | 35.887 | 8.913 | 33.759 | 2 |
| 2025-04-18T01:34:00 | 54.869478 | 6.657094 | 2.0 | 8.721 | 2 | 35.842 | 8.899 | 33.725 | 2 |
| 2025-04-18T01:35:00 | 54.868463 | 6.658184 | 2.0 | 8.714 | 2 | 35.818 | 8.887 | 33.712 | 2 |
| 2025-04-18T01:36:00 | 54.867453 | 6.659285 | 2.0 | 8.712 | 2 | 35.796 | 8.881 | 33.694 | 2 |
| 2025-04-18T01:37:00 | 54.866438 | 6.660395 | 2.0 | 8.706 | 2 | 35.795 | 8.878 | 33.696 | 2 |
| 2025-04-18T01:38:00 | 54.865428 | 6.661530 | 2.0 | 8.697 | 2 | 35.801 | 8.871 | 33.709 | 2 |
| 2025-04-18T01:39:00 | 54.864418 | 6.662660 | 2.0 | 8.687 | 2 | 35.831 | 8.863 | 33.748 | 2 |
| 2025-04-18T01:40:00 | 54.863406 | 6.663746 | 2.0 | 8.678 | 2 | 35.779 | 8.853 | 33.703 | 2 |
| 2025-04-18T01:41:00 | 54.862404 | 6.664840 | 2.0 | 8.668 | 2 | 35.816 | 8.844 | 33.750 | 2 |
| 2025-04-18T01:42:00 | 54.861400 | 6.665939 | 2.0 | 8.658 | 2 | 35.804 | 8.833 | 33.748 | 2 |
| 2025-04-18T01:43:00 | 54.860401 | 6.667066 | 2.0 | 8.653 | 2 | 35.811 | 8.824 | 33.764 | 2 |
| 2025-04-18T01:44:00 | 54.859412 | 6.668209 | 2.0 | 8.653 | 2 | 35.881 | 8.821 | 33.841 | 2 |
| 2025-04-18T01:45:00 | 54.858435 | 6.669356 | 2.0 | 8.646 | 2 | 35.827 | 8.819 | 33.786 | 2 |
| 2025-04-18T01:46:00 | 54.857435 | 6.670419 | 2.0 | 8.638 | 2 | 35.836 | 8.812 | 33.802 | 2 |
| 2025-04-18T01:47:00 | 54.856404 | 6.671436 | 2.0 | 8.634 | 2 | 35.874 | 8.805 | 33.848 | 2 |
| 2025-04-18T01:48:00 | 54.855355 | 6.672465 | 2.0 | 8.629 | 2 | 35.890 | 8.800 | 33.870 | 2 |
| 2025-04-18T01:49:00 | 54.854337 | 6.673582 | 2.0 | 8.622 | 2 | 35.922 | 8.795 | 33.908 | 2 |
| 2025-04-18T01:50:00 | 54.853351 | 6.674783 | 2.0 | 8.616 | 2 | 35.877 | 8.789 | 33.867 | 2 |
| 2025-04-18T01:51:00 | 54.852359 | 6.675965 | 2.0 | 8.609 | 2 | 35.919 | 8.782 | 33.918 | 2 |
| 2025-04-18T01:52:00 | 54.851335 | 6.677056 | 2.0 | 8.599 | 2 | 35.918 | 8.775 | 33.923 | 2 |
| 2025-04-18T01:53:00 | 54.850305 | 6.678149 | 2.0 | 8.588 | 2 | 35.891 | 8.765 | 33.905 | 2 |
| 2025-04-18T01:54:00 | 54.849272 | 6.679257 | 2.0 | 8.574 | 2 | 35.922 | 8.754 | 33.948 | 2 |
| 2025-04-18T01:55:00 | 54.848225 | 6.680351 | 2.0 | 8.559 | 2 | 35.941 | 8.739 | 33.982 | 2 |
| 2025-04-18T01:56:00 | 54.847190 | 6.681476 | 2.0 | 8.544 | 2 | 35.953 | 8.725 | 34.008 | 2 |
| 2025-04-18T01:57:00 | 54.846165 | 6.682627 | 2.0 | 8.524 | 2 | 35.948 | 8.709 | 34.018 | 2 |
| 2025-04-18T01:58:00 | 54.845141 | 6.683785 | 2.0 | 8.508 | 2 | 35.944 | 8.690 | 34.032 | 2 |
| 2025-04-18T01:59:00 | 54.844107 | 6.684926 | 2.0 | 8.493 | 2 | 35.947 | 8.674 | 34.051 | 2 |
| 2025-04-18T02:00:00 | 54.843052 | 6.686028 | 2.0 | 8.481 | 2 | 35.950 | 8.660 | 34.068 | 2 |
| 2025-04-18T02:01:00 | 54.842009 | 6.687144 | 2.0 | 8.471 | 2 | 35.948 | 8.648 | 34.077 | 2 |
| 2025-04-18T02:02:00 | 54.840984 | 6.688311 | 2.0 | 8.464 | 2 | 35.948 | 8.639 | 34.086 | 2 |
| 2025-04-18T02:03:00 | 54.839968 | 6.689485 | 2.0 | 8.463 | 2 | 35.948 | 8.632 | 34.092 | 2 |
| 2025-04-18T02:04:00 | 54.838940 | 6.690630 | 2.0 | 8.461 | 2 | 35.953 | 8.631 | 34.099 | 2 |
| 2025-04-18T02:05:00 | 54.837906 | 6.691750 | 2.0 | 8.454 | 2 | 35.958 | 8.628 | 34.107 | 2 |
| 2025-04-18T02:06:00 | 54.836859 | 6.692826 | 2.0 | 8.446 | 2 | 35.957 | 8.621 | 34.113 | 2 |
| 2025-04-18T02:07:00 | 54.835819 | 6.693958 | 2.0 | 8.435 | 2 | 35.955 | 8.614 | 34.117 | 2 |
| 2025-04-18T02:08:00 | 54.834791 | 6.695118 | 2.0 | 8.416 | 2 | 35.953 | 8.601 | 34.128 | 2 |
| 2025-04-18T02:09:00 | 54.833746 | 6.696238 | 2.0 | 8.403 | 2 | 35.948 | 8.582 | 34.141 | 2 |
| 2025-04-18T02:10:00 | 54.832691 | 6.697339 | 2.0 | 8.382 | 2 | 35.947 | 8.570 | 34.151 | 2 |
| 2025-04-18T02:11:00 | 54.831640 | 6.698447 | 2.0 | 8.359 | 2 | 35.940 | 8.548 | 34.165 | 2 |
| 2025-04-18T02:12:00 | 54.830593 | 6.699544 | 2.0 | 8.335 | 2 | 35.930 | 8.525 | 34.177 | 2 |
| 2025-04-18T02:13:00 | 54.829560 | 6.700646 | 2.0 | 8.327 | 2 | 35.915 | 8.503 | 34.182 | 2 |
| 2025-04-18T02:14:00 | 54.828583 | 6.701863 | 2.0 | 8.325 | 2 | 35.911 | 8.497 | 34.184 | 2 |
| 2025-04-18T02:15:00 | 54.827609 | 6.703093 | 2.0 | 8.309 | 2 | 35.912 | 8.491 | 34.191 | 2 |
| 2025-04-18T02:16:00 | 54.826600 | 6.704252 | 2.0 | 8.293 | 2 | 35.905 | 8.476 | 34.198 | 2 |
| 2025-04-18T02:17:00 | 54.825550 | 6.705296 | 2.0 | 8.307 | 2 | 35.901 | 8.460 | 34.209 | 2 |
| 2025-04-18T02:18:00 | 54.824491 | 6.706278 | 2.0 | 8.347 | 2 | 35.785 | 8.485 | 34.062 | 2 |
| 2025-04-18T02:19:00 | 54.823451 | 6.707292 | 2.0 | 8.357 | 2 | 35.680 | 8.515 | 33.922 | 2 |
| 2025-04-18T02:20:00 | 54.822462 | 6.708418 | 2.0 | 8.360 | 2 | 35.668 | 8.524 | 33.901 | 2 |
| 2025-04-18T02:21:00 | 54.821512 | 6.709628 | 2.0 | 8.362 | 2 | 35.672 | 8.528 | 33.901 | 2 |
| 2025-04-18T02:22:00 | 54.820570 | 6.710838 | 2.0 | 8.367 | 2 | 35.673 | 8.530 | 33.900 | 2 |
| 2025-04-18T02:23:00 | 54.819599 | 6.711970 | 2.0 | 8.369 | 2 | 35.603 | 8.536 | 33.821 | 2 |
| 2025-04-18T02:24:00 | 54.818607 | 6.713048 | 2.0 | 8.371 | 2 | 35.625 | 8.536 | 33.844 | 2 |
| 2025-04-18T02:25:00 | 54.817593 | 6.714093 | 2.0 | 8.378 | 2 | 35.609 | 8.540 | 33.823 | 2 |
| 2025-04-18T02:26:00 | 54.816575 | 6.715127 | 2.0 | 8.386 | 2 | 35.606 | 8.547 | 33.813 | 2 |
| 2025-04-18T02:27:00 | 54.815562 | 6.716159 | 2.0 | 8.396 | 2 | 35.613 | 8.556 | 33.812 | 2 |
| 2025-04-18T02:28:00 | 54.814552 | 6.717194 | 2.0 | 8.396 | 2 | 35.622 | 8.564 | 33.814 | 2 |
| 2025-04-18T02:29:00 | 54.813554 | 6.718280 | 2.0 | 8.398 | 2 | 35.320 | 8.564 | 33.495 | 2 |
| 2025-04-18T02:30:00 | 54.812583 | 6.719421 | 2.0 | 8.398 | 2 | 35.650 | 8.564 | 33.843 | 2 |
| 2025-04-18T02:31:00 | 54.811607 | 6.720567 | 2.0 | 8.403 | 2 | 35.670 | 8.567 | 33.862 | 2 |
| 2025-04-18T02:32:00 | 54.810614 | 6.721694 | 2.0 | 8.400 | 2 | 35.432 | 8.570 | 33.608 | 2 |
| 2025-04-18T02:33:00 | 54.809599 | 6.722724 | 2.0 | 8.391 | 2 | 35.706 | 8.565 | 33.902 | 2 |
| 2025-04-18T02:34:00 | 54.808568 | 6.723737 | 2.0 | 8.378 | 2 | 35.720 | 8.556 | 33.925 | 2 |
| 2025-04-18T02:35:00 | 54.807545 | 6.724782 | 2.0 | 8.369 | 2 | 35.717 | 8.545 | 33.932 | 2 |
| 2025-04-18T02:36:00 | 54.806564 | 6.725918 | 2.0 | 8.363 | 2 | 35.744 | 8.536 | 33.970 | 2 |
| 2025-04-18T02:37:00 | 54.805595 | 6.727080 | 2.0 | 8.360 | 2 | 35.330 | 8.530 | 33.538 | 2 |
| 2025-04-18T02:38:00 | 54.804613 | 6.728200 | 2.0 | 8.361 | 2 | 35.381 | 8.528 | 33.594 | 2 |
| 2025-04-18T02:39:00 | 54.803596 | 6.729267 | 2.0 | 8.355 | 2 | 35.407 | 8.527 | 33.622 | 2 |
| 2025-04-18T02:40:00 | 54.802570 | 6.730356 | 2.0 | 8.344 | 2 | 35.585 | 8.522 | 33.815 | 2 |
| 2025-04-18T02:41:00 | 54.801535 | 6.731454 | 2.0 | 8.330 | 2 | 35.518 | 8.509 | 33.757 | 2 |
| 2025-04-18T02:42:00 | 54.800507 | 6.732584 | 2.0 | 8.312 | 2 | 35.761 | 8.496 | 34.026 | 2 |
| 2025-04-18T02:43:00 | 54.799481 | 6.733724 | 2.0 | 8.300 | 2 | 35.472 | 8.478 | 33.738 | 2 |
| 2025-04-18T02:44:00 | 54.798447 | 6.734852 | 2.0 | 8.277 | 2 | 35.706 | 8.466 | 33.997 | 2 |
| 2025-04-18T02:45:00 | 54.797412 | 6.735995 | 2.0 | 8.240 | 2 | 35.631 | 8.442 | 33.941 | 2 |
| 2025-04-18T02:46:00 | 54.796385 | 6.737163 | 2.0 | 8.223 | 2 | 35.699 | 8.406 | 34.047 | 2 |
| 2025-04-18T02:47:00 | 54.795369 | 6.738354 | 2.0 | 8.226 | 2 | 35.454 | 8.397 | 33.796 | 2 |
| 2025-04-18T02:48:00 | 54.794345 | 6.739515 | 2.0 | 8.165 | 2 | 35.505 | 8.385 | 33.862 | 2 |
| 2025-04-18T02:49:00 | 54.793306 | 6.740647 | 2.0 | 8.148 | 2 | 35.737 | 8.333 | 34.159 | 2 |
| 2025-04-18T02:50:00 | 54.792246 | 6.741716 | 2.0 | 8.141 | 2 | 35.553 | 8.319 | 33.977 | 2 |
| 2025-04-18T02:51:00 | 54.791181 | 6.742788 | 2.0 | 8.126 | 2 | 35.618 | 8.309 | 34.055 | 2 |
| 2025-04-18T02:52:00 | 54.790116 | 6.743890 | 2.0 | 8.110 | 2 | 35.759 | 8.294 | 34.220 | 2 |
| 2025-04-18T02:53:00 | 54.789069 | 6.745025 | 2.0 | 8.117 | 2 | 35.610 | 8.279 | 34.076 | 2 |
| 2025-04-18T02:54:00 | 54.788053 | 6.746212 | 2.0 | 8.146 | 2 | 35.491 | 8.294 | 33.935 | 2 |
| 2025-04-18T02:55:00 | 54.787046 | 6.747411 | 2.0 | 8.159 | 2 | 35.532 | 8.317 | 33.956 | 2 |
| 2025-04-18T02:56:00 | 54.786029 | 6.748607 | 2.0 | 8.175 | 2 | 35.608 | 8.330 | 34.024 | 2 |
| 2025-04-18T02:57:00 | 54.784992 | 6.749772 | 2.0 | 8.189 | 2 | 35.401 | 8.345 | 33.790 | 2 |
| 2025-04-18T02:58:00 | 54.783946 | 6.750889 | 2.0 | 8.212 | 2 | 35.452 | 8.362 | 33.828 | 2 |
| 2025-04-18T02:59:00 | 54.782892 | 6.751965 | 2.0 | 8.230 | 2 | 35.595 | 8.382 | 33.960 | 2 |
| 2025-04-18T03:00:00 | 54.781837 | 6.753047 | 2.0 | 8.233 | 2 | 35.588 | 8.397 | 33.938 | 2 |
| 2025-04-18T03:01:00 | 54.780797 | 6.754159 | 2.0 | 8.224 | 2 | 35.667 | 8.399 | 34.020 | 2 |
| 2025-04-18T03:02:00 | 54.779757 | 6.755259 | 2.0 | 8.209 | 2 | 35.697 | 8.389 | 34.062 | 2 |
| 2025-04-18T03:03:00 | 54.778708 | 6.756340 | 2.0 | 8.198 | 2 | 35.567 | 8.376 | 33.936 | 2 |
| 2025-04-18T03:04:00 | 54.777677 | 6.757479 | 2.0 | 8.190 | 2 | 35.487 | 8.365 | 33.862 | 2 |
| 2025-04-18T03:05:00 | 54.776679 | 6.758695 | 2.0 | 8.188 | 2 | 35.475 | 8.358 | 33.856 | 2 |
| 2025-04-18T03:06:00 | 54.775658 | 6.759900 | 2.0 | 8.191 | 2 | 35.740 | 8.358 | 34.138 | 2 |
| 2025-04-18T03:07:00 | 54.774609 | 6.761076 | 2.0 | 8.192 | 2 | 35.644 | 8.359 | 34.035 | 2 |
| 2025-04-18T03:08:00 | 54.773534 | 6.762174 | 2.0 | 8.193 | 2 | 35.584 | 8.360 | 33.970 | 2 |
| 2025-04-18T03:09:00 | 54.772464 | 6.763301 | 2.0 | 8.198 | 2 | 35.602 | 8.363 | 33.986 | 2 |
| 2025-04-18T03:10:00 | 54.771411 | 6.764472 | 2.0 | 8.190 | 2 | 35.608 | 8.365 | 33.991 | 2 |
| 2025-04-18T03:11:00 | 54.770361 | 6.765638 | 2.0 | 8.171 | 2 | 35.621 | 8.355 | 34.014 | 2 |
| 2025-04-18T03:12:00 | 54.769321 | 6.766813 | 2.0 | 8.148 | 2 | 35.638 | 8.336 | 34.050 | 2 |
| 2025-04-18T03:13:00 | 54.768265 | 6.767935 | 2.0 | 8.134 | 2 | 35.627 | 8.317 | 34.057 | 2 |
| 2025-04-18T03:14:00 | 54.767207 | 6.769049 | 2.0 | 8.114 | 2 | 35.600 | 8.299 | 34.046 | 2 |
| 2025-04-18T03:15:00 | 54.766167 | 6.770204 | 2.0 | 8.097 | 2 | 35.516 | 8.280 | 33.975 | 2 |
| 2025-04-18T03:16:00 | 54.765129 | 6.771358 | 2.0 | 8.086 | 2 | 35.604 | 8.267 | 34.081 | 2 |
| 2025-04-18T03:17:00 | 54.764090 | 6.772500 | 2.0 | 8.079 | 2 | 35.579 | 8.251 | 34.070 | 2 |
| 2025-04-18T03:18:00 | 54.763053 | 6.773649 | 2.0 | 8.117 | 2 | 35.565 | 8.255 | 34.051 | 2 |
| 2025-04-18T03:19:00 | 54.762024 | 6.774813 | 2.0 | 8.141 | 2 | 35.650 | 8.290 | 34.108 | 2 |
| 2025-04-18T03:20:00 | 54.760992 | 6.775957 | 2.0 | 8.148 | 2 | 35.579 | 8.310 | 34.013 | 2 |
| 2025-04-18T03:21:00 | 54.759952 | 6.777008 | 2.0 | 8.155 | 2 | 35.617 | 8.318 | 34.046 | 2 |
| 2025-04-18T03:22:00 | 54.758937 | 6.778049 | 2.0 | 8.154 | 2 | 35.632 | 8.322 | 34.058 | 2 |
| 2025-04-18T03:23:00 | 54.757934 | 6.779154 | 2.0 | 8.170 | 2 | 35.613 | 8.325 | 34.035 | 2 |
| 2025-04-18T03:24:00 | 54.756948 | 6.780287 | 2.0 | 8.170 | 2 | 35.673 | 8.339 | 34.085 | 2 |
| 2025-04-18T03:25:00 | 54.755892 | 6.781259 | 2.0 | 8.150 | 2 | 35.620 | 8.334 | 34.033 | 2 |
| 2025-04-18T03:26:00 | 54.754725 | 6.781786 | 2.0 | 8.153 | 2 | 35.627 | 8.320 | 34.054 | 2 |
| 2025-04-18T03:27:00 | 54.753624 | 6.782400 | 2.0 | 8.155 | 2 | 35.613 | 8.323 | 34.037 | 2 |
| 2025-04-18T03:28:00 | 54.752939 | 6.783819 | 2.0 | 8.166 | 2 | 35.539 | 8.323 | 33.958 | 2 |
| 2025-04-18T03:29:00 | 54.752912 | 6.785580 | 2.0 | 8.149 | 2 | 35.473 | 8.331 | 33.880 | 2 |
| 2025-04-18T03:30:00 | 54.753483 | 6.787049 | 2.0 | 8.160 | 2 | 35.371 | 8.319 | 33.783 | 2 |
| 2025-04-18T03:31:00 | 54.754422 | 6.787825 | 2.0 | 8.158 | 2 | 35.488 | 8.327 | 33.900 | 2 |
| 2025-04-18T03:32:00 | 54.755487 | 6.787557 | 2.0 | 8.165 | 2 | 35.743 | 8.324 | 34.174 | 2 |
| 2025-04-18T03:33:00 | 54.756581 | 6.786696 | 2.0 | 8.167 | 2 | 35.741 | 8.333 | 34.163 | 2 |
| 2025-04-18T03:34:00 | 54.757700 | 6.785781 | 2.0 | 8.166 | 2 | 35.742 | 8.335 | 34.162 | 2 |
| 2025-04-18T03:35:00 | 54.758712 | 6.784791 | 2.0 | 8.164 | 2 | 35.740 | 8.333 | 34.162 | 2 |
| 2025-04-18T03:36:00 | 54.759720 | 6.783707 | 2.0 | 8.163 | 2 | 35.740 | 8.331 | 34.164 | 2 |
| 2025-04-18T03:37:00 | 54.760762 | 6.782680 | 2.0 | 8.161 | 2 | 35.744 | 8.330 | 34.169 | 2 |
| 2025-04-18T03:38:00 | 54.761794 | 6.781593 | 2.0 | 8.147 | 2 | 35.746 | 8.326 | 34.175 | 2 |
| 2025-04-18T03:39:00 | 54.762826 | 6.780461 | 2.0 | 8.156 | 2 | 35.745 | 8.315 | 34.185 | 2 |
| 2025-04-18T03:40:00 | 54.763872 | 6.779334 | 2.0 | 8.158 | 2 | 35.767 | 8.325 | 34.198 | 2 |
| 2025-04-18T03:41:00 | 54.764923 | 6.778186 | 2.0 | 8.151 | 2 | 35.774 | 8.324 | 34.207 | 2 |
| 2025-04-18T03:42:00 | 54.765962 | 6.777033 | 2.0 | 8.148 | 2 | 35.769 | 8.318 | 34.207 | 2 |
| 2025-04-18T03:43:00 | 54.766990 | 6.775876 | 2.0 | 8.144 | 2 | 35.764 | 8.315 | 34.205 | 2 |
| 2025-04-18T03:44:00 | 54.768045 | 6.774715 | 2.0 | 8.134 | 2 | 35.758 | 8.310 | 34.203 | 2 |
| 2025-04-18T03:45:00 | 54.769130 | 6.773595 | 2.0 | 8.123 | 2 | 35.750 | 8.300 | 34.205 | 2 |
| 2025-04-18T03:46:00 | 54.770225 | 6.772446 | 2.0 | 8.112 | 2 | 35.742 | 8.289 | 34.207 | 2 |
| 2025-04-18T03:47:00 | 54.771295 | 6.771235 | 2.0 | 8.105 | 2 | 35.734 | 8.281 | 34.206 | 2 |
| 2025-04-18T03:48:00 | 54.772360 | 6.770028 | 2.0 | 8.064 | 2 | 35.726 | 8.268 | 34.210 | 2 |
| 2025-04-18T03:49:00 | 54.773433 | 6.768825 | 2.0 | 8.036 | 2 | 35.694 | 8.226 | 34.217 | 2 |
| 2025-04-18T03:50:00 | 54.774508 | 6.767601 | 2.0 | 8.052 | 2 | 35.686 | 8.211 | 34.223 | 2 |
| 2025-04-18T03:51:00 | 54.775593 | 6.766447 | 2.0 | 8.067 | 2 | 35.712 | 8.220 | 34.242 | 2 |
| 2025-04-18T03:52:00 | 54.776673 | 6.765331 | 2.0 | 8.080 | 2 | 35.733 | 8.238 | 34.247 | 2 |
| 2025-04-18T03:53:00 | 54.777735 | 6.764184 | 2.0 | 8.092 | 2 | 35.741 | 8.249 | 34.245 | 2 |
| 2025-04-18T03:54:00 | 54.778781 | 6.762989 | 2.0 | 8.108 | 2 | 35.748 | 8.262 | 34.239 | 2 |
| 2025-04-18T03:55:00 | 54.779843 | 6.761789 | 2.0 | 8.130 | 2 | 35.760 | 8.280 | 34.235 | 2 |
| 2025-04-18T03:56:00 | 54.780935 | 6.760638 | 2.0 | 8.151 | 2 | 35.773 | 8.300 | 34.229 | 2 |
| 2025-04-18T03:57:00 | 54.782031 | 6.759499 | 2.0 | 8.166 | 2 | 35.788 | 8.320 | 34.226 | 2 |
| 2025-04-18T03:58:00 | 54.783108 | 6.758334 | 2.0 | 8.175 | 2 | 35.799 | 8.334 | 34.224 | 2 |
| 2025-04-18T03:59:00 | 54.784157 | 6.757142 | 2.0 | 8.177 | 2 | 35.806 | 8.342 | 34.223 | 2 |
| 2025-04-18T04:00:00 | 54.785234 | 6.755925 | 2.0 | 8.179 | 2 | 35.807 | 8.344 | 34.222 | 2 |
| 2025-04-18T04:01:00 | 54.786309 | 6.754730 | 2.0 | 8.182 | 2 | 35.806 | 8.347 | 34.218 | 2 |
| 2025-04-18T04:02:00 | 54.787383 | 6.753567 | 2.0 | 8.181 | 2 | 35.802 | 8.349 | 34.212 | 2 |
| 2025-04-18T04:03:00 | 54.788446 | 6.752414 | 2.0 | 8.179 | 2 | 35.794 | 8.348 | 34.205 | 2 |
| 2025-04-18T04:04:00 | 54.789515 | 6.751243 | 2.0 | 8.179 | 2 | 35.785 | 8.346 | 34.197 | 2 |
| 2025-04-18T04:05:00 | 54.790590 | 6.750082 | 2.0 | 8.178 | 2 | 35.779 | 8.346 | 34.191 | 2 |
| 2025-04-18T04:06:00 | 54.791650 | 6.748905 | 2.0 | 8.175 | 2 | 35.775 | 8.344 | 34.188 | 2 |
| 2025-04-18T04:07:00 | 54.792711 | 6.747713 | 2.0 | 8.172 | 2 | 35.772 | 8.342 | 34.187 | 2 |
| 2025-04-18T04:08:00 | 54.793778 | 6.746511 | 2.0 | 8.165 | 2 | 35.673 | 8.337 | 34.087 | 2 |
| 2025-04-18T04:09:00 | 54.794851 | 6.745357 | 2.0 | 8.173 | 2 | 35.698 | 8.334 | 34.116 | 2 |
| 2025-04-18T04:10:00 | 54.795934 | 6.744213 | 2.0 | 8.190 | 2 | 35.236 | 8.343 | 33.617 | 2 |
| 2025-04-18T04:11:00 | 54.797012 | 6.743019 | 2.0 | 8.197 | 2 | 35.641 | 8.359 | 34.031 | 2 |
| 2025-04-18T04:12:00 | 54.798093 | 6.741828 | 2.0 | 8.197 | 2 | 35.343 | 8.363 | 33.711 | 2 |
| 2025-04-18T04:13:00 | 54.799178 | 6.740626 | 2.0 | 8.209 | 2 | 35.807 | 8.365 | 34.202 | 2 |
| 2025-04-18T04:14:00 | 54.800260 | 6.739421 | 2.0 | 8.237 | 2 | 35.787 | 8.380 | 34.166 | 2 |
| 2025-04-18T04:15:00 | 54.801335 | 6.738213 | 2.0 | 8.264 | 2 | 35.746 | 8.408 | 34.095 | 2 |
| 2025-04-18T04:16:00 | 54.802419 | 6.737017 | 2.0 | 8.285 | 2 | 35.600 | 8.434 | 33.916 | 2 |
| 2025-04-18T04:17:00 | 54.803517 | 6.735833 | 2.0 | 8.298 | 2 | 35.809 | 8.452 | 34.120 | 2 |
| 2025-04-18T04:18:00 | 54.804629 | 6.734667 | 2.0 | 8.311 | 2 | 35.470 | 8.465 | 33.748 | 2 |
| 2025-04-18T04:19:00 | 54.805741 | 6.733490 | 2.0 | 8.325 | 2 | 35.511 | 8.479 | 33.778 | 2 |
| 2025-04-18T04:20:00 | 54.806854 | 6.732282 | 2.0 | 8.334 | 2 | 35.508 | 8.491 | 33.763 | 2 |
| 2025-04-18T04:21:00 | 54.807955 | 6.731053 | 2.0 | 8.345 | 2 | 35.792 | 8.501 | 34.054 | 2 |
| 2025-04-18T04:22:00 | 54.809043 | 6.729865 | 2.0 | 8.357 | 2 | 35.403 | 8.513 | 33.631 | 2 |
| 2025-04-18T04:23:00 | 54.810126 | 6.728688 | 2.0 | 8.367 | 2 | 35.373 | 8.524 | 33.589 | 2 |
| 2025-04-18T04:24:00 | 54.811182 | 6.727519 | 2.0 | 8.380 | 2 | 35.730 | 8.533 | 33.958 | 2 |
| 2025-04-18T04:25:00 | 54.812229 | 6.726359 | 2.0 | 8.391 | 2 | 35.767 | 8.547 | 33.983 | 2 |
| 2025-04-18T04:26:00 | 54.813262 | 6.725182 | 2.0 | 8.401 | 2 | 35.532 | 8.558 | 33.725 | 2 |
| 2025-04-18T04:27:00 | 54.814301 | 6.724018 | 2.0 | 8.410 | 2 | 35.444 | 8.568 | 33.622 | 2 |
| 2025-04-18T04:28:00 | 54.815343 | 6.722893 | 2.0 | 8.414 | 2 | 35.623 | 8.575 | 33.804 | 2 |
| 2025-04-18T04:29:00 | 54.816405 | 6.721774 | 2.0 | 8.420 | 2 | 35.444 | 8.581 | 33.610 | 2 |
| 2025-04-18T04:30:00 | 54.817477 | 6.720662 | 2.0 | 8.422 | 2 | 35.485 | 8.585 | 33.649 | 2 |
| 2025-04-18T04:31:00 | 54.818525 | 6.719514 | 2.0 | 8.426 | 2 | 35.509 | 8.588 | 33.672 | 2 |
| 2025-04-18T04:32:00 | 54.819565 | 6.718353 | 2.0 | 8.426 | 2 | 35.512 | 8.591 | 33.672 | 2 |
| 2025-04-18T04:33:00 | 54.820598 | 6.717174 | 2.0 | 8.428 | 2 | 35.613 | 8.592 | 33.778 | 2 |
| 2025-04-18T04:34:00 | 54.821637 | 6.715995 | 2.0 | 8.429 | 2 | 35.532 | 8.594 | 33.690 | 2 |
| 2025-04-18T04:35:00 | 54.822683 | 6.714834 | 2.0 | 8.429 | 2 | 35.384 | 8.595 | 33.533 | 2 |
| 2025-04-18T04:36:00 | 54.823746 | 6.713692 | 2.0 | 8.429 | 2 | 35.499 | 8.595 | 33.655 | 2 |
| 2025-04-18T04:37:00 | 54.824813 | 6.712558 | 2.0 | 8.429 | 2 | 35.413 | 8.595 | 33.564 | 2 |
| 2025-04-18T04:38:00 | 54.825869 | 6.711381 | 2.0 | 8.426 | 2 | 35.460 | 8.594 | 33.614 | 2 |
| 2025-04-18T04:39:00 | 54.826917 | 6.710205 | 2.0 | 8.423 | 2 | 35.332 | 8.592 | 33.481 | 2 |
| 2025-04-18T04:40:00 | 54.827948 | 6.709063 | 2.0 | 8.421 | 2 | 35.530 | 8.590 | 33.692 | 2 |
| 2025-04-18T04:41:00 | 54.828984 | 6.707941 | 2.0 | 8.417 | 2 | 35.471 | 8.587 | 33.633 | 2 |
| 2025-04-18T04:42:00 | 54.830020 | 6.706827 | 2.0 | 8.410 | 2 | 35.416 | 8.582 | 33.579 | 2 |
| 2025-04-18T04:43:00 | 54.831062 | 6.705715 | 2.0 | 8.405 | 2 | 35.444 | 8.575 | 33.616 | 2 |
| 2025-04-18T04:44:00 | 54.832103 | 6.704597 | 2.0 | 8.403 | 2 | 35.371 | 8.572 | 33.541 | 2 |
| 2025-04-18T04:45:00 | 54.833146 | 6.703457 | 2.0 | 8.401 | 2 | 35.500 | 8.570 | 33.679 | 2 |
| 2025-04-18T04:46:00 | 54.834167 | 6.702275 | 2.0 | 8.399 | 2 | 35.484 | 8.567 | 33.665 | 2 |
| 2025-04-18T04:47:00 | 54.835216 | 6.701101 | 2.0 | 8.402 | 2 | 35.436 | 8.566 | 33.616 | 2 |
| 2025-04-18T04:48:00 | 54.836262 | 6.700008 | 2.0 | 8.406 | 2 | 35.478 | 8.569 | 33.657 | 2 |
| 2025-04-18T04:49:00 | 54.837302 | 6.698920 | 2.0 | 8.406 | 2 | 35.469 | 8.572 | 33.645 | 2 |
| 2025-04-18T04:50:00 | 54.838347 | 6.697776 | 2.0 | 8.407 | 2 | 35.478 | 8.572 | 33.654 | 2 |
| 2025-04-18T04:51:00 | 54.839407 | 6.696626 | 2.0 | 8.407 | 2 | 35.492 | 8.573 | 33.668 | 2 |
| 2025-04-18T04:52:00 | 54.840453 | 6.695466 | 2.0 | 8.405 | 2 | 35.465 | 8.573 | 33.640 | 2 |
| 2025-04-18T04:53:00 | 54.841493 | 6.694285 | 2.0 | 8.406 | 2 | 35.430 | 8.572 | 33.604 | 2 |
| 2025-04-18T04:54:00 | 54.842543 | 6.693134 | 2.0 | 8.407 | 2 | 35.432 | 8.573 | 33.605 | 2 |
| 2025-04-18T04:55:00 | 54.843595 | 6.692004 | 2.0 | 8.407 | 2 | 35.383 | 8.574 | 33.552 | 2 |
| 2025-04-18T04:56:00 | 54.844640 | 6.690856 | 2.0 | 8.407 | 2 | 35.415 | 8.573 | 33.587 | 2 |
| 2025-04-18T04:57:00 | 54.845687 | 6.689700 | 2.0 | 8.411 | 2 | 35.457 | 8.574 | 33.630 | 2 |
| 2025-04-18T04:58:00 | 54.846741 | 6.688565 | 2.0 | 8.412 | 2 | 35.412 | 8.577 | 33.580 | 2 |
| 2025-04-18T04:59:00 | 54.847799 | 6.687419 | 2.0 | 8.414 | 2 | 35.413 | 8.578 | 33.580 | 2 |
| 2025-04-18T05:00:00 | 54.848846 | 6.686249 | 2.0 | 8.416 | 2 | 35.428 | 8.580 | 33.594 | 2 |
| 2025-04-18T05:01:00 | 54.849891 | 6.685098 | 2.0 | 8.419 | 2 | 35.427 | 8.583 | 33.590 | 2 |
| 2025-04-18T05:02:00 | 54.850940 | 6.683948 | 2.0 | 8.425 | 2 | 35.449 | 8.587 | 33.609 | 2 |
| 2025-04-18T05:03:00 | 54.851993 | 6.682813 | 2.0 | 8.433 | 2 | 35.451 | 8.593 | 33.606 | 2 |
| 2025-04-18T05:04:00 | 54.853021 | 6.681645 | 2.0 | 8.437 | 2 | 35.462 | 8.599 | 33.612 | 2 |
| 2025-04-18T05:05:00 | 54.854050 | 6.680480 | 2.0 | 8.444 | 2 | 35.482 | 8.604 | 33.628 | 2 |
| 2025-04-18T05:06:00 | 54.855105 | 6.679324 | 2.0 | 8.453 | 2 | 35.511 | 8.611 | 33.652 | 2 |
| 2025-04-18T05:07:00 | 54.856176 | 6.678183 | 2.0 | 8.459 | 2 | 35.523 | 8.619 | 33.657 | 2 |
| 2025-04-18T05:08:00 | 54.857236 | 6.677020 | 2.0 | 8.466 | 2 | 35.537 | 8.625 | 33.666 | 2 |
| 2025-04-18T05:09:00 | 54.858277 | 6.675839 | 2.0 | 8.470 | 2 | 35.533 | 8.632 | 33.655 | 2 |
| 2025-04-18T05:10:00 | 54.859336 | 6.674657 | 2.0 | 8.468 | 2 | 35.579 | 8.635 | 33.701 | 2 |
| 2025-04-18T05:11:00 | 54.860409 | 6.673506 | 2.0 | 8.464 | 2 | 35.607 | 8.633 | 33.732 | 2 |
| 2025-04-18T05:12:00 | 54.861481 | 6.672360 | 2.0 | 8.462 | 2 | 35.600 | 8.630 | 33.728 | 2 |
| 2025-04-18T05:13:00 | 54.862550 | 6.671189 | 2.0 | 8.463 | 2 | 35.623 | 8.629 | 33.753 | 2 |
| 2025-04-18T05:14:00 | 54.863621 | 6.670006 | 2.0 | 8.467 | 2 | 35.613 | 8.630 | 33.741 | 2 |
| 2025-04-18T05:15:00 | 54.864705 | 6.668842 | 2.0 | 8.472 | 2 | 35.612 | 8.634 | 33.736 | 2 |
| 2025-04-18T05:16:00 | 54.865776 | 6.667663 | 2.0 | 8.477 | 2 | 35.616 | 8.639 | 33.736 | 2 |
| 2025-04-18T05:17:00 | 54.866834 | 6.666495 | 2.0 | 8.480 | 2 | 35.619 | 8.643 | 33.735 | 2 |
| 2025-04-18T05:18:00 | 54.867897 | 6.665356 | 2.0 | 8.484 | 2 | 35.614 | 8.647 | 33.726 | 2 |
| 2025-04-18T05:19:00 | 54.868976 | 6.664227 | 2.0 | 8.485 | 2 | 35.608 | 8.650 | 33.717 | 2 |
| 2025-04-18T05:20:00 | 54.870050 | 6.663057 | 2.0 | 8.486 | 2 | 35.604 | 8.652 | 33.711 | 2 |
| 2025-04-18T05:21:00 | 54.871107 | 6.661875 | 2.0 | 8.484 | 2 | 35.597 | 8.652 | 33.703 | 2 |
| 2025-04-18T05:22:00 | 54.872154 | 6.660655 | 2.0 | 8.480 | 2 | 35.590 | 8.649 | 33.699 | 2 |
| 2025-04-18T05:23:00 | 54.873197 | 6.659433 | 2.0 | 8.481 | 2 | 35.589 | 8.647 | 33.700 | 2 |
| 2025-04-18T05:24:00 | 54.874259 | 6.658266 | 2.0 | 8.476 | 2 | 35.584 | 8.646 | 33.695 | 2 |
| 2025-04-18T05:25:00 | 54.875332 | 6.657135 | 2.0 | 8.472 | 2 | 35.576 | 8.641 | 33.692 | 2 |
| 2025-04-18T05:26:00 | 54.876409 | 6.656020 | 2.0 | 8.476 | 2 | 35.568 | 8.639 | 33.685 | 2 |
| 2025-04-18T05:27:00 | 54.877461 | 6.654886 | 2.0 | 8.480 | 2 | 35.566 | 8.644 | 33.678 | 2 |
| 2025-04-18T05:28:00 | 54.878488 | 6.653691 | 2.0 | 8.465 | 2 | 35.570 | 8.646 | 33.681 | 2 |
| 2025-04-18T05:29:00 | 54.879507 | 6.652472 | 2.0 | 8.439 | 2 | 35.568 | 8.628 | 33.696 | 2 |
| 2025-04-18T05:30:00 | 54.880544 | 6.651306 | 2.0 | 8.487 | 2 | 35.565 | 8.608 | 33.712 | 2 |
| 2025-04-18T05:31:00 | 54.881594 | 6.650193 | 2.0 | 8.568 | 2 | 35.656 | 8.662 | 33.756 | 2 |
| 2025-04-18T05:32:00 | 54.882661 | 6.649096 | 2.0 | 8.649 | 2 | 35.779 | 8.751 | 33.800 | 2 |
| 2025-04-18T05:33:00 | 54.883730 | 6.647987 | 2.0 | 8.665 | 2 | 35.860 | 8.813 | 33.826 | 2 |
| 2025-04-18T05:34:00 | 54.884797 | 6.646844 | 2.0 | 8.668 | 2 | 35.888 | 8.829 | 33.840 | 2 |
| 2025-04-18T05:35:00 | 54.885863 | 6.645665 | 2.0 | 8.666 | 2 | 35.897 | 8.831 | 33.848 | 2 |
| 2025-04-18T05:36:00 | 54.886933 | 6.644480 | 2.0 | 8.664 | 2 | 35.904 | 8.830 | 33.856 | 2 |
| 2025-04-18T05:37:00 | 54.887993 | 6.643290 | 2.0 | 8.667 | 2 | 35.916 | 8.828 | 33.871 | 2 |
| 2025-04-18T05:38:00 | 54.889038 | 6.642112 | 2.0 | 8.674 | 2 | 35.930 | 8.833 | 33.880 | 2 |
| 2025-04-18T05:39:00 | 54.890081 | 6.640931 | 2.0 | 8.676 | 2 | 35.943 | 8.838 | 33.889 | 2 |
| 2025-04-18T05:40:00 | 54.891129 | 6.639772 | 2.0 | 8.680 | 2 | 35.955 | 8.842 | 33.898 | 2 |
| 2025-04-18T05:41:00 | 54.892171 | 6.638628 | 2.0 | 8.685 | 2 | 35.968 | 8.846 | 33.908 | 2 |
| 2025-04-18T05:42:00 | 54.893223 | 6.637491 | 2.0 | 8.690 | 2 | 35.978 | 8.849 | 33.915 | 2 |
| 2025-04-18T05:43:00 | 54.894270 | 6.636401 | 2.0 | 8.693 | 2 | 35.986 | 8.855 | 33.918 | 2 |
| 2025-04-18T05:44:00 | 54.895306 | 6.635268 | 2.0 | 8.700 | 2 | 35.945 | 8.859 | 33.871 | 2 |
| 2025-04-18T05:45:00 | 54.896340 | 6.634140 | 2.0 | 8.708 | 2 | 35.927 | 8.866 | 33.846 | 2 |
| 2025-04-18T05:46:00 | 54.897369 | 6.632995 | 2.0 | 8.715 | 2 | 35.638 | 8.873 | 33.537 | 2 |
| 2025-04-18T05:47:00 | 54.898400 | 6.631827 | 2.0 | 8.718 | 2 | 35.386 | 8.881 | 33.266 | 2 |
| 2025-04-18T05:48:00 | 54.899442 | 6.630671 | 2.0 | 8.717 | 2 | 36.019 | 8.883 | 33.926 | 2 |
| 2025-04-18T05:49:00 | 54.900491 | 6.629537 | 2.0 | 8.706 | 2 | 35.956 | 8.882 | 33.861 | 2 |
| 2025-04-18T05:50:00 | 54.901544 | 6.628387 | 2.0 | 8.698 | 2 | 35.936 | 8.868 | 33.853 | 2 |
| 2025-04-18T05:51:00 | 54.902614 | 6.627230 | 2.0 | 8.679 | 2 | 36.003 | 8.863 | 33.928 | 2 |
| 2025-04-18T05:52:00 | 54.903685 | 6.626061 | 2.0 | 8.664 | 2 | 35.647 | 8.842 | 33.575 | 2 |
| 2025-04-18T05:53:00 | 54.904736 | 6.624903 | 2.0 | 8.632 | 2 | 35.932 | 8.825 | 33.890 | 2 |
| 2025-04-18T05:54:00 | 54.905773 | 6.623774 | 2.0 | 8.615 | 2 | 35.732 | 8.796 | 33.708 | 2 |
| 2025-04-18T05:55:00 | 54.906843 | 6.622655 | 2.0 | 8.610 | 2 | 35.960 | 8.781 | 33.962 | 2 |
| 2025-04-18T05:56:00 | 54.907924 | 6.621534 | 2.0 | 8.604 | 2 | 36.022 | 8.777 | 34.031 | 2 |
| 2025-04-18T05:57:00 | 54.908986 | 6.620392 | 2.0 | 8.601 | 2 | 36.018 | 8.770 | 34.033 | 2 |
| 2025-04-18T05:58:00 | 54.910025 | 6.619195 | 2.0 | 8.608 | 2 | 35.729 | 8.769 | 33.731 | 2 |
| 2025-04-18T05:59:00 | 54.911055 | 6.617957 | 2.0 | 8.615 | 2 | 35.649 | 8.775 | 33.641 | 2 |
| 2025-04-18T06:00:00 | 54.912092 | 6.616749 | 2.0 | 8.626 | 2 | 35.826 | 8.783 | 33.819 | 2 |
| 2025-04-18T06:01:00 | 54.913153 | 6.615603 | 2.0 | 8.640 | 2 | 35.831 | 8.794 | 33.814 | 2 |
| 2025-04-18T06:02:00 | 54.914214 | 6.614444 | 2.0 | 8.653 | 2 | 35.403 | 8.807 | 33.353 | 2 |
| 2025-04-18T06:03:00 | 54.915264 | 6.613294 | 2.0 | 8.658 | 2 | 35.720 | 8.818 | 33.675 | 2 |
| 2025-04-18T06:04:00 | 54.916322 | 6.612132 | 2.0 | 8.655 | 2 | 35.896 | 8.823 | 33.854 | 2 |
| 2025-04-18T06:05:00 | 54.917399 | 6.611021 | 2.0 | 8.645 | 2 | 35.806 | 8.819 | 33.764 | 2 |
| 2025-04-18T06:06:00 | 54.918459 | 6.609866 | 2.0 | 8.639 | 2 | 35.816 | 8.810 | 33.783 | 2 |
| 2025-04-18T06:07:00 | 54.919541 | 6.608782 | 2.0 | 8.637 | 2 | 35.939 | 8.805 | 33.917 | 2 |
| 2025-04-18T06:08:00 | 54.920634 | 6.607796 | 2.0 | 8.637 | 2 | 36.085 | 8.802 | 34.073 | 2 |
| 2025-04-18T06:09:00 | 54.921656 | 6.606981 | 2.0 | 8.637 | 2 | 35.935 | 8.803 | 33.914 | 2 |
| 2025-04-18T06:10:00 | 54.922504 | 6.606402 | 2.0 | 8.638 | 2 | 35.811 | 8.803 | 33.784 | 2 |
| 2025-04-18T06:11:00 | 54.923218 | 6.605897 | 2.0 | 8.641 | 2 | 35.874 | 8.806 | 33.848 | 2 |
| 2025-04-18T06:12:00 | 54.923795 | 6.605609 | 2.0 | 8.642 | 2 | 35.807 | 8.807 | 33.776 | 2 |
| 2025-04-18T06:13:00 | 54.924258 | 6.605371 | 2.0 | 8.647 | 2 | 35.722 | 8.809 | 33.685 | 2 |
| 2025-04-18T06:14:00 | 54.924617 | 6.605308 | 2.0 | 8.647 | 2 | 35.830 | 8.812 | 33.796 | 2 |
| 2025-04-18T06:15:00 | 54.924887 | 6.605393 | 2.0 | 8.648 | 2 | 35.775 | 8.813 | 33.737 | 2 |
| 2025-04-18T06:16:00 | 54.925081 | 6.605543 | 2.0 | 8.649 | 2 | 35.901 | 8.814 | 33.868 | 2 |
| 2025-04-18T06:17:00 | 54.925207 | 6.605690 | 2.0 | 8.649 | 2 | 35.901 | 8.815 | 33.867 | 2 |
| 2025-04-18T06:18:00 | 54.925204 | 6.605764 | 2.0 | 8.649 | 2 | 36.014 | 8.815 | 33.986 | 2 |
| 2025-04-18T06:19:00 | 54.925140 | 6.605848 | 2.0 | 8.649 | 2 | 35.882 | 8.815 | 33.847 | 2 |
| 2025-04-18T06:20:00 | 54.925054 | 6.605924 | 2.0 | 8.649 | 2 | 35.640 | 8.814 | 33.594 | 2 |
| 2025-04-18T06:21:00 | 54.925256 | 6.606421 | 2.0 | 8.652 | 2 | 35.848 | 8.814 | 33.813 | 2 |
| 2025-04-18T06:22:00 | 54.925899 | 6.607475 | 2.0 | 8.655 | 2 | 35.864 | 8.816 | 33.827 | 2 |
| 2025-04-18T06:23:00 | 54.926841 | 6.608990 | 2.0 | 8.660 | 2 | 35.770 | 8.820 | 33.725 | 2 |
| 2025-04-18T06:24:00 | 54.927933 | 6.611517 | 2.0 | 8.666 | 2 | 35.654 | 8.826 | 33.598 | 2 |
| 2025-04-18T06:25:00 | 54.929341 | 6.615067 | 2.0 | 8.673 | 2 | 35.772 | 8.835 | 33.713 | 2 |
| 2025-04-18T06:26:00 | 54.930883 | 6.618958 | 2.0 | 8.673 | 2 | 35.815 | 8.840 | 33.753 | 2 |
| 2025-04-18T06:27:00 | 54.932468 | 6.622945 | 2.0 | 8.674 | 2 | 35.908 | 8.841 | 33.850 | 2 |
| 2025-04-18T06:28:00 | 54.934086 | 6.626950 | 2.0 | 8.670 | 2 | 35.825 | 8.841 | 33.763 | 2 |
| 2025-04-18T06:29:00 | 54.935703 | 6.630953 | 2.0 | 8.668 | 2 | 35.866 | 8.838 | 33.809 | 2 |
| 2025-04-18T06:30:00 | 54.937342 | 6.634914 | 2.0 | 8.657 | 2 | 35.941 | 8.835 | 33.890 | 2 |
| 2025-04-18T06:31:00 | 54.938962 | 6.638908 | 2.0 | 8.675 | 2 | 35.772 | 8.827 | 33.720 | 2 |
| 2025-04-18T06:32:00 | 54.940531 | 6.642944 | 2.0 | 8.712 | 2 | 35.717 | 8.851 | 33.640 | 2 |
| 2025-04-18T06:33:00 | 54.942156 | 6.646905 | 2.0 | 8.731 | 2 | 35.780 | 8.881 | 33.678 | 2 |
| 2025-04-18T06:34:00 | 54.943794 | 6.650874 | 2.0 | 8.746 | 2 | 35.722 | 8.899 | 33.600 | 2 |
| 2025-04-18T06:35:00 | 54.945398 | 6.654886 | 2.0 | 8.761 | 2 | 35.708 | 8.914 | 33.571 | 2 |
| 2025-04-18T06:36:00 | 54.947036 | 6.658841 | 2.0 | 8.770 | 2 | 35.702 | 8.929 | 33.550 | 2 |
| 2025-04-18T06:37:00 | 54.948637 | 6.662880 | 2.0 | 8.779 | 2 | 35.738 | 8.937 | 33.581 | 2 |
| 2025-04-18T06:38:00 | 54.950254 | 6.666921 | 2.0 | 8.795 | 2 | 35.772 | 8.949 | 33.605 | 2 |
| 2025-04-18T06:39:00 | 54.951879 | 6.670940 | 2.0 | 8.797 | 2 | 35.764 | 8.963 | 33.583 | 2 |
| 2025-04-18T06:40:00 | 54.953575 | 6.674865 | 2.0 | 8.788 | 2 | 35.855 | 8.964 | 33.677 | 2 |
| 2025-04-18T06:41:00 | 54.955516 | 6.678434 | 2.0 | 8.773 | 2 | 35.789 | 8.953 | 33.619 | 2 |
| 2025-04-18T06:42:00 | 54.957397 | 6.682099 | 2.0 | 8.756 | 2 | 35.784 | 8.940 | 33.626 | 2 |
| 2025-04-18T06:43:00 | 54.959294 | 6.685752 | 2.0 | 8.752 | 2 | 35.792 | 8.922 | 33.651 | 2 |
| 2025-04-18T06:44:00 | 54.961191 | 6.689421 | 2.0 | 8.746 | 2 | 35.769 | 8.921 | 33.628 | 2 |
| 2025-04-18T06:45:00 | 54.962976 | 6.693230 | 2.0 | 8.754 | 2 | 35.786 | 8.914 | 33.653 | 2 |
| 2025-04-18T06:46:00 | 54.964552 | 6.697310 | 2.0 | 8.765 | 2 | 35.786 | 8.924 | 33.643 | 2 |
| 2025-04-18T06:47:00 | 54.966213 | 6.701320 | 2.0 | 8.767 | 2 | 35.814 | 8.932 | 33.665 | 2 |
| 2025-04-18T06:48:00 | 54.967846 | 6.705375 | 2.0 | 8.762 | 2 | 35.802 | 8.934 | 33.650 | 2 |
| 2025-04-18T06:49:00 | 54.969462 | 6.709440 | 2.0 | 8.744 | 2 | 35.816 | 8.925 | 33.673 | 2 |
| 2025-04-18T06:50:00 | 54.971092 | 6.713468 | 2.0 | 8.741 | 2 | 35.834 | 8.911 | 33.706 | 2 |
| 2025-04-18T06:51:00 | 54.972695 | 6.717536 | 2.0 | 8.724 | 2 | 35.790 | 8.906 | 33.664 | 2 |
| 2025-04-18T06:52:00 | 54.974324 | 6.721573 | 2.0 | 8.714 | 2 | 35.777 | 8.890 | 33.666 | 2 |
| 2025-04-18T06:53:00 | 54.975962 | 6.725602 | 2.0 | 8.717 | 2 | 35.810 | 8.883 | 33.707 | 2 |
| 2025-04-18T06:54:00 | 54.977563 | 6.729671 | 2.0 | 8.712 | 2 | 35.860 | 8.884 | 33.758 | 2 |
| 2025-04-18T06:55:00 | 54.979207 | 6.733678 | 2.0 | 8.706 | 2 | 35.852 | 8.879 | 33.755 | 2 |
| 2025-04-18T06:56:00 | 54.980837 | 6.737703 | 2.0 | 8.707 | 2 | 35.845 | 8.874 | 33.752 | 2 |
| 2025-04-18T06:57:00 | 54.982454 | 6.741732 | 2.0 | 8.706 | 2 | 35.841 | 8.875 | 33.747 | 2 |
| 2025-04-18T06:58:00 | 54.984063 | 6.745759 | 2.0 | 8.704 | 2 | 35.835 | 8.873 | 33.743 | 2 |
| 2025-04-18T06:59:00 | 54.985673 | 6.749754 | 2.0 | 8.707 | 2 | 35.826 | 8.873 | 33.733 | 2 |
| 2025-04-18T07:00:00 | 54.987283 | 6.753752 | 2.0 | 8.707 | 2 | 35.820 | 8.875 | 33.725 | 2 |
| 2025-04-18T07:01:00 | 54.988909 | 6.757727 | 2.0 | 8.708 | 2 | 35.819 | 8.875 | 33.724 | 2 |
| 2025-04-18T07:02:00 | 54.990497 | 6.761756 | 2.0 | 8.716 | 2 | 35.823 | 8.878 | 33.725 | 2 |
| 2025-04-18T07:03:00 | 54.992086 | 6.765804 | 2.0 | 8.718 | 2 | 35.829 | 8.885 | 33.725 | 2 |
| 2025-04-18T07:04:00 | 54.993717 | 6.769792 | 2.0 | 8.725 | 2 | 35.831 | 8.887 | 33.725 | 2 |
| 2025-04-18T07:05:00 | 54.995319 | 6.773819 | 2.0 | 8.735 | 2 | 35.827 | 8.894 | 33.714 | 2 |
| 2025-04-18T07:06:00 | 54.996935 | 6.777835 | 2.0 | 8.740 | 2 | 35.835 | 8.903 | 33.714 | 2 |
| 2025-04-18T07:07:00 | 54.998569 | 6.781849 | 2.0 | 8.741 | 2 | 35.839 | 8.908 | 33.714 | 2 |
| 2025-04-18T07:08:00 | 55.000200 | 6.785878 | 2.0 | 8.752 | 2 | 35.839 | 8.910 | 33.712 | 2 |
| 2025-04-18T07:09:00 | 55.001828 | 6.789897 | 2.0 | 8.762 | 2 | 35.849 | 8.921 | 33.712 | 2 |
| 2025-04-18T07:10:00 | 55.003441 | 6.793942 | 2.0 | 8.762 | 2 | 35.857 | 8.929 | 33.713 | 2 |
| 2025-04-18T07:11:00 | 55.005054 | 6.797980 | 2.0 | 8.772 | 2 | 35.863 | 8.931 | 33.717 | 2 |
| 2025-04-18T07:12:00 | 55.006684 | 6.801973 | 2.0 | 8.778 | 2 | 35.872 | 8.941 | 33.717 | 2 |
| 2025-04-18T07:13:00 | 55.008297 | 6.806024 | 2.0 | 8.784 | 2 | 35.874 | 8.945 | 33.715 | 2 |
| 2025-04-18T07:14:00 | 55.009931 | 6.810036 | 2.0 | 8.790 | 2 | 35.874 | 8.951 | 33.709 | 2 |
| 2025-04-18T07:15:00 | 55.011559 | 6.814071 | 2.0 | 8.796 | 2 | 35.877 | 8.959 | 33.705 | 2 |
| 2025-04-18T07:16:00 | 55.013164 | 6.818109 | 2.0 | 8.798 | 2 | 35.878 | 8.964 | 33.701 | 2 |
| 2025-04-18T07:17:00 | 55.014804 | 6.822134 | 2.0 | 8.801 | 2 | 35.877 | 8.966 | 33.698 | 2 |
| 2025-04-18T07:18:00 | 55.016436 | 6.826179 | 2.0 | 8.794 | 2 | 35.882 | 8.967 | 33.703 | 2 |
| 2025-04-18T07:19:00 | 55.018124 | 6.830295 | 2.0 | 8.766 | 2 | 35.881 | 8.962 | 33.706 | 2 |
| 2025-04-18T07:20:00 | 55.019827 | 6.834515 | 2.0 | 8.718 | 2 | 35.748 | 8.924 | 33.603 | 2 |
| 2025-04-18T07:21:00 | 55.021515 | 6.838806 | 2.0 | 8.742 | 2 | 35.616 | 8.895 | 33.493 | 2 |
| 2025-04-18T07:22:00 | 55.023237 | 6.843071 | 2.0 | 8.750 | 2 | 35.623 | 8.912 | 33.484 | 2 |
| 2025-04-18T07:23:00 | 55.024937 | 6.847385 | 2.0 | 8.742 | 2 | 35.624 | 8.917 | 33.480 | 2 |
| 2025-04-18T07:24:00 | 55.026681 | 6.851649 | 2.0 | 8.725 | 2 | 35.397 | 8.906 | 33.254 | 2 |
| 2025-04-18T07:25:00 | 55.028427 | 6.855882 | 2.0 | 8.724 | 2 | 35.630 | 8.894 | 33.508 | 2 |
| 2025-04-18T07:26:00 | 55.030138 | 6.860175 | 2.0 | 8.726 | 2 | 35.633 | 8.892 | 33.513 | 2 |
| 2025-04-18T07:27:00 | 55.031835 | 6.864479 | 2.0 | 8.733 | 2 | 35.640 | 8.896 | 33.517 | 2 |
| 2025-04-18T07:28:00 | 55.033586 | 6.868727 | 2.0 | 8.738 | 2 | 35.651 | 8.902 | 33.523 | 2 |
| 2025-04-18T07:29:00 | 55.035317 | 6.873045 | 2.0 | 8.743 | 2 | 35.659 | 8.908 | 33.525 | 2 |
| 2025-04-18T07:30:00 | 55.037059 | 6.877369 | 2.0 | 8.747 | 2 | 35.270 | 8.912 | 33.115 | 2 |
| 2025-04-18T07:31:00 | 55.038781 | 6.881688 | 2.0 | 8.750 | 2 | 35.635 | 8.915 | 33.494 | 2 |
| 2025-04-18T07:32:00 | 55.040522 | 6.886002 | 2.0 | 8.752 | 2 | 35.290 | 8.918 | 33.131 | 2 |
| 2025-04-18T07:33:00 | 55.042280 | 6.890295 | 2.0 | 8.752 | 2 | 34.927 | 8.919 | 32.751 | 2 |
| 2025-04-18T07:34:00 | 55.044009 | 6.894611 | 2.0 | 8.751 | 2 | 35.233 | 8.919 | 33.070 | 2 |
| 2025-04-18T07:35:00 | 55.045746 | 6.898945 | 2.0 | 8.754 | 2 | 35.684 | 8.918 | 33.542 | 2 |
| 2025-04-18T07:36:00 | 55.047520 | 6.903256 | 2.0 | 8.763 | 2 | 35.368 | 8.923 | 33.207 | 2 |
| 2025-04-18T07:37:00 | 55.049236 | 6.907692 | 2.0 | 8.767 | 2 | 35.572 | 8.932 | 33.412 | 2 |
| 2025-04-18T07:38:00 | 55.051013 | 6.912064 | 2.0 | 8.757 | 2 | 35.397 | 8.933 | 33.228 | 2 |
| 2025-04-18T07:39:00 | 55.052787 | 6.916419 | 2.0 | 8.757 | 2 | 35.567 | 8.927 | 33.411 | 2 |
| 2025-04-18T07:40:00 | 55.054518 | 6.920811 | 2.0 | 8.731 | 2 | 35.039 | 8.917 | 32.870 | 2 |
| 2025-04-18T07:41:00 | 55.056251 | 6.925190 | 2.0 | 8.707 | 2 | 35.450 | 8.898 | 33.316 | 2 |
| 2025-04-18T07:42:00 | 55.058017 | 6.929538 | 2.0 | 8.705 | 2 | 35.441 | 8.882 | 33.322 | 2 |
| 2025-04-18T07:43:00 | 55.059766 | 6.933825 | 2.0 | 8.690 | 2 | 34.589 | 8.868 | 32.446 | 2 |
| 2025-04-18T07:44:00 | 55.061487 | 6.938106 | 2.0 | 8.675 | 2 | 35.666 | 8.853 | 33.585 | 2 |
| 2025-04-18T07:45:00 | 55.063214 | 6.942378 | 2.0 | 8.693 | 2 | 35.674 | 8.848 | 33.598 | 2 |
| 2025-04-18T07:46:00 | 55.064916 | 6.946648 | 2.0 | 8.698 | 2 | 35.687 | 8.861 | 33.599 | 2 |
| 2025-04-18T07:47:00 | 55.066611 | 6.950915 | 2.0 | 8.679 | 2 | 35.643 | 8.860 | 33.554 | 2 |
| 2025-04-18T07:48:00 | 55.068318 | 6.955159 | 2.0 | 8.665 | 2 | 35.601 | 8.847 | 33.522 | 2 |
| 2025-04-18T07:49:00 | 55.069997 | 6.959410 | 2.0 | 8.658 | 2 | 35.586 | 8.831 | 33.522 | 2 |
| 2025-04-18T07:50:00 | 55.071692 | 6.963643 | 2.0 | 8.645 | 2 | 35.543 | 8.825 | 33.482 | 2 |
| 2025-04-18T07:51:00 | 55.073376 | 6.967868 | 2.0 | 8.666 | 2 | 35.491 | 8.816 | 33.436 | 2 |
| 2025-04-18T07:52:00 | 55.075092 | 6.972112 | 2.0 | 8.693 | 2 | 35.495 | 8.839 | 33.419 | 2 |
| 2025-04-18T07:53:00 | 55.076827 | 6.976395 | 2.0 | 8.684 | 2 | 35.518 | 8.859 | 33.424 | 2 |
| 2025-04-18T07:54:00 | 55.078535 | 6.980746 | 2.0 | 8.677 | 2 | 35.496 | 8.847 | 33.412 | 2 |
| 2025-04-18T07:55:00 | 55.080278 | 6.985042 | 2.0 | 8.698 | 2 | 35.457 | 8.852 | 33.367 | 2 |
| 2025-04-18T07:56:00 | 55.082013 | 6.989367 | 2.0 | 8.644 | 2 | 35.436 | 8.854 | 33.343 | 2 |
| 2025-04-18T07:57:00 | 55.083738 | 6.993727 | 2.0 | 8.601 | 2 | 35.379 | 8.808 | 33.327 | 2 |
| 2025-04-18T07:58:00 | 55.085490 | 6.998053 | 2.0 | 8.574 | 2 | 35.188 | 8.769 | 33.163 | 2 |
| 2025-04-18T07:59:00 | 55.087235 | 7.002368 | 2.0 | 8.557 | 2 | 35.303 | 8.741 | 33.310 | 2 |
| 2025-04-18T08:00:00 | 55.088989 | 7.006699 | 2.0 | 8.551 | 2 | 35.288 | 8.727 | 33.308 | 2 |
| 2025-04-18T08:01:00 | 55.090726 | 7.011065 | 2.0 | 8.538 | 2 | 35.281 | 8.716 | 33.311 | 2 |
| 2025-04-18T08:02:00 | 55.092453 | 7.015445 | 2.0 | 8.558 | 2 | 35.286 | 8.710 | 33.322 | 2 |
| 2025-04-18T08:03:00 | 55.094215 | 7.019759 | 2.0 | 8.609 | 2 | 35.320 | 8.737 | 33.332 | 2 |
| 2025-04-18T08:04:00 | 55.096004 | 7.024039 | 2.0 | 8.656 | 2 | 35.371 | 8.782 | 33.343 | 2 |
| 2025-04-18T08:05:00 | 55.097848 | 7.028265 | 2.0 | 8.680 | 2 | 35.077 | 8.825 | 32.995 | 2 |
| 2025-04-18T08:06:00 | 55.099734 | 7.032424 | 2.0 | 8.696 | 2 | 35.447 | 8.850 | 33.358 | 2 |
| 2025-04-18T08:07:00 | 55.101729 | 7.036432 | 2.0 | 8.702 | 2 | 35.462 | 8.865 | 33.360 | 2 |
| 2025-04-18T08:08:00 | 55.103688 | 7.040509 | 2.0 | 8.694 | 2 | 35.465 | 8.867 | 33.361 | 2 |
| 2025-04-18T08:09:00 | 55.105664 | 7.044575 | 2.0 | 8.688 | 2 | 35.374 | 8.863 | 33.270 | 2 |
| 2025-04-18T08:10:00 | 55.107641 | 7.048645 | 2.0 | 8.683 | 2 | 34.843 | 8.855 | 32.723 | 2 |
| 2025-04-18T08:11:00 | 55.109570 | 7.052705 | 2.0 | 8.677 | 2 | 34.915 | 8.851 | 32.802 | 2 |
| 2025-04-18T08:12:00 | 55.111359 | 7.056441 | 2.0 | 8.671 | 2 | 35.417 | 8.846 | 33.331 | 2 |
| 2025-04-18T08:13:00 | 55.112785 | 7.059391 | 2.0 | 8.667 | 2 | 34.787 | 8.837 | 32.681 | 2 |
| 2025-04-18T08:14:00 | 55.113890 | 7.061662 | 2.0 | 8.690 | 2 | 35.356 | 8.836 | 33.276 | 2 |
| 2025-04-18T08:15:00 | 55.113891 | 7.063308 | 2.0 | 8.656 | 2 | 35.384 | 8.850 | 33.293 | 2 |
| 2025-04-18T08:16:00 | 55.113472 | 7.063460 | 2.0 | 8.661 | 2 | 35.147 | 8.824 | 33.069 | 2 |
| 2025-04-18T08:17:00 | 55.113257 | 7.063392 | 2.0 | 8.652 | 2 | 34.951 | 8.824 | 32.864 | 2 |
| 2025-04-18T08:18:00 | 55.113160 | 7.063542 | 2.0 | 8.651 | 2 | 34.535 | 8.817 | 32.437 | 2 |
| 2025-04-18T08:19:00 | 55.112989 | 7.063602 | 2.0 | 8.648 | 2 | 34.645 | 8.814 | 32.554 | 2 |
| 2025-04-18T08:20:00 | 55.112793 | 7.063245 | 2.0 | 8.646 | 2 | 34.306 | 8.817 | 32.198 | 2 |
| 2025-04-18T08:21:00 | 55.112797 | 7.062914 | 2.0 | 8.649 | 2 | 34.977 | 8.824 | 32.891 | 2 |
| 2025-04-18T08:22:00 | 55.112871 | 7.063055 | 2.0 | 8.648 | 2 | 34.659 | 8.831 | 32.553 | 2 |
| 2025-04-18T08:23:00 | 55.112928 | 7.063207 | 2.0 | 8.646 | 2 | 34.387 | 8.830 | 32.270 | 2 |
| 2025-04-18T08:24:00 | 55.112917 | 7.063233 | 2.0 | 8.630 | 2 | 34.788 | 8.826 | 32.692 | 2 |
| 2025-04-18T08:25:00 | 55.112922 | 7.062756 | 2.0 | 8.627 | 2 | 35.187 | 8.812 | 33.122 | 2 |
| 2025-04-18T08:26:00 | 55.113710 | 7.062064 | 2.0 | 8.671 | 2 | 34.938 | 8.829 | 32.846 | 2 |
| 2025-04-18T08:27:00 | 55.114455 | 7.063805 | 2.0 | 8.641 | 2 | 35.110 | 8.852 | 33.004 | 2 |
| 2025-04-18T08:28:00 | 55.113864 | 7.066662 | 2.0 | 8.624 | 2 | 34.821 | 8.830 | 32.723 | 2 |
| 2025-04-18T08:29:00 | 55.112524 | 7.069199 | 2.0 | 8.614 | 2 | 35.204 | 8.816 | 33.136 | 2 |
| 2025-04-18T08:30:00 | 55.111383 | 7.069654 | 2.0 | 8.607 | 2 | 34.874 | 8.804 | 32.802 | 2 |
| 2025-04-18T08:31:00 | 55.111130 | 7.068767 | 2.0 | 8.608 | 2 | 35.176 | 8.799 | 33.123 | 2 |
| 2025-04-18T08:32:00 | 55.111088 | 7.068075 | 2.0 | 8.611 | 2 | 34.998 | 8.801 | 32.935 | 2 |
| 2025-04-18T08:33:00 | 55.111060 | 7.067852 | 2.0 | 8.612 | 2 | 34.591 | 8.802 | 32.509 | 2 |
| 2025-04-18T08:34:00 | 55.111081 | 7.067733 | 2.0 | 8.612 | 2 | 35.001 | 8.804 | 32.935 | 2 |
| 2025-04-18T08:35:00 | 55.111066 | 7.067533 | 2.0 | 8.611 | 2 | 35.177 | 8.804 | 33.119 | 2 |
| 2025-04-18T08:36:00 | 55.111363 | 7.066862 | 2.0 | 8.613 | 2 | 34.667 | 8.803 | 32.587 | 2 |
| 2025-04-18T08:37:00 | 55.112576 | 7.066601 | 2.0 | 8.621 | 2 | 34.777 | 8.808 | 32.697 | 2 |
| 2025-04-18T08:38:00 | 55.113836 | 7.068320 | 2.0 | 8.621 | 2 | 35.059 | 8.814 | 32.986 | 2 |
| 2025-04-18T08:39:00 | 55.115075 | 7.071207 | 2.0 | 8.625 | 2 | 34.794 | 8.816 | 32.708 | 2 |
| 2025-04-18T08:40:00 | 55.116435 | 7.074735 | 2.0 | 8.624 | 2 | 35.043 | 8.824 | 32.960 | 2 |
| 2025-04-18T08:41:00 | 55.117607 | 7.077525 | 2.0 | 8.599 | 2 | 34.997 | 8.815 | 32.921 | 2 |
| 2025-04-18T08:42:00 | 55.117564 | 7.079171 | 2.0 | 8.579 | 2 | 35.057 | 8.791 | 33.006 | 2 |
| 2025-04-18T08:43:00 | 55.117086 | 7.079262 | 2.0 | 8.574 | 2 | 35.024 | 8.773 | 32.988 | 2 |
| 2025-04-18T08:44:00 | 55.116906 | 7.078855 | 2.0 | 8.575 | 2 | 35.022 | 8.769 | 32.990 | 2 |
| 2025-04-18T08:45:00 | 55.116889 | 7.078662 | 2.0 | 8.579 | 2 | 34.922 | 8.770 | 32.884 | 2 |
| 2025-04-18T08:46:00 | 55.116964 | 7.078448 | 2.0 | 8.579 | 2 | 34.902 | 8.773 | 32.860 | 2 |
| 2025-04-18T08:47:00 | 55.116856 | 7.078323 | 2.0 | 8.580 | 2 | 34.982 | 8.774 | 32.943 | 2 |
| 2025-04-18T08:48:00 | 55.116844 | 7.078187 | 2.0 | 8.578 | 2 | 35.018 | 8.776 | 32.979 | 2 |
| 2025-04-18T08:49:00 | 55.116832 | 7.078198 | 2.0 | 8.576 | 2 | 35.117 | 8.773 | 33.085 | 2 |
| 2025-04-18T08:50:00 | 55.116822 | 7.078256 | 2.0 | 8.575 | 2 | 34.889 | 8.771 | 32.849 | 2 |
| 2025-04-18T08:51:00 | 55.116840 | 7.078231 | 2.0 | 8.576 | 2 | 34.982 | 8.770 | 32.947 | 2 |
| 2025-04-18T08:52:00 | 55.116839 | 7.078024 | 2.0 | 8.577 | 2 | 34.904 | 8.772 | 32.863 | 2 |
| 2025-04-18T08:53:00 | 55.116855 | 7.077777 | 2.0 | 8.583 | 2 | 35.033 | 8.773 | 32.997 | 2 |
| 2025-04-18T08:54:00 | 55.116988 | 7.077593 | 2.0 | 8.587 | 2 | 35.004 | 8.780 | 32.960 | 2 |
| 2025-04-18T08:55:00 | 55.117586 | 7.077388 | 2.0 | 8.592 | 2 | 35.073 | 8.784 | 33.029 | 2 |
| 2025-04-18T08:56:00 | 55.118360 | 7.078199 | 2.0 | 8.599 | 2 | 34.986 | 8.791 | 32.931 | 2 |
| 2025-04-18T08:57:00 | 55.119363 | 7.078738 | 2.0 | 8.610 | 2 | 35.047 | 8.800 | 32.987 | 2 |
| 2025-04-18T08:58:00 | 55.120677 | 7.079368 | 2.0 | 8.629 | 2 | 35.118 | 8.810 | 33.052 | 2 |
| 2025-04-18T08:59:00 | 55.122375 | 7.080208 | 2.0 | 8.653 | 2 | 35.152 | 8.831 | 33.068 | 2 |
| 2025-04-18T09:00:00 | 55.124250 | 7.081128 | 2.0 | 8.651 | 2 | 35.169 | 8.850 | 33.068 | 2 |
| 2025-04-18T09:01:00 | 55.126118 | 7.082096 | 2.0 | 8.645 | 2 | 35.235 | 8.848 | 33.139 | 2 |
| 2025-04-18T09:02:00 | 55.126503 | 7.083688 | 2.0 | 8.666 | 2 | 35.215 | 8.845 | 33.121 | 2 |
| 2025-04-18T09:03:00 | 55.126633 | 7.084594 | 2.0 | 8.674 | 2 | 35.166 | 8.864 | 33.052 | 2 |
| 2025-04-18T09:04:00 | 55.126770 | 7.085024 | 2.0 | 8.676 | 2 | 35.202 | 8.871 | 33.083 | 2 |
| 2025-04-18T09:05:00 | 55.126838 | 7.085289 | 2.0 | 8.681 | 2 | 35.237 | 8.874 | 33.116 | 2 |
| 2025-04-18T09:06:00 | 55.126858 | 7.085483 | 2.0 | 8.681 | 2 | 35.245 | 8.878 | 33.121 | 2 |
| 2025-04-18T09:07:00 | 55.126902 | 7.085500 | 2.0 | 8.681 | 2 | 35.246 | 8.879 | 33.121 | 2 |
| 2025-04-18T09:08:00 | 55.126864 | 7.085432 | 2.0 | 8.681 | 2 | 35.264 | 8.878 | 33.141 | 2 |
| 2025-04-18T09:09:00 | 55.126735 | 7.085181 | 2.0 | 8.680 | 2 | 35.219 | 8.877 | 33.095 | 2 |
| 2025-04-18T09:10:00 | 55.127084 | 7.084109 | 2.0 | 8.665 | 2 | 35.292 | 8.877 | 33.171 | 2 |
| 2025-04-18T09:11:00 | 55.127827 | 7.083804 | 2.0 | 8.658 | 2 | 35.314 | 8.862 | 33.208 | 2 |
| 2025-04-18T09:12:00 | 55.128213 | 7.084426 | 2.0 | 8.671 | 2 | 35.268 | 8.861 | 33.161 | 2 |
| 2025-04-18T09:13:00 | 55.128544 | 7.084521 | 2.0 | 8.677 | 2 | 35.284 | 8.871 | 33.168 | 2 |
| 2025-04-18T09:14:00 | 55.128789 | 7.084321 | 2.0 | 8.680 | 2 | 35.311 | 8.875 | 33.193 | 2 |
| 2025-04-18T09:15:00 | 55.128879 | 7.084181 | 2.0 | 8.696 | 2 | 35.293 | 8.883 | 33.166 | 2 |
| 2025-04-18T09:16:00 | 55.128907 | 7.084064 | 2.0 | 8.680 | 2 | 35.340 | 8.891 | 33.208 | 2 |
| 2025-04-18T09:17:00 | 55.128924 | 7.083911 | 2.0 | 8.684 | 2 | 35.344 | 8.882 | 33.221 | 2 |
| 2025-04-18T09:18:00 | 55.128906 | 7.083601 | 2.0 | 8.682 | 2 | 35.355 | 8.883 | 33.231 | 2 |
| 2025-04-18T09:19:00 | 55.129371 | 7.082796 | 2.0 | 8.696 | 2 | 35.353 | 8.881 | 33.231 | 2 |
| 2025-04-18T09:20:00 | 55.130398 | 7.081698 | 2.0 | 8.752 | 2 | 35.385 | 8.906 | 33.241 | 2 |
| 2025-04-18T09:21:00 | 55.131389 | 7.080610 | 2.0 | 8.763 | 2 | 35.440 | 8.956 | 33.252 | 2 |
| 2025-04-18T09:22:00 | 55.132214 | 7.079678 | 2.0 | 8.709 | 2 | 35.506 | 8.954 | 33.322 | 2 |
| 2025-04-18T09:23:00 | 55.132918 | 7.078870 | 2.0 | 8.699 | 2 | 35.471 | 8.912 | 33.325 | 2 |
| 2025-04-18T09:24:00 | 55.133542 | 7.078140 | 2.0 | 8.704 | 2 | 35.451 | 8.904 | 33.312 | 2 |
| 2025-04-18T09:25:00 | 55.134102 | 7.077467 | 2.0 | 8.701 | 2 | 35.471 | 8.907 | 33.330 | 2 |
| 2025-04-18T09:26:00 | 55.134633 | 7.076839 | 2.0 | 8.697 | 2 | 35.459 | 8.900 | 33.324 | 2 |
| 2025-04-18T09:27:00 | 55.135134 | 7.076250 | 2.0 | 8.694 | 2 | 35.439 | 8.888 | 33.314 | 2 |
| 2025-04-18T09:28:00 | 55.135614 | 7.075697 | 2.0 | 8.691 | 2 | 35.430 | 8.881 | 33.311 | 2 |
| 2025-04-18T09:29:00 | 55.136062 | 7.075169 | 2.0 | 8.686 | 2 | 35.426 | 8.876 | 33.312 | 2 |
| 2025-04-18T09:30:00 | 55.136491 | 7.074631 | 2.0 | 8.684 | 2 | 35.413 | 8.870 | 33.304 | 2 |
| 2025-04-18T09:31:00 | 55.136909 | 7.074092 | 2.0 | 8.682 | 2 | 35.405 | 8.866 | 33.299 | 2 |
| 2025-04-18T09:32:00 | 55.137333 | 7.073574 | 2.0 | 8.681 | 2 | 35.401 | 8.863 | 33.298 | 2 |
| 2025-04-18T09:33:00 | 55.137770 | 7.073062 | 2.0 | 8.677 | 2 | 35.399 | 8.860 | 33.299 | 2 |
| 2025-04-18T09:34:00 | 55.138296 | 7.072618 | 2.0 | 8.677 | 2 | 35.398 | 8.856 | 33.302 | 2 |
| 2025-04-18T09:35:00 | 55.138913 | 7.072797 | 2.0 | 8.682 | 2 | 35.398 | 8.856 | 33.302 | 2 |
| 2025-04-18T09:36:00 | 55.139644 | 7.073734 | 2.0 | 8.671 | 2 | 35.399 | 8.859 | 33.300 | 2 |
| 2025-04-18T09:37:00 | 55.139614 | 7.075642 | 2.0 | 8.657 | 2 | 35.331 | 8.845 | 33.242 | 2 |
| 2025-04-18T09:38:00 | 55.138743 | 7.077377 | 2.0 | 8.654 | 2 | 35.273 | 8.835 | 33.191 | 2 |
| 2025-04-18T09:39:00 | 55.137500 | 7.078920 | 2.0 | 8.659 | 2 | 35.248 | 8.833 | 33.166 | 2 |
| 2025-04-18T09:40:00 | 55.136222 | 7.080414 | 2.0 | 8.669 | 2 | 35.254 | 8.838 | 33.168 | 2 |
| 2025-04-18T09:41:00 | 55.134955 | 7.081904 | 2.0 | 8.695 | 2 | 35.276 | 8.853 | 33.177 | 2 |
| 2025-04-18T09:42:00 | 55.133694 | 7.083414 | 2.0 | 8.761 | 2 | 35.341 | 8.885 | 33.215 | 2 |
| 2025-04-18T09:43:00 | 55.132398 | 7.084717 | 2.0 | 8.755 | 2 | 35.459 | 8.932 | 33.294 | 2 |
| 2025-04-18T09:44:00 | 55.131083 | 7.085870 | 2.0 | 8.730 | 2 | 35.455 | 8.927 | 33.294 | 2 |
| 2025-04-18T09:45:00 | 55.129777 | 7.087089 | 2.0 | 8.710 | 2 | 35.417 | 8.903 | 33.277 | 2 |
| 2025-04-18T09:46:00 | 55.128470 | 7.088302 | 2.0 | 8.701 | 2 | 35.383 | 8.884 | 33.260 | 2 |
| 2025-04-18T09:47:00 | 55.127156 | 7.089508 | 2.0 | 8.699 | 2 | 35.360 | 8.877 | 33.242 | 2 |
| 2025-04-18T09:48:00 | 55.125766 | 7.090221 | 2.0 | 8.683 | 2 | 35.345 | 8.869 | 33.234 | 2 |
| 2025-04-18T09:49:00 | 55.124341 | 7.090725 | 2.0 | 8.632 | 2 | 35.279 | 8.847 | 33.186 | 2 |
| 2025-04-18T09:50:00 | 55.122912 | 7.091199 | 2.0 | 8.616 | 2 | 35.201 | 8.806 | 33.142 | 2 |
| 2025-04-18T09:51:00 | 55.121463 | 7.091657 | 2.0 | 8.596 | 2 | 35.177 | 8.788 | 33.134 | 2 |
| 2025-04-18T09:52:00 | 55.119997 | 7.092023 | 2.0 | 8.574 | 2 | 35.154 | 8.771 | 33.126 | 2 |
| 2025-04-18T09:53:00 | 55.118525 | 7.092385 | 2.0 | 8.567 | 2 | 35.120 | 8.748 | 33.112 | 2 |
| 2025-04-18T09:54:00 | 55.117039 | 7.092740 | 2.0 | 8.561 | 2 | 35.107 | 8.743 | 33.103 | 2 |
| 2025-04-18T09:55:00 | 55.115549 | 7.093108 | 2.0 | 8.557 | 2 | 35.099 | 8.736 | 33.101 | 2 |
| 2025-04-18T09:56:00 | 55.114063 | 7.093499 | 2.0 | 8.550 | 2 | 35.094 | 8.732 | 33.100 | 2 |
| 2025-04-18T09:57:00 | 55.112577 | 7.093671 | 2.0 | 8.549 | 2 | 35.089 | 8.726 | 33.100 | 2 |
| 2025-04-18T09:58:00 | 55.111100 | 7.093777 | 2.0 | 8.542 | 2 | 35.087 | 8.723 | 33.101 | 2 |
| 2025-04-18T09:59:00 | 55.109625 | 7.093867 | 2.0 | 8.539 | 2 | 35.083 | 8.718 | 33.101 | 2 |
| 2025-04-18T10:00:00 | 55.108136 | 7.093958 | 2.0 | 8.540 | 2 | 35.081 | 8.715 | 33.102 | 2 |
| 2025-04-18T10:01:00 | 55.106743 | 7.093879 | 2.0 | 8.534 | 2 | 35.072 | 8.714 | 33.093 | 2 |
| 2025-04-18T10:02:00 | 55.106345 | 7.093217 | 2.0 | 8.537 | 2 | 35.074 | 8.710 | 33.099 | 2 |
| 2025-04-18T10:03:00 | 55.106222 | 7.092711 | 2.0 | 8.536 | 2 | 35.078 | 8.711 | 33.102 | 2 |
| 2025-04-18T10:04:00 | 55.106145 | 7.092228 | 2.0 | 8.538 | 2 | 35.079 | 8.711 | 33.103 | 2 |
| 2025-04-18T10:05:00 | 55.106135 | 7.091796 | 2.0 | 8.541 | 2 | 35.081 | 8.712 | 33.105 | 2 |
| 2025-04-18T10:06:00 | 55.106141 | 7.091400 | 2.0 | 8.547 | 2 | 35.084 | 8.715 | 33.105 | 2 |
| 2025-04-18T10:07:00 | 55.106153 | 7.091006 | 2.0 | 8.552 | 2 | 35.090 | 8.721 | 33.106 | 2 |
| 2025-04-18T10:08:00 | 55.106194 | 7.090610 | 2.0 | 8.562 | 2 | 35.096 | 8.726 | 33.107 | 2 |
| 2025-04-18T10:09:00 | 55.106207 | 7.090178 | 2.0 | 8.566 | 2 | 35.104 | 8.736 | 33.106 | 2 |
| 2025-04-18T10:10:00 | 55.106172 | 7.089742 | 2.0 | 8.569 | 2 | 35.109 | 8.740 | 33.108 | 2 |
| 2025-04-18T10:11:00 | 55.106100 | 7.089346 | 2.0 | 8.572 | 2 | 35.112 | 8.743 | 33.108 | 2 |
| 2025-04-18T10:12:00 | 55.106013 | 7.089000 | 2.0 | 8.577 | 2 | 35.113 | 8.746 | 33.106 | 2 |
| 2025-04-18T10:13:00 | 55.105946 | 7.088676 | 2.0 | 8.576 | 2 | 35.117 | 8.750 | 33.107 | 2 |
| 2025-04-18T10:14:00 | 55.105901 | 7.088342 | 2.0 | 8.580 | 2 | 35.118 | 8.750 | 33.108 | 2 |
| 2025-04-18T10:15:00 | 55.105879 | 7.087960 | 2.0 | 8.581 | 2 | 35.120 | 8.752 | 33.108 | 2 |
| 2025-04-18T10:16:00 | 55.105885 | 7.087624 | 2.0 | 8.584 | 2 | 35.121 | 8.753 | 33.108 | 2 |
| 2025-04-18T10:17:00 | 55.105864 | 7.087201 | 2.0 | 8.590 | 2 | 35.125 | 8.757 | 33.109 | 2 |
| 2025-04-18T10:18:00 | 55.105860 | 7.086789 | 2.0 | 8.603 | 2 | 35.132 | 8.764 | 33.109 | 2 |
| 2025-04-18T10:19:00 | 55.105877 | 7.086362 | 2.0 | 8.614 | 2 | 35.148 | 8.778 | 33.113 | 2 |
| 2025-04-18T10:20:00 | 55.105891 | 7.085910 | 2.0 | 8.622 | 2 | 35.157 | 8.786 | 33.115 | 2 |
| 2025-04-18T10:21:00 | 55.105876 | 7.085491 | 2.0 | 8.629 | 2 | 35.164 | 8.794 | 33.115 | 2 |
| 2025-04-18T10:22:00 | 55.105849 | 7.085150 | 2.0 | 8.632 | 2 | 35.172 | 8.801 | 33.117 | 2 |
| 2025-04-18T10:23:00 | 55.105805 | 7.084832 | 2.0 | 8.636 | 2 | 35.174 | 8.804 | 33.116 | 2 |
| 2025-04-18T10:24:00 | 55.105780 | 7.084518 | 2.0 | 8.638 | 2 | 35.179 | 8.809 | 33.117 | 2 |
| 2025-04-18T10:25:00 | 55.105749 | 7.084265 | 2.0 | 8.640 | 2 | 35.180 | 8.810 | 33.117 | 2 |
| 2025-04-18T10:26:00 | 55.105694 | 7.084046 | 2.0 | 8.641 | 2 | 35.181 | 8.811 | 33.117 | 2 |
| 2025-04-18T10:27:00 | 55.105650 | 7.083790 | 2.0 | 8.640 | 2 | 35.179 | 8.812 | 33.114 | 2 |
| 2025-04-18T10:28:00 | 55.105655 | 7.083557 | 2.0 | 8.639 | 2 | 35.182 | 8.811 | 33.118 | 2 |
| 2025-04-18T10:29:00 | 55.105685 | 7.083353 | 2.0 | 8.641 | 2 | 35.182 | 8.812 | 33.117 | 2 |
| 2025-04-18T10:30:00 | 55.105784 | 7.083088 | 2.0 | 8.641 | 2 | 35.184 | 8.813 | 33.118 | 2 |
| 2025-04-18T10:31:00 | 55.105883 | 7.082765 | 2.0 | 8.643 | 2 | 35.183 | 8.813 | 33.117 | 2 |
| 2025-04-18T10:32:00 | 55.105950 | 7.082410 | 2.0 | 8.644 | 2 | 35.185 | 8.814 | 33.118 | 2 |
| 2025-04-18T10:33:00 | 55.105998 | 7.082039 | 2.0 | 8.644 | 2 | 35.177 | 8.814 | 33.110 | 2 |
| 2025-04-18T10:34:00 | 55.106017 | 7.081601 | 2.0 | 8.645 | 2 | 35.182 | 8.816 | 33.113 | 2 |
| 2025-04-18T10:35:00 | 55.106046 | 7.081205 | 2.0 | 8.649 | 2 | 35.187 | 8.817 | 33.117 | 2 |
| 2025-04-18T10:36:00 | 55.106059 | 7.080775 | 2.0 | 8.652 | 2 | 35.191 | 8.821 | 33.118 | 2 |
| 2025-04-18T10:37:00 | 55.106081 | 7.080348 | 2.0 | 8.654 | 2 | 35.194 | 8.823 | 33.119 | 2 |
| 2025-04-18T10:38:00 | 55.106116 | 7.079941 | 2.0 | 8.655 | 2 | 35.195 | 8.824 | 33.119 | 2 |
| 2025-04-18T10:39:00 | 55.106152 | 7.079517 | 2.0 | 8.658 | 2 | 35.198 | 8.827 | 33.120 | 2 |
| 2025-04-18T10:40:00 | 55.106186 | 7.079086 | 2.0 | 8.659 | 2 | 35.202 | 8.829 | 33.122 | 2 |
| 2025-04-18T10:41:00 | 55.106208 | 7.078675 | 2.0 | 8.660 | 2 | 35.203 | 8.830 | 33.122 | 2 |
| 2025-04-18T10:42:00 | 55.106205 | 7.078332 | 2.0 | 8.662 | 2 | 35.204 | 8.832 | 33.121 | 2 |
| 2025-04-18T10:43:00 | 55.106175 | 7.078020 | 2.0 | 8.663 | 2 | 35.206 | 8.833 | 33.122 | 2 |
| 2025-04-18T10:44:00 | 55.106149 | 7.077631 | 2.0 | 8.663 | 2 | 35.208 | 8.833 | 33.124 | 2 |
| 2025-04-18T10:45:00 | 55.106171 | 7.077213 | 2.0 | 8.664 | 2 | 35.210 | 8.834 | 33.126 | 2 |
| 2025-04-18T10:46:00 | 55.106220 | 7.076775 | 2.0 | 8.664 | 2 | 35.212 | 8.835 | 33.127 | 2 |
| 2025-04-18T10:47:00 | 55.106249 | 7.076372 | 2.0 | 8.666 | 2 | 35.212 | 8.835 | 33.127 | 2 |
| 2025-04-18T10:48:00 | 55.106251 | 7.076017 | 2.0 | 8.670 | 2 | 35.216 | 8.837 | 33.129 | 2 |
| 2025-04-18T10:49:00 | 55.106203 | 7.075672 | 2.0 | 8.671 | 2 | 35.218 | 8.840 | 33.128 | 2 |
| 2025-04-18T10:50:00 | 55.106107 | 7.075377 | 2.0 | 8.672 | 2 | 35.221 | 8.841 | 33.131 | 2 |
| 2025-04-18T10:51:00 | 55.106005 | 7.075098 | 2.0 | 8.674 | 2 | 35.222 | 8.842 | 33.131 | 2 |
| 2025-04-18T10:52:00 | 55.105954 | 7.074706 | 2.0 | 8.676 | 2 | 35.225 | 8.844 | 33.132 | 2 |
| 2025-04-18T10:53:00 | 55.105974 | 7.074294 | 2.0 | 8.682 | 2 | 35.231 | 8.848 | 33.134 | 2 |
| 2025-04-18T10:54:00 | 55.105977 | 7.073991 | 2.0 | 8.688 | 2 | 35.239 | 8.853 | 33.138 | 2 |
| 2025-04-18T10:55:00 | 55.105969 | 7.073751 | 2.0 | 8.691 | 2 | 35.246 | 8.858 | 33.141 | 2 |
| 2025-04-18T10:56:00 | 55.105957 | 7.073584 | 2.0 | 8.694 | 2 | 35.258 | 8.868 | 33.144 | 2 |
| 2025-04-18T10:57:00 | 55.105958 | 7.073405 | 2.0 | 8.695 | 2 | 35.264 | 8.876 | 33.143 | 2 |
| 2025-04-18T10:58:00 | 55.105973 | 7.073202 | 2.0 | 8.700 | 2 | 35.276 | 8.881 | 33.151 | 2 |
| 2025-04-18T10:59:00 | 55.105995 | 7.072991 | 2.0 | 8.701 | 2 | 35.285 | 8.888 | 33.153 | 2 |
| 2025-04-18T11:00:00 | 55.106005 | 7.072827 | 2.0 | 8.702 | 2 | 35.292 | 8.892 | 33.157 | 2 |
| 2025-04-18T11:01:00 | 55.106025 | 7.072713 | 2.0 | 8.701 | 2 | 35.302 | 8.893 | 33.167 | 2 |
| 2025-04-18T11:02:00 | 55.106095 | 7.072561 | 2.0 | 8.703 | 2 | 35.307 | 8.894 | 33.171 | 2 |
| 2025-04-18T11:03:00 | 55.106192 | 7.072364 | 2.0 | 8.703 | 2 | 35.315 | 8.896 | 33.177 | 2 |
| 2025-04-18T11:04:00 | 55.106257 | 7.072165 | 2.0 | 8.704 | 2 | 35.324 | 8.897 | 33.186 | 2 |
| 2025-04-18T11:05:00 | 55.106312 | 7.071953 | 2.0 | 8.708 | 2 | 35.336 | 8.899 | 33.196 | 2 |
| 2025-04-18T11:06:00 | 55.106409 | 7.071741 | 2.0 | 8.710 | 2 | 35.343 | 8.902 | 33.201 | 2 |
| 2025-04-18T11:07:00 | 55.106525 | 7.071515 | 2.0 | 8.713 | 2 | 35.354 | 8.906 | 33.209 | 2 |
| 2025-04-18T11:08:00 | 55.106637 | 7.071252 | 2.0 | 8.716 | 2 | 35.383 | 8.909 | 33.236 | 2 |
| 2025-04-18T11:09:00 | 55.106730 | 7.071060 | 2.0 | 8.722 | 2 | 35.375 | 8.914 | 33.223 | 2 |
| 2025-04-18T11:10:00 | 55.106784 | 7.070848 | 2.0 | 8.730 | 2 | 35.387 | 8.918 | 33.232 | 2 |
| 2025-04-18T11:11:00 | 55.106823 | 7.070623 | 2.0 | 8.733 | 2 | 35.400 | 8.924 | 33.240 | 2 |
| 2025-04-18T11:12:00 | 55.106876 | 7.070417 | 2.0 | 8.723 | 2 | 35.413 | 8.930 | 33.248 | 2 |
| 2025-04-18T11:13:00 | 55.106974 | 7.070239 | 2.0 | 8.709 | 2 | 35.463 | 8.916 | 33.313 | 2 |
| 2025-04-18T11:14:00 | 55.107085 | 7.070048 | 2.0 | 8.708 | 2 | 35.475 | 8.907 | 33.334 | 2 |
| 2025-04-18T11:15:00 | 55.107185 | 7.069845 | 2.0 | 8.715 | 2 | 35.474 | 8.904 | 33.336 | 2 |
| 2025-04-18T11:16:00 | 55.107288 | 7.069648 | 2.0 | 8.711 | 2 | 35.477 | 8.911 | 33.332 | 2 |
| 2025-04-18T11:17:00 | 55.107391 | 7.069507 | 2.0 | 8.712 | 2 | 35.475 | 8.907 | 33.334 | 2 |
| 2025-04-18T11:18:00 | 55.107477 | 7.069276 | 2.0 | 8.716 | 2 | 35.476 | 8.910 | 33.332 | 2 |
| 2025-04-18T11:19:00 | 55.107524 | 7.068996 | 2.0 | 8.714 | 2 | 35.478 | 8.913 | 33.332 | 2 |
| 2025-04-18T11:20:00 | 55.107593 | 7.068701 | 2.0 | 8.716 | 2 | 35.478 | 8.912 | 33.333 | 2 |
| 2025-04-18T11:21:00 | 55.107692 | 7.068448 | 2.0 | 8.721 | 2 | 35.479 | 8.915 | 33.331 | 2 |
| 2025-04-18T11:22:00 | 55.107799 | 7.068226 | 2.0 | 8.714 | 2 | 35.480 | 8.916 | 33.331 | 2 |
| 2025-04-18T11:23:00 | 55.107910 | 7.067996 | 2.0 | 8.716 | 2 | 35.478 | 8.913 | 33.332 | 2 |
| 2025-04-18T11:24:00 | 55.107988 | 7.067727 | 2.0 | 8.721 | 2 | 35.476 | 8.913 | 33.329 | 2 |
| 2025-04-18T11:25:00 | 55.108073 | 7.067490 | 2.0 | 8.717 | 2 | 35.458 | 8.918 | 33.306 | 2 |
| 2025-04-18T11:26:00 | 55.108152 | 7.067242 | 2.0 | 8.722 | 2 | 35.477 | 8.915 | 33.329 | 2 |
| 2025-04-18T11:27:00 | 55.108239 | 7.066975 | 2.0 | 8.719 | 2 | 35.482 | 8.919 | 33.330 | 2 |
| 2025-04-18T11:28:00 | 55.108332 | 7.066691 | 2.0 | 8.722 | 2 | 35.137 | 8.918 | 32.971 | 2 |
| 2025-04-18T11:29:00 | 55.108414 | 7.066427 | 2.0 | 8.721 | 2 | 35.397 | 8.920 | 33.240 | 2 |
| 2025-04-18T11:30:00 | 55.108492 | 7.066220 | 2.0 | 8.719 | 2 | 34.832 | 8.918 | 32.653 | 2 |
| 2025-04-18T11:31:00 | 55.108541 | 7.066059 | 2.0 | 8.716 | 2 | 34.838 | 8.917 | 32.660 | 2 |
| 2025-04-18T11:32:00 | 55.108568 | 7.065957 | 2.0 | 8.721 | 2 | 35.110 | 8.917 | 32.944 | 2 |
| 2025-04-18T11:33:00 | 55.108562 | 7.065849 | 2.0 | 8.720 | 2 | 34.677 | 8.919 | 32.491 | 2 |
| 2025-04-18T11:34:00 | 55.108585 | 7.065683 | 2.0 | 8.718 | 2 | 35.169 | 8.919 | 33.004 | 2 |
| 2025-04-18T11:35:00 | 55.108707 | 7.065531 | 2.0 | 8.713 | 2 | 35.294 | 8.917 | 33.136 | 2 |
| 2025-04-18T11:36:00 | 55.108877 | 7.065538 | 2.0 | 8.714 | 2 | 35.072 | 8.912 | 32.909 | 2 |
| 2025-04-18T11:37:00 | 55.109075 | 7.065685 | 2.0 | 8.713 | 2 | 35.102 | 8.913 | 32.939 | 2 |
| 2025-04-18T11:38:00 | 55.109244 | 7.066247 | 2.0 | 8.713 | 2 | 35.136 | 8.912 | 32.976 | 2 |
| 2025-04-18T11:39:00 | 55.109264 | 7.067036 | 2.0 | 8.713 | 2 | 35.246 | 8.913 | 33.089 | 2 |
| 2025-04-18T11:40:00 | 55.109306 | 7.067723 | 2.0 | 8.711 | 2 | 34.886 | 8.912 | 32.715 | 2 |
| 2025-04-18T11:41:00 | 55.109516 | 7.068244 | 2.0 | 8.710 | 2 | 35.240 | 8.911 | 33.085 | 2 |
| 2025-04-18T11:42:00 | 55.109796 | 7.068551 | 2.0 | 8.702 | 2 | 35.147 | 8.907 | 32.992 | 2 |
| 2025-04-18T11:43:00 | 55.110197 | 7.068561 | 2.0 | 8.696 | 2 | 35.258 | 8.902 | 33.112 | 2 |
| 2025-04-18T11:44:00 | 55.110496 | 7.068404 | 2.0 | 8.700 | 2 | 35.044 | 8.898 | 32.893 | 2 |
| 2025-04-18T11:45:00 | 55.110665 | 7.068165 | 2.0 | 8.696 | 2 | 35.252 | 8.898 | 33.110 | 2 |
| 2025-04-18T11:46:00 | 55.110811 | 7.067961 | 2.0 | 8.699 | 2 | 35.343 | 8.897 | 33.206 | 2 |
| 2025-04-18T11:47:00 | 55.110759 | 7.068038 | 2.0 | 8.683 | 2 | 35.086 | 8.898 | 32.936 | 2 |
| 2025-04-18T11:48:00 | 55.110729 | 7.068029 | 2.0 | 8.686 | 2 | 35.242 | 8.879 | 33.117 | 2 |
| 2025-04-18T11:49:00 | 55.110776 | 7.067796 | 2.0 | 8.702 | 2 | 35.453 | 8.892 | 33.325 | 2 |
| 2025-04-18T11:51:00 | 55.111195 | 7.067301 | 2.0 | 8.698 | 2 | 35.465 | 8.901 | 33.329 | 2 |
| 2025-04-18T11:52:00 | 55.111079 | 7.067314 | 2.0 | 8.703 | 2 | 35.468 | 8.904 | 33.330 | 2 |
| 2025-04-18T11:53:00 | 55.111131 | 7.066617 | 2.0 | 8.708 | 2 | 35.471 | 8.907 | 33.330 | 2 |
| 2025-04-18T11:54:00 | 55.111647 | 7.065193 | 2.0 | 8.706 | 2 | 35.479 | 8.915 | 33.331 | 2 |
| 2025-04-18T11:55:00 | 55.112127 | 7.064256 | 2.0 | 8.705 | 2 | 35.481 | 8.912 | 33.336 | 2 |
| 2025-04-18T11:56:00 | 55.112431 | 7.063675 | 2.0 | 8.702 | 2 | 35.482 | 8.912 | 33.337 | 2 |
| 2025-04-18T11:57:00 | 55.112544 | 7.063503 | 2.0 | 8.668 | 2 | 35.482 | 8.910 | 33.339 | 2 |
| 2025-04-18T11:58:00 | 55.112516 | 7.063548 | 2.0 | 8.668 | 2 | 35.458 | 8.857 | 33.363 | 2 |
| 2025-04-18T11:59:00 | 55.112457 | 7.063629 | 2.0 | 8.691 | 2 | 35.462 | 8.879 | 33.347 | 2 |
| 2025-04-18T12:00:00 | 55.112508 | 7.063603 | 2.0 | 8.713 | 2 | 35.481 | 8.904 | 33.343 | 2 |
| 2025-04-18T12:01:00 | 55.112558 | 7.063464 | 2.0 | 8.714 | 2 | 35.496 | 8.921 | 33.343 | 2 |
| 2025-04-18T12:02:00 | 55.112749 | 7.063271 | 2.0 | 8.705 | 2 | 35.496 | 8.920 | 33.344 | 2 |
| 2025-04-18T12:03:00 | 55.112715 | 7.063225 | 2.0 | 8.704 | 2 | 35.493 | 8.917 | 33.343 | 2 |
| 2025-04-18T12:04:00 | 55.112628 | 7.063071 | 2.0 | 8.715 | 2 | 35.496 | 8.919 | 33.345 | 2 |
| 2025-04-18T12:05:00 | 55.112539 | 7.062834 | 2.0 | 8.719 | 2 | 35.502 | 8.925 | 33.345 | 2 |
| 2025-04-18T12:06:00 | 55.112561 | 7.062667 | 2.0 | 8.714 | 2 | 35.506 | 8.927 | 33.348 | 2 |
| 2025-04-18T12:07:00 | 55.112627 | 7.063043 | 2.0 | 8.713 | 2 | 35.502 | 8.923 | 33.347 | 2 |
| 2025-04-18T12:08:00 | 55.112583 | 7.064317 | 2.0 | 8.712 | 2 | 35.501 | 8.922 | 33.347 | 2 |
| 2025-04-18T12:09:00 | 55.112630 | 7.066396 | 2.0 | 8.708 | 2 | 35.499 | 8.924 | 33.343 | 2 |
| 2025-04-18T12:10:00 | 55.112743 | 7.068953 | 2.0 | 8.703 | 2 | 35.492 | 8.919 | 33.341 | 2 |
| 2025-04-18T12:11:00 | 55.112915 | 7.071453 | 2.0 | 8.699 | 2 | 35.486 | 8.915 | 33.338 | 2 |
| 2025-04-18T12:12:00 | 55.113114 | 7.073610 | 2.0 | 8.695 | 2 | 35.481 | 8.910 | 33.338 | 2 |
| 2025-04-18T12:13:00 | 55.113346 | 7.075473 | 2.0 | 8.704 | 2 | 35.470 | 8.908 | 33.328 | 2 |
| 2025-04-18T12:14:00 | 55.113727 | 7.076851 | 2.0 | 8.710 | 2 | 35.370 | 8.915 | 33.217 | 2 |
| 2025-04-18T12:15:00 | 55.114188 | 7.077850 | 2.0 | 8.704 | 2 | 35.477 | 8.919 | 33.325 | 2 |
| 2025-04-18T12:16:00 | 55.114704 | 7.078650 | 2.0 | 8.696 | 2 | 35.481 | 8.916 | 33.332 | 2 |
| 2025-04-18T12:17:00 | 55.115225 | 7.079280 | 2.0 | 8.705 | 2 | 35.474 | 8.908 | 33.332 | 2 |
| 2025-04-18T12:18:00 | 55.115634 | 7.079626 | 2.0 | 8.712 | 2 | 35.481 | 8.917 | 33.331 | 2 |
| 2025-04-18T12:19:00 | 55.115868 | 7.079666 | 2.0 | 8.704 | 2 | 35.490 | 8.922 | 33.336 | 2 |
| 2025-04-18T12:20:00 | 55.116088 | 7.079577 | 2.0 | 8.705 | 2 | 35.483 | 8.913 | 33.337 | 2 |
| 2025-04-18T12:21:00 | 55.116180 | 7.079444 | 2.0 | 8.714 | 2 | 35.169 | 8.914 | 33.008 | 2 |
| 2025-04-18T12:22:00 | 55.116210 | 7.079362 | 2.0 | 8.717 | 2 | 35.434 | 8.924 | 33.275 | 2 |
| 2025-04-18T12:23:00 | 55.116265 | 7.079350 | 2.0 | 8.720 | 2 | 35.502 | 8.928 | 33.343 | 2 |
| 2025-04-18T12:24:00 | 55.116253 | 7.079337 | 2.0 | 8.723 | 2 | 35.497 | 8.931 | 33.335 | 2 |
| 2025-04-18T12:25:00 | 55.116268 | 7.079349 | 2.0 | 8.705 | 2 | 35.500 | 8.930 | 33.339 | 2 |
| 2025-04-18T12:26:00 | 55.116327 | 7.079349 | 2.0 | 8.704 | 2 | 35.117 | 8.916 | 32.952 | 2 |
| 2025-04-18T12:27:00 | 55.116320 | 7.079294 | 2.0 | 8.710 | 2 | 35.305 | 8.916 | 33.148 | 2 |
| 2025-04-18T12:28:00 | 55.116337 | 7.079142 | 2.0 | 8.711 | 2 | 35.500 | 8.925 | 33.343 | 2 |
| 2025-04-18T12:29:00 | 55.116394 | 7.079262 | 2.0 | 8.710 | 2 | 35.390 | 8.925 | 33.228 | 2 |
| 2025-04-18T12:30:00 | 55.116373 | 7.079178 | 2.0 | 8.713 | 2 | 34.824 | 8.922 | 32.641 | 2 |
| 2025-04-18T12:31:00 | 55.116515 | 7.079064 | 2.0 | 8.721 | 2 | 35.121 | 8.929 | 32.944 | 2 |
| 2025-04-18T12:32:00 | 55.116548 | 7.079260 | 2.0 | 8.722 | 2 | 34.913 | 8.938 | 32.719 | 2 |
| 2025-04-18T12:33:00 | 55.116491 | 7.079188 | 2.0 | 8.698 | 2 | 35.149 | 8.930 | 32.972 | 2 |
| 2025-04-18T12:34:00 | 55.116399 | 7.079067 | 2.0 | 8.713 | 2 | 35.124 | 8.918 | 32.958 | 2 |
| 2025-04-18T12:35:00 | 55.116397 | 7.078849 | 2.0 | 8.727 | 2 | 35.508 | 8.933 | 33.344 | 2 |
| 2025-04-18T12:36:00 | 55.116417 | 7.078873 | 2.0 | 8.717 | 2 | 35.310 | 8.943 | 33.128 | 2 |
| 2025-04-18T12:37:00 | 55.116392 | 7.078924 | 2.0 | 8.722 | 2 | 35.218 | 8.935 | 33.040 | 2 |
| 2025-04-18T12:38:00 | 55.116464 | 7.078637 | 2.0 | 8.723 | 2 | 35.440 | 8.940 | 33.267 | 2 |
| 2025-04-18T12:39:00 | 55.116478 | 7.078360 | 2.0 | 8.728 | 2 | 35.353 | 8.946 | 33.170 | 2 |
| 2025-04-18T12:40:00 | 55.116469 | 7.078256 | 2.0 | 8.737 | 2 | 35.173 | 8.947 | 32.982 | 2 |
| 2025-04-18T12:41:00 | 55.116656 | 7.078519 | 2.0 | 8.737 | 2 | 35.305 | 8.956 | 33.111 | 2 |
| 2025-04-18T12:42:00 | 55.117092 | 7.079403 | 2.0 | 8.728 | 2 | 35.404 | 8.955 | 33.215 | 2 |
| 2025-04-18T12:43:00 | 55.117852 | 7.080633 | 2.0 | 8.724 | 2 | 35.276 | 8.950 | 33.086 | 2 |
| 2025-04-18T12:44:00 | 55.118826 | 7.082100 | 2.0 | 8.728 | 2 | 35.461 | 8.947 | 33.282 | 2 |
| 2025-04-18T12:45:00 | 55.119850 | 7.083592 | 2.0 | 8.723 | 2 | 35.187 | 8.949 | 32.994 | 2 |
| 2025-04-18T12:46:00 | 55.120841 | 7.084917 | 2.0 | 8.733 | 2 | 35.327 | 8.949 | 33.140 | 2 |
| 2025-04-18T12:47:00 | 55.121802 | 7.086118 | 2.0 | 8.733 | 2 | 35.319 | 8.953 | 33.128 | 2 |
| 2025-04-18T12:48:00 | 55.122662 | 7.087037 | 2.0 | 8.736 | 2 | 35.441 | 8.953 | 33.255 | 2 |
| 2025-04-18T12:49:00 | 55.123387 | 7.087581 | 2.0 | 8.732 | 2 | 35.393 | 8.956 | 33.203 | 2 |
| 2025-04-18T12:50:00 | 55.124061 | 7.087916 | 2.0 | 8.732 | 2 | 35.340 | 8.953 | 33.150 | 2 |
| 2025-04-18T12:51:00 | 55.124653 | 7.087998 | 2.0 | 8.731 | 2 | 35.377 | 8.952 | 33.190 | 2 |
| 2025-04-18T12:52:00 | 55.125159 | 7.087782 | 2.0 | 8.731 | 2 | 35.312 | 8.952 | 33.122 | 2 |
| 2025-04-18T12:53:00 | 55.125642 | 7.087344 | 2.0 | 8.732 | 2 | 35.402 | 8.949 | 33.219 | 2 |
| 2025-04-18T12:54:00 | 55.126108 | 7.086759 | 2.0 | 8.729 | 2 | 35.426 | 8.951 | 33.242 | 2 |
| 2025-04-18T12:55:00 | 55.126421 | 7.086250 | 2.0 | 8.733 | 2 | 35.242 | 8.948 | 33.053 | 2 |
| 2025-04-18T12:56:00 | 55.126555 | 7.086014 | 2.0 | 8.734 | 2 | 35.343 | 8.950 | 33.156 | 2 |
| 2025-04-18T12:57:00 | 55.126607 | 7.085967 | 2.0 | 8.739 | 2 | 35.517 | 8.954 | 33.334 | 2 |
| 2025-04-18T12:58:00 | 55.126709 | 7.085871 | 2.0 | 8.735 | 2 | 35.381 | 8.955 | 33.191 | 2 |
| 2025-04-18T12:59:00 | 55.126715 | 7.085848 | 2.0 | 8.736 | 2 | 35.383 | 8.953 | 33.195 | 2 |
| 2025-04-18T13:00:00 | 55.126720 | 7.085696 | 2.0 | 8.739 | 2 | 35.274 | 8.954 | 33.080 | 2 |
| 2025-04-18T13:01:00 | 55.126819 | 7.085515 | 2.0 | 8.739 | 2 | 35.426 | 8.957 | 33.236 | 2 |
| 2025-04-18T13:02:00 | 55.127186 | 7.085503 | 2.0 | 8.747 | 2 | 35.305 | 8.957 | 33.110 | 2 |
| 2025-04-18T13:03:00 | 55.127614 | 7.085617 | 2.0 | 8.744 | 2 | 35.404 | 8.964 | 33.207 | 2 |
| 2025-04-18T13:04:00 | 55.127971 | 7.085577 | 2.0 | 8.748 | 2 | 35.432 | 8.962 | 33.238 | 2 |
| 2025-04-18T13:05:00 | 55.128222 | 7.085302 | 2.0 | 8.747 | 2 | 35.360 | 8.962 | 33.163 | 2 |
| 2025-04-18T13:06:00 | 55.128445 | 7.084951 | 2.0 | 8.751 | 2 | 35.387 | 8.965 | 33.188 | 2 |
| 2025-04-18T13:07:00 | 55.128546 | 7.084795 | 2.0 | 8.746 | 2 | 35.428 | 8.965 | 33.231 | 2 |
| 2025-04-18T13:08:00 | 55.128590 | 7.084781 | 2.0 | 8.746 | 2 | 35.345 | 8.960 | 33.149 | 2 |
| 2025-04-18T13:09:00 | 55.128579 | 7.084718 | 2.0 | 8.750 | 2 | 35.070 | 8.963 | 32.860 | 2 |
| 2025-04-18T13:10:00 | 55.128604 | 7.084548 | 2.0 | 8.751 | 2 | 35.134 | 8.966 | 32.923 | 2 |
| 2025-04-18T13:11:00 | 55.128672 | 7.084297 | 2.0 | 8.751 | 2 | 35.171 | 8.968 | 32.960 | 2 |
| 2025-04-18T13:12:00 | 55.128670 | 7.084179 | 2.0 | 8.751 | 2 | 35.341 | 8.967 | 33.138 | 2 |
| 2025-04-18T13:13:00 | 55.128621 | 7.084071 | 2.0 | 8.753 | 2 | 35.339 | 8.970 | 33.133 | 2 |
| 2025-04-18T13:14:00 | 55.128555 | 7.083951 | 2.0 | 8.752 | 2 | 35.230 | 8.969 | 33.021 | 2 |
| 2025-04-18T13:15:00 | 55.128454 | 7.083875 | 2.0 | 8.753 | 2 | 35.444 | 8.970 | 33.243 | 2 |
| 2025-04-18T13:16:00 | 55.128311 | 7.083843 | 2.0 | 8.753 | 2 | 35.236 | 8.970 | 33.026 | 2 |
| 2025-04-18T13:17:00 | 55.128183 | 7.083718 | 2.0 | 8.751 | 2 | 35.120 | 8.968 | 32.907 | 2 |
| 2025-04-18T13:18:00 | 55.128014 | 7.082829 | 2.0 | 8.746 | 2 | 35.185 | 8.967 | 32.976 | 2 |
| 2025-04-18T13:19:00 | 55.127117 | 7.080937 | 2.0 | 8.745 | 2 | 35.251 | 8.965 | 33.046 | 2 |
| 2025-04-18T13:20:00 | 55.125489 | 7.077884 | 2.0 | 8.738 | 2 | 35.363 | 8.964 | 33.164 | 2 |
| 2025-04-18T13:21:00 | 55.123626 | 7.074390 | 2.0 | 8.730 | 2 | 35.473 | 8.959 | 33.283 | 2 |
| 2025-04-18T13:22:00 | 55.121699 | 7.070775 | 2.0 | 8.715 | 2 | 35.300 | 8.945 | 33.116 | 2 |
| 2025-04-18T13:23:00 | 55.119754 | 7.067155 | 2.0 | 8.708 | 2 | 35.265 | 8.924 | 33.099 | 2 |
| 2025-04-18T13:24:00 | 55.117790 | 7.063511 | 2.0 | 8.707 | 2 | 35.419 | 8.914 | 33.269 | 2 |
| 2025-04-18T13:25:00 | 55.115815 | 7.059835 | 2.0 | 8.694 | 2 | 35.228 | 8.907 | 33.076 | 2 |
| 2025-04-18T13:26:00 | 55.113838 | 7.056157 | 2.0 | 8.690 | 2 | 35.361 | 8.893 | 33.228 | 2 |
| 2025-04-18T13:27:00 | 55.111856 | 7.052472 | 2.0 | 8.677 | 2 | 35.312 | 8.886 | 33.184 | 2 |
| 2025-04-18T13:28:00 | 55.109887 | 7.048809 | 2.0 | 8.674 | 2 | 35.276 | 8.872 | 33.159 | 2 |
| 2025-04-18T13:29:00 | 55.107927 | 7.045158 | 2.0 | 8.684 | 2 | 35.287 | 8.870 | 33.172 | 2 |
| 2025-04-18T13:30:00 | 55.105967 | 7.041492 | 2.0 | 8.696 | 2 | 35.351 | 8.880 | 33.230 | 2 |
| 2025-04-18T13:31:00 | 55.103986 | 7.037822 | 2.0 | 8.708 | 2 | 35.414 | 8.890 | 33.286 | 2 |
| 2025-04-18T13:32:00 | 55.102017 | 7.034151 | 2.0 | 8.719 | 2 | 35.500 | 8.903 | 33.364 | 2 |
| 2025-04-18T13:33:00 | 55.100070 | 7.030496 | 2.0 | 8.724 | 2 | 35.414 | 8.910 | 33.268 | 2 |
| 2025-04-18T13:34:00 | 55.098123 | 7.026832 | 2.0 | 8.721 | 2 | 35.483 | 8.913 | 33.337 | 2 |
| 2025-04-18T13:35:00 | 55.096245 | 7.023041 | 2.0 | 8.729 | 2 | 35.493 | 8.913 | 33.347 | 2 |
| 2025-04-18T13:36:00 | 55.094286 | 7.019370 | 2.0 | 8.712 | 2 | 35.455 | 8.919 | 33.302 | 2 |
| 2025-04-18T13:37:00 | 55.092333 | 7.015658 | 2.0 | 8.690 | 2 | 35.478 | 8.898 | 33.346 | 2 |
| 2025-04-18T13:38:00 | 55.090409 | 7.011900 | 2.0 | 8.700 | 2 | 35.453 | 8.883 | 33.334 | 2 |
| 2025-04-18T13:39:00 | 55.088476 | 7.008126 | 2.0 | 8.720 | 2 | 35.486 | 8.893 | 33.359 | 2 |
| 2025-04-18T13:40:00 | 55.086487 | 7.004443 | 2.0 | 8.738 | 2 | 35.488 | 8.909 | 33.346 | 2 |
| 2025-04-18T13:41:00 | 55.084556 | 7.000705 | 2.0 | 8.754 | 2 | 35.567 | 8.929 | 33.409 | 2 |
| 2025-04-18T13:42:00 | 55.082629 | 6.996966 | 2.0 | 8.750 | 2 | 35.564 | 8.940 | 33.396 | 2 |
| 2025-04-18T13:43:00 | 55.080664 | 6.993231 | 2.0 | 8.742 | 2 | 35.583 | 8.933 | 33.422 | 2 |
| 2025-04-18T13:44:00 | 55.078714 | 6.989462 | 2.0 | 8.766 | 2 | 35.595 | 8.934 | 33.434 | 2 |
| 2025-04-18T13:45:00 | 55.076769 | 6.985671 | 2.0 | 8.812 | 2 | 35.650 | 8.959 | 33.468 | 2 |
| 2025-04-18T13:46:00 | 55.074808 | 6.981885 | 2.0 | 8.845 | 2 | 35.746 | 9.003 | 33.527 | 2 |
| 2025-04-18T13:47:00 | 55.072838 | 6.978107 | 2.0 | 8.848 | 2 | 35.820 | 9.030 | 33.578 | 2 |
| 2025-04-18T13:48:00 | 55.070886 | 6.974303 | 2.0 | 8.840 | 2 | 35.832 | 9.030 | 33.591 | 2 |
| 2025-04-18T13:49:00 | 55.068905 | 6.970529 | 2.0 | 8.840 | 2 | 35.830 | 9.027 | 33.591 | 2 |
| 2025-04-18T13:50:00 | 55.066955 | 6.966728 | 2.0 | 8.846 | 2 | 35.832 | 9.026 | 33.595 | 2 |
| 2025-04-18T13:51:00 | 55.064962 | 6.962994 | 2.0 | 8.888 | 2 | 35.835 | 9.032 | 33.592 | 2 |
| 2025-04-18T13:52:00 | 55.063010 | 6.959206 | 2.0 | 8.898 | 2 | 35.850 | 9.070 | 33.572 | 2 |
| 2025-04-18T13:53:00 | 55.061073 | 6.955408 | 2.0 | 8.915 | 2 | 35.831 | 9.083 | 33.540 | 2 |
| 2025-04-18T13:54:00 | 55.059104 | 6.951659 | 2.0 | 8.927 | 2 | 35.811 | 9.101 | 33.502 | 2 |
| 2025-04-18T13:55:00 | 55.057143 | 6.947902 | 2.0 | 8.939 | 2 | 35.810 | 9.109 | 33.493 | 2 |
| 2025-04-18T13:56:00 | 55.055169 | 6.944124 | 2.0 | 8.961 | 2 | 35.844 | 9.124 | 33.515 | 2 |
| 2025-04-18T13:57:00 | 55.053165 | 6.940346 | 2.0 | 8.934 | 2 | 35.903 | 9.142 | 33.559 | 2 |
| 2025-04-18T13:58:00 | 55.051220 | 6.936479 | 2.0 | 8.943 | 2 | 35.921 | 9.119 | 33.599 | 2 |
| 2025-04-18T13:59:00 | 55.049207 | 6.932711 | 2.0 | 8.949 | 2 | 35.930 | 9.127 | 33.601 | 2 |
| 2025-04-18T14:00:00 | 55.047236 | 6.928897 | 2.0 | 8.954 | 2 | 35.953 | 9.132 | 33.620 | 2 |
| 2025-04-18T14:01:00 | 55.045258 | 6.925074 | 2.0 | 8.948 | 2 | 35.963 | 9.135 | 33.628 | 2 |
| 2025-04-18T14:02:00 | 55.043293 | 6.921239 | 2.0 | 8.942 | 2 | 35.960 | 9.131 | 33.629 | 2 |
| 2025-04-18T14:03:00 | 55.041269 | 6.917457 | 2.0 | 8.949 | 2 | 35.956 | 9.127 | 33.628 | 2 |
| 2025-04-18T14:04:00 | 55.039291 | 6.913601 | 2.0 | 8.955 | 2 | 35.956 | 9.132 | 33.624 | 2 |
| 2025-04-18T14:05:00 | 55.037287 | 6.909739 | 2.0 | 8.951 | 2 | 35.957 | 9.135 | 33.622 | 2 |
| 2025-04-18T14:06:00 | 55.035262 | 6.905900 | 2.0 | 8.953 | 2 | 35.959 | 9.133 | 33.626 | 2 |
| 2025-04-18T14:07:00 | 55.033255 | 6.902038 | 2.0 | 8.953 | 2 | 35.956 | 9.135 | 33.621 | 2 |
| 2025-04-18T14:08:00 | 55.031267 | 6.898164 | 2.0 | 8.931 | 2 | 35.959 | 9.131 | 33.628 | 2 |
| 2025-04-18T14:09:00 | 55.029266 | 6.894365 | 2.0 | 8.920 | 2 | 35.952 | 9.112 | 33.638 | 2 |
| 2025-04-18T14:10:00 | 55.027269 | 6.890554 | 2.0 | 8.915 | 2 | 35.942 | 9.102 | 33.637 | 2 |
| 2025-04-18T14:11:00 | 55.025296 | 6.886734 | 2.0 | 8.916 | 2 | 35.941 | 9.098 | 33.640 | 2 |
| 2025-04-18T14:12:00 | 55.023328 | 6.882896 | 2.0 | 8.909 | 2 | 35.941 | 9.097 | 33.641 | 2 |
| 2025-04-18T14:13:00 | 55.021341 | 6.879103 | 2.0 | 8.915 | 2 | 35.938 | 9.093 | 33.642 | 2 |
| 2025-04-18T14:14:00 | 55.019355 | 6.875317 | 2.0 | 8.930 | 2 | 35.944 | 9.099 | 33.642 | 2 |
| 2025-04-18T14:15:00 | 55.017379 | 6.871507 | 2.0 | 8.938 | 2 | 35.956 | 9.113 | 33.641 | 2 |
| 2025-04-18T14:16:00 | 55.015381 | 6.867708 | 2.0 | 8.931 | 2 | 35.971 | 9.120 | 33.650 | 2 |
| 2025-04-18T14:17:00 | 55.013422 | 6.863851 | 2.0 | 8.934 | 2 | 35.988 | 9.114 | 33.674 | 2 |
| 2025-04-18T14:18:00 | 55.011451 | 6.860009 | 2.0 | 8.949 | 2 | 36.006 | 9.121 | 33.686 | 2 |
| 2025-04-18T14:19:00 | 55.009434 | 6.856274 | 2.0 | 8.935 | 2 | 36.031 | 9.128 | 33.705 | 2 |
| 2025-04-18T14:20:00 | 55.007462 | 6.852488 | 2.0 | 8.929 | 2 | 36.029 | 9.115 | 33.716 | 2 |
| 2025-04-18T14:21:00 | 55.005514 | 6.848683 | 2.0 | 8.930 | 2 | 36.029 | 9.112 | 33.718 | 2 |
| 2025-04-18T14:22:00 | 55.003556 | 6.844885 | 2.0 | 8.941 | 2 | 36.027 | 9.112 | 33.716 | 2 |
| 2025-04-18T14:23:00 | 55.001563 | 6.841127 | 2.0 | 8.960 | 2 | 36.037 | 9.126 | 33.713 | 2 |
| 2025-04-18T14:24:00 | 54.999599 | 6.837326 | 2.0 | 8.961 | 2 | 36.054 | 9.140 | 33.718 | 2 |
| 2025-04-18T14:25:00 | 54.997616 | 6.833569 | 2.0 | 8.946 | 2 | 36.062 | 9.141 | 33.725 | 2 |
| 2025-04-18T14:26:00 | 54.995676 | 6.829775 | 2.0 | 8.926 | 2 | 36.060 | 9.128 | 33.735 | 2 |
| 2025-04-18T14:27:00 | 54.993729 | 6.826028 | 2.0 | 8.841 | 2 | 36.046 | 9.101 | 33.747 | 2 |
| 2025-04-18T14:28:00 | 54.991799 | 6.822279 | 2.0 | 8.747 | 2 | 35.963 | 9.014 | 33.743 | 2 |
| 2025-04-18T14:29:00 | 54.989863 | 6.818573 | 2.0 | 8.731 | 2 | 35.846 | 8.929 | 33.701 | 2 |
| 2025-04-18T14:30:00 | 54.987952 | 6.814839 | 2.0 | 8.733 | 2 | 35.801 | 8.912 | 33.670 | 2 |
| 2025-04-18T14:31:00 | 54.986000 | 6.811165 | 2.0 | 8.756 | 2 | 35.786 | 8.921 | 33.646 | 2 |
| 2025-04-18T14:32:00 | 54.984056 | 6.807456 | 2.0 | 8.766 | 2 | 35.793 | 8.939 | 33.636 | 2 |
| 2025-04-18T14:33:00 | 54.982161 | 6.803678 | 2.0 | 8.781 | 2 | 35.794 | 8.950 | 33.627 | 2 |
| 2025-04-18T14:34:00 | 54.980184 | 6.799984 | 2.0 | 8.781 | 2 | 35.812 | 8.957 | 33.639 | 2 |
| 2025-04-18T14:35:00 | 54.978237 | 6.796257 | 2.0 | 8.800 | 2 | 35.839 | 8.961 | 33.663 | 2 |
| 2025-04-18T14:36:00 | 54.976344 | 6.792443 | 2.0 | 8.902 | 2 | 35.912 | 9.000 | 33.703 | 2 |
| 2025-04-18T14:37:00 | 54.974358 | 6.788737 | 2.0 | 8.948 | 2 | 36.032 | 9.084 | 33.748 | 2 |
| 2025-04-18T14:38:00 | 54.972409 | 6.784958 | 2.0 | 8.964 | 2 | 36.111 | 9.126 | 33.790 | 2 |
| 2025-04-18T14:39:00 | 54.970420 | 6.781239 | 2.0 | 8.885 | 2 | 36.145 | 9.140 | 33.813 | 2 |
| 2025-04-18T14:40:00 | 54.968489 | 6.777420 | 2.0 | 8.879 | 2 | 36.078 | 9.061 | 33.818 | 2 |
| 2025-04-18T14:41:00 | 54.966560 | 6.773599 | 2.0 | 8.822 | 2 | 36.053 | 9.057 | 33.796 | 2 |
| 2025-04-18T14:42:00 | 54.964576 | 6.769895 | 2.0 | 8.792 | 2 | 35.886 | 9.008 | 33.668 | 2 |
| 2025-04-18T14:43:00 | 54.962634 | 6.766147 | 2.0 | 8.718 | 2 | 35.808 | 8.946 | 33.645 | 2 |
| 2025-04-18T14:44:00 | 54.960706 | 6.762370 | 2.0 | 8.723 | 2 | 35.727 | 8.906 | 33.598 | 2 |
| 2025-04-18T14:45:00 | 54.958749 | 6.758631 | 2.0 | 8.733 | 2 | 35.723 | 8.906 | 33.594 | 2 |
| 2025-04-18T14:46:00 | 54.956804 | 6.754860 | 2.0 | 8.748 | 2 | 35.727 | 8.917 | 33.588 | 2 |
| 2025-04-18T14:47:00 | 54.954847 | 6.751072 | 2.0 | 8.764 | 2 | 35.743 | 8.928 | 33.594 | 2 |
| 2025-04-18T14:48:00 | 54.952881 | 6.747319 | 2.0 | 8.772 | 2 | 35.759 | 8.944 | 33.596 | 2 |
| 2025-04-18T14:49:00 | 54.950968 | 6.743486 | 2.0 | 8.793 | 2 | 35.763 | 8.959 | 33.586 | 2 |
| 2025-04-18T14:50:00 | 54.948974 | 6.739752 | 2.0 | 8.808 | 2 | 35.755 | 8.972 | 33.565 | 2 |
| 2025-04-18T14:51:00 | 54.947010 | 6.735937 | 2.0 | 8.809 | 2 | 35.760 | 8.987 | 33.556 | 2 |
| 2025-04-18T14:52:00 | 54.945029 | 6.732168 | 2.0 | 8.810 | 2 | 35.756 | 8.988 | 33.551 | 2 |
| 2025-04-18T14:53:00 | 54.943111 | 6.728346 | 2.0 | 8.841 | 2 | 35.770 | 8.994 | 33.560 | 2 |
| 2025-04-18T14:54:00 | 54.941392 | 6.724270 | 2.0 | 8.856 | 2 | 35.800 | 9.019 | 33.568 | 2 |
| 2025-04-18T14:55:00 | 54.939640 | 6.720228 | 2.0 | 8.884 | 2 | 35.833 | 9.041 | 33.581 | 2 |
| 2025-04-18T14:56:00 | 54.937723 | 6.716392 | 2.0 | 8.904 | 2 | 35.875 | 9.064 | 33.603 | 2 |
| 2025-04-18T14:57:00 | 54.935809 | 6.712561 | 2.0 | 8.930 | 2 | 35.913 | 9.085 | 33.623 | 2 |
| 2025-04-18T14:58:00 | 54.933888 | 6.708731 | 2.0 | 8.989 | 2 | 35.961 | 9.114 | 33.646 | 2 |
| 2025-04-18T14:59:00 | 54.931976 | 6.704859 | 2.0 | 9.039 | 2 | 36.051 | 9.174 | 33.683 | 2 |
| 2025-04-18T15:00:00 | 54.930053 | 6.701033 | 2.0 | 9.053 | 2 | 36.146 | 9.215 | 33.743 | 2 |
| 2025-04-18T15:01:00 | 54.928130 | 6.697195 | 2.0 | 9.070 | 2 | 36.197 | 9.232 | 33.779 | 2 |
| 2025-04-18T15:02:00 | 54.926194 | 6.693339 | 2.0 | 9.071 | 2 | 36.230 | 9.246 | 33.800 | 2 |
| 2025-04-18T15:03:00 | 54.924267 | 6.689472 | 2.0 | 9.048 | 2 | 36.250 | 9.245 | 33.822 | 2 |
| 2025-04-18T15:04:00 | 54.922434 | 6.685700 | 2.0 | 9.009 | 2 | 36.246 | 9.220 | 33.842 | 2 |
| 2025-04-18T15:05:00 | 54.920903 | 6.682540 | 2.0 | 8.993 | 2 | 36.231 | 9.186 | 33.858 | 2 |
| 2025-04-18T15:06:00 | 54.919500 | 6.679780 | 2.0 | 8.987 | 2 | 36.235 | 9.169 | 33.879 | 2 |
| 2025-04-18T15:07:00 | 54.918140 | 6.677116 | 2.0 | 8.943 | 2 | 36.254 | 9.161 | 33.906 | 2 |
| 2025-04-18T15:08:00 | 54.916790 | 6.674472 | 2.0 | 8.893 | 2 | 36.266 | 9.111 | 33.966 | 2 |
| 2025-04-18T15:09:00 | 54.915466 | 6.671811 | 2.0 | 8.866 | 2 | 36.264 | 9.060 | 34.013 | 2 |
| 2025-04-18T15:10:00 | 54.914141 | 6.669186 | 2.0 | 8.873 | 2 | 36.254 | 9.046 | 34.016 | 2 |
| 2025-04-18T15:11:00 | 54.912815 | 6.666577 | 2.0 | 8.868 | 2 | 36.248 | 9.049 | 34.007 | 2 |
| 2025-04-18T15:12:00 | 54.911586 | 6.664066 | 2.0 | 8.869 | 2 | 36.228 | 9.046 | 33.989 | 2 |
| 2025-04-18T15:13:00 | 54.910477 | 6.661732 | 2.0 | 8.841 | 2 | 36.223 | 9.047 | 33.982 | 2 |
| 2025-04-18T15:14:00 | 54.909402 | 6.659632 | 2.0 | 8.802 | 2 | 36.206 | 9.004 | 34.006 | 2 |
| 2025-04-18T15:15:00 | 54.908245 | 6.657519 | 2.0 | 8.829 | 2 | 36.178 | 8.988 | 33.992 | 2 |
| 2025-04-18T15:16:00 | 54.907042 | 6.655212 | 2.0 | 8.832 | 2 | 36.168 | 9.003 | 33.967 | 2 |
| 2025-04-18T15:17:00 | 54.905816 | 6.652741 | 2.0 | 8.852 | 2 | 36.160 | 9.009 | 33.953 | 2 |
| 2025-04-18T15:18:00 | 54.904585 | 6.650175 | 2.0 | 8.862 | 2 | 36.167 | 9.028 | 33.942 | 2 |
| 2025-04-18T15:19:00 | 54.903291 | 6.647770 | 2.0 | 8.878 | 2 | 36.171 | 9.041 | 33.934 | 2 |
| 2025-04-18T15:20:00 | 54.902119 | 6.645550 | 2.0 | 8.888 | 2 | 36.180 | 9.054 | 33.931 | 2 |
| 2025-04-18T15:21:00 | 54.901016 | 6.643461 | 2.0 | 8.897 | 2 | 36.187 | 9.065 | 33.928 | 2 |
| 2025-04-18T15:22:00 | 54.900044 | 6.641657 | 2.0 | 8.903 | 2 | 36.193 | 9.073 | 33.926 | 2 |
| 2025-04-18T15:23:00 | 54.899070 | 6.640587 | 2.0 | 8.913 | 2 | 36.197 | 9.079 | 33.925 | 2 |
| 2025-04-18T15:24:00 | 54.898177 | 6.640287 | 2.0 | 8.914 | 2 | 36.197 | 9.087 | 33.917 | 2 |
| 2025-04-18T15:25:00 | 54.897472 | 6.640406 | 2.0 | 8.965 | 2 | 36.177 | 9.097 | 33.887 | 2 |
| 2025-04-18T15:26:00 | 54.897055 | 6.639934 | 2.0 | 8.938 | 2 | 36.169 | 9.132 | 33.845 | 2 |
| 2025-04-18T15:27:00 | 54.896891 | 6.639372 | 2.0 | 8.935 | 2 | 36.158 | 9.113 | 33.852 | 2 |
| 2025-04-18T15:28:00 | 54.896921 | 6.638788 | 2.0 | 8.937 | 2 | 36.152 | 9.108 | 33.850 | 2 |
| 2025-04-18T15:29:00 | 54.897084 | 6.638636 | 2.0 | 8.937 | 2 | 36.155 | 9.112 | 33.850 | 2 |
| 2025-04-18T15:30:00 | 54.897062 | 6.638793 | 2.0 | 8.944 | 2 | 36.155 | 9.110 | 33.851 | 2 |
| 2025-04-18T15:31:00 | 54.896969 | 6.639033 | 2.0 | 8.924 | 2 | 36.157 | 9.121 | 33.843 | 2 |
| 2025-04-18T15:32:00 | 54.896977 | 6.639303 | 2.0 | 8.911 | 2 | 36.143 | 9.088 | 33.860 | 2 |
| 2025-04-18T15:33:00 | 54.897025 | 6.639478 | 2.0 | 8.957 | 2 | 36.136 | 9.095 | 33.846 | 2 |
| 2025-04-18T15:34:00 | 54.897054 | 6.639498 | 2.0 | 8.950 | 2 | 36.152 | 9.127 | 33.832 | 2 |
| 2025-04-18T15:35:00 | 54.896944 | 6.639317 | 2.0 | 8.957 | 2 | 36.151 | 9.125 | 33.833 | 2 |
| 2025-04-18T15:36:00 | 54.896780 | 6.638970 | 2.0 | 8.939 | 2 | 36.150 | 9.127 | 33.830 | 2 |
| 2025-04-18T15:37:00 | 54.896663 | 6.638496 | 2.0 | 8.923 | 2 | 36.140 | 9.109 | 33.837 | 2 |
| 2025-04-18T15:38:00 | 54.896723 | 6.637920 | 2.0 | 8.936 | 2 | 36.130 | 9.100 | 33.835 | 2 |
| 2025-04-18T15:39:00 | 54.896805 | 6.637534 | 2.0 | 8.932 | 2 | 36.133 | 9.109 | 33.830 | 2 |
| 2025-04-18T15:40:00 | 54.896904 | 6.637160 | 2.0 | 8.942 | 2 | 36.135 | 9.109 | 33.832 | 2 |
| 2025-04-18T15:41:00 | 54.896949 | 6.636863 | 2.0 | 8.951 | 2 | 36.140 | 9.117 | 33.829 | 2 |
| 2025-04-18T15:42:00 | 54.896941 | 6.636620 | 2.0 | 8.955 | 2 | 36.143 | 9.125 | 33.825 | 2 |
| 2025-04-18T15:43:00 | 54.896924 | 6.636379 | 2.0 | 8.961 | 2 | 36.145 | 9.129 | 33.823 | 2 |
| 2025-04-18T15:44:00 | 54.896917 | 6.636142 | 2.0 | 8.969 | 2 | 36.146 | 9.135 | 33.818 | 2 |
| 2025-04-18T15:45:00 | 54.896911 | 6.635937 | 2.0 | 8.967 | 2 | 36.147 | 9.141 | 33.814 | 2 |
| 2025-04-18T15:46:00 | 54.896935 | 6.635724 | 2.0 | 8.956 | 2 | 36.142 | 9.138 | 33.811 | 2 |
| 2025-04-18T15:47:00 | 54.896964 | 6.635530 | 2.0 | 8.936 | 2 | 36.132 | 9.124 | 33.814 | 2 |
| 2025-04-18T15:48:00 | 54.896965 | 6.635296 | 2.0 | 8.938 | 2 | 36.123 | 9.114 | 33.814 | 2 |
| 2025-04-18T15:49:00 | 54.896946 | 6.634973 | 2.0 | 8.945 | 2 | 36.117 | 9.112 | 33.810 | 2 |
| 2025-04-18T15:50:00 | 54.896905 | 6.634639 | 2.0 | 8.942 | 2 | 36.121 | 9.117 | 33.809 | 2 |
| 2025-04-18T15:51:00 | 54.896857 | 6.634289 | 2.0 | 8.942 | 2 | 36.120 | 9.115 | 33.810 | 2 |
| 2025-04-18T15:52:00 | 54.896811 | 6.633934 | 2.0 | 8.941 | 2 | 36.120 | 9.117 | 33.808 | 2 |
| 2025-04-18T15:53:00 | 54.896821 | 6.633586 | 2.0 | 8.939 | 2 | 36.115 | 9.113 | 33.807 | 2 |
| 2025-04-18T15:54:00 | 54.897015 | 6.633367 | 2.0 | 8.929 | 2 | 36.112 | 9.113 | 33.804 | 2 |
| 2025-04-18T15:55:00 | 54.897076 | 6.633984 | 2.0 | 8.847 | 2 | 36.095 | 9.089 | 33.809 | 2 |
| 2025-04-18T15:56:00 | 54.896925 | 6.635259 | 2.0 | 8.862 | 2 | 36.052 | 9.033 | 33.817 | 2 |
| 2025-04-18T15:57:00 | 54.896813 | 6.636446 | 2.0 | 8.830 | 2 | 36.012 | 9.029 | 33.779 | 2 |
| 2025-04-18T15:58:00 | 54.896678 | 6.637473 | 2.0 | 8.805 | 2 | 35.958 | 9.001 | 33.750 | 2 |
| 2025-04-18T15:59:00 | 54.896531 | 6.638357 | 2.0 | 8.801 | 2 | 35.921 | 8.980 | 33.731 | 2 |
| 2025-04-18T16:00:00 | 54.896548 | 6.638910 | 2.0 | 8.793 | 2 | 35.904 | 8.973 | 33.720 | 2 |
| 2025-04-18T16:01:00 | 54.896645 | 6.639171 | 2.0 | 8.790 | 2 | 35.891 | 8.967 | 33.712 | 2 |
| 2025-04-18T16:02:00 | 54.896746 | 6.639309 | 2.0 | 8.787 | 2 | 35.886 | 8.962 | 33.711 | 2 |
| 2025-04-18T16:03:00 | 54.896859 | 6.639314 | 2.0 | 8.794 | 2 | 35.884 | 8.963 | 33.708 | 2 |
| 2025-04-18T16:04:00 | 54.896912 | 6.639158 | 2.0 | 8.794 | 2 | 35.887 | 8.967 | 33.708 | 2 |
| 2025-04-18T16:05:00 | 54.896909 | 6.638787 | 2.0 | 8.780 | 2 | 35.889 | 8.966 | 33.711 | 2 |
| 2025-04-18T16:06:00 | 54.896948 | 6.638310 | 2.0 | 8.782 | 2 | 35.889 | 8.952 | 33.724 | 2 |
| 2025-04-18T16:07:00 | 54.896998 | 6.637905 | 2.0 | 8.792 | 2 | 35.888 | 8.957 | 33.718 | 2 |
| 2025-04-18T16:08:00 | 54.897038 | 6.637511 | 2.0 | 8.793 | 2 | 35.894 | 8.964 | 33.718 | 2 |
| 2025-04-18T16:09:00 | 54.897075 | 6.637158 | 2.0 | 8.794 | 2 | 35.898 | 8.967 | 33.719 | 2 |
| 2025-04-18T16:10:00 | 54.897093 | 6.636833 | 2.0 | 8.795 | 2 | 35.901 | 8.968 | 33.721 | 2 |
| 2025-04-18T16:11:00 | 54.897099 | 6.636527 | 2.0 | 8.797 | 2 | 35.905 | 8.969 | 33.725 | 2 |
| 2025-04-18T16:12:00 | 54.897075 | 6.636228 | 2.0 | 8.797 | 2 | 35.909 | 8.970 | 33.728 | 2 |
| 2025-04-18T16:13:00 | 54.897021 | 6.635954 | 2.0 | 8.798 | 2 | 35.909 | 8.970 | 33.728 | 2 |
| 2025-04-18T16:14:00 | 54.896977 | 6.635689 | 2.0 | 8.800 | 2 | 35.908 | 8.971 | 33.726 | 2 |
| 2025-04-18T16:15:00 | 54.896940 | 6.635436 | 2.0 | 8.793 | 2 | 35.914 | 8.971 | 33.732 | 2 |
| 2025-04-18T16:16:00 | 54.896880 | 6.635171 | 2.0 | 8.780 | 2 | 35.915 | 8.965 | 33.739 | 2 |
| 2025-04-18T16:17:00 | 54.896805 | 6.634881 | 2.0 | 8.746 | 2 | 35.926 | 8.947 | 33.768 | 2 |
| 2025-04-18T16:18:00 | 54.896724 | 6.634616 | 2.0 | 8.744 | 2 | 35.933 | 8.919 | 33.802 | 2 |
| 2025-04-18T16:19:00 | 54.896643 | 6.634370 | 2.0 | 8.763 | 2 | 35.922 | 8.920 | 33.789 | 2 |
| 2025-04-18T16:20:00 | 54.896573 | 6.634071 | 2.0 | 8.782 | 2 | 35.903 | 8.939 | 33.751 | 2 |
| 2025-04-18T16:21:00 | 54.896522 | 6.633747 | 2.0 | 8.782 | 2 | 35.902 | 8.954 | 33.736 | 2 |
| 2025-04-18T16:22:00 | 54.896513 | 6.633451 | 2.0 | 8.785 | 2 | 35.901 | 8.957 | 33.732 | 2 |
| 2025-04-18T16:23:00 | 54.896559 | 6.633201 | 2.0 | 8.783 | 2 | 35.899 | 8.958 | 33.729 | 2 |
| 2025-04-18T16:24:00 | 54.896626 | 6.632980 | 2.0 | 8.773 | 2 | 35.899 | 8.955 | 33.732 | 2 |
| 2025-04-18T16:25:00 | 54.896664 | 6.632808 | 2.0 | 8.767 | 2 | 35.899 | 8.946 | 33.740 | 2 |
| 2025-04-18T16:26:00 | 54.896635 | 6.632682 | 2.0 | 8.765 | 2 | 35.903 | 8.938 | 33.752 | 2 |
| 2025-04-18T16:27:00 | 54.896544 | 6.632598 | 2.0 | 8.719 | 2 | 35.909 | 8.932 | 33.764 | 2 |
| 2025-04-18T16:28:00 | 54.896422 | 6.632515 | 2.0 | 8.670 | 2 | 35.926 | 8.887 | 33.825 | 2 |
| 2025-04-18T16:29:00 | 54.896320 | 6.632510 | 2.0 | 8.738 | 2 | 35.925 | 8.854 | 33.855 | 2 |
| 2025-04-18T16:30:00 | 54.896330 | 6.632760 | 2.0 | 8.764 | 2 | 35.875 | 8.917 | 33.743 | 2 |
| 2025-04-18T16:31:00 | 54.896448 | 6.633006 | 2.0 | 8.769 | 2 | 35.874 | 8.937 | 33.723 | 2 |
| 2025-04-18T16:32:00 | 54.896662 | 6.632913 | 2.0 | 8.764 | 2 | 35.878 | 8.939 | 33.725 | 2 |
| 2025-04-18T16:33:00 | 54.896952 | 6.631934 | 2.0 | 8.700 | 2 | 35.886 | 8.926 | 33.746 | 2 |
| 2025-04-18T16:34:00 | 54.897506 | 6.629952 | 2.0 | 8.790 | 2 | 35.916 | 8.888 | 33.813 | 2 |
| 2025-04-18T16:35:00 | 54.898317 | 6.627450 | 2.0 | 8.816 | 2 | 35.917 | 8.961 | 33.745 | 2 |
| 2025-04-18T16:36:00 | 54.899402 | 6.624128 | 2.0 | 8.857 | 2 | 35.982 | 8.987 | 33.788 | 2 |
| 2025-04-18T16:37:00 | 54.900586 | 6.620233 | 2.0 | 8.931 | 2 | 36.077 | 9.054 | 33.823 | 2 |
| 2025-04-18T16:38:00 | 54.901748 | 6.616089 | 2.0 | 8.899 | 2 | 36.154 | 9.094 | 33.866 | 2 |
| 2025-04-18T16:39:00 | 54.902958 | 6.611931 | 2.0 | 8.898 | 2 | 36.187 | 9.074 | 33.919 | 2 |
| 2025-04-18T16:40:00 | 54.904245 | 6.607810 | 2.0 | 8.897 | 2 | 36.198 | 9.070 | 33.934 | 2 |
| 2025-04-18T16:41:00 | 54.905375 | 6.603564 | 2.0 | 8.897 | 2 | 36.204 | 9.071 | 33.940 | 2 |
| 2025-04-18T16:42:00 | 54.906501 | 6.599313 | 2.0 | 8.880 | 2 | 36.207 | 9.069 | 33.945 | 2 |
| 2025-04-18T16:43:00 | 54.907642 | 6.595084 | 2.0 | 8.850 | 2 | 35.838 | 9.049 | 33.579 | 2 |
| 2025-04-18T16:44:00 | 54.908860 | 6.590931 | 2.0 | 8.823 | 2 | 36.188 | 9.021 | 33.971 | 2 |
| 2025-04-18T16:45:00 | 54.910071 | 6.586779 | 2.0 | 8.820 | 2 | 36.184 | 8.997 | 33.990 | 2 |
| 2025-04-18T16:46:00 | 54.911214 | 6.583133 | 2.0 | 8.833 | 2 | 36.208 | 8.999 | 34.013 | 2 |
| 2025-04-18T16:47:00 | 54.912285 | 6.580087 | 2.0 | 8.854 | 2 | 36.247 | 9.009 | 34.044 | 2 |
| 2025-04-18T16:48:00 | 54.913156 | 6.577444 | 2.0 | 8.864 | 2 | 36.306 | 9.030 | 34.085 | 2 |
| 2025-04-18T16:49:00 | 54.914031 | 6.575328 | 2.0 | 8.846 | 2 | 36.349 | 9.033 | 34.127 | 2 |
| 2025-04-18T16:50:00 | 54.915174 | 6.574303 | 2.0 | 8.841 | 2 | 36.342 | 9.017 | 34.135 | 2 |
| 2025-04-18T16:51:00 | 54.916424 | 6.574482 | 2.0 | 8.831 | 2 | 36.334 | 9.010 | 34.134 | 2 |
| 2025-04-18T16:52:00 | 54.917497 | 6.575644 | 2.0 | 8.829 | 2 | 36.322 | 9.004 | 34.127 | 2 |
| 2025-04-18T16:53:00 | 54.918247 | 6.577373 | 2.0 | 8.834 | 2 | 36.027 | 9.003 | 33.820 | 2 |
| 2025-04-18T16:54:00 | 54.918550 | 6.579513 | 2.0 | 8.846 | 2 | 36.311 | 9.007 | 34.113 | 2 |
| 2025-04-18T16:55:00 | 54.918213 | 6.581682 | 2.0 | 8.857 | 2 | 35.278 | 9.020 | 33.023 | 3 |
| 2025-04-18T16:56:00 | 54.917599 | 6.583662 | 2.0 | 8.861 | 2 | 36.318 | 9.031 | 34.097 | 2 |
| 2025-04-18T16:57:00 | 54.916972 | 6.585583 | 2.0 | 8.857 | 2 | 36.322 | 9.032 | 34.100 | 2 |
| 2025-04-18T16:58:00 | 54.916369 | 6.587468 | 2.0 | 8.852 | 2 | 36.329 | 9.027 | 34.112 | 2 |
| 2025-04-18T16:59:00 | 54.915785 | 6.589341 | 2.0 | 8.838 | 2 | 36.297 | 9.021 | 34.085 | 2 |
| 2025-04-18T17:00:00 | 54.915109 | 6.591116 | 2.0 | 8.826 | 2 | 36.268 | 9.012 | 34.063 | 2 |
| 2025-04-18T17:01:00 | 54.914485 | 6.592950 | 2.0 | 8.810 | 2 | 35.204 | 8.996 | 32.968 | 2 |
| 2025-04-18T17:02:00 | 54.913906 | 6.594763 | 2.0 | 8.804 | 2 | 35.821 | 8.982 | 33.625 | 2 |
| 2025-04-18T17:03:00 | 54.913287 | 6.596537 | 2.0 | 8.801 | 2 | 35.771 | 8.977 | 33.577 | 2 |
| 2025-04-18T17:04:00 | 54.912644 | 6.598320 | 2.0 | 8.790 | 2 | 35.812 | 8.974 | 33.623 | 2 |
| 2025-04-18T17:05:00 | 54.912034 | 6.600157 | 2.0 | 8.788 | 2 | 35.999 | 8.960 | 33.831 | 2 |
| 2025-04-18T17:06:00 | 54.911432 | 6.602001 | 2.0 | 8.807 | 2 | 35.901 | 8.963 | 33.726 | 2 |
| 2025-04-18T17:07:00 | 54.910800 | 6.603805 | 2.0 | 8.856 | 2 | 35.713 | 8.990 | 33.504 | 2 |
| 2025-04-18T17:08:00 | 54.910130 | 6.605586 | 2.0 | 8.872 | 2 | 36.043 | 9.028 | 33.813 | 2 |
| 2025-04-18T17:09:00 | 54.909496 | 6.607395 | 2.0 | 8.878 | 2 | 35.585 | 9.045 | 33.319 | 2 |
| 2025-04-18T17:10:00 | 54.908914 | 6.609225 | 2.0 | 8.882 | 2 | 35.526 | 9.049 | 33.254 | 2 |
| 2025-04-18T17:11:00 | 54.908342 | 6.611062 | 2.0 | 8.889 | 2 | 35.576 | 9.054 | 33.302 | 2 |
| 2025-04-18T17:12:00 | 54.907706 | 6.612855 | 2.0 | 8.894 | 2 | 35.848 | 9.061 | 33.578 | 2 |
| 2025-04-18T17:13:00 | 54.907046 | 6.614608 | 2.0 | 8.905 | 2 | 36.185 | 9.067 | 33.924 | 2 |
| 2025-04-18T17:14:00 | 54.906398 | 6.616380 | 2.0 | 8.923 | 2 | 35.857 | 9.077 | 33.572 | 2 |
| 2025-04-18T17:15:00 | 54.905772 | 6.618185 | 2.0 | 8.958 | 2 | 35.843 | 9.100 | 33.536 | 2 |
| 2025-04-18T17:16:00 | 54.905149 | 6.620070 | 2.0 | 8.973 | 2 | 35.901 | 9.133 | 33.565 | 2 |
| 2025-04-18T17:17:00 | 54.904502 | 6.621999 | 2.0 | 8.912 | 2 | 36.021 | 9.130 | 33.693 | 2 |
| 2025-04-18T17:18:00 | 54.903855 | 6.623961 | 2.0 | 8.876 | 2 | 35.785 | 9.080 | 33.495 | 2 |
| 2025-04-18T17:19:00 | 54.903200 | 6.625944 | 2.0 | 8.847 | 2 | 35.898 | 9.046 | 33.644 | 2 |
| 2025-04-18T17:20:00 | 54.902540 | 6.627937 | 2.0 | 8.805 | 2 | 35.589 | 9.014 | 33.353 | 2 |
| 2025-04-18T17:21:00 | 54.901890 | 6.629929 | 2.0 | 8.776 | 2 | 35.517 | 8.973 | 33.316 | 2 |
| 2025-04-18T17:22:00 | 54.901241 | 6.631918 | 2.0 | 8.772 | 2 | 35.607 | 8.947 | 33.434 | 2 |
| 2025-04-18T17:23:00 | 54.900588 | 6.633915 | 2.0 | 8.774 | 2 | 35.510 | 8.945 | 33.335 | 2 |
| 2025-04-18T17:24:00 | 54.899913 | 6.635914 | 2.0 | 8.784 | 2 | 35.326 | 8.948 | 33.140 | 2 |
| 2025-04-18T17:25:00 | 54.899234 | 6.637900 | 2.0 | 8.803 | 2 | 35.494 | 8.962 | 33.302 | 2 |
| 2025-04-18T17:26:00 | 54.898571 | 6.639902 | 2.0 | 8.804 | 2 | 35.373 | 8.973 | 33.166 | 2 |
| 2025-04-18T17:27:00 | 54.897904 | 6.641903 | 2.0 | 8.805 | 2 | 35.468 | 8.977 | 33.261 | 2 |
| 2025-04-18T17:28:00 | 54.897235 | 6.643910 | 2.0 | 8.803 | 2 | 35.563 | 8.976 | 33.361 | 2 |
| 2025-04-18T17:29:00 | 54.896548 | 6.645900 | 2.0 | 8.804 | 2 | 35.592 | 8.975 | 33.392 | 2 |
| 2025-04-18T17:30:00 | 54.895874 | 6.647879 | 2.0 | 8.815 | 2 | 35.368 | 8.978 | 33.156 | 2 |
| 2025-04-18T17:31:00 | 54.895231 | 6.649865 | 2.0 | 8.842 | 2 | 35.519 | 8.990 | 33.302 | 2 |
| 2025-04-18T17:32:00 | 54.894579 | 6.651881 | 2.0 | 8.863 | 2 | 35.626 | 9.017 | 33.388 | 2 |
| 2025-04-18T17:33:00 | 54.893888 | 6.653890 | 2.0 | 8.863 | 2 | 35.442 | 9.033 | 33.182 | 2 |
| 2025-04-18T17:34:00 | 54.893208 | 6.655910 | 2.0 | 8.859 | 2 | 35.611 | 9.032 | 33.359 | 2 |
| 2025-04-18T17:35:00 | 54.892537 | 6.657919 | 2.0 | 8.859 | 2 | 35.648 | 9.029 | 33.400 | 2 |
| 2025-04-18T17:36:00 | 54.891841 | 6.659912 | 2.0 | 8.853 | 2 | 35.581 | 9.031 | 33.328 | 2 |
| 2025-04-18T17:37:00 | 54.891121 | 6.661880 | 2.0 | 8.873 | 2 | 35.580 | 9.023 | 33.335 | 2 |
| 2025-04-18T17:38:00 | 54.890419 | 6.663845 | 2.0 | 8.871 | 2 | 35.574 | 9.048 | 33.305 | 2 |
| 2025-04-18T17:39:00 | 54.889738 | 6.665837 | 2.0 | 8.838 | 2 | 35.499 | 9.036 | 33.238 | 2 |
| 2025-04-18T17:40:00 | 54.889081 | 6.667822 | 2.0 | 8.816 | 2 | 35.595 | 9.006 | 33.366 | 2 |
| 2025-04-18T17:41:00 | 54.888429 | 6.669802 | 2.0 | 8.809 | 2 | 35.481 | 8.987 | 33.265 | 2 |
| 2025-04-18T17:42:00 | 54.887749 | 6.671771 | 2.0 | 8.806 | 2 | 35.518 | 8.980 | 33.310 | 2 |
| 2025-04-18T17:43:00 | 54.887033 | 6.673721 | 2.0 | 8.810 | 2 | 35.551 | 8.978 | 33.347 | 2 |
| 2025-04-18T17:44:00 | 54.886310 | 6.675667 | 2.0 | 8.817 | 2 | 35.527 | 8.983 | 33.317 | 2 |
| 2025-04-18T17:45:00 | 54.885970 | 6.677743 | 2.0 | 8.818 | 2 | 35.560 | 8.988 | 33.347 | 2 |
| 2025-04-18T17:46:00 | 54.886081 | 6.679719 | 2.0 | 8.820 | 2 | 35.557 | 8.987 | 33.345 | 2 |
| 2025-04-18T17:47:00 | 54.885199 | 6.680350 | 2.0 | 8.819 | 2 | 35.531 | 8.989 | 33.316 | 2 |
| 2025-04-18T17:48:00 | 54.884720 | 6.678631 | 2.0 | 8.817 | 2 | 35.567 | 8.989 | 33.353 | 2 |
| 2025-04-18T17:49:00 | 54.885151 | 6.676393 | 2.0 | 8.815 | 2 | 35.618 | 8.988 | 33.407 | 2 |
| 2025-04-18T17:50:00 | 54.885859 | 6.674287 | 2.0 | 8.815 | 2 | 35.586 | 8.988 | 33.374 | 2 |
| 2025-04-18T17:51:00 | 54.886532 | 6.672095 | 2.0 | 8.811 | 2 | 35.540 | 8.986 | 33.328 | 2 |
| 2025-04-18T17:52:00 | 54.887327 | 6.670120 | 2.0 | 8.805 | 2 | 35.574 | 8.983 | 33.366 | 2 |
| 2025-04-18T17:53:00 | 54.887931 | 6.668022 | 2.0 | 8.802 | 2 | 35.591 | 8.977 | 33.389 | 2 |
| 2025-04-18T17:54:00 | 54.888463 | 6.665864 | 2.0 | 8.804 | 2 | 35.555 | 8.975 | 33.354 | 2 |
| 2025-04-18T17:55:00 | 54.889117 | 6.663871 | 2.0 | 8.807 | 2 | 35.449 | 8.977 | 33.241 | 2 |
| 2025-04-18T17:56:00 | 54.889861 | 6.661991 | 2.0 | 8.813 | 2 | 35.664 | 8.979 | 33.464 | 2 |
| 2025-04-18T17:57:00 | 54.890591 | 6.660080 | 2.0 | 8.834 | 2 | 35.702 | 8.988 | 33.495 | 2 |
| 2025-04-18T17:58:00 | 54.891291 | 6.658123 | 2.0 | 8.859 | 2 | 35.721 | 9.008 | 33.496 | 2 |
| 2025-04-18T17:59:00 | 54.891914 | 6.656072 | 2.0 | 8.881 | 2 | 35.748 | 9.033 | 33.500 | 2 |
| 2025-04-18T18:00:00 | 54.892538 | 6.654002 | 2.0 | 8.864 | 2 | 35.780 | 9.051 | 33.517 | 2 |
| 2025-04-18T18:01:00 | 54.893224 | 6.651994 | 2.0 | 8.851 | 2 | 35.793 | 9.028 | 33.552 | 2 |
| 2025-04-18T18:02:00 | 54.893940 | 6.650026 | 2.0 | 8.851 | 2 | 35.791 | 9.023 | 33.555 | 2 |
| 2025-04-18T18:03:00 | 54.894637 | 6.648047 | 2.0 | 8.847 | 2 | 35.783 | 9.021 | 33.548 | 2 |
| 2025-04-18T18:04:00 | 54.895329 | 6.646059 | 2.0 | 8.849 | 2 | 35.773 | 9.018 | 33.541 | 2 |
| 2025-04-18T18:05:00 | 54.896030 | 6.644067 | 2.0 | 8.849 | 2 | 35.769 | 9.021 | 33.534 | 2 |
| 2025-04-18T18:06:00 | 54.896724 | 6.642048 | 2.0 | 8.842 | 2 | 35.763 | 9.018 | 33.530 | 2 |
| 2025-04-18T18:07:00 | 54.897423 | 6.640028 | 2.0 | 8.817 | 2 | 35.750 | 9.010 | 33.524 | 2 |
| 2025-04-18T18:08:00 | 54.898131 | 6.638029 | 2.0 | 8.800 | 2 | 35.708 | 8.984 | 33.505 | 2 |
| 2025-04-18T18:09:00 | 54.898827 | 6.635992 | 2.0 | 8.792 | 2 | 35.721 | 8.972 | 33.530 | 2 |
| 2025-04-18T18:10:00 | 54.899492 | 6.633917 | 2.0 | 8.790 | 2 | 35.723 | 8.963 | 33.540 | 2 |
| 2025-04-18T18:11:00 | 54.900128 | 6.631809 | 2.0 | 8.792 | 2 | 35.725 | 8.962 | 33.543 | 2 |
| 2025-04-18T18:12:00 | 54.900774 | 6.629729 | 2.0 | 8.793 | 2 | 35.676 | 8.964 | 33.490 | 2 |
| 2025-04-18T18:13:00 | 54.901478 | 6.627714 | 2.0 | 8.787 | 2 | 35.742 | 8.964 | 33.559 | 2 |
| 2025-04-18T18:14:00 | 54.902175 | 6.625714 | 2.0 | 8.778 | 2 | 35.757 | 8.959 | 33.580 | 2 |
| 2025-04-18T18:15:00 | 54.902849 | 6.623675 | 2.0 | 8.773 | 2 | 35.777 | 8.948 | 33.611 | 2 |
| 2025-04-18T18:16:00 | 54.903511 | 6.621611 | 2.0 | 8.772 | 2 | 35.797 | 8.946 | 33.634 | 2 |
| 2025-04-18T18:17:00 | 54.904177 | 6.619568 | 2.0 | 8.799 | 2 | 35.832 | 8.948 | 33.668 | 2 |
| 2025-04-18T18:18:00 | 54.904850 | 6.617570 | 2.0 | 8.854 | 2 | 35.906 | 8.980 | 33.715 | 2 |
| 2025-04-18T18:19:00 | 54.905550 | 6.615622 | 2.0 | 8.846 | 2 | 35.997 | 9.022 | 33.770 | 2 |
| 2025-04-18T18:20:00 | 54.906248 | 6.613707 | 2.0 | 8.844 | 2 | 36.024 | 9.019 | 33.801 | 2 |
| 2025-04-18T18:21:00 | 54.906961 | 6.611819 | 2.0 | 8.834 | 2 | 36.026 | 9.013 | 33.809 | 2 |
| 2025-04-18T18:22:00 | 54.907640 | 6.609886 | 2.0 | 8.828 | 2 | 36.073 | 9.004 | 33.867 | 2 |
| 2025-04-18T18:23:00 | 54.908266 | 6.607889 | 2.0 | 8.847 | 2 | 36.081 | 9.002 | 33.877 | 2 |
| 2025-04-18T18:24:00 | 54.908901 | 6.605894 | 2.0 | 8.868 | 2 | 36.100 | 9.020 | 33.880 | 2 |
| 2025-04-18T18:25:00 | 54.909569 | 6.603919 | 2.0 | 8.910 | 2 | 36.123 | 9.043 | 33.882 | 2 |
| 2025-04-18T18:26:00 | 54.910227 | 6.601911 | 2.0 | 8.911 | 2 | 35.771 | 9.082 | 33.478 | 2 |
| 2025-04-18T18:27:00 | 54.910902 | 6.599934 | 2.0 | 8.888 | 2 | 35.159 | 9.076 | 32.848 | 2 |
| 2025-04-18T18:28:00 | 54.911595 | 6.597975 | 2.0 | 8.877 | 2 | 35.530 | 9.057 | 33.251 | 2 |
| 2025-04-18T18:29:00 | 54.912263 | 6.595987 | 2.0 | 8.868 | 2 | 35.614 | 9.046 | 33.349 | 2 |
| 2025-04-18T18:30:00 | 54.912905 | 6.593981 | 2.0 | 8.865 | 2 | 35.612 | 9.039 | 33.353 | 2 |
| 2025-04-18T18:31:00 | 54.913562 | 6.591991 | 2.0 | 8.859 | 2 | 35.917 | 9.036 | 33.674 | 2 |
| 2025-04-18T18:32:00 | 54.914219 | 6.590013 | 2.0 | 8.852 | 2 | 35.849 | 9.029 | 33.609 | 2 |
| 2025-04-18T18:33:00 | 54.914874 | 6.588046 | 2.0 | 8.846 | 2 | 35.935 | 9.023 | 33.705 | 2 |
| 2025-04-18T18:34:00 | 54.915533 | 6.586091 | 2.0 | 8.830 | 2 | 36.122 | 9.015 | 33.908 | 2 |
| 2025-04-18T18:35:00 | 54.916188 | 6.584138 | 2.0 | 8.803 | 2 | 35.647 | 8.999 | 33.427 | 2 |
| 2025-04-18T18:36:00 | 54.916878 | 6.582202 | 2.0 | 8.763 | 2 | 35.861 | 8.969 | 33.679 | 2 |
| 2025-04-18T18:37:00 | 54.917822 | 6.580770 | 2.0 | 8.757 | 2 | 35.816 | 8.935 | 33.664 | 2 |
| 2025-04-18T18:38:00 | 54.918885 | 6.579694 | 2.0 | 8.770 | 2 | 35.919 | 8.929 | 33.777 | 2 |
| 2025-04-18T18:39:00 | 54.918716 | 6.577796 | 2.0 | 8.779 | 2 | 35.961 | 8.943 | 33.808 | 2 |
| 2025-04-18T18:40:00 | 54.917757 | 6.578061 | 2.0 | 8.759 | 2 | 35.823 | 8.945 | 33.662 | 2 |
| 2025-04-18T18:41:00 | 54.916992 | 6.580036 | 2.0 | 8.763 | 2 | 35.951 | 8.931 | 33.809 | 2 |
| 2025-04-18T18:42:00 | 54.915979 | 6.582156 | 2.0 | 8.812 | 2 | 35.786 | 8.945 | 33.623 | 2 |
| 2025-04-18T18:43:00 | 54.915130 | 6.584092 | 2.0 | 8.840 | 2 | 35.748 | 8.988 | 33.543 | 2 |
| 2025-04-18T18:44:00 | 54.914534 | 6.586039 | 2.0 | 8.845 | 2 | 35.847 | 9.010 | 33.625 | 2 |
| 2025-04-18T18:45:00 | 54.913878 | 6.587934 | 2.0 | 8.853 | 2 | 35.957 | 9.014 | 33.736 | 2 |
| 2025-04-18T18:46:00 | 54.913132 | 6.589809 | 2.0 | 8.860 | 2 | 36.018 | 9.024 | 33.790 | 2 |
| 2025-04-18T18:47:00 | 54.912466 | 6.591774 | 2.0 | 8.863 | 2 | 35.935 | 9.030 | 33.698 | 2 |
| 2025-04-18T18:48:00 | 54.911832 | 6.593782 | 2.0 | 8.872 | 2 | 35.938 | 9.033 | 33.698 | 2 |
| 2025-04-18T18:49:00 | 54.911161 | 6.595763 | 2.0 | 8.888 | 2 | 35.869 | 9.043 | 33.617 | 2 |
| 2025-04-18T18:50:00 | 54.910472 | 6.597727 | 2.0 | 8.905 | 2 | 35.951 | 9.062 | 33.684 | 2 |
| 2025-04-18T18:51:00 | 54.909808 | 6.599707 | 2.0 | 8.869 | 2 | 35.938 | 9.066 | 33.667 | 2 |
| 2025-04-18T18:52:00 | 54.909173 | 6.601729 | 2.0 | 8.842 | 2 | 35.738 | 9.035 | 33.488 | 2 |
| 2025-04-18T18:53:00 | 54.908525 | 6.603738 | 2.0 | 8.819 | 2 | 35.928 | 9.009 | 33.711 | 2 |
| 2025-04-18T18:54:00 | 54.907884 | 6.605725 | 2.0 | 8.818 | 2 | 36.043 | 8.990 | 33.849 | 2 |
| 2025-04-18T18:55:00 | 54.907232 | 6.607687 | 2.0 | 8.840 | 2 | 35.879 | 8.990 | 33.678 | 2 |
| 2025-04-18T18:56:00 | 54.906526 | 6.609611 | 2.0 | 8.884 | 2 | 35.935 | 9.015 | 33.712 | 2 |
| 2025-04-18T18:57:00 | 54.905789 | 6.611509 | 2.0 | 8.819 | 2 | 35.959 | 9.046 | 33.708 | 2 |
| 2025-04-18T18:58:00 | 54.905098 | 6.613429 | 2.0 | 8.773 | 2 | 35.705 | 8.993 | 33.493 | 2 |
| 2025-04-18T18:59:00 | 54.904464 | 6.615390 | 2.0 | 8.763 | 2 | 35.510 | 8.946 | 33.334 | 2 |
| 2025-04-18T19:00:00 | 54.903852 | 6.617357 | 2.0 | 8.765 | 2 | 35.666 | 8.935 | 33.507 | 2 |
| 2025-04-18T19:01:00 | 54.903212 | 6.619291 | 2.0 | 8.759 | 2 | 35.553 | 8.936 | 33.388 | 2 |
| 2025-04-18T19:02:00 | 54.902525 | 6.621205 | 2.0 | 8.776 | 2 | 35.516 | 8.933 | 33.352 | 2 |
| 2025-04-18T19:03:00 | 54.901842 | 6.623120 | 2.0 | 8.773 | 2 | 35.418 | 8.946 | 33.238 | 2 |
| 2025-04-18T19:04:00 | 54.901190 | 6.625053 | 2.0 | 8.771 | 2 | 35.404 | 8.943 | 33.226 | 2 |
| 2025-04-18T19:05:00 | 54.900547 | 6.626997 | 2.0 | 8.773 | 2 | 35.411 | 8.941 | 33.235 | 2 |
| 2025-04-18T19:06:00 | 54.899898 | 6.628943 | 2.0 | 8.785 | 2 | 35.555 | 8.945 | 33.382 | 2 |
| 2025-04-18T19:07:00 | 54.899252 | 6.630890 | 2.0 | 8.812 | 2 | 35.574 | 8.960 | 33.388 | 2 |
| 2025-04-18T19:08:00 | 54.898613 | 6.632828 | 2.0 | 8.828 | 2 | 35.573 | 8.982 | 33.366 | 2 |
| 2025-04-18T19:09:00 | 54.897980 | 6.634762 | 2.0 | 8.843 | 2 | 35.510 | 8.999 | 33.284 | 2 |
| 2025-04-18T19:10:00 | 54.897330 | 6.636688 | 2.0 | 8.881 | 2 | 35.634 | 9.014 | 33.399 | 2 |
| 2025-04-18T19:11:00 | 54.896669 | 6.638599 | 2.0 | 8.866 | 2 | 35.622 | 9.050 | 33.353 | 2 |
| 2025-04-18T19:12:00 | 54.896037 | 6.640497 | 2.0 | 8.835 | 2 | 35.624 | 9.029 | 33.375 | 2 |
| 2025-04-18T19:13:00 | 54.895425 | 6.642413 | 2.0 | 8.818 | 2 | 35.576 | 9.004 | 33.348 | 2 |
| 2025-04-18T19:14:00 | 54.894796 | 6.644325 | 2.0 | 8.814 | 2 | 35.487 | 8.987 | 33.272 | 2 |
| 2025-04-18T19:15:00 | 54.894123 | 6.646241 | 2.0 | 8.814 | 2 | 35.511 | 8.984 | 33.299 | 2 |
| 2025-04-18T19:16:00 | 54.893424 | 6.648164 | 2.0 | 8.814 | 2 | 35.456 | 8.983 | 33.243 | 2 |
| 2025-04-18T19:17:00 | 54.892725 | 6.650118 | 2.0 | 8.811 | 2 | 35.529 | 8.984 | 33.318 | 2 |
| 2025-04-18T19:18:00 | 54.892043 | 6.652096 | 2.0 | 8.812 | 2 | 35.493 | 8.981 | 33.283 | 2 |
| 2025-04-18T19:19:00 | 54.891388 | 6.654091 | 2.0 | 8.813 | 2 | 35.500 | 8.982 | 33.290 | 2 |
| 2025-04-18T19:20:00 | 54.890768 | 6.656124 | 2.0 | 8.813 | 2 | 35.533 | 8.983 | 33.323 | 2 |
| 2025-04-18T19:21:00 | 54.890147 | 6.658151 | 2.0 | 8.810 | 2 | 35.485 | 8.982 | 33.274 | 2 |
| 2025-04-18T19:22:00 | 54.889506 | 6.660162 | 2.0 | 8.811 | 2 | 35.518 | 8.980 | 33.310 | 2 |
| 2025-04-18T19:23:00 | 54.888827 | 6.662163 | 2.0 | 8.821 | 2 | 35.557 | 8.983 | 33.348 | 2 |
| 2025-04-18T19:24:00 | 54.888125 | 6.664150 | 2.0 | 8.827 | 2 | 35.600 | 8.993 | 33.384 | 2 |
| 2025-04-18T19:25:00 | 54.887400 | 6.666134 | 2.0 | 8.826 | 2 | 35.619 | 8.996 | 33.401 | 2 |
| 2025-04-18T19:26:00 | 54.886683 | 6.668136 | 2.0 | 8.827 | 2 | 35.574 | 8.996 | 33.354 | 2 |
| 2025-04-18T19:27:00 | 54.885992 | 6.670158 | 2.0 | 8.822 | 2 | 35.637 | 8.997 | 33.419 | 2 |
| 2025-04-18T19:28:00 | 54.885328 | 6.672206 | 2.0 | 8.809 | 2 | 35.654 | 8.990 | 33.443 | 2 |
| 2025-04-18T19:29:00 | 54.884685 | 6.674278 | 2.0 | 8.793 | 2 | 35.583 | 8.976 | 33.382 | 2 |
| 2025-04-18T19:30:00 | 54.884014 | 6.676330 | 2.0 | 8.779 | 2 | 35.581 | 8.962 | 33.393 | 2 |
| 2025-04-18T19:31:00 | 54.883692 | 6.678410 | 2.0 | 8.766 | 2 | 35.502 | 8.947 | 33.325 | 2 |
| 2025-04-18T19:32:00 | 54.883687 | 6.680273 | 2.0 | 8.755 | 2 | 35.608 | 8.933 | 33.449 | 2 |
| 2025-04-18T19:33:00 | 54.882737 | 6.680609 | 2.0 | 8.752 | 2 | 35.580 | 8.923 | 33.429 | 2 |
| 2025-04-18T19:34:00 | 54.882371 | 6.678931 | 2.0 | 8.758 | 2 | 35.550 | 8.923 | 33.397 | 2 |
| 2025-04-18T19:35:00 | 54.882803 | 6.676793 | 2.0 | 8.766 | 2 | 35.617 | 8.929 | 33.462 | 2 |
| 2025-04-18T19:36:00 | 54.883427 | 6.674605 | 2.0 | 8.773 | 2 | 35.656 | 8.937 | 33.495 | 2 |
| 2025-04-18T19:37:00 | 54.884081 | 6.672495 | 2.0 | 8.786 | 2 | 35.661 | 8.945 | 33.493 | 2 |
| 2025-04-18T19:38:00 | 54.884672 | 6.670428 | 2.0 | 8.798 | 2 | 35.705 | 8.958 | 33.526 | 2 |
| 2025-04-18T19:39:00 | 54.885278 | 6.668483 | 2.0 | 8.801 | 2 | 35.703 | 8.967 | 33.516 | 2 |
| 2025-04-18T19:40:00 | 54.885938 | 6.666650 | 2.0 | 8.818 | 2 | 35.701 | 8.973 | 33.508 | 2 |
| 2025-04-18T19:41:00 | 54.886625 | 6.664849 | 2.0 | 8.826 | 2 | 35.697 | 8.988 | 33.490 | 2 |
| 2025-04-18T19:42:00 | 54.887308 | 6.663060 | 2.0 | 8.826 | 2 | 35.694 | 8.995 | 33.480 | 2 |
| 2025-04-18T19:43:00 | 54.887985 | 6.661284 | 2.0 | 8.827 | 2 | 35.690 | 8.996 | 33.475 | 2 |
| 2025-04-18T19:44:00 | 54.888606 | 6.659438 | 2.0 | 8.826 | 2 | 35.685 | 8.996 | 33.470 | 2 |
| 2025-04-18T19:45:00 | 54.889211 | 6.657544 | 2.0 | 8.822 | 2 | 35.680 | 8.995 | 33.465 | 2 |
| 2025-04-18T19:46:00 | 54.889864 | 6.655676 | 2.0 | 8.819 | 2 | 35.673 | 8.992 | 33.461 | 2 |
| 2025-04-18T19:47:00 | 54.890518 | 6.653793 | 2.0 | 8.810 | 2 | 35.664 | 8.987 | 33.456 | 2 |
| 2025-04-18T19:48:00 | 54.891165 | 6.651900 | 2.0 | 8.801 | 2 | 35.649 | 8.977 | 33.450 | 2 |
| 2025-04-18T19:49:00 | 54.891779 | 6.649983 | 2.0 | 8.797 | 2 | 35.635 | 8.970 | 33.442 | 2 |
| 2025-04-18T19:50:00 | 54.892409 | 6.648070 | 2.0 | 8.799 | 2 | 35.623 | 8.968 | 33.431 | 2 |
| 2025-04-18T19:51:00 | 54.893056 | 6.646159 | 2.0 | 8.804 | 2 | 35.619 | 8.970 | 33.425 | 2 |
| 2025-04-18T19:52:00 | 54.893687 | 6.644209 | 2.0 | 8.806 | 2 | 35.617 | 8.974 | 33.419 | 2 |
| 2025-04-18T19:53:00 | 54.894312 | 6.642265 | 2.0 | 8.806 | 2 | 35.616 | 8.975 | 33.417 | 2 |
| 2025-04-18T19:54:00 | 54.894945 | 6.640334 | 2.0 | 8.806 | 2 | 35.616 | 8.975 | 33.417 | 2 |
| 2025-04-18T19:55:00 | 54.895556 | 6.638390 | 2.0 | 8.812 | 2 | 35.618 | 8.977 | 33.418 | 2 |
| 2025-04-18T19:56:00 | 54.896183 | 6.636452 | 2.0 | 8.810 | 2 | 35.623 | 8.981 | 33.419 | 2 |
| 2025-04-18T19:57:00 | 54.896825 | 6.634542 | 2.0 | 8.812 | 2 | 35.627 | 8.979 | 33.425 | 2 |
| 2025-04-18T19:58:00 | 54.897479 | 6.632632 | 2.0 | 8.816 | 2 | 35.632 | 8.982 | 33.427 | 2 |
| 2025-04-18T19:59:00 | 54.898153 | 6.630759 | 2.0 | 8.823 | 2 | 35.641 | 8.986 | 33.433 | 2 |
| 2025-04-18T20:00:00 | 54.898817 | 6.628899 | 2.0 | 8.830 | 2 | 35.653 | 8.993 | 33.439 | 2 |
| 2025-04-18T20:01:00 | 54.899488 | 6.627021 | 2.0 | 8.844 | 2 | 35.673 | 9.001 | 33.452 | 2 |
| 2025-04-18T20:02:00 | 54.900146 | 6.625109 | 2.0 | 8.869 | 2 | 35.703 | 9.017 | 33.469 | 2 |
| 2025-04-18T20:03:00 | 54.900793 | 6.623191 | 2.0 | 8.855 | 2 | 35.742 | 9.039 | 33.488 | 2 |
| 2025-04-18T20:04:00 | 54.901468 | 6.621316 | 2.0 | 8.810 | 2 | 35.752 | 9.015 | 33.521 | 2 |
| 2025-04-18T20:05:00 | 54.902104 | 6.619396 | 2.0 | 8.780 | 2 | 35.722 | 8.974 | 33.529 | 2 |
| 2025-04-18T20:06:00 | 54.902714 | 6.617446 | 2.0 | 8.760 | 2 | 35.711 | 8.950 | 33.540 | 2 |
| 2025-04-18T20:07:00 | 54.903378 | 6.615538 | 2.0 | 8.756 | 2 | 35.721 | 8.932 | 33.568 | 2 |
| 2025-04-18T20:08:00 | 54.904022 | 6.613627 | 2.0 | 8.749 | 2 | 35.723 | 8.925 | 33.576 | 2 |
| 2025-04-18T20:09:00 | 54.904656 | 6.611718 | 2.0 | 8.740 | 2 | 35.725 | 8.920 | 33.583 | 2 |
| 2025-04-18T20:10:00 | 54.905304 | 6.609822 | 2.0 | 8.734 | 2 | 35.752 | 8.908 | 33.623 | 2 |
| 2025-04-18T20:11:00 | 54.905924 | 6.607922 | 2.0 | 8.744 | 2 | 35.776 | 8.906 | 33.650 | 2 |
| 2025-04-18T20:12:00 | 54.906528 | 6.606018 | 2.0 | 8.824 | 2 | 35.831 | 8.929 | 33.685 | 2 |
| 2025-04-18T20:13:00 | 54.907159 | 6.604127 | 2.0 | 8.899 | 2 | 35.809 | 8.992 | 33.603 | 2 |
| 2025-04-18T20:14:00 | 54.907788 | 6.602217 | 2.0 | 8.901 | 2 | 35.987 | 9.063 | 33.721 | 2 |
| 2025-04-18T20:15:00 | 54.908413 | 6.600288 | 2.0 | 8.893 | 2 | 35.549 | 9.070 | 33.258 | 2 |
| 2025-04-18T20:16:00 | 54.909051 | 6.598371 | 2.0 | 8.860 | 2 | 36.165 | 9.054 | 33.915 | 2 |
| 2025-04-18T20:17:00 | 54.909705 | 6.596477 | 2.0 | 8.819 | 2 | 35.741 | 9.021 | 33.504 | 2 |
| 2025-04-18T20:18:00 | 54.910369 | 6.594618 | 2.0 | 8.822 | 2 | 36.116 | 8.991 | 33.924 | 2 |
| 2025-04-18T20:19:00 | 54.911018 | 6.592749 | 2.0 | 8.815 | 2 | 36.135 | 8.992 | 33.943 | 2 |
| 2025-04-18T20:20:00 | 54.911678 | 6.590880 | 2.0 | 8.805 | 2 | 36.131 | 8.984 | 33.947 | 2 |
| 2025-04-18T20:21:00 | 54.912334 | 6.589011 | 2.0 | 8.788 | 2 | 35.866 | 8.971 | 33.682 | 2 |
| 2025-04-18T20:22:00 | 54.912985 | 6.587146 | 2.0 | 8.773 | 2 | 35.807 | 8.957 | 33.634 | 2 |
| 2025-04-18T20:23:00 | 54.913604 | 6.585269 | 2.0 | 8.770 | 2 | 35.461 | 8.943 | 33.286 | 2 |
| 2025-04-18T20:24:00 | 54.914243 | 6.583413 | 2.0 | 8.764 | 2 | 36.096 | 8.939 | 33.953 | 2 |
| 2025-04-18T20:25:00 | 54.914892 | 6.581572 | 2.0 | 8.752 | 2 | 35.706 | 8.932 | 33.552 | 2 |
| 2025-04-18T20:26:00 | 54.915156 | 6.579243 | 2.0 | 8.756 | 2 | 35.927 | 8.923 | 33.791 | 2 |
| 2025-04-18T20:27:00 | 54.914428 | 6.576870 | 2.0 | 8.770 | 2 | 35.853 | 8.929 | 33.708 | 2 |
| 2025-04-18T20:28:00 | 54.912846 | 6.576122 | 2.0 | 8.780 | 2 | 35.575 | 8.941 | 33.407 | 2 |
| 2025-04-18T20:29:00 | 54.911594 | 6.577820 | 2.0 | 8.791 | 2 | 35.658 | 8.950 | 33.485 | 2 |
| 2025-04-18T20:30:00 | 54.910543 | 6.580469 | 2.0 | 8.808 | 2 | 35.590 | 8.962 | 33.402 | 2 |
| 2025-04-18T20:31:00 | 54.908983 | 6.582816 | 2.0 | 8.825 | 2 | 35.833 | 8.978 | 33.641 | 2 |
| 2025-04-18T20:32:00 | 54.907154 | 6.584837 | 2.0 | 8.816 | 2 | 35.917 | 8.994 | 33.713 | 2 |
| 2025-04-18T20:33:00 | 54.905324 | 6.586968 | 2.0 | 8.813 | 2 | 35.661 | 8.983 | 33.457 | 2 |
| 2025-04-18T20:34:00 | 54.903510 | 6.589155 | 2.0 | 8.799 | 2 | 35.858 | 8.991 | 33.655 | 2 |
| 2025-04-18T20:35:00 | 54.901656 | 6.591278 | 2.0 | 8.737 | 2 | 35.458 | 8.948 | 33.278 | 2 |
| 2025-04-18T20:36:00 | 54.899835 | 6.593487 | 2.0 | 8.747 | 2 | 35.517 | 8.910 | 33.375 | 2 |
| 2025-04-18T20:37:00 | 54.897994 | 6.595666 | 2.0 | 8.751 | 2 | 35.537 | 8.919 | 33.388 | 2 |
| 2025-04-18T20:38:00 | 54.896135 | 6.597819 | 2.0 | 8.773 | 2 | 35.255 | 8.924 | 33.089 | 2 |
| 2025-04-18T20:39:00 | 54.894270 | 6.599955 | 2.0 | 8.796 | 2 | 35.525 | 8.948 | 33.348 | 2 |
| 2025-04-18T20:40:00 | 54.892434 | 6.602186 | 2.0 | 8.800 | 2 | 35.636 | 8.965 | 33.448 | 2 |
| 2025-04-18T20:41:00 | 54.890583 | 6.604383 | 2.0 | 8.805 | 2 | 35.663 | 8.967 | 33.474 | 2 |
| 2025-04-18T20:42:00 | 54.888708 | 6.606524 | 2.0 | 8.821 | 2 | 35.488 | 8.981 | 33.278 | 2 |
| 2025-04-18T20:43:00 | 54.886840 | 6.608678 | 2.0 | 8.786 | 2 | 35.535 | 8.981 | 33.327 | 2 |
| 2025-04-18T20:44:00 | 54.885007 | 6.610877 | 2.0 | 8.768 | 2 | 35.461 | 8.954 | 33.275 | 2 |
| 2025-04-18T20:45:00 | 54.883273 | 6.612970 | 2.0 | 8.770 | 2 | 35.552 | 8.940 | 33.383 | 2 |
| 2025-04-18T20:46:00 | 54.881693 | 6.614825 | 2.0 | 8.775 | 2 | 35.578 | 8.941 | 33.410 | 2 |
| 2025-04-18T20:47:00 | 54.880415 | 6.616740 | 2.0 | 8.769 | 2 | 35.473 | 8.943 | 33.298 | 2 |
| 2025-04-18T20:48:00 | 54.879725 | 6.619011 | 2.0 | 8.757 | 2 | 35.496 | 8.936 | 33.329 | 2 |
| 2025-04-18T20:49:00 | 54.879472 | 6.621266 | 2.0 | 8.754 | 2 | 35.564 | 8.926 | 33.409 | 2 |
| 2025-04-18T20:50:00 | 54.879460 | 6.623422 | 2.0 | 8.752 | 2 | 35.471 | 8.922 | 33.316 | 2 |
| 2025-04-18T20:51:00 | 54.879667 | 6.625443 | 2.0 | 8.751 | 2 | 35.387 | 8.920 | 33.230 | 2 |
| 2025-04-18T20:52:00 | 54.880078 | 6.627283 | 2.0 | 8.753 | 2 | 35.414 | 8.920 | 33.258 | 2 |
| 2025-04-18T20:53:00 | 54.880596 | 6.628968 | 2.0 | 8.752 | 2 | 35.468 | 8.922 | 33.313 | 2 |
| 2025-04-18T20:54:00 | 54.881204 | 6.630481 | 2.0 | 8.750 | 2 | 35.555 | 8.919 | 33.406 | 2 |
| 2025-04-18T20:55:00 | 54.881886 | 6.631833 | 2.0 | 8.755 | 2 | 35.550 | 8.921 | 33.399 | 2 |
| 2025-04-18T20:56:00 | 54.882647 | 6.632949 | 2.0 | 8.758 | 2 | 35.470 | 8.924 | 33.313 | 2 |
| 2025-04-18T20:57:00 | 54.883455 | 6.633802 | 2.0 | 8.762 | 2 | 35.483 | 8.927 | 33.324 | 2 |
| 2025-04-18T20:58:00 | 54.884310 | 6.634975 | 2.0 | 8.769 | 2 | 35.458 | 8.930 | 33.295 | 2 |
| 2025-04-18T20:59:00 | 54.885301 | 6.636335 | 2.0 | 8.775 | 2 | 35.460 | 8.937 | 33.290 | 2 |
| 2025-04-18T21:00:00 | 54.886480 | 6.637711 | 2.0 | 8.774 | 2 | 35.482 | 8.942 | 33.309 | 2 |
| 2025-04-18T21:01:00 | 54.887749 | 6.638895 | 2.0 | 8.773 | 2 | 35.434 | 8.942 | 33.258 | 2 |
| 2025-04-18T21:02:00 | 54.889017 | 6.639996 | 2.0 | 8.776 | 2 | 35.458 | 8.941 | 33.284 | 2 |
| 2025-04-18T21:03:00 | 54.890262 | 6.641130 | 2.0 | 8.781 | 2 | 35.441 | 8.945 | 33.263 | 2 |
| 2025-04-18T21:04:00 | 54.891500 | 6.642282 | 2.0 | 8.782 | 2 | 35.496 | 8.950 | 33.316 | 2 |
| 2025-04-18T21:05:00 | 54.892737 | 6.643452 | 2.0 | 8.785 | 2 | 35.491 | 8.951 | 33.309 | 2 |
| 2025-04-18T21:06:00 | 54.893965 | 6.644636 | 2.0 | 8.799 | 2 | 35.530 | 8.956 | 33.345 | 2 |
| 2025-04-18T21:07:00 | 54.895202 | 6.645763 | 2.0 | 8.805 | 2 | 35.483 | 8.968 | 33.285 | 2 |
| 2025-04-18T21:08:00 | 54.896446 | 6.646849 | 2.0 | 8.803 | 2 | 35.570 | 8.973 | 33.371 | 2 |
| 2025-04-18T21:09:00 | 54.897664 | 6.647985 | 2.0 | 8.793 | 2 | 35.552 | 8.969 | 33.356 | 2 |
| 2025-04-18T21:10:00 | 54.898875 | 6.649122 | 2.0 | 8.782 | 2 | 35.548 | 8.959 | 33.361 | 2 |
| 2025-04-18T21:11:00 | 54.900103 | 6.650224 | 2.0 | 8.777 | 2 | 35.573 | 8.949 | 33.397 | 2 |
| 2025-04-18T21:12:00 | 54.901327 | 6.651381 | 2.0 | 8.781 | 2 | 35.535 | 8.947 | 33.359 | 2 |
| 2025-04-18T21:13:00 | 54.902529 | 6.652604 | 2.0 | 8.782 | 2 | 35.598 | 8.950 | 33.422 | 2 |
| 2025-04-18T21:14:00 | 54.903677 | 6.653949 | 2.0 | 8.781 | 2 | 35.590 | 8.950 | 33.414 | 2 |
| 2025-04-18T21:15:00 | 54.904346 | 6.656137 | 2.0 | 8.779 | 2 | 35.597 | 8.949 | 33.422 | 2 |
| 2025-04-18T21:16:00 | 54.904814 | 6.658410 | 2.0 | 8.768 | 2 | 35.621 | 8.944 | 33.452 | 2 |
| 2025-04-18T21:17:00 | 54.905584 | 6.658282 | 2.0 | 8.771 | 2 | 35.641 | 8.934 | 33.482 | 2 |
| 2025-04-18T21:18:00 | 54.905362 | 6.656624 | 2.0 | 8.780 | 2 | 35.651 | 8.940 | 33.487 | 2 |
| 2025-04-18T21:19:00 | 54.904570 | 6.654407 | 2.0 | 8.782 | 2 | 35.645 | 8.950 | 33.471 | 2 |
| 2025-04-18T21:20:00 | 54.903872 | 6.652166 | 2.0 | 8.783 | 2 | 35.640 | 8.951 | 33.465 | 2 |
| 2025-04-18T21:21:00 | 54.902745 | 6.650778 | 2.0 | 8.782 | 2 | 35.633 | 8.952 | 33.457 | 2 |
| 2025-04-18T21:22:00 | 54.901492 | 6.649679 | 2.0 | 8.782 | 2 | 35.630 | 8.952 | 33.454 | 2 |
| 2025-04-18T21:23:00 | 54.900278 | 6.648507 | 2.0 | 8.783 | 2 | 35.630 | 8.952 | 33.454 | 2 |
| 2025-04-18T21:24:00 | 54.899067 | 6.647348 | 2.0 | 8.789 | 2 | 35.629 | 8.953 | 33.452 | 2 |
| 2025-04-18T21:25:00 | 54.897836 | 6.646247 | 2.0 | 8.794 | 2 | 35.629 | 8.959 | 33.446 | 2 |
| 2025-04-18T21:26:00 | 54.896582 | 6.645174 | 2.0 | 8.795 | 2 | 35.627 | 8.963 | 33.440 | 2 |
| 2025-04-18T21:27:00 | 54.895343 | 6.644057 | 2.0 | 8.793 | 2 | 35.624 | 8.963 | 33.437 | 2 |
| 2025-04-18T21:28:00 | 54.894133 | 6.642879 | 2.0 | 8.788 | 2 | 35.618 | 8.961 | 33.433 | 2 |
| 2025-04-18T21:29:00 | 54.892932 | 6.641682 | 2.0 | 8.778 | 2 | 35.611 | 8.955 | 33.431 | 2 |
| 2025-04-18T21:30:00 | 54.891727 | 6.640509 | 2.0 | 8.772 | 2 | 35.599 | 8.945 | 33.428 | 2 |
| 2025-04-18T21:31:00 | 54.890517 | 6.639380 | 2.0 | 8.770 | 2 | 35.596 | 8.941 | 33.428 | 2 |
| 2025-04-18T21:32:00 | 54.889303 | 6.638271 | 2.0 | 8.765 | 2 | 35.598 | 8.939 | 33.432 | 2 |
| 2025-04-18T21:33:00 | 54.888091 | 6.637169 | 2.0 | 8.762 | 2 | 35.597 | 8.934 | 33.436 | 2 |
| 2025-04-18T21:34:00 | 54.886847 | 6.636260 | 2.0 | 8.760 | 2 | 35.597 | 8.932 | 33.438 | 2 |
| 2025-04-18T21:35:00 | 54.885506 | 6.635768 | 2.0 | 8.762 | 2 | 35.600 | 8.930 | 33.443 | 2 |
| 2025-04-18T21:36:00 | 54.884515 | 6.634410 | 2.0 | 8.762 | 2 | 35.604 | 8.930 | 33.447 | 2 |
| 2025-04-18T21:37:00 | 54.884627 | 6.632580 | 2.0 | 8.760 | 2 | 35.606 | 8.929 | 33.450 | 2 |
| 2025-04-18T21:38:00 | 54.885588 | 6.632144 | 2.0 | 8.762 | 2 | 35.606 | 8.928 | 33.451 | 2 |
| 2025-04-18T21:39:00 | 54.886614 | 6.633340 | 2.0 | 8.765 | 2 | 35.602 | 8.933 | 33.442 | 2 |
| 2025-04-18T21:40:00 | 54.887702 | 6.634385 | 2.0 | 8.762 | 2 | 35.599 | 8.932 | 33.440 | 2 |
| 2025-04-18T21:41:00 | 54.888855 | 6.635592 | 2.0 | 8.765 | 2 | 35.417 | 8.932 | 33.250 | 2 |
| 2025-04-18T21:42:00 | 54.890010 | 6.636677 | 2.0 | 8.766 | 2 | 35.591 | 8.935 | 33.429 | 2 |
| 2025-04-18T21:43:00 | 54.891127 | 6.637761 | 2.0 | 8.770 | 2 | 35.589 | 8.936 | 33.426 | 2 |
| 2025-04-18T21:44:00 | 54.892232 | 6.638860 | 2.0 | 8.771 | 2 | 35.586 | 8.938 | 33.421 | 2 |
| 2025-04-18T21:45:00 | 54.893454 | 6.640100 | 2.0 | 8.771 | 2 | 35.290 | 8.939 | 33.111 | 2 |
| 2025-04-18T21:46:00 | 54.894722 | 6.641432 | 2.0 | 8.776 | 2 | 35.586 | 8.940 | 33.419 | 2 |
| 2025-04-18T21:47:00 | 54.896018 | 6.642747 | 2.0 | 8.782 | 2 | 35.289 | 8.945 | 33.104 | 2 |
| 2025-04-18T21:48:00 | 54.897329 | 6.644009 | 2.0 | 8.784 | 2 | 35.594 | 8.950 | 33.418 | 2 |
| 2025-04-18T21:49:00 | 54.898567 | 6.645210 | 2.0 | 8.787 | 2 | 35.575 | 8.953 | 33.395 | 2 |
| 2025-04-18T21:50:00 | 54.899747 | 6.646280 | 2.0 | 8.787 | 2 | 35.606 | 8.955 | 33.426 | 2 |
| 2025-04-18T21:51:00 | 54.900884 | 6.647332 | 2.0 | 8.786 | 2 | 35.606 | 8.955 | 33.426 | 2 |
| 2025-04-18T21:52:00 | 54.902067 | 6.648419 | 2.0 | 8.783 | 2 | 35.138 | 8.954 | 32.939 | 2 |
| 2025-04-18T21:53:00 | 54.903284 | 6.649572 | 2.0 | 8.782 | 2 | 35.604 | 8.951 | 33.427 | 2 |
| 2025-04-18T21:54:00 | 54.904489 | 6.650853 | 2.0 | 8.783 | 2 | 35.219 | 8.951 | 33.026 | 2 |
| 2025-04-18T21:55:00 | 54.905558 | 6.652558 | 2.0 | 8.781 | 2 | 35.247 | 8.951 | 33.055 | 2 |
| 2025-04-18T21:56:00 | 54.906629 | 6.653091 | 2.0 | 8.784 | 2 | 35.072 | 8.949 | 32.875 | 2 |
| 2025-04-18T21:57:00 | 54.907046 | 6.651696 | 2.0 | 8.790 | 2 | 35.256 | 8.952 | 33.064 | 2 |
| 2025-04-18T21:58:00 | 54.906344 | 6.650098 | 2.0 | 8.792 | 2 | 35.358 | 8.958 | 33.164 | 2 |
| 2025-04-18T21:59:00 | 54.905110 | 6.648945 | 2.0 | 8.792 | 2 | 35.277 | 8.960 | 33.078 | 2 |
| 2025-04-18T22:00:00 | 54.903815 | 6.647656 | 2.0 | 8.793 | 2 | 35.358 | 8.961 | 33.161 | 2 |
| 2025-04-18T22:01:00 | 54.902529 | 6.646422 | 2.0 | 8.794 | 2 | 35.056 | 8.961 | 32.847 | 2 |
| 2025-04-18T22:02:00 | 54.901243 | 6.645239 | 2.0 | 8.793 | 2 | 35.361 | 8.962 | 33.164 | 2 |
| 2025-04-18T22:03:00 | 54.900009 | 6.643999 | 2.0 | 8.788 | 2 | 35.239 | 8.961 | 33.037 | 2 |
| 2025-04-18T22:04:00 | 54.898757 | 6.642963 | 2.0 | 8.784 | 2 | 35.586 | 8.956 | 33.404 | 2 |
| 2025-04-18T22:05:00 | 54.897532 | 6.641942 | 2.0 | 8.781 | 2 | 35.367 | 8.952 | 33.179 | 2 |
| 2025-04-18T22:06:00 | 54.896360 | 6.640789 | 2.0 | 8.777 | 2 | 35.154 | 8.949 | 32.960 | 2 |
| 2025-04-18T22:07:00 | 54.895124 | 6.639652 | 2.0 | 8.769 | 2 | 35.331 | 8.945 | 33.148 | 2 |
| 2025-04-18T22:08:00 | 54.893829 | 6.638558 | 2.0 | 8.765 | 2 | 35.347 | 8.938 | 33.171 | 2 |
| 2025-04-18T22:09:00 | 54.892592 | 6.637396 | 2.0 | 8.769 | 2 | 35.500 | 8.936 | 33.333 | 2 |
| 2025-04-18T22:10:00 | 54.891377 | 6.636260 | 2.0 | 8.769 | 2 | 35.505 | 8.938 | 33.336 | 2 |
| 2025-04-18T22:11:00 | 54.890155 | 6.635186 | 2.0 | 8.771 | 2 | 35.357 | 8.938 | 33.182 | 2 |
| 2025-04-18T22:12:00 | 54.888903 | 6.634207 | 2.0 | 8.767 | 2 | 35.362 | 8.939 | 33.186 | 2 |
| 2025-04-18T22:13:00 | 54.887608 | 6.633407 | 2.0 | 8.760 | 2 | 35.357 | 8.935 | 33.185 | 2 |
| 2025-04-18T22:14:00 | 54.886359 | 6.632593 | 2.0 | 8.752 | 2 | 35.397 | 8.927 | 33.234 | 2 |
| 2025-04-18T22:15:00 | 54.885918 | 6.630951 | 2.0 | 8.752 | 2 | 35.386 | 8.919 | 33.230 | 2 |
| 2025-04-18T22:16:00 | 54.886478 | 6.629896 | 2.0 | 8.755 | 2 | 35.353 | 8.920 | 33.195 | 2 |
| 2025-04-18T22:17:00 | 54.887419 | 6.630576 | 2.0 | 8.758 | 2 | 35.417 | 8.923 | 33.259 | 2 |
| 2025-04-18T22:18:00 | 54.888571 | 6.631652 | 2.0 | 8.764 | 2 | 35.422 | 8.927 | 33.260 | 2 |
| 2025-04-18T22:19:00 | 54.889873 | 6.632642 | 2.0 | 8.772 | 2 | 35.328 | 8.934 | 33.155 | 2 |
| 2025-04-18T22:20:00 | 54.891134 | 6.633833 | 2.0 | 8.774 | 2 | 35.370 | 8.941 | 33.193 | 2 |
| 2025-04-18T22:21:00 | 54.892389 | 6.635016 | 2.0 | 8.774 | 2 | 35.448 | 8.943 | 33.272 | 2 |
| 2025-04-18T22:22:00 | 54.893642 | 6.636170 | 2.0 | 8.774 | 2 | 35.342 | 8.942 | 33.162 | 2 |
| 2025-04-18T22:23:00 | 54.894879 | 6.637384 | 2.0 | 8.774 | 2 | 35.464 | 8.943 | 33.289 | 2 |
| 2025-04-18T22:24:00 | 54.896116 | 6.638598 | 2.0 | 8.776 | 2 | 35.400 | 8.943 | 33.222 | 2 |
| 2025-04-18T22:25:00 | 54.897351 | 6.639829 | 2.0 | 8.778 | 2 | 35.448 | 8.944 | 33.271 | 2 |
| 2025-04-18T22:26:00 | 54.898583 | 6.641104 | 2.0 | 8.776 | 2 | 35.378 | 8.946 | 33.196 | 2 |
| 2025-04-18T22:27:00 | 54.899822 | 6.642298 | 2.0 | 8.777 | 2 | 35.386 | 8.945 | 33.206 | 2 |
| 2025-04-18T22:28:00 | 54.901062 | 6.643399 | 2.0 | 8.779 | 2 | 35.425 | 8.946 | 33.245 | 2 |
| 2025-04-18T22:29:00 | 54.902248 | 6.644654 | 2.0 | 8.780 | 2 | 35.414 | 8.947 | 33.233 | 2 |
| 2025-04-18T22:30:00 | 54.903428 | 6.645855 | 2.0 | 8.781 | 2 | 35.512 | 8.948 | 33.334 | 2 |
| 2025-04-18T22:31:00 | 54.904654 | 6.646904 | 2.0 | 8.784 | 2 | 35.362 | 8.950 | 33.176 | 2 |
| 2025-04-18T22:32:00 | 54.905800 | 6.648360 | 2.0 | 8.785 | 2 | 35.371 | 8.953 | 33.182 | 2 |
| 2025-04-18T22:33:00 | 54.906799 | 6.649961 | 2.0 | 8.785 | 2 | 35.388 | 8.953 | 33.200 | 2 |
| 2025-04-18T22:34:00 | 54.907663 | 6.649488 | 2.0 | 8.788 | 2 | 35.358 | 8.952 | 33.170 | 2 |
| 2025-04-18T22:35:00 | 54.907525 | 6.647755 | 2.0 | 8.786 | 2 | 35.381 | 8.954 | 33.192 | 2 |
| 2025-04-18T22:36:00 | 54.906391 | 6.646407 | 2.0 | 8.781 | 2 | 35.439 | 8.954 | 33.252 | 2 |
| 2025-04-18T22:37:00 | 54.905024 | 6.645186 | 2.0 | 8.777 | 2 | 35.413 | 8.950 | 33.229 | 2 |
| 2025-04-18T22:38:00 | 54.903683 | 6.643799 | 2.0 | 8.773 | 2 | 35.424 | 8.945 | 33.245 | 2 |
| 2025-04-18T22:39:00 | 54.902346 | 6.642595 | 2.0 | 8.772 | 2 | 35.480 | 8.942 | 33.306 | 2 |
| 2025-04-18T22:40:00 | 54.901085 | 6.641350 | 2.0 | 8.769 | 2 | 35.530 | 8.941 | 33.360 | 2 |
| 2025-04-18T22:41:00 | 54.899843 | 6.640161 | 2.0 | 8.769 | 2 | 35.485 | 8.938 | 33.315 | 2 |
| 2025-04-18T22:42:00 | 54.898567 | 6.639132 | 2.0 | 8.771 | 2 | 35.501 | 8.938 | 33.332 | 2 |
| 2025-04-18T22:43:00 | 54.897339 | 6.638027 | 2.0 | 8.775 | 2 | 35.525 | 8.940 | 33.355 | 2 |
| 2025-04-18T22:44:00 | 54.896158 | 6.636872 | 2.0 | 8.776 | 2 | 35.523 | 8.943 | 33.350 | 2 |
| 2025-04-18T22:45:00 | 54.894953 | 6.635765 | 2.0 | 8.779 | 2 | 35.474 | 8.945 | 33.297 | 2 |
| 2025-04-18T22:46:00 | 54.893744 | 6.634671 | 2.0 | 8.775 | 2 | 35.539 | 8.947 | 33.363 | 2 |
| 2025-04-18T22:47:00 | 54.892516 | 6.633614 | 2.0 | 8.769 | 2 | 35.577 | 8.943 | 33.407 | 2 |
| 2025-04-18T22:48:00 | 54.891300 | 6.632539 | 2.0 | 8.766 | 2 | 35.528 | 8.938 | 33.360 | 2 |
| 2025-04-18T22:49:00 | 54.890152 | 6.631309 | 2.0 | 8.762 | 2 | 35.609 | 8.934 | 33.449 | 2 |
| 2025-04-18T22:50:00 | 54.888911 | 6.630237 | 2.0 | 8.758 | 2 | 35.606 | 8.930 | 33.449 | 2 |
| 2025-04-18T22:51:00 | 54.887486 | 6.629676 | 2.0 | 8.755 | 2 | 35.601 | 8.926 | 33.448 | 2 |
| 2025-04-18T22:52:00 | 54.886566 | 6.628290 | 2.0 | 8.753 | 2 | 35.598 | 8.921 | 33.449 | 2 |
| 2025-04-18T22:53:00 | 54.886814 | 6.626886 | 2.0 | 8.758 | 2 | 35.602 | 8.921 | 33.454 | 2 |
| 2025-04-18T22:54:00 | 54.887684 | 6.626913 | 2.0 | 8.763 | 2 | 35.610 | 8.926 | 33.457 | 2 |
| 2025-04-18T22:55:00 | 54.888621 | 6.627984 | 2.0 | 8.761 | 2 | 35.614 | 8.931 | 33.457 | 2 |
| 2025-04-18T22:56:00 | 54.889628 | 6.628837 | 2.0 | 8.761 | 2 | 35.611 | 8.928 | 33.456 | 2 |
| 2025-04-18T22:57:00 | 54.890733 | 6.629689 | 2.0 | 8.766 | 2 | 35.614 | 8.929 | 33.459 | 2 |
| 2025-04-18T22:58:00 | 54.891915 | 6.630695 | 2.0 | 8.776 | 2 | 35.624 | 8.936 | 33.462 | 2 |
| 2025-04-18T22:59:00 | 54.893165 | 6.631862 | 2.0 | 8.785 | 2 | 35.637 | 8.944 | 33.468 | 2 |
| 2025-04-18T23:00:00 | 54.894463 | 6.633106 | 2.0 | 8.788 | 2 | 35.651 | 8.953 | 33.475 | 2 |
| 2025-04-18T23:01:00 | 54.895718 | 6.634394 | 2.0 | 8.788 | 2 | 35.654 | 8.956 | 33.475 | 2 |
| 2025-04-18T23:02:00 | 54.896934 | 6.635582 | 2.0 | 8.785 | 2 | 35.651 | 8.955 | 33.473 | 2 |
| 2025-04-18T23:03:00 | 54.898125 | 6.636751 | 2.0 | 8.786 | 2 | 35.651 | 8.953 | 33.475 | 2 |
| 2025-04-18T23:04:00 | 54.899300 | 6.637914 | 2.0 | 8.784 | 2 | 35.648 | 8.953 | 33.471 | 2 |
| 2025-04-18T23:05:00 | 54.900477 | 6.639063 | 2.0 | 8.782 | 2 | 35.639 | 8.951 | 33.464 | 2 |
| 2025-04-18T23:06:00 | 54.901708 | 6.640276 | 2.0 | 8.781 | 2 | 35.641 | 8.949 | 33.468 | 2 |
| 2025-04-18T23:07:00 | 54.902969 | 6.641481 | 2.0 | 8.784 | 2 | 35.644 | 8.950 | 33.470 | 2 |
| 2025-04-18T23:08:00 | 54.904222 | 6.642626 | 2.0 | 8.787 | 2 | 35.657 | 8.952 | 33.482 | 2 |
| 2025-04-18T23:09:00 | 54.905461 | 6.643729 | 2.0 | 8.788 | 2 | 35.661 | 8.954 | 33.484 | 2 |
| 2025-04-18T23:10:00 | 54.906616 | 6.645120 | 2.0 | 8.783 | 2 | 35.658 | 8.954 | 33.481 | 2 |
| 2025-04-18T23:11:00 | 54.907679 | 6.646851 | 2.0 | 8.783 | 2 | 35.642 | 8.950 | 33.468 | 2 |
| 2025-04-18T23:12:00 | 54.908498 | 6.646433 | 2.0 | 8.788 | 2 | 35.633 | 8.950 | 33.459 | 2 |
| 2025-04-18T23:13:00 | 54.908236 | 6.644864 | 2.0 | 8.803 | 2 | 35.653 | 8.958 | 33.472 | 2 |
| 2025-04-18T23:14:00 | 54.907159 | 6.643438 | 2.0 | 8.810 | 2 | 35.072 | 8.970 | 32.855 | 2 |
| 2025-04-18T23:15:00 | 54.905835 | 6.642018 | 2.0 | 8.810 | 2 | 35.726 | 8.978 | 33.529 | 2 |
| 2025-04-18T23:16:00 | 54.904442 | 6.640638 | 2.0 | 8.804 | 2 | 35.745 | 8.977 | 33.550 | 2 |
| 2025-04-18T23:17:00 | 54.903044 | 6.639267 | 2.0 | 8.802 | 2 | 35.744 | 8.973 | 33.553 | 2 |
| 2025-04-18T23:18:00 | 54.901681 | 6.638036 | 2.0 | 8.794 | 2 | 35.740 | 8.969 | 33.552 | 2 |
| 2025-04-18T23:19:00 | 54.900379 | 6.636828 | 2.0 | 8.797 | 2 | 35.618 | 8.963 | 33.431 | 2 |
| 2025-04-18T23:20:00 | 54.899060 | 6.635731 | 2.0 | 8.793 | 2 | 35.724 | 8.964 | 33.540 | 2 |
| 2025-04-18T23:21:00 | 54.897800 | 6.634552 | 2.0 | 8.793 | 2 | 35.720 | 8.962 | 33.538 | 2 |
| 2025-04-18T23:22:00 | 54.896538 | 6.633416 | 2.0 | 8.777 | 2 | 35.714 | 8.958 | 33.536 | 2 |
| 2025-04-18T23:23:00 | 54.895286 | 6.632256 | 2.0 | 8.749 | 2 | 35.704 | 8.941 | 33.541 | 2 |
| 2025-04-18T23:24:00 | 54.894039 | 6.631093 | 2.0 | 8.736 | 2 | 35.636 | 8.919 | 33.491 | 2 |
| 2025-04-18T23:25:00 | 54.892792 | 6.629935 | 2.0 | 8.734 | 2 | 35.680 | 8.906 | 33.549 | 2 |
| 2025-04-18T23:26:00 | 54.891530 | 6.628806 | 2.0 | 8.754 | 2 | 35.082 | 8.906 | 32.925 | 2 |
| 2025-04-18T23:27:00 | 54.890261 | 6.627749 | 2.0 | 8.788 | 2 | 35.518 | 8.929 | 33.358 | 2 |
| 2025-04-18T23:28:00 | 54.888855 | 6.627280 | 2.0 | 8.799 | 2 | 35.707 | 8.958 | 33.528 | 2 |
| 2025-04-18T23:29:00 | 54.887800 | 6.626215 | 2.0 | 8.797 | 2 | 35.701 | 8.964 | 33.516 | 2 |
| 2025-04-18T23:30:00 | 54.887865 | 6.624844 | 2.0 | 8.795 | 2 | 35.056 | 8.964 | 32.844 | 2 |
| 2025-04-18T23:31:00 | 54.888771 | 6.624585 | 2.0 | 8.754 | 2 | 35.707 | 8.953 | 33.533 | 2 |
| 2025-04-18T23:32:00 | 54.889968 | 6.625354 | 2.0 | 8.732 | 2 | 35.369 | 8.921 | 33.210 | 2 |
| 2025-04-18T23:33:00 | 54.891201 | 6.626416 | 2.0 | 8.719 | 2 | 35.414 | 8.899 | 33.278 | 2 |
| 2025-04-18T23:34:00 | 54.892432 | 6.627402 | 2.0 | 8.727 | 2 | 35.301 | 8.888 | 33.170 | 2 |
| 2025-04-18T23:35:00 | 54.893655 | 6.628596 | 2.0 | 8.741 | 2 | 35.519 | 8.899 | 33.388 | 2 |
| 2025-04-18T23:36:00 | 54.894926 | 6.629618 | 2.0 | 8.745 | 2 | 35.466 | 8.910 | 33.322 | 2 |
| 2025-04-18T23:37:00 | 54.896143 | 6.631013 | 2.0 | 8.748 | 2 | 35.383 | 8.913 | 33.232 | 2 |
| 2025-04-18T23:38:00 | 54.897407 | 6.632181 | 2.0 | 8.758 | 2 | 35.609 | 8.917 | 33.465 | 2 |
| 2025-04-18T23:39:00 | 54.898687 | 6.633271 | 2.0 | 8.765 | 2 | 35.761 | 8.929 | 33.612 | 2 |
| 2025-04-18T23:40:00 | 54.899901 | 6.634599 | 2.0 | 8.770 | 2 | 35.524 | 8.933 | 33.361 | 2 |
| 2025-04-18T23:41:00 | 54.901112 | 6.635661 | 2.0 | 8.773 | 2 | 35.509 | 8.938 | 33.340 | 2 |
| 2025-04-18T23:42:00 | 54.902272 | 6.636811 | 2.0 | 8.782 | 2 | 35.793 | 8.942 | 33.633 | 2 |
| 2025-04-18T23:43:00 | 54.903432 | 6.637966 | 2.0 | 8.788 | 2 | 35.624 | 8.950 | 33.449 | 2 |
| 2025-04-18T23:44:00 | 54.904615 | 6.639026 | 2.0 | 8.790 | 2 | 35.529 | 8.955 | 33.345 | 2 |
| 2025-04-18T23:45:00 | 54.905857 | 6.640084 | 2.0 | 8.791 | 2 | 35.352 | 8.957 | 33.159 | 2 |
| 2025-04-18T23:46:00 | 54.907103 | 6.641373 | 2.0 | 8.788 | 2 | 35.786 | 8.959 | 33.610 | 2 |
| 2025-04-18T23:47:00 | 54.908114 | 6.643270 | 2.0 | 8.777 | 2 | 35.664 | 8.954 | 33.487 | 2 |
| 2025-04-18T23:48:00 | 54.909119 | 6.644038 | 2.0 | 8.777 | 2 | 35.499 | 8.943 | 33.325 | 2 |
| 2025-04-18T23:49:00 | 54.909385 | 6.642743 | 2.0 | 8.789 | 2 | 35.561 | 8.945 | 33.388 | 2 |
| 2025-04-18T23:50:00 | 54.908576 | 6.641064 | 2.0 | 8.808 | 2 | 35.683 | 8.959 | 33.502 | 2 |
| 2025-04-18T23:51:00 | 54.907321 | 6.639739 | 2.0 | 8.824 | 2 | 35.697 | 8.978 | 33.499 | 2 |
| 2025-04-18T23:52:00 | 54.906001 | 6.638353 | 2.0 | 8.835 | 2 | 35.651 | 8.992 | 33.438 | 2 |
| 2025-04-18T23:53:00 | 54.904669 | 6.637029 | 2.0 | 8.851 | 2 | 35.614 | 9.006 | 33.386 | 2 |
| 2025-04-18T23:54:00 | 54.903406 | 6.635810 | 2.0 | 8.870 | 2 | 35.633 | 9.021 | 33.392 | 2 |
| 2025-04-18T23:55:00 | 54.902181 | 6.634642 | 2.0 | 8.890 | 2 | 35.744 | 9.039 | 33.491 | 2 |
| 2025-04-18T23:56:00 | 54.900955 | 6.633550 | 2.0 | 8.911 | 2 | 35.819 | 9.062 | 33.547 | 2 |
| 2025-04-18T23:57:00 | 54.899766 | 6.632447 | 2.0 | 8.912 | 2 | 35.885 | 9.077 | 33.602 | 2 |
| 2025-04-18T23:58:00 | 54.898524 | 6.631386 | 2.0 | 8.903 | 2 | 35.712 | 9.077 | 33.421 | 2 |
| 2025-04-18T23:59:00 | 54.897265 | 6.630315 | 2.0 | 8.905 | 2 | 35.917 | 9.069 | 33.642 | 2 |
| 2025-04-19T00:00:00 | 54.896062 | 6.629116 | 2.0 | 8.912 | 2 | 35.849 | 9.073 | 33.568 | 2 |
| 2025-04-19T00:01:00 | 54.894834 | 6.627953 | 2.0 | 8.881 | 2 | 35.710 | 9.075 | 33.421 | 2 |
| 2025-04-19T00:02:00 | 54.893575 | 6.626815 | 2.0 | 8.824 | 2 | 35.736 | 9.042 | 33.479 | 2 |
| 2025-04-19T00:03:00 | 54.892323 | 6.625686 | 2.0 | 8.689 | 2 | 35.754 | 8.965 | 33.571 | 2 |
| 2025-04-19T00:04:00 | 54.891043 | 6.624490 | 2.0 | 8.669 | 2 | 35.479 | 8.855 | 33.387 | 2 |
| 2025-04-19T00:05:00 | 54.889478 | 6.623667 | 2.0 | 8.673 | 2 | 35.627 | 8.842 | 33.554 | 2 |
| 2025-04-19T00:06:00 | 54.889050 | 6.621989 | 2.0 | 8.674 | 2 | 35.671 | 8.842 | 33.600 | 2 |
| 2025-04-19T00:07:00 | 54.889724 | 6.621219 | 2.0 | 8.685 | 2 | 35.518 | 8.844 | 33.438 | 2 |
| 2025-04-19T00:08:00 | 54.890765 | 6.621840 | 2.0 | 8.691 | 2 | 35.571 | 8.855 | 33.483 | 2 |
| 2025-04-19T00:09:00 | 54.891793 | 6.622804 | 2.0 | 8.701 | 2 | 35.513 | 8.859 | 33.419 | 2 |
| 2025-04-19T00:10:00 | 54.892831 | 6.623769 | 2.0 | 8.756 | 2 | 35.726 | 8.883 | 33.619 | 2 |
| 2025-04-19T00:11:00 | 54.893856 | 6.624726 | 2.0 | 8.747 | 2 | 35.681 | 8.917 | 33.540 | 2 |
| 2025-04-19T00:12:00 | 54.894875 | 6.625782 | 2.0 | 8.804 | 2 | 35.738 | 8.929 | 33.588 | 2 |
| 2025-04-19T00:13:00 | 54.895951 | 6.626819 | 2.0 | 8.834 | 2 | 35.856 | 8.975 | 33.668 | 2 |
| 2025-04-19T00:14:00 | 54.897091 | 6.627894 | 2.0 | 8.860 | 2 | 35.859 | 9.003 | 33.644 | 2 |
| 2025-04-19T00:15:00 | 54.898287 | 6.629066 | 2.0 | 8.850 | 2 | 35.898 | 9.025 | 33.664 | 2 |
| 2025-04-19T00:16:00 | 54.899476 | 6.630292 | 2.0 | 8.838 | 2 | 36.071 | 9.015 | 33.854 | 2 |
| 2025-04-19T00:17:00 | 54.900673 | 6.631479 | 2.0 | 8.835 | 2 | 36.076 | 9.003 | 33.871 | 2 |
| 2025-04-19T00:18:00 | 54.901857 | 6.632601 | 2.0 | 8.876 | 2 | 36.074 | 9.011 | 33.861 | 2 |
| 2025-04-19T00:19:00 | 54.903033 | 6.633697 | 2.0 | 8.879 | 2 | 36.068 | 9.040 | 33.827 | 2 |
| 2025-04-19T00:20:00 | 54.904235 | 6.634811 | 2.0 | 8.875 | 2 | 36.071 | 9.044 | 33.827 | 2 |
| 2025-04-19T00:21:00 | 54.905476 | 6.635984 | 2.0 | 8.875 | 2 | 36.075 | 9.041 | 33.834 | 2 |
| 2025-04-19T00:22:00 | 54.906745 | 6.637173 | 2.0 | 8.885 | 2 | 36.078 | 9.044 | 33.834 | 2 |
| 2025-04-19T00:23:00 | 54.907999 | 6.638460 | 2.0 | 8.883 | 2 | 36.086 | 9.050 | 33.837 | 2 |
| 2025-04-19T00:24:00 | 54.908923 | 6.640579 | 2.0 | 8.881 | 2 | 36.080 | 9.049 | 33.831 | 2 |
| 2025-04-19T00:25:00 | 54.909921 | 6.641781 | 2.0 | 8.883 | 2 | 36.062 | 9.046 | 33.815 | 2 |
| 2025-04-19T00:26:00 | 54.910573 | 6.640848 | 2.0 | 8.895 | 2 | 36.068 | 9.052 | 33.816 | 2 |
| 2025-04-19T00:27:00 | 54.910203 | 6.639124 | 2.0 | 8.887 | 2 | 36.096 | 9.059 | 33.839 | 2 |
| 2025-04-19T00:28:00 | 54.909139 | 6.637612 | 2.0 | 8.893 | 2 | 36.109 | 9.056 | 33.855 | 2 |
| 2025-04-19T00:29:00 | 54.907922 | 6.636388 | 2.0 | 8.890 | 2 | 36.112 | 9.061 | 33.853 | 2 |
| 2025-04-19T00:30:00 | 54.906719 | 6.635154 | 2.0 | 8.866 | 2 | 36.117 | 9.052 | 33.867 | 2 |
| 2025-04-19T00:31:00 | 54.905515 | 6.633934 | 2.0 | 8.843 | 2 | 36.110 | 9.031 | 33.880 | 2 |
| 2025-04-19T00:32:00 | 54.904322 | 6.632735 | 2.0 | 8.825 | 2 | 36.100 | 9.009 | 33.890 | 2 |
| 2025-04-19T00:33:00 | 54.903073 | 6.631660 | 2.0 | 8.811 | 2 | 36.091 | 8.991 | 33.898 | 2 |
| 2025-04-19T00:34:00 | 54.901890 | 6.630449 | 2.0 | 8.813 | 2 | 36.085 | 8.981 | 33.901 | 2 |
| 2025-04-19T00:35:00 | 54.900656 | 6.629372 | 2.0 | 8.811 | 2 | 36.085 | 8.981 | 33.901 | 2 |
| 2025-04-19T00:36:00 | 54.899381 | 6.628331 | 2.0 | 8.812 | 2 | 36.086 | 8.980 | 33.903 | 2 |
| 2025-04-19T00:37:00 | 54.898175 | 6.627139 | 2.0 | 8.820 | 2 | 36.087 | 8.982 | 33.902 | 2 |
| 2025-04-19T00:38:00 | 54.896979 | 6.625983 | 2.0 | 8.826 | 2 | 36.092 | 8.989 | 33.901 | 2 |
| 2025-04-19T00:39:00 | 54.895748 | 6.624878 | 2.0 | 8.833 | 2 | 36.097 | 8.996 | 33.900 | 2 |
| 2025-04-19T00:40:00 | 54.894528 | 6.623714 | 2.0 | 8.832 | 2 | 36.100 | 9.001 | 33.898 | 2 |
| 2025-04-19T00:41:00 | 54.893319 | 6.622520 | 2.0 | 8.833 | 2 | 36.103 | 9.000 | 33.902 | 2 |
| 2025-04-19T00:42:00 | 54.892050 | 6.621413 | 2.0 | 8.844 | 2 | 35.875 | 9.000 | 33.664 | 2 |
| 2025-04-19T00:43:00 | 54.890489 | 6.620710 | 2.0 | 8.838 | 2 | 36.109 | 9.009 | 33.900 | 2 |
| 2025-04-19T00:44:00 | 54.889798 | 6.618876 | 2.0 | 8.837 | 2 | 35.854 | 9.005 | 33.637 | 2 |
| 2025-04-19T00:45:00 | 54.890318 | 6.617799 | 2.0 | 8.834 | 2 | 36.049 | 9.003 | 33.843 | 2 |
| 2025-04-19T00:46:00 | 54.891263 | 6.618254 | 2.0 | 8.826 | 2 | 36.093 | 9.000 | 33.892 | 2 |
| 2025-04-19T00:47:00 | 54.892314 | 6.619289 | 2.0 | 8.820 | 2 | 36.112 | 8.993 | 33.918 | 2 |
| 2025-04-19T00:48:00 | 54.893340 | 6.620225 | 2.0 | 8.819 | 2 | 35.767 | 8.988 | 33.563 | 2 |
| 2025-04-19T00:49:00 | 54.894368 | 6.621206 | 2.0 | 8.812 | 2 | 36.111 | 8.987 | 33.923 | 2 |
| 2025-04-19T00:50:00 | 54.895385 | 6.622211 | 2.0 | 8.798 | 2 | 36.100 | 8.977 | 33.921 | 2 |
| 2025-04-19T00:51:00 | 54.896435 | 6.623314 | 2.0 | 8.797 | 2 | 36.099 | 8.966 | 33.930 | 2 |
| 2025-04-19T00:52:00 | 54.897566 | 6.624408 | 2.0 | 8.800 | 2 | 35.791 | 8.965 | 33.609 | 2 |
| 2025-04-19T00:53:00 | 54.898669 | 6.625566 | 2.0 | 8.801 | 2 | 35.994 | 8.968 | 33.819 | 2 |
| 2025-04-19T00:54:00 | 54.899766 | 6.626608 | 2.0 | 8.804 | 2 | 35.670 | 8.969 | 33.479 | 2 |
| 2025-04-19T00:55:00 | 54.900870 | 6.627661 | 2.0 | 8.813 | 2 | 35.902 | 8.972 | 33.719 | 2 |
| 2025-04-19T00:56:00 | 54.901976 | 6.628771 | 2.0 | 8.821 | 2 | 36.134 | 8.981 | 33.953 | 2 |
| 2025-04-19T00:57:00 | 54.903129 | 6.629851 | 2.0 | 8.825 | 2 | 36.144 | 8.988 | 33.956 | 2 |
| 2025-04-19T00:58:00 | 54.904345 | 6.630964 | 2.0 | 8.826 | 2 | 35.927 | 8.992 | 33.726 | 2 |
| 2025-04-19T00:59:00 | 54.905577 | 6.632210 | 2.0 | 8.836 | 2 | 35.971 | 8.994 | 33.770 | 2 |
| 2025-04-19T01:00:00 | 54.906828 | 6.633346 | 2.0 | 8.848 | 2 | 35.491 | 9.005 | 33.259 | 2 |
| 2025-04-19T01:01:00 | 54.908121 | 6.634397 | 2.0 | 8.854 | 2 | 36.146 | 9.015 | 33.933 | 2 |
| 2025-04-19T01:02:00 | 54.909318 | 6.635821 | 2.0 | 8.859 | 2 | 35.961 | 9.021 | 33.734 | 2 |
| 2025-04-19T01:03:00 | 54.910376 | 6.637505 | 2.0 | 8.860 | 2 | 35.901 | 9.025 | 33.667 | 2 |
| 2025-04-19T01:04:00 | 54.911320 | 6.637207 | 2.0 | 8.863 | 2 | 35.776 | 9.026 | 33.536 | 2 |
| 2025-04-19T01:05:00 | 54.911239 | 6.635509 | 2.0 | 8.862 | 2 | 35.790 | 9.027 | 33.550 | 2 |
| 2025-04-19T01:06:00 | 54.910138 | 6.634088 | 2.0 | 8.863 | 2 | 35.977 | 9.030 | 33.742 | 2 |
| 2025-04-19T01:07:00 | 54.908784 | 6.633257 | 2.0 | 8.858 | 2 | 35.850 | 9.030 | 33.609 | 2 |
| 2025-04-19T01:08:00 | 54.907631 | 6.632088 | 2.0 | 8.853 | 2 | 35.854 | 9.024 | 33.619 | 2 |
| 2025-04-19T01:09:00 | 54.906477 | 6.630946 | 2.0 | 8.851 | 2 | 35.997 | 9.020 | 33.772 | 2 |
| 2025-04-19T01:10:00 | 54.905271 | 6.629774 | 2.0 | 8.848 | 2 | 36.087 | 9.018 | 33.868 | 2 |
| 2025-04-19T01:11:00 | 54.903991 | 6.628599 | 2.0 | 8.839 | 2 | 36.162 | 9.015 | 33.949 | 2 |
| 2025-04-19T01:12:00 | 54.902705 | 6.627437 | 2.0 | 8.822 | 2 | 35.744 | 9.005 | 33.523 | 2 |
| 2025-04-19T01:13:00 | 54.901468 | 6.626293 | 2.0 | 8.793 | 2 | 35.997 | 8.989 | 33.802 | 2 |
| 2025-04-19T01:14:00 | 54.900244 | 6.625215 | 2.0 | 8.774 | 2 | 35.765 | 8.957 | 33.590 | 2 |
| 2025-04-19T01:15:00 | 54.899022 | 6.624179 | 2.0 | 8.770 | 2 | 35.993 | 8.943 | 33.841 | 2 |
| 2025-04-19T01:16:00 | 54.897839 | 6.623008 | 2.0 | 8.756 | 2 | 35.881 | 8.937 | 33.730 | 2 |
| 2025-04-19T01:17:00 | 54.896636 | 6.621832 | 2.0 | 8.730 | 2 | 35.995 | 8.923 | 33.863 | 2 |
| 2025-04-19T01:18:00 | 54.895378 | 6.620718 | 2.0 | 8.710 | 2 | 35.744 | 8.894 | 33.628 | 2 |
| 2025-04-19T01:19:00 | 54.894120 | 6.619583 | 2.0 | 8.701 | 2 | 35.948 | 8.879 | 33.855 | 2 |
| 2025-04-19T01:20:00 | 54.892825 | 6.618598 | 2.0 | 8.696 | 2 | 35.729 | 8.869 | 33.636 | 2 |
| 2025-04-19T01:21:00 | 54.891443 | 6.617929 | 2.0 | 8.700 | 2 | 35.726 | 8.864 | 33.637 | 2 |
| 2025-04-19T01:22:00 | 54.890810 | 6.616260 | 2.0 | 8.690 | 2 | 35.962 | 8.867 | 33.881 | 2 |
| 2025-04-19T01:23:00 | 54.891320 | 6.615080 | 2.0 | 8.671 | 2 | 35.733 | 8.854 | 33.654 | 2 |
| 2025-04-19T01:24:00 | 54.892195 | 6.615583 | 2.0 | 8.688 | 2 | 35.847 | 8.846 | 33.781 | 2 |
| 2025-04-19T01:25:00 | 54.893078 | 6.616565 | 2.0 | 8.685 | 2 | 35.820 | 8.855 | 33.744 | 2 |
| 2025-04-19T01:26:00 | 54.894070 | 6.617327 | 2.0 | 8.690 | 2 | 35.003 | 8.854 | 32.891 | 2 |
| 2025-04-19T01:27:00 | 54.895200 | 6.618282 | 2.0 | 8.703 | 2 | 35.615 | 8.861 | 33.524 | 2 |
| 2025-04-19T01:28:00 | 54.896416 | 6.619344 | 2.0 | 8.743 | 2 | 35.630 | 8.879 | 33.522 | 2 |
| 2025-04-19T01:29:00 | 54.897673 | 6.620510 | 2.0 | 8.768 | 2 | 35.644 | 8.913 | 33.505 | 2 |
| 2025-04-19T01:30:00 | 54.898942 | 6.621603 | 2.0 | 8.790 | 2 | 35.936 | 8.937 | 33.788 | 2 |
| 2025-04-19T01:31:00 | 54.900191 | 6.622792 | 2.0 | 8.806 | 2 | 35.358 | 8.958 | 33.164 | 2 |
| 2025-04-19T01:32:00 | 54.901403 | 6.624131 | 2.0 | 8.815 | 2 | 36.179 | 8.973 | 34.007 | 2 |
| 2025-04-19T01:33:00 | 54.902621 | 6.625398 | 2.0 | 8.825 | 2 | 36.184 | 8.983 | 34.003 | 2 |
| 2025-04-19T01:34:00 | 54.903840 | 6.626598 | 2.0 | 8.832 | 2 | 36.185 | 8.992 | 33.995 | 2 |
| 2025-04-19T01:35:00 | 54.905080 | 6.627763 | 2.0 | 8.836 | 2 | 36.181 | 8.998 | 33.985 | 2 |
| 2025-04-19T01:36:00 | 54.906334 | 6.628897 | 2.0 | 8.844 | 2 | 36.172 | 9.004 | 33.970 | 2 |
| 2025-04-19T01:37:00 | 54.907572 | 6.630104 | 2.0 | 8.844 | 2 | 36.166 | 9.010 | 33.958 | 2 |
| 2025-04-19T01:38:00 | 54.908781 | 6.631320 | 2.0 | 8.841 | 2 | 36.160 | 9.010 | 33.952 | 2 |
| 2025-04-19T01:39:00 | 54.909944 | 6.632666 | 2.0 | 8.837 | 2 | 36.157 | 9.007 | 33.952 | 2 |
| 2025-04-19T01:40:00 | 54.910870 | 6.634608 | 2.0 | 8.828 | 2 | 36.154 | 9.003 | 33.952 | 2 |
| 2025-04-19T01:41:00 | 54.911858 | 6.635109 | 2.0 | 8.829 | 2 | 36.146 | 8.995 | 33.952 | 2 |
| 2025-04-19T01:42:00 | 54.912193 | 6.633905 | 2.0 | 8.834 | 2 | 36.146 | 8.996 | 33.951 | 2 |
| 2025-04-19T01:43:00 | 54.911669 | 6.632276 | 2.0 | 8.835 | 2 | 36.150 | 9.001 | 33.950 | 2 |
| 2025-04-19T01:44:00 | 54.910558 | 6.630928 | 2.0 | 8.834 | 2 | 35.948 | 9.002 | 33.738 | 2 |
| 2025-04-19T01:45:00 | 54.909299 | 6.629669 | 2.0 | 8.835 | 2 | 36.150 | 9.002 | 33.949 | 2 |
| 2025-04-19T01:46:00 | 54.908033 | 6.628427 | 2.0 | 8.836 | 2 | 36.153 | 9.003 | 33.951 | 2 |
| 2025-04-19T01:47:00 | 54.906756 | 6.627273 | 2.0 | 8.832 | 2 | 36.158 | 9.003 | 33.957 | 2 |
| 2025-04-19T01:48:00 | 54.905444 | 6.626200 | 2.0 | 8.827 | 2 | 36.161 | 9.000 | 33.963 | 2 |
| 2025-04-19T01:49:00 | 54.904227 | 6.624955 | 2.0 | 8.818 | 2 | 36.162 | 8.994 | 33.969 | 2 |
| 2025-04-19T01:50:00 | 54.903002 | 6.623735 | 2.0 | 8.813 | 2 | 36.164 | 8.987 | 33.978 | 2 |
| 2025-04-19T01:51:00 | 54.901722 | 6.622643 | 2.0 | 8.809 | 2 | 36.167 | 8.981 | 33.987 | 2 |
| 2025-04-19T01:52:00 | 54.900449 | 6.621515 | 2.0 | 8.804 | 2 | 36.094 | 8.976 | 33.916 | 2 |
| 2025-04-19T01:53:00 | 54.899231 | 6.620310 | 2.0 | 8.804 | 2 | 35.587 | 8.973 | 33.389 | 2 |
| 2025-04-19T01:54:00 | 54.898012 | 6.619129 | 2.0 | 8.788 | 2 | 36.184 | 8.969 | 34.016 | 2 |
| 2025-04-19T01:55:00 | 54.896786 | 6.618029 | 2.0 | 8.773 | 2 | 35.924 | 8.955 | 33.758 | 2 |
| 2025-04-19T01:56:00 | 54.895584 | 6.616876 | 2.0 | 8.746 | 2 | 36.057 | 8.936 | 33.915 | 2 |
| 2025-04-19T01:57:00 | 54.894399 | 6.615709 | 2.0 | 8.724 | 2 | 36.107 | 8.912 | 33.990 | 2 |
| 2025-04-19T01:58:00 | 54.893095 | 6.615179 | 2.0 | 8.719 | 2 | 36.128 | 8.894 | 34.030 | 2 |
| 2025-04-19T01:59:00 | 54.891734 | 6.614878 | 2.0 | 8.712 | 2 | 35.870 | 8.887 | 33.766 | 2 |
| 2025-04-19T02:00:00 | 54.890997 | 6.613622 | 2.0 | 8.693 | 2 | 35.736 | 8.877 | 33.635 | 2 |
| 2025-04-19T02:01:00 | 54.891008 | 6.612443 | 2.0 | 8.666 | 2 | 36.102 | 8.855 | 34.040 | 2 |
| 2025-04-19T02:02:00 | 54.891545 | 6.611874 | 2.0 | 8.693 | 2 | 35.670 | 8.838 | 33.603 | 2 |
| 2025-04-19T02:03:00 | 54.892385 | 6.612435 | 2.0 | 8.718 | 2 | 35.579 | 8.865 | 33.482 | 2 |
| 2025-04-19T02:04:00 | 54.893393 | 6.613160 | 2.0 | 8.724 | 2 | 36.102 | 8.884 | 34.012 | 2 |
| 2025-04-19T02:05:00 | 54.894515 | 6.614050 | 2.0 | 8.727 | 2 | 36.068 | 8.891 | 33.970 | 2 |
| 2025-04-19T02:06:00 | 54.895688 | 6.615022 | 2.0 | 8.758 | 2 | 35.758 | 8.900 | 33.636 | 2 |
| 2025-04-19T02:07:00 | 54.896880 | 6.616115 | 2.0 | 8.770 | 2 | 35.478 | 8.924 | 33.321 | 2 |
| 2025-04-19T02:08:00 | 54.898068 | 6.617277 | 2.0 | 8.780 | 2 | 35.885 | 8.938 | 33.733 | 2 |
| 2025-04-19T02:09:00 | 54.899272 | 6.618433 | 2.0 | 8.779 | 2 | 35.715 | 8.945 | 33.549 | 2 |
| 2025-04-19T02:10:00 | 54.900496 | 6.619594 | 2.0 | 8.790 | 2 | 35.566 | 8.946 | 33.392 | 2 |
| 2025-04-19T02:11:00 | 54.901731 | 6.620753 | 2.0 | 8.796 | 2 | 35.873 | 8.957 | 33.703 | 2 |
| 2025-04-19T02:12:00 | 54.902982 | 6.621923 | 2.0 | 8.805 | 2 | 35.854 | 8.964 | 33.676 | 2 |
| 2025-04-19T02:13:00 | 54.904190 | 6.623112 | 2.0 | 8.804 | 2 | 35.937 | 8.971 | 33.756 | 2 |
| 2025-04-19T02:14:00 | 54.905386 | 6.624307 | 2.0 | 8.799 | 2 | 35.644 | 8.969 | 33.452 | 2 |
| 2025-04-19T02:15:00 | 54.906565 | 6.625455 | 2.0 | 8.787 | 2 | 35.706 | 8.963 | 33.523 | 2 |
| 2025-04-19T02:16:00 | 54.907775 | 6.626584 | 2.0 | 8.782 | 2 | 35.679 | 8.953 | 33.504 | 2 |
| 2025-04-19T02:17:00 | 54.908988 | 6.627730 | 2.0 | 8.782 | 2 | 35.854 | 8.949 | 33.690 | 2 |
| 2025-04-19T02:18:00 | 54.910200 | 6.628874 | 2.0 | 8.787 | 2 | 35.848 | 8.949 | 33.684 | 2 |
| 2025-04-19T02:19:00 | 54.911292 | 6.630332 | 2.0 | 8.799 | 2 | 35.872 | 8.956 | 33.703 | 2 |
| 2025-04-19T02:20:00 | 54.912101 | 6.632266 | 2.0 | 8.811 | 2 | 35.916 | 8.968 | 33.737 | 2 |
| 2025-04-19T02:21:00 | 54.913013 | 6.632521 | 2.0 | 8.812 | 2 | 35.712 | 8.976 | 33.517 | 2 |
| 2025-04-19T02:22:00 | 54.913315 | 6.631032 | 2.0 | 8.805 | 2 | 35.877 | 8.975 | 33.690 | 2 |
| 2025-04-19T02:23:00 | 54.912665 | 6.629237 | 2.0 | 8.796 | 2 | 36.037 | 8.971 | 33.861 | 2 |
| 2025-04-19T02:24:00 | 54.911527 | 6.627836 | 2.0 | 8.789 | 2 | 35.917 | 8.964 | 33.742 | 2 |
| 2025-04-19T02:25:00 | 54.910258 | 6.626688 | 2.0 | 8.779 | 2 | 35.907 | 8.956 | 33.739 | 2 |
| 2025-04-19T02:26:00 | 54.909039 | 6.625426 | 2.0 | 8.771 | 2 | 35.784 | 8.946 | 33.620 | 2 |
| 2025-04-19T02:27:00 | 54.907764 | 6.624270 | 2.0 | 8.771 | 2 | 36.016 | 8.940 | 33.868 | 2 |
| 2025-04-19T02:28:00 | 54.906483 | 6.623074 | 2.0 | 8.772 | 2 | 35.859 | 8.940 | 33.704 | 2 |
| 2025-04-19T02:29:00 | 54.905156 | 6.621965 | 2.0 | 8.775 | 2 | 35.819 | 8.941 | 33.661 | 2 |
| 2025-04-19T02:30:00 | 54.903892 | 6.620690 | 2.0 | 8.781 | 2 | 36.107 | 8.944 | 33.960 | 2 |
| 2025-04-19T02:31:00 | 54.902604 | 6.619502 | 2.0 | 8.782 | 2 | 36.010 | 8.949 | 33.853 | 2 |
| 2025-04-19T02:32:00 | 54.901314 | 6.618428 | 2.0 | 8.783 | 2 | 36.100 | 8.952 | 33.945 | 2 |
| 2025-04-19T02:33:00 | 54.900079 | 6.617324 | 2.0 | 8.781 | 2 | 36.028 | 8.950 | 33.871 | 2 |
| 2025-04-19T02:34:00 | 54.898890 | 6.616206 | 2.0 | 8.766 | 2 | 36.040 | 8.946 | 33.888 | 2 |
| 2025-04-19T02:35:00 | 54.897734 | 6.615095 | 2.0 | 8.758 | 2 | 36.008 | 8.934 | 33.866 | 2 |
| 2025-04-19T02:36:00 | 54.896604 | 6.613953 | 2.0 | 8.747 | 2 | 35.981 | 8.924 | 33.847 | 2 |
| 2025-04-19T02:37:00 | 54.895441 | 6.612863 | 2.0 | 8.745 | 2 | 35.949 | 8.914 | 33.823 | 2 |
| 2025-04-19T02:38:00 | 54.894204 | 6.612370 | 2.0 | 8.726 | 2 | 35.977 | 8.913 | 33.853 | 2 |
| 2025-04-19T02:39:00 | 54.892873 | 6.612298 | 2.0 | 8.711 | 2 | 35.937 | 8.890 | 33.833 | 2 |
| 2025-04-19T02:40:00 | 54.891853 | 6.611126 | 2.0 | 8.708 | 2 | 36.028 | 8.879 | 33.939 | 2 |
| 2025-04-19T02:41:00 | 54.891770 | 6.609336 | 2.0 | 8.702 | 2 | 36.118 | 8.874 | 34.038 | 2 |
| 2025-04-19T02:42:00 | 54.892469 | 6.608426 | 2.0 | 8.693 | 2 | 36.117 | 8.863 | 34.048 | 2 |
| 2025-04-19T02:43:00 | 54.893341 | 6.609131 | 2.0 | 8.712 | 2 | 36.120 | 8.866 | 34.048 | 2 |
| 2025-04-19T02:44:00 | 54.894312 | 6.609938 | 2.0 | 8.718 | 2 | 36.130 | 8.880 | 34.045 | 2 |
| 2025-04-19T02:45:00 | 54.895365 | 6.610741 | 2.0 | 8.723 | 2 | 36.133 | 8.885 | 34.043 | 2 |
| 2025-04-19T02:46:00 | 54.896434 | 6.611730 | 2.0 | 8.725 | 2 | 36.139 | 8.891 | 34.044 | 2 |
| 2025-04-19T02:47:00 | 54.897553 | 6.612711 | 2.0 | 8.731 | 2 | 36.145 | 8.890 | 34.051 | 2 |
| 2025-04-19T02:48:00 | 54.898671 | 6.613853 | 2.0 | 8.754 | 2 | 36.145 | 8.902 | 34.040 | 2 |
| 2025-04-19T02:49:00 | 54.899842 | 6.614946 | 2.0 | 8.772 | 2 | 36.149 | 8.923 | 34.024 | 2 |
| 2025-04-19T02:50:00 | 54.901008 | 6.616167 | 2.0 | 8.775 | 2 | 36.147 | 8.938 | 34.007 | 2 |
| 2025-04-19T02:51:00 | 54.902175 | 6.617354 | 2.0 | 8.780 | 2 | 36.139 | 8.942 | 33.995 | 2 |
| 2025-04-19T02:52:00 | 54.903359 | 6.618502 | 2.0 | 8.776 | 2 | 36.133 | 8.946 | 33.985 | 2 |
| 2025-04-19T02:53:00 | 54.904497 | 6.619670 | 2.0 | 8.766 | 2 | 36.132 | 8.939 | 33.991 | 2 |
| 2025-04-19T02:54:00 | 54.905652 | 6.620738 | 2.0 | 8.765 | 2 | 36.126 | 8.932 | 33.991 | 2 |
| 2025-04-19T02:55:00 | 54.906803 | 6.621800 | 2.0 | 8.756 | 2 | 36.121 | 8.930 | 33.988 | 2 |
| 2025-04-19T02:56:00 | 54.907970 | 6.622878 | 2.0 | 8.753 | 2 | 36.112 | 8.921 | 33.987 | 2 |
| 2025-04-19T02:57:00 | 54.909180 | 6.623925 | 2.0 | 8.760 | 2 | 36.107 | 8.921 | 33.982 | 2 |
| 2025-04-19T02:58:00 | 54.910372 | 6.625042 | 2.0 | 8.771 | 2 | 36.107 | 8.928 | 33.975 | 2 |
| 2025-04-19T02:59:00 | 54.911574 | 6.626180 | 2.0 | 8.777 | 2 | 36.108 | 8.937 | 33.967 | 2 |
| 2025-04-19T03:00:00 | 54.912582 | 6.627843 | 2.0 | 8.784 | 2 | 36.105 | 8.945 | 33.957 | 2 |
| 2025-04-19T03:01:00 | 54.913557 | 6.629367 | 2.0 | 8.782 | 2 | 36.098 | 8.950 | 33.945 | 2 |
| 2025-04-19T03:02:00 | 54.914433 | 6.629002 | 2.0 | 8.774 | 2 | 36.087 | 8.946 | 33.937 | 2 |
| 2025-04-19T03:03:00 | 54.914485 | 6.627287 | 2.0 | 8.772 | 2 | 36.077 | 8.939 | 33.933 | 2 |
| 2025-04-19T03:04:00 | 54.913642 | 6.625742 | 2.0 | 8.775 | 2 | 36.081 | 8.939 | 33.937 | 2 |
| 2025-04-19T03:05:00 | 54.912385 | 6.624611 | 2.0 | 8.776 | 2 | 36.088 | 8.943 | 33.941 | 2 |
| 2025-04-19T03:06:00 | 54.911100 | 6.623463 | 2.0 | 8.770 | 2 | 36.098 | 8.943 | 33.951 | 2 |
| 2025-04-19T03:07:00 | 54.909932 | 6.622222 | 2.0 | 8.762 | 2 | 36.100 | 8.936 | 33.960 | 2 |
| 2025-04-19T03:08:00 | 54.908694 | 6.621209 | 2.0 | 8.752 | 2 | 36.092 | 8.928 | 33.959 | 2 |
| 2025-04-19T03:09:00 | 54.907526 | 6.620095 | 2.0 | 8.747 | 2 | 36.098 | 8.920 | 33.973 | 2 |
| 2025-04-19T03:10:00 | 54.906321 | 6.619161 | 2.0 | 8.753 | 2 | 36.102 | 8.915 | 33.982 | 2 |
| 2025-04-19T03:11:00 | 54.905129 | 6.618048 | 2.0 | 8.754 | 2 | 36.112 | 8.920 | 33.988 | 2 |
| 2025-04-19T03:12:00 | 54.903929 | 6.616867 | 2.0 | 8.756 | 2 | 36.116 | 8.920 | 33.992 | 2 |
| 2025-04-19T03:13:00 | 54.902710 | 6.615687 | 2.0 | 8.773 | 2 | 36.120 | 8.926 | 33.991 | 2 |
| 2025-04-19T03:14:00 | 54.901449 | 6.614577 | 2.0 | 8.778 | 2 | 36.126 | 8.941 | 33.982 | 2 |
| 2025-04-19T03:15:00 | 54.900175 | 6.613419 | 2.0 | 8.778 | 2 | 36.129 | 8.946 | 33.981 | 2 |
| 2025-04-19T03:16:00 | 54.898922 | 6.612257 | 2.0 | 8.773 | 2 | 36.142 | 8.944 | 33.996 | 2 |
| 2025-04-19T03:17:00 | 54.897711 | 6.610964 | 2.0 | 8.760 | 2 | 36.152 | 8.939 | 34.012 | 2 |
| 2025-04-19T03:18:00 | 54.896454 | 6.609729 | 2.0 | 8.750 | 2 | 36.155 | 8.926 | 34.027 | 2 |
| 2025-04-19T03:19:00 | 54.895121 | 6.609191 | 2.0 | 8.742 | 2 | 36.149 | 8.916 | 34.030 | 2 |
| 2025-04-19T03:20:00 | 54.893771 | 6.609525 | 2.0 | 8.715 | 2 | 36.139 | 8.906 | 34.030 | 2 |
| 2025-04-19T03:21:00 | 54.892782 | 6.608537 | 2.0 | 8.691 | 2 | 36.110 | 8.878 | 34.026 | 2 |
| 2025-04-19T03:22:00 | 54.892619 | 6.606882 | 2.0 | 8.693 | 2 | 36.092 | 8.860 | 34.024 | 2 |
| 2025-04-19T03:23:00 | 54.893175 | 6.605773 | 2.0 | 8.700 | 2 | 36.098 | 8.860 | 34.031 | 2 |
| 2025-04-19T03:24:00 | 54.894115 | 6.606230 | 2.0 | 8.724 | 2 | 36.112 | 8.873 | 34.033 | 2 |
| 2025-04-19T03:25:00 | 54.895212 | 6.606987 | 2.0 | 8.736 | 2 | 36.129 | 8.892 | 34.033 | 2 |
| 2025-04-19T03:26:00 | 54.896353 | 6.607863 | 2.0 | 8.744 | 2 | 36.138 | 8.904 | 34.030 | 2 |
| 2025-04-19T03:27:00 | 54.897452 | 6.608920 | 2.0 | 8.756 | 2 | 36.145 | 8.913 | 34.029 | 2 |
| 2025-04-19T03:28:00 | 54.898596 | 6.609839 | 2.0 | 8.765 | 2 | 36.150 | 8.924 | 34.024 | 2 |
| 2025-04-19T03:29:00 | 54.899746 | 6.610886 | 2.0 | 8.773 | 2 | 36.145 | 8.931 | 34.012 | 2 |
| 2025-04-19T03:30:00 | 54.900906 | 6.612074 | 2.0 | 8.779 | 2 | 36.137 | 8.941 | 33.994 | 2 |
| 2025-04-19T03:31:00 | 54.902135 | 6.613245 | 2.0 | 8.780 | 2 | 36.136 | 8.946 | 33.988 | 2 |
| 2025-04-19T03:32:00 | 54.903396 | 6.614458 | 2.0 | 8.772 | 2 | 36.132 | 8.945 | 33.985 | 2 |
| 2025-04-19T03:33:00 | 54.904662 | 6.615756 | 2.0 | 8.768 | 2 | 36.127 | 8.939 | 33.985 | 2 |
| 2025-04-19T03:34:00 | 54.905872 | 6.617011 | 2.0 | 8.756 | 2 | 36.122 | 8.934 | 33.985 | 2 |
| 2025-04-19T03:35:00 | 54.907047 | 6.618117 | 2.0 | 8.748 | 2 | 36.113 | 8.922 | 33.987 | 2 |
| 2025-04-19T03:36:00 | 54.908212 | 6.619158 | 2.0 | 8.747 | 2 | 36.106 | 8.915 | 33.986 | 2 |
| 2025-04-19T03:37:00 | 54.909381 | 6.620316 | 2.0 | 8.753 | 2 | 36.104 | 8.915 | 33.984 | 2 |
| 2025-04-19T03:38:00 | 54.910575 | 6.621456 | 2.0 | 8.760 | 2 | 36.105 | 8.921 | 33.980 | 2 |
| 2025-04-19T03:39:00 | 54.911809 | 6.622561 | 2.0 | 8.767 | 2 | 36.104 | 8.928 | 33.972 | 2 |
| 2025-04-19T03:40:00 | 54.912998 | 6.623864 | 2.0 | 8.758 | 2 | 36.100 | 8.930 | 33.966 | 2 |
| 2025-04-19T03:41:00 | 54.913840 | 6.625896 | 2.0 | 8.762 | 2 | 36.091 | 8.929 | 33.957 | 2 |
| 2025-04-19T03:42:00 | 54.914710 | 6.627062 | 2.0 | 8.751 | 2 | 36.083 | 8.926 | 33.952 | 2 |
| 2025-04-19T03:43:00 | 54.915474 | 6.626342 | 2.0 | 8.746 | 2 | 36.074 | 8.916 | 33.952 | 2 |
| 2025-04-19T03:44:00 | 54.915359 | 6.624402 | 2.0 | 8.747 | 2 | 36.071 | 8.914 | 33.951 | 2 |
| 2025-04-19T03:45:00 | 54.914363 | 6.622924 | 2.0 | 8.750 | 2 | 36.073 | 8.916 | 33.951 | 2 |
| 2025-04-19T03:46:00 | 54.913114 | 6.621688 | 2.0 | 8.758 | 2 | 36.080 | 8.918 | 33.956 | 2 |
| 2025-04-19T03:47:00 | 54.911878 | 6.620366 | 2.0 | 8.758 | 2 | 36.090 | 8.926 | 33.959 | 2 |
| 2025-04-19T03:48:00 | 54.910594 | 6.619210 | 2.0 | 8.750 | 2 | 36.102 | 8.925 | 33.973 | 2 |
| 2025-04-19T03:49:00 | 54.909302 | 6.618019 | 2.0 | 8.743 | 2 | 36.105 | 8.918 | 33.983 | 2 |
| 2025-04-19T03:50:00 | 54.907989 | 6.616904 | 2.0 | 8.740 | 2 | 36.105 | 8.910 | 33.990 | 2 |
| 2025-04-19T03:51:00 | 54.906680 | 6.615695 | 2.0 | 8.753 | 2 | 36.107 | 8.911 | 33.991 | 2 |
| 2025-04-19T03:52:00 | 54.905388 | 6.614458 | 2.0 | 8.768 | 2 | 36.112 | 8.922 | 33.986 | 2 |
| 2025-04-19T03:53:00 | 54.904149 | 6.613194 | 2.0 | 8.783 | 2 | 36.122 | 8.938 | 33.981 | 2 |
| 2025-04-19T03:54:00 | 54.902937 | 6.611948 | 2.0 | 8.785 | 2 | 36.134 | 8.950 | 33.982 | 2 |
| 2025-04-19T03:55:00 | 54.901717 | 6.610769 | 2.0 | 8.784 | 2 | 36.138 | 8.952 | 33.984 | 2 |
| 2025-04-19T03:56:00 | 54.900453 | 6.609718 | 2.0 | 8.777 | 2 | 36.141 | 8.950 | 33.990 | 2 |
| 2025-04-19T03:57:00 | 54.899202 | 6.608569 | 2.0 | 8.768 | 2 | 36.147 | 8.943 | 34.003 | 2 |
| 2025-04-19T03:58:00 | 54.897917 | 6.607327 | 2.0 | 8.756 | 2 | 36.149 | 8.935 | 34.012 | 2 |
| 2025-04-19T03:59:00 | 54.896701 | 6.606090 | 2.0 | 8.746 | 2 | 36.146 | 8.924 | 34.020 | 2 |
| 2025-04-19T04:00:00 | 54.895783 | 6.604758 | 2.0 | 8.733 | 2 | 36.139 | 8.913 | 34.023 | 2 |
| 2025-04-19T04:01:00 | 54.895515 | 6.603699 | 2.0 | 8.733 | 2 | 36.133 | 8.902 | 34.027 | 2 |
| 2025-04-19T04:02:00 | 54.895371 | 6.602984 | 2.0 | 8.731 | 2 | 36.131 | 8.900 | 34.027 | 2 |
| 2025-04-19T04:03:00 | 54.895401 | 6.602452 | 2.0 | 8.730 | 2 | 36.130 | 8.899 | 34.027 | 2 |
| 2025-04-19T04:04:00 | 54.895428 | 6.602117 | 2.0 | 8.730 | 2 | 36.131 | 8.899 | 34.028 | 2 |
| 2025-04-19T04:05:00 | 54.895351 | 6.601916 | 2.0 | 8.730 | 2 | 35.941 | 8.898 | 33.830 | 2 |
| 2025-04-19T04:06:00 | 54.895252 | 6.601681 | 2.0 | 8.729 | 2 | 36.106 | 8.896 | 34.005 | 2 |
| 2025-04-19T04:07:00 | 54.895227 | 6.601430 | 2.0 | 8.729 | 2 | 36.129 | 8.896 | 34.029 | 2 |
| 2025-04-19T04:08:00 | 54.895263 | 6.601147 | 2.0 | 8.728 | 2 | 36.128 | 8.896 | 34.028 | 2 |
| 2025-04-19T04:09:00 | 54.895344 | 6.600840 | 2.0 | 8.727 | 2 | 36.128 | 8.895 | 34.029 | 2 |
| 2025-04-19T04:10:00 | 54.895479 | 6.600505 | 2.0 | 8.726 | 2 | 35.626 | 8.894 | 33.504 | 2 |
| 2025-04-19T04:11:00 | 54.895802 | 6.600200 | 2.0 | 8.728 | 2 | 36.027 | 8.893 | 33.925 | 2 |
| 2025-04-19T04:12:00 | 54.896204 | 6.600981 | 2.0 | 8.734 | 2 | 36.016 | 8.896 | 33.910 | 2 |
| 2025-04-19T04:13:00 | 54.895903 | 6.602681 | 2.0 | 8.728 | 2 | 35.844 | 8.900 | 33.726 | 2 |
| 2025-04-19T04:14:00 | 54.895264 | 6.604964 | 2.0 | 8.717 | 2 | 36.125 | 8.893 | 34.027 | 2 |
| 2025-04-19T04:15:00 | 54.894575 | 6.607870 | 2.0 | 8.752 | 2 | 35.798 | 8.891 | 33.687 | 2 |
| 2025-04-19T04:16:00 | 54.893605 | 6.611458 | 2.0 | 8.755 | 2 | 35.694 | 8.917 | 33.553 | 2 |
| 2025-04-19T04:17:00 | 54.892466 | 6.615602 | 2.0 | 8.764 | 2 | 35.555 | 8.924 | 33.402 | 2 |
| 2025-04-19T04:18:00 | 54.891257 | 6.619985 | 2.0 | 8.811 | 2 | 35.466 | 8.944 | 33.290 | 2 |
| 2025-04-19T04:19:00 | 54.890070 | 6.624446 | 2.0 | 8.761 | 2 | 35.825 | 8.972 | 33.638 | 2 |
| 2025-04-19T04:20:00 | 54.888893 | 6.628953 | 2.0 | 8.692 | 2 | 35.389 | 8.923 | 33.229 | 2 |
| 2025-04-19T04:21:00 | 54.887650 | 6.633406 | 2.0 | 8.697 | 2 | 35.401 | 8.867 | 33.294 | 2 |
| 2025-04-19T04:22:00 | 54.886467 | 6.637879 | 2.0 | 8.671 | 2 | 35.335 | 8.865 | 33.227 | 2 |
| 2025-04-19T04:23:00 | 54.885264 | 6.642311 | 2.0 | 8.660 | 2 | 35.286 | 8.841 | 33.198 | 2 |
| 2025-04-19T04:24:00 | 54.884086 | 6.646793 | 2.0 | 8.656 | 2 | 35.140 | 8.831 | 33.055 | 2 |
| 2025-04-19T04:25:00 | 54.882882 | 6.651311 | 2.0 | 8.650 | 2 | 35.395 | 8.827 | 33.326 | 2 |
| 2025-04-19T04:26:00 | 54.881690 | 6.655805 | 2.0 | 8.627 | 2 | 35.222 | 8.816 | 33.155 | 2 |
| 2025-04-19T04:27:00 | 54.880443 | 6.660238 | 2.0 | 8.615 | 2 | 35.608 | 8.798 | 33.576 | 2 |
| 2025-04-19T04:28:00 | 54.879276 | 6.664710 | 2.0 | 8.597 | 2 | 35.460 | 8.783 | 33.435 | 2 |
| 2025-04-19T04:29:00 | 54.878073 | 6.669116 | 2.0 | 8.604 | 2 | 35.438 | 8.769 | 33.425 | 2 |
| 2025-04-19T04:30:00 | 54.876855 | 6.673529 | 2.0 | 8.607 | 2 | 35.350 | 8.776 | 33.326 | 2 |
| 2025-04-19T04:31:00 | 54.875683 | 6.677985 | 2.0 | 8.597 | 2 | 35.318 | 8.776 | 33.293 | 2 |
| 2025-04-19T04:32:00 | 54.874501 | 6.682422 | 2.0 | 8.585 | 2 | 35.340 | 8.767 | 33.324 | 2 |
| 2025-04-19T04:33:00 | 54.873302 | 6.686841 | 2.0 | 8.567 | 2 | 35.258 | 8.753 | 33.252 | 2 |
| 2025-04-19T04:34:00 | 54.872088 | 6.691319 | 2.0 | 8.546 | 2 | 35.274 | 8.737 | 33.284 | 2 |
| 2025-04-19T04:35:00 | 54.870892 | 6.695796 | 2.0 | 8.522 | 2 | 35.442 | 8.715 | 33.481 | 2 |
| 2025-04-19T04:36:00 | 54.869668 | 6.700220 | 2.0 | 8.487 | 2 | 35.365 | 8.690 | 33.423 | 2 |
| 2025-04-19T04:37:00 | 54.868498 | 6.704689 | 2.0 | 8.454 | 2 | 35.566 | 8.655 | 33.668 | 2 |
| 2025-04-19T04:38:00 | 54.867316 | 6.709121 | 2.0 | 8.435 | 2 | 35.376 | 8.624 | 33.497 | 2 |
| 2025-04-19T04:39:00 | 54.866108 | 6.713538 | 2.0 | 8.452 | 2 | 35.394 | 8.609 | 33.531 | 2 |
| 2025-04-19T04:40:00 | 54.864889 | 6.717970 | 2.0 | 8.479 | 2 | 35.373 | 8.628 | 33.490 | 2 |
| 2025-04-19T04:41:00 | 54.863698 | 6.722414 | 2.0 | 8.489 | 2 | 34.757 | 8.650 | 32.823 | 2 |
| 2025-04-19T04:42:00 | 54.862550 | 6.726834 | 2.0 | 8.480 | 2 | 34.504 | 8.658 | 32.550 | 2 |
| 2025-04-19T04:43:00 | 54.861338 | 6.731238 | 2.0 | 8.436 | 2 | 35.688 | 8.646 | 33.805 | 2 |
| 2025-04-19T04:44:00 | 54.860147 | 6.735680 | 2.0 | 8.384 | 2 | 35.685 | 8.599 | 33.847 | 2 |
| 2025-04-19T04:45:00 | 54.858935 | 6.740112 | 2.0 | 8.368 | 2 | 35.662 | 8.556 | 33.864 | 2 |
| 2025-04-19T04:46:00 | 54.857724 | 6.744569 | 2.0 | 8.358 | 2 | 35.655 | 8.537 | 33.875 | 2 |
| 2025-04-19T04:47:00 | 54.856478 | 6.748964 | 2.0 | 8.403 | 2 | 34.958 | 8.537 | 33.139 | 2 |
| 2025-04-19T04:48:00 | 54.855371 | 6.753393 | 2.0 | 8.394 | 2 | 35.728 | 8.565 | 33.925 | 2 |
| 2025-04-19T04:49:00 | 54.854218 | 6.757754 | 2.0 | 8.502 | 2 | 35.747 | 8.592 | 33.919 | 2 |
| 2025-04-19T04:50:00 | 54.853023 | 6.762123 | 2.0 | 8.467 | 2 | 35.752 | 8.656 | 33.863 | 2 |
| 2025-04-19T04:51:00 | 54.851844 | 6.766548 | 2.0 | 8.473 | 2 | 35.713 | 8.638 | 33.839 | 2 |
| 2025-04-19T04:52:00 | 54.850696 | 6.770962 | 2.0 | 8.514 | 2 | 35.727 | 8.652 | 33.840 | 2 |
| 2025-04-19T04:53:00 | 54.849509 | 6.775333 | 2.0 | 8.536 | 2 | 34.940 | 8.687 | 32.980 | 2 |
| 2025-04-19T04:54:00 | 54.848356 | 6.779724 | 2.0 | 8.560 | 2 | 34.722 | 8.709 | 32.731 | 2 |
| 2025-04-19T04:55:00 | 54.847131 | 6.784073 | 2.0 | 8.550 | 2 | 35.477 | 8.726 | 33.507 | 2 |
| 2025-04-19T04:56:00 | 54.845951 | 6.788457 | 2.0 | 8.547 | 2 | 35.757 | 8.720 | 33.807 | 2 |
| 2025-04-19T04:57:00 | 54.844760 | 6.792838 | 2.0 | 8.535 | 2 | 35.281 | 8.716 | 33.311 | 2 |
| 2025-04-19T04:58:00 | 54.843665 | 6.797185 | 2.0 | 8.496 | 2 | 35.587 | 8.697 | 33.650 | 2 |
| 2025-04-19T04:59:00 | 54.842446 | 6.801474 | 2.0 | 8.501 | 2 | 35.331 | 8.665 | 33.411 | 2 |
| 2025-04-19T05:00:00 | 54.841263 | 6.805840 | 2.0 | 8.506 | 2 | 34.903 | 8.675 | 32.952 | 2 |
| 2025-04-19T05:01:00 | 54.840113 | 6.810241 | 2.0 | 8.502 | 2 | 35.108 | 8.675 | 33.168 | 2 |
| 2025-04-19T05:02:00 | 54.838934 | 6.814610 | 2.0 | 8.502 | 2 | 34.884 | 8.672 | 32.935 | 2 |
| 2025-04-19T05:03:00 | 54.837724 | 6.818971 | 2.0 | 8.518 | 2 | 35.069 | 8.674 | 33.128 | 2 |
| 2025-04-19T05:04:00 | 54.836572 | 6.823378 | 2.0 | 8.525 | 2 | 35.226 | 8.689 | 33.278 | 2 |
| 2025-04-19T05:05:00 | 54.835360 | 6.827723 | 2.0 | 8.524 | 2 | 35.290 | 8.694 | 33.341 | 2 |
| 2025-04-19T05:06:00 | 54.834134 | 6.832101 | 2.0 | 8.523 | 2 | 35.574 | 8.696 | 33.637 | 2 |
| 2025-04-19T05:07:00 | 54.832974 | 6.836539 | 2.0 | 8.515 | 2 | 35.377 | 8.692 | 33.434 | 2 |
| 2025-04-19T05:08:00 | 54.831817 | 6.840935 | 2.0 | 8.504 | 2 | 35.592 | 8.684 | 33.668 | 2 |
| 2025-04-19T05:09:00 | 54.830624 | 6.845314 | 2.0 | 8.510 | 2 | 35.229 | 8.674 | 33.296 | 2 |
| 2025-04-19T05:10:00 | 54.829416 | 6.849696 | 2.0 | 8.531 | 2 | 35.166 | 8.685 | 33.219 | 2 |
| 2025-04-19T05:11:00 | 54.828268 | 6.854118 | 2.0 | 8.547 | 2 | 35.238 | 8.703 | 33.278 | 2 |
| 2025-04-19T05:12:00 | 54.827117 | 6.858495 | 2.0 | 8.546 | 2 | 35.005 | 8.717 | 33.020 | 2 |
| 2025-04-19T05:13:00 | 54.825961 | 6.862835 | 2.0 | 8.536 | 2 | 35.239 | 8.715 | 33.267 | 2 |
| 2025-04-19T05:14:00 | 54.824726 | 6.867125 | 2.0 | 8.540 | 2 | 35.188 | 8.708 | 33.221 | 2 |
| 2025-04-19T05:15:00 | 54.823625 | 6.871422 | 2.0 | 8.525 | 2 | 35.175 | 8.707 | 33.208 | 2 |
| 2025-04-19T05:16:00 | 54.822524 | 6.875713 | 2.0 | 8.503 | 2 | 35.210 | 8.691 | 33.260 | 2 |
| 2025-04-19T05:17:00 | 54.821338 | 6.879988 | 2.0 | 8.495 | 2 | 35.413 | 8.674 | 33.489 | 2 |
| 2025-04-19T05:18:00 | 54.820175 | 6.884295 | 2.0 | 8.474 | 2 | 35.312 | 8.663 | 33.393 | 2 |
| 2025-04-19T05:19:00 | 54.818959 | 6.888585 | 2.0 | 8.419 | 2 | 35.032 | 8.636 | 33.124 | 2 |
| 2025-04-19T05:20:00 | 54.817835 | 6.892907 | 2.0 | 8.359 | 2 | 35.099 | 8.581 | 33.246 | 2 |
| 2025-04-19T05:21:00 | 54.816668 | 6.897238 | 2.0 | 8.311 | 2 | 34.796 | 8.530 | 32.975 | 2 |
| 2025-04-19T05:22:00 | 54.815506 | 6.901570 | 2.0 | 8.273 | 2 | 34.746 | 8.480 | 32.969 | 2 |
| 2025-04-19T05:23:00 | 54.814334 | 6.905873 | 2.0 | 8.248 | 2 | 34.833 | 8.444 | 33.095 | 2 |
| 2025-04-19T05:24:00 | 54.813222 | 6.910228 | 2.0 | 8.289 | 2 | 34.811 | 8.424 | 33.091 | 2 |
| 2025-04-19T05:25:00 | 54.812043 | 6.914537 | 2.0 | 8.347 | 2 | 34.935 | 8.478 | 33.171 | 2 |
| 2025-04-19T05:26:00 | 54.810836 | 6.918870 | 2.0 | 8.364 | 2 | 34.963 | 8.512 | 33.168 | 2 |
| 2025-04-19T05:27:00 | 54.809693 | 6.923267 | 2.0 | 8.354 | 2 | 34.963 | 8.535 | 33.147 | 2 |
| 2025-04-19T05:28:00 | 54.808507 | 6.927648 | 2.0 | 8.356 | 2 | 35.073 | 8.525 | 33.272 | 2 |
| 2025-04-19T05:29:00 | 54.807316 | 6.932002 | 2.0 | 8.342 | 2 | 34.867 | 8.526 | 33.054 | 2 |
| 2025-04-19T05:30:00 | 54.806170 | 6.936399 | 2.0 | 8.288 | 2 | 35.053 | 8.506 | 33.269 | 2 |
| 2025-04-19T05:31:00 | 54.805000 | 6.940798 | 2.0 | 8.237 | 2 | 34.949 | 8.454 | 33.208 | 2 |
| 2025-04-19T05:32:00 | 54.803792 | 6.945199 | 2.0 | 8.243 | 2 | 34.810 | 8.414 | 33.099 | 2 |
| 2025-04-19T05:33:00 | 54.802602 | 6.949565 | 2.0 | 8.267 | 2 | 34.839 | 8.416 | 33.128 | 2 |
| 2025-04-19T05:34:00 | 54.801413 | 6.953949 | 2.0 | 8.320 | 2 | 35.013 | 8.446 | 33.283 | 2 |
| 2025-04-19T05:35:00 | 54.800261 | 6.958362 | 2.0 | 8.311 | 2 | 34.928 | 8.490 | 33.152 | 2 |
| 2025-04-19T05:36:00 | 54.799094 | 6.962729 | 2.0 | 8.257 | 2 | 34.986 | 8.466 | 33.236 | 2 |
| 2025-04-19T05:37:00 | 54.797839 | 6.967111 | 2.0 | 8.285 | 2 | 34.832 | 8.437 | 33.101 | 2 |
| 2025-04-19T05:38:00 | 54.796699 | 6.971527 | 2.0 | 8.290 | 2 | 34.875 | 8.456 | 33.128 | 2 |
| 2025-04-19T05:39:00 | 54.795518 | 6.975927 | 2.0 | 8.295 | 2 | 34.890 | 8.462 | 33.138 | 2 |
| 2025-04-19T05:40:00 | 54.794311 | 6.980350 | 2.0 | 8.276 | 2 | 34.547 | 8.460 | 32.778 | 2 |
| 2025-04-19T05:41:00 | 54.793106 | 6.984776 | 2.0 | 8.264 | 2 | 35.113 | 8.447 | 33.388 | 2 |
| 2025-04-19T05:42:00 | 54.791903 | 6.989212 | 2.0 | 8.245 | 2 | 35.098 | 8.430 | 33.388 | 2 |
| 2025-04-19T05:43:00 | 54.790725 | 6.993640 | 2.0 | 8.240 | 2 | 35.087 | 8.420 | 33.386 | 2 |
| 2025-04-19T05:44:00 | 54.789561 | 6.998049 | 2.0 | 8.244 | 2 | 35.078 | 8.405 | 33.391 | 2 |
| 2025-04-19T05:45:00 | 54.788341 | 7.002463 | 2.0 | 8.206 | 2 | 35.075 | 8.416 | 33.377 | 2 |
| 2025-04-19T05:46:00 | 54.787177 | 7.006824 | 2.0 | 8.137 | 2 | 35.034 | 8.362 | 33.385 | 2 |
| 2025-04-19T05:47:00 | 54.786025 | 7.011094 | 2.0 | 8.183 | 2 | 34.981 | 8.323 | 33.366 | 2 |
| 2025-04-19T05:48:00 | 54.784833 | 7.015420 | 2.0 | 8.217 | 2 | 35.001 | 8.357 | 33.355 | 2 |
| 2025-04-19T05:49:00 | 54.783623 | 7.019744 | 2.0 | 8.256 | 2 | 35.018 | 8.394 | 33.338 | 2 |
| 2025-04-19T05:50:00 | 54.782381 | 7.024038 | 2.0 | 8.274 | 2 | 35.034 | 8.426 | 33.324 | 2 |
| 2025-04-19T05:51:00 | 54.781167 | 7.028356 | 2.0 | 8.264 | 2 | 35.038 | 8.441 | 33.314 | 2 |
| 2025-04-19T05:52:00 | 54.779957 | 7.032695 | 2.0 | 8.244 | 2 | 35.025 | 8.431 | 33.310 | 2 |
| 2025-04-19T05:53:00 | 54.778745 | 7.037028 | 2.0 | 8.225 | 2 | 35.003 | 8.412 | 33.305 | 2 |
| 2025-04-19T05:54:00 | 54.777540 | 7.041346 | 2.0 | 8.264 | 2 | 34.985 | 8.402 | 33.295 | 2 |
| 2025-04-19T05:55:00 | 54.776288 | 7.045689 | 2.0 | 8.285 | 2 | 35.004 | 8.439 | 33.280 | 2 |
| 2025-04-19T05:56:00 | 54.775047 | 7.050029 | 2.0 | 8.266 | 2 | 35.003 | 8.451 | 33.268 | 2 |
| 2025-04-19T05:57:00 | 54.773869 | 7.054412 | 2.0 | 8.250 | 2 | 34.984 | 8.436 | 33.262 | 2 |
| 2025-04-19T05:58:00 | 54.772769 | 7.058833 | 2.0 | 8.143 | 2 | 34.962 | 8.418 | 33.256 | 2 |
| 2025-04-19T05:59:00 | 54.771724 | 7.063211 | 2.0 | 8.031 | 2 | 34.833 | 8.299 | 33.232 | 2 |
| 2025-04-19T06:00:00 | 54.770630 | 7.067608 | 2.0 | 7.790 | 2 | 34.658 | 8.163 | 33.175 | 2 |
| 2025-04-19T06:01:00 | 54.769585 | 7.071909 | 2.0 | 7.792 | 2 | 34.364 | 7.984 | 33.031 | 2 |
| 2025-04-19T06:02:00 | 54.768780 | 7.075475 | 2.0 | 7.797 | 2 | 34.276 | 7.971 | 32.949 | 2 |
| 2025-04-19T06:03:00 | 54.768203 | 7.078262 | 2.0 | 7.808 | 2 | 34.225 | 7.975 | 32.891 | 2 |
| 2025-04-19T06:04:00 | 54.767575 | 7.080699 | 2.0 | 7.827 | 2 | 34.207 | 7.985 | 32.862 | 2 |
| 2025-04-19T06:05:00 | 54.766860 | 7.083230 | 2.0 | 7.839 | 2 | 34.200 | 8.001 | 32.840 | 2 |
| 2025-04-19T06:06:00 | 54.766061 | 7.085152 | 2.0 | 7.826 | 2 | 34.197 | 8.008 | 32.830 | 2 |
| 2025-04-19T06:07:00 | 54.765538 | 7.084695 | 2.0 | 7.820 | 2 | 34.184 | 7.995 | 32.828 | 2 |
| 2025-04-19T06:08:00 | 54.765316 | 7.083935 | 2.0 | 7.819 | 2 | 34.182 | 7.992 | 32.829 | 2 |
| 2025-04-19T06:09:00 | 54.765178 | 7.083386 | 2.0 | 7.819 | 2 | 34.181 | 7.991 | 32.829 | 2 |
| 2025-04-19T06:10:00 | 54.765099 | 7.082778 | 2.0 | 7.819 | 2 | 34.180 | 7.991 | 32.828 | 2 |
| 2025-04-19T06:11:00 | 54.765058 | 7.082237 | 2.0 | 7.819 | 2 | 34.180 | 7.990 | 32.829 | 2 |
| 2025-04-19T06:12:00 | 54.765079 | 7.081781 | 2.0 | 7.817 | 2 | 34.179 | 7.989 | 32.829 | 2 |
| 2025-04-19T06:13:00 | 54.765130 | 7.081543 | 2.0 | 7.816 | 2 | 34.178 | 7.987 | 32.829 | 2 |
| 2025-04-19T06:14:00 | 54.765181 | 7.081469 | 2.0 | 7.815 | 2 | 34.178 | 7.986 | 32.830 | 2 |
| 2025-04-19T06:15:00 | 54.765311 | 7.081393 | 2.0 | 7.794 | 2 | 34.181 | 7.984 | 32.835 | 2 |
| 2025-04-19T06:16:00 | 54.765474 | 7.081223 | 2.0 | 7.795 | 2 | 34.209 | 7.964 | 32.884 | 2 |
| 2025-04-19T06:17:00 | 54.765624 | 7.081037 | 2.0 | 7.802 | 2 | 34.207 | 7.967 | 32.879 | 2 |
| 2025-04-19T06:18:00 | 54.765762 | 7.080896 | 2.0 | 7.807 | 2 | 34.200 | 7.973 | 32.866 | 2 |
| 2025-04-19T06:19:00 | 54.765894 | 7.080747 | 2.0 | 7.812 | 2 | 34.191 | 7.978 | 32.852 | 2 |
| 2025-04-19T06:20:00 | 54.766038 | 7.080585 | 2.0 | 7.814 | 2 | 34.186 | 7.983 | 32.842 | 2 |
| 2025-04-19T06:21:00 | 54.766055 | 7.080558 | 2.0 | 7.815 | 2 | 33.870 | 7.984 | 32.504 | 2 |
| 2025-04-19T06:22:00 | 54.766100 | 7.080644 | 2.0 | 7.817 | 2 | 34.182 | 7.986 | 32.835 | 2 |
| 2025-04-19T06:23:00 | 54.766130 | 7.080684 | 2.0 | 7.820 | 2 | 33.692 | 7.988 | 32.311 | 2 |
| 2025-04-19T06:24:00 | 54.766157 | 7.080603 | 2.0 | 7.821 | 2 | 33.944 | 7.991 | 32.576 | 2 |
| 2025-04-19T06:25:00 | 54.766128 | 7.080312 | 2.0 | 7.822 | 2 | 33.793 | 7.991 | 32.416 | 2 |
| 2025-04-19T06:26:00 | 54.766101 | 7.079797 | 2.0 | 7.822 | 2 | 34.029 | 7.992 | 32.666 | 2 |
| 2025-04-19T06:27:00 | 54.766200 | 7.079211 | 2.0 | 7.813 | 2 | 34.008 | 7.991 | 32.644 | 2 |
| 2025-04-19T06:28:00 | 54.766318 | 7.078810 | 2.0 | 7.816 | 2 | 33.900 | 7.984 | 32.536 | 2 |
| 2025-04-19T06:29:00 | 54.766406 | 7.078613 | 2.0 | 7.815 | 2 | 33.993 | 7.985 | 32.634 | 2 |
| 2025-04-19T06:30:00 | 54.766489 | 7.078461 | 2.0 | 7.819 | 2 | 33.532 | 7.985 | 32.143 | 2 |
| 2025-04-19T06:31:00 | 54.766591 | 7.078293 | 2.0 | 7.816 | 2 | 33.578 | 7.988 | 32.190 | 2 |
| 2025-04-19T06:32:00 | 54.766649 | 7.078201 | 2.0 | 7.813 | 2 | 34.184 | 7.986 | 32.837 | 2 |
| 2025-04-19T06:33:00 | 54.766672 | 7.078198 | 2.0 | 7.810 | 2 | 33.733 | 7.982 | 32.360 | 2 |
| 2025-04-19T06:34:00 | 54.766657 | 7.078236 | 2.0 | 7.807 | 2 | 33.956 | 7.978 | 32.601 | 2 |
| 2025-04-19T06:35:00 | 54.766697 | 7.078154 | 2.0 | 7.806 | 2 | 33.873 | 7.977 | 32.514 | 2 |
| 2025-04-19T06:36:00 | 54.766695 | 7.077881 | 2.0 | 7.809 | 2 | 34.133 | 7.976 | 32.792 | 2 |
| 2025-04-19T06:37:00 | 54.766808 | 7.077347 | 2.0 | 7.808 | 2 | 33.845 | 7.978 | 32.483 | 2 |
| 2025-04-19T06:38:00 | 54.766986 | 7.076990 | 2.0 | 7.807 | 2 | 33.838 | 7.978 | 32.475 | 2 |
| 2025-04-19T06:39:00 | 54.767088 | 7.076826 | 2.0 | 7.806 | 2 | 33.797 | 7.977 | 32.433 | 2 |
| 2025-04-19T06:40:00 | 54.767140 | 7.076775 | 2.0 | 7.801 | 2 | 34.031 | 7.975 | 32.684 | 2 |
| 2025-04-19T06:41:00 | 54.767111 | 7.076853 | 2.0 | 7.799 | 2 | 34.140 | 7.971 | 32.804 | 2 |
| 2025-04-19T06:42:00 | 54.767083 | 7.076979 | 2.0 | 7.800 | 2 | 33.902 | 7.969 | 32.552 | 2 |
| 2025-04-19T06:43:00 | 54.767052 | 7.077140 | 2.0 | 7.799 | 2 | 34.027 | 7.970 | 32.684 | 2 |
| 2025-04-19T06:44:00 | 54.767014 | 7.077269 | 2.0 | 7.798 | 2 | 33.934 | 7.969 | 32.586 | 2 |
| 2025-04-19T06:45:00 | 54.767049 | 7.077306 | 2.0 | 7.797 | 2 | 33.897 | 7.968 | 32.548 | 2 |
| 2025-04-19T06:46:00 | 54.767095 | 7.077322 | 2.0 | 7.798 | 2 | 33.744 | 7.967 | 32.386 | 2 |
| 2025-04-19T06:47:00 | 54.767087 | 7.077489 | 2.0 | 7.801 | 2 | 33.937 | 7.968 | 32.590 | 2 |
| 2025-04-19T06:48:00 | 54.767038 | 7.077686 | 2.0 | 7.805 | 2 | 33.930 | 7.971 | 32.580 | 2 |
| 2025-04-19T06:49:00 | 54.767049 | 7.077916 | 2.0 | 7.805 | 2 | 33.901 | 7.975 | 32.545 | 2 |
| 2025-04-19T06:50:00 | 54.767049 | 7.078087 | 2.0 | 7.804 | 2 | 33.841 | 7.981 | 32.476 | 2 |
| 2025-04-19T06:51:00 | 54.767036 | 7.078230 | 2.0 | 7.801 | 2 | 34.002 | 7.987 | 32.642 | 2 |
| 2025-04-19T06:52:00 | 54.767031 | 7.078304 | 2.0 | 7.799 | 2 | 33.900 | 7.989 | 32.531 | 2 |
| 2025-04-19T06:53:00 | 54.767020 | 7.078384 | 2.0 | 7.798 | 2 | 33.827 | 7.989 | 32.454 | 2 |
| 2025-04-19T06:54:00 | 54.767039 | 7.078403 | 2.0 | 7.798 | 2 | 34.022 | 7.991 | 32.659 | 2 |
| 2025-04-19T06:55:00 | 54.767094 | 7.078340 | 2.0 | 7.800 | 2 | 33.973 | 7.992 | 32.606 | 2 |
| 2025-04-19T06:56:00 | 54.767168 | 7.078235 | 2.0 | 7.800 | 2 | 33.945 | 7.993 | 32.575 | 2 |
| 2025-04-19T06:57:00 | 54.767178 | 7.078131 | 2.0 | 7.800 | 2 | 33.986 | 7.994 | 32.618 | 2 |
| 2025-04-19T06:58:00 | 54.767163 | 7.077967 | 2.0 | 7.800 | 2 | 33.860 | 7.995 | 32.483 | 2 |
| 2025-04-19T06:59:00 | 54.767163 | 7.077682 | 2.0 | 7.801 | 2 | 33.989 | 7.996 | 32.620 | 2 |
| 2025-04-19T07:00:00 | 54.767264 | 7.077147 | 2.0 | 7.800 | 2 | 33.970 | 7.997 | 32.598 | 2 |
| 2025-04-19T07:01:00 | 54.767716 | 7.076535 | 2.0 | 7.799 | 2 | 33.938 | 7.998 | 32.563 | 2 |
| 2025-04-19T07:02:00 | 54.768316 | 7.076634 | 2.0 | 7.796 | 2 | 33.945 | 7.996 | 32.573 | 2 |
| 2025-04-19T07:03:00 | 54.768719 | 7.078309 | 2.0 | 7.807 | 2 | 34.017 | 7.996 | 32.649 | 2 |
| 2025-04-19T07:04:00 | 54.768487 | 7.080792 | 2.0 | 7.816 | 2 | 33.934 | 8.007 | 32.551 | 2 |
| 2025-04-19T07:05:00 | 54.767461 | 7.083243 | 2.0 | 7.815 | 2 | 33.887 | 8.017 | 32.491 | 2 |
| 2025-04-19T07:06:00 | 54.766348 | 7.085627 | 2.0 | 7.812 | 2 | 33.890 | 8.013 | 32.498 | 2 |
| 2025-04-19T07:07:00 | 54.764940 | 7.087445 | 2.0 | 7.827 | 2 | 34.062 | 8.016 | 32.679 | 2 |
| 2025-04-19T07:08:00 | 54.763536 | 7.089320 | 2.0 | 7.840 | 2 | 34.097 | 8.030 | 32.703 | 2 |
| 2025-04-19T07:09:00 | 54.762012 | 7.090962 | 2.0 | 7.855 | 2 | 33.406 | 8.043 | 31.956 | 2 |
| 2025-04-19T07:10:00 | 54.760552 | 7.092928 | 2.0 | 7.857 | 2 | 34.191 | 8.056 | 32.779 | 2 |
| 2025-04-19T07:11:00 | 54.759017 | 7.094933 | 2.0 | 7.864 | 2 | 34.197 | 8.058 | 32.783 | 2 |
| 2025-04-19T07:12:00 | 54.757420 | 7.096663 | 2.0 | 7.870 | 2 | 34.207 | 8.067 | 32.785 | 2 |
| 2025-04-19T07:13:00 | 54.755928 | 7.098348 | 2.0 | 7.869 | 2 | 34.214 | 8.071 | 32.789 | 2 |
| 2025-04-19T07:14:00 | 54.754104 | 7.098954 | 2.0 | 7.868 | 2 | 34.215 | 8.070 | 32.791 | 2 |
| 2025-04-19T07:15:00 | 54.753431 | 7.097924 | 2.0 | 7.871 | 2 | 34.215 | 8.068 | 32.793 | 2 |
| 2025-04-19T07:16:00 | 54.753406 | 7.097068 | 2.0 | 7.873 | 2 | 34.218 | 8.073 | 32.791 | 2 |
| 2025-04-19T07:17:00 | 54.753642 | 7.096572 | 2.0 | 7.874 | 2 | 34.221 | 8.073 | 32.795 | 2 |
| 2025-04-19T07:18:00 | 54.753833 | 7.096447 | 2.0 | 7.874 | 2 | 34.222 | 8.075 | 32.794 | 2 |
| 2025-04-19T07:19:00 | 54.753923 | 7.096303 | 2.0 | 7.873 | 2 | 34.221 | 8.075 | 32.793 | 2 |
| 2025-04-19T07:20:00 | 54.753935 | 7.096238 | 2.0 | 7.871 | 2 | 34.221 | 8.073 | 32.795 | 2 |
| 2025-04-19T07:21:00 | 54.753856 | 7.096162 | 2.0 | 7.867 | 2 | 34.218 | 8.069 | 32.795 | 2 |
| 2025-04-19T07:22:00 | 54.753850 | 7.095941 | 2.0 | 7.847 | 2 | 34.227 | 8.066 | 32.807 | 2 |
| 2025-04-19T07:23:00 | 54.753882 | 7.095737 | 2.0 | 7.841 | 2 | 34.268 | 8.045 | 32.871 | 2 |
| 2025-04-19T07:24:00 | 54.753786 | 7.095499 | 2.0 | 7.848 | 2 | 34.270 | 8.042 | 32.876 | 2 |
| 2025-04-19T07:25:00 | 54.753610 | 7.095161 | 2.0 | 7.832 | 2 | 34.246 | 8.049 | 32.844 | 2 |
| 2025-04-19T07:26:00 | 54.753323 | 7.094925 | 2.0 | 7.843 | 2 | 34.258 | 8.030 | 32.874 | 2 |
| 2025-04-19T07:27:00 | 54.752998 | 7.094780 | 2.0 | 7.862 | 2 | 34.244 | 8.050 | 32.841 | 2 |
| 2025-04-19T07:28:00 | 54.752799 | 7.094768 | 2.0 | 7.864 | 2 | 34.215 | 8.064 | 32.797 | 2 |
| 2025-04-19T07:29:00 | 54.752917 | 7.095671 | 2.0 | 7.863 | 2 | 34.220 | 8.068 | 32.798 | 2 |
| 2025-04-19T07:30:00 | 54.753192 | 7.097156 | 2.0 | 7.856 | 2 | 33.855 | 8.069 | 32.409 | 2 |
| 2025-04-19T07:31:00 | 54.753468 | 7.098616 | 2.0 | 7.845 | 2 | 34.204 | 8.062 | 32.787 | 2 |
| 2025-04-19T07:32:00 | 54.753827 | 7.099195 | 2.0 | 7.841 | 2 | 34.188 | 8.051 | 32.780 | 2 |
| 2025-04-19T07:33:00 | 54.754459 | 7.099341 | 2.0 | 7.840 | 2 | 34.183 | 8.047 | 32.778 | 2 |
| 2025-04-19T07:34:00 | 54.755198 | 7.099791 | 2.0 | 7.840 | 2 | 34.184 | 8.045 | 32.781 | 2 |
| 2025-04-19T07:35:00 | 54.755790 | 7.100207 | 2.0 | 7.840 | 2 | 33.377 | 8.046 | 31.923 | 2 |
| 2025-04-19T07:36:00 | 54.755999 | 7.099892 | 2.0 | 7.839 | 2 | 33.759 | 8.045 | 32.329 | 2 |
| 2025-04-19T07:37:00 | 54.756123 | 7.099465 | 2.0 | 7.839 | 2 | 34.182 | 8.045 | 32.779 | 2 |
| 2025-04-19T07:38:00 | 54.756135 | 7.099334 | 2.0 | 7.837 | 2 | 33.888 | 8.044 | 32.467 | 2 |
| 2025-04-19T07:39:00 | 54.756166 | 7.099214 | 2.0 | 7.837 | 2 | 33.584 | 8.042 | 32.146 | 2 |
| 2025-04-19T07:40:00 | 54.756130 | 7.098823 | 2.0 | 7.839 | 2 | 33.672 | 8.042 | 32.240 | 2 |
| 2025-04-19T07:41:00 | 54.756460 | 7.098339 | 2.0 | 7.839 | 2 | 34.146 | 8.045 | 32.741 | 2 |
| 2025-04-19T07:42:00 | 54.757627 | 7.098653 | 2.0 | 7.839 | 2 | 33.988 | 8.048 | 32.570 | 2 |
| 2025-04-19T07:43:00 | 54.758269 | 7.100800 | 2.0 | 7.836 | 2 | 34.188 | 8.047 | 32.784 | 2 |
| 2025-04-19T07:44:00 | 54.758153 | 7.103852 | 2.0 | 7.841 | 2 | 34.012 | 8.045 | 32.598 | 2 |
| 2025-04-19T07:45:00 | 54.757094 | 7.106620 | 2.0 | 7.848 | 2 | 33.866 | 8.051 | 32.438 | 2 |
| 2025-04-19T07:46:00 | 54.755131 | 7.106753 | 2.0 | 7.847 | 2 | 33.368 | 8.056 | 31.904 | 2 |
| 2025-04-19T07:47:00 | 54.753188 | 7.107431 | 2.0 | 7.852 | 2 | 33.870 | 8.058 | 32.435 | 2 |
| 2025-04-19T07:48:00 | 54.751123 | 7.108457 | 2.0 | 7.860 | 2 | 34.135 | 8.063 | 32.712 | 2 |
| 2025-04-19T07:49:00 | 54.749051 | 7.109719 | 2.0 | 7.861 | 2 | 33.832 | 8.071 | 32.383 | 2 |
| 2025-04-19T07:50:00 | 54.746993 | 7.109832 | 2.0 | 7.859 | 2 | 33.711 | 8.070 | 32.255 | 2 |
| 2025-04-19T07:51:00 | 54.746362 | 7.108563 | 2.0 | 7.860 | 2 | 34.188 | 8.066 | 32.766 | 2 |
| 2025-04-19T07:52:00 | 54.746400 | 7.107831 | 2.0 | 7.861 | 2 | 33.592 | 8.067 | 32.132 | 2 |
| 2025-04-19T07:53:00 | 54.746463 | 7.107424 | 2.0 | 7.861 | 2 | 33.776 | 8.066 | 32.328 | 2 |
| 2025-04-19T07:54:00 | 54.746380 | 7.107288 | 2.0 | 7.822 | 2 | 33.811 | 8.052 | 32.378 | 2 |
| 2025-04-19T07:55:00 | 54.746402 | 7.107143 | 2.0 | 7.837 | 2 | 34.069 | 8.047 | 32.657 | 2 |
| 2025-04-19T07:56:00 | 54.746308 | 7.106986 | 2.0 | 7.830 | 2 | 34.065 | 8.036 | 32.663 | 2 |
| 2025-04-19T07:57:00 | 54.746254 | 7.106808 | 2.0 | 7.826 | 2 | 33.883 | 8.035 | 32.470 | 2 |
| 2025-04-19T07:58:00 | 54.746302 | 7.106483 | 2.0 | 7.818 | 2 | 33.835 | 8.033 | 32.421 | 2 |
| 2025-04-19T07:59:00 | 54.746378 | 7.105872 | 2.0 | 7.780 | 2 | 33.947 | 8.020 | 32.552 | 2 |
| 2025-04-19T08:00:00 | 54.746982 | 7.105606 | 2.0 | 7.854 | 2 | 33.789 | 8.010 | 32.394 | 2 |
| 2025-04-19T08:01:00 | 54.747728 | 7.107109 | 2.0 | 7.856 | 2 | 33.889 | 8.062 | 32.452 | 2 |
| 2025-04-19T08:02:00 | 54.748481 | 7.108997 | 2.0 | 7.855 | 2 | 33.728 | 8.069 | 32.274 | 2 |
| 2025-04-19T08:03:00 | 54.748973 | 7.108907 | 2.0 | 7.853 | 2 | 33.882 | 8.067 | 32.440 | 2 |
| 2025-04-19T08:04:00 | 54.749136 | 7.108767 | 2.0 | 7.853 | 2 | 33.730 | 8.065 | 32.280 | 2 |
| 2025-04-19T08:05:00 | 54.749123 | 7.108733 | 2.0 | 7.854 | 2 | 33.760 | 8.064 | 32.313 | 2 |
| 2025-04-19T08:06:00 | 54.749089 | 7.108648 | 2.0 | 7.855 | 2 | 34.021 | 8.065 | 32.589 | 2 |
| 2025-04-19T08:07:00 | 54.749054 | 7.108174 | 2.0 | 7.856 | 2 | 33.881 | 8.067 | 32.439 | 2 |
| 2025-04-19T08:08:00 | 54.749574 | 7.107239 | 2.0 | 7.853 | 2 | 33.788 | 8.066 | 32.341 | 2 |
| 2025-04-19T08:09:00 | 54.750598 | 7.106038 | 2.0 | 7.857 | 2 | 33.919 | 8.068 | 32.478 | 2 |
| 2025-04-19T08:10:00 | 54.751692 | 7.106469 | 2.0 | 7.858 | 2 | 33.959 | 8.070 | 32.519 | 2 |
| 2025-04-19T08:11:00 | 54.752992 | 7.107870 | 2.0 | 7.858 | 2 | 33.833 | 8.072 | 32.383 | 2 |
| 2025-04-19T08:12:00 | 54.754373 | 7.109609 | 2.0 | 7.860 | 2 | 33.852 | 8.074 | 32.401 | 2 |
| 2025-04-19T08:13:00 | 54.753931 | 7.111854 | 2.0 | 7.859 | 2 | 34.046 | 8.074 | 32.608 | 2 |
| 2025-04-19T08:14:00 | 54.752272 | 7.114389 | 2.0 | 7.858 | 2 | 34.156 | 8.076 | 32.723 | 2 |
| 2025-04-19T08:15:00 | 54.750285 | 7.117489 | 2.0 | 7.858 | 2 | 34.165 | 8.077 | 32.731 | 2 |
| 2025-04-19T08:16:00 | 54.748210 | 7.120726 | 2.0 | 7.863 | 2 | 34.177 | 8.077 | 32.744 | 2 |
| 2025-04-19T08:17:00 | 54.746132 | 7.124001 | 2.0 | 7.871 | 2 | 34.191 | 8.082 | 32.754 | 2 |
| 2025-04-19T08:18:00 | 54.744055 | 7.127323 | 2.0 | 7.870 | 2 | 34.203 | 8.077 | 32.772 | 2 |
| 2025-04-19T08:19:00 | 54.741975 | 7.130625 | 2.0 | 7.869 | 2 | 34.214 | 8.071 | 32.789 | 2 |
| 2025-04-19T08:20:00 | 54.739899 | 7.133929 | 2.0 | 7.867 | 2 | 34.225 | 8.065 | 32.806 | 2 |
| 2025-04-19T08:21:00 | 54.737807 | 7.137275 | 2.0 | 7.863 | 2 | 34.232 | 8.061 | 32.817 | 2 |
| 2025-04-19T08:22:00 | 54.735689 | 7.140674 | 2.0 | 7.860 | 2 | 34.238 | 8.056 | 32.829 | 2 |
| 2025-04-19T08:23:00 | 54.733556 | 7.144100 | 2.0 | 7.863 | 2 | 34.246 | 8.054 | 32.839 | 2 |
| 2025-04-19T08:24:00 | 54.731418 | 7.147535 | 2.0 | 7.870 | 2 | 34.256 | 8.054 | 32.850 | 2 |
| 2025-04-19T08:25:00 | 54.729280 | 7.150983 | 2.0 | 7.870 | 2 | 34.272 | 8.060 | 32.861 | 2 |
| 2025-04-19T08:26:00 | 54.727138 | 7.154432 | 2.0 | 7.856 | 2 | 34.272 | 8.055 | 32.866 | 2 |
| 2025-04-19T08:27:00 | 54.724994 | 7.157887 | 2.0 | 7.867 | 2 | 34.254 | 8.047 | 32.854 | 2 |
| 2025-04-19T08:28:00 | 54.722840 | 7.161360 | 2.0 | 7.876 | 2 | 34.252 | 8.056 | 32.843 | 2 |
| 2025-04-19T08:29:00 | 54.720706 | 7.164894 | 2.0 | 7.881 | 2 | 34.252 | 8.064 | 32.836 | 2 |
| 2025-04-19T08:30:00 | 54.718605 | 7.168506 | 2.0 | 7.927 | 2 | 34.246 | 8.076 | 32.818 | 2 |
| 2025-04-19T08:31:00 | 54.716531 | 7.172091 | 2.0 | 7.993 | 2 | 34.230 | 8.123 | 32.757 | 2 |
| 2025-04-19T08:32:00 | 54.714467 | 7.175677 | 2.0 | 8.032 | 2 | 34.227 | 8.180 | 32.701 | 2 |
| 2025-04-19T08:33:00 | 54.712390 | 7.179315 | 2.0 | 8.053 | 2 | 34.243 | 8.218 | 32.682 | 2 |
| 2025-04-19T08:34:00 | 54.710303 | 7.182944 | 2.0 | 8.058 | 2 | 34.238 | 8.236 | 32.660 | 2 |
| 2025-04-19T08:35:00 | 54.708218 | 7.186584 | 2.0 | 8.062 | 2 | 34.268 | 8.241 | 32.688 | 2 |
| 2025-04-19T08:36:00 | 54.706139 | 7.190234 | 2.0 | 8.066 | 2 | 34.298 | 8.246 | 32.715 | 2 |
| 2025-04-19T08:37:00 | 54.704074 | 7.193884 | 2.0 | 8.068 | 2 | 34.327 | 8.249 | 32.743 | 2 |
| 2025-04-19T08:38:00 | 54.702063 | 7.197530 | 2.0 | 8.075 | 2 | 34.338 | 8.252 | 32.751 | 2 |
| 2025-04-19T08:39:00 | 54.700460 | 7.201471 | 2.0 | 8.089 | 2 | 34.349 | 8.259 | 32.757 | 2 |
| 2025-04-19T08:40:00 | 54.698751 | 7.205528 | 2.0 | 8.093 | 2 | 34.369 | 8.271 | 32.767 | 2 |
| 2025-04-19T08:41:00 | 54.697021 | 7.209513 | 2.0 | 8.098 | 2 | 34.377 | 8.276 | 32.770 | 2 |
| 2025-04-19T08:42:00 | 54.695246 | 7.213545 | 2.0 | 8.104 | 2 | 34.391 | 8.281 | 32.780 | 2 |
| 2025-04-19T08:43:00 | 54.693442 | 7.217448 | 2.0 | 8.105 | 2 | 34.406 | 8.285 | 32.793 | 2 |
| 2025-04-19T08:44:00 | 54.691586 | 7.221338 | 2.0 | 8.111 | 2 | 34.420 | 8.288 | 32.805 | 2 |
| 2025-04-19T08:45:00 | 54.689761 | 7.224919 | 2.0 | 8.124 | 2 | 34.433 | 8.294 | 32.813 | 2 |
| 2025-04-19T08:46:00 | 54.687877 | 7.228093 | 2.0 | 8.132 | 2 | 34.450 | 8.306 | 32.820 | 2 |
| 2025-04-19T08:47:00 | 54.686426 | 7.230496 | 2.0 | 8.136 | 2 | 34.459 | 8.312 | 32.823 | 2 |
| 2025-04-19T08:48:00 | 54.685254 | 7.232051 | 2.0 | 8.137 | 2 | 34.462 | 8.314 | 32.825 | 2 |
| 2025-04-19T08:49:00 | 54.684645 | 7.231739 | 2.0 | 8.138 | 2 | 34.462 | 8.314 | 32.825 | 2 |
| 2025-04-19T08:50:00 | 54.684250 | 7.230980 | 2.0 | 8.141 | 2 | 34.469 | 8.316 | 32.830 | 2 |
| 2025-04-19T08:51:00 | 54.683932 | 7.230071 | 2.0 | 8.142 | 2 | 34.468 | 8.320 | 32.826 | 2 |
| 2025-04-19T08:52:00 | 54.683727 | 7.229477 | 2.0 | 8.143 | 2 | 34.471 | 8.321 | 32.828 | 2 |
| 2025-04-19T08:53:00 | 54.683570 | 7.229215 | 2.0 | 8.144 | 2 | 34.474 | 8.321 | 32.831 | 2 |
| 2025-04-19T08:54:00 | 54.683547 | 7.229045 | 2.0 | 8.144 | 2 | 34.475 | 8.320 | 32.833 | 2 |
| 2025-04-19T08:55:00 | 54.683584 | 7.228946 | 2.0 | 8.143 | 2 | 34.478 | 8.321 | 32.835 | 2 |
| 2025-04-19T08:56:00 | 54.683570 | 7.228822 | 2.0 | 8.140 | 2 | 34.477 | 8.319 | 32.836 | 2 |
| 2025-04-19T08:57:00 | 54.683571 | 7.228650 | 2.0 | 8.139 | 2 | 34.486 | 8.317 | 32.847 | 2 |
| 2025-04-19T08:58:00 | 54.683539 | 7.228571 | 2.0 | 8.136 | 2 | 34.488 | 8.315 | 32.851 | 2 |
| 2025-04-19T08:59:00 | 54.683553 | 7.228529 | 2.0 | 8.137 | 2 | 34.489 | 8.312 | 32.855 | 2 |
| 2025-04-19T09:00:00 | 54.683587 | 7.228825 | 2.0 | 8.146 | 2 | 34.487 | 8.317 | 32.848 | 2 |
| 2025-04-19T09:01:00 | 54.683523 | 7.229233 | 2.0 | 8.136 | 2 | 34.482 | 8.321 | 32.839 | 2 |
| 2025-04-19T09:02:00 | 54.683487 | 7.229658 | 2.0 | 8.142 | 2 | 34.494 | 8.309 | 32.863 | 2 |
| 2025-04-19T09:03:00 | 54.683657 | 7.230122 | 2.0 | 8.143 | 2 | 34.492 | 8.317 | 32.854 | 2 |
| 2025-04-19T09:04:00 | 54.683810 | 7.230563 | 2.0 | 8.139 | 2 | 34.484 | 8.319 | 32.843 | 2 |
| 2025-04-19T09:05:00 | 54.683830 | 7.231043 | 2.0 | 8.141 | 2 | 34.480 | 8.315 | 32.843 | 2 |
| 2025-04-19T09:06:00 | 54.683808 | 7.231513 | 2.0 | 8.145 | 2 | 34.475 | 8.317 | 32.836 | 2 |
| 2025-04-19T09:07:00 | 54.683864 | 7.232011 | 2.0 | 8.146 | 2 | 34.474 | 8.321 | 32.831 | 2 |
| 2025-04-19T09:08:00 | 54.683948 | 7.232441 | 2.0 | 8.146 | 2 | 34.473 | 8.322 | 32.829 | 2 |
| 2025-04-19T09:09:00 | 54.683940 | 7.232691 | 2.0 | 8.146 | 2 | 34.471 | 8.322 | 32.827 | 2 |
| 2025-04-19T09:10:00 | 54.683901 | 7.232789 | 2.0 | 8.146 | 2 | 34.472 | 8.322 | 32.828 | 2 |
| 2025-04-19T09:11:00 | 54.683813 | 7.232760 | 2.0 | 8.145 | 2 | 34.472 | 8.323 | 32.827 | 2 |
| 2025-04-19T09:12:00 | 54.683846 | 7.232620 | 2.0 | 8.133 | 2 | 34.473 | 8.320 | 32.831 | 2 |
| 2025-04-19T09:13:00 | 54.683860 | 7.232535 | 2.0 | 8.127 | 2 | 34.477 | 8.307 | 32.847 | 2 |
| 2025-04-19T09:14:00 | 54.683845 | 7.232429 | 2.0 | 8.138 | 2 | 34.478 | 8.308 | 32.847 | 2 |
| 2025-04-19T09:15:00 | 54.683696 | 7.232348 | 2.0 | 8.138 | 2 | 34.478 | 8.313 | 32.843 | 2 |
| 2025-04-19T09:16:00 | 54.683733 | 7.232170 | 2.0 | 8.143 | 2 | 34.477 | 8.313 | 32.842 | 2 |
| 2025-04-19T09:17:00 | 54.684278 | 7.232111 | 2.0 | 8.146 | 2 | 34.473 | 8.320 | 32.831 | 2 |
| 2025-04-19T09:18:00 | 54.684923 | 7.233022 | 2.0 | 8.141 | 2 | 34.469 | 8.319 | 32.828 | 2 |
| 2025-04-19T09:19:00 | 54.684554 | 7.234749 | 2.0 | 8.145 | 2 | 34.464 | 8.317 | 32.824 | 2 |
| 2025-04-19T09:20:00 | 54.683305 | 7.235894 | 2.0 | 8.153 | 2 | 34.346 | 8.322 | 32.695 | 2 |
| 2025-04-19T09:21:00 | 54.681920 | 7.237561 | 2.0 | 8.158 | 2 | 34.471 | 8.330 | 32.819 | 2 |
| 2025-04-19T09:22:00 | 54.680524 | 7.239549 | 2.0 | 8.158 | 2 | 34.471 | 8.334 | 32.816 | 2 |
| 2025-04-19T09:23:00 | 54.679247 | 7.240675 | 2.0 | 8.161 | 2 | 34.473 | 8.335 | 32.817 | 2 |
| 2025-04-19T09:24:00 | 54.678473 | 7.239931 | 2.0 | 8.159 | 2 | 33.934 | 8.336 | 32.247 | 2 |
| 2025-04-19T09:25:00 | 54.678269 | 7.239250 | 2.0 | 8.160 | 2 | 34.452 | 8.336 | 32.794 | 2 |
| 2025-04-19T09:26:00 | 54.678149 | 7.238804 | 2.0 | 8.160 | 2 | 33.917 | 8.336 | 32.229 | 2 |
| 2025-04-19T09:27:00 | 54.678087 | 7.238529 | 2.0 | 8.157 | 2 | 34.471 | 8.335 | 32.815 | 2 |
| 2025-04-19T09:28:00 | 54.678148 | 7.238634 | 2.0 | 8.159 | 2 | 34.078 | 8.332 | 32.402 | 2 |
| 2025-04-19T09:29:00 | 54.678356 | 7.239122 | 2.0 | 8.162 | 2 | 34.072 | 8.336 | 32.392 | 2 |
| 2025-04-19T09:30:00 | 54.678531 | 7.239644 | 2.0 | 8.164 | 2 | 34.082 | 8.337 | 32.402 | 2 |
| 2025-04-19T09:31:00 | 54.678660 | 7.240186 | 2.0 | 8.166 | 2 | 33.920 | 8.339 | 32.229 | 2 |
| 2025-04-19T09:32:00 | 54.678669 | 7.240760 | 2.0 | 8.167 | 2 | 34.031 | 8.340 | 32.346 | 2 |
| 2025-04-19T09:33:00 | 54.678669 | 7.241294 | 2.0 | 8.165 | 2 | 33.745 | 8.339 | 32.045 | 2 |
| 2025-04-19T09:34:00 | 54.678730 | 7.241459 | 2.0 | 8.163 | 2 | 34.111 | 8.340 | 32.430 | 2 |
| 2025-04-19T09:35:00 | 54.678761 | 7.241284 | 2.0 | 8.149 | 2 | 33.792 | 8.333 | 32.100 | 2 |
| 2025-04-19T09:36:00 | 54.678746 | 7.241051 | 2.0 | 8.160 | 2 | 33.852 | 8.326 | 32.170 | 2 |
| 2025-04-19T09:37:00 | 54.678718 | 7.240850 | 2.0 | 8.167 | 2 | 34.449 | 8.336 | 32.791 | 2 |
| 2025-04-19T09:38:00 | 54.678675 | 7.240753 | 2.0 | 8.167 | 2 | 34.110 | 8.341 | 32.428 | 2 |
| 2025-04-19T09:39:00 | 54.678714 | 7.240570 | 2.0 | 8.163 | 2 | 34.223 | 8.341 | 32.547 | 2 |
| 2025-04-19T09:40:00 | 54.678718 | 7.240431 | 2.0 | 8.168 | 2 | 34.274 | 8.339 | 32.603 | 2 |
| 2025-04-19T09:41:00 | 54.678735 | 7.240339 | 2.0 | 8.161 | 2 | 34.175 | 8.339 | 32.498 | 2 |
| 2025-04-19T09:42:00 | 54.678784 | 7.240239 | 2.0 | 8.166 | 2 | 34.120 | 8.336 | 32.443 | 2 |
| 2025-04-19T09:43:00 | 54.678820 | 7.240169 | 2.0 | 8.164 | 2 | 34.103 | 8.339 | 32.422 | 2 |
| 2025-04-19T09:44:00 | 54.678829 | 7.240122 | 2.0 | 8.166 | 2 | 34.150 | 8.336 | 32.475 | 2 |
| 2025-04-19T09:45:00 | 54.678873 | 7.239973 | 2.0 | 8.164 | 2 | 34.292 | 8.340 | 32.621 | 2 |
| 2025-04-19T09:46:00 | 54.678897 | 7.239831 | 2.0 | 8.167 | 2 | 34.116 | 8.338 | 32.437 | 2 |
| 2025-04-19T09:47:00 | 54.678928 | 7.239696 | 2.0 | 8.168 | 2 | 34.321 | 8.342 | 32.650 | 2 |
| 2025-04-19T09:48:00 | 54.678862 | 7.239576 | 2.0 | 8.172 | 2 | 34.021 | 8.342 | 32.333 | 2 |
| 2025-04-19T09:49:00 | 54.678880 | 7.239418 | 2.0 | 8.170 | 2 | 34.152 | 8.344 | 32.469 | 2 |
| 2025-04-19T09:50:00 | 54.678960 | 7.239211 | 2.0 | 8.173 | 2 | 34.215 | 8.346 | 32.534 | 2 |
| 2025-04-19T09:51:00 | 54.678981 | 7.239055 | 2.0 | 8.172 | 2 | 34.321 | 8.347 | 32.645 | 2 |
| 2025-04-19T09:52:00 | 54.679009 | 7.238903 | 2.0 | 8.175 | 2 | 34.093 | 8.346 | 32.405 | 2 |
| 2025-04-19T09:53:00 | 54.679170 | 7.239032 | 2.0 | 8.174 | 2 | 34.261 | 8.348 | 32.581 | 2 |
| 2025-04-19T09:54:00 | 54.679533 | 7.240037 | 2.0 | 8.177 | 2 | 34.318 | 8.348 | 32.641 | 2 |
| 2025-04-19T09:55:00 | 54.680310 | 7.240980 | 2.0 | 8.170 | 2 | 34.225 | 8.348 | 32.543 | 2 |
| 2025-04-19T09:56:00 | 54.681385 | 7.241705 | 2.0 | 8.162 | 2 | 34.280 | 8.343 | 32.605 | 2 |
| 2025-04-19T09:57:00 | 54.682493 | 7.242677 | 2.0 | 8.158 | 2 | 34.267 | 8.336 | 32.598 | 2 |
| 2025-04-19T09:58:00 | 54.683371 | 7.243353 | 2.0 | 8.148 | 2 | 34.125 | 8.330 | 32.454 | 2 |
| 2025-04-19T09:59:00 | 54.683829 | 7.244339 | 2.0 | 8.140 | 2 | 34.321 | 8.320 | 32.670 | 2 |
| 2025-04-19T10:00:00 | 54.684330 | 7.245209 | 2.0 | 8.132 | 2 | 34.106 | 8.313 | 32.450 | 2 |
| 2025-04-19T10:01:00 | 54.684480 | 7.245567 | 2.0 | 8.130 | 2 | 34.215 | 8.307 | 32.570 | 2 |
| 2025-04-19T10:02:00 | 54.684571 | 7.245537 | 2.0 | 8.127 | 2 | 34.223 | 8.303 | 32.582 | 2 |
| 2025-04-19T10:03:00 | 54.684783 | 7.245208 | 2.0 | 8.128 | 2 | 34.200 | 8.302 | 32.559 | 2 |
| 2025-04-19T10:04:00 | 54.684864 | 7.244900 | 2.0 | 8.126 | 2 | 34.263 | 8.302 | 32.626 | 2 |
| 2025-04-19T10:05:00 | 54.684840 | 7.244699 | 2.0 | 8.125 | 2 | 34.146 | 8.301 | 32.503 | 2 |
| 2025-04-19T10:06:00 | 54.684842 | 7.244508 | 2.0 | 8.126 | 2 | 34.139 | 8.299 | 32.497 | 2 |
| 2025-04-19T10:07:00 | 54.684872 | 7.244392 | 2.0 | 8.124 | 2 | 34.217 | 8.298 | 32.581 | 2 |
| 2025-04-19T10:08:00 | 54.684942 | 7.244231 | 2.0 | 8.128 | 2 | 34.276 | 8.298 | 32.643 | 2 |
| 2025-04-19T10:09:00 | 54.685160 | 7.244299 | 2.0 | 8.128 | 2 | 34.241 | 8.302 | 32.602 | 2 |
| 2025-04-19T10:10:00 | 54.685770 | 7.244866 | 2.0 | 8.123 | 2 | 34.185 | 8.299 | 32.546 | 2 |
| 2025-04-19T10:11:00 | 54.686630 | 7.245634 | 2.0 | 8.120 | 2 | 34.174 | 8.297 | 32.536 | 2 |
| 2025-04-19T10:12:00 | 54.687685 | 7.246628 | 2.0 | 8.115 | 2 | 34.191 | 8.293 | 32.558 | 2 |
| 2025-04-19T10:13:00 | 54.688568 | 7.247584 | 2.0 | 8.105 | 2 | 34.259 | 8.288 | 32.634 | 2 |
| 2025-04-19T10:14:00 | 54.689451 | 7.248316 | 2.0 | 8.096 | 2 | 34.200 | 8.278 | 32.581 | 2 |
| 2025-04-19T10:15:00 | 54.689970 | 7.248639 | 2.0 | 8.092 | 2 | 34.250 | 8.270 | 32.642 | 2 |
| 2025-04-19T10:16:00 | 54.689966 | 7.248577 | 2.0 | 8.089 | 2 | 34.246 | 8.265 | 32.642 | 2 |
| 2025-04-19T10:17:00 | 54.689904 | 7.248447 | 2.0 | 8.095 | 2 | 34.203 | 8.263 | 32.598 | 2 |
| 2025-04-19T10:18:00 | 54.689886 | 7.248279 | 2.0 | 8.091 | 2 | 34.225 | 8.267 | 32.618 | 2 |
| 2025-04-19T10:19:00 | 54.689892 | 7.248239 | 2.0 | 8.092 | 2 | 34.211 | 8.265 | 32.605 | 2 |
| 2025-04-19T10:20:00 | 54.689944 | 7.248145 | 2.0 | 8.088 | 2 | 34.210 | 8.264 | 32.605 | 2 |
| 2025-04-19T10:21:00 | 54.690110 | 7.248072 | 2.0 | 8.091 | 2 | 34.271 | 8.261 | 32.672 | 2 |
| 2025-04-19T10:22:00 | 54.690580 | 7.248748 | 2.0 | 8.090 | 2 | 34.256 | 8.264 | 32.653 | 2 |
| 2025-04-19T10:23:00 | 54.691081 | 7.250569 | 2.0 | 8.092 | 2 | 34.240 | 8.264 | 32.637 | 2 |
| 2025-04-19T10:24:00 | 54.691599 | 7.252707 | 2.0 | 8.094 | 2 | 34.264 | 8.266 | 32.660 | 2 |
| 2025-04-19T10:25:00 | 54.692119 | 7.254530 | 2.0 | 8.104 | 2 | 34.212 | 8.269 | 32.602 | 2 |
| 2025-04-19T10:26:00 | 54.692542 | 7.256144 | 2.0 | 8.114 | 2 | 34.226 | 8.278 | 32.609 | 2 |
| 2025-04-19T10:27:00 | 54.692515 | 7.257732 | 2.0 | 8.119 | 2 | 34.186 | 8.286 | 32.559 | 2 |
| 2025-04-19T10:28:00 | 54.691989 | 7.258154 | 2.0 | 8.114 | 2 | 34.235 | 8.290 | 32.607 | 2 |
| 2025-04-19T10:29:00 | 54.691755 | 7.257942 | 2.0 | 8.116 | 2 | 34.252 | 8.286 | 32.629 | 2 |
| 2025-04-19T10:30:00 | 54.691998 | 7.257517 | 2.0 | 8.114 | 2 | 34.277 | 8.290 | 32.652 | 2 |
| 2025-04-19T10:31:00 | 54.692104 | 7.257398 | 2.0 | 8.095 | 2 | 34.281 | 8.283 | 32.662 | 2 |
| 2025-04-19T10:32:00 | 54.691974 | 7.257244 | 2.0 | 8.116 | 2 | 34.287 | 8.273 | 32.678 | 2 |
| 2025-04-19T10:33:00 | 54.691968 | 7.256882 | 2.0 | 8.108 | 2 | 34.285 | 8.287 | 32.663 | 2 |
| 2025-04-19T10:34:00 | 54.691987 | 7.256684 | 2.0 | 8.109 | 2 | 34.286 | 8.282 | 32.668 | 2 |
| 2025-04-19T10:35:00 | 54.692000 | 7.256529 | 2.0 | 8.112 | 2 | 34.288 | 8.283 | 32.670 | 2 |
| 2025-04-19T10:36:00 | 54.692016 | 7.256437 | 2.0 | 8.111 | 2 | 34.289 | 8.285 | 32.669 | 2 |
| 2025-04-19T10:37:00 | 54.691993 | 7.256371 | 2.0 | 8.112 | 2 | 34.229 | 8.283 | 32.607 | 2 |
| 2025-04-19T10:38:00 | 54.692078 | 7.256284 | 2.0 | 8.111 | 2 | 34.294 | 8.283 | 32.676 | 2 |
| 2025-04-19T10:39:00 | 54.692404 | 7.257044 | 2.0 | 8.117 | 2 | 34.291 | 8.285 | 32.671 | 2 |
| 2025-04-19T10:40:00 | 54.693157 | 7.258162 | 2.0 | 8.121 | 2 | 34.283 | 8.289 | 32.659 | 2 |
| 2025-04-19T10:41:00 | 54.694105 | 7.259884 | 2.0 | 8.131 | 2 | 34.278 | 8.295 | 32.648 | 2 |
| 2025-04-19T10:42:00 | 54.695022 | 7.261861 | 2.0 | 8.142 | 2 | 34.272 | 8.307 | 32.630 | 2 |
| 2025-04-19T10:43:00 | 54.695423 | 7.263510 | 2.0 | 8.147 | 2 | 34.272 | 8.314 | 32.624 | 2 |
| 2025-04-19T10:44:00 | 54.695681 | 7.264285 | 2.0 | 8.154 | 2 | 34.269 | 8.319 | 32.616 | 2 |
| 2025-04-19T10:45:00 | 54.695678 | 7.264483 | 2.0 | 8.143 | 2 | 34.271 | 8.323 | 32.615 | 2 |
| 2025-04-19T10:46:00 | 54.695753 | 7.264187 | 2.0 | 8.147 | 2 | 34.266 | 8.316 | 32.616 | 2 |
| 2025-04-19T10:47:00 | 54.695848 | 7.263994 | 2.0 | 8.143 | 2 | 34.267 | 8.317 | 32.616 | 2 |
| 2025-04-19T10:48:00 | 54.695827 | 7.263796 | 2.0 | 8.145 | 2 | 33.454 | 8.316 | 31.759 | 2 |
| 2025-04-19T10:49:00 | 54.695873 | 7.263517 | 2.0 | 8.140 | 2 | 34.197 | 8.317 | 32.542 | 2 |
| 2025-04-19T10:50:00 | 54.695938 | 7.263373 | 2.0 | 8.139 | 2 | 34.021 | 8.312 | 32.361 | 2 |
| 2025-04-19T10:51:00 | 54.695975 | 7.263264 | 2.0 | 8.140 | 2 | 33.687 | 8.311 | 32.009 | 2 |
| 2025-04-19T10:52:00 | 54.696036 | 7.263089 | 2.0 | 8.138 | 2 | 33.507 | 8.312 | 31.819 | 2 |
| 2025-04-19T10:53:00 | 54.696032 | 7.262909 | 2.0 | 8.136 | 2 | 33.843 | 8.309 | 32.176 | 2 |
| 2025-04-19T10:54:00 | 54.696385 | 7.263062 | 2.0 | 8.144 | 2 | 33.702 | 8.308 | 32.028 | 2 |
| 2025-04-19T10:55:00 | 54.697237 | 7.263574 | 2.0 | 8.140 | 2 | 33.583 | 8.316 | 31.895 | 2 |
| 2025-04-19T10:56:00 | 54.698156 | 7.264075 | 2.0 | 8.140 | 2 | 33.481 | 8.313 | 31.791 | 2 |
| 2025-04-19T10:57:00 | 54.698375 | 7.263919 | 2.0 | 8.139 | 2 | 33.779 | 8.313 | 32.104 | 2 |
| 2025-04-19T10:58:00 | 54.698288 | 7.263662 | 2.0 | 8.137 | 2 | 34.257 | 8.309 | 32.613 | 2 |
| 2025-04-19T10:59:00 | 54.698417 | 7.263615 | 2.0 | 8.133 | 2 | 34.257 | 8.309 | 32.613 | 2 |
| 2025-04-19T11:00:00 | 54.698620 | 7.263488 | 2.0 | 8.133 | 2 | 34.258 | 8.306 | 32.617 | 2 |
| 2025-04-19T11:01:00 | 54.698558 | 7.263401 | 2.0 | 8.129 | 2 | 34.258 | 8.305 | 32.617 | 2 |
| 2025-04-19T11:02:00 | 54.698505 | 7.263234 | 2.0 | 8.128 | 2 | 34.257 | 8.302 | 32.619 | 2 |
| 2025-04-19T11:03:00 | 54.698440 | 7.263134 | 2.0 | 8.126 | 2 | 34.255 | 8.298 | 32.621 | 2 |
| 2025-04-19T11:04:00 | 54.698478 | 7.262970 | 2.0 | 8.127 | 2 | 34.256 | 8.299 | 32.621 | 2 |
| 2025-04-19T11:05:00 | 54.698507 | 7.262902 | 2.0 | 8.124 | 2 | 34.257 | 8.298 | 32.623 | 2 |
| 2025-04-19T11:06:00 | 54.698475 | 7.262783 | 2.0 | 8.124 | 2 | 34.258 | 8.296 | 32.626 | 2 |
| 2025-04-19T11:07:00 | 54.698653 | 7.262422 | 2.0 | 8.125 | 2 | 34.259 | 8.295 | 32.628 | 2 |
| 2025-04-19T11:08:00 | 54.698840 | 7.263002 | 2.0 | 8.127 | 2 | 34.260 | 8.296 | 32.628 | 2 |
| 2025-04-19T11:09:00 | 54.698618 | 7.264721 | 2.0 | 8.131 | 2 | 34.261 | 8.298 | 32.627 | 2 |
| 2025-04-19T11:10:00 | 54.697486 | 7.265490 | 2.0 | 8.121 | 2 | 34.262 | 8.299 | 32.627 | 2 |
| 2025-04-19T11:11:00 | 54.695925 | 7.264971 | 2.0 | 8.136 | 2 | 34.263 | 8.298 | 32.629 | 2 |
| 2025-04-19T11:12:00 | 54.694361 | 7.264320 | 2.0 | 8.127 | 2 | 34.264 | 8.305 | 32.624 | 2 |
| 2025-04-19T11:13:00 | 54.692516 | 7.263915 | 2.0 | 8.124 | 2 | 34.282 | 8.298 | 32.649 | 2 |
| 2025-04-19T11:14:00 | 54.690052 | 7.263539 | 2.0 | 8.121 | 2 | 34.299 | 8.299 | 32.666 | 2 |
| 2025-04-19T11:15:00 | 54.687368 | 7.263131 | 2.0 | 8.120 | 2 | 34.355 | 8.292 | 32.732 | 2 |
| 2025-04-19T11:16:00 | 54.684708 | 7.262416 | 2.0 | 8.140 | 2 | 34.384 | 8.299 | 32.756 | 2 |
| 2025-04-19T11:17:00 | 54.682277 | 7.260635 | 2.0 | 8.158 | 2 | 34.409 | 8.316 | 32.767 | 2 |
| 2025-04-19T11:18:00 | 54.679890 | 7.258477 | 2.0 | 8.182 | 2 | 34.430 | 8.334 | 32.772 | 2 |
| 2025-04-19T11:19:00 | 54.677714 | 7.255905 | 2.0 | 8.202 | 2 | 34.481 | 8.356 | 32.806 | 2 |
| 2025-04-19T11:20:00 | 54.675661 | 7.253738 | 2.0 | 8.221 | 2 | 34.521 | 8.379 | 32.826 | 2 |
| 2025-04-19T11:21:00 | 54.674180 | 7.252008 | 2.0 | 8.226 | 2 | 34.546 | 8.392 | 32.841 | 2 |
| 2025-04-19T11:22:00 | 54.672981 | 7.250713 | 2.0 | 8.265 | 2 | 34.574 | 8.400 | 32.863 | 2 |
| 2025-04-19T11:23:00 | 54.672017 | 7.249731 | 2.0 | 8.300 | 2 | 34.628 | 8.440 | 32.882 | 2 |
| 2025-04-19T11:24:00 | 54.671802 | 7.249211 | 2.0 | 8.313 | 2 | 34.656 | 8.473 | 32.881 | 2 |
| 2025-04-19T11:25:00 | 54.671704 | 7.249080 | 2.0 | 8.313 | 2 | 34.662 | 8.481 | 32.880 | 2 |
| 2025-04-19T11:26:00 | 54.671721 | 7.248902 | 2.0 | 8.320 | 2 | 34.664 | 8.484 | 32.879 | 2 |
| 2025-04-19T11:27:00 | 54.671770 | 7.248781 | 2.0 | 8.317 | 2 | 34.667 | 8.490 | 32.877 | 2 |
| 2025-04-19T11:28:00 | 54.671817 | 7.248681 | 2.0 | 8.321 | 2 | 34.665 | 8.487 | 32.878 | 2 |
| 2025-04-19T11:29:00 | 54.671836 | 7.248582 | 2.0 | 8.320 | 2 | 34.669 | 8.491 | 32.878 | 2 |
| 2025-04-19T11:30:00 | 54.671865 | 7.248435 | 2.0 | 8.324 | 2 | 34.669 | 8.491 | 32.878 | 2 |
| 2025-04-19T11:31:00 | 54.671653 | 7.247978 | 2.0 | 8.332 | 2 | 34.671 | 8.495 | 32.876 | 2 |
| 2025-04-19T11:32:00 | 54.671080 | 7.247380 | 2.0 | 8.350 | 2 | 34.676 | 8.505 | 32.872 | 2 |
| 2025-04-19T11:33:00 | 54.670211 | 7.247296 | 2.0 | 8.370 | 2 | 34.685 | 8.522 | 32.866 | 2 |
| 2025-04-19T11:34:00 | 54.669117 | 7.247588 | 2.0 | 8.393 | 2 | 34.697 | 8.544 | 32.858 | 2 |
| 2025-04-19T11:35:00 | 54.668594 | 7.247352 | 2.0 | 8.399 | 2 | 34.702 | 8.562 | 32.847 | 2 |
| 2025-04-19T11:36:00 | 54.668545 | 7.247101 | 2.0 | 8.400 | 2 | 34.707 | 8.568 | 32.846 | 2 |
| 2025-04-19T11:37:00 | 54.668703 | 7.246838 | 2.0 | 8.395 | 2 | 34.709 | 8.568 | 32.848 | 2 |
| 2025-04-19T11:38:00 | 54.668751 | 7.246749 | 2.0 | 8.397 | 2 | 34.711 | 8.566 | 32.852 | 2 |
| 2025-04-19T11:39:00 | 54.668844 | 7.246589 | 2.0 | 8.396 | 2 | 34.716 | 8.567 | 32.857 | 2 |
| 2025-04-19T11:40:00 | 54.668847 | 7.246443 | 2.0 | 8.395 | 2 | 34.716 | 8.564 | 32.860 | 2 |
| 2025-04-19T11:41:00 | 54.668812 | 7.246292 | 2.0 | 8.387 | 2 | 34.720 | 8.564 | 32.864 | 2 |
| 2025-04-19T11:42:00 | 54.668825 | 7.246148 | 2.0 | 8.386 | 2 | 34.720 | 8.558 | 32.869 | 2 |
| 2025-04-19T11:43:00 | 54.668848 | 7.246069 | 2.0 | 8.383 | 2 | 34.723 | 8.555 | 32.875 | 2 |
| 2025-04-19T11:44:00 | 54.668900 | 7.245963 | 2.0 | 8.382 | 2 | 34.725 | 8.553 | 32.879 | 2 |
| 2025-04-19T11:45:00 | 54.668928 | 7.245888 | 2.0 | 8.383 | 2 | 34.730 | 8.554 | 32.884 | 2 |
| 2025-04-19T11:46:00 | 54.668855 | 7.245821 | 2.0 | 8.382 | 2 | 34.734 | 8.553 | 32.889 | 2 |
| 2025-04-19T11:47:00 | 54.668829 | 7.245712 | 2.0 | 8.380 | 2 | 34.736 | 8.553 | 32.891 | 2 |
| 2025-04-19T11:48:00 | 54.668890 | 7.245567 | 2.0 | 8.374 | 2 | 34.736 | 8.549 | 32.895 | 2 |
| 2025-04-19T11:49:00 | 54.668951 | 7.245465 | 2.0 | 8.370 | 2 | 34.735 | 8.544 | 32.898 | 2 |
| 2025-04-19T11:50:00 | 54.668969 | 7.245426 | 2.0 | 8.378 | 2 | 34.737 | 8.543 | 32.901 | 2 |
| 2025-04-19T11:51:00 | 54.668993 | 7.245330 | 2.0 | 8.375 | 2 | 34.744 | 8.548 | 32.904 | 2 |
| 2025-04-19T11:52:00 | 54.668998 | 7.245242 | 2.0 | 8.365 | 2 | 34.442 | 8.544 | 32.590 | 2 |
| 2025-04-19T11:53:00 | 54.669001 | 7.245229 | 2.0 | 8.372 | 2 | 34.737 | 8.536 | 32.908 | 2 |
| 2025-04-19T11:54:00 | 54.669178 | 7.245669 | 2.0 | 8.366 | 2 | 34.742 | 8.540 | 32.909 | 2 |
| 2025-04-19T11:55:00 | 54.669413 | 7.246411 | 2.0 | 8.367 | 2 | 34.642 | 8.538 | 32.806 | 2 |
| 2025-04-19T11:56:00 | 54.669501 | 7.247143 | 2.0 | 8.360 | 2 | 34.739 | 8.534 | 32.912 | 2 |
| 2025-04-19T11:57:00 | 54.669565 | 7.247689 | 2.0 | 8.362 | 2 | 34.671 | 8.532 | 32.842 | 2 |
| 2025-04-19T11:58:00 | 54.669466 | 7.248020 | 2.0 | 8.360 | 2 | 34.381 | 8.532 | 32.537 | 2 |
| 2025-04-19T11:59:00 | 54.669437 | 7.247906 | 2.0 | 8.355 | 2 | 34.300 | 8.529 | 32.455 | 2 |
| 2025-04-19T12:00:00 | 54.669464 | 7.247786 | 2.0 | 8.354 | 2 | 33.996 | 8.526 | 32.138 | 2 |
| 2025-04-19T12:01:00 | 54.669503 | 7.247627 | 2.0 | 8.352 | 2 | 34.735 | 8.527 | 32.914 | 2 |
| 2025-04-19T12:02:00 | 54.669537 | 7.247469 | 2.0 | 8.347 | 2 | 34.373 | 8.522 | 32.538 | 2 |
| 2025-04-19T12:03:00 | 54.669487 | 7.247408 | 2.0 | 8.348 | 2 | 34.590 | 8.518 | 32.770 | 2 |
| 2025-04-19T12:04:00 | 54.669441 | 7.247267 | 2.0 | 8.344 | 2 | 34.735 | 8.518 | 32.922 | 2 |
| 2025-04-19T12:05:00 | 54.669499 | 7.247080 | 2.0 | 8.340 | 2 | 34.358 | 8.513 | 32.530 | 2 |
| 2025-04-19T12:06:00 | 54.669517 | 7.246987 | 2.0 | 8.346 | 2 | 34.736 | 8.514 | 32.927 | 2 |
| 2025-04-19T12:07:00 | 54.669552 | 7.246894 | 2.0 | 8.350 | 2 | 34.740 | 8.518 | 32.928 | 2 |
| 2025-04-19T12:08:00 | 54.669568 | 7.246756 | 2.0 | 8.341 | 2 | 34.287 | 8.518 | 32.451 | 2 |
| 2025-04-19T12:09:00 | 54.669610 | 7.246628 | 2.0 | 8.341 | 2 | 34.072 | 8.511 | 32.232 | 2 |
| 2025-04-19T12:10:00 | 54.669644 | 7.246521 | 2.0 | 8.334 | 2 | 34.477 | 8.509 | 32.659 | 2 |
| 2025-04-19T12:11:00 | 54.669596 | 7.246443 | 2.0 | 8.335 | 2 | 34.727 | 8.506 | 32.925 | 2 |
| 2025-04-19T12:12:00 | 54.669503 | 7.246419 | 2.0 | 8.337 | 2 | 33.966 | 8.506 | 32.125 | 2 |
| 2025-04-19T12:13:00 | 54.669550 | 7.246371 | 2.0 | 8.339 | 2 | 34.319 | 8.507 | 32.495 | 2 |
| 2025-04-19T12:14:00 | 54.669734 | 7.246974 | 2.0 | 8.332 | 2 | 34.356 | 8.506 | 32.535 | 2 |
| 2025-04-19T12:15:00 | 54.669781 | 7.248558 | 2.0 | 8.329 | 2 | 34.215 | 8.502 | 32.390 | 2 |
| 2025-04-19T12:16:00 | 54.670233 | 7.251128 | 2.0 | 8.322 | 2 | 34.050 | 8.499 | 32.220 | 2 |
| 2025-04-19T12:17:00 | 54.670915 | 7.254434 | 2.0 | 8.308 | 2 | 34.249 | 8.492 | 32.435 | 2 |
| 2025-04-19T12:18:00 | 54.671527 | 7.257920 | 2.0 | 8.286 | 2 | 34.384 | 8.478 | 32.590 | 2 |
| 2025-04-19T12:19:00 | 54.671969 | 7.260833 | 2.0 | 8.273 | 2 | 33.796 | 8.457 | 31.991 | 2 |
| 2025-04-19T12:20:00 | 54.672296 | 7.263433 | 2.0 | 8.263 | 2 | 33.786 | 8.444 | 31.993 | 2 |
| 2025-04-19T12:21:00 | 54.672528 | 7.265810 | 2.0 | 8.252 | 2 | 34.219 | 8.432 | 32.459 | 2 |
| 2025-04-19T12:22:00 | 54.672761 | 7.268226 | 2.0 | 8.247 | 2 | 34.055 | 8.422 | 32.295 | 2 |
| 2025-04-19T12:23:00 | 54.673046 | 7.270783 | 2.0 | 8.241 | 2 | 33.926 | 8.418 | 32.163 | 2 |
| 2025-04-19T12:24:00 | 54.673253 | 7.273014 | 2.0 | 8.232 | 2 | 33.853 | 8.411 | 32.093 | 2 |
| 2025-04-19T12:25:00 | 54.672785 | 7.274320 | 2.0 | 8.233 | 2 | 34.033 | 8.403 | 32.290 | 2 |
| 2025-04-19T12:26:00 | 54.672356 | 7.274432 | 2.0 | 8.233 | 2 | 34.281 | 8.404 | 32.550 | 2 |
| 2025-04-19T12:27:00 | 54.672283 | 7.274047 | 2.0 | 8.235 | 2 | 33.860 | 8.405 | 32.106 | 2 |
| 2025-04-19T12:28:00 | 54.672429 | 7.273636 | 2.0 | 8.235 | 2 | 34.251 | 8.407 | 32.516 | 2 |
| 2025-04-19T12:29:00 | 54.672523 | 7.273452 | 2.0 | 8.230 | 2 | 33.906 | 8.405 | 32.154 | 2 |
| 2025-04-19T12:30:00 | 54.672564 | 7.273311 | 2.0 | 8.241 | 2 | 34.264 | 8.401 | 32.535 | 2 |
| 2025-04-19T12:31:00 | 54.672618 | 7.273112 | 2.0 | 8.242 | 2 | 33.970 | 8.412 | 32.215 | 2 |
| 2025-04-19T12:32:00 | 54.672677 | 7.272914 | 2.0 | 8.243 | 2 | 34.358 | 8.413 | 32.623 | 2 |
| 2025-04-19T12:33:00 | 54.672747 | 7.272772 | 2.0 | 8.241 | 2 | 34.347 | 8.411 | 32.613 | 2 |
| 2025-04-19T12:34:00 | 54.673320 | 7.273099 | 2.0 | 8.239 | 2 | 34.055 | 8.411 | 32.306 | 2 |
| 2025-04-19T12:35:00 | 54.674347 | 7.274098 | 2.0 | 8.228 | 2 | 34.192 | 8.408 | 32.453 | 2 |
| 2025-04-19T12:36:00 | 54.675160 | 7.275505 | 2.0 | 8.219 | 2 | 34.475 | 8.399 | 32.759 | 2 |
| 2025-04-19T12:37:00 | 54.675540 | 7.276492 | 2.0 | 8.210 | 2 | 34.197 | 8.388 | 32.476 | 2 |
| 2025-04-19T12:38:00 | 54.675734 | 7.276298 | 2.0 | 8.210 | 2 | 34.326 | 8.380 | 32.620 | 2 |
| 2025-04-19T12:39:00 | 54.675718 | 7.276035 | 2.0 | 8.215 | 2 | 34.236 | 8.382 | 32.523 | 2 |
| 2025-04-19T12:40:00 | 54.675683 | 7.275865 | 2.0 | 8.220 | 2 | 34.198 | 8.386 | 32.479 | 2 |
| 2025-04-19T12:41:00 | 54.675720 | 7.275685 | 2.0 | 8.227 | 2 | 34.382 | 8.392 | 32.668 | 2 |
| 2025-04-19T12:42:00 | 54.675775 | 7.275532 | 2.0 | 8.229 | 2 | 34.132 | 8.398 | 32.399 | 2 |
| 2025-04-19T12:43:00 | 54.675746 | 7.275474 | 2.0 | 8.233 | 2 | 34.131 | 8.400 | 32.396 | 2 |
| 2025-04-19T12:44:00 | 54.675779 | 7.275353 | 2.0 | 8.230 | 2 | 34.158 | 8.401 | 32.423 | 2 |
| 2025-04-19T12:45:00 | 54.676403 | 7.275634 | 2.0 | 8.220 | 2 | 34.154 | 8.400 | 32.420 | 2 |
| 2025-04-19T12:46:00 | 54.677471 | 7.276245 | 2.0 | 8.207 | 2 | 34.200 | 8.390 | 32.478 | 2 |
| 2025-04-19T12:47:00 | 54.678690 | 7.277230 | 2.0 | 8.199 | 2 | 34.193 | 8.379 | 32.480 | 2 |
| 2025-04-19T12:48:00 | 54.679922 | 7.278251 | 2.0 | 8.191 | 2 | 34.141 | 8.368 | 32.436 | 2 |
| 2025-04-19T12:49:00 | 54.680983 | 7.279308 | 2.0 | 8.180 | 2 | 34.218 | 8.361 | 32.523 | 2 |
| 2025-04-19T12:50:00 | 54.681907 | 7.280215 | 2.0 | 8.173 | 2 | 34.131 | 8.350 | 32.442 | 2 |
| 2025-04-19T12:51:00 | 54.682849 | 7.281185 | 2.0 | 8.168 | 2 | 34.230 | 8.345 | 32.551 | 2 |
| 2025-04-19T12:52:00 | 54.683629 | 7.281981 | 2.0 | 8.162 | 2 | 34.183 | 8.339 | 32.507 | 2 |
| 2025-04-19T12:53:00 | 54.683859 | 7.282090 | 2.0 | 8.164 | 2 | 34.182 | 8.332 | 32.512 | 2 |
| 2025-04-19T12:54:00 | 54.683977 | 7.281855 | 2.0 | 8.163 | 2 | 34.182 | 8.334 | 32.510 | 2 |
| 2025-04-19T12:55:00 | 54.684001 | 7.281653 | 2.0 | 8.161 | 2 | 34.217 | 8.333 | 32.548 | 2 |
| 2025-04-19T12:56:00 | 54.684014 | 7.281495 | 2.0 | 8.160 | 2 | 34.308 | 8.332 | 32.645 | 2 |
| 2025-04-19T12:57:00 | 54.684085 | 7.281283 | 2.0 | 8.168 | 2 | 34.197 | 8.333 | 32.527 | 2 |
| 2025-04-19T12:58:00 | 54.684051 | 7.281238 | 2.0 | 8.171 | 2 | 34.198 | 8.339 | 32.523 | 2 |
| 2025-04-19T12:59:00 | 54.684280 | 7.280748 | 2.0 | 8.157 | 2 | 34.256 | 8.336 | 32.587 | 2 |
| 2025-04-19T13:00:00 | 54.684746 | 7.279826 | 2.0 | 8.163 | 2 | 34.231 | 8.329 | 32.567 | 2 |
| 2025-04-19T13:01:00 | 54.685367 | 7.277908 | 2.0 | 8.174 | 2 | 34.216 | 8.334 | 32.546 | 2 |
| 2025-04-19T13:02:00 | 54.686342 | 7.274759 | 2.0 | 8.182 | 2 | 34.250 | 8.350 | 32.567 | 2 |
| 2025-04-19T13:03:00 | 54.687356 | 7.271149 | 2.0 | 8.181 | 2 | 34.278 | 8.355 | 32.592 | 2 |
| 2025-04-19T13:04:00 | 54.688385 | 7.267393 | 2.0 | 8.184 | 2 | 34.390 | 8.356 | 32.710 | 2 |
| 2025-04-19T13:05:00 | 54.689452 | 7.263559 | 2.0 | 8.192 | 2 | 34.384 | 8.358 | 32.701 | 2 |
| 2025-04-19T13:06:00 | 54.690484 | 7.259822 | 2.0 | 8.203 | 2 | 34.384 | 8.368 | 32.692 | 2 |
| 2025-04-19T13:07:00 | 54.691513 | 7.256116 | 2.0 | 8.225 | 2 | 34.383 | 8.377 | 32.683 | 2 |
| 2025-04-19T13:08:00 | 54.692512 | 7.252419 | 2.0 | 8.240 | 2 | 34.389 | 8.399 | 32.669 | 2 |
| 2025-04-19T13:09:00 | 54.693582 | 7.248574 | 2.0 | 8.245 | 2 | 34.398 | 8.412 | 32.666 | 2 |
| 2025-04-19T13:10:00 | 54.694650 | 7.244659 | 2.0 | 8.254 | 2 | 34.404 | 8.421 | 32.664 | 2 |
| 2025-04-19T13:11:00 | 54.695721 | 7.240747 | 2.0 | 8.249 | 2 | 34.413 | 8.425 | 32.670 | 2 |
| 2025-04-19T13:12:00 | 54.696758 | 7.236976 | 2.0 | 8.239 | 2 | 34.422 | 8.419 | 32.685 | 2 |
| 2025-04-19T13:13:00 | 54.697766 | 7.233251 | 2.0 | 8.230 | 2 | 34.425 | 8.409 | 32.697 | 2 |
| 2025-04-19T13:14:00 | 54.698820 | 7.229410 | 2.0 | 8.222 | 2 | 34.425 | 8.403 | 32.703 | 2 |
| 2025-04-19T13:15:00 | 54.699855 | 7.225637 | 2.0 | 8.195 | 2 | 34.420 | 8.391 | 32.709 | 2 |
| 2025-04-19T13:16:00 | 54.700904 | 7.221914 | 2.0 | 8.184 | 2 | 34.408 | 8.367 | 32.718 | 2 |
| 2025-04-19T13:17:00 | 54.702000 | 7.218058 | 2.0 | 8.154 | 2 | 34.403 | 8.354 | 32.725 | 2 |
| 2025-04-19T13:18:00 | 54.703056 | 7.214285 | 2.0 | 8.120 | 2 | 34.393 | 8.325 | 32.742 | 2 |
| 2025-04-19T13:19:00 | 54.704139 | 7.210419 | 2.0 | 8.100 | 2 | 34.386 | 8.293 | 32.764 | 2 |
| 2025-04-19T13:20:00 | 54.705185 | 7.206649 | 2.0 | 8.085 | 2 | 34.390 | 8.275 | 32.785 | 2 |
| 2025-04-19T13:21:00 | 54.706249 | 7.202845 | 2.0 | 8.076 | 2 | 34.395 | 8.259 | 32.805 | 2 |
| 2025-04-19T13:22:00 | 54.707317 | 7.199044 | 2.0 | 8.068 | 2 | 34.071 | 8.248 | 32.473 | 2 |
| 2025-04-19T13:23:00 | 54.708410 | 7.195199 | 2.0 | 8.063 | 2 | 34.398 | 8.242 | 32.824 | 2 |
| 2025-04-19T13:24:00 | 54.709495 | 7.191404 | 2.0 | 8.055 | 2 | 34.411 | 8.238 | 32.842 | 2 |
| 2025-04-19T13:25:00 | 54.710568 | 7.187671 | 2.0 | 8.046 | 2 | 34.401 | 8.227 | 32.842 | 2 |
| 2025-04-19T13:26:00 | 54.711861 | 7.184066 | 2.0 | 8.051 | 2 | 34.418 | 8.220 | 32.866 | 2 |
| 2025-04-19T13:27:00 | 54.713703 | 7.181227 | 2.0 | 8.033 | 2 | 34.439 | 8.222 | 32.886 | 2 |
| 2025-04-19T13:28:00 | 54.715404 | 7.178494 | 2.0 | 8.032 | 2 | 34.434 | 8.208 | 32.894 | 2 |
| 2025-04-19T13:29:00 | 54.717061 | 7.175791 | 2.0 | 8.027 | 2 | 34.428 | 8.205 | 32.891 | 2 |
| 2025-04-19T13:30:00 | 54.718614 | 7.172666 | 2.0 | 8.031 | 2 | 34.430 | 8.204 | 32.894 | 2 |
| 2025-04-19T13:31:00 | 54.720141 | 7.169434 | 2.0 | 8.033 | 2 | 34.431 | 8.206 | 32.893 | 2 |
| 2025-04-19T13:32:00 | 54.721686 | 7.166150 | 2.0 | 8.037 | 2 | 34.421 | 8.205 | 32.883 | 2 |
| 2025-04-19T13:33:00 | 54.723135 | 7.162889 | 2.0 | 8.037 | 2 | 34.414 | 8.213 | 32.868 | 2 |
| 2025-04-19T13:34:00 | 54.724427 | 7.159749 | 2.0 | 8.036 | 2 | 34.311 | 8.213 | 32.759 | 2 |
| 2025-04-19T13:35:00 | 54.725671 | 7.156788 | 2.0 | 8.049 | 2 | 34.072 | 8.214 | 32.505 | 2 |
| 2025-04-19T13:36:00 | 54.727115 | 7.153410 | 2.0 | 8.055 | 2 | 34.363 | 8.226 | 32.802 | 2 |
| 2025-04-19T13:37:00 | 54.728579 | 7.149977 | 2.0 | 8.064 | 2 | 34.311 | 8.236 | 32.738 | 2 |
| 2025-04-19T13:38:00 | 54.730018 | 7.146620 | 2.0 | 8.051 | 2 | 33.540 | 8.238 | 31.921 | 2 |
| 2025-04-19T13:39:00 | 54.731432 | 7.143282 | 2.0 | 8.049 | 2 | 34.336 | 8.224 | 32.775 | 2 |
| 2025-04-19T13:40:00 | 54.732802 | 7.139980 | 2.0 | 8.057 | 2 | 34.301 | 8.227 | 32.736 | 2 |
| 2025-04-19T13:41:00 | 54.734182 | 7.136698 | 2.0 | 8.054 | 2 | 34.061 | 8.228 | 32.480 | 2 |
| 2025-04-19T13:42:00 | 54.735504 | 7.133173 | 2.0 | 8.054 | 2 | 34.293 | 8.230 | 32.724 | 2 |
| 2025-04-19T13:43:00 | 54.736755 | 7.129664 | 2.0 | 8.055 | 2 | 34.138 | 8.232 | 32.558 | 2 |
| 2025-04-19T13:44:00 | 54.738030 | 7.126116 | 2.0 | 8.046 | 2 | 34.207 | 8.233 | 32.630 | 2 |
| 2025-04-19T13:45:00 | 54.739251 | 7.122642 | 2.0 | 8.031 | 2 | 34.047 | 8.220 | 32.473 | 2 |
| 2025-04-19T13:46:00 | 54.740468 | 7.119204 | 2.0 | 8.020 | 2 | 34.290 | 8.206 | 32.743 | 2 |
| 2025-04-19T13:47:00 | 54.741857 | 7.115874 | 2.0 | 8.011 | 2 | 34.302 | 8.205 | 32.757 | 2 |
| 2025-04-19T13:48:00 | 54.743078 | 7.113173 | 2.0 | 8.002 | 2 | 34.307 | 8.200 | 32.767 | 2 |
| 2025-04-19T13:49:00 | 54.743944 | 7.111239 | 2.0 | 8.006 | 2 | 34.328 | 8.198 | 32.791 | 2 |
| 2025-04-19T13:50:00 | 54.744470 | 7.109989 | 2.0 | 7.999 | 2 | 34.341 | 8.196 | 32.807 | 2 |
| 2025-04-19T13:51:00 | 54.744909 | 7.108922 | 2.0 | 7.985 | 2 | 34.324 | 8.191 | 32.794 | 2 |
| 2025-04-19T13:52:00 | 54.745239 | 7.108170 | 2.0 | 7.971 | 2 | 34.329 | 8.178 | 32.811 | 2 |
| 2025-04-19T13:53:00 | 54.745533 | 7.107685 | 2.0 | 7.961 | 2 | 34.323 | 8.165 | 32.817 | 2 |
| 2025-04-19T13:54:00 | 54.745700 | 7.107416 | 2.0 | 7.962 | 2 | 34.308 | 8.156 | 32.809 | 2 |
| 2025-04-19T13:55:00 | 54.745861 | 7.107256 | 2.0 | 7.961 | 2 | 34.318 | 8.158 | 32.818 | 2 |
| 2025-04-19T13:56:00 | 54.745999 | 7.107124 | 2.0 | 7.950 | 2 | 34.317 | 8.157 | 32.818 | 2 |
| 2025-04-19T13:57:00 | 54.746075 | 7.106965 | 2.0 | 7.966 | 2 | 34.311 | 8.152 | 32.816 | 2 |
| 2025-04-19T13:58:00 | 54.746123 | 7.106684 | 2.0 | 7.959 | 2 | 34.322 | 8.165 | 32.816 | 2 |
| 2025-04-19T13:59:00 | 54.746159 | 7.106459 | 2.0 | 7.965 | 2 | 34.315 | 8.160 | 32.813 | 2 |
| 2025-04-19T14:00:00 | 54.746401 | 7.106894 | 2.0 | 7.963 | 2 | 34.319 | 8.162 | 32.815 | 2 |
| 2025-04-19T14:01:00 | 54.746802 | 7.107653 | 2.0 | 7.963 | 2 | 34.323 | 8.164 | 32.818 | 2 |
| 2025-04-19T14:02:00 | 54.747246 | 7.108344 | 2.0 | 7.962 | 2 | 34.325 | 8.164 | 32.820 | 2 |
| 2025-04-19T14:03:00 | 54.747726 | 7.108829 | 2.0 | 7.962 | 2 | 34.327 | 8.163 | 32.823 | 2 |
| 2025-04-19T14:04:00 | 54.748083 | 7.109111 | 2.0 | 7.961 | 2 | 34.328 | 8.163 | 32.824 | 2 |
| 2025-04-19T14:05:00 | 54.748433 | 7.109205 | 2.0 | 7.959 | 2 | 34.330 | 8.164 | 32.825 | 2 |
| 2025-04-19T14:06:00 | 54.748751 | 7.109044 | 2.0 | 7.942 | 2 | 34.328 | 8.160 | 32.827 | 2 |
| 2025-04-19T14:07:00 | 54.748854 | 7.108837 | 2.0 | 7.951 | 2 | 34.312 | 8.147 | 32.822 | 2 |
| 2025-04-19T14:08:00 | 54.748925 | 7.108547 | 2.0 | 7.941 | 2 | 34.323 | 8.155 | 32.826 | 2 |
| 2025-04-19T14:09:00 | 54.749032 | 7.108266 | 2.0 | 7.943 | 2 | 34.316 | 8.143 | 32.830 | 2 |
| 2025-04-19T14:10:00 | 54.749139 | 7.108049 | 2.0 | 7.948 | 2 | 34.317 | 8.147 | 32.827 | 2 |
| 2025-04-19T14:11:00 | 54.749206 | 7.107855 | 2.0 | 7.962 | 2 | 34.321 | 8.153 | 32.826 | 2 |
| 2025-04-19T14:12:00 | 54.749324 | 7.107490 | 2.0 | 7.955 | 2 | 34.331 | 8.163 | 32.827 | 2 |
| 2025-04-19T14:13:00 | 54.749736 | 7.106660 | 2.0 | 7.965 | 2 | 34.330 | 8.163 | 32.826 | 2 |
| 2025-04-19T14:14:00 | 54.750272 | 7.105537 | 2.0 | 7.974 | 2 | 34.334 | 8.169 | 32.825 | 2 |
| 2025-04-19T14:15:00 | 54.750749 | 7.104389 | 2.0 | 7.974 | 2 | 34.338 | 8.178 | 32.821 | 2 |
| 2025-04-19T14:16:00 | 54.751179 | 7.103284 | 2.0 | 7.979 | 2 | 34.336 | 8.178 | 32.818 | 2 |
| 2025-04-19T14:17:00 | 54.751593 | 7.102187 | 2.0 | 7.979 | 2 | 34.335 | 8.184 | 32.812 | 2 |
| 2025-04-19T14:18:00 | 54.751973 | 7.101099 | 2.0 | 7.976 | 2 | 34.333 | 8.182 | 32.812 | 2 |
| 2025-04-19T14:19:00 | 54.752378 | 7.099976 | 2.0 | 7.982 | 2 | 34.330 | 8.182 | 32.808 | 2 |
| 2025-04-19T14:20:00 | 54.752795 | 7.098738 | 2.0 | 7.980 | 2 | 34.331 | 8.185 | 32.807 | 2 |
| 2025-04-19T14:21:00 | 54.753108 | 7.097677 | 2.0 | 7.986 | 2 | 34.331 | 8.187 | 32.805 | 2 |
| 2025-04-19T14:22:00 | 54.753282 | 7.096985 | 2.0 | 7.981 | 2 | 34.333 | 8.186 | 32.808 | 2 |
| 2025-04-19T14:23:00 | 54.753414 | 7.096628 | 2.0 | 7.990 | 2 | 33.678 | 8.186 | 32.114 | 2 |
| 2025-04-19T14:24:00 | 54.753553 | 7.096415 | 2.0 | 7.996 | 2 | 34.211 | 8.193 | 32.672 | 2 |
| 2025-04-19T14:25:00 | 54.753636 | 7.096334 | 2.0 | 7.988 | 2 | 34.351 | 8.199 | 32.815 | 2 |
| 2025-04-19T14:26:00 | 54.753655 | 7.096163 | 2.0 | 8.005 | 2 | 34.348 | 8.196 | 32.814 | 2 |
| 2025-04-19T14:27:00 | 54.753794 | 7.095811 | 2.0 | 8.027 | 2 | 34.367 | 8.215 | 32.817 | 2 |
| 2025-04-19T14:28:00 | 54.753893 | 7.095599 | 2.0 | 8.034 | 2 | 33.882 | 8.232 | 32.287 | 2 |
| 2025-04-19T14:29:00 | 54.753996 | 7.095622 | 2.0 | 8.037 | 2 | 34.399 | 8.238 | 32.829 | 2 |
| 2025-04-19T14:30:00 | 54.754197 | 7.096245 | 2.0 | 8.031 | 2 | 34.040 | 8.239 | 32.448 | 2 |
| 2025-04-19T14:31:00 | 54.754502 | 7.097232 | 2.0 | 8.007 | 2 | 34.013 | 8.228 | 32.430 | 2 |
| 2025-04-19T14:32:00 | 54.754804 | 7.098141 | 2.0 | 8.007 | 2 | 33.721 | 8.212 | 32.136 | 2 |
| 2025-04-19T14:33:00 | 54.755026 | 7.098857 | 2.0 | 8.008 | 2 | 34.051 | 8.212 | 32.485 | 2 |
| 2025-04-19T14:34:00 | 54.755229 | 7.099444 | 2.0 | 8.009 | 2 | 34.363 | 8.215 | 32.812 | 2 |
| 2025-04-19T14:35:00 | 54.755521 | 7.099844 | 2.0 | 8.013 | 2 | 33.397 | 8.215 | 31.791 | 2 |
| 2025-04-19T14:36:00 | 54.755615 | 7.100077 | 2.0 | 7.958 | 2 | 33.948 | 8.212 | 32.376 | 2 |
| 2025-04-19T14:37:00 | 54.755704 | 7.099877 | 2.0 | 7.982 | 2 | 33.417 | 8.159 | 31.863 | 2 |
| 2025-04-19T14:38:00 | 54.755879 | 7.099450 | 2.0 | 7.987 | 2 | 33.440 | 8.196 | 31.853 | 2 |
| 2025-04-19T14:39:00 | 54.755974 | 7.099279 | 2.0 | 7.995 | 2 | 33.767 | 8.187 | 32.207 | 2 |
| 2025-04-19T14:40:00 | 54.756020 | 7.099290 | 2.0 | 7.792 | 2 | 33.943 | 8.190 | 32.391 | 2 |
| 2025-04-19T14:41:00 | 54.756014 | 7.099185 | 2.0 | 7.749 | 2 | 33.934 | 7.952 | 32.602 | 2 |
| 2025-04-19T14:42:00 | 54.756090 | 7.098944 | 2.0 | 7.814 | 2 | 33.651 | 7.996 | 32.260 | 2 |
| 2025-04-19T14:43:00 | 54.756109 | 7.098756 | 2.0 | 7.971 | 2 | 33.909 | 8.049 | 32.485 | 2 |
| 2025-04-19T14:44:00 | 54.756205 | 7.098365 | 2.0 | 8.021 | 2 | 33.650 | 8.183 | 32.087 | 2 |
| 2025-04-19T14:45:00 | 54.756650 | 7.097486 | 2.0 | 8.048 | 2 | 33.752 | 8.231 | 32.151 | 2 |
| 2025-04-19T14:46:00 | 54.757475 | 7.095937 | 2.0 | 8.051 | 2 | 33.729 | 8.254 | 32.106 | 2 |
| 2025-04-19T14:47:00 | 54.758376 | 7.094164 | 2.0 | 8.060 | 2 | 34.019 | 8.262 | 32.405 | 2 |
| 2025-04-19T14:48:00 | 54.759362 | 7.092342 | 2.0 | 8.058 | 2 | 34.081 | 8.266 | 32.467 | 2 |
| 2025-04-19T14:49:00 | 54.760280 | 7.090619 | 2.0 | 8.081 | 2 | 34.291 | 8.270 | 32.685 | 2 |
| 2025-04-19T14:50:00 | 54.761227 | 7.088837 | 2.0 | 8.061 | 2 | 34.034 | 8.287 | 32.397 | 2 |
| 2025-04-19T14:51:00 | 54.762062 | 7.087282 | 2.0 | 8.073 | 2 | 34.182 | 8.267 | 32.572 | 2 |
| 2025-04-19T14:52:00 | 54.762861 | 7.085727 | 2.0 | 8.142 | 2 | 34.283 | 8.291 | 32.657 | 2 |
| 2025-04-19T14:53:00 | 54.763696 | 7.084137 | 2.0 | 8.279 | 2 | 34.178 | 8.361 | 32.481 | 2 |
| 2025-04-19T14:54:00 | 54.764510 | 7.082584 | 2.0 | 8.430 | 2 | 34.599 | 8.508 | 32.789 | 2 |
| 2025-04-19T14:55:00 | 54.765203 | 7.081232 | 2.0 | 8.440 | 2 | 35.130 | 8.632 | 33.231 | 2 |
| 2025-04-19T14:56:00 | 54.765773 | 7.080136 | 2.0 | 8.426 | 2 | 35.165 | 8.638 | 33.262 | 2 |
| 2025-04-19T14:57:00 | 54.766373 | 7.079234 | 2.0 | 8.423 | 2 | 35.158 | 8.629 | 33.263 | 2 |
| 2025-04-19T14:58:00 | 54.766751 | 7.078801 | 2.0 | 8.426 | 2 | 35.160 | 8.628 | 33.266 | 2 |
| 2025-04-19T14:59:00 | 54.766925 | 7.078579 | 2.0 | 8.430 | 2 | 35.163 | 8.630 | 33.268 | 2 |
| 2025-04-19T15:00:00 | 54.766905 | 7.078616 | 2.0 | 8.424 | 2 | 35.168 | 8.633 | 33.270 | 2 |
| 2025-04-19T15:01:00 | 54.766900 | 7.078700 | 2.0 | 8.418 | 2 | 35.162 | 8.627 | 33.269 | 2 |
| 2025-04-19T15:02:00 | 54.766956 | 7.078736 | 2.0 | 8.412 | 2 | 35.156 | 8.623 | 33.267 | 2 |
| 2025-04-19T15:03:00 | 54.767033 | 7.078617 | 2.0 | 8.394 | 2 | 35.150 | 8.617 | 33.266 | 2 |
| 2025-04-19T15:04:00 | 54.767016 | 7.078527 | 2.0 | 8.392 | 2 | 35.133 | 8.597 | 33.267 | 2 |
| 2025-04-19T15:05:00 | 54.767038 | 7.078317 | 2.0 | 8.410 | 2 | 35.129 | 8.604 | 33.256 | 2 |
| 2025-04-19T15:06:00 | 54.767112 | 7.078093 | 2.0 | 8.412 | 2 | 35.151 | 8.618 | 33.266 | 2 |
| 2025-04-19T15:07:00 | 54.767106 | 7.078050 | 2.0 | 8.388 | 2 | 35.122 | 8.616 | 33.238 | 2 |
| 2025-04-19T15:08:00 | 54.767076 | 7.078045 | 2.0 | 8.395 | 2 | 35.112 | 8.598 | 33.244 | 2 |
| 2025-04-19T15:09:00 | 54.767016 | 7.078066 | 2.0 | 8.307 | 2 | 35.110 | 8.596 | 33.244 | 2 |
| 2025-04-19T15:10:00 | 54.766880 | 7.078105 | 2.0 | 8.347 | 2 | 35.073 | 8.519 | 33.278 | 2 |
| 2025-04-19T15:11:00 | 54.766706 | 7.078210 | 2.0 | 8.353 | 2 | 35.086 | 8.551 | 33.261 | 2 |
| 2025-04-19T15:12:00 | 54.766533 | 7.078366 | 2.0 | 8.401 | 2 | 35.111 | 8.574 | 33.266 | 2 |
| 2025-04-19T15:13:00 | 54.766505 | 7.078331 | 2.0 | 8.403 | 2 | 35.132 | 8.609 | 33.255 | 2 |
| 2025-04-19T15:14:00 | 54.767048 | 7.078734 | 2.0 | 8.365 | 2 | 35.140 | 8.602 | 33.270 | 2 |
| 2025-04-19T15:15:00 | 54.767149 | 7.080772 | 2.0 | 8.440 | 2 | 35.132 | 8.593 | 33.270 | 2 |
| 2025-04-19T15:16:00 | 54.766042 | 7.082760 | 2.0 | 8.397 | 2 | 35.174 | 8.651 | 33.259 | 2 |
| 2025-04-19T15:17:00 | 54.764364 | 7.084438 | 2.0 | 8.194 | 2 | 35.040 | 8.573 | 33.192 | 2 |
| 2025-04-19T15:18:00 | 54.762506 | 7.086189 | 2.0 | 8.092 | 2 | 34.780 | 8.385 | 33.094 | 2 |
| 2025-04-19T15:19:00 | 54.760692 | 7.088270 | 2.0 | 8.096 | 2 | 34.624 | 8.304 | 33.006 | 2 |
| 2025-04-19T15:20:00 | 54.758845 | 7.090338 | 2.0 | 8.074 | 2 | 34.533 | 8.290 | 32.922 | 2 |
| 2025-04-19T15:21:00 | 54.756952 | 7.092312 | 2.0 | 8.073 | 2 | 34.471 | 8.272 | 32.874 | 2 |
| 2025-04-19T15:22:00 | 54.755072 | 7.094336 | 2.0 | 8.037 | 2 | 34.423 | 8.255 | 32.839 | 2 |
| 2025-04-19T15:23:00 | 54.752784 | 7.096896 | 2.0 | 8.036 | 2 | 34.378 | 8.232 | 32.812 | 2 |
| 2025-04-19T15:24:00 | 54.750284 | 7.099637 | 2.0 | 8.038 | 2 | 34.377 | 8.230 | 32.813 | 2 |
| 2025-04-19T15:25:00 | 54.747706 | 7.102322 | 2.0 | 8.051 | 2 | 34.382 | 8.230 | 32.819 | 2 |
| 2025-04-19T15:26:00 | 54.745144 | 7.105037 | 2.0 | 8.086 | 2 | 34.399 | 8.249 | 32.819 | 2 |
| 2025-04-19T15:27:00 | 54.742635 | 7.107822 | 2.0 | 8.090 | 2 | 34.420 | 8.274 | 32.818 | 2 |
| 2025-04-19T15:28:00 | 54.740077 | 7.110585 | 2.0 | 8.093 | 2 | 34.416 | 8.281 | 32.807 | 2 |
| 2025-04-19T15:29:00 | 54.737558 | 7.113301 | 2.0 | 8.112 | 2 | 34.393 | 8.286 | 32.778 | 2 |
| 2025-04-19T15:30:00 | 54.735043 | 7.116054 | 2.0 | 8.113 | 2 | 34.392 | 8.298 | 32.766 | 2 |
| 2025-04-19T15:31:00 | 54.732495 | 7.118808 | 2.0 | 8.123 | 2 | 34.396 | 8.302 | 32.766 | 2 |
| 2025-04-19T15:32:00 | 54.729923 | 7.121538 | 2.0 | 8.137 | 2 | 34.413 | 8.311 | 32.776 | 2 |
| 2025-04-19T15:33:00 | 54.727357 | 7.124335 | 2.0 | 8.147 | 2 | 34.438 | 8.323 | 32.791 | 2 |
| 2025-04-19T15:34:00 | 54.724802 | 7.127160 | 2.0 | 8.149 | 2 | 34.461 | 8.331 | 32.808 | 2 |
| 2025-04-19T15:35:00 | 54.722268 | 7.129839 | 2.0 | 8.154 | 2 | 34.485 | 8.334 | 32.830 | 2 |
| 2025-04-19T15:36:00 | 54.719722 | 7.132547 | 2.0 | 8.147 | 2 | 34.504 | 8.337 | 32.848 | 2 |
| 2025-04-19T15:37:00 | 54.717192 | 7.135331 | 2.0 | 8.151 | 2 | 34.515 | 8.334 | 32.862 | 2 |
| 2025-04-19T15:38:00 | 54.714638 | 7.138023 | 2.0 | 8.136 | 2 | 34.538 | 8.330 | 32.890 | 2 |
| 2025-04-19T15:39:00 | 54.712083 | 7.140805 | 2.0 | 8.139 | 2 | 34.548 | 8.324 | 32.906 | 2 |
| 2025-04-19T15:40:00 | 54.709550 | 7.143604 | 2.0 | 8.132 | 2 | 34.561 | 8.325 | 32.919 | 2 |
| 2025-04-19T15:41:00 | 54.706999 | 7.146338 | 2.0 | 8.129 | 2 | 34.570 | 8.316 | 32.937 | 2 |
| 2025-04-19T15:42:00 | 54.704447 | 7.149022 | 2.0 | 8.125 | 2 | 34.579 | 8.313 | 32.950 | 2 |
| 2025-04-19T15:43:00 | 54.701906 | 7.151741 | 2.0 | 8.162 | 2 | 34.592 | 8.315 | 32.961 | 2 |
| 2025-04-19T15:44:00 | 54.699371 | 7.154490 | 2.0 | 8.152 | 2 | 34.597 | 8.339 | 32.944 | 2 |
| 2025-04-19T15:45:00 | 54.696854 | 7.157197 | 2.0 | 8.198 | 2 | 34.592 | 8.343 | 32.935 | 2 |
| 2025-04-19T15:46:00 | 54.694341 | 7.159931 | 2.0 | 8.237 | 2 | 34.611 | 8.386 | 32.915 | 2 |
| 2025-04-19T15:47:00 | 54.691812 | 7.162628 | 2.0 | 8.241 | 2 | 34.619 | 8.416 | 32.895 | 2 |
| 2025-04-19T15:48:00 | 54.689320 | 7.165376 | 2.0 | 8.256 | 2 | 34.608 | 8.424 | 32.876 | 2 |
| 2025-04-19T15:49:00 | 54.686751 | 7.168035 | 2.0 | 8.267 | 2 | 34.602 | 8.439 | 32.856 | 2 |
| 2025-04-19T15:50:00 | 54.684239 | 7.170825 | 2.0 | 8.289 | 2 | 34.600 | 8.451 | 32.843 | 2 |
| 2025-04-19T15:51:00 | 54.681704 | 7.173578 | 2.0 | 8.306 | 2 | 34.607 | 8.471 | 32.831 | 2 |
| 2025-04-19T15:52:00 | 54.679125 | 7.176280 | 2.0 | 8.348 | 2 | 34.607 | 8.494 | 32.810 | 2 |
| 2025-04-19T15:53:00 | 54.676587 | 7.179001 | 2.0 | 8.378 | 2 | 34.639 | 8.530 | 32.810 | 2 |
| 2025-04-19T15:54:00 | 54.674058 | 7.181741 | 2.0 | 8.395 | 2 | 34.678 | 8.557 | 32.826 | 2 |
| 2025-04-19T15:55:00 | 54.671499 | 7.184352 | 2.0 | 8.422 | 2 | 34.713 | 8.578 | 32.843 | 2 |
| 2025-04-19T15:56:00 | 54.669038 | 7.187150 | 2.0 | 8.432 | 2 | 34.751 | 8.603 | 32.860 | 2 |
| 2025-04-19T15:57:00 | 54.666538 | 7.189868 | 2.0 | 8.429 | 2 | 34.790 | 8.610 | 32.894 | 2 |
| 2025-04-19T15:58:00 | 54.664028 | 7.192522 | 2.0 | 8.422 | 2 | 34.816 | 8.607 | 32.925 | 2 |
| 2025-04-19T15:59:00 | 54.661520 | 7.195269 | 2.0 | 8.411 | 2 | 34.835 | 8.599 | 32.952 | 2 |
| 2025-04-19T16:00:00 | 54.658972 | 7.197974 | 2.0 | 8.406 | 2 | 34.847 | 8.590 | 32.973 | 2 |
| 2025-04-19T16:01:00 | 54.656456 | 7.200703 | 2.0 | 8.405 | 2 | 34.862 | 8.584 | 32.994 | 2 |
| 2025-04-19T16:02:00 | 54.653895 | 7.203424 | 2.0 | 8.398 | 2 | 34.885 | 8.584 | 33.019 | 2 |
| 2025-04-19T16:03:00 | 54.651364 | 7.206199 | 2.0 | 8.403 | 2 | 34.912 | 8.580 | 33.051 | 2 |
| 2025-04-19T16:04:00 | 54.648834 | 7.208907 | 2.0 | 8.410 | 2 | 34.939 | 8.582 | 33.077 | 2 |
| 2025-04-19T16:05:00 | 54.646291 | 7.211624 | 2.0 | 8.409 | 2 | 34.976 | 8.592 | 33.107 | 2 |
| 2025-04-19T16:06:00 | 54.643754 | 7.214363 | 2.0 | 8.466 | 2 | 35.046 | 8.588 | 33.184 | 2 |
| 2025-04-19T16:07:00 | 54.641185 | 7.217109 | 2.0 | 8.617 | 2 | 35.151 | 8.673 | 33.215 | 2 |
| 2025-04-19T16:08:00 | 54.638618 | 7.219847 | 2.0 | 8.617 | 2 | 35.237 | 8.784 | 33.201 | 2 |
| 2025-04-19T16:09:00 | 54.636091 | 7.222645 | 2.0 | 8.769 | 2 | 35.236 | 8.821 | 33.165 | 2 |
| 2025-04-19T16:10:00 | 54.633537 | 7.225355 | 2.0 | 8.805 | 2 | 35.283 | 8.945 | 33.098 | 2 |
| 2025-04-19T16:11:00 | 54.631001 | 7.228144 | 2.0 | 8.803 | 2 | 35.251 | 8.975 | 33.037 | 2 |
| 2025-04-19T16:12:00 | 54.628457 | 7.230842 | 2.0 | 8.797 | 2 | 35.178 | 8.976 | 32.960 | 2 |
| 2025-04-19T16:13:00 | 54.625908 | 7.233607 | 2.0 | 8.746 | 2 | 35.125 | 8.966 | 32.914 | 2 |
| 2025-04-19T16:14:00 | 54.623398 | 7.236328 | 2.0 | 8.650 | 2 | 35.033 | 8.909 | 32.871 | 2 |
| 2025-04-19T16:15:00 | 54.620885 | 7.239044 | 2.0 | 8.662 | 2 | 34.911 | 8.832 | 32.815 | 2 |
| 2025-04-19T16:16:00 | 54.618351 | 7.241813 | 2.0 | 8.673 | 2 | 34.894 | 8.845 | 32.785 | 2 |
| 2025-04-19T16:17:00 | 54.615820 | 7.244483 | 2.0 | 8.674 | 2 | 34.885 | 8.850 | 32.771 | 2 |
| 2025-04-19T16:18:00 | 54.613324 | 7.247212 | 2.0 | 8.705 | 2 | 34.881 | 8.855 | 32.762 | 2 |
| 2025-04-19T16:19:00 | 54.610768 | 7.249919 | 2.0 | 8.713 | 2 | 34.892 | 8.882 | 32.749 | 2 |
| 2025-04-19T16:20:00 | 54.608207 | 7.252732 | 2.0 | 8.704 | 2 | 34.890 | 8.888 | 32.741 | 2 |
| 2025-04-19T16:21:00 | 54.605644 | 7.255437 | 2.0 | 8.706 | 2 | 34.877 | 8.880 | 32.735 | 2 |
| 2025-04-19T16:22:00 | 54.603165 | 7.258138 | 2.0 | 8.718 | 2 | 34.875 | 8.884 | 32.729 | 2 |
| 2025-04-19T16:23:00 | 54.600730 | 7.260923 | 2.0 | 8.687 | 2 | 34.765 | 8.891 | 32.608 | 2 |
| 2025-04-19T16:24:00 | 54.598231 | 7.263661 | 2.0 | 8.649 | 2 | 34.616 | 8.857 | 32.484 | 2 |
| 2025-04-19T16:25:00 | 54.595746 | 7.266473 | 2.0 | 8.644 | 2 | 34.810 | 8.825 | 32.716 | 2 |
| 2025-04-19T16:26:00 | 54.593237 | 7.269251 | 2.0 | 8.650 | 2 | 34.792 | 8.824 | 32.698 | 2 |
| 2025-04-19T16:27:00 | 54.590752 | 7.272127 | 2.0 | 8.623 | 2 | 34.529 | 8.821 | 32.427 | 2 |
| 2025-04-19T16:28:00 | 54.588215 | 7.274899 | 2.0 | 8.592 | 2 | 33.737 | 8.795 | 31.626 | 2 |
| 2025-04-19T16:29:00 | 54.585675 | 7.277692 | 2.0 | 8.911 | 2 | 34.812 | 8.775 | 32.764 | 2 |
| 2025-04-19T16:30:00 | 54.583166 | 7.280480 | 2.0 | 9.152 | 2 | 34.837 | 9.140 | 32.455 | 2 |
| 2025-04-19T16:31:00 | 54.580701 | 7.283307 | 2.0 | 9.128 | 2 | 34.797 | 9.304 | 32.265 | 2 |
| 2025-04-19T16:32:00 | 54.578230 | 7.286077 | 2.0 | 9.152 | 2 | 35.041 | 9.300 | 32.520 | 2 |
| 2025-04-19T16:33:00 | 54.575715 | 7.288757 | 2.0 | 9.168 | 2 | 34.994 | 9.324 | 32.450 | 2 |
| 2025-04-19T16:34:00 | 54.573261 | 7.291546 | 2.0 | 9.187 | 2 | 34.683 | 9.342 | 32.114 | 2 |
| 2025-04-19T16:35:00 | 54.570802 | 7.294365 | 2.0 | 9.199 | 2 | 34.691 | 9.356 | 32.109 | 2 |
| 2025-04-19T16:36:00 | 54.568303 | 7.297123 | 2.0 | 9.243 | 2 | 34.391 | 9.377 | 31.783 | 2 |
| 2025-04-19T16:37:00 | 54.565852 | 7.299902 | 2.0 | 9.255 | 2 | 33.827 | 9.415 | 31.172 | 2 |
| 2025-04-19T16:38:00 | 54.563361 | 7.302646 | 2.0 | 9.250 | 2 | 34.818 | 9.425 | 32.178 | 2 |
| 2025-04-19T16:39:00 | 54.560907 | 7.305419 | 2.0 | 9.214 | 2 | 34.652 | 9.415 | 32.017 | 2 |
| 2025-04-19T16:40:00 | 54.558425 | 7.308158 | 2.0 | 9.178 | 2 | 34.333 | 9.381 | 31.720 | 2 |
| 2025-04-19T16:41:00 | 54.555979 | 7.310858 | 2.0 | 9.157 | 2 | 33.839 | 9.349 | 31.242 | 2 |
| 2025-04-19T16:42:00 | 54.553532 | 7.313628 | 2.0 | 9.137 | 2 | 34.241 | 9.329 | 31.671 | 2 |
| 2025-04-19T16:43:00 | 54.551084 | 7.316350 | 2.0 | 9.117 | 2 | 34.395 | 9.309 | 31.847 | 2 |
| 2025-04-19T16:44:00 | 54.548650 | 7.319097 | 2.0 | 9.103 | 2 | 34.541 | 9.291 | 32.014 | 2 |
| 2025-04-19T16:45:00 | 54.546206 | 7.321846 | 2.0 | 9.089 | 2 | 34.466 | 9.276 | 31.950 | 2 |
| 2025-04-19T16:46:00 | 54.543777 | 7.324639 | 2.0 | 9.071 | 2 | 34.192 | 9.261 | 31.681 | 2 |
| 2025-04-19T16:47:00 | 54.541329 | 7.327391 | 2.0 | 9.047 | 2 | 34.675 | 9.243 | 32.195 | 2 |
| 2025-04-19T16:48:00 | 54.538859 | 7.330072 | 2.0 | 9.006 | 2 | 34.296 | 9.216 | 31.828 | 2 |
| 2025-04-19T16:49:00 | 54.536424 | 7.332780 | 2.0 | 8.971 | 2 | 34.582 | 9.178 | 32.157 | 2 |
| 2025-04-19T16:50:00 | 54.533993 | 7.335542 | 2.0 | 8.924 | 2 | 34.644 | 9.142 | 32.254 | 2 |
| 2025-04-19T16:51:00 | 54.531546 | 7.338248 | 2.0 | 8.828 | 2 | 34.612 | 9.078 | 32.279 | 2 |
| 2025-04-19T16:52:00 | 54.529102 | 7.340873 | 2.0 | 8.813 | 2 | 34.538 | 9.007 | 32.267 | 2 |
| 2025-04-19T16:53:00 | 54.526686 | 7.343669 | 2.0 | 8.776 | 2 | 34.507 | 8.982 | 32.257 | 2 |
| 2025-04-19T16:54:00 | 54.524211 | 7.346300 | 2.0 | 8.728 | 2 | 34.468 | 8.947 | 32.248 | 2 |
| 2025-04-19T16:55:00 | 54.521804 | 7.349143 | 2.0 | 8.688 | 2 | 34.429 | 8.903 | 32.248 | 2 |
| 2025-04-19T16:56:00 | 54.519313 | 7.351872 | 2.0 | 8.684 | 2 | 34.393 | 8.868 | 32.242 | 2 |
| 2025-04-19T16:57:00 | 54.516842 | 7.354638 | 2.0 | 8.691 | 2 | 34.383 | 8.863 | 32.236 | 2 |
| 2025-04-19T16:58:00 | 54.514374 | 7.357353 | 2.0 | 8.594 | 2 | 34.385 | 8.863 | 32.238 | 2 |
| 2025-04-19T16:59:00 | 54.511899 | 7.360092 | 2.0 | 8.513 | 2 | 34.288 | 8.753 | 32.237 | 2 |
| 2025-04-19T17:00:00 | 54.509440 | 7.362747 | 2.0 | 8.491 | 2 | 34.216 | 8.694 | 32.216 | 2 |
| 2025-04-19T17:01:00 | 54.507051 | 7.365502 | 2.0 | 8.472 | 2 | 34.193 | 8.666 | 32.217 | 2 |
| 2025-04-19T17:02:00 | 54.504640 | 7.368301 | 2.0 | 8.478 | 2 | 34.188 | 8.653 | 32.224 | 2 |
| 2025-04-19T17:03:00 | 54.502137 | 7.370933 | 2.0 | 8.548 | 2 | 34.210 | 8.662 | 32.239 | 2 |
| 2025-04-19T17:04:00 | 54.499634 | 7.373571 | 2.0 | 8.603 | 2 | 34.295 | 8.733 | 32.263 | 2 |
| 2025-04-19T17:05:00 | 54.497166 | 7.376240 | 2.0 | 8.638 | 2 | 34.355 | 8.782 | 32.281 | 2 |
| 2025-04-19T17:06:00 | 54.494690 | 7.378951 | 2.0 | 8.627 | 2 | 34.381 | 8.803 | 32.289 | 2 |
| 2025-04-19T17:07:00 | 54.492182 | 7.381609 | 2.0 | 8.431 | 2 | 34.316 | 8.743 | 32.276 | 2 |
| 2025-04-19T17:08:00 | 54.489699 | 7.384224 | 2.0 | 8.392 | 2 | 34.158 | 8.612 | 32.230 | 2 |
| 2025-04-19T17:09:00 | 54.487223 | 7.386909 | 2.0 | 8.363 | 2 | 34.100 | 8.567 | 32.210 | 2 |
| 2025-04-19T17:10:00 | 54.484756 | 7.389535 | 2.0 | 8.389 | 2 | 34.073 | 8.554 | 32.194 | 2 |
| 2025-04-19T17:11:00 | 54.482299 | 7.392256 | 2.0 | 8.257 | 2 | 34.077 | 8.557 | 32.195 | 2 |
| 2025-04-19T17:12:00 | 54.479832 | 7.394869 | 2.0 | 8.161 | 2 | 33.925 | 8.409 | 32.171 | 2 |
| 2025-04-19T17:13:00 | 54.477381 | 7.397405 | 2.0 | 8.160 | 2 | 33.827 | 8.348 | 32.123 | 2 |
| 2025-04-19T17:14:00 | 54.475006 | 7.400056 | 2.0 | 8.171 | 2 | 33.803 | 8.343 | 32.102 | 2 |
| 2025-04-19T17:15:00 | 54.472627 | 7.402631 | 2.0 | 8.175 | 2 | 33.803 | 8.350 | 32.096 | 2 |
| 2025-04-19T17:16:00 | 54.470278 | 7.405094 | 2.0 | 8.188 | 2 | 33.795 | 8.357 | 32.081 | 2 |
| 2025-04-19T17:17:00 | 54.467900 | 7.407661 | 2.0 | 8.192 | 2 | 33.786 | 8.367 | 32.063 | 2 |
| 2025-04-19T17:18:00 | 54.465482 | 7.410259 | 2.0 | 8.196 | 2 | 33.796 | 8.370 | 32.070 | 2 |
| 2025-04-19T17:19:00 | 54.463032 | 7.412832 | 2.0 | 8.204 | 2 | 33.806 | 8.375 | 32.076 | 2 |
| 2025-04-19T17:20:00 | 54.460612 | 7.415487 | 2.0 | 8.231 | 2 | 33.813 | 8.387 | 32.073 | 2 |
| 2025-04-19T17:21:00 | 54.458199 | 7.418058 | 2.0 | 8.254 | 2 | 33.825 | 8.412 | 32.063 | 2 |
| 2025-04-19T17:22:00 | 54.455770 | 7.420579 | 2.0 | 8.269 | 2 | 33.838 | 8.431 | 32.059 | 2 |
| 2025-04-19T17:23:00 | 54.453383 | 7.423217 | 2.0 | 8.279 | 2 | 33.851 | 8.446 | 32.059 | 2 |
| 2025-04-19T17:24:00 | 54.450993 | 7.425830 | 2.0 | 8.285 | 2 | 33.862 | 8.456 | 32.062 | 2 |
| 2025-04-19T17:25:00 | 54.448570 | 7.428372 | 2.0 | 8.288 | 2 | 33.869 | 8.461 | 32.064 | 2 |
| 2025-04-19T17:26:00 | 54.446137 | 7.430923 | 2.0 | 8.291 | 2 | 33.872 | 8.464 | 32.065 | 2 |
| 2025-04-19T17:27:00 | 54.443730 | 7.433586 | 2.0 | 8.295 | 2 | 33.878 | 8.468 | 32.067 | 2 |
| 2025-04-19T17:28:00 | 54.441271 | 7.436097 | 2.0 | 8.297 | 2 | 33.887 | 8.472 | 32.073 | 2 |
| 2025-04-19T17:29:00 | 54.438845 | 7.438724 | 2.0 | 8.298 | 2 | 33.898 | 8.473 | 32.084 | 2 |
| 2025-04-19T17:30:00 | 54.436431 | 7.441325 | 2.0 | 8.296 | 2 | 33.910 | 8.473 | 32.096 | 2 |
| 2025-04-19T17:31:00 | 54.434027 | 7.443928 | 2.0 | 8.297 | 2 | 33.918 | 8.472 | 32.106 | 2 |
| 2025-04-19T17:32:00 | 54.431591 | 7.446444 | 2.0 | 8.301 | 2 | 33.931 | 8.474 | 32.118 | 2 |
| 2025-04-19T17:33:00 | 54.429179 | 7.449104 | 2.0 | 8.302 | 2 | 33.944 | 8.476 | 32.129 | 2 |
| 2025-04-19T17:34:00 | 54.426730 | 7.451674 | 2.0 | 8.310 | 2 | 33.960 | 8.480 | 32.143 | 2 |
| 2025-04-19T17:35:00 | 54.424322 | 7.454385 | 2.0 | 8.314 | 2 | 33.984 | 8.487 | 32.161 | 2 |
| 2025-04-19T17:36:00 | 54.421840 | 7.456977 | 2.0 | 8.316 | 2 | 34.008 | 8.490 | 32.184 | 2 |
| 2025-04-19T17:37:00 | 54.419403 | 7.459615 | 2.0 | 8.318 | 2 | 34.030 | 8.493 | 32.204 | 2 |
| 2025-04-19T17:38:00 | 54.416984 | 7.462297 | 2.0 | 8.318 | 2 | 34.058 | 8.494 | 32.233 | 2 |
| 2025-04-19T17:39:00 | 54.414526 | 7.464885 | 2.0 | 8.311 | 2 | 34.092 | 8.493 | 32.269 | 2 |
| 2025-04-19T17:40:00 | 54.412065 | 7.467454 | 2.0 | 8.312 | 2 | 34.120 | 8.487 | 32.304 | 2 |
| 2025-04-19T17:41:00 | 54.409635 | 7.470114 | 2.0 | 8.297 | 2 | 34.140 | 8.486 | 32.326 | 2 |
| 2025-04-19T17:42:00 | 54.407200 | 7.472735 | 2.0 | 8.277 | 2 | 34.143 | 8.471 | 32.343 | 2 |
| 2025-04-19T17:43:00 | 54.404753 | 7.475316 | 2.0 | 8.280 | 2 | 34.161 | 8.454 | 32.378 | 2 |
| 2025-04-19T17:44:00 | 54.402364 | 7.477949 | 2.0 | 8.479 | 2 | 34.218 | 8.474 | 32.419 | 2 |
| 2025-04-19T17:45:00 | 54.399933 | 7.480531 | 2.0 | 8.550 | 2 | 34.374 | 8.666 | 32.407 | 2 |
| 2025-04-19T17:46:00 | 54.397503 | 7.483127 | 2.0 | 8.522 | 2 | 34.415 | 8.714 | 32.406 | 2 |
| 2025-04-19T17:47:00 | 54.395037 | 7.485674 | 2.0 | 8.489 | 2 | 34.405 | 8.689 | 32.418 | 2 |
| 2025-04-19T17:48:00 | 54.392600 | 7.488314 | 2.0 | 8.467 | 2 | 34.394 | 8.659 | 32.434 | 2 |
| 2025-04-19T17:49:00 | 54.390191 | 7.490957 | 2.0 | 8.402 | 2 | 34.389 | 8.639 | 32.447 | 2 |
| 2025-04-19T17:50:00 | 54.387799 | 7.493542 | 2.0 | 8.370 | 2 | 34.350 | 8.567 | 32.472 | 2 |
| 2025-04-19T17:51:00 | 54.385359 | 7.496141 | 2.0 | 8.357 | 2 | 34.314 | 8.547 | 32.453 | 2 |
| 2025-04-19T17:52:00 | 54.382931 | 7.498760 | 2.0 | 8.276 | 2 | 34.270 | 8.524 | 32.428 | 2 |
| 2025-04-19T17:53:00 | 54.380487 | 7.501389 | 2.0 | 8.183 | 2 | 34.162 | 8.432 | 32.399 | 2 |
| 2025-04-19T17:54:00 | 54.378051 | 7.504009 | 2.0 | 8.227 | 2 | 34.048 | 8.374 | 32.332 | 2 |
| 2025-04-19T17:55:00 | 54.375623 | 7.506609 | 2.0 | 8.272 | 2 | 34.033 | 8.410 | 32.283 | 2 |
| 2025-04-19T17:56:00 | 54.373230 | 7.509209 | 2.0 | 8.328 | 2 | 34.003 | 8.456 | 32.210 | 2 |
| 2025-04-19T17:57:00 | 54.370814 | 7.511716 | 2.0 | 8.410 | 2 | 33.990 | 8.507 | 32.149 | 2 |
| 2025-04-19T17:58:00 | 54.368417 | 7.514309 | 2.0 | 8.476 | 2 | 33.924 | 8.600 | 31.996 | 2 |
| 2025-04-19T17:59:00 | 54.366006 | 7.516886 | 2.0 | 8.489 | 2 | 33.816 | 8.649 | 31.839 | 2 |
| 2025-04-19T18:00:00 | 54.363552 | 7.519411 | 2.0 | 8.511 | 2 | 33.759 | 8.661 | 31.768 | 2 |
| 2025-04-19T18:01:00 | 54.361171 | 7.522042 | 2.0 | 8.528 | 2 | 33.724 | 8.687 | 31.709 | 2 |
| 2025-04-19T18:02:00 | 54.358743 | 7.524631 | 2.0 | 8.530 | 2 | 33.716 | 8.700 | 31.689 | 2 |
| 2025-04-19T18:03:00 | 54.356329 | 7.527245 | 2.0 | 8.531 | 2 | 33.731 | 8.702 | 31.702 | 2 |
| 2025-04-19T18:04:00 | 54.353892 | 7.529888 | 2.0 | 8.538 | 2 | 33.754 | 8.704 | 31.725 | 2 |
| 2025-04-19T18:05:00 | 54.351396 | 7.532469 | 2.0 | 8.539 | 2 | 33.785 | 8.712 | 31.750 | 2 |
| 2025-04-19T18:06:00 | 54.348961 | 7.535214 | 2.0 | 8.536 | 2 | 33.820 | 8.711 | 31.787 | 2 |
| 2025-04-19T18:07:00 | 54.346508 | 7.537787 | 2.0 | 8.531 | 2 | 33.856 | 8.709 | 31.826 | 2 |
| 2025-04-19T18:08:00 | 54.344048 | 7.540419 | 2.0 | 8.526 | 2 | 33.889 | 8.703 | 31.866 | 2 |
| 2025-04-19T18:09:00 | 54.341584 | 7.543014 | 2.0 | 8.528 | 2 | 33.911 | 8.700 | 31.892 | 2 |
| 2025-04-19T18:10:00 | 54.339169 | 7.545665 | 2.0 | 8.504 | 2 | 33.928 | 8.700 | 31.910 | 2 |
| 2025-04-19T18:11:00 | 54.336724 | 7.548221 | 2.0 | 8.418 | 2 | 33.958 | 8.660 | 31.977 | 2 |
| 2025-04-19T18:12:00 | 54.334316 | 7.550842 | 2.0 | 8.417 | 2 | 33.965 | 8.598 | 32.041 | 2 |
| 2025-04-19T18:13:00 | 54.331889 | 7.553407 | 2.0 | 8.418 | 2 | 33.960 | 8.593 | 32.040 | 2 |
| 2025-04-19T18:14:00 | 54.329431 | 7.556006 | 2.0 | 8.418 | 2 | 33.962 | 8.592 | 32.043 | 2 |
| 2025-04-19T18:15:00 | 54.326978 | 7.558709 | 2.0 | 8.401 | 2 | 33.967 | 8.593 | 32.047 | 2 |
| 2025-04-19T18:16:00 | 54.324497 | 7.561346 | 2.0 | 8.385 | 2 | 33.958 | 8.572 | 32.057 | 2 |
| 2025-04-19T18:17:00 | 54.322000 | 7.563962 | 2.0 | 8.373 | 2 | 33.948 | 8.560 | 32.057 | 2 |
| 2025-04-19T18:18:00 | 54.319555 | 7.566612 | 2.0 | 8.360 | 2 | 33.938 | 8.547 | 32.059 | 2 |
| 2025-04-19T18:19:00 | 54.317115 | 7.569263 | 2.0 | 8.340 | 2 | 33.925 | 8.534 | 32.057 | 2 |
| 2025-04-19T18:20:00 | 54.314623 | 7.571850 | 2.0 | 8.338 | 2 | 33.905 | 8.515 | 32.053 | 2 |
| 2025-04-19T18:21:00 | 54.312158 | 7.574474 | 2.0 | 8.343 | 2 | 33.789 | 8.514 | 31.932 | 2 |
| 2025-04-19T18:22:00 | 54.309682 | 7.577084 | 2.0 | 8.318 | 2 | 33.892 | 8.511 | 32.043 | 2 |
| 2025-04-19T18:23:00 | 54.307240 | 7.579801 | 2.0 | 8.322 | 2 | 33.883 | 8.493 | 32.050 | 2 |
| 2025-04-19T18:24:00 | 54.304782 | 7.582443 | 2.0 | 8.340 | 2 | 33.861 | 8.502 | 32.019 | 2 |
| 2025-04-19T18:25:00 | 54.302312 | 7.585035 | 2.0 | 8.325 | 2 | 33.847 | 8.511 | 31.996 | 2 |
| 2025-04-19T18:26:00 | 54.299848 | 7.587659 | 2.0 | 8.337 | 2 | 33.813 | 8.502 | 31.968 | 2 |
| 2025-04-19T18:27:00 | 54.297358 | 7.590291 | 2.0 | 8.349 | 2 | 33.800 | 8.514 | 31.944 | 2 |
| 2025-04-19T18:28:00 | 54.294907 | 7.592917 | 2.0 | 8.330 | 2 | 33.119 | 8.518 | 31.227 | 2 |
| 2025-04-19T18:29:00 | 54.292434 | 7.595527 | 2.0 | 8.364 | 2 | 33.249 | 8.517 | 31.364 | 2 |
| 2025-04-19T18:30:00 | 54.289937 | 7.598217 | 2.0 | 8.333 | 2 | 32.782 | 8.533 | 30.862 | 2 |
| 2025-04-19T18:31:00 | 54.287432 | 7.600842 | 2.0 | 8.319 | 2 | 33.480 | 8.508 | 31.614 | 2 |
| 2025-04-19T18:32:00 | 54.284936 | 7.603527 | 2.0 | 8.309 | 2 | 33.534 | 8.494 | 31.683 | 2 |
| 2025-04-19T18:33:00 | 54.282494 | 7.606294 | 2.0 | 8.294 | 2 | 33.488 | 8.482 | 31.646 | 2 |
| 2025-04-19T18:34:00 | 54.279986 | 7.608790 | 2.0 | 8.274 | 2 | 33.600 | 8.466 | 31.777 | 2 |
| 2025-04-19T18:35:00 | 54.277511 | 7.611469 | 2.0 | 8.262 | 2 | 33.613 | 8.448 | 31.807 | 2 |
| 2025-04-19T18:36:00 | 54.275059 | 7.614203 | 2.0 | 8.228 | 2 | 33.499 | 8.435 | 31.699 | 2 |
| 2025-04-19T18:37:00 | 54.272545 | 7.616804 | 2.0 | 8.200 | 2 | 33.928 | 8.399 | 32.183 | 2 |
| 2025-04-19T18:38:00 | 54.270098 | 7.619492 | 2.0 | 8.246 | 2 | 33.534 | 8.383 | 31.783 | 2 |
| 2025-04-19T18:39:00 | 54.267586 | 7.622092 | 2.0 | 8.273 | 2 | 33.015 | 8.422 | 31.204 | 2 |
| 2025-04-19T18:40:00 | 54.265079 | 7.624804 | 2.0 | 8.328 | 2 | 33.422 | 8.451 | 31.604 | 2 |
| 2025-04-19T18:41:00 | 54.262574 | 7.627455 | 2.0 | 8.320 | 2 | 33.437 | 8.495 | 31.581 | 2 |
| 2025-04-19T18:42:00 | 54.260071 | 7.630115 | 2.0 | 8.310 | 2 | 33.641 | 8.490 | 31.799 | 2 |
| 2025-04-19T18:43:00 | 54.257563 | 7.632800 | 2.0 | 8.310 | 2 | 33.520 | 8.484 | 31.677 | 2 |
| 2025-04-19T18:44:00 | 54.255085 | 7.635508 | 2.0 | 8.303 | 2 | 33.329 | 8.483 | 31.478 | 2 |
| 2025-04-19T18:45:00 | 54.252549 | 7.638133 | 2.0 | 8.289 | 2 | 33.474 | 8.475 | 31.637 | 2 |
| 2025-04-19T18:46:00 | 54.250029 | 7.640787 | 2.0 | 8.272 | 2 | 33.339 | 8.460 | 31.509 | 2 |
| 2025-04-19T18:47:00 | 54.247475 | 7.643470 | 2.0 | 8.263 | 2 | 33.519 | 8.446 | 31.711 | 2 |
| 2025-04-19T18:48:00 | 54.244958 | 7.646224 | 2.0 | 8.240 | 2 | 33.278 | 8.435 | 31.468 | 2 |
| 2025-04-19T18:49:00 | 54.242427 | 7.648897 | 2.0 | 8.230 | 2 | 33.529 | 8.413 | 31.751 | 2 |
| 2025-04-19T18:50:00 | 54.239915 | 7.651566 | 2.0 | 8.212 | 2 | 33.589 | 8.404 | 31.822 | 2 |
| 2025-04-19T18:51:00 | 54.237393 | 7.654269 | 2.0 | 8.212 | 2 | 33.385 | 8.385 | 31.625 | 2 |
| 2025-04-19T18:52:00 | 54.234861 | 7.656937 | 2.0 | 8.216 | 2 | 33.691 | 8.389 | 31.943 | 2 |
| 2025-04-19T18:53:00 | 54.232360 | 7.659599 | 2.0 | 8.212 | 2 | 33.749 | 8.388 | 32.005 | 2 |
| 2025-04-19T18:54:00 | 54.229861 | 7.662263 | 2.0 | 8.211 | 2 | 33.697 | 8.389 | 31.949 | 2 |
| 2025-04-19T18:55:00 | 54.227391 | 7.664939 | 2.0 | 8.176 | 2 | 33.802 | 8.381 | 32.067 | 2 |
| 2025-04-19T18:56:00 | 54.224930 | 7.667627 | 2.0 | 8.152 | 2 | 33.787 | 8.343 | 32.086 | 2 |
| 2025-04-19T18:57:00 | 54.222431 | 7.670229 | 2.0 | 8.156 | 2 | 33.720 | 8.330 | 32.027 | 2 |
| 2025-04-19T18:58:00 | 54.219974 | 7.672943 | 2.0 | 8.136 | 2 | 34.048 | 8.327 | 32.375 | 2 |
| 2025-04-19T18:59:00 | 54.217497 | 7.675556 | 2.0 | 8.084 | 2 | 34.011 | 8.301 | 32.360 | 2 |
| 2025-04-19T19:00:00 | 54.215027 | 7.678195 | 2.0 | 8.075 | 2 | 33.942 | 8.263 | 32.322 | 2 |
| 2025-04-19T19:01:00 | 54.212563 | 7.680912 | 2.0 | 8.042 | 2 | 34.041 | 8.249 | 32.440 | 2 |
| 2025-04-19T19:02:00 | 54.210076 | 7.683549 | 2.0 | 7.993 | 2 | 34.208 | 8.217 | 32.646 | 2 |
| 2025-04-19T19:03:00 | 54.207644 | 7.686252 | 2.0 | 7.919 | 2 | 34.212 | 8.155 | 32.708 | 2 |
| 2025-04-19T19:04:00 | 54.205148 | 7.688846 | 2.0 | 7.901 | 2 | 34.333 | 8.100 | 32.888 | 2 |
| 2025-04-19T19:05:00 | 54.202666 | 7.691475 | 2.0 | 7.856 | 2 | 34.285 | 8.071 | 32.864 | 2 |
| 2025-04-19T19:06:00 | 54.200229 | 7.694133 | 2.0 | 7.838 | 2 | 34.335 | 8.036 | 32.951 | 2 |
| 2025-04-19T19:07:00 | 54.197780 | 7.696721 | 2.0 | 7.822 | 2 | 34.239 | 8.017 | 32.866 | 2 |
| 2025-04-19T19:08:00 | 54.195341 | 7.699338 | 2.0 | 7.796 | 2 | 34.109 | 7.998 | 32.746 | 2 |
| 2025-04-19T19:09:00 | 54.192880 | 7.701944 | 2.0 | 7.745 | 2 | 34.165 | 7.962 | 32.839 | 2 |
| 2025-04-19T19:10:00 | 54.190444 | 7.704565 | 2.0 | 7.745 | 2 | 34.262 | 7.927 | 32.976 | 2 |
| 2025-04-19T19:11:00 | 54.188012 | 7.707237 | 2.0 | 7.738 | 2 | 34.353 | 7.921 | 33.078 | 2 |
| 2025-04-19T19:12:00 | 54.185535 | 7.709766 | 2.0 | 7.785 | 2 | 34.127 | 7.925 | 32.833 | 2 |
| 2025-04-19T19:13:00 | 54.183074 | 7.712406 | 2.0 | 7.800 | 2 | 34.103 | 7.971 | 32.764 | 2 |
| 2025-04-19T19:14:00 | 54.180616 | 7.715007 | 2.0 | 7.761 | 2 | 34.122 | 7.969 | 32.787 | 2 |
| 2025-04-19T19:15:00 | 54.178188 | 7.717664 | 2.0 | 7.735 | 2 | 34.216 | 7.934 | 32.920 | 2 |
| 2025-04-19T19:16:00 | 54.175747 | 7.720266 | 2.0 | 7.752 | 2 | 34.297 | 7.916 | 33.023 | 2 |
| 2025-04-19T19:17:00 | 54.173276 | 7.722797 | 2.0 | 7.728 | 2 | 34.161 | 7.922 | 32.872 | 2 |
| 2025-04-19T19:18:00 | 54.170828 | 7.725466 | 2.0 | 7.776 | 2 | 34.247 | 7.924 | 32.962 | 2 |
| 2025-04-19T19:19:00 | 54.168325 | 7.728135 | 2.0 | 7.801 | 2 | 34.270 | 7.961 | 32.952 | 2 |
| 2025-04-19T19:20:00 | 54.165827 | 7.730817 | 2.0 | 7.988 | 2 | 34.148 | 8.000 | 32.785 | 2 |
| 2025-04-19T19:21:00 | 54.163304 | 7.733392 | 2.0 | 8.127 | 2 | 34.165 | 8.163 | 32.651 | 2 |
| 2025-04-19T19:22:00 | 54.160815 | 7.735912 | 2.0 | 8.366 | 2 | 34.094 | 8.336 | 32.416 | 2 |
| 2025-04-19T19:23:00 | 54.158374 | 7.738616 | 2.0 | 8.403 | 2 | 33.959 | 8.536 | 32.091 | 2 |
| 2025-04-19T19:24:00 | 54.155890 | 7.741172 | 2.0 | 8.674 | 2 | 33.840 | 8.604 | 31.904 | 2 |
| 2025-04-19T19:25:00 | 54.153238 | 7.743316 | 2.0 | 8.806 | 2 | 33.704 | 8.831 | 31.559 | 2 |
| 2025-04-19T19:26:00 | 54.150631 | 7.745545 | 2.0 | 8.889 | 2 | 33.589 | 8.967 | 31.320 | 2 |
| 2025-04-19T19:27:00 | 54.147895 | 7.747351 | 2.0 | 8.933 | 2 | 33.464 | 9.059 | 31.110 | 2 |
| 2025-04-19T19:28:00 | 54.145160 | 7.749231 | 2.0 | 8.966 | 2 | 33.390 | 9.063 | 31.030 | 2 |
| 2025-04-19T19:29:00 | 54.142433 | 7.751066 | 2.0 | 9.006 | 2 | 33.317 | 9.123 | 30.903 | 2 |
| 2025-04-19T19:30:00 | 54.139751 | 7.752980 | 2.0 | 9.001 | 2 | 33.253 | 9.167 | 30.799 | 2 |
| 2025-04-19T19:31:00 | 54.137030 | 7.754811 | 2.0 | 9.002 | 2 | 33.207 | 9.166 | 30.753 | 2 |
| 2025-04-19T19:32:00 | 54.134309 | 7.756685 | 2.0 | 9.047 | 2 | 33.135 | 9.170 | 30.675 | 2 |
| 2025-04-19T19:33:00 | 54.131617 | 7.758617 | 2.0 | 9.150 | 2 | 33.192 | 9.233 | 30.680 | 2 |
| 2025-04-19T19:34:00 | 54.128879 | 7.760414 | 2.0 | 9.186 | 2 | 33.147 | 9.318 | 30.561 | 2 |
| 2025-04-19T19:35:00 | 54.126163 | 7.762279 | 2.0 | 9.203 | 2 | 33.033 | 9.344 | 30.422 | 2 |
| 2025-04-19T19:36:00 | 54.123429 | 7.764118 | 2.0 | 9.205 | 2 | 32.953 | 9.360 | 30.327 | 2 |
| 2025-04-19T19:37:00 | 54.120716 | 7.766004 | 2.0 | 9.197 | 2 | 32.919 | 9.369 | 30.285 | 2 |
| 2025-04-19T19:38:00 | 54.117955 | 7.767850 | 2.0 | 9.188 | 2 | 32.904 | 9.362 | 30.275 | 2 |
| 2025-04-19T19:39:00 | 54.115218 | 7.769752 | 2.0 | 9.086 | 2 | 32.901 | 9.343 | 30.288 | 2 |
| 2025-04-19T19:40:00 | 54.112640 | 7.772099 | 2.0 | 9.166 | 2 | 32.985 | 9.274 | 30.433 | 2 |
| 2025-04-19T19:41:00 | 54.110162 | 7.774765 | 2.0 | 9.142 | 2 | 32.902 | 9.324 | 30.306 | 2 |
| 2025-04-19T19:42:00 | 54.107667 | 7.777443 | 2.0 | 9.139 | 2 | 32.901 | 9.309 | 30.317 | 2 |
| 2025-04-19T19:43:00 | 54.105139 | 7.780038 | 2.0 | 9.146 | 2 | 32.894 | 9.308 | 30.311 | 2 |
| 2025-04-19T19:44:00 | 54.102864 | 7.783113 | 2.0 | 9.142 | 2 | 32.906 | 9.313 | 30.319 | 2 |
| 2025-04-19T19:45:00 | 54.100628 | 7.786244 | 2.0 | 9.130 | 2 | 32.911 | 9.308 | 30.328 | 2 |
| 2025-04-19T19:46:00 | 54.098464 | 7.789462 | 2.0 | 9.120 | 2 | 32.912 | 9.298 | 30.338 | 2 |
| 2025-04-19T19:47:00 | 54.096227 | 7.792536 | 2.0 | 9.113 | 2 | 32.912 | 9.289 | 30.345 | 2 |
| 2025-04-19T19:48:00 | 54.094285 | 7.796093 | 2.0 | 9.113 | 2 | 32.899 | 9.283 | 30.337 | 2 |
| 2025-04-19T19:49:00 | 54.092464 | 7.799802 | 2.0 | 9.102 | 2 | 32.888 | 9.280 | 30.329 | 2 |
| 2025-04-19T19:50:00 | 54.090637 | 7.803538 | 2.0 | 9.110 | 2 | 32.876 | 9.272 | 30.323 | 2 |
| 2025-04-19T19:51:00 | 54.088762 | 7.807285 | 2.0 | 9.125 | 2 | 32.873 | 9.281 | 30.312 | 2 |
| 2025-04-19T19:52:00 | 54.086935 | 7.811060 | 2.0 | 9.151 | 2 | 32.895 | 9.299 | 30.320 | 2 |
| 2025-04-19T19:53:00 | 54.085011 | 7.814756 | 2.0 | 9.175 | 2 | 32.925 | 9.322 | 30.331 | 2 |
| 2025-04-19T19:54:00 | 54.083158 | 7.818576 | 2.0 | 9.174 | 2 | 32.964 | 9.342 | 30.354 | 2 |
| 2025-04-19T19:55:00 | 54.081254 | 7.822405 | 2.0 | 9.166 | 2 | 32.998 | 9.340 | 30.390 | 2 |
| 2025-04-19T19:56:00 | 54.079397 | 7.826273 | 2.0 | 9.149 | 2 | 32.993 | 9.332 | 30.392 | 2 |
| 2025-04-19T19:57:00 | 54.077514 | 7.830093 | 2.0 | 9.148 | 2 | 32.962 | 9.319 | 30.371 | 2 |
| 2025-04-19T19:58:00 | 54.075621 | 7.833858 | 2.0 | 9.145 | 2 | 32.661 | 9.316 | 30.066 | 2 |
| 2025-04-19T19:59:00 | 54.073729 | 7.837635 | 2.0 | 9.121 | 2 | 32.902 | 9.307 | 30.320 | 2 |
| 2025-04-19T20:00:00 | 54.071835 | 7.841387 | 2.0 | 9.123 | 2 | 32.883 | 9.291 | 30.314 | 2 |
| 2025-04-19T20:01:00 | 54.069995 | 7.845255 | 2.0 | 9.131 | 2 | 32.662 | 9.292 | 30.088 | 2 |
| 2025-04-19T20:02:00 | 54.068120 | 7.848986 | 2.0 | 9.144 | 2 | 32.820 | 9.303 | 30.240 | 2 |
| 2025-04-19T20:03:00 | 54.066238 | 7.852738 | 2.0 | 9.154 | 2 | 32.421 | 9.315 | 29.823 | 2 |
| 2025-04-19T20:04:00 | 54.064298 | 7.855919 | 2.0 | 9.159 | 2 | 32.089 | 9.324 | 29.478 | 2 |
| 2025-04-19T20:05:00 | 54.062867 | 7.858551 | 2.0 | 9.167 | 2 | 32.761 | 9.328 | 30.158 | 2 |
| 2025-04-19T20:06:00 | 54.061571 | 7.860388 | 2.0 | 9.180 | 2 | 32.754 | 9.335 | 30.145 | 2 |
| 2025-04-19T20:07:00 | 54.060523 | 7.861743 | 2.0 | 9.191 | 2 | 32.735 | 9.347 | 30.116 | 2 |
| 2025-04-19T20:08:00 | 54.059842 | 7.861325 | 2.0 | 9.198 | 2 | 32.614 | 9.356 | 29.985 | 2 |
| 2025-04-19T20:09:00 | 54.059549 | 7.860550 | 2.0 | 9.205 | 2 | 32.698 | 9.363 | 30.065 | 2 |
| 2025-04-19T20:10:00 | 54.059482 | 7.859990 | 2.0 | 9.207 | 2 | 32.701 | 9.370 | 30.062 | 2 |
| 2025-04-19T20:11:00 | 54.059500 | 7.859692 | 2.0 | 9.201 | 2 | 32.703 | 9.371 | 30.063 | 2 |
| 2025-04-19T20:12:00 | 54.059514 | 7.859518 | 2.0 | 9.194 | 2 | 32.701 | 9.365 | 30.066 | 2 |
| 2025-04-19T20:13:00 | 54.059517 | 7.859392 | 2.0 | 9.185 | 2 | 32.709 | 9.360 | 30.078 | 2 |
| 2025-04-19T20:14:00 | 54.059488 | 7.859253 | 2.0 | 9.190 | 2 | 32.724 | 9.351 | 30.101 | 2 |
| 2025-04-19T20:15:00 | 54.059400 | 7.859091 | 2.0 | 9.188 | 2 | 32.714 | 9.355 | 30.088 | 2 |
| 2025-04-19T20:16:00 | 54.059257 | 7.858950 | 2.0 | 9.186 | 2 | 32.707 | 9.354 | 30.081 | 2 |
| 2025-04-19T20:17:00 | 54.059113 | 7.858803 | 2.0 | 9.185 | 2 | 32.705 | 9.351 | 30.082 | 2 |
| 2025-04-19T20:18:00 | 54.059247 | 7.858916 | 2.0 | 9.188 | 2 | 32.704 | 9.351 | 30.081 | 2 |
| 2025-04-19T20:19:00 | 54.059494 | 7.859795 | 2.0 | 9.190 | 2 | 32.709 | 9.353 | 30.084 | 2 |
| 2025-04-19T20:20:00 | 54.058980 | 7.860743 | 2.0 | 9.196 | 2 | 32.711 | 9.356 | 30.084 | 2 |
| 2025-04-19T20:21:00 | 54.058103 | 7.860248 | 2.0 | 9.199 | 2 | 32.702 | 9.361 | 30.070 | 2 |
| 2025-04-19T20:22:00 | 54.057400 | 7.858663 | 2.0 | 9.218 | 2 | 32.691 | 9.368 | 30.053 | 2 |
| 2025-04-19T20:23:00 | 54.057070 | 7.856324 | 2.0 | 9.220 | 2 | 32.675 | 9.383 | 30.024 | 2 |
| 2025-04-19T20:24:00 | 54.057025 | 7.853863 | 2.0 | 9.221 | 2 | 32.660 | 9.387 | 30.006 | 2 |
| 2025-04-19T20:25:00 | 54.056950 | 7.851452 | 2.0 | 9.216 | 2 | 32.648 | 9.385 | 29.995 | 2 |
| 2025-04-19T20:26:00 | 54.056803 | 7.849069 | 2.0 | 9.218 | 2 | 32.643 | 9.382 | 29.993 | 2 |
| 2025-04-19T20:27:00 | 54.056800 | 7.846659 | 2.0 | 9.215 | 2 | 32.647 | 9.384 | 29.995 | 2 |
| 2025-04-19T20:28:00 | 54.056875 | 7.844264 | 2.0 | 9.206 | 2 | 32.667 | 9.381 | 30.018 | 2 |
| 2025-04-19T20:29:00 | 54.056850 | 7.841901 | 2.0 | 9.201 | 2 | 32.661 | 9.373 | 30.019 | 2 |
| 2025-04-19T20:30:00 | 54.056818 | 7.839640 | 2.0 | 9.202 | 2 | 32.658 | 9.367 | 30.021 | 2 |
| 2025-04-19T20:31:00 | 54.056821 | 7.837351 | 2.0 | 9.202 | 2 | 32.657 | 9.369 | 30.018 | 2 |
| 2025-04-19T20:32:00 | 54.056796 | 7.835118 | 2.0 | 9.203 | 2 | 32.654 | 9.368 | 30.016 | 2 |
| 2025-04-19T20:33:00 | 54.056754 | 7.832907 | 2.0 | 9.208 | 2 | 32.648 | 9.369 | 30.009 | 2 |
| 2025-04-19T20:34:00 | 54.056731 | 7.830567 | 2.0 | 9.211 | 2 | 32.644 | 9.375 | 30.000 | 2 |
| 2025-04-19T20:35:00 | 54.056681 | 7.828174 | 2.0 | 9.212 | 2 | 32.639 | 9.379 | 29.991 | 2 |
| 2025-04-19T20:36:00 | 54.056594 | 7.825729 | 2.0 | 9.198 | 2 | 32.635 | 9.376 | 29.990 | 2 |
| 2025-04-19T20:37:00 | 54.056572 | 7.823282 | 2.0 | 9.195 | 2 | 32.636 | 9.365 | 30.000 | 2 |
| 2025-04-19T20:38:00 | 54.056623 | 7.820817 | 2.0 | 9.199 | 2 | 32.637 | 9.362 | 30.003 | 2 |
| 2025-04-19T20:39:00 | 54.056624 | 7.818341 | 2.0 | 9.207 | 2 | 32.636 | 9.367 | 29.998 | 2 |
| 2025-04-19T20:40:00 | 54.056576 | 7.815908 | 2.0 | 9.208 | 2 | 32.634 | 9.373 | 29.991 | 2 |
| 2025-04-19T20:41:00 | 54.056558 | 7.813505 | 2.0 | 9.213 | 2 | 32.634 | 9.375 | 29.989 | 2 |
| 2025-04-19T20:42:00 | 54.056603 | 7.811102 | 2.0 | 9.208 | 2 | 32.635 | 9.378 | 29.988 | 2 |
| 2025-04-19T20:43:00 | 54.056617 | 7.808690 | 2.0 | 9.200 | 2 | 32.648 | 9.373 | 30.005 | 2 |
| 2025-04-19T20:44:00 | 54.056540 | 7.806313 | 2.0 | 9.190 | 2 | 32.661 | 9.364 | 30.026 | 2 |
| 2025-04-19T20:45:00 | 54.056508 | 7.803932 | 2.0 | 9.186 | 2 | 32.680 | 9.357 | 30.051 | 2 |
| 2025-04-19T20:46:00 | 54.056473 | 7.801578 | 2.0 | 9.186 | 2 | 32.701 | 9.353 | 30.076 | 2 |
| 2025-04-19T20:47:00 | 54.056408 | 7.799348 | 2.0 | 9.175 | 2 | 32.723 | 9.351 | 30.100 | 2 |
| 2025-04-19T20:48:00 | 54.056386 | 7.797049 | 2.0 | 9.167 | 2 | 32.753 | 9.340 | 30.140 | 2 |
| 2025-04-19T20:49:00 | 54.056321 | 7.794692 | 2.0 | 9.165 | 2 | 32.774 | 9.334 | 30.167 | 2 |
| 2025-04-19T20:50:00 | 54.056273 | 7.792310 | 2.0 | 9.160 | 2 | 32.791 | 9.332 | 30.186 | 2 |
| 2025-04-19T20:51:00 | 54.056263 | 7.789947 | 2.0 | 9.147 | 2 | 32.808 | 9.325 | 30.209 | 2 |
| 2025-04-19T20:52:00 | 54.056281 | 7.787592 | 2.0 | 9.124 | 2 | 32.836 | 9.312 | 30.248 | 2 |
| 2025-04-19T20:53:00 | 54.056261 | 7.785244 | 2.0 | 9.116 | 2 | 32.869 | 9.289 | 30.301 | 2 |
| 2025-04-19T20:54:00 | 54.056174 | 7.782847 | 2.0 | 9.105 | 2 | 32.900 | 9.281 | 30.340 | 2 |
| 2025-04-19T20:55:00 | 54.056105 | 7.780440 | 2.0 | 9.093 | 2 | 32.924 | 9.270 | 30.374 | 2 |
| 2025-04-19T20:56:00 | 54.056014 | 7.778063 | 2.0 | 9.089 | 2 | 32.964 | 9.261 | 30.422 | 2 |
| 2025-04-19T20:57:00 | 54.055997 | 7.775695 | 2.0 | 9.084 | 2 | 33.018 | 9.256 | 30.482 | 2 |
| 2025-04-19T20:58:00 | 54.056062 | 7.773318 | 2.0 | 9.086 | 2 | 33.058 | 9.252 | 30.526 | 2 |
| 2025-04-19T20:59:00 | 54.056101 | 7.771020 | 2.0 | 9.085 | 2 | 33.072 | 9.254 | 30.539 | 2 |
| 2025-04-19T21:00:00 | 54.056110 | 7.768760 | 2.0 | 9.076 | 2 | 33.075 | 9.249 | 30.546 | 2 |
| 2025-04-19T21:01:00 | 54.056089 | 7.766446 | 2.0 | 9.093 | 2 | 33.069 | 9.248 | 30.541 | 2 |
| 2025-04-19T21:02:00 | 54.056054 | 7.764127 | 2.0 | 9.088 | 2 | 33.064 | 9.260 | 30.525 | 2 |
| 2025-04-19T21:03:00 | 54.056010 | 7.761767 | 2.0 | 9.067 | 2 | 33.052 | 9.250 | 30.522 | 2 |
| 2025-04-19T21:04:00 | 54.056007 | 7.759412 | 2.0 | 9.052 | 2 | 33.042 | 9.234 | 30.525 | 2 |
| 2025-04-19T21:05:00 | 54.056004 | 7.757100 | 2.0 | 9.037 | 2 | 32.925 | 9.218 | 30.419 | 2 |
| 2025-04-19T21:06:00 | 54.055809 | 7.754902 | 2.0 | 9.029 | 2 | 33.029 | 9.204 | 30.538 | 2 |
| 2025-04-19T21:07:00 | 54.055386 | 7.752725 | 2.0 | 9.028 | 2 | 33.029 | 9.197 | 30.543 | 2 |
| 2025-04-19T21:08:00 | 54.055006 | 7.750430 | 2.0 | 9.028 | 2 | 33.028 | 9.196 | 30.543 | 2 |
| 2025-04-19T21:09:00 | 54.054453 | 7.748242 | 2.0 | 9.024 | 2 | 32.710 | 9.195 | 30.219 | 2 |
| 2025-04-19T21:10:00 | 54.054227 | 7.745981 | 2.0 | 9.015 | 2 | 33.024 | 9.191 | 30.544 | 2 |
| 2025-04-19T21:11:00 | 54.054559 | 7.744013 | 2.0 | 9.007 | 2 | 32.914 | 9.178 | 30.442 | 2 |
| 2025-04-19T21:12:00 | 54.054979 | 7.742089 | 2.0 | 8.975 | 2 | 32.358 | 9.173 | 29.877 | 2 |
| 2025-04-19T21:13:00 | 54.055370 | 7.740082 | 2.0 | 8.635 | 2 | 33.015 | 9.040 | 30.664 | 2 |
| 2025-04-19T21:14:00 | 54.055675 | 7.737934 | 2.0 | 8.661 | 2 | 33.469 | 8.851 | 31.298 | 2 |
| 2025-04-19T21:15:00 | 54.055760 | 7.735754 | 2.0 | 8.647 | 2 | 33.475 | 8.821 | 31.330 | 2 |
| 2025-04-19T21:16:00 | 54.055656 | 7.733495 | 2.0 | 8.861 | 2 | 33.403 | 8.880 | 31.204 | 2 |
| 2025-04-19T21:17:00 | 54.055679 | 7.731190 | 2.0 | 8.789 | 2 | 32.890 | 9.010 | 30.561 | 2 |
| 2025-04-19T21:18:00 | 54.055739 | 7.728907 | 2.0 | 8.853 | 2 | 33.127 | 8.967 | 30.842 | 2 |
| 2025-04-19T21:19:00 | 54.055677 | 7.726567 | 2.0 | 8.990 | 2 | 33.013 | 9.051 | 30.652 | 2 |
| 2025-04-19T21:20:00 | 54.055617 | 7.724162 | 2.0 | 8.989 | 2 | 32.712 | 9.146 | 30.262 | 2 |
| 2025-04-19T21:21:00 | 54.055643 | 7.721767 | 2.0 | 9.019 | 2 | 32.912 | 9.148 | 30.465 | 2 |
| 2025-04-19T21:22:00 | 54.055577 | 7.719478 | 2.0 | 9.020 | 2 | 32.605 | 9.185 | 30.120 | 2 |
| 2025-04-19T21:23:00 | 54.054888 | 7.717472 | 2.0 | 9.009 | 2 | 33.158 | 9.176 | 30.694 | 2 |
| 2025-04-19T21:24:00 | 54.054332 | 7.715451 | 2.0 | 9.015 | 2 | 33.168 | 9.171 | 30.708 | 2 |
| 2025-04-19T21:25:00 | 54.055042 | 7.714735 | 2.0 | 9.029 | 2 | 32.832 | 9.182 | 30.355 | 2 |
| 2025-04-19T21:26:00 | 54.055715 | 7.716312 | 2.0 | 9.031 | 2 | 32.697 | 9.187 | 30.212 | 2 |
| 2025-04-19T21:27:00 | 54.056266 | 7.718533 | 2.0 | 8.956 | 2 | 33.065 | 9.185 | 30.591 | 2 |
| 2025-04-19T21:28:00 | 54.056479 | 7.720803 | 2.0 | 9.028 | 2 | 32.922 | 9.138 | 30.484 | 2 |
| 2025-04-19T21:29:00 | 54.056500 | 7.723128 | 2.0 | 9.031 | 2 | 33.024 | 9.192 | 30.543 | 2 |
| 2025-04-19T21:30:00 | 54.056593 | 7.725486 | 2.0 | 9.019 | 2 | 32.935 | 9.196 | 30.448 | 2 |
| 2025-04-19T21:31:00 | 54.056647 | 7.727861 | 2.0 | 9.009 | 2 | 32.872 | 9.184 | 30.394 | 2 |
| 2025-04-19T21:32:00 | 54.056649 | 7.730253 | 2.0 | 8.995 | 2 | 32.855 | 9.173 | 30.386 | 2 |
| 2025-04-19T21:33:00 | 54.056610 | 7.732669 | 2.0 | 8.962 | 2 | 32.869 | 9.162 | 30.409 | 2 |
| 2025-04-19T21:34:00 | 54.056418 | 7.734985 | 2.0 | 8.764 | 2 | 32.790 | 9.111 | 30.372 | 2 |
| 2025-04-19T21:35:00 | 54.055779 | 7.737136 | 2.0 | 8.762 | 2 | 32.868 | 8.942 | 30.597 | 2 |
| 2025-04-19T21:36:00 | 54.055031 | 7.739262 | 2.0 | 8.658 | 2 | 33.048 | 8.904 | 30.816 | 2 |
| 2025-04-19T21:37:00 | 54.054161 | 7.741258 | 2.0 | 8.991 | 2 | 33.025 | 8.935 | 30.765 | 2 |
| 2025-04-19T21:38:00 | 54.053617 | 7.743400 | 2.0 | 9.005 | 2 | 32.820 | 9.148 | 30.371 | 2 |
| 2025-04-19T21:39:00 | 54.053605 | 7.745533 | 2.0 | 9.012 | 2 | 32.629 | 9.168 | 30.159 | 2 |
| 2025-04-19T21:40:00 | 54.053729 | 7.747709 | 2.0 | 9.016 | 2 | 32.799 | 9.178 | 30.324 | 2 |
| 2025-04-19T21:41:00 | 54.054083 | 7.749794 | 2.0 | 9.018 | 2 | 32.726 | 9.182 | 30.246 | 2 |
| 2025-04-19T21:42:00 | 54.054688 | 7.751734 | 2.0 | 9.029 | 2 | 32.883 | 9.185 | 30.404 | 2 |
| 2025-04-19T21:43:00 | 54.055354 | 7.753652 | 2.0 | 9.070 | 2 | 32.894 | 9.198 | 30.404 | 2 |
| 2025-04-19T21:44:00 | 54.056021 | 7.755575 | 2.0 | 9.080 | 2 | 32.837 | 9.238 | 30.312 | 2 |
| 2025-04-19T21:45:00 | 54.056637 | 7.757499 | 2.0 | 9.063 | 2 | 32.670 | 9.236 | 30.143 | 2 |
| 2025-04-19T21:46:00 | 54.056685 | 7.759659 | 2.0 | 9.103 | 2 | 32.725 | 9.234 | 30.201 | 2 |
| 2025-04-19T21:47:00 | 54.056822 | 7.761800 | 2.0 | 9.123 | 2 | 32.541 | 9.271 | 29.982 | 2 |
| 2025-04-19T21:48:00 | 54.056974 | 7.763978 | 2.0 | 9.137 | 2 | 32.714 | 9.293 | 30.140 | 2 |
| 2025-04-19T21:49:00 | 54.056941 | 7.766193 | 2.0 | 9.141 | 2 | 32.790 | 9.304 | 30.208 | 2 |
| 2025-04-19T21:50:00 | 54.056981 | 7.768435 | 2.0 | 9.149 | 2 | 32.564 | 9.306 | 29.976 | 2 |
| 2025-04-19T21:51:00 | 54.056978 | 7.770700 | 2.0 | 9.142 | 2 | 32.601 | 9.313 | 30.008 | 2 |
| 2025-04-19T21:52:00 | 54.056983 | 7.772976 | 2.0 | 9.148 | 2 | 32.636 | 9.310 | 30.046 | 2 |
| 2025-04-19T21:53:00 | 54.057082 | 7.775267 | 2.0 | 9.149 | 2 | 32.553 | 9.314 | 29.958 | 2 |
| 2025-04-19T21:54:00 | 54.057116 | 7.777583 | 2.0 | 9.149 | 2 | 32.533 | 9.316 | 29.936 | 2 |
| 2025-04-19T21:55:00 | 54.057102 | 7.779918 | 2.0 | 9.148 | 2 | 32.557 | 9.315 | 29.961 | 2 |
| 2025-04-19T21:56:00 | 54.057160 | 7.782240 | 2.0 | 9.150 | 2 | 32.554 | 9.315 | 29.958 | 2 |
| 2025-04-19T21:57:00 | 54.057216 | 7.784567 | 2.0 | 9.163 | 2 | 32.600 | 9.319 | 30.002 | 2 |
| 2025-04-19T21:58:00 | 54.057227 | 7.786922 | 2.0 | 9.171 | 2 | 32.548 | 9.330 | 29.940 | 2 |
| 2025-04-19T21:59:00 | 54.057164 | 7.789297 | 2.0 | 9.175 | 2 | 32.494 | 9.338 | 29.878 | 2 |
| 2025-04-19T22:00:00 | 54.057231 | 7.791663 | 2.0 | 9.175 | 2 | 32.501 | 9.341 | 29.883 | 2 |
| 2025-04-19T22:01:00 | 54.057284 | 7.794019 | 2.0 | 9.171 | 2 | 32.582 | 9.340 | 29.966 | 2 |
| 2025-04-19T22:02:00 | 54.057298 | 7.796380 | 2.0 | 9.168 | 2 | 32.606 | 9.337 | 29.993 | 2 |
| 2025-04-19T22:03:00 | 54.057347 | 7.798757 | 2.0 | 9.158 | 2 | 32.595 | 9.332 | 29.986 | 2 |
| 2025-04-19T22:04:00 | 54.057331 | 7.801181 | 2.0 | 9.155 | 2 | 32.602 | 9.325 | 29.999 | 2 |
| 2025-04-19T22:05:00 | 54.057412 | 7.803616 | 2.0 | 9.141 | 2 | 32.618 | 9.319 | 30.020 | 2 |
| 2025-04-19T22:06:00 | 54.057422 | 7.806049 | 2.0 | 9.132 | 2 | 32.656 | 9.306 | 30.070 | 2 |
| 2025-04-19T22:07:00 | 54.057434 | 7.808487 | 2.0 | 9.128 | 2 | 32.638 | 9.298 | 30.058 | 2 |
| 2025-04-19T22:08:00 | 54.057468 | 7.810960 | 2.0 | 9.132 | 2 | 32.697 | 9.295 | 30.121 | 2 |
| 2025-04-19T22:09:00 | 54.057471 | 7.813433 | 2.0 | 9.138 | 2 | 32.672 | 9.299 | 30.092 | 2 |
| 2025-04-19T22:10:00 | 54.057513 | 7.815898 | 2.0 | 9.148 | 2 | 32.652 | 9.307 | 30.065 | 2 |
| 2025-04-19T22:11:00 | 54.057538 | 7.818354 | 2.0 | 9.144 | 2 | 32.691 | 9.313 | 30.100 | 2 |
| 2025-04-19T22:12:00 | 54.057508 | 7.820800 | 2.0 | 9.138 | 2 | 32.692 | 9.309 | 30.104 | 2 |
| 2025-04-19T22:13:00 | 54.057524 | 7.823266 | 2.0 | 9.138 | 2 | 32.675 | 9.305 | 30.090 | 2 |
| 2025-04-19T22:14:00 | 54.057591 | 7.825743 | 2.0 | 9.131 | 2 | 32.752 | 9.305 | 30.169 | 2 |
| 2025-04-19T22:15:00 | 54.057601 | 7.828216 | 2.0 | 9.114 | 2 | 32.698 | 9.294 | 30.123 | 2 |
| 2025-04-19T22:16:00 | 54.057606 | 7.830722 | 2.0 | 9.105 | 2 | 32.751 | 9.279 | 30.189 | 2 |
| 2025-04-19T22:17:00 | 54.057604 | 7.833258 | 2.0 | 9.109 | 2 | 32.764 | 9.274 | 30.207 | 2 |
| 2025-04-19T22:18:00 | 54.057659 | 7.835760 | 2.0 | 9.109 | 2 | 32.769 | 9.277 | 30.210 | 2 |
| 2025-04-19T22:19:00 | 54.057722 | 7.838175 | 2.0 | 9.115 | 2 | 32.784 | 9.276 | 30.226 | 2 |
| 2025-04-19T22:20:00 | 54.057743 | 7.840591 | 2.0 | 9.116 | 2 | 32.770 | 9.282 | 30.206 | 2 |
| 2025-04-19T22:21:00 | 54.057748 | 7.843015 | 2.0 | 9.111 | 2 | 32.793 | 9.282 | 30.230 | 2 |
| 2025-04-19T22:22:00 | 54.057790 | 7.845463 | 2.0 | 9.109 | 2 | 32.796 | 9.277 | 30.237 | 2 |
| 2025-04-19T22:23:00 | 54.057858 | 7.847920 | 2.0 | 9.107 | 2 | 32.802 | 9.275 | 30.245 | 2 |
| 2025-04-19T22:24:00 | 54.057846 | 7.850365 | 2.0 | 9.096 | 2 | 32.814 | 9.272 | 30.260 | 2 |
| 2025-04-19T22:25:00 | 54.057768 | 7.852777 | 2.0 | 9.087 | 2 | 32.806 | 9.262 | 30.260 | 2 |
| 2025-04-19T22:26:00 | 54.058283 | 7.854178 | 2.0 | 9.077 | 2 | 32.795 | 9.252 | 30.257 | 2 |
| 2025-04-19T22:27:00 | 54.058915 | 7.854005 | 2.0 | 9.076 | 2 | 32.775 | 9.243 | 30.244 | 2 |
| 2025-04-19T22:28:00 | 54.059168 | 7.852819 | 2.0 | 9.083 | 2 | 32.782 | 9.243 | 30.252 | 2 |
| 2025-04-19T22:29:00 | 54.059060 | 7.851078 | 2.0 | 9.089 | 2 | 32.808 | 9.251 | 30.271 | 2 |
| 2025-04-19T22:30:00 | 54.058906 | 7.849251 | 2.0 | 9.101 | 2 | 32.781 | 9.257 | 30.239 | 2 |
| 2025-04-19T22:31:00 | 54.058907 | 7.847353 | 2.0 | 9.106 | 2 | 32.819 | 9.268 | 30.268 | 2 |
| 2025-04-19T22:32:00 | 54.058786 | 7.845210 | 2.0 | 9.107 | 2 | 32.823 | 9.271 | 30.270 | 2 |
| 2025-04-19T22:33:00 | 54.058717 | 7.842881 | 2.0 | 9.106 | 2 | 32.822 | 9.273 | 30.267 | 2 |
| 2025-04-19T22:34:00 | 54.058673 | 7.840504 | 2.0 | 9.110 | 2 | 32.814 | 9.272 | 30.260 | 2 |
| 2025-04-19T22:35:00 | 54.058593 | 7.838082 | 2.0 | 9.106 | 2 | 32.809 | 9.276 | 30.251 | 2 |
| 2025-04-19T22:36:00 | 54.058561 | 7.835599 | 2.0 | 9.101 | 2 | 32.815 | 9.270 | 30.262 | 2 |
| 2025-04-19T22:37:00 | 54.058586 | 7.833124 | 2.0 | 9.102 | 2 | 32.434 | 9.268 | 29.875 | 2 |
| 2025-04-19T22:38:00 | 54.058592 | 7.830650 | 2.0 | 9.101 | 2 | 32.808 | 9.268 | 30.257 | 2 |
| 2025-04-19T22:39:00 | 54.058509 | 7.828204 | 2.0 | 9.107 | 2 | 32.811 | 9.267 | 30.261 | 2 |
| 2025-04-19T22:40:00 | 54.058494 | 7.825863 | 2.0 | 9.119 | 2 | 32.792 | 9.275 | 30.235 | 2 |
| 2025-04-19T22:41:00 | 54.058479 | 7.823538 | 2.0 | 9.127 | 2 | 32.778 | 9.286 | 30.211 | 2 |
| 2025-04-19T22:42:00 | 54.058394 | 7.821201 | 2.0 | 9.126 | 2 | 32.764 | 9.292 | 30.192 | 2 |
| 2025-04-19T22:43:00 | 54.058406 | 7.818830 | 2.0 | 9.133 | 2 | 32.444 | 9.293 | 29.865 | 2 |
| 2025-04-19T22:44:00 | 54.058361 | 7.816543 | 2.0 | 9.136 | 2 | 32.334 | 9.299 | 29.748 | 2 |
| 2025-04-19T22:45:00 | 54.058379 | 7.814316 | 2.0 | 9.127 | 2 | 32.641 | 9.301 | 30.059 | 2 |
| 2025-04-19T22:46:00 | 54.058353 | 7.812107 | 2.0 | 9.122 | 2 | 31.927 | 9.292 | 29.339 | 2 |
| 2025-04-19T22:47:00 | 54.058327 | 7.809767 | 2.0 | 9.115 | 2 | 32.021 | 9.286 | 29.440 | 2 |
| 2025-04-19T22:48:00 | 54.058248 | 7.807358 | 2.0 | 9.116 | 2 | 31.607 | 9.282 | 29.022 | 2 |
| 2025-04-19T22:49:00 | 54.058278 | 7.805035 | 2.0 | 9.123 | 2 | 32.746 | 9.284 | 30.180 | 2 |
| 2025-04-19T22:50:00 | 54.058239 | 7.802707 | 2.0 | 9.135 | 2 | 32.732 | 9.291 | 30.160 | 2 |
| 2025-04-19T22:51:00 | 54.058187 | 7.800477 | 2.0 | 9.144 | 2 | 32.144 | 9.302 | 29.552 | 2 |
| 2025-04-19T22:52:00 | 54.058238 | 7.798198 | 2.0 | 9.144 | 2 | 32.122 | 9.309 | 29.523 | 2 |
| 2025-04-19T22:53:00 | 54.058198 | 7.795842 | 2.0 | 9.152 | 2 | 32.601 | 9.312 | 30.009 | 2 |
| 2025-04-19T22:54:00 | 54.058135 | 7.793438 | 2.0 | 9.156 | 2 | 32.344 | 9.318 | 29.742 | 2 |
| 2025-04-19T22:55:00 | 54.058162 | 7.791061 | 2.0 | 9.159 | 2 | 31.648 | 9.321 | 29.032 | 2 |
| 2025-04-19T22:56:00 | 54.058043 | 7.788628 | 2.0 | 9.161 | 2 | 32.398 | 9.325 | 29.791 | 2 |
| 2025-04-19T22:57:00 | 54.058039 | 7.786155 | 2.0 | 9.161 | 2 | 32.424 | 9.326 | 29.817 | 2 |
| 2025-04-19T22:58:00 | 54.058047 | 7.783698 | 2.0 | 9.149 | 2 | 32.318 | 9.325 | 29.710 | 2 |
| 2025-04-19T22:59:00 | 54.057980 | 7.781297 | 2.0 | 9.139 | 2 | 31.810 | 9.315 | 29.201 | 2 |
| 2025-04-19T23:00:00 | 54.058023 | 7.778978 | 2.0 | 9.134 | 2 | 32.308 | 9.304 | 29.717 | 2 |
| 2025-04-19T23:01:00 | 54.057949 | 7.776600 | 2.0 | 9.130 | 2 | 32.103 | 9.299 | 29.512 | 2 |
| 2025-04-19T23:02:00 | 54.057942 | 7.774204 | 2.0 | 9.126 | 2 | 32.360 | 9.295 | 29.777 | 2 |
| 2025-04-19T23:03:00 | 54.057958 | 7.771818 | 2.0 | 9.120 | 2 | 32.285 | 9.291 | 29.704 | 2 |
| 2025-04-19T23:04:00 | 54.057901 | 7.769436 | 2.0 | 9.117 | 2 | 32.222 | 9.286 | 29.644 | 2 |
| 2025-04-19T23:05:00 | 54.057885 | 7.767043 | 2.0 | 9.122 | 2 | 32.534 | 9.284 | 29.964 | 2 |
| 2025-04-19T23:06:00 | 54.057831 | 7.764658 | 2.0 | 9.114 | 2 | 32.535 | 9.285 | 29.964 | 2 |
| 2025-04-19T23:07:00 | 54.057791 | 7.762229 | 2.0 | 9.107 | 2 | 32.775 | 9.282 | 30.211 | 2 |
| 2025-04-19T23:08:00 | 54.057377 | 7.760008 | 2.0 | 9.096 | 2 | 32.641 | 9.271 | 30.084 | 2 |
| 2025-04-19T23:09:00 | 54.056772 | 7.757773 | 2.0 | 8.864 | 2 | 32.359 | 9.254 | 29.810 | 2 |
| 2025-04-19T23:10:00 | 54.056345 | 7.755440 | 2.0 | 8.874 | 2 | 33.201 | 9.008 | 30.883 | 2 |
| 2025-04-19T23:11:00 | 54.055912 | 7.753096 | 2.0 | 8.982 | 2 | 33.134 | 9.077 | 30.754 | 2 |
| 2025-04-19T23:12:00 | 54.055455 | 7.750731 | 2.0 | 9.017 | 2 | 33.045 | 9.146 | 30.604 | 2 |
| 2025-04-19T23:13:00 | 54.055396 | 7.748345 | 2.0 | 8.996 | 2 | 32.994 | 9.178 | 30.524 | 2 |
| 2025-04-19T23:14:00 | 54.055721 | 7.746124 | 2.0 | 8.984 | 2 | 32.978 | 9.159 | 30.524 | 2 |
| 2025-04-19T23:15:00 | 54.056115 | 7.743966 | 2.0 | 8.983 | 2 | 32.986 | 9.152 | 30.538 | 2 |
| 2025-04-19T23:16:00 | 54.056520 | 7.741768 | 2.0 | 8.980 | 2 | 32.986 | 9.151 | 30.539 | 2 |
| 2025-04-19T23:17:00 | 54.056886 | 7.739520 | 2.0 | 8.980 | 2 | 32.988 | 9.147 | 30.544 | 2 |
| 2025-04-19T23:18:00 | 54.057242 | 7.737208 | 2.0 | 8.963 | 2 | 32.996 | 9.145 | 30.554 | 2 |
| 2025-04-19T23:19:00 | 54.057408 | 7.734830 | 2.0 | 8.954 | 2 | 33.011 | 9.130 | 30.582 | 2 |
| 2025-04-19T23:20:00 | 54.057507 | 7.732489 | 2.0 | 8.964 | 2 | 33.023 | 9.122 | 30.602 | 2 |
| 2025-04-19T23:21:00 | 54.057416 | 7.730157 | 2.0 | 8.965 | 2 | 33.027 | 9.131 | 30.598 | 2 |
| 2025-04-19T23:22:00 | 54.057534 | 7.727774 | 2.0 | 8.975 | 2 | 33.038 | 9.132 | 30.608 | 2 |
| 2025-04-19T23:23:00 | 54.057447 | 7.725420 | 2.0 | 8.990 | 2 | 33.042 | 9.145 | 30.601 | 2 |
| 2025-04-19T23:24:00 | 54.057376 | 7.723073 | 2.0 | 8.974 | 2 | 33.090 | 9.154 | 30.643 | 2 |
| 2025-04-19T23:25:00 | 54.057359 | 7.720759 | 2.0 | 8.900 | 2 | 33.173 | 9.125 | 30.753 | 2 |
| 2025-04-19T23:26:00 | 54.057225 | 7.718604 | 2.0 | 8.856 | 2 | 33.276 | 9.062 | 30.914 | 2 |
| 2025-04-19T23:27:00 | 54.057173 | 7.716620 | 2.0 | 8.807 | 2 | 33.360 | 9.016 | 31.040 | 2 |
| 2025-04-19T23:28:00 | 54.058067 | 7.716681 | 2.0 | 8.810 | 2 | 33.416 | 8.975 | 31.134 | 2 |
| 2025-04-19T23:29:00 | 54.058474 | 7.718839 | 2.0 | 8.854 | 2 | 33.396 | 8.986 | 31.103 | 2 |
| 2025-04-19T23:30:00 | 54.058428 | 7.721447 | 2.0 | 8.881 | 2 | 33.334 | 9.028 | 31.003 | 2 |
| 2025-04-19T23:31:00 | 54.058475 | 7.724075 | 2.0 | 8.924 | 2 | 33.273 | 9.054 | 30.917 | 2 |
| 2025-04-19T23:32:00 | 54.058561 | 7.726742 | 2.0 | 8.965 | 2 | 33.192 | 9.098 | 30.796 | 2 |
| 2025-04-19T23:33:00 | 54.058581 | 7.729467 | 2.0 | 8.969 | 2 | 33.103 | 9.132 | 30.675 | 2 |
| 2025-04-19T23:34:00 | 54.058610 | 7.732208 | 2.0 | 8.964 | 2 | 33.056 | 9.133 | 30.626 | 2 |
| 2025-04-19T23:35:00 | 54.058614 | 7.734888 | 2.0 | 8.963 | 2 | 33.040 | 9.131 | 30.611 | 2 |
| 2025-04-19T23:36:00 | 54.058470 | 7.737501 | 2.0 | 8.954 | 2 | 33.029 | 9.129 | 30.602 | 2 |
| 2025-04-19T23:37:00 | 54.057803 | 7.739755 | 2.0 | 8.944 | 2 | 33.021 | 9.119 | 30.602 | 2 |
| 2025-04-19T23:38:00 | 54.056953 | 7.741740 | 2.0 | 8.953 | 2 | 33.022 | 9.113 | 30.608 | 2 |
| 2025-04-19T23:39:00 | 54.056491 | 7.744033 | 2.0 | 8.957 | 2 | 33.011 | 9.119 | 30.592 | 2 |
| 2025-04-19T23:40:00 | 54.056464 | 7.746467 | 2.0 | 8.968 | 2 | 32.998 | 9.127 | 30.572 | 2 |
| 2025-04-19T23:41:00 | 54.056470 | 7.748931 | 2.0 | 8.971 | 2 | 32.983 | 9.134 | 30.550 | 2 |
| 2025-04-19T23:42:00 | 54.056522 | 7.751429 | 2.0 | 8.977 | 2 | 32.981 | 9.139 | 30.544 | 2 |
| 2025-04-19T23:43:00 | 54.056855 | 7.753836 | 2.0 | 8.988 | 2 | 32.981 | 9.144 | 30.540 | 2 |
| 2025-04-19T23:44:00 | 54.057362 | 7.756164 | 2.0 | 8.934 | 2 | 32.961 | 9.163 | 30.503 | 2 |
| 2025-04-19T23:45:00 | 54.057816 | 7.758587 | 2.0 | 8.860 | 2 | 33.174 | 9.047 | 30.822 | 2 |
| 2025-04-19T23:46:00 | 54.058216 | 7.761090 | 2.0 | 8.997 | 2 | 33.147 | 9.068 | 30.776 | 2 |
| 2025-04-19T23:47:00 | 54.058531 | 7.763677 | 2.0 | 8.968 | 2 | 33.046 | 9.154 | 30.598 | 2 |
| 2025-04-19T23:48:00 | 54.058696 | 7.766301 | 2.0 | 9.003 | 2 | 33.047 | 9.146 | 30.606 | 2 |
| 2025-04-19T23:49:00 | 54.058690 | 7.768871 | 2.0 | 9.062 | 2 | 33.023 | 9.166 | 30.564 | 2 |
| 2025-04-19T23:50:00 | 54.058670 | 7.771337 | 2.0 | 9.073 | 2 | 32.917 | 9.217 | 30.412 | 2 |
| 2025-04-19T23:51:00 | 54.058788 | 7.773783 | 2.0 | 9.097 | 2 | 32.855 | 9.239 | 30.330 | 2 |
| 2025-04-19T23:52:00 | 54.058869 | 7.776232 | 2.0 | 9.101 | 2 | 32.824 | 9.260 | 30.280 | 2 |
| 2025-04-19T23:53:00 | 54.058897 | 7.778700 | 2.0 | 9.106 | 2 | 32.800 | 9.267 | 30.250 | 2 |
| 2025-04-19T23:54:00 | 54.058928 | 7.781176 | 2.0 | 9.111 | 2 | 32.767 | 9.273 | 30.211 | 2 |
| 2025-04-19T23:55:00 | 54.058968 | 7.783667 | 2.0 | 9.111 | 2 | 32.737 | 9.276 | 30.178 | 2 |
| 2025-04-19T23:56:00 | 54.058997 | 7.786173 | 2.0 | 9.112 | 2 | 32.722 | 9.277 | 30.162 | 2 |
| 2025-04-19T23:57:00 | 54.059026 | 7.788701 | 2.0 | 9.111 | 2 | 32.710 | 9.277 | 30.149 | 2 |
| 2025-04-19T23:58:00 | 54.059070 | 7.791243 | 2.0 | 9.115 | 2 | 32.701 | 9.278 | 30.139 | 2 |
| 2025-04-19T23:59:00 | 54.059106 | 7.793781 | 2.0 | 9.120 | 2 | 32.689 | 9.282 | 30.124 | 2 |
| 2025-04-20T00:00:00 | 54.059179 | 7.796320 | 2.0 | 9.129 | 2 | 32.681 | 9.287 | 30.111 | 2 |
| 2025-04-20T00:01:00 | 54.059261 | 7.798852 | 2.0 | 9.136 | 2 | 32.670 | 9.295 | 30.093 | 2 |
| 2025-04-20T00:02:00 | 54.059263 | 7.801396 | 2.0 | 9.138 | 2 | 32.661 | 9.302 | 30.078 | 2 |
| 2025-04-20T00:03:00 | 54.059245 | 7.803934 | 2.0 | 9.140 | 2 | 32.651 | 9.304 | 30.066 | 2 |
| 2025-04-20T00:04:00 | 54.059294 | 7.806471 | 2.0 | 9.145 | 2 | 32.640 | 9.306 | 30.053 | 2 |
| 2025-04-20T00:05:00 | 54.059323 | 7.809003 | 2.0 | 9.151 | 2 | 32.631 | 9.311 | 30.040 | 2 |
| 2025-04-20T00:06:00 | 54.059303 | 7.811533 | 2.0 | 9.153 | 2 | 32.627 | 9.318 | 30.030 | 2 |
| 2025-04-20T00:07:00 | 54.059316 | 7.814053 | 2.0 | 9.154 | 2 | 32.625 | 9.319 | 30.027 | 2 |
| 2025-04-20T00:08:00 | 54.059404 | 7.816571 | 2.0 | 9.154 | 2 | 32.627 | 9.320 | 30.028 | 2 |
| 2025-04-20T00:09:00 | 54.059418 | 7.819117 | 2.0 | 9.153 | 2 | 32.629 | 9.320 | 30.031 | 2 |
| 2025-04-20T00:10:00 | 54.059388 | 7.821656 | 2.0 | 9.153 | 2 | 32.631 | 9.319 | 30.033 | 2 |
| 2025-04-20T00:11:00 | 54.059362 | 7.824203 | 2.0 | 9.149 | 2 | 32.636 | 9.318 | 30.039 | 2 |
| 2025-04-20T00:12:00 | 54.059407 | 7.826754 | 2.0 | 9.144 | 2 | 32.642 | 9.314 | 30.049 | 2 |
| 2025-04-20T00:13:00 | 54.059479 | 7.829312 | 2.0 | 9.140 | 2 | 32.655 | 9.309 | 30.066 | 2 |
| 2025-04-20T00:14:00 | 54.059497 | 7.831878 | 2.0 | 9.139 | 2 | 32.664 | 9.305 | 30.079 | 2 |
| 2025-04-20T00:15:00 | 54.059534 | 7.834452 | 2.0 | 9.138 | 2 | 32.674 | 9.305 | 30.089 | 2 |
| 2025-04-20T00:16:00 | 54.059547 | 7.837014 | 2.0 | 9.144 | 2 | 32.677 | 9.305 | 30.092 | 2 |
| 2025-04-20T00:17:00 | 54.059607 | 7.839596 | 2.0 | 9.142 | 2 | 32.674 | 9.309 | 30.086 | 2 |
| 2025-04-20T00:18:00 | 54.059606 | 7.842174 | 2.0 | 9.143 | 2 | 32.678 | 9.308 | 30.091 | 2 |
| 2025-04-20T00:19:00 | 54.059598 | 7.844747 | 2.0 | 9.149 | 2 | 32.676 | 9.310 | 30.087 | 2 |
| 2025-04-20T00:20:00 | 54.059672 | 7.847289 | 2.0 | 9.145 | 2 | 32.675 | 9.314 | 30.082 | 2 |
| 2025-04-20T00:21:00 | 54.059571 | 7.849775 | 2.0 | 9.142 | 2 | 32.686 | 9.310 | 30.097 | 2 |
| 2025-04-20T00:22:00 | 54.059875 | 7.851763 | 2.0 | 9.130 | 2 | 32.691 | 9.304 | 30.107 | 2 |
| 2025-04-20T00:23:00 | 54.060630 | 7.852142 | 2.0 | 9.129 | 2 | 32.697 | 9.295 | 30.121 | 2 |
| 2025-04-20T00:24:00 | 54.061068 | 7.851210 | 2.0 | 9.127 | 2 | 32.700 | 9.294 | 30.125 | 2 |
| 2025-04-20T00:25:00 | 54.061080 | 7.849717 | 2.0 | 9.137 | 2 | 32.700 | 9.294 | 30.125 | 2 |
| 2025-04-20T00:26:00 | 54.060898 | 7.847891 | 2.0 | 9.145 | 2 | 32.694 | 9.303 | 30.111 | 2 |
| 2025-04-20T00:27:00 | 54.060708 | 7.845829 | 2.0 | 9.141 | 2 | 32.678 | 9.310 | 30.089 | 2 |
| 2025-04-20T00:28:00 | 54.060609 | 7.843575 | 2.0 | 9.141 | 2 | 32.679 | 9.306 | 30.093 | 2 |
| 2025-04-20T00:29:00 | 54.060555 | 7.841227 | 2.0 | 9.139 | 2 | 32.673 | 9.307 | 30.086 | 2 |
| 2025-04-20T00:30:00 | 54.060506 | 7.838843 | 2.0 | 9.141 | 2 | 32.463 | 9.306 | 29.873 | 2 |
| 2025-04-20T00:31:00 | 54.060460 | 7.836433 | 2.0 | 9.141 | 2 | 32.338 | 9.307 | 29.745 | 2 |
| 2025-04-20T00:32:00 | 54.060438 | 7.834035 | 2.0 | 9.145 | 2 | 32.474 | 9.308 | 29.883 | 2 |
| 2025-04-20T00:33:00 | 54.060396 | 7.831632 | 2.0 | 9.147 | 2 | 32.560 | 9.312 | 29.967 | 2 |
| 2025-04-20T00:34:00 | 54.060336 | 7.829364 | 2.0 | 9.146 | 2 | 32.408 | 9.314 | 29.810 | 2 |
| 2025-04-20T00:35:00 | 54.060367 | 7.827142 | 2.0 | 9.148 | 2 | 32.383 | 9.313 | 29.786 | 2 |
| 2025-04-20T00:36:00 | 54.060390 | 7.824914 | 2.0 | 9.144 | 2 | 32.230 | 9.314 | 29.629 | 2 |
| 2025-04-20T00:37:00 | 54.060332 | 7.822663 | 2.0 | 9.136 | 2 | 32.528 | 9.309 | 29.937 | 2 |
| 2025-04-20T00:38:00 | 54.060315 | 7.820354 | 2.0 | 9.137 | 2 | 32.393 | 9.304 | 29.803 | 2 |
| 2025-04-20T00:39:00 | 54.060323 | 7.818080 | 2.0 | 9.135 | 2 | 32.497 | 9.303 | 29.910 | 2 |
| 2025-04-20T00:40:00 | 54.060275 | 7.815803 | 2.0 | 9.133 | 2 | 32.478 | 9.301 | 29.893 | 2 |
| 2025-04-20T00:41:00 | 54.060178 | 7.813525 | 2.0 | 9.129 | 2 | 32.420 | 9.299 | 29.835 | 2 |
| 2025-04-20T00:42:00 | 54.060176 | 7.811256 | 2.0 | 9.121 | 2 | 32.352 | 9.294 | 29.770 | 2 |
| 2025-04-20T00:43:00 | 54.060152 | 7.808992 | 2.0 | 9.115 | 2 | 32.543 | 9.287 | 29.971 | 2 |
| 2025-04-20T00:44:00 | 54.060170 | 7.806715 | 2.0 | 9.105 | 2 | 32.697 | 9.281 | 30.133 | 2 |
| 2025-04-20T00:45:00 | 54.060102 | 7.804458 | 2.0 | 9.100 | 2 | 32.512 | 9.271 | 29.952 | 2 |
| 2025-04-20T00:46:00 | 54.060066 | 7.802160 | 2.0 | 9.092 | 2 | 32.758 | 9.265 | 30.208 | 2 |
| 2025-04-20T00:47:00 | 54.060066 | 7.799830 | 2.0 | 9.096 | 2 | 32.359 | 9.260 | 29.805 | 2 |
| 2025-04-20T00:48:00 | 54.060033 | 7.797533 | 2.0 | 9.073 | 2 | 32.544 | 9.260 | 29.994 | 2 |
| 2025-04-20T00:49:00 | 54.060043 | 7.795243 | 2.0 | 9.038 | 2 | 32.677 | 9.237 | 30.149 | 2 |
| 2025-04-20T00:50:00 | 54.060004 | 7.792980 | 2.0 | 8.996 | 2 | 32.677 | 9.203 | 30.178 | 2 |
| 2025-04-20T00:51:00 | 54.059999 | 7.790691 | 2.0 | 8.972 | 2 | 32.757 | 9.160 | 30.296 | 2 |
| 2025-04-20T00:52:00 | 54.059919 | 7.788433 | 2.0 | 8.978 | 2 | 32.856 | 9.142 | 30.413 | 2 |
| 2025-04-20T00:53:00 | 54.059541 | 7.786293 | 2.0 | 8.962 | 2 | 32.787 | 9.145 | 30.340 | 2 |
| 2025-04-20T00:54:00 | 54.059208 | 7.784031 | 2.0 | 8.950 | 2 | 32.682 | 9.129 | 30.246 | 2 |
| 2025-04-20T00:55:00 | 54.059068 | 7.781760 | 2.0 | 8.948 | 2 | 32.710 | 9.117 | 30.285 | 2 |
| 2025-04-20T00:56:00 | 54.059116 | 7.779481 | 2.0 | 8.948 | 2 | 32.799 | 9.117 | 30.376 | 2 |
| 2025-04-20T00:57:00 | 54.059279 | 7.777224 | 2.0 | 8.939 | 2 | 32.913 | 9.114 | 30.496 | 2 |
| 2025-04-20T00:58:00 | 54.059530 | 7.775074 | 2.0 | 8.936 | 2 | 32.874 | 9.108 | 30.461 | 2 |
| 2025-04-20T00:59:00 | 54.059630 | 7.772922 | 2.0 | 8.923 | 2 | 32.748 | 9.101 | 30.337 | 2 |
| 2025-04-20T01:00:00 | 54.059682 | 7.770716 | 2.0 | 8.929 | 2 | 32.869 | 9.092 | 30.469 | 2 |
| 2025-04-20T01:01:00 | 54.059689 | 7.768440 | 2.0 | 8.937 | 2 | 32.883 | 9.098 | 30.478 | 2 |
| 2025-04-20T01:02:00 | 54.059582 | 7.766178 | 2.0 | 8.940 | 2 | 32.895 | 9.106 | 30.484 | 2 |
| 2025-04-20T01:03:00 | 54.059263 | 7.763988 | 2.0 | 8.939 | 2 | 32.865 | 9.107 | 30.452 | 2 |
| 2025-04-20T01:04:00 | 54.058782 | 7.761825 | 2.0 | 8.928 | 2 | 32.924 | 9.105 | 30.515 | 2 |
| 2025-04-20T01:05:00 | 54.058081 | 7.759769 | 2.0 | 8.879 | 2 | 32.991 | 9.088 | 30.598 | 2 |
| 2025-04-20T01:06:00 | 54.057260 | 7.757766 | 2.0 | 8.852 | 2 | 33.074 | 9.044 | 30.721 | 2 |
| 2025-04-20T01:07:00 | 54.056716 | 7.755540 | 2.0 | 8.819 | 2 | 33.136 | 9.018 | 30.807 | 2 |
| 2025-04-20T01:08:00 | 54.056542 | 7.753221 | 2.0 | 8.764 | 2 | 33.252 | 8.981 | 30.959 | 2 |
| 2025-04-20T01:09:00 | 54.056616 | 7.750899 | 2.0 | 8.675 | 2 | 33.341 | 8.918 | 31.106 | 2 |
| 2025-04-20T01:10:00 | 54.056465 | 7.748557 | 2.0 | 8.579 | 2 | 33.485 | 8.842 | 31.322 | 2 |
| 2025-04-20T01:11:00 | 54.056566 | 7.746301 | 2.0 | 8.432 | 2 | 33.598 | 8.733 | 31.536 | 2 |
| 2025-04-20T01:12:00 | 54.056951 | 7.744254 | 2.0 | 8.367 | 2 | 33.754 | 8.602 | 31.816 | 2 |
| 2025-04-20T01:13:00 | 54.057259 | 7.742148 | 2.0 | 8.259 | 2 | 33.831 | 8.522 | 31.969 | 2 |
| 2025-04-20T01:14:00 | 54.057747 | 7.740193 | 2.0 | 8.231 | 2 | 33.924 | 8.439 | 32.142 | 2 |
| 2025-04-20T01:15:00 | 54.058319 | 7.738385 | 2.0 | 8.149 | 2 | 33.970 | 8.393 | 32.233 | 2 |
| 2025-04-20T01:16:00 | 54.058861 | 7.736564 | 2.0 | 8.048 | 2 | 34.007 | 8.306 | 32.351 | 2 |
| 2025-04-20T01:17:00 | 54.059301 | 7.734685 | 2.0 | 8.050 | 2 | 34.005 | 8.226 | 32.423 | 2 |
| 2025-04-20T01:18:00 | 54.059275 | 7.732657 | 2.0 | 8.025 | 2 | 34.050 | 8.221 | 32.475 | 2 |
| 2025-04-20T01:19:00 | 54.059252 | 7.730482 | 2.0 | 8.034 | 2 | 34.126 | 8.205 | 32.571 | 2 |
| 2025-04-20T01:20:00 | 54.059285 | 7.728293 | 2.0 | 8.039 | 2 | 34.105 | 8.210 | 32.544 | 2 |
| 2025-04-20T01:21:00 | 54.059284 | 7.726156 | 2.0 | 8.052 | 2 | 34.153 | 8.214 | 32.591 | 2 |
| 2025-04-20T01:22:00 | 54.059273 | 7.723993 | 2.0 | 8.062 | 2 | 34.140 | 8.227 | 32.565 | 2 |
| 2025-04-20T01:23:00 | 54.059281 | 7.721842 | 2.0 | 8.047 | 2 | 34.098 | 8.233 | 32.515 | 2 |
| 2025-04-20T01:24:00 | 54.059146 | 7.719718 | 2.0 | 8.029 | 2 | 34.079 | 8.217 | 32.510 | 2 |
| 2025-04-20T01:25:00 | 54.058714 | 7.717606 | 2.0 | 8.006 | 2 | 34.116 | 8.200 | 32.565 | 2 |
| 2025-04-20T01:26:00 | 54.059081 | 7.716301 | 2.0 | 7.987 | 2 | 34.160 | 8.174 | 32.635 | 2 |
| 2025-04-20T01:27:00 | 54.060026 | 7.717417 | 2.0 | 8.000 | 2 | 34.159 | 8.162 | 32.646 | 2 |
| 2025-04-20T01:28:00 | 54.060246 | 7.720131 | 2.0 | 8.013 | 2 | 34.155 | 8.175 | 32.629 | 2 |
| 2025-04-20T01:29:00 | 54.060201 | 7.723221 | 2.0 | 8.033 | 2 | 34.163 | 8.191 | 32.623 | 2 |
| 2025-04-20T01:30:00 | 54.060325 | 7.726045 | 2.0 | 8.032 | 2 | 34.143 | 8.205 | 32.589 | 2 |
| 2025-04-20T01:31:00 | 54.060345 | 7.728789 | 2.0 | 8.021 | 2 | 34.169 | 8.202 | 32.619 | 2 |
| 2025-04-20T01:32:00 | 54.060259 | 7.731451 | 2.0 | 8.010 | 2 | 34.188 | 8.192 | 32.648 | 2 |
| 2025-04-20T01:33:00 | 54.060163 | 7.734044 | 2.0 | 8.005 | 2 | 34.180 | 8.182 | 32.649 | 2 |
| 2025-04-20T01:34:00 | 54.060387 | 7.736305 | 2.0 | 7.999 | 2 | 34.211 | 8.177 | 32.687 | 2 |
| 2025-04-20T01:35:00 | 54.060923 | 7.738206 | 2.0 | 8.002 | 2 | 34.214 | 8.169 | 32.697 | 2 |
| 2025-04-20T01:36:00 | 54.061510 | 7.740124 | 2.0 | 8.057 | 2 | 34.169 | 8.183 | 32.637 | 2 |
| 2025-04-20T01:37:00 | 54.062037 | 7.742199 | 2.0 | 8.102 | 2 | 34.119 | 8.234 | 32.536 | 2 |
| 2025-04-20T01:38:00 | 54.062476 | 7.744398 | 2.0 | 8.129 | 2 | 34.092 | 8.275 | 32.470 | 2 |
| 2025-04-20T01:39:00 | 54.062836 | 7.746658 | 2.0 | 8.163 | 2 | 34.075 | 8.305 | 32.424 | 2 |
| 2025-04-20T01:40:00 | 54.062904 | 7.749020 | 2.0 | 8.215 | 2 | 34.049 | 8.340 | 32.364 | 2 |
| 2025-04-20T01:41:00 | 54.062823 | 7.751418 | 2.0 | 8.276 | 2 | 34.011 | 8.393 | 32.276 | 2 |
| 2025-04-20T01:42:00 | 54.062582 | 7.753750 | 2.0 | 8.326 | 2 | 33.975 | 8.446 | 32.189 | 2 |
| 2025-04-20T01:43:00 | 54.062072 | 7.755987 | 2.0 | 8.396 | 2 | 33.941 | 8.502 | 32.103 | 2 |
| 2025-04-20T01:44:00 | 54.061577 | 7.758292 | 2.0 | 8.488 | 2 | 33.891 | 8.572 | 31.987 | 2 |
| 2025-04-20T01:45:00 | 54.061216 | 7.760701 | 2.0 | 8.575 | 2 | 33.806 | 8.666 | 31.813 | 2 |
| 2025-04-20T01:46:00 | 54.061023 | 7.763173 | 2.0 | 8.609 | 2 | 33.725 | 8.730 | 31.671 | 2 |
| 2025-04-20T01:47:00 | 54.060823 | 7.765665 | 2.0 | 8.690 | 2 | 33.621 | 8.782 | 31.516 | 2 |
| 2025-04-20T01:48:00 | 54.060723 | 7.768161 | 2.0 | 8.757 | 2 | 33.520 | 8.852 | 31.350 | 2 |
| 2025-04-20T01:49:00 | 54.060757 | 7.770663 | 2.0 | 8.786 | 2 | 33.421 | 8.913 | 31.193 | 2 |
| 2025-04-20T01:50:00 | 54.060796 | 7.773144 | 2.0 | 8.819 | 2 | 33.340 | 8.956 | 31.072 | 2 |
| 2025-04-20T01:51:00 | 54.060710 | 7.775576 | 2.0 | 8.837 | 2 | 33.261 | 8.981 | 30.969 | 2 |
| 2025-04-20T01:52:00 | 54.060413 | 7.777957 | 2.0 | 8.878 | 2 | 33.214 | 9.008 | 30.897 | 2 |
| 2025-04-20T01:53:00 | 54.060058 | 7.780323 | 2.0 | 8.905 | 2 | 33.180 | 9.045 | 30.829 | 2 |
| 2025-04-20T01:54:00 | 54.060102 | 7.782700 | 2.0 | 8.918 | 2 | 33.130 | 9.071 | 30.755 | 2 |
| 2025-04-20T01:55:00 | 54.060428 | 7.785005 | 2.0 | 8.919 | 2 | 33.074 | 9.082 | 30.688 | 2 |
| 2025-04-20T01:56:00 | 54.060705 | 7.787360 | 2.0 | 8.921 | 2 | 33.060 | 9.084 | 30.672 | 2 |
| 2025-04-20T01:57:00 | 54.060790 | 7.789801 | 2.0 | 8.924 | 2 | 33.049 | 9.086 | 30.659 | 2 |
| 2025-04-20T01:58:00 | 54.060757 | 7.792270 | 2.0 | 8.916 | 2 | 33.029 | 9.087 | 30.638 | 2 |
| 2025-04-20T01:59:00 | 54.060839 | 7.794754 | 2.0 | 8.911 | 2 | 33.026 | 9.080 | 30.641 | 2 |
| 2025-04-20T02:00:00 | 54.060963 | 7.797246 | 2.0 | 8.905 | 2 | 33.020 | 9.075 | 30.639 | 2 |
| 2025-04-20T02:01:00 | 54.061016 | 7.799746 | 2.0 | 8.911 | 2 | 33.017 | 9.071 | 30.639 | 2 |
| 2025-04-20T02:02:00 | 54.061028 | 7.802262 | 2.0 | 8.920 | 2 | 33.009 | 9.078 | 30.625 | 2 |
| 2025-04-20T02:03:00 | 54.061057 | 7.804805 | 2.0 | 8.924 | 2 | 33.001 | 9.085 | 30.611 | 2 |
| 2025-04-20T02:04:00 | 54.061096 | 7.807348 | 2.0 | 8.926 | 2 | 32.996 | 9.089 | 30.602 | 2 |
| 2025-04-20T02:05:00 | 54.061138 | 7.809898 | 2.0 | 8.929 | 2 | 32.995 | 9.092 | 30.599 | 2 |
| 2025-04-20T02:06:00 | 54.061164 | 7.812450 | 2.0 | 8.921 | 2 | 33.006 | 9.092 | 30.610 | 2 |
| 2025-04-20T02:07:00 | 54.061176 | 7.814951 | 2.0 | 8.915 | 2 | 33.023 | 9.085 | 30.633 | 2 |
| 2025-04-20T02:08:00 | 54.061209 | 7.817427 | 2.0 | 8.931 | 2 | 33.028 | 9.083 | 30.640 | 2 |
| 2025-04-20T02:09:00 | 54.061201 | 7.819886 | 2.0 | 8.928 | 2 | 33.020 | 9.095 | 30.622 | 2 |
| 2025-04-20T02:10:00 | 54.061160 | 7.822349 | 2.0 | 8.932 | 2 | 33.015 | 9.095 | 30.617 | 2 |
| 2025-04-20T02:11:00 | 54.061176 | 7.824787 | 2.0 | 8.921 | 2 | 33.012 | 9.095 | 30.614 | 2 |
| 2025-04-20T02:12:00 | 54.061252 | 7.827219 | 2.0 | 8.953 | 2 | 33.008 | 9.088 | 30.615 | 2 |
| 2025-04-20T02:13:00 | 54.061342 | 7.829654 | 2.0 | 9.020 | 2 | 33.006 | 9.135 | 30.573 | 2 |
| 2025-04-20T02:14:00 | 54.061393 | 7.832085 | 2.0 | 9.037 | 2 | 32.987 | 9.184 | 30.512 | 2 |
| 2025-04-20T02:15:00 | 54.061363 | 7.834516 | 2.0 | 9.046 | 2 | 32.944 | 9.202 | 30.452 | 2 |
| 2025-04-20T02:16:00 | 54.061337 | 7.836928 | 2.0 | 9.052 | 2 | 32.870 | 9.211 | 30.369 | 2 |
| 2025-04-20T02:17:00 | 54.061393 | 7.839348 | 2.0 | 9.058 | 2 | 32.816 | 9.218 | 30.308 | 2 |
| 2025-04-20T02:18:00 | 54.061430 | 7.841742 | 2.0 | 9.063 | 2 | 32.801 | 9.224 | 30.287 | 2 |
| 2025-04-20T02:19:00 | 54.061239 | 7.844028 | 2.0 | 9.069 | 2 | 32.796 | 9.229 | 30.278 | 2 |
| 2025-04-20T02:20:00 | 54.060927 | 7.846105 | 2.0 | 9.072 | 2 | 32.786 | 9.233 | 30.264 | 2 |
| 2025-04-20T02:21:00 | 54.061305 | 7.847731 | 2.0 | 9.074 | 2 | 32.782 | 9.235 | 30.258 | 2 |
| 2025-04-20T02:22:00 | 54.062089 | 7.848181 | 2.0 | 9.074 | 2 | 32.779 | 9.236 | 30.254 | 2 |
| 2025-04-20T02:23:00 | 54.062596 | 7.847339 | 2.0 | 9.075 | 2 | 32.774 | 9.237 | 30.248 | 2 |
| 2025-04-20T02:24:00 | 54.062370 | 7.845878 | 2.0 | 9.071 | 2 | 32.769 | 9.238 | 30.243 | 2 |
| 2025-04-20T02:25:00 | 54.062293 | 7.843848 | 2.0 | 9.062 | 2 | 32.786 | 9.235 | 30.262 | 2 |
| 2025-04-20T02:26:00 | 54.062282 | 7.841549 | 2.0 | 9.053 | 2 | 32.804 | 9.226 | 30.288 | 2 |
| 2025-04-20T02:27:00 | 54.062273 | 7.839199 | 2.0 | 9.040 | 2 | 32.844 | 9.216 | 30.338 | 2 |
| 2025-04-20T02:28:00 | 54.062234 | 7.836814 | 2.0 | 9.024 | 2 | 32.931 | 9.205 | 30.436 | 2 |
| 2025-04-20T02:29:00 | 54.062194 | 7.834385 | 2.0 | 8.947 | 2 | 33.001 | 9.185 | 30.525 | 2 |
| 2025-04-20T02:30:00 | 54.062174 | 7.831947 | 2.0 | 8.919 | 2 | 32.881 | 9.109 | 30.467 | 2 |
| 2025-04-20T02:31:00 | 54.062149 | 7.829519 | 2.0 | 8.892 | 2 | 33.029 | 9.080 | 30.644 | 2 |
| 2025-04-20T02:32:00 | 54.062169 | 7.827177 | 2.0 | 8.930 | 2 | 32.663 | 9.067 | 30.279 | 2 |
| 2025-04-20T02:33:00 | 54.062165 | 7.824806 | 2.0 | 8.908 | 2 | 33.028 | 9.094 | 30.631 | 2 |
| 2025-04-20T02:34:00 | 54.062091 | 7.822391 | 2.0 | 8.912 | 2 | 33.059 | 9.072 | 30.682 | 2 |
| 2025-04-20T02:35:00 | 54.062000 | 7.819953 | 2.0 | 8.922 | 2 | 33.032 | 9.081 | 30.646 | 2 |
| 2025-04-20T02:36:00 | 54.061975 | 7.817584 | 2.0 | 8.914 | 2 | 33.016 | 9.087 | 30.624 | 2 |
| 2025-04-20T02:37:00 | 54.062036 | 7.815220 | 2.0 | 8.906 | 2 | 33.020 | 9.079 | 30.635 | 2 |
| 2025-04-20T02:38:00 | 54.062076 | 7.812818 | 2.0 | 8.897 | 2 | 33.022 | 9.071 | 30.644 | 2 |
| 2025-04-20T02:39:00 | 54.062066 | 7.810454 | 2.0 | 8.902 | 2 | 33.030 | 9.065 | 30.658 | 2 |
| 2025-04-20T02:40:00 | 54.061993 | 7.808066 | 2.0 | 8.909 | 2 | 33.037 | 9.070 | 30.661 | 2 |
| 2025-04-20T02:41:00 | 54.061937 | 7.805616 | 2.0 | 8.911 | 2 | 33.043 | 9.077 | 30.661 | 2 |
| 2025-04-20T02:42:00 | 54.061914 | 7.803222 | 2.0 | 8.904 | 2 | 33.065 | 9.077 | 30.683 | 2 |
| 2025-04-20T02:43:00 | 54.061894 | 7.800852 | 2.0 | 8.900 | 2 | 33.084 | 9.070 | 30.709 | 2 |
| 2025-04-20T02:44:00 | 54.061884 | 7.798422 | 2.0 | 8.882 | 2 | 33.115 | 9.065 | 30.745 | 2 |
| 2025-04-20T02:45:00 | 54.061854 | 7.795977 | 2.0 | 8.847 | 2 | 33.178 | 9.045 | 30.827 | 2 |
| 2025-04-20T02:46:00 | 54.061817 | 7.793502 | 2.0 | 8.814 | 2 | 33.226 | 9.010 | 30.907 | 2 |
| 2025-04-20T02:47:00 | 54.061724 | 7.791024 | 2.0 | 8.806 | 2 | 33.272 | 8.983 | 30.978 | 2 |
| 2025-04-20T02:48:00 | 54.061146 | 7.788780 | 2.0 | 8.767 | 2 | 33.333 | 8.969 | 31.053 | 2 |
| 2025-04-20T02:49:00 | 54.060614 | 7.786429 | 2.0 | 8.705 | 2 | 33.171 | 8.923 | 30.926 | 2 |
| 2025-04-20T02:50:00 | 54.060107 | 7.784002 | 2.0 | 8.651 | 2 | 33.489 | 8.864 | 31.307 | 2 |
| 2025-04-20T02:51:00 | 54.059842 | 7.781509 | 2.0 | 8.618 | 2 | 32.967 | 8.819 | 30.806 | 2 |
| 2025-04-20T02:52:00 | 54.059853 | 7.779006 | 2.0 | 8.510 | 2 | 33.206 | 8.777 | 31.090 | 2 |
| 2025-04-20T02:53:00 | 54.060155 | 7.776625 | 2.0 | 8.434 | 2 | 33.446 | 8.674 | 31.430 | 2 |
| 2025-04-20T02:54:00 | 54.060722 | 7.774348 | 2.0 | 8.375 | 2 | 33.878 | 8.601 | 31.947 | 2 |
| 2025-04-20T02:55:00 | 54.061229 | 7.772039 | 2.0 | 8.299 | 2 | 33.522 | 8.535 | 31.634 | 2 |
| 2025-04-20T02:56:00 | 54.061439 | 7.769646 | 2.0 | 8.233 | 2 | 34.000 | 8.462 | 32.201 | 2 |
| 2025-04-20T02:57:00 | 54.061466 | 7.767120 | 2.0 | 8.181 | 2 | 34.025 | 8.403 | 32.281 | 2 |
| 2025-04-20T02:58:00 | 54.061447 | 7.764543 | 2.0 | 8.111 | 2 | 34.056 | 8.344 | 32.368 | 2 |
| 2025-04-20T02:59:00 | 54.061480 | 7.762004 | 2.0 | 8.050 | 2 | 34.101 | 8.280 | 32.475 | 2 |
| 2025-04-20T03:00:00 | 54.061436 | 7.759498 | 2.0 | 7.974 | 2 | 34.155 | 8.210 | 32.597 | 2 |
| 2025-04-20T03:01:00 | 54.061365 | 7.757056 | 2.0 | 7.961 | 2 | 34.216 | 8.151 | 32.716 | 2 |
| 2025-04-20T03:02:00 | 54.061786 | 7.754800 | 2.0 | 7.956 | 2 | 34.243 | 8.137 | 32.758 | 2 |
| 2025-04-20T03:03:00 | 54.062226 | 7.752577 | 2.0 | 7.952 | 2 | 34.236 | 8.131 | 32.756 | 2 |
| 2025-04-20T03:04:00 | 54.062612 | 7.750320 | 2.0 | 7.945 | 2 | 34.234 | 8.126 | 32.759 | 2 |
| 2025-04-20T03:05:00 | 54.062737 | 7.748099 | 2.0 | 7.939 | 2 | 34.231 | 8.118 | 32.763 | 2 |
| 2025-04-20T03:06:00 | 54.062638 | 7.745765 | 2.0 | 7.936 | 2 | 34.227 | 8.113 | 32.763 | 2 |
| 2025-04-20T03:07:00 | 54.062584 | 7.743324 | 2.0 | 7.937 | 2 | 34.223 | 8.110 | 32.762 | 2 |
| 2025-04-20T03:08:00 | 54.062204 | 7.740933 | 2.0 | 7.928 | 2 | 34.210 | 8.109 | 32.749 | 2 |
| 2025-04-20T03:09:00 | 54.061739 | 7.738437 | 2.0 | 7.903 | 2 | 34.209 | 8.097 | 32.759 | 2 |
| 2025-04-20T03:10:00 | 54.061410 | 7.735834 | 2.0 | 7.895 | 2 | 34.213 | 8.078 | 32.781 | 2 |
| 2025-04-20T03:11:00 | 54.061254 | 7.733306 | 2.0 | 7.880 | 2 | 34.204 | 8.068 | 32.781 | 2 |
| 2025-04-20T03:12:00 | 54.061203 | 7.730837 | 2.0 | 7.859 | 2 | 34.191 | 8.052 | 32.782 | 2 |
| 2025-04-20T03:13:00 | 54.061156 | 7.728442 | 2.0 | 7.853 | 2 | 34.187 | 8.032 | 32.797 | 2 |
| 2025-04-20T03:14:00 | 54.061124 | 7.726067 | 2.0 | 7.837 | 2 | 34.236 | 8.025 | 32.856 | 2 |
| 2025-04-20T03:15:00 | 54.061107 | 7.723597 | 2.0 | 7.851 | 2 | 34.269 | 8.013 | 32.902 | 2 |
| 2025-04-20T03:16:00 | 54.061028 | 7.721072 | 2.0 | 7.860 | 2 | 34.268 | 8.025 | 32.890 | 2 |
| 2025-04-20T03:17:00 | 54.060733 | 7.718667 | 2.0 | 7.869 | 2 | 34.265 | 8.034 | 32.878 | 2 |
| 2025-04-20T03:18:00 | 54.060314 | 7.716357 | 2.0 | 7.871 | 2 | 34.267 | 8.042 | 32.873 | 2 |
| 2025-04-20T03:19:00 | 54.061168 | 7.715261 | 2.0 | 7.871 | 2 | 34.277 | 8.042 | 32.883 | 2 |
| 2025-04-20T03:20:00 | 54.062107 | 7.716583 | 2.0 | 7.876 | 2 | 34.279 | 8.045 | 32.883 | 2 |
| 2025-04-20T03:21:00 | 54.062046 | 7.718882 | 2.0 | 7.869 | 2 | 34.274 | 8.047 | 32.875 | 2 |
| 2025-04-20T03:22:00 | 54.061962 | 7.721452 | 2.0 | 7.857 | 2 | 34.267 | 8.040 | 32.874 | 2 |
| 2025-04-20T03:23:00 | 54.062063 | 7.724191 | 2.0 | 7.849 | 2 | 34.266 | 8.030 | 32.883 | 2 |
| 2025-04-20T03:24:00 | 54.062041 | 7.726945 | 2.0 | 7.833 | 2 | 34.270 | 8.020 | 32.896 | 2 |
| 2025-04-20T03:25:00 | 54.062046 | 7.729617 | 2.0 | 7.843 | 2 | 34.262 | 8.009 | 32.898 | 2 |
| 2025-04-20T03:26:00 | 54.062126 | 7.732300 | 2.0 | 7.844 | 2 | 34.223 | 8.015 | 32.851 | 2 |
| 2025-04-20T03:27:00 | 54.062178 | 7.735027 | 2.0 | 7.870 | 2 | 34.186 | 8.021 | 32.806 | 2 |
| 2025-04-20T03:28:00 | 54.062178 | 7.737769 | 2.0 | 7.886 | 2 | 34.192 | 8.044 | 32.791 | 2 |
| 2025-04-20T03:29:00 | 54.062317 | 7.740431 | 2.0 | 7.907 | 2 | 34.206 | 8.059 | 32.792 | 2 |
| 2025-04-20T03:30:00 | 54.062665 | 7.743040 | 2.0 | 7.931 | 2 | 34.212 | 8.083 | 32.776 | 2 |
| 2025-04-20T03:31:00 | 54.062991 | 7.745648 | 2.0 | 7.931 | 2 | 34.216 | 8.100 | 32.764 | 2 |
| 2025-04-20T03:32:00 | 54.062951 | 7.748328 | 2.0 | 7.932 | 2 | 34.221 | 8.101 | 32.768 | 2 |
| 2025-04-20T03:33:00 | 54.062673 | 7.751029 | 2.0 | 7.937 | 2 | 34.224 | 8.103 | 32.770 | 2 |
| 2025-04-20T03:34:00 | 54.062471 | 7.753738 | 2.0 | 7.940 | 2 | 34.227 | 8.108 | 32.768 | 2 |
| 2025-04-20T03:35:00 | 54.062458 | 7.756461 | 2.0 | 7.943 | 2 | 34.230 | 8.112 | 32.768 | 2 |
| 2025-04-20T03:36:00 | 54.062365 | 7.759190 | 2.0 | 7.952 | 2 | 34.236 | 8.116 | 32.770 | 2 |
| 2025-04-20T03:37:00 | 54.062353 | 7.761899 | 2.0 | 7.962 | 2 | 34.242 | 8.123 | 32.770 | 2 |
| 2025-04-20T03:38:00 | 54.062456 | 7.764612 | 2.0 | 7.998 | 2 | 34.217 | 8.136 | 32.731 | 2 |
| 2025-04-20T03:39:00 | 54.062484 | 7.767352 | 2.0 | 8.055 | 2 | 34.171 | 8.174 | 32.647 | 2 |
| 2025-04-20T03:40:00 | 54.062640 | 7.769988 | 2.0 | 8.109 | 2 | 34.115 | 8.230 | 32.536 | 2 |
| 2025-04-20T03:41:00 | 54.063275 | 7.772331 | 2.0 | 8.162 | 2 | 34.073 | 8.285 | 32.441 | 2 |
| 2025-04-20T03:42:00 | 54.063908 | 7.774937 | 2.0 | 8.208 | 2 | 34.038 | 8.338 | 32.355 | 2 |
| 2025-04-20T03:43:00 | 54.064464 | 7.777589 | 2.0 | 8.237 | 2 | 34.012 | 8.380 | 32.289 | 2 |
| 2025-04-20T03:44:00 | 54.064803 | 7.780224 | 2.0 | 8.258 | 2 | 33.996 | 8.403 | 32.251 | 2 |
| 2025-04-20T03:45:00 | 54.064754 | 7.782922 | 2.0 | 8.325 | 2 | 33.975 | 8.433 | 32.201 | 2 |
| 2025-04-20T03:46:00 | 54.064191 | 7.785437 | 2.0 | 8.428 | 2 | 33.918 | 8.505 | 32.076 | 2 |
| 2025-04-20T03:47:00 | 54.063550 | 7.788010 | 2.0 | 8.446 | 2 | 33.862 | 8.585 | 31.945 | 2 |
| 2025-04-20T03:48:00 | 54.063076 | 7.790710 | 2.0 | 8.525 | 2 | 33.837 | 8.627 | 31.880 | 2 |
| 2025-04-20T03:49:00 | 54.062912 | 7.793477 | 2.0 | 8.605 | 2 | 33.771 | 8.690 | 31.755 | 2 |
| 2025-04-20T03:50:00 | 54.062778 | 7.796213 | 2.0 | 8.607 | 2 | 33.651 | 8.761 | 31.566 | 2 |
| 2025-04-20T03:51:00 | 54.062781 | 7.798979 | 2.0 | 8.679 | 2 | 33.622 | 8.782 | 31.518 | 2 |
| 2025-04-20T03:52:00 | 54.062827 | 7.801754 | 2.0 | 8.723 | 2 | 33.489 | 8.850 | 31.319 | 2 |
| 2025-04-20T03:53:00 | 54.062873 | 7.804545 | 2.0 | 8.770 | 2 | 33.413 | 8.893 | 31.203 | 2 |
| 2025-04-20T03:54:00 | 54.062857 | 7.807357 | 2.0 | 8.796 | 2 | 33.350 | 8.932 | 31.103 | 2 |
| 2025-04-20T03:55:00 | 54.062876 | 7.810172 | 2.0 | 8.812 | 2 | 33.302 | 8.960 | 31.029 | 2 |
| 2025-04-20T03:56:00 | 54.062937 | 7.812988 | 2.0 | 8.843 | 2 | 33.268 | 8.978 | 30.978 | 2 |
| 2025-04-20T03:57:00 | 54.062951 | 7.815810 | 2.0 | 8.874 | 2 | 33.208 | 9.009 | 30.890 | 2 |
| 2025-04-20T03:58:00 | 54.062920 | 7.818627 | 2.0 | 8.893 | 2 | 33.143 | 9.039 | 30.797 | 2 |
| 2025-04-20T03:59:00 | 54.062903 | 7.821422 | 2.0 | 8.900 | 2 | 33.081 | 9.058 | 30.716 | 2 |
| 2025-04-20T04:00:00 | 54.062948 | 7.824217 | 2.0 | 8.897 | 2 | 33.050 | 9.062 | 30.681 | 2 |
| 2025-04-20T04:01:00 | 54.063019 | 7.827012 | 2.0 | 8.894 | 2 | 33.046 | 9.060 | 30.679 | 2 |
| 2025-04-20T04:02:00 | 54.063087 | 7.829804 | 2.0 | 8.891 | 2 | 33.042 | 9.057 | 30.677 | 2 |
| 2025-04-20T04:03:00 | 54.063109 | 7.832593 | 2.0 | 8.888 | 2 | 33.037 | 9.055 | 30.674 | 2 |
| 2025-04-20T04:04:00 | 54.063134 | 7.835396 | 2.0 | 8.893 | 2 | 33.032 | 9.053 | 30.670 | 2 |
| 2025-04-20T04:05:00 | 54.063107 | 7.838178 | 2.0 | 8.900 | 2 | 33.017 | 9.059 | 30.650 | 2 |
| 2025-04-20T04:06:00 | 54.063217 | 7.841005 | 2.0 | 8.901 | 2 | 33.012 | 9.065 | 30.639 | 2 |
| 2025-04-20T04:07:00 | 54.063820 | 7.844199 | 2.0 | 8.893 | 2 | 33.022 | 9.064 | 30.650 | 2 |
| 2025-04-20T04:08:00 | 54.065291 | 7.847692 | 2.0 | 8.931 | 2 | 33.046 | 9.058 | 30.680 | 2 |
| 2025-04-20T04:09:00 | 54.067608 | 7.850564 | 2.0 | 8.918 | 2 | 33.041 | 9.099 | 30.640 | 2 |
| 2025-04-20T04:10:00 | 54.070010 | 7.853801 | 2.0 | 8.917 | 2 | 33.026 | 9.085 | 30.636 | 2 |
| 2025-04-20T04:11:00 | 54.072433 | 7.857165 | 2.0 | 8.956 | 2 | 32.999 | 9.090 | 30.604 | 2 |
| 2025-04-20T04:12:00 | 54.074883 | 7.860574 | 2.0 | 8.943 | 2 | 32.986 | 9.116 | 30.569 | 2 |
| 2025-04-20T04:13:00 | 54.077344 | 7.863928 | 2.0 | 8.962 | 2 | 33.022 | 9.108 | 30.613 | 2 |
| 2025-04-20T04:14:00 | 54.079794 | 7.867219 | 2.0 | 9.030 | 2 | 32.987 | 9.141 | 30.548 | 2 |
| 2025-04-20T04:15:00 | 54.082182 | 7.870581 | 2.0 | 9.031 | 2 | 32.869 | 9.192 | 30.384 | 2 |
| 2025-04-20T04:16:00 | 54.084598 | 7.873867 | 2.0 | 9.035 | 2 | 32.856 | 9.198 | 30.365 | 2 |
| 2025-04-20T04:17:00 | 54.087033 | 7.877192 | 2.0 | 9.029 | 2 | 32.861 | 9.200 | 30.369 | 2 |
| 2025-04-20T04:18:00 | 54.089472 | 7.880553 | 2.0 | 9.028 | 2 | 32.826 | 9.194 | 30.338 | 2 |
| 2025-04-20T04:19:00 | 54.091914 | 7.883889 | 2.0 | 9.027 | 2 | 32.794 | 9.194 | 30.305 | 2 |
| 2025-04-20T04:20:00 | 54.094366 | 7.887256 | 2.0 | 9.028 | 2 | 32.789 | 9.194 | 30.300 | 2 |
| 2025-04-20T04:21:00 | 54.096794 | 7.890688 | 2.0 | 9.044 | 2 | 32.769 | 9.196 | 30.278 | 2 |
| 2025-04-20T04:22:00 | 54.099266 | 7.894015 | 2.0 | 9.050 | 2 | 32.742 | 9.210 | 30.239 | 2 |
| 2025-04-20T04:23:00 | 54.101737 | 7.897332 | 2.0 | 9.046 | 2 | 32.749 | 9.216 | 30.241 | 2 |
| 2025-04-20T04:24:00 | 54.104178 | 7.900801 | 2.0 | 9.039 | 2 | 32.778 | 9.211 | 30.275 | 2 |
| 2025-04-20T04:25:00 | 54.106664 | 7.904147 | 2.0 | 9.029 | 2 | 32.810 | 9.205 | 30.312 | 2 |
| 2025-04-20T04:26:00 | 54.109070 | 7.907615 | 2.0 | 9.031 | 2 | 32.836 | 9.195 | 30.348 | 2 |
| 2025-04-20T04:27:00 | 54.111525 | 7.910968 | 2.0 | 9.040 | 2 | 32.880 | 9.198 | 30.390 | 2 |
| 2025-04-20T04:28:00 | 54.113964 | 7.914336 | 2.0 | 9.068 | 2 | 32.916 | 9.212 | 30.415 | 2 |
| 2025-04-20T04:29:00 | 54.116418 | 7.917667 | 2.0 | 9.060 | 2 | 32.911 | 9.231 | 30.394 | 2 |
| 2025-04-20T04:30:00 | 54.118802 | 7.921056 | 2.0 | 9.071 | 2 | 32.885 | 9.229 | 30.369 | 2 |
| 2025-04-20T04:31:00 | 54.121203 | 7.924343 | 2.0 | 9.042 | 2 | 32.887 | 9.234 | 30.367 | 2 |
| 2025-04-20T04:32:00 | 54.123604 | 7.927617 | 2.0 | 9.019 | 2 | 32.847 | 9.205 | 30.350 | 2 |
| 2025-04-20T04:33:00 | 54.125984 | 7.930863 | 2.0 | 9.031 | 2 | 32.826 | 9.190 | 30.342 | 2 |
| 2025-04-20T04:34:00 | 54.128341 | 7.934142 | 2.0 | 9.031 | 2 | 32.807 | 9.198 | 30.315 | 2 |
| 2025-04-20T04:35:00 | 54.130709 | 7.937406 | 2.0 | 9.024 | 2 | 32.789 | 9.197 | 30.298 | 2 |
| 2025-04-20T04:36:00 | 54.133087 | 7.940650 | 2.0 | 9.015 | 2 | 32.791 | 9.189 | 30.307 | 2 |
| 2025-04-20T04:37:00 | 54.135486 | 7.943922 | 2.0 | 8.992 | 2 | 32.810 | 9.179 | 30.335 | 2 |
| 2025-04-20T04:38:00 | 54.137887 | 7.947198 | 2.0 | 8.960 | 2 | 32.854 | 9.155 | 30.400 | 2 |
| 2025-04-20T04:39:00 | 54.140270 | 7.950525 | 2.0 | 8.927 | 2 | 32.883 | 9.125 | 30.455 | 2 |
| 2025-04-20T04:40:00 | 54.142689 | 7.953856 | 2.0 | 8.915 | 2 | 32.916 | 9.093 | 30.517 | 2 |
| 2025-04-20T04:41:00 | 54.145174 | 7.957070 | 2.0 | 8.917 | 2 | 32.955 | 9.084 | 30.564 | 2 |
| 2025-04-20T04:42:00 | 54.148080 | 7.958824 | 2.0 | 8.903 | 2 | 32.962 | 9.083 | 30.572 | 2 |
| 2025-04-20T04:43:00 | 54.151180 | 7.959092 | 2.0 | 8.888 | 2 | 32.967 | 9.069 | 30.590 | 2 |
| 2025-04-20T04:44:00 | 54.154325 | 7.959428 | 2.0 | 8.886 | 2 | 32.971 | 9.057 | 30.604 | 2 |
| 2025-04-20T04:45:00 | 54.157480 | 7.959927 | 2.0 | 8.876 | 2 | 32.986 | 9.054 | 30.622 | 2 |
| 2025-04-20T04:46:00 | 54.160606 | 7.960467 | 2.0 | 8.855 | 2 | 33.003 | 9.041 | 30.651 | 2 |
| 2025-04-20T04:47:00 | 54.163696 | 7.960207 | 2.0 | 8.829 | 2 | 33.026 | 9.021 | 30.692 | 2 |
| 2025-04-20T04:48:00 | 54.166780 | 7.959760 | 2.0 | 8.809 | 2 | 33.042 | 8.998 | 30.728 | 2 |
| 2025-04-20T04:49:00 | 54.169876 | 7.959318 | 2.0 | 8.742 | 2 | 32.367 | 8.963 | 30.063 | 2 |
| 2025-04-20T04:50:00 | 54.172998 | 7.958867 | 2.0 | 8.698 | 2 | 33.126 | 8.894 | 30.905 | 2 |
| 2025-04-20T04:51:00 | 54.176093 | 7.958386 | 2.0 | 8.642 | 2 | 33.171 | 8.851 | 30.989 | 2 |
| 2025-04-20T04:52:00 | 54.179217 | 7.957953 | 2.0 | 8.544 | 2 | 33.219 | 8.814 | 31.071 | 2 |
| 2025-04-20T04:53:00 | 54.182360 | 7.957496 | 2.0 | 8.531 | 2 | 33.314 | 8.719 | 31.253 | 2 |
| 2025-04-20T04:54:00 | 54.185529 | 7.956992 | 2.0 | 8.580 | 2 | 33.323 | 8.720 | 31.262 | 2 |
| 2025-04-20T04:55:00 | 54.188679 | 7.956489 | 2.0 | 8.562 | 2 | 33.256 | 8.747 | 31.168 | 2 |
| 2025-04-20T04:56:00 | 54.191904 | 7.955915 | 2.0 | 8.510 | 2 | 33.384 | 8.726 | 31.320 | 2 |
| 2025-04-20T04:57:00 | 54.195157 | 7.955443 | 2.0 | 8.468 | 2 | 33.459 | 8.670 | 31.447 | 2 |
| 2025-04-20T04:58:00 | 54.198414 | 7.954884 | 2.0 | 8.432 | 2 | 33.484 | 8.635 | 31.505 | 2 |
| 2025-04-20T04:59:00 | 54.201694 | 7.954330 | 2.0 | 8.395 | 2 | 33.516 | 8.598 | 31.571 | 2 |
| 2025-04-20T05:00:00 | 54.204922 | 7.953842 | 2.0 | 8.376 | 2 | 33.260 | 8.564 | 31.334 | 2 |
| 2025-04-20T05:01:00 | 54.208126 | 7.953303 | 2.0 | 8.384 | 2 | 33.195 | 8.550 | 31.279 | 2 |
| 2025-04-20T05:02:00 | 54.211322 | 7.952756 | 2.0 | 8.326 | 2 | 32.533 | 8.553 | 30.586 | 2 |
| 2025-04-20T05:03:00 | 54.214541 | 7.951950 | 2.0 | 8.199 | 2 | 32.796 | 8.471 | 30.931 | 2 |
| 2025-04-20T05:04:00 | 54.217727 | 7.951153 | 2.0 | 8.162 | 2 | 33.303 | 8.375 | 31.548 | 2 |
| 2025-04-20T05:05:00 | 54.220872 | 7.950380 | 2.0 | 8.102 | 2 | 33.637 | 8.325 | 31.944 | 2 |
| 2025-04-20T05:06:00 | 54.224017 | 7.949604 | 2.0 | 8.110 | 2 | 33.433 | 8.281 | 31.769 | 2 |
| 2025-04-20T05:07:00 | 54.227153 | 7.948870 | 2.0 | 8.170 | 2 | 33.202 | 8.293 | 31.515 | 2 |
| 2025-04-20T05:08:00 | 54.230271 | 7.948033 | 2.0 | 8.119 | 2 | 33.308 | 8.322 | 31.600 | 2 |
| 2025-04-20T05:09:00 | 54.233399 | 7.947188 | 2.0 | 8.162 | 2 | 33.340 | 8.306 | 31.648 | 2 |
| 2025-04-20T05:10:00 | 54.236514 | 7.946560 | 2.0 | 8.161 | 2 | 32.865 | 8.337 | 31.122 | 2 |
| 2025-04-20T05:11:00 | 54.239561 | 7.945790 | 2.0 | 8.125 | 2 | 33.356 | 8.336 | 31.638 | 2 |
| 2025-04-20T05:12:00 | 54.242518 | 7.944991 | 2.0 | 8.119 | 2 | 33.623 | 8.299 | 31.953 | 2 |
| 2025-04-20T05:13:00 | 54.245466 | 7.944272 | 2.0 | 8.119 | 2 | 33.471 | 8.293 | 31.798 | 2 |
| 2025-04-20T05:14:00 | 54.248355 | 7.943562 | 2.0 | 8.381 | 2 | 33.496 | 8.355 | 31.768 | 2 |
| 2025-04-20T05:15:00 | 54.251199 | 7.942799 | 2.0 | 8.423 | 2 | 33.355 | 8.536 | 31.458 | 2 |
| 2025-04-20T05:16:00 | 54.254050 | 7.942122 | 2.0 | 8.471 | 2 | 32.837 | 8.599 | 30.862 | 2 |
| 2025-04-20T05:17:00 | 54.256904 | 7.941502 | 2.0 | 8.471 | 2 | 33.037 | 8.637 | 31.037 | 2 |
| 2025-04-20T05:18:00 | 54.259727 | 7.940813 | 2.0 | 8.489 | 2 | 33.235 | 8.640 | 31.241 | 2 |
| 2025-04-20T05:19:00 | 54.262570 | 7.940136 | 2.0 | 8.524 | 2 | 33.186 | 8.660 | 31.172 | 2 |
| 2025-04-20T05:20:00 | 54.265413 | 7.939454 | 2.0 | 8.578 | 2 | 33.361 | 8.698 | 31.321 | 2 |
| 2025-04-20T05:21:00 | 54.268230 | 7.938803 | 2.0 | 8.619 | 2 | 33.209 | 8.752 | 31.115 | 2 |
| 2025-04-20T05:22:00 | 54.271032 | 7.938110 | 2.0 | 8.613 | 2 | 33.010 | 8.783 | 30.881 | 2 |
| 2025-04-20T05:23:00 | 54.273853 | 7.937495 | 2.0 | 8.609 | 2 | 33.049 | 8.777 | 30.927 | 2 |
| 2025-04-20T05:24:00 | 54.276631 | 7.936820 | 2.0 | 8.606 | 2 | 32.955 | 8.776 | 30.830 | 2 |
| 2025-04-20T05:25:00 | 54.279442 | 7.936156 | 2.0 | 8.593 | 2 | 33.074 | 8.768 | 30.961 | 2 |
| 2025-04-20T05:26:00 | 54.282279 | 7.935498 | 2.0 | 8.569 | 2 | 32.957 | 8.760 | 30.846 | 2 |
| 2025-04-20T05:27:00 | 54.285129 | 7.934816 | 2.0 | 8.570 | 2 | 32.940 | 8.740 | 30.846 | 2 |
| 2025-04-20T05:28:00 | 54.287953 | 7.934158 | 2.0 | 8.580 | 2 | 33.210 | 8.742 | 31.125 | 2 |
| 2025-04-20T05:29:00 | 54.290751 | 7.933491 | 2.0 | 8.575 | 2 | 33.058 | 8.745 | 30.964 | 2 |
| 2025-04-20T05:30:00 | 54.293571 | 7.932783 | 2.0 | 8.595 | 2 | 32.857 | 8.748 | 30.753 | 2 |
| 2025-04-20T05:31:00 | 54.296424 | 7.932101 | 2.0 | 8.582 | 2 | 32.898 | 8.760 | 30.785 | 2 |
| 2025-04-20T05:32:00 | 54.299280 | 7.931443 | 2.0 | 8.571 | 2 | 33.202 | 8.750 | 31.109 | 2 |
| 2025-04-20T05:33:00 | 54.302127 | 7.930782 | 2.0 | 8.527 | 2 | 33.178 | 8.732 | 31.100 | 2 |
| 2025-04-20T05:34:00 | 54.304956 | 7.930034 | 2.0 | 8.532 | 2 | 33.250 | 8.693 | 31.209 | 2 |
| 2025-04-20T05:35:00 | 54.307717 | 7.928992 | 2.0 | 8.544 | 2 | 33.051 | 8.701 | 30.996 | 2 |
| 2025-04-20T05:36:00 | 54.310556 | 7.927956 | 2.0 | 8.541 | 2 | 32.996 | 8.712 | 30.929 | 2 |
| 2025-04-20T05:37:00 | 54.313382 | 7.926938 | 2.0 | 8.528 | 2 | 33.251 | 8.708 | 31.197 | 2 |
| 2025-04-20T05:38:00 | 54.316146 | 7.926081 | 2.0 | 8.518 | 2 | 33.046 | 8.693 | 30.997 | 2 |
| 2025-04-20T05:39:00 | 54.318916 | 7.925272 | 2.0 | 8.534 | 2 | 32.931 | 8.687 | 30.883 | 2 |
| 2025-04-20T05:40:00 | 54.321782 | 7.924537 | 2.0 | 8.573 | 2 | 33.485 | 8.716 | 31.434 | 2 |
| 2025-04-20T05:41:00 | 54.324650 | 7.923744 | 2.0 | 8.545 | 2 | 33.491 | 8.735 | 31.423 | 2 |
| 2025-04-20T05:42:00 | 54.327556 | 7.922942 | 2.0 | 8.523 | 2 | 33.483 | 8.711 | 31.436 | 2 |
| 2025-04-20T05:43:00 | 54.330454 | 7.921842 | 2.0 | 8.510 | 2 | 33.472 | 8.692 | 31.441 | 2 |
| 2025-04-20T05:44:00 | 54.333361 | 7.920967 | 2.0 | 8.497 | 2 | 33.465 | 8.679 | 31.446 | 2 |
| 2025-04-20T05:45:00 | 54.336242 | 7.921039 | 2.0 | 8.478 | 2 | 33.456 | 8.665 | 31.449 | 2 |
| 2025-04-20T05:46:00 | 54.338909 | 7.920558 | 2.0 | 8.465 | 2 | 33.464 | 8.648 | 31.472 | 2 |
| 2025-04-20T05:47:00 | 54.341185 | 7.920010 | 2.0 | 8.446 | 2 | 33.464 | 8.631 | 31.487 | 2 |
| 2025-04-20T05:48:00 | 54.342974 | 7.919236 | 2.0 | 8.448 | 2 | 33.466 | 8.617 | 31.502 | 2 |
| 2025-04-20T05:49:00 | 54.344324 | 7.918656 | 2.0 | 8.447 | 2 | 33.462 | 8.616 | 31.499 | 2 |
| 2025-04-20T05:50:00 | 54.345245 | 7.918192 | 2.0 | 8.447 | 2 | 33.462 | 8.616 | 31.499 | 2 |
| 2025-04-20T05:51:00 | 54.345660 | 7.917671 | 2.0 | 8.445 | 2 | 33.467 | 8.622 | 31.499 | 2 |
| 2025-04-20T05:52:00 | 54.345633 | 7.917519 | 2.0 | 8.445 | 2 | 33.474 | 8.627 | 31.501 | 2 |
| 2025-04-20T05:53:00 | 54.345591 | 7.917357 | 2.0 | 8.445 | 2 | 33.477 | 8.630 | 31.502 | 2 |
| 2025-04-20T05:54:00 | 54.345611 | 7.917214 | 2.0 | 8.444 | 2 | 33.479 | 8.632 | 31.502 | 2 |
| 2025-04-20T05:55:00 | 54.345641 | 7.917096 | 2.0 | 8.444 | 2 | 33.481 | 8.633 | 31.503 | 2 |
| 2025-04-20T05:56:00 | 54.345646 | 7.916985 | 2.0 | 8.444 | 2 | 33.482 | 8.634 | 31.503 | 2 |
| 2025-04-20T05:57:00 | 54.345634 | 7.916924 | 2.0 | 8.444 | 2 | 33.483 | 8.635 | 31.504 | 2 |
| 2025-04-20T05:58:00 | 54.345637 | 7.916888 | 2.0 | 8.444 | 2 | 33.483 | 8.635 | 31.504 | 2 |
| 2025-04-20T05:59:00 | 54.345659 | 7.916886 | 2.0 | 8.445 | 2 | 33.483 | 8.636 | 31.503 | 2 |
| 2025-04-20T06:00:00 | 54.345689 | 7.916886 | 2.0 | 8.445 | 2 | 33.483 | 8.637 | 31.502 | 2 |
| 2025-04-20T06:01:00 | 54.345714 | 7.916868 | 2.0 | 8.446 | 2 | 33.483 | 8.637 | 31.502 | 2 |
| 2025-04-20T06:02:00 | 54.345737 | 7.916833 | 2.0 | 8.446 | 2 | 33.484 | 8.639 | 31.501 | 2 |
| 2025-04-20T06:03:00 | 54.345731 | 7.916786 | 2.0 | 8.445 | 2 | 33.483 | 8.639 | 31.500 | 2 |
| 2025-04-20T06:04:00 | 54.345703 | 7.916733 | 2.0 | 8.445 | 2 | 33.483 | 8.640 | 31.499 | 2 |
| 2025-04-20T06:05:00 | 54.345655 | 7.916665 | 2.0 | 8.445 | 2 | 33.482 | 8.640 | 31.498 | 2 |
| 2025-04-20T06:06:00 | 54.345619 | 7.916650 | 2.0 | 8.444 | 2 | 33.480 | 8.638 | 31.498 | 2 |
| 2025-04-20T06:07:00 | 54.345644 | 7.916753 | 2.0 | 8.447 | 2 | 33.478 | 8.640 | 31.494 | 2 |
| 2025-04-20T06:08:00 | 54.345619 | 7.916834 | 2.0 | 8.447 | 2 | 33.477 | 8.641 | 31.492 | 2 |
| 2025-04-20T06:09:00 | 54.345606 | 7.916945 | 2.0 | 8.449 | 2 | 33.477 | 8.643 | 31.490 | 2 |
| 2025-04-20T06:10:00 | 54.345587 | 7.917020 | 2.0 | 8.451 | 2 | 33.478 | 8.645 | 31.490 | 2 |
| 2025-04-20T06:11:00 | 54.345628 | 7.917130 | 2.0 | 8.454 | 2 | 33.478 | 8.650 | 31.485 | 2 |
| 2025-04-20T06:12:00 | 54.345719 | 7.917231 | 2.0 | 8.456 | 2 | 33.475 | 8.653 | 31.479 | 2 |
| 2025-04-20T06:13:00 | 54.345739 | 7.917280 | 2.0 | 8.457 | 2 | 33.473 | 8.655 | 31.475 | 2 |
| 2025-04-20T06:14:00 | 54.345741 | 7.917386 | 2.0 | 8.458 | 2 | 33.474 | 8.658 | 31.474 | 2 |
| 2025-04-20T06:15:00 | 54.345801 | 7.917418 | 2.0 | 8.459 | 2 | 33.476 | 8.660 | 31.474 | 2 |
| 2025-04-20T06:16:00 | 54.345800 | 7.917306 | 2.0 | 8.460 | 2 | 33.477 | 8.663 | 31.472 | 2 |
| 2025-04-20T06:17:00 | 54.345748 | 7.917200 | 2.0 | 8.461 | 2 | 33.476 | 8.663 | 31.471 | 2 |
| 2025-04-20T06:18:00 | 54.345729 | 7.917153 | 2.0 | 8.461 | 2 | 33.475 | 8.664 | 31.469 | 2 |
| 2025-04-20T06:19:00 | 54.345756 | 7.917103 | 2.0 | 8.461 | 2 | 33.475 | 8.665 | 31.469 | 2 |
| 2025-04-20T06:20:00 | 54.345790 | 7.917084 | 2.0 | 8.459 | 2 | 33.477 | 8.664 | 31.472 | 2 |
| 2025-04-20T06:21:00 | 54.345802 | 7.917017 | 2.0 | 8.460 | 2 | 33.476 | 8.664 | 31.471 | 2 |
| 2025-04-20T06:22:00 | 54.345776 | 7.916964 | 2.0 | 8.459 | 2 | 33.476 | 8.664 | 31.471 | 2 |
| 2025-04-20T06:23:00 | 54.345715 | 7.916938 | 2.0 | 8.460 | 2 | 33.476 | 8.665 | 31.470 | 2 |
| 2025-04-20T06:24:00 | 54.345668 | 7.916887 | 2.0 | 8.461 | 2 | 33.475 | 8.665 | 31.469 | 2 |
| 2025-04-20T06:25:00 | 54.345673 | 7.916860 | 2.0 | 8.461 | 2 | 33.471 | 8.665 | 31.464 | 2 |
| 2025-04-20T06:26:00 | 54.345790 | 7.916874 | 2.0 | 8.462 | 2 | 33.471 | 8.667 | 31.463 | 2 |
| 2025-04-20T06:27:00 | 54.345823 | 7.916845 | 2.0 | 8.463 | 2 | 33.470 | 8.666 | 31.462 | 2 |
| 2025-04-20T06:28:00 | 54.345811 | 7.916788 | 2.0 | 8.464 | 2 | 33.471 | 8.668 | 31.462 | 2 |
| 2025-04-20T06:29:00 | 54.345779 | 7.916719 | 2.0 | 8.467 | 2 | 33.471 | 8.670 | 31.460 | 2 |
| 2025-04-20T06:30:00 | 54.345734 | 7.916636 | 2.0 | 8.467 | 2 | 33.470 | 8.673 | 31.456 | 2 |
| 2025-04-20T06:31:00 | 54.345733 | 7.916626 | 2.0 | 8.467 | 2 | 33.468 | 8.671 | 31.456 | 2 |
| 2025-04-20T06:32:00 | 54.345789 | 7.916692 | 2.0 | 8.468 | 2 | 33.466 | 8.672 | 31.453 | 2 |
| 2025-04-20T06:33:00 | 54.345848 | 7.916731 | 2.0 | 8.469 | 2 | 33.464 | 8.673 | 31.450 | 2 |
| 2025-04-20T06:34:00 | 54.345805 | 7.916708 | 2.0 | 8.471 | 2 | 33.462 | 8.674 | 31.447 | 2 |
| 2025-04-20T06:35:00 | 54.345773 | 7.916741 | 2.0 | 8.472 | 2 | 33.461 | 8.677 | 31.443 | 2 |
| 2025-04-20T06:36:00 | 54.345793 | 7.916822 | 2.0 | 8.473 | 2 | 33.460 | 8.678 | 31.441 | 2 |
| 2025-04-20T06:37:00 | 54.345843 | 7.916842 | 2.0 | 8.473 | 2 | 33.459 | 8.680 | 31.439 | 2 |
| 2025-04-20T06:38:00 | 54.345841 | 7.916794 | 2.0 | 8.474 | 2 | 33.459 | 8.682 | 31.437 | 2 |
| 2025-04-20T06:39:00 | 54.345831 | 7.916747 | 2.0 | 8.475 | 2 | 33.458 | 8.682 | 31.436 | 2 |
| 2025-04-20T06:40:00 | 54.345809 | 7.916771 | 2.0 | 8.476 | 2 | 33.058 | 8.683 | 31.019 | 2 |
| 2025-04-20T06:41:00 | 54.345817 | 7.916852 | 2.0 | 8.478 | 2 | 33.458 | 8.686 | 31.432 | 2 |
| 2025-04-20T06:42:00 | 54.345801 | 7.916854 | 2.0 | 8.480 | 2 | 33.457 | 8.687 | 31.430 | 2 |
| 2025-04-20T06:43:00 | 54.345790 | 7.916810 | 2.0 | 8.482 | 2 | 33.456 | 8.690 | 31.427 | 2 |
| 2025-04-20T06:44:00 | 54.345772 | 7.916753 | 2.0 | 8.482 | 2 | 33.457 | 8.694 | 31.424 | 2 |
| 2025-04-20T06:45:00 | 54.345766 | 7.916543 | 2.0 | 8.485 | 2 | 33.457 | 8.695 | 31.423 | 2 |
| 2025-04-20T06:46:00 | 54.345947 | 7.916380 | 2.0 | 8.484 | 2 | 32.925 | 8.696 | 30.869 | 2 |
| 2025-04-20T06:47:00 | 54.346673 | 7.916208 | 2.0 | 8.480 | 2 | 32.959 | 8.697 | 30.903 | 2 |
| 2025-04-20T06:48:00 | 54.347721 | 7.917075 | 2.0 | 8.487 | 2 | 33.076 | 8.695 | 31.027 | 2 |
| 2025-04-20T06:49:00 | 54.347485 | 7.919018 | 2.0 | 8.489 | 2 | 33.457 | 8.701 | 31.418 | 2 |
| 2025-04-20T06:50:00 | 54.346137 | 7.921044 | 2.0 | 8.497 | 2 | 33.409 | 8.704 | 31.365 | 2 |
| 2025-04-20T06:51:00 | 54.344310 | 7.923313 | 2.0 | 8.506 | 2 | 33.332 | 8.714 | 31.276 | 2 |
| 2025-04-20T06:52:00 | 54.342465 | 7.925965 | 2.0 | 8.521 | 2 | 33.427 | 8.714 | 31.375 | 2 |
| 2025-04-20T06:53:00 | 54.340127 | 7.927946 | 2.0 | 8.542 | 2 | 33.221 | 8.724 | 31.152 | 2 |
| 2025-04-20T06:54:00 | 54.337702 | 7.930041 | 2.0 | 8.552 | 2 | 33.258 | 8.739 | 31.177 | 2 |
| 2025-04-20T06:55:00 | 54.335298 | 7.932288 | 2.0 | 8.559 | 2 | 32.993 | 8.744 | 30.898 | 2 |
| 2025-04-20T06:56:00 | 54.332881 | 7.934474 | 2.0 | 8.572 | 2 | 33.151 | 8.752 | 31.055 | 2 |
| 2025-04-20T06:57:00 | 54.330500 | 7.936689 | 2.0 | 8.584 | 2 | 32.923 | 8.762 | 30.809 | 2 |
| 2025-04-20T06:58:00 | 54.328089 | 7.938880 | 2.0 | 8.594 | 2 | 33.035 | 8.772 | 30.917 | 2 |
| 2025-04-20T06:59:00 | 54.325685 | 7.941018 | 2.0 | 8.582 | 2 | 33.251 | 8.780 | 31.134 | 2 |
| 2025-04-20T07:00:00 | 54.323300 | 7.943217 | 2.0 | 8.556 | 2 | 33.198 | 8.762 | 31.095 | 2 |
| 2025-04-20T07:01:00 | 54.320898 | 7.945439 | 2.0 | 8.570 | 2 | 33.045 | 8.746 | 30.950 | 2 |
| 2025-04-20T07:02:00 | 54.318493 | 7.947675 | 2.0 | 8.578 | 2 | 33.178 | 8.756 | 31.079 | 2 |
| 2025-04-20T07:03:00 | 54.316052 | 7.949808 | 2.0 | 8.581 | 2 | 33.079 | 8.761 | 30.972 | 2 |
| 2025-04-20T07:04:00 | 54.313613 | 7.952010 | 2.0 | 8.585 | 2 | 32.978 | 8.767 | 30.862 | 2 |
| 2025-04-20T07:05:00 | 54.311120 | 7.954058 | 2.0 | 8.575 | 2 | 33.069 | 8.766 | 30.957 | 2 |
| 2025-04-20T07:06:00 | 54.308525 | 7.955786 | 2.0 | 8.576 | 2 | 32.869 | 8.758 | 30.757 | 2 |
| 2025-04-20T07:07:00 | 54.305979 | 7.957692 | 2.0 | 8.581 | 2 | 33.035 | 8.761 | 30.926 | 2 |
| 2025-04-20T07:08:00 | 54.303443 | 7.959602 | 2.0 | 8.577 | 2 | 33.066 | 8.763 | 30.957 | 2 |
| 2025-04-20T07:09:00 | 54.300886 | 7.961397 | 2.0 | 8.573 | 2 | 32.999 | 8.759 | 30.891 | 2 |
| 2025-04-20T07:10:00 | 54.298443 | 7.963134 | 2.0 | 8.578 | 2 | 33.007 | 8.758 | 30.900 | 2 |
| 2025-04-20T07:11:00 | 54.296476 | 7.964333 | 2.0 | 8.583 | 2 | 33.027 | 8.759 | 30.920 | 2 |
| 2025-04-20T07:12:00 | 54.294911 | 7.965362 | 2.0 | 8.579 | 2 | 33.082 | 8.761 | 30.975 | 2 |
| 2025-04-20T07:13:00 | 54.293455 | 7.965997 | 2.0 | 8.581 | 2 | 33.011 | 8.758 | 30.904 | 2 |
| 2025-04-20T07:14:00 | 54.292120 | 7.966602 | 2.0 | 8.585 | 2 | 33.000 | 8.760 | 30.891 | 2 |
| 2025-04-20T07:15:00 | 54.290842 | 7.967170 | 2.0 | 8.587 | 2 | 32.989 | 8.763 | 30.877 | 2 |
| 2025-04-20T07:16:00 | 54.289564 | 7.967679 | 2.0 | 8.592 | 2 | 32.966 | 8.766 | 30.851 | 2 |
| 2025-04-20T07:17:00 | 54.288289 | 7.968232 | 2.0 | 8.599 | 2 | 32.965 | 8.770 | 30.846 | 2 |
| 2025-04-20T07:18:00 | 54.287022 | 7.968781 | 2.0 | 8.604 | 2 | 32.891 | 8.776 | 30.764 | 2 |
| 2025-04-20T07:19:00 | 54.285746 | 7.969321 | 2.0 | 8.608 | 2 | 32.973 | 8.781 | 30.845 | 2 |
| 2025-04-20T07:20:00 | 54.284483 | 7.969878 | 2.0 | 8.603 | 2 | 32.987 | 8.784 | 30.857 | 2 |
| 2025-04-20T07:21:00 | 54.283227 | 7.970440 | 2.0 | 8.612 | 2 | 33.054 | 8.781 | 30.929 | 2 |
| 2025-04-20T07:22:00 | 54.281972 | 7.971004 | 2.0 | 8.615 | 2 | 32.959 | 8.788 | 30.824 | 2 |
| 2025-04-20T07:23:00 | 54.280714 | 7.971538 | 2.0 | 8.614 | 2 | 33.016 | 8.790 | 30.881 | 2 |
| 2025-04-20T07:24:00 | 54.279459 | 7.972070 | 2.0 | 8.614 | 2 | 33.041 | 8.789 | 30.908 | 2 |
| 2025-04-20T07:25:00 | 54.278210 | 7.972602 | 2.0 | 8.624 | 2 | 33.061 | 8.791 | 30.927 | 2 |
| 2025-04-20T07:26:00 | 54.276958 | 7.973118 | 2.0 | 8.623 | 2 | 33.045 | 8.800 | 30.903 | 2 |
| 2025-04-20T07:27:00 | 54.275710 | 7.973637 | 2.0 | 8.611 | 2 | 33.060 | 8.795 | 30.923 | 2 |
| 2025-04-20T07:28:00 | 54.274462 | 7.974145 | 2.0 | 8.619 | 2 | 33.113 | 8.786 | 30.986 | 2 |
| 2025-04-20T07:29:00 | 54.273212 | 7.974651 | 2.0 | 8.624 | 2 | 33.087 | 8.794 | 30.952 | 2 |
| 2025-04-20T07:30:00 | 54.271969 | 7.975198 | 2.0 | 8.619 | 2 | 33.068 | 8.799 | 30.928 | 2 |
| 2025-04-20T07:31:00 | 54.270673 | 7.975713 | 2.0 | 8.602 | 2 | 33.100 | 8.789 | 30.969 | 2 |
| 2025-04-20T07:32:00 | 54.269118 | 7.975735 | 2.0 | 8.585 | 2 | 33.100 | 8.777 | 30.980 | 2 |
| 2025-04-20T07:33:00 | 54.267404 | 7.975324 | 2.0 | 8.574 | 2 | 33.049 | 8.757 | 30.944 | 2 |
| 2025-04-20T07:34:00 | 54.265488 | 7.974879 | 2.0 | 8.562 | 2 | 33.070 | 8.749 | 30.973 | 2 |
| 2025-04-20T07:35:00 | 54.263471 | 7.974508 | 2.0 | 8.549 | 2 | 33.084 | 8.738 | 30.997 | 2 |
| 2025-04-20T07:36:00 | 54.261408 | 7.974058 | 2.0 | 8.465 | 2 | 33.113 | 8.713 | 31.049 | 2 |
| 2025-04-20T07:37:00 | 54.259506 | 7.973644 | 2.0 | 8.375 | 2 | 33.270 | 8.626 | 31.289 | 2 |
| 2025-04-20T07:38:00 | 54.257729 | 7.973290 | 2.0 | 8.424 | 2 | 33.320 | 8.571 | 31.390 | 2 |
| 2025-04-20T07:39:00 | 54.255726 | 7.973067 | 2.0 | 8.388 | 2 | 33.330 | 8.593 | 31.381 | 2 |
| 2025-04-20T07:40:00 | 54.253273 | 7.972649 | 2.0 | 8.383 | 2 | 33.358 | 8.575 | 31.427 | 2 |
| 2025-04-20T07:41:00 | 54.250587 | 7.972082 | 2.0 | 8.334 | 2 | 33.440 | 8.554 | 31.531 | 2 |
| 2025-04-20T07:42:00 | 54.247847 | 7.971550 | 2.0 | 8.369 | 2 | 33.465 | 8.526 | 31.582 | 2 |
| 2025-04-20T07:43:00 | 54.245101 | 7.970904 | 2.0 | 8.373 | 2 | 33.484 | 8.547 | 31.583 | 2 |
| 2025-04-20T07:44:00 | 54.242359 | 7.970379 | 2.0 | 8.381 | 2 | 33.485 | 8.550 | 31.582 | 2 |
| 2025-04-20T07:45:00 | 54.239627 | 7.969775 | 2.0 | 8.366 | 2 | 33.478 | 8.561 | 31.564 | 2 |
| 2025-04-20T07:46:00 | 54.236890 | 7.969242 | 2.0 | 8.352 | 2 | 33.486 | 8.542 | 31.590 | 2 |
| 2025-04-20T07:47:00 | 54.234161 | 7.968624 | 2.0 | 8.360 | 2 | 33.512 | 8.529 | 31.629 | 2 |
| 2025-04-20T07:48:00 | 54.231392 | 7.968046 | 2.0 | 8.342 | 2 | 33.499 | 8.536 | 31.609 | 2 |
| 2025-04-20T07:49:00 | 54.228588 | 7.967467 | 2.0 | 8.321 | 2 | 33.513 | 8.517 | 31.640 | 2 |
| 2025-04-20T07:50:00 | 54.225765 | 7.966883 | 2.0 | 8.338 | 2 | 33.521 | 8.507 | 31.658 | 2 |
| 2025-04-20T07:51:00 | 54.222940 | 7.966257 | 2.0 | 8.338 | 2 | 33.514 | 8.518 | 31.641 | 2 |
| 2025-04-20T07:52:00 | 54.220095 | 7.965723 | 2.0 | 8.342 | 2 | 33.518 | 8.515 | 31.647 | 2 |
| 2025-04-20T07:53:00 | 54.217236 | 7.965087 | 2.0 | 8.356 | 2 | 33.513 | 8.520 | 31.638 | 2 |
| 2025-04-20T07:54:00 | 54.214368 | 7.964494 | 2.0 | 8.350 | 2 | 33.510 | 8.537 | 31.619 | 2 |
| 2025-04-20T07:55:00 | 54.211495 | 7.963858 | 2.0 | 8.344 | 2 | 33.520 | 8.521 | 31.644 | 2 |
| 2025-04-20T07:56:00 | 54.208611 | 7.963282 | 2.0 | 8.368 | 2 | 33.514 | 8.525 | 31.634 | 2 |
| 2025-04-20T07:57:00 | 54.205722 | 7.962683 | 2.0 | 8.403 | 2 | 33.494 | 8.557 | 31.585 | 2 |
| 2025-04-20T07:58:00 | 54.202815 | 7.962394 | 2.0 | 8.399 | 2 | 33.473 | 8.577 | 31.545 | 2 |
| 2025-04-20T07:59:00 | 54.199907 | 7.962047 | 2.0 | 8.393 | 2 | 33.467 | 8.574 | 31.541 | 2 |
| 2025-04-20T08:00:00 | 54.196988 | 7.961653 | 2.0 | 8.428 | 2 | 33.467 | 8.573 | 31.542 | 2 |
| 2025-04-20T08:01:00 | 54.194045 | 7.961295 | 2.0 | 8.449 | 2 | 33.432 | 8.609 | 31.474 | 2 |
| 2025-04-20T08:02:00 | 54.191079 | 7.960979 | 2.0 | 8.428 | 2 | 33.448 | 8.620 | 31.480 | 2 |
| 2025-04-20T08:03:00 | 54.188116 | 7.960573 | 2.0 | 8.427 | 2 | 33.460 | 8.603 | 31.508 | 2 |
| 2025-04-20T08:04:00 | 54.185152 | 7.960157 | 2.0 | 8.426 | 2 | 33.455 | 8.602 | 31.504 | 2 |
| 2025-04-20T08:05:00 | 54.182155 | 7.959761 | 2.0 | 8.484 | 2 | 33.450 | 8.607 | 31.494 | 2 |
| 2025-04-20T08:06:00 | 54.179150 | 7.959451 | 2.0 | 8.574 | 2 | 33.391 | 8.674 | 31.373 | 2 |
| 2025-04-20T08:07:00 | 54.176136 | 7.959079 | 2.0 | 8.612 | 2 | 33.327 | 8.750 | 31.239 | 2 |
| 2025-04-20T08:08:00 | 54.173096 | 7.958712 | 2.0 | 8.617 | 2 | 33.293 | 8.789 | 31.170 | 2 |
| 2025-04-20T08:09:00 | 54.170083 | 7.958455 | 2.0 | 8.619 | 2 | 33.302 | 8.790 | 31.178 | 2 |
| 2025-04-20T08:10:00 | 54.167102 | 7.958001 | 2.0 | 8.636 | 2 | 33.293 | 8.794 | 31.165 | 2 |
| 2025-04-20T08:11:00 | 54.164123 | 7.957503 | 2.0 | 8.664 | 2 | 33.274 | 8.819 | 31.124 | 2 |
| 2025-04-20T08:12:00 | 54.161699 | 7.954665 | 2.0 | 8.655 | 2 | 33.281 | 8.834 | 31.118 | 2 |
| 2025-04-20T08:13:00 | 54.159602 | 7.950961 | 2.0 | 8.660 | 2 | 33.295 | 8.831 | 31.135 | 2 |
| 2025-04-20T08:14:00 | 54.157526 | 7.947140 | 2.0 | 8.674 | 2 | 33.286 | 8.833 | 31.124 | 2 |
| 2025-04-20T08:15:00 | 54.156061 | 7.942496 | 2.0 | 8.695 | 2 | 33.253 | 8.850 | 31.075 | 2 |
| 2025-04-20T08:16:00 | 54.154653 | 7.938161 | 2.0 | 8.723 | 2 | 33.215 | 8.876 | 31.013 | 2 |
| 2025-04-20T08:17:00 | 54.153652 | 7.934170 | 2.0 | 8.729 | 2 | 33.196 | 8.896 | 30.975 | 2 |
| 2025-04-20T08:18:00 | 54.152698 | 7.930878 | 2.0 | 8.726 | 2 | 33.197 | 8.900 | 30.973 | 2 |
| 2025-04-20T08:19:00 | 54.151926 | 7.928089 | 2.0 | 8.740 | 2 | 33.201 | 8.898 | 30.979 | 2 |
| 2025-04-20T08:20:00 | 54.151285 | 7.925596 | 2.0 | 8.758 | 2 | 33.190 | 8.914 | 30.954 | 2 |
| 2025-04-20T08:21:00 | 54.150663 | 7.923341 | 2.0 | 8.759 | 2 | 33.182 | 8.927 | 30.934 | 2 |
| 2025-04-20T08:22:00 | 54.150028 | 7.921116 | 2.0 | 8.774 | 2 | 33.177 | 8.932 | 30.924 | 2 |
| 2025-04-20T08:23:00 | 54.149309 | 7.918593 | 2.0 | 8.791 | 2 | 33.167 | 8.947 | 30.901 | 2 |
| 2025-04-20T08:24:00 | 54.148553 | 7.915862 | 2.0 | 8.816 | 2 | 33.146 | 8.964 | 30.865 | 2 |
| 2025-04-20T08:25:00 | 54.147698 | 7.913142 | 2.0 | 8.862 | 2 | 33.111 | 8.990 | 30.806 | 2 |
| 2025-04-20T08:26:00 | 54.146833 | 7.910425 | 2.0 | 8.896 | 2 | 33.079 | 9.036 | 30.733 | 2 |
| 2025-04-20T08:27:00 | 54.145668 | 7.908455 | 2.0 | 8.904 | 2 | 33.060 | 9.065 | 30.689 | 2 |
| 2025-04-20T08:28:00 | 54.144106 | 7.907516 | 2.0 | 8.923 | 2 | 33.051 | 9.077 | 30.669 | 2 |
| 2025-04-20T08:29:00 | 54.142534 | 7.906287 | 2.0 | 8.931 | 2 | 33.039 | 9.089 | 30.646 | 2 |
| 2025-04-20T08:30:00 | 54.140814 | 7.905085 | 2.0 | 8.931 | 2 | 33.026 | 9.099 | 30.624 | 2 |
| 2025-04-20T08:31:00 | 54.138942 | 7.903736 | 2.0 | 8.943 | 2 | 33.023 | 9.103 | 30.618 | 2 |
| 2025-04-20T08:32:00 | 54.137247 | 7.901683 | 2.0 | 8.949 | 2 | 33.023 | 9.113 | 30.609 | 2 |
| 2025-04-20T08:33:00 | 54.135301 | 7.900636 | 2.0 | 8.949 | 2 | 33.018 | 9.116 | 30.602 | 2 |
| 2025-04-20T08:34:00 | 54.133298 | 7.899455 | 2.0 | 8.958 | 2 | 33.014 | 9.120 | 30.594 | 2 |
| 2025-04-20T08:35:00 | 54.131911 | 7.896985 | 2.0 | 8.966 | 2 | 33.013 | 9.128 | 30.586 | 2 |
| 2025-04-20T08:36:00 | 54.132353 | 7.894010 | 2.0 | 8.976 | 2 | 33.008 | 9.137 | 30.573 | 2 |
| 2025-04-20T08:37:00 | 54.133241 | 7.891070 | 2.0 | 8.984 | 2 | 33.005 | 9.146 | 30.563 | 2 |
| 2025-04-20T08:38:00 | 54.134039 | 7.887850 | 2.0 | 8.993 | 2 | 33.001 | 9.153 | 30.552 | 2 |
| 2025-04-20T08:39:00 | 54.134916 | 7.884617 | 2.0 | 9.003 | 2 | 32.991 | 9.164 | 30.533 | 2 |
| 2025-04-20T08:40:00 | 54.135859 | 7.881429 | 2.0 | 9.007 | 2 | 32.983 | 9.171 | 30.519 | 2 |
| 2025-04-20T08:41:00 | 54.136718 | 7.878160 | 2.0 | 9.014 | 2 | 32.986 | 9.177 | 30.517 | 2 |
| 2025-04-20T08:42:00 | 54.137386 | 7.874740 | 2.0 | 9.019 | 2 | 32.995 | 9.184 | 30.520 | 2 |
| 2025-04-20T08:43:00 | 54.138289 | 7.871476 | 2.0 | 9.025 | 2 | 33.009 | 9.187 | 30.532 | 2 |
| 2025-04-20T08:44:00 | 54.139081 | 7.868207 | 2.0 | 9.050 | 2 | 32.997 | 9.197 | 30.511 | 2 |
| 2025-04-20T08:45:00 | 54.139874 | 7.864951 | 2.0 | 9.057 | 2 | 32.708 | 9.217 | 30.198 | 2 |
| 2025-04-20T08:46:00 | 54.140722 | 7.861769 | 2.0 | 9.054 | 2 | 32.336 | 9.224 | 29.812 | 2 |
| 2025-04-20T08:47:00 | 54.141531 | 7.858547 | 2.0 | 9.067 | 2 | 32.955 | 9.223 | 30.446 | 2 |
| 2025-04-20T08:48:00 | 54.142319 | 7.855361 | 2.0 | 9.072 | 2 | 32.944 | 9.231 | 30.427 | 2 |
| 2025-04-20T08:49:00 | 54.143087 | 7.852214 | 2.0 | 9.071 | 2 | 32.932 | 9.237 | 30.410 | 2 |
| 2025-04-20T08:50:00 | 54.143869 | 7.849110 | 2.0 | 9.077 | 2 | 32.598 | 9.232 | 30.073 | 2 |
| 2025-04-20T08:51:00 | 54.144666 | 7.846068 | 2.0 | 9.085 | 2 | 32.890 | 9.241 | 30.364 | 2 |
| 2025-04-20T08:52:00 | 54.145398 | 7.843112 | 2.0 | 9.078 | 2 | 32.915 | 9.250 | 30.382 | 2 |
| 2025-04-20T08:53:00 | 54.146132 | 7.840188 | 2.0 | 9.075 | 2 | 32.943 | 9.237 | 30.421 | 2 |
| 2025-04-20T08:54:00 | 54.146881 | 7.837150 | 2.0 | 9.048 | 2 | 32.959 | 9.239 | 30.436 | 2 |
| 2025-04-20T08:55:00 | 54.148010 | 7.834539 | 2.0 | 9.012 | 2 | 32.981 | 9.215 | 30.479 | 2 |
| 2025-04-20T08:56:00 | 54.149777 | 7.834515 | 2.0 | 8.991 | 2 | 33.070 | 9.123 | 30.649 | 2 |
| 2025-04-20T08:57:00 | 54.151385 | 7.836229 | 2.0 | 8.961 | 2 | 33.045 | 9.148 | 30.602 | 2 |
| 2025-04-20T08:58:00 | 54.153171 | 7.837737 | 2.0 | 9.049 | 2 | 32.806 | 9.163 | 30.344 | 2 |
| 2025-04-20T08:59:00 | 54.155004 | 7.839198 | 2.0 | 9.081 | 2 | 32.993 | 9.219 | 30.488 | 2 |
| 2025-04-20T09:00:00 | 54.156801 | 7.840705 | 2.0 | 9.074 | 2 | 32.670 | 9.247 | 30.134 | 2 |
| 2025-04-20T09:01:00 | 54.158614 | 7.842302 | 2.0 | 8.973 | 2 | 32.578 | 9.233 | 30.052 | 2 |
| 2025-04-20T09:02:00 | 54.160363 | 7.843939 | 2.0 | 8.868 | 2 | 32.832 | 9.107 | 30.418 | 2 |
| 2025-04-20T09:03:00 | 54.161007 | 7.846794 | 2.0 | 8.883 | 2 | 33.018 | 9.046 | 30.662 | 2 |
| 2025-04-20T09:04:00 | 54.160077 | 7.849441 | 2.0 | 8.850 | 2 | 32.800 | 9.048 | 30.436 | 2 |
| 2025-04-20T09:05:00 | 54.159158 | 7.852363 | 2.0 | 8.864 | 2 | 33.088 | 9.020 | 30.756 | 2 |
| 2025-04-20T09:06:00 | 54.158360 | 7.855581 | 2.0 | 8.861 | 2 | 32.859 | 9.034 | 30.509 | 2 |
| 2025-04-20T09:07:00 | 54.157559 | 7.858873 | 2.0 | 8.899 | 2 | 32.703 | 9.039 | 30.344 | 2 |
| 2025-04-20T09:08:00 | 54.156770 | 7.862206 | 2.0 | 8.845 | 2 | 32.673 | 9.060 | 30.295 | 2 |
| 2025-04-20T09:09:00 | 54.155966 | 7.865519 | 2.0 | 8.896 | 2 | 33.103 | 9.023 | 30.769 | 2 |
| 2025-04-20T09:10:00 | 54.155103 | 7.868772 | 2.0 | 8.895 | 2 | 32.867 | 9.054 | 30.500 | 2 |
| 2025-04-20T09:11:00 | 54.154504 | 7.872183 | 2.0 | 8.940 | 2 | 32.879 | 9.074 | 30.495 | 2 |
| 2025-04-20T09:12:00 | 54.153776 | 7.875607 | 2.0 | 8.965 | 2 | 32.793 | 9.115 | 30.372 | 2 |
| 2025-04-20T09:13:00 | 54.153010 | 7.879079 | 2.0 | 8.966 | 2 | 32.633 | 9.129 | 30.196 | 2 |
| 2025-04-20T09:14:00 | 54.152340 | 7.882633 | 2.0 | 8.898 | 2 | 32.856 | 9.128 | 30.425 | 2 |
| 2025-04-20T09:15:00 | 54.151833 | 7.886255 | 2.0 | 8.738 | 2 | 32.771 | 9.044 | 30.410 | 2 |
| 2025-04-20T09:16:00 | 54.151414 | 7.889867 | 2.0 | 8.698 | 2 | 33.261 | 8.895 | 31.044 | 2 |
| 2025-04-20T09:17:00 | 54.150815 | 7.893342 | 2.0 | 8.714 | 2 | 33.043 | 8.878 | 30.833 | 2 |
| 2025-04-20T09:18:00 | 54.151056 | 7.896485 | 2.0 | 8.702 | 2 | 33.066 | 8.887 | 30.849 | 2 |
| 2025-04-20T09:19:00 | 54.152181 | 7.899108 | 2.0 | 8.679 | 2 | 33.080 | 8.868 | 30.880 | 2 |
| 2025-04-20T09:20:00 | 54.153130 | 7.902091 | 2.0 | 8.662 | 2 | 33.147 | 8.849 | 30.966 | 2 |
| 2025-04-20T09:21:00 | 54.154623 | 7.904331 | 2.0 | 8.643 | 2 | 32.961 | 8.830 | 30.790 | 2 |
| 2025-04-20T09:22:00 | 54.156123 | 7.906556 | 2.0 | 8.621 | 2 | 32.983 | 8.816 | 30.825 | 2 |
| 2025-04-20T09:23:00 | 54.157433 | 7.908585 | 2.0 | 8.616 | 2 | 33.381 | 8.794 | 31.257 | 2 |
| 2025-04-20T09:24:00 | 54.158561 | 7.910271 | 2.0 | 8.594 | 2 | 33.112 | 8.786 | 30.984 | 2 |
| 2025-04-20T09:25:00 | 54.159490 | 7.911662 | 2.0 | 8.573 | 2 | 33.154 | 8.764 | 31.047 | 2 |
| 2025-04-20T09:26:00 | 54.159711 | 7.912979 | 2.0 | 8.563 | 2 | 33.314 | 8.745 | 31.230 | 2 |
| 2025-04-20T09:27:00 | 54.159492 | 7.913920 | 2.0 | 8.577 | 2 | 33.164 | 8.737 | 31.081 | 2 |
| 2025-04-20T09:28:00 | 54.159371 | 7.914809 | 2.0 | 8.573 | 2 | 32.867 | 8.746 | 30.765 | 2 |
| 2025-04-20T09:29:00 | 54.159518 | 7.915532 | 2.0 | 8.574 | 2 | 32.834 | 8.744 | 30.733 | 2 |
| 2025-04-20T09:30:00 | 54.159717 | 7.915882 | 2.0 | 8.580 | 2 | 32.658 | 8.746 | 30.549 | 2 |
| 2025-04-20T09:31:00 | 54.159739 | 7.915964 | 2.0 | 8.580 | 2 | 32.820 | 8.749 | 30.714 | 2 |
| 2025-04-20T09:32:00 | 54.159723 | 7.916078 | 2.0 | 8.592 | 2 | 32.829 | 8.754 | 30.719 | 2 |
| 2025-04-20T09:33:00 | 54.159766 | 7.916232 | 2.0 | 8.608 | 2 | 33.395 | 8.768 | 31.294 | 2 |
| 2025-04-20T09:34:00 | 54.159827 | 7.916443 | 2.0 | 8.611 | 2 | 33.403 | 8.776 | 31.295 | 2 |
| 2025-04-20T09:35:00 | 54.159893 | 7.916687 | 2.0 | 8.623 | 2 | 33.408 | 8.784 | 31.293 | 2 |
| 2025-04-20T09:36:00 | 54.159963 | 7.916948 | 2.0 | 8.631 | 2 | 33.420 | 8.795 | 31.296 | 2 |
| 2025-04-20T09:37:00 | 54.160062 | 7.917180 | 2.0 | 8.617 | 2 | 33.429 | 8.801 | 31.300 | 2 |
| 2025-04-20T09:38:00 | 54.160151 | 7.917405 | 2.0 | 8.592 | 2 | 33.434 | 8.787 | 31.318 | 2 |
| 2025-04-20T09:39:00 | 54.160280 | 7.917644 | 2.0 | 8.584 | 2 | 33.418 | 8.760 | 31.325 | 2 |
| 2025-04-20T09:40:00 | 54.160389 | 7.917876 | 2.0 | 8.603 | 2 | 33.404 | 8.756 | 31.314 | 2 |
| 2025-04-20T09:41:00 | 54.160346 | 7.918116 | 2.0 | 8.609 | 2 | 33.415 | 8.772 | 31.311 | 2 |
| 2025-04-20T09:42:00 | 54.160264 | 7.918312 | 2.0 | 8.645 | 2 | 33.417 | 8.788 | 31.299 | 2 |
| 2025-04-20T09:43:00 | 54.160313 | 7.918595 | 2.0 | 8.635 | 2 | 33.399 | 8.812 | 31.259 | 2 |
| 2025-04-20T09:44:00 | 54.160482 | 7.918788 | 2.0 | 8.662 | 2 | 33.383 | 8.807 | 31.247 | 2 |
| 2025-04-20T09:45:00 | 54.160671 | 7.918899 | 2.0 | 8.621 | 2 | 33.399 | 8.824 | 31.249 | 2 |
| 2025-04-20T09:46:00 | 54.160892 | 7.918918 | 2.0 | 8.599 | 2 | 33.403 | 8.788 | 31.285 | 2 |
| 2025-04-20T09:47:00 | 54.161095 | 7.918865 | 2.0 | 8.599 | 2 | 33.389 | 8.769 | 31.287 | 2 |
| 2025-04-20T09:48:00 | 54.161231 | 7.918800 | 2.0 | 8.602 | 2 | 33.392 | 8.770 | 31.289 | 2 |
| 2025-04-20T09:49:00 | 54.161206 | 7.918771 | 2.0 | 8.597 | 2 | 33.394 | 8.770 | 31.291 | 2 |
| 2025-04-20T09:50:00 | 54.161031 | 7.918798 | 2.0 | 8.590 | 2 | 33.390 | 8.764 | 31.292 | 2 |
| 2025-04-20T09:51:00 | 54.160860 | 7.918749 | 2.0 | 8.596 | 2 | 33.388 | 8.761 | 31.293 | 2 |
| 2025-04-20T09:52:00 | 54.160774 | 7.918585 | 2.0 | 8.607 | 2 | 33.387 | 8.768 | 31.286 | 2 |
| 2025-04-20T09:53:00 | 54.160748 | 7.918482 | 2.0 | 8.613 | 2 | 33.393 | 8.777 | 31.284 | 2 |
| 2025-04-20T09:54:00 | 54.160756 | 7.918349 | 2.0 | 8.605 | 2 | 33.396 | 8.781 | 31.284 | 2 |
| 2025-04-20T09:55:00 | 54.160787 | 7.918276 | 2.0 | 8.591 | 2 | 33.393 | 8.771 | 31.289 | 2 |
| 2025-04-20T09:56:00 | 54.160794 | 7.918257 | 2.0 | 8.602 | 2 | 33.398 | 8.763 | 31.302 | 2 |
| 2025-04-20T09:57:00 | 54.160754 | 7.918192 | 2.0 | 8.615 | 2 | 32.851 | 8.776 | 30.723 | 2 |
| 2025-04-20T09:58:00 | 54.160701 | 7.918031 | 2.0 | 8.617 | 2 | 33.341 | 8.784 | 31.224 | 2 |
| 2025-04-20T09:59:00 | 54.160813 | 7.917825 | 2.0 | 8.616 | 2 | 33.384 | 8.789 | 31.264 | 2 |
| 2025-04-20T10:00:00 | 54.161022 | 7.918005 | 2.0 | 8.598 | 2 | 33.410 | 8.784 | 31.295 | 2 |
| 2025-04-20T10:01:00 | 54.161095 | 7.918356 | 2.0 | 8.604 | 2 | 33.088 | 8.777 | 30.967 | 2 |
| 2025-04-20T10:02:00 | 54.161061 | 7.918624 | 2.0 | 8.611 | 2 | 33.353 | 8.791 | 31.230 | 2 |
| 2025-04-20T10:03:00 | 54.161206 | 7.918816 | 2.0 | 8.608 | 2 | 33.424 | 8.794 | 31.301 | 2 |
| 2025-04-20T10:04:00 | 54.161291 | 7.919157 | 2.0 | 8.603 | 2 | 33.414 | 8.798 | 31.287 | 2 |
| 2025-04-20T10:05:00 | 54.161268 | 7.919499 | 2.0 | 8.569 | 2 | 33.264 | 8.782 | 31.146 | 2 |
| 2025-04-20T10:06:00 | 54.161235 | 7.919787 | 2.0 | 8.612 | 2 | 33.263 | 8.778 | 31.148 | 2 |
| 2025-04-20T10:07:00 | 54.161318 | 7.920083 | 2.0 | 8.649 | 2 | 33.126 | 8.815 | 30.974 | 2 |
| 2025-04-20T10:08:00 | 54.161545 | 7.920207 | 2.0 | 8.630 | 2 | 33.104 | 8.845 | 30.925 | 2 |
| 2025-04-20T10:09:00 | 54.161617 | 7.919848 | 2.0 | 8.581 | 2 | 33.114 | 8.819 | 30.958 | 2 |
| 2025-04-20T10:10:00 | 54.161514 | 7.919329 | 2.0 | 8.592 | 2 | 33.374 | 8.784 | 31.258 | 2 |
| 2025-04-20T10:11:00 | 54.161400 | 7.918960 | 2.0 | 8.602 | 2 | 32.847 | 8.795 | 30.702 | 2 |
| 2025-04-20T10:12:00 | 54.161295 | 7.918688 | 2.0 | 8.613 | 2 | 33.417 | 8.803 | 31.286 | 2 |
| 2025-04-20T10:13:00 | 54.161187 | 7.918517 | 2.0 | 8.614 | 2 | 33.190 | 8.811 | 31.044 | 2 |
| 2025-04-20T10:14:00 | 54.161110 | 7.918414 | 2.0 | 8.651 | 2 | 33.245 | 8.822 | 31.091 | 2 |
| 2025-04-20T10:15:00 | 54.161075 | 7.918360 | 2.0 | 8.650 | 2 | 33.386 | 8.851 | 31.212 | 2 |
| 2025-04-20T10:16:00 | 54.161063 | 7.918247 | 2.0 | 8.652 | 2 | 33.103 | 8.847 | 30.922 | 2 |
| 2025-04-20T10:17:00 | 54.161014 | 7.917973 | 2.0 | 8.644 | 2 | 33.112 | 8.852 | 30.927 | 2 |
| 2025-04-20T10:18:00 | 54.160960 | 7.917768 | 2.0 | 8.636 | 2 | 33.243 | 8.838 | 31.075 | 2 |
| 2025-04-20T10:19:00 | 54.160914 | 7.917672 | 2.0 | 8.650 | 2 | 33.247 | 8.844 | 31.074 | 2 |
| 2025-04-20T10:20:00 | 54.160886 | 7.917623 | 2.0 | 8.655 | 2 | 33.160 | 8.851 | 30.977 | 2 |
| 2025-04-20T10:21:00 | 54.160863 | 7.917498 | 2.0 | 8.653 | 2 | 33.408 | 8.857 | 31.229 | 2 |
| 2025-04-20T10:22:00 | 54.160834 | 7.917297 | 2.0 | 8.650 | 2 | 33.422 | 8.854 | 31.246 | 2 |
| 2025-04-20T10:23:00 | 54.160820 | 7.917129 | 2.0 | 8.663 | 2 | 33.248 | 8.854 | 31.066 | 2 |
| 2025-04-20T10:24:00 | 54.160805 | 7.917041 | 2.0 | 8.655 | 2 | 33.298 | 8.862 | 31.111 | 2 |
| 2025-04-20T10:25:00 | 54.160786 | 7.916954 | 2.0 | 8.651 | 2 | 33.432 | 8.857 | 31.254 | 2 |
| 2025-04-20T10:26:00 | 54.160777 | 7.916847 | 2.0 | 8.651 | 2 | 33.192 | 8.854 | 31.008 | 2 |
| 2025-04-20T10:27:00 | 54.160773 | 7.916732 | 2.0 | 8.641 | 2 | 33.259 | 8.851 | 31.080 | 2 |
| 2025-04-20T10:28:00 | 54.160760 | 7.916620 | 2.0 | 8.637 | 2 | 33.182 | 8.840 | 31.010 | 2 |
| 2025-04-20T10:29:00 | 54.160736 | 7.916530 | 2.0 | 8.640 | 2 | 33.317 | 8.842 | 31.148 | 2 |
| 2025-04-20T10:30:00 | 54.160713 | 7.916475 | 2.0 | 8.640 | 2 | 33.204 | 8.842 | 31.031 | 2 |
| 2025-04-20T10:31:00 | 54.160696 | 7.916462 | 2.0 | 8.645 | 2 | 33.100 | 8.838 | 30.927 | 2 |
| 2025-04-20T10:32:00 | 54.160671 | 7.916404 | 2.0 | 8.644 | 2 | 33.393 | 8.844 | 31.225 | 2 |
| 2025-04-20T10:33:00 | 54.160663 | 7.916346 | 2.0 | 8.667 | 2 | 33.335 | 8.849 | 31.160 | 2 |
| 2025-04-20T10:34:00 | 54.160670 | 7.916332 | 2.0 | 8.678 | 2 | 33.326 | 8.871 | 31.132 | 2 |
| 2025-04-20T10:35:00 | 54.160684 | 7.916303 | 2.0 | 8.669 | 2 | 33.436 | 8.880 | 31.238 | 2 |
| 2025-04-20T10:36:00 | 54.160674 | 7.916211 | 2.0 | 8.667 | 2 | 33.406 | 8.870 | 31.216 | 2 |
| 2025-04-20T10:37:00 | 54.160659 | 7.916106 | 2.0 | 8.674 | 2 | 33.217 | 8.869 | 31.021 | 2 |
| 2025-04-20T10:38:00 | 54.160652 | 7.916028 | 2.0 | 8.697 | 2 | 33.315 | 8.880 | 31.113 | 2 |
| 2025-04-20T10:39:00 | 54.160644 | 7.915969 | 2.0 | 8.694 | 2 | 33.385 | 8.900 | 31.167 | 2 |
| 2025-04-20T10:40:00 | 54.160635 | 7.915959 | 2.0 | 8.674 | 2 | 33.345 | 8.891 | 31.134 | 2 |
| 2025-04-20T10:41:00 | 54.160629 | 7.915979 | 2.0 | 8.649 | 2 | 33.379 | 8.873 | 31.185 | 2 |
| 2025-04-20T10:42:00 | 54.160610 | 7.915901 | 2.0 | 8.620 | 2 | 33.366 | 8.846 | 31.195 | 2 |
| 2025-04-20T10:43:00 | 54.160621 | 7.915746 | 2.0 | 8.660 | 2 | 33.308 | 8.827 | 31.152 | 2 |
| 2025-04-20T10:44:00 | 54.160725 | 7.915573 | 2.0 | 8.685 | 2 | 33.347 | 8.868 | 31.156 | 2 |
| 2025-04-20T10:45:00 | 54.161058 | 7.915771 | 2.0 | 8.692 | 2 | 33.379 | 8.885 | 31.174 | 2 |
| 2025-04-20T10:46:00 | 54.161238 | 7.916392 | 2.0 | 8.692 | 2 | 33.374 | 8.890 | 31.165 | 2 |
| 2025-04-20T10:47:00 | 54.161331 | 7.917169 | 2.0 | 8.686 | 2 | 33.405 | 8.894 | 31.193 | 2 |
| 2025-04-20T10:48:00 | 54.161494 | 7.917854 | 2.0 | 8.662 | 2 | 33.389 | 8.887 | 31.183 | 2 |
| 2025-04-20T10:49:00 | 54.161822 | 7.918369 | 2.0 | 8.667 | 2 | 33.362 | 8.865 | 31.174 | 2 |
| 2025-04-20T10:50:00 | 54.162177 | 7.918798 | 2.0 | 8.693 | 2 | 33.406 | 8.883 | 31.204 | 2 |
| 2025-04-20T10:51:00 | 54.162603 | 7.919030 | 2.0 | 8.675 | 2 | 33.385 | 8.887 | 31.179 | 2 |
| 2025-04-20T10:52:00 | 54.162685 | 7.918906 | 2.0 | 8.684 | 2 | 33.402 | 8.884 | 31.199 | 2 |
| 2025-04-20T10:53:00 | 54.162429 | 7.918195 | 2.0 | 8.664 | 2 | 33.398 | 8.873 | 31.205 | 2 |
| 2025-04-20T10:54:00 | 54.161655 | 7.917939 | 2.0 | 8.692 | 2 | 33.389 | 8.873 | 31.195 | 2 |
| 2025-04-20T10:55:00 | 54.160508 | 7.919055 | 2.0 | 8.737 | 2 | 33.373 | 8.905 | 31.151 | 2 |
| 2025-04-20T10:56:00 | 54.159505 | 7.921388 | 2.0 | 8.759 | 2 | 33.321 | 8.942 | 31.064 | 2 |
| 2025-04-20T10:57:00 | 54.158724 | 7.924479 | 2.0 | 8.777 | 2 | 33.293 | 8.966 | 31.015 | 2 |
| 2025-04-20T10:58:00 | 54.158023 | 7.927876 | 2.0 | 8.830 | 2 | 33.305 | 8.989 | 31.007 | 2 |
| 2025-04-20T10:59:00 | 54.157684 | 7.931469 | 2.0 | 8.858 | 2 | 33.339 | 9.040 | 30.998 | 2 |
| 2025-04-20T11:00:00 | 54.157424 | 7.935168 | 2.0 | 8.875 | 2 | 33.274 | 9.065 | 30.909 | 2 |
| 2025-04-20T11:01:00 | 54.157475 | 7.938908 | 2.0 | 8.899 | 2 | 33.044 | 9.084 | 30.656 | 2 |
| 2025-04-20T11:02:00 | 54.157776 | 7.942638 | 2.0 | 8.887 | 2 | 32.932 | 9.102 | 30.525 | 2 |
| 2025-04-20T11:03:00 | 54.158282 | 7.946314 | 2.0 | 8.887 | 2 | 33.094 | 9.089 | 30.703 | 2 |
| 2025-04-20T11:04:00 | 54.159064 | 7.949895 | 2.0 | 8.862 | 2 | 33.314 | 9.077 | 30.940 | 2 |
| 2025-04-20T11:05:00 | 54.160156 | 7.953106 | 2.0 | 8.835 | 2 | 33.264 | 9.044 | 30.917 | 2 |
| 2025-04-20T11:06:00 | 54.161658 | 7.955756 | 2.0 | 8.796 | 2 | 33.294 | 9.029 | 30.961 | 2 |
| 2025-04-20T11:07:00 | 54.163390 | 7.957369 | 2.0 | 8.816 | 2 | 33.130 | 8.986 | 30.829 | 2 |
| 2025-04-20T11:08:00 | 54.165256 | 7.958291 | 2.0 | 8.784 | 2 | 33.157 | 8.998 | 30.846 | 2 |
| 2025-04-20T11:09:00 | 54.167208 | 7.958979 | 2.0 | 8.636 | 2 | 33.240 | 8.938 | 30.984 | 2 |
| 2025-04-20T11:10:00 | 54.169103 | 7.959550 | 2.0 | 8.623 | 2 | 33.226 | 8.837 | 31.058 | 2 |
| 2025-04-20T11:11:00 | 54.171050 | 7.959627 | 2.0 | 8.624 | 2 | 33.061 | 8.800 | 30.919 | 2 |
| 2025-04-20T11:12:00 | 54.173062 | 7.959701 | 2.0 | 8.605 | 2 | 33.214 | 8.806 | 31.073 | 2 |
| 2025-04-20T11:13:00 | 54.175074 | 7.959740 | 2.0 | 8.567 | 2 | 33.135 | 8.785 | 31.009 | 2 |
| 2025-04-20T11:14:00 | 54.177063 | 7.959599 | 2.0 | 8.563 | 2 | 33.280 | 8.752 | 31.189 | 2 |
| 2025-04-20T11:15:00 | 54.179048 | 7.959438 | 2.0 | 8.573 | 2 | 33.399 | 8.748 | 31.316 | 2 |
| 2025-04-20T11:16:00 | 54.181016 | 7.959106 | 2.0 | 8.577 | 2 | 33.437 | 8.757 | 31.347 | 2 |
| 2025-04-20T11:17:00 | 54.182976 | 7.958686 | 2.0 | 8.562 | 2 | 33.380 | 8.756 | 31.289 | 2 |
| 2025-04-20T11:18:00 | 54.184965 | 7.958280 | 2.0 | 8.518 | 2 | 33.378 | 8.741 | 31.300 | 2 |
| 2025-04-20T11:19:00 | 54.186914 | 7.957789 | 2.0 | 8.466 | 2 | 33.343 | 8.688 | 31.311 | 2 |
| 2025-04-20T11:20:00 | 54.188809 | 7.957224 | 2.0 | 8.441 | 2 | 33.597 | 8.647 | 31.612 | 2 |
| 2025-04-20T11:21:00 | 54.190720 | 7.956650 | 2.0 | 8.421 | 2 | 33.539 | 8.621 | 31.575 | 2 |
| 2025-04-20T11:22:00 | 54.192649 | 7.956064 | 2.0 | 8.371 | 2 | 33.687 | 8.594 | 31.753 | 2 |
| 2025-04-20T11:23:00 | 54.194568 | 7.955501 | 2.0 | 8.266 | 2 | 33.666 | 8.542 | 31.778 | 2 |
| 2025-04-20T11:24:00 | 54.196479 | 7.954946 | 2.0 | 8.154 | 2 | 33.647 | 8.436 | 31.854 | 2 |
| 2025-04-20T11:25:00 | 54.198311 | 7.954404 | 2.0 | 8.059 | 2 | 33.792 | 8.318 | 32.114 | 2 |
| 2025-04-20T11:26:00 | 54.200033 | 7.953917 | 2.0 | 7.975 | 2 | 33.822 | 8.250 | 32.208 | 2 |
| 2025-04-20T11:27:00 | 54.201689 | 7.953481 | 2.0 | 7.830 | 2 | 33.970 | 8.126 | 32.478 | 2 |
| 2025-04-20T11:28:00 | 54.203329 | 7.953083 | 2.0 | 7.799 | 2 | 33.966 | 8.020 | 32.573 | 2 |
| 2025-04-20T11:29:00 | 54.204962 | 7.952710 | 2.0 | 7.735 | 2 | 33.934 | 7.976 | 32.580 | 2 |
| 2025-04-20T11:30:00 | 54.206894 | 7.952149 | 2.0 | 7.713 | 2 | 33.892 | 7.923 | 32.584 | 2 |
| 2025-04-20T11:31:00 | 54.209195 | 7.951388 | 2.0 | 7.733 | 2 | 33.899 | 7.905 | 32.608 | 2 |
| 2025-04-20T11:32:00 | 54.211612 | 7.950579 | 2.0 | 7.753 | 2 | 33.903 | 7.924 | 32.595 | 2 |
| 2025-04-20T11:33:00 | 54.214014 | 7.949802 | 2.0 | 7.779 | 2 | 33.912 | 7.942 | 32.588 | 2 |
| 2025-04-20T11:34:00 | 54.216475 | 7.948993 | 2.0 | 7.798 | 2 | 33.915 | 7.966 | 32.569 | 2 |
| 2025-04-20T11:35:00 | 54.218956 | 7.948171 | 2.0 | 7.821 | 2 | 33.899 | 7.984 | 32.535 | 2 |
| 2025-04-20T11:36:00 | 54.221406 | 7.947393 | 2.0 | 8.021 | 2 | 33.879 | 8.067 | 32.437 | 2 |
| 2025-04-20T11:37:00 | 54.223750 | 7.946607 | 2.0 | 8.022 | 2 | 33.858 | 8.190 | 32.301 | 2 |
| 2025-04-20T11:38:00 | 54.225916 | 7.945487 | 2.0 | 7.989 | 2 | 33.841 | 8.195 | 32.278 | 2 |
| 2025-04-20T11:39:00 | 54.228056 | 7.944377 | 2.0 | 7.996 | 2 | 33.821 | 8.166 | 32.284 | 2 |
| 2025-04-20T11:40:00 | 54.230226 | 7.943281 | 2.0 | 7.980 | 2 | 33.806 | 8.175 | 32.259 | 2 |
| 2025-04-20T11:41:00 | 54.232399 | 7.942206 | 2.0 | 7.965 | 2 | 33.798 | 8.155 | 32.269 | 2 |
| 2025-04-20T11:42:00 | 54.234608 | 7.941100 | 2.0 | 7.993 | 2 | 33.790 | 8.151 | 32.265 | 2 |
| 2025-04-20T11:43:00 | 54.236837 | 7.940010 | 2.0 | 8.007 | 2 | 33.778 | 8.176 | 32.229 | 2 |
| 2025-04-20T11:44:00 | 54.239042 | 7.938990 | 2.0 | 8.014 | 2 | 33.778 | 8.185 | 32.221 | 2 |
| 2025-04-20T11:45:00 | 54.241227 | 7.937990 | 2.0 | 8.066 | 2 | 33.755 | 8.201 | 32.182 | 2 |
| 2025-04-20T11:46:00 | 54.243398 | 7.937028 | 2.0 | 8.119 | 2 | 33.785 | 8.253 | 32.166 | 2 |
| 2025-04-20T11:47:00 | 54.245570 | 7.936057 | 2.0 | 8.129 | 2 | 33.737 | 8.299 | 32.073 | 2 |
| 2025-04-20T11:48:00 | 54.247796 | 7.935039 | 2.0 | 8.161 | 2 | 33.698 | 8.308 | 32.024 | 2 |
| 2025-04-20T11:49:00 | 54.250125 | 7.933969 | 2.0 | 8.215 | 2 | 33.608 | 8.349 | 31.892 | 2 |
| 2025-04-20T11:50:00 | 54.252484 | 7.932894 | 2.0 | 8.261 | 2 | 33.744 | 8.395 | 31.993 | 2 |
| 2025-04-20T11:51:00 | 54.254850 | 7.931787 | 2.0 | 8.287 | 2 | 33.456 | 8.440 | 31.650 | 2 |
| 2025-04-20T11:52:00 | 54.257169 | 7.930691 | 2.0 | 8.292 | 2 | 33.530 | 8.455 | 31.714 | 2 |
| 2025-04-20T11:53:00 | 54.259388 | 7.929281 | 2.0 | 8.442 | 2 | 33.676 | 8.501 | 31.826 | 2 |
| 2025-04-20T11:54:00 | 54.261527 | 7.927564 | 2.0 | 8.593 | 2 | 33.379 | 8.653 | 31.379 | 2 |
| 2025-04-20T11:55:00 | 54.263438 | 7.925385 | 2.0 | 8.621 | 2 | 33.133 | 8.752 | 31.036 | 2 |
| 2025-04-20T11:56:00 | 54.265374 | 7.923119 | 2.0 | 8.449 | 2 | 33.009 | 8.779 | 30.884 | 2 |
| 2025-04-20T11:57:00 | 54.267283 | 7.920877 | 2.0 | 8.456 | 2 | 33.393 | 8.599 | 31.442 | 2 |
| 2025-04-20T11:58:00 | 54.269211 | 7.918611 | 2.0 | 8.371 | 2 | 33.447 | 8.600 | 31.497 | 2 |
| 2025-04-20T11:59:00 | 54.271158 | 7.916312 | 2.0 | 8.486 | 2 | 33.013 | 8.591 | 31.052 | 2 |
| 2025-04-20T12:00:00 | 54.273098 | 7.914052 | 2.0 | 8.457 | 2 | 33.129 | 8.627 | 31.142 | 2 |
| 2025-04-20T12:01:00 | 54.275047 | 7.911773 | 2.0 | 8.635 | 2 | 33.122 | 8.676 | 31.091 | 2 |
| 2025-04-20T12:02:00 | 54.277015 | 7.909467 | 2.0 | 8.714 | 2 | 33.165 | 8.805 | 31.023 | 2 |
| 2025-04-20T12:03:00 | 54.279001 | 7.907147 | 2.0 | 8.707 | 2 | 32.935 | 8.876 | 30.723 | 2 |
| 2025-04-20T12:04:00 | 54.280995 | 7.904861 | 2.0 | 8.700 | 2 | 33.152 | 8.876 | 30.947 | 2 |
| 2025-04-20T12:05:00 | 54.283003 | 7.902584 | 2.0 | 8.693 | 2 | 32.876 | 8.870 | 30.667 | 2 |
| 2025-04-20T12:06:00 | 54.284881 | 7.900510 | 2.0 | 8.684 | 2 | 33.250 | 8.863 | 31.060 | 2 |
| 2025-04-20T12:07:00 | 54.286555 | 7.898767 | 2.0 | 8.657 | 2 | 32.966 | 8.851 | 30.777 | 2 |
| 2025-04-20T12:08:00 | 54.288173 | 7.897200 | 2.0 | 8.664 | 2 | 33.120 | 8.829 | 30.955 | 2 |
| 2025-04-20T12:09:00 | 54.289733 | 7.895662 | 2.0 | 8.698 | 2 | 33.000 | 8.845 | 30.817 | 2 |
| 2025-04-20T12:10:00 | 54.291272 | 7.894100 | 2.0 | 8.696 | 2 | 33.011 | 8.872 | 30.805 | 2 |
| 2025-04-20T12:12:00 | 54.294259 | 7.891110 | 2.0 | 8.688 | 2 | 32.772 | 8.861 | 30.568 | 2 |
| 2025-04-20T12:13:00 | 54.295715 | 7.889663 | 2.0 | 8.685 | 2 | 33.367 | 8.862 | 31.182 | 2 |
| 2025-04-20T12:14:00 | 54.297171 | 7.888226 | 2.0 | 8.678 | 2 | 33.368 | 8.858 | 31.187 | 2 |
| 2025-04-20T12:15:00 | 54.298598 | 7.886817 | 2.0 | 8.672 | 2 | 33.373 | 8.850 | 31.199 | 2 |
| 2025-04-20T12:16:00 | 54.300107 | 7.885293 | 2.0 | 8.655 | 2 | 33.101 | 8.843 | 30.923 | 2 |
| 2025-04-20T12:17:00 | 54.301618 | 7.883718 | 2.0 | 8.641 | 2 | 33.243 | 8.828 | 31.084 | 2 |
| 2025-04-20T12:18:00 | 54.303083 | 7.882216 | 2.0 | 8.618 | 2 | 33.467 | 8.811 | 31.331 | 2 |
| 2025-04-20T12:19:00 | 54.304562 | 7.880708 | 2.0 | 8.611 | 2 | 33.363 | 8.790 | 31.241 | 2 |
| 2025-04-20T12:20:00 | 54.306046 | 7.879162 | 2.0 | 8.626 | 2 | 33.178 | 8.789 | 31.050 | 2 |
| 2025-04-20T12:21:00 | 54.307540 | 7.877589 | 2.0 | 8.626 | 2 | 33.584 | 8.798 | 31.464 | 2 |
| 2025-04-20T12:22:00 | 54.308974 | 7.876080 | 2.0 | 8.629 | 2 | 33.606 | 8.799 | 31.486 | 2 |
| 2025-04-20T12:23:00 | 54.310424 | 7.874532 | 2.0 | 8.637 | 2 | 33.516 | 8.803 | 31.389 | 2 |
| 2025-04-20T12:24:00 | 54.311877 | 7.872991 | 2.0 | 8.640 | 2 | 33.266 | 8.809 | 31.124 | 2 |
| 2025-04-20T12:25:00 | 54.313387 | 7.871374 | 2.0 | 8.650 | 2 | 33.640 | 8.813 | 31.509 | 2 |
| 2025-04-20T12:26:00 | 54.314915 | 7.869722 | 2.0 | 8.654 | 2 | 33.478 | 8.823 | 31.332 | 2 |
| 2025-04-20T12:27:00 | 54.316410 | 7.868108 | 2.0 | 8.645 | 2 | 33.544 | 8.825 | 31.398 | 2 |
| 2025-04-20T12:28:00 | 54.317904 | 7.866501 | 2.0 | 8.637 | 2 | 33.315 | 8.816 | 31.169 | 2 |
| 2025-04-20T12:29:00 | 54.319366 | 7.864920 | 2.0 | 8.636 | 2 | 33.340 | 8.809 | 31.201 | 2 |
| 2025-04-20T12:30:00 | 54.320821 | 7.863374 | 2.0 | 8.636 | 2 | 33.322 | 8.807 | 31.184 | 2 |
| 2025-04-20T12:31:00 | 54.322299 | 7.861802 | 2.0 | 8.637 | 2 | 33.130 | 8.807 | 30.985 | 2 |
| 2025-04-20T12:32:00 | 54.323803 | 7.860169 | 2.0 | 8.637 | 2 | 33.439 | 8.809 | 31.304 | 2 |
| 2025-04-20T12:33:00 | 54.325304 | 7.858566 | 2.0 | 8.637 | 2 | 33.594 | 8.811 | 31.463 | 2 |
| 2025-04-20T12:34:00 | 54.326805 | 7.856986 | 2.0 | 8.631 | 2 | 33.397 | 8.809 | 31.260 | 2 |
| 2025-04-20T12:35:00 | 54.328292 | 7.855406 | 2.0 | 8.632 | 2 | 33.371 | 8.804 | 31.237 | 2 |
| 2025-04-20T12:36:00 | 54.329789 | 7.853841 | 2.0 | 8.635 | 2 | 33.443 | 8.804 | 31.312 | 2 |
| 2025-04-20T12:37:00 | 54.331318 | 7.852224 | 2.0 | 8.634 | 2 | 33.423 | 8.809 | 31.287 | 2 |
| 2025-04-20T12:38:00 | 54.332849 | 7.850576 | 2.0 | 8.637 | 2 | 33.571 | 8.807 | 31.442 | 2 |
| 2025-04-20T12:39:00 | 54.334373 | 7.848966 | 2.0 | 8.640 | 2 | 33.409 | 8.811 | 31.271 | 2 |
| 2025-04-20T12:40:00 | 54.335862 | 7.847416 | 2.0 | 8.635 | 2 | 33.274 | 8.811 | 31.131 | 2 |
| 2025-04-20T12:41:00 | 54.337359 | 7.845837 | 2.0 | 8.629 | 2 | 33.458 | 8.806 | 31.326 | 2 |
| 2025-04-20T12:42:00 | 54.338840 | 7.844258 | 2.0 | 8.644 | 2 | 33.518 | 8.805 | 31.389 | 2 |
| 2025-04-20T12:43:00 | 54.340317 | 7.842664 | 2.0 | 8.650 | 2 | 33.501 | 8.816 | 31.362 | 2 |
| 2025-04-20T12:44:00 | 54.341794 | 7.841101 | 2.0 | 8.647 | 2 | 33.468 | 8.820 | 31.324 | 2 |
| 2025-04-20T12:45:00 | 54.343274 | 7.839541 | 2.0 | 8.652 | 2 | 33.472 | 8.821 | 31.327 | 2 |
| 2025-04-20T12:46:00 | 54.344768 | 7.837959 | 2.0 | 8.660 | 2 | 33.441 | 8.826 | 31.291 | 2 |
| 2025-04-20T12:47:00 | 54.346146 | 7.836373 | 2.0 | 8.663 | 2 | 33.602 | 8.832 | 31.452 | 2 |
| 2025-04-20T12:48:00 | 54.347306 | 7.834578 | 2.0 | 8.673 | 2 | 33.422 | 8.836 | 31.262 | 2 |
| 2025-04-20T12:49:00 | 54.348441 | 7.832643 | 2.0 | 8.675 | 2 | 33.509 | 8.843 | 31.346 | 2 |
| 2025-04-20T12:50:00 | 54.349600 | 7.830593 | 2.0 | 8.676 | 2 | 33.569 | 8.846 | 31.406 | 2 |
| 2025-04-20T12:51:00 | 54.350739 | 7.828554 | 2.0 | 8.677 | 2 | 33.613 | 8.847 | 31.450 | 2 |
| 2025-04-20T12:52:00 | 54.351910 | 7.826471 | 2.0 | 8.679 | 2 | 33.621 | 8.848 | 31.458 | 2 |
| 2025-04-20T12:53:00 | 54.353100 | 7.824329 | 2.0 | 8.677 | 2 | 33.476 | 8.850 | 31.306 | 2 |
| 2025-04-20T12:54:00 | 54.354268 | 7.822221 | 2.0 | 8.675 | 2 | 33.466 | 8.848 | 31.297 | 2 |
| 2025-04-20T12:55:00 | 54.355438 | 7.820112 | 2.0 | 8.668 | 2 | 33.525 | 8.844 | 31.362 | 2 |
| 2025-04-20T12:56:00 | 54.356628 | 7.817960 | 2.0 | 8.661 | 2 | 33.483 | 8.838 | 31.324 | 2 |
| 2025-04-20T12:57:00 | 54.357834 | 7.815803 | 2.0 | 8.647 | 2 | 33.397 | 8.829 | 31.242 | 2 |
| 2025-04-20T12:58:00 | 54.359026 | 7.813669 | 2.0 | 8.639 | 2 | 33.477 | 8.818 | 31.335 | 2 |
| 2025-04-20T12:59:00 | 54.360108 | 7.811771 | 2.0 | 8.624 | 2 | 33.479 | 8.809 | 31.345 | 2 |
| 2025-04-20T13:00:00 | 54.361006 | 7.810268 | 2.0 | 8.609 | 2 | 33.526 | 8.794 | 31.407 | 2 |
| 2025-04-20T13:01:00 | 54.361811 | 7.809011 | 2.0 | 8.601 | 2 | 33.535 | 8.781 | 31.428 | 2 |
| 2025-04-20T13:02:00 | 54.362688 | 7.807600 | 2.0 | 8.589 | 2 | 33.529 | 8.771 | 31.431 | 2 |
| 2025-04-20T13:03:00 | 54.363597 | 7.806080 | 2.0 | 8.572 | 2 | 33.552 | 8.759 | 31.465 | 2 |
| 2025-04-20T13:04:00 | 54.364534 | 7.804493 | 2.0 | 8.556 | 2 | 33.503 | 8.740 | 31.431 | 2 |
| 2025-04-20T13:05:00 | 54.365504 | 7.802801 | 2.0 | 8.544 | 2 | 33.490 | 8.726 | 31.430 | 2 |
| 2025-04-20T13:06:00 | 54.366491 | 7.801055 | 2.0 | 8.537 | 2 | 33.508 | 8.717 | 31.457 | 2 |
| 2025-04-20T13:07:00 | 54.367434 | 7.799408 | 2.0 | 8.533 | 2 | 33.543 | 8.708 | 31.501 | 2 |
| 2025-04-20T13:08:00 | 54.368378 | 7.797779 | 2.0 | 8.526 | 2 | 33.524 | 8.703 | 31.486 | 2 |
| 2025-04-20T13:09:00 | 54.369365 | 7.796010 | 2.0 | 8.519 | 2 | 33.536 | 8.696 | 31.505 | 2 |
| 2025-04-20T13:10:00 | 54.370382 | 7.794197 | 2.0 | 8.510 | 2 | 33.441 | 8.690 | 31.411 | 2 |
| 2025-04-20T13:11:00 | 54.371408 | 7.792362 | 2.0 | 8.504 | 2 | 33.572 | 8.681 | 31.555 | 2 |
| 2025-04-20T13:12:00 | 54.372417 | 7.790398 | 2.0 | 8.496 | 2 | 33.634 | 8.674 | 31.626 | 2 |
| 2025-04-20T13:13:00 | 54.373428 | 7.788419 | 2.0 | 8.499 | 2 | 33.633 | 8.669 | 31.630 | 2 |
| 2025-04-20T13:14:00 | 54.374441 | 7.786375 | 2.0 | 8.497 | 2 | 33.634 | 8.671 | 31.629 | 2 |
| 2025-04-20T13:15:00 | 54.375378 | 7.784292 | 2.0 | 8.493 | 2 | 33.632 | 8.669 | 31.629 | 2 |
| 2025-04-20T13:16:00 | 54.376328 | 7.782171 | 2.0 | 8.489 | 2 | 33.631 | 8.665 | 31.631 | 2 |
| 2025-04-20T13:17:00 | 54.377257 | 7.779947 | 2.0 | 8.492 | 2 | 33.631 | 8.661 | 31.635 | 2 |
| 2025-04-20T13:18:00 | 54.378172 | 7.777723 | 2.0 | 8.482 | 2 | 33.637 | 8.665 | 31.637 | 2 |
| 2025-04-20T13:19:00 | 54.379131 | 7.775513 | 2.0 | 8.474 | 2 | 33.632 | 8.653 | 31.643 | 2 |
| 2025-04-20T13:20:00 | 54.380118 | 7.773252 | 2.0 | 8.477 | 2 | 33.638 | 8.649 | 31.653 | 2 |
| 2025-04-20T13:21:00 | 54.381028 | 7.771152 | 2.0 | 8.465 | 2 | 33.649 | 8.643 | 31.670 | 2 |
| 2025-04-20T13:22:00 | 54.381943 | 7.769072 | 2.0 | 8.520 | 2 | 33.658 | 8.650 | 31.673 | 2 |
| 2025-04-20T13:23:00 | 54.382900 | 7.766964 | 2.0 | 8.551 | 2 | 33.670 | 8.692 | 31.648 | 2 |
| 2025-04-20T13:24:00 | 54.383875 | 7.764806 | 2.0 | 8.544 | 2 | 33.668 | 8.719 | 31.622 | 2 |
| 2025-04-20T13:25:00 | 54.384933 | 7.762733 | 2.0 | 8.597 | 2 | 33.664 | 8.717 | 31.619 | 2 |
| 2025-04-20T13:26:00 | 54.386309 | 7.761150 | 2.0 | 8.610 | 2 | 33.671 | 8.765 | 31.584 | 2 |
| 2025-04-20T13:27:00 | 54.387673 | 7.760030 | 2.0 | 8.597 | 2 | 33.675 | 8.776 | 31.578 | 2 |
| 2025-04-20T13:28:00 | 54.388835 | 7.759469 | 2.0 | 8.603 | 2 | 33.672 | 8.767 | 31.583 | 2 |
| 2025-04-20T13:29:00 | 54.389717 | 7.759187 | 2.0 | 8.580 | 2 | 33.673 | 8.768 | 31.583 | 2 |
| 2025-04-20T13:30:00 | 54.390318 | 7.758738 | 2.0 | 8.572 | 2 | 33.668 | 8.751 | 31.593 | 2 |
| 2025-04-20T13:31:00 | 54.390985 | 7.758408 | 2.0 | 8.573 | 2 | 33.669 | 8.741 | 31.603 | 2 |
| 2025-04-20T13:32:00 | 54.391664 | 7.758084 | 2.0 | 8.570 | 2 | 33.666 | 8.743 | 31.598 | 2 |
| 2025-04-20T13:33:00 | 54.392314 | 7.757841 | 2.0 | 8.564 | 2 | 33.665 | 8.739 | 31.601 | 2 |
| 2025-04-20T13:34:00 | 54.392907 | 7.757584 | 2.0 | 8.566 | 2 | 33.666 | 8.736 | 31.604 | 2 |
| 2025-04-20T13:35:00 | 54.393311 | 7.757436 | 2.0 | 8.583 | 2 | 33.672 | 8.751 | 31.597 | 2 |
| 2025-04-20T13:36:00 | 54.393388 | 7.757530 | 2.0 | 8.586 | 2 | 33.678 | 8.766 | 31.590 | 2 |
| 2025-04-20T13:37:00 | 54.393316 | 7.757712 | 2.0 | 8.598 | 2 | 33.681 | 8.775 | 31.585 | 2 |
| 2025-04-20T13:38:00 | 54.393231 | 7.757501 | 2.0 | 8.598 | 2 | 33.688 | 8.787 | 31.582 | 2 |
| 2025-04-20T13:39:00 | 54.393191 | 7.756925 | 2.0 | 8.600 | 2 | 33.689 | 8.789 | 31.581 | 2 |
| 2025-04-20T13:40:00 | 54.393222 | 7.756391 | 2.0 | 8.601 | 2 | 33.688 | 8.791 | 31.578 | 2 |
| 2025-04-20T13:41:00 | 54.393291 | 7.756052 | 2.0 | 8.596 | 2 | 33.688 | 8.792 | 31.577 | 2 |
| 2025-04-20T13:42:00 | 54.393360 | 7.755755 | 2.0 | 8.591 | 2 | 33.686 | 8.788 | 31.579 | 2 |
| 2025-04-20T13:43:00 | 54.393429 | 7.755438 | 2.0 | 8.593 | 2 | 33.684 | 8.785 | 31.579 | 2 |
| 2025-04-20T13:44:00 | 54.393498 | 7.755122 | 2.0 | 8.594 | 2 | 33.686 | 8.787 | 31.580 | 2 |
| 2025-04-20T13:45:00 | 54.393545 | 7.754915 | 2.0 | 8.592 | 2 | 33.687 | 8.787 | 31.581 | 2 |
| 2025-04-20T13:46:00 | 54.393571 | 7.754823 | 2.0 | 8.587 | 2 | 33.687 | 8.785 | 31.582 | 2 |
| 2025-04-20T13:47:00 | 54.393588 | 7.754817 | 2.0 | 8.587 | 2 | 33.687 | 8.784 | 31.583 | 2 |
| 2025-04-20T13:48:00 | 54.393596 | 7.754857 | 2.0 | 8.586 | 2 | 33.686 | 8.781 | 31.585 | 2 |
| 2025-04-20T13:49:00 | 54.393617 | 7.754829 | 2.0 | 8.584 | 2 | 33.688 | 8.783 | 31.585 | 2 |
| 2025-04-20T13:50:00 | 54.393646 | 7.754806 | 2.0 | 8.579 | 2 | 33.688 | 8.779 | 31.589 | 2 |
| 2025-04-20T13:51:00 | 54.393650 | 7.754810 | 2.0 | 8.575 | 2 | 33.685 | 8.774 | 31.590 | 2 |
| 2025-04-20T13:52:00 | 54.393633 | 7.754840 | 2.0 | 8.578 | 2 | 33.685 | 8.772 | 31.592 | 2 |
| 2025-04-20T13:53:00 | 54.393603 | 7.754855 | 2.0 | 8.599 | 2 | 33.689 | 8.778 | 31.591 | 2 |
| 2025-04-20T13:54:00 | 54.393576 | 7.754853 | 2.0 | 8.612 | 2 | 33.702 | 8.799 | 31.586 | 2 |
| 2025-04-20T13:55:00 | 54.393554 | 7.754842 | 2.0 | 8.610 | 2 | 33.710 | 8.808 | 31.586 | 2 |
| 2025-04-20T13:56:00 | 54.393563 | 7.754691 | 2.0 | 8.610 | 2 | 33.709 | 8.807 | 31.586 | 2 |
| 2025-04-20T13:57:00 | 54.393654 | 7.754699 | 2.0 | 8.615 | 2 | 33.709 | 8.807 | 31.586 | 2 |
| 2025-04-20T13:58:00 | 54.393733 | 7.754894 | 2.0 | 8.618 | 2 | 33.712 | 8.813 | 31.583 | 2 |
| 2025-04-20T13:59:00 | 54.393788 | 7.755077 | 2.0 | 8.619 | 2 | 33.715 | 8.816 | 31.584 | 2 |
| 2025-04-20T14:00:00 | 54.393803 | 7.755188 | 2.0 | 8.615 | 2 | 33.715 | 8.816 | 31.584 | 2 |
| 2025-04-20T14:01:00 | 54.393801 | 7.755266 | 2.0 | 8.615 | 2 | 33.713 | 8.813 | 31.585 | 2 |
| 2025-04-20T14:02:00 | 54.393755 | 7.755279 | 2.0 | 8.607 | 2 | 33.713 | 8.812 | 31.585 | 2 |
| 2025-04-20T14:03:00 | 54.393711 | 7.755226 | 2.0 | 8.605 | 2 | 33.710 | 8.807 | 31.587 | 2 |
| 2025-04-20T14:04:00 | 54.393689 | 7.755172 | 2.0 | 8.604 | 2 | 33.706 | 8.803 | 31.586 | 2 |
| 2025-04-20T14:05:00 | 54.393651 | 7.755146 | 2.0 | 8.612 | 2 | 33.706 | 8.804 | 31.585 | 2 |
| 2025-04-20T14:06:00 | 54.393615 | 7.755134 | 2.0 | 8.613 | 2 | 33.544 | 8.811 | 31.411 | 2 |
| 2025-04-20T14:07:00 | 54.393565 | 7.755170 | 2.0 | 8.620 | 2 | 33.714 | 8.813 | 31.586 | 2 |
| 2025-04-20T14:08:00 | 54.393557 | 7.755243 | 2.0 | 8.622 | 2 | 33.719 | 8.819 | 31.585 | 2 |
| 2025-04-20T14:09:00 | 54.393588 | 7.755276 | 2.0 | 8.617 | 2 | 33.678 | 8.820 | 31.542 | 2 |
| 2025-04-20T14:10:00 | 54.393586 | 7.755200 | 2.0 | 8.612 | 2 | 33.506 | 8.815 | 31.368 | 2 |
| 2025-04-20T14:11:00 | 54.393559 | 7.755195 | 2.0 | 8.615 | 2 | 33.715 | 8.812 | 31.587 | 2 |
| 2025-04-20T14:12:00 | 54.393567 | 7.755258 | 2.0 | 8.616 | 2 | 33.713 | 8.814 | 31.584 | 2 |
| 2025-04-20T14:13:00 | 54.393612 | 7.755372 | 2.0 | 8.616 | 2 | 33.720 | 8.816 | 31.589 | 2 |
| 2025-04-20T14:14:00 | 54.393652 | 7.755432 | 2.0 | 8.610 | 2 | 33.708 | 8.815 | 31.578 | 2 |
| 2025-04-20T14:15:00 | 54.393656 | 7.755391 | 2.0 | 8.608 | 2 | 33.717 | 8.809 | 31.592 | 2 |
| 2025-04-20T14:16:00 | 54.393666 | 7.755275 | 2.0 | 8.610 | 2 | 33.408 | 8.808 | 31.272 | 2 |
| 2025-04-20T14:17:00 | 54.393651 | 7.755179 | 2.0 | 8.612 | 2 | 33.719 | 8.810 | 31.593 | 2 |
| 2025-04-20T14:18:00 | 54.393630 | 7.755087 | 2.0 | 8.616 | 2 | 33.466 | 8.812 | 31.329 | 2 |
| 2025-04-20T14:19:00 | 54.393627 | 7.754992 | 2.0 | 8.615 | 2 | 33.723 | 8.816 | 31.592 | 2 |
| 2025-04-20T14:20:00 | 54.393654 | 7.754947 | 2.0 | 8.616 | 2 | 33.528 | 8.814 | 31.391 | 2 |
| 2025-04-20T14:21:00 | 54.393703 | 7.754926 | 2.0 | 8.618 | 2 | 33.362 | 8.817 | 31.217 | 2 |
| 2025-04-20T14:22:00 | 54.393745 | 7.754965 | 2.0 | 8.615 | 2 | 33.250 | 8.815 | 31.102 | 2 |
| 2025-04-20T14:23:00 | 54.393761 | 7.754981 | 2.0 | 8.614 | 2 | 33.533 | 8.817 | 31.394 | 2 |
| 2025-04-20T14:24:00 | 54.393752 | 7.754963 | 2.0 | 8.604 | 2 | 33.596 | 8.813 | 31.463 | 2 |
| 2025-04-20T14:25:00 | 54.393734 | 7.754890 | 2.0 | 8.614 | 2 | 33.557 | 8.809 | 31.426 | 2 |
| 2025-04-20T14:26:00 | 54.393735 | 7.754806 | 2.0 | 8.610 | 2 | 33.439 | 8.813 | 31.300 | 2 |
| 2025-04-20T14:27:00 | 54.393754 | 7.754731 | 2.0 | 8.608 | 2 | 33.570 | 8.813 | 31.436 | 2 |
| 2025-04-20T14:28:00 | 54.393793 | 7.754691 | 2.0 | 8.612 | 2 | 33.580 | 8.812 | 31.447 | 2 |
| 2025-04-20T14:29:00 | 54.393797 | 7.754677 | 2.0 | 8.615 | 2 | 33.477 | 8.809 | 31.343 | 2 |
| 2025-04-20T14:30:00 | 54.393772 | 7.754656 | 2.0 | 8.610 | 2 | 33.577 | 8.805 | 31.450 | 2 |
| 2025-04-20T14:31:00 | 54.393737 | 7.754684 | 2.0 | 8.612 | 2 | 33.390 | 8.797 | 31.263 | 2 |
| 2025-04-20T14:32:00 | 54.393677 | 7.754740 | 2.0 | 8.615 | 2 | 33.095 | 8.797 | 30.957 | 2 |
| 2025-04-20T14:33:00 | 54.393619 | 7.754778 | 2.0 | 8.607 | 2 | 33.712 | 8.796 | 31.599 | 2 |
| 2025-04-20T14:34:00 | 54.393556 | 7.754778 | 2.0 | 8.616 | 2 | 33.708 | 8.792 | 31.598 | 2 |
| 2025-04-20T14:35:00 | 54.393515 | 7.754818 | 2.0 | 8.615 | 2 | 33.710 | 8.797 | 31.596 | 2 |
| 2025-04-20T14:36:00 | 54.393471 | 7.754855 | 2.0 | 8.613 | 2 | 33.709 | 8.795 | 31.596 | 2 |
| 2025-04-20T14:37:00 | 54.393422 | 7.754849 | 2.0 | 8.616 | 2 | 33.707 | 8.793 | 31.596 | 2 |
| 2025-04-20T14:38:00 | 54.393408 | 7.754846 | 2.0 | 8.619 | 2 | 33.707 | 8.796 | 31.593 | 2 |
| 2025-04-20T14:39:00 | 54.393456 | 7.754881 | 2.0 | 8.620 | 2 | 33.709 | 8.797 | 31.595 | 2 |
| 2025-04-20T14:40:00 | 54.393496 | 7.754901 | 2.0 | 8.618 | 2 | 33.711 | 8.798 | 31.596 | 2 |
| 2025-04-20T14:41:00 | 54.393478 | 7.754922 | 2.0 | 8.618 | 2 | 33.709 | 8.795 | 31.596 | 2 |
| 2025-04-20T14:42:00 | 54.393501 | 7.754906 | 2.0 | 8.620 | 2 | 33.710 | 8.796 | 31.597 | 2 |
| 2025-04-20T14:43:00 | 54.393482 | 7.754862 | 2.0 | 8.615 | 2 | 33.711 | 8.796 | 31.598 | 2 |
| 2025-04-20T14:44:00 | 54.393475 | 7.754777 | 2.0 | 8.624 | 2 | 33.709 | 8.793 | 31.598 | 2 |
| 2025-04-20T14:45:00 | 54.393494 | 7.754701 | 2.0 | 8.620 | 2 | 33.713 | 8.800 | 31.596 | 2 |
| 2025-04-20T14:46:00 | 54.393501 | 7.754689 | 2.0 | 8.620 | 2 | 33.670 | 8.795 | 31.556 | 2 |
| 2025-04-20T14:47:00 | 54.393522 | 7.754691 | 2.0 | 8.620 | 2 | 33.711 | 8.796 | 31.598 | 2 |
| 2025-04-20T14:48:00 | 54.393552 | 7.754728 | 2.0 | 8.624 | 2 | 33.712 | 8.796 | 31.599 | 2 |
| 2025-04-20T14:49:00 | 54.393560 | 7.754698 | 2.0 | 8.620 | 2 | 33.713 | 8.798 | 31.598 | 2 |
| 2025-04-20T14:50:00 | 54.393569 | 7.754609 | 2.0 | 8.620 | 2 | 33.712 | 8.796 | 31.599 | 2 |
| 2025-04-20T14:51:00 | 54.393569 | 7.754527 | 2.0 | 8.620 | 2 | 33.711 | 8.795 | 31.598 | 2 |
| 2025-04-20T14:52:00 | 54.393572 | 7.754457 | 2.0 | 8.623 | 2 | 33.712 | 8.796 | 31.599 | 2 |
| 2025-04-20T14:53:00 | 54.393561 | 7.754424 | 2.0 | 8.621 | 2 | 33.713 | 8.797 | 31.599 | 2 |
| 2025-04-20T14:54:00 | 54.393566 | 7.754442 | 2.0 | 8.622 | 2 | 33.711 | 8.795 | 31.598 | 2 |
| 2025-04-20T14:55:00 | 54.393571 | 7.754485 | 2.0 | 8.619 | 2 | 33.712 | 8.796 | 31.599 | 2 |
| 2025-04-20T14:56:00 | 54.393594 | 7.754497 | 2.0 | 8.621 | 2 | 33.711 | 8.794 | 31.599 | 2 |
| 2025-04-20T14:57:00 | 54.393602 | 7.754494 | 2.0 | 8.614 | 2 | 33.306 | 8.794 | 31.179 | 2 |
| 2025-04-20T14:58:00 | 54.393598 | 7.754466 | 2.0 | 8.615 | 2 | 33.377 | 8.788 | 31.258 | 2 |
| 2025-04-20T14:59:00 | 54.393608 | 7.754414 | 2.0 | 8.614 | 2 | 33.707 | 8.789 | 31.600 | 2 |
| 2025-04-20T15:00:00 | 54.393600 | 7.754357 | 2.0 | 8.612 | 2 | 33.707 | 8.789 | 31.600 | 2 |
| 2025-04-20T15:01:00 | 54.393583 | 7.754311 | 2.0 | 8.611 | 2 | 33.429 | 8.786 | 31.313 | 2 |
| 2025-04-20T15:02:00 | 54.393562 | 7.754260 | 2.0 | 8.612 | 2 | 33.604 | 8.785 | 31.496 | 2 |
| 2025-04-20T15:03:00 | 54.393534 | 7.754217 | 2.0 | 8.612 | 2 | 33.706 | 8.786 | 31.601 | 2 |
| 2025-04-20T15:04:00 | 54.393503 | 7.754152 | 2.0 | 8.613 | 2 | 33.454 | 8.786 | 31.339 | 2 |
| 2025-04-20T15:05:00 | 54.393483 | 7.754080 | 2.0 | 8.612 | 2 | 33.408 | 8.787 | 31.291 | 2 |
| 2025-04-20T15:06:00 | 54.393446 | 7.754047 | 2.0 | 8.616 | 2 | 33.706 | 8.787 | 31.600 | 2 |
| 2025-04-20T15:07:00 | 54.393419 | 7.754028 | 2.0 | 8.619 | 2 | 33.624 | 8.790 | 31.512 | 2 |
| 2025-04-20T15:08:00 | 54.393418 | 7.754024 | 2.0 | 8.618 | 2 | 33.710 | 8.792 | 31.600 | 2 |
| 2025-04-20T15:09:00 | 54.393430 | 7.754046 | 2.0 | 8.612 | 2 | 33.708 | 8.790 | 31.600 | 2 |
| 2025-04-20T15:10:00 | 54.393434 | 7.754005 | 2.0 | 8.616 | 2 | 33.699 | 8.786 | 31.594 | 2 |
| 2025-04-20T15:11:00 | 54.393429 | 7.753901 | 2.0 | 8.619 | 2 | 33.318 | 8.789 | 31.196 | 2 |
| 2025-04-20T15:12:00 | 54.393449 | 7.753847 | 2.0 | 8.617 | 2 | 33.358 | 8.790 | 31.236 | 2 |
| 2025-04-20T15:13:00 | 54.393501 | 7.753868 | 2.0 | 8.618 | 2 | 33.686 | 8.791 | 31.576 | 2 |
| 2025-04-20T15:14:00 | 54.393535 | 7.753956 | 2.0 | 8.619 | 2 | 33.522 | 8.791 | 31.406 | 2 |
| 2025-04-20T15:15:00 | 54.393555 | 7.753990 | 2.0 | 8.617 | 2 | 33.512 | 8.791 | 31.395 | 2 |
| 2025-04-20T15:16:00 | 54.393581 | 7.753954 | 2.0 | 8.611 | 2 | 33.229 | 8.788 | 31.104 | 2 |
| 2025-04-20T15:17:00 | 54.393607 | 7.753854 | 2.0 | 8.619 | 2 | 33.424 | 8.783 | 31.311 | 2 |
| 2025-04-20T15:18:00 | 54.393625 | 7.753739 | 2.0 | 8.620 | 2 | 33.482 | 8.790 | 31.365 | 2 |
| 2025-04-20T15:19:00 | 54.393638 | 7.753604 | 2.0 | 8.619 | 2 | 33.531 | 8.791 | 31.415 | 2 |
| 2025-04-20T15:20:00 | 54.393629 | 7.753514 | 2.0 | 8.621 | 2 | 33.471 | 8.791 | 31.353 | 2 |
| 2025-04-20T15:21:00 | 54.393630 | 7.753447 | 2.0 | 8.622 | 2 | 33.713 | 8.793 | 31.602 | 2 |
| 2025-04-20T15:22:00 | 54.393640 | 7.753433 | 2.0 | 8.623 | 2 | 33.506 | 8.794 | 31.386 | 2 |
| 2025-04-20T15:23:00 | 54.393622 | 7.753511 | 2.0 | 8.622 | 2 | 33.463 | 8.794 | 31.342 | 2 |
| 2025-04-20T15:24:00 | 54.393616 | 7.753647 | 2.0 | 8.623 | 2 | 33.468 | 8.794 | 31.347 | 2 |
| 2025-04-20T15:25:00 | 54.393631 | 7.753780 | 2.0 | 8.621 | 2 | 33.445 | 8.794 | 31.323 | 2 |
| 2025-04-20T15:26:00 | 54.393662 | 7.753901 | 2.0 | 8.616 | 2 | 33.519 | 8.793 | 31.401 | 2 |
| 2025-04-20T15:27:00 | 54.393722 | 7.754036 | 2.0 | 8.578 | 2 | 33.517 | 8.782 | 31.408 | 2 |
| 2025-04-20T15:28:00 | 54.393795 | 7.754213 | 2.0 | 8.561 | 2 | 33.606 | 8.741 | 31.537 | 2 |
| 2025-04-20T15:29:00 | 54.393836 | 7.754380 | 2.0 | 8.580 | 2 | 33.614 | 8.742 | 31.545 | 2 |
| 2025-04-20T15:30:00 | 54.393795 | 7.754474 | 2.0 | 8.591 | 2 | 33.599 | 8.757 | 31.516 | 2 |
| 2025-04-20T15:31:00 | 54.393707 | 7.754455 | 2.0 | 8.599 | 2 | 33.667 | 8.763 | 31.581 | 2 |
| 2025-04-20T15:32:00 | 54.393644 | 7.754433 | 2.0 | 8.617 | 2 | 33.474 | 8.774 | 31.371 | 2 |
| 2025-04-20T15:33:00 | 54.393592 | 7.754373 | 2.0 | 8.622 | 2 | 33.600 | 8.788 | 31.489 | 2 |
| 2025-04-20T15:34:00 | 54.393551 | 7.754358 | 2.0 | 8.625 | 2 | 33.556 | 8.793 | 31.439 | 2 |
| 2025-04-20T15:35:00 | 54.393487 | 7.754351 | 2.0 | 8.625 | 2 | 33.498 | 8.796 | 31.376 | 2 |
| 2025-04-20T15:36:00 | 54.393455 | 7.754269 | 2.0 | 8.625 | 2 | 33.690 | 8.804 | 31.569 | 2 |
| 2025-04-20T15:37:00 | 54.393409 | 7.754147 | 2.0 | 8.628 | 2 | 33.648 | 8.810 | 31.520 | 2 |
| 2025-04-20T15:38:00 | 54.393372 | 7.753836 | 2.0 | 8.627 | 2 | 33.585 | 8.813 | 31.452 | 2 |
| 2025-04-20T15:39:00 | 54.393405 | 7.753535 | 2.0 | 8.628 | 2 | 33.522 | 8.815 | 31.384 | 2 |
| 2025-04-20T15:40:00 | 54.393486 | 7.753438 | 2.0 | 8.628 | 2 | 33.630 | 8.817 | 31.495 | 2 |
| 2025-04-20T15:41:00 | 54.393528 | 7.753483 | 2.0 | 8.629 | 2 | 33.667 | 8.822 | 31.529 | 2 |
| 2025-04-20T15:42:00 | 54.393605 | 7.753620 | 2.0 | 8.623 | 2 | 33.549 | 8.821 | 31.407 | 2 |
| 2025-04-20T15:43:00 | 54.393685 | 7.753759 | 2.0 | 8.614 | 2 | 33.535 | 8.807 | 31.405 | 2 |
| 2025-04-20T15:44:00 | 54.393780 | 7.753925 | 2.0 | 8.625 | 2 | 33.607 | 8.809 | 31.478 | 2 |
| 2025-04-20T15:45:00 | 54.393910 | 7.754074 | 2.0 | 8.614 | 2 | 33.580 | 8.819 | 31.441 | 2 |
| 2025-04-20T15:46:00 | 54.393979 | 7.754297 | 2.0 | 8.600 | 2 | 33.593 | 8.802 | 31.470 | 2 |
| 2025-04-20T15:47:00 | 54.394054 | 7.754557 | 2.0 | 8.601 | 2 | 33.629 | 8.799 | 31.510 | 2 |
| 2025-04-20T15:48:00 | 54.394153 | 7.754792 | 2.0 | 8.606 | 2 | 33.657 | 8.799 | 31.539 | 2 |
| 2025-04-20T15:49:00 | 54.394287 | 7.755026 | 2.0 | 8.602 | 2 | 33.651 | 8.799 | 31.533 | 2 |
| 2025-04-20T15:50:00 | 54.394419 | 7.755274 | 2.0 | 8.605 | 2 | 33.625 | 8.799 | 31.506 | 2 |
| 2025-04-20T15:51:00 | 54.394628 | 7.755357 | 2.0 | 8.610 | 2 | 33.609 | 8.803 | 31.485 | 2 |
| 2025-04-20T15:52:00 | 54.394982 | 7.755188 | 2.0 | 8.613 | 2 | 33.660 | 8.805 | 31.537 | 2 |
| 2025-04-20T15:53:00 | 54.395307 | 7.754963 | 2.0 | 8.614 | 2 | 33.664 | 8.810 | 31.536 | 2 |
| 2025-04-20T15:54:00 | 54.395591 | 7.754512 | 2.0 | 8.614 | 2 | 33.685 | 8.811 | 31.557 | 2 |
| 2025-04-20T15:55:00 | 54.395801 | 7.753984 | 2.0 | 8.611 | 2 | 33.668 | 8.812 | 31.539 | 2 |
| 2025-04-20T15:56:00 | 54.395870 | 7.753526 | 2.0 | 8.607 | 2 | 33.705 | 8.810 | 31.579 | 2 |
| 2025-04-20T15:57:00 | 54.395861 | 7.753220 | 2.0 | 8.606 | 2 | 33.697 | 8.806 | 31.574 | 2 |
| 2025-04-20T15:58:00 | 54.395852 | 7.753111 | 2.0 | 8.606 | 2 | 33.676 | 8.805 | 31.553 | 2 |
| 2025-04-20T15:59:00 | 54.395709 | 7.752911 | 2.0 | 8.614 | 2 | 33.720 | 8.804 | 31.600 | 2 |
| 2025-04-20T16:00:00 | 54.395657 | 7.753015 | 2.0 | 8.608 | 2 | 33.727 | 8.811 | 31.601 | 2 |
| 2025-04-20T16:01:00 | 54.395540 | 7.753150 | 2.0 | 8.613 | 2 | 33.725 | 8.810 | 31.600 | 2 |
| 2025-04-20T16:02:00 | 54.395341 | 7.753171 | 2.0 | 8.619 | 2 | 33.707 | 8.815 | 31.576 | 2 |
| 2025-04-20T16:03:00 | 54.395156 | 7.753143 | 2.0 | 8.627 | 2 | 33.715 | 8.821 | 31.579 | 2 |
| 2025-04-20T16:04:00 | 54.394978 | 7.753050 | 2.0 | 8.630 | 2 | 33.707 | 8.830 | 31.563 | 2 |
| 2025-04-20T16:05:00 | 54.394818 | 7.752972 | 2.0 | 8.630 | 2 | 33.706 | 8.834 | 31.559 | 2 |
| 2025-04-20T16:06:00 | 54.394469 | 7.752619 | 2.0 | 8.636 | 2 | 33.681 | 8.834 | 31.533 | 2 |
| 2025-04-20T16:07:00 | 54.393994 | 7.752578 | 2.0 | 8.641 | 2 | 33.738 | 8.841 | 31.586 | 2 |
| 2025-04-20T16:08:00 | 54.393583 | 7.752986 | 2.0 | 8.641 | 2 | 33.741 | 8.846 | 31.584 | 2 |
| 2025-04-20T16:09:00 | 54.393180 | 7.753528 | 2.0 | 8.648 | 2 | 33.743 | 8.844 | 31.588 | 2 |
| 2025-04-20T16:10:00 | 54.392591 | 7.754257 | 2.0 | 8.653 | 2 | 33.744 | 8.853 | 31.581 | 2 |
| 2025-04-20T16:11:00 | 54.391799 | 7.755088 | 2.0 | 8.653 | 2 | 33.748 | 8.856 | 31.583 | 2 |
| 2025-04-20T16:12:00 | 54.390901 | 7.756040 | 2.0 | 8.644 | 2 | 33.749 | 8.855 | 31.585 | 2 |
| 2025-04-20T16:13:00 | 54.389938 | 7.757082 | 2.0 | 8.633 | 2 | 33.750 | 8.846 | 31.594 | 2 |
| 2025-04-20T16:14:00 | 54.388933 | 7.758152 | 2.0 | 8.653 | 2 | 33.723 | 8.842 | 31.569 | 2 |
| 2025-04-20T16:15:00 | 54.387897 | 7.759257 | 2.0 | 8.670 | 2 | 33.388 | 8.859 | 31.207 | 2 |
| 2025-04-20T16:16:00 | 54.386754 | 7.760453 | 2.0 | 8.691 | 2 | 33.743 | 8.878 | 31.558 | 2 |
| 2025-04-20T16:17:00 | 54.385438 | 7.761734 | 2.0 | 8.674 | 2 | 33.764 | 8.894 | 31.565 | 2 |
| 2025-04-20T16:18:00 | 54.384031 | 7.763169 | 2.0 | 8.683 | 2 | 33.772 | 8.884 | 31.583 | 2 |
| 2025-04-20T16:19:00 | 54.382604 | 7.764784 | 2.0 | 8.689 | 2 | 33.765 | 8.890 | 31.570 | 2 |
| 2025-04-20T16:20:00 | 54.381161 | 7.766433 | 2.0 | 8.683 | 2 | 33.763 | 8.893 | 31.565 | 2 |
| 2025-04-20T16:21:00 | 54.379709 | 7.768000 | 2.0 | 8.659 | 2 | 33.753 | 8.870 | 31.575 | 2 |
| 2025-04-20T16:22:00 | 54.378326 | 7.769509 | 2.0 | 8.657 | 2 | 33.747 | 8.851 | 31.586 | 2 |
| 2025-04-20T16:23:00 | 54.376972 | 7.770986 | 2.0 | 8.659 | 2 | 33.743 | 8.845 | 31.587 | 2 |
| 2025-04-20T16:24:00 | 54.375646 | 7.772469 | 2.0 | 8.663 | 2 | 33.736 | 8.845 | 31.580 | 2 |
| 2025-04-20T16:25:00 | 54.374336 | 7.773975 | 2.0 | 8.675 | 2 | 33.686 | 8.850 | 31.524 | 2 |
| 2025-04-20T16:26:00 | 54.373033 | 7.775509 | 2.0 | 8.671 | 2 | 33.747 | 8.858 | 31.580 | 2 |
| 2025-04-20T16:27:00 | 54.371720 | 7.777004 | 2.0 | 8.665 | 2 | 33.388 | 8.853 | 31.212 | 2 |
| 2025-04-20T16:28:00 | 54.370117 | 7.778356 | 2.0 | 8.678 | 2 | 33.743 | 8.848 | 31.585 | 2 |
| 2025-04-20T16:29:00 | 54.367956 | 7.779203 | 2.0 | 8.694 | 2 | 33.606 | 8.864 | 31.428 | 2 |
| 2025-04-20T16:30:00 | 54.365269 | 7.778985 | 2.0 | 8.688 | 2 | 33.564 | 8.871 | 31.378 | 2 |
| 2025-04-20T16:31:00 | 54.362417 | 7.778194 | 2.0 | 8.681 | 2 | 33.641 | 8.875 | 31.455 | 2 |
| 2025-04-20T16:32:00 | 54.359517 | 7.777396 | 2.0 | 8.658 | 2 | 33.345 | 8.856 | 31.165 | 2 |
| 2025-04-20T16:33:00 | 54.356608 | 7.776525 | 2.0 | 8.647 | 2 | 33.655 | 8.842 | 31.498 | 2 |
| 2025-04-20T16:34:00 | 54.353687 | 7.775817 | 2.0 | 8.646 | 2 | 33.454 | 8.830 | 31.301 | 2 |
| 2025-04-20T16:35:00 | 54.350765 | 7.775034 | 2.0 | 8.637 | 2 | 33.630 | 8.827 | 31.486 | 2 |
| 2025-04-20T16:36:00 | 54.347845 | 7.774256 | 2.0 | 8.631 | 2 | 33.841 | 8.819 | 31.712 | 2 |
| 2025-04-20T16:37:00 | 54.344920 | 7.773392 | 2.0 | 8.621 | 2 | 33.874 | 8.813 | 31.752 | 2 |
| 2025-04-20T16:38:00 | 54.341990 | 7.772579 | 2.0 | 8.587 | 2 | 33.620 | 8.796 | 31.503 | 2 |
| 2025-04-20T16:39:00 | 54.339072 | 7.771787 | 2.0 | 8.557 | 2 | 33.860 | 8.765 | 31.780 | 2 |
| 2025-04-20T16:40:00 | 54.336165 | 7.771059 | 2.0 | 8.544 | 2 | 33.812 | 8.738 | 31.755 | 2 |
| 2025-04-20T16:41:00 | 54.333267 | 7.770253 | 2.0 | 8.539 | 2 | 33.526 | 8.725 | 31.468 | 2 |
| 2025-04-20T16:42:00 | 54.330360 | 7.769479 | 2.0 | 8.568 | 2 | 33.810 | 8.723 | 31.766 | 2 |
| 2025-04-20T16:43:00 | 54.327456 | 7.768693 | 2.0 | 8.606 | 2 | 33.468 | 8.754 | 31.382 | 2 |
| 2025-04-20T16:44:00 | 54.324558 | 7.767909 | 2.0 | 8.617 | 2 | 33.336 | 8.784 | 31.219 | 2 |
| 2025-04-20T16:45:00 | 54.321669 | 7.767093 | 2.0 | 8.631 | 2 | 33.465 | 8.797 | 31.341 | 2 |
| 2025-04-20T16:46:00 | 54.318774 | 7.766303 | 2.0 | 8.649 | 2 | 33.410 | 8.814 | 31.269 | 2 |
| 2025-04-20T16:47:00 | 54.315855 | 7.765575 | 2.0 | 8.649 | 2 | 33.497 | 8.827 | 31.348 | 2 |
| 2025-04-20T16:48:00 | 54.312936 | 7.764702 | 2.0 | 8.657 | 2 | 33.370 | 8.828 | 31.215 | 2 |
| 2025-04-20T16:49:00 | 54.310016 | 7.763945 | 2.0 | 8.669 | 2 | 33.637 | 8.837 | 31.484 | 2 |
| 2025-04-20T16:50:00 | 54.307102 | 7.763059 | 2.0 | 8.674 | 2 | 33.365 | 8.847 | 31.193 | 2 |
| 2025-04-20T16:51:00 | 54.304163 | 7.762313 | 2.0 | 8.677 | 2 | 33.614 | 8.853 | 31.446 | 2 |
| 2025-04-20T16:52:00 | 54.301231 | 7.761531 | 2.0 | 8.648 | 2 | 33.534 | 8.850 | 31.366 | 2 |
| 2025-04-20T16:53:00 | 54.298315 | 7.760661 | 2.0 | 8.611 | 2 | 33.545 | 8.825 | 31.399 | 2 |
| 2025-04-20T16:54:00 | 54.295395 | 7.759888 | 2.0 | 8.594 | 2 | 33.519 | 8.786 | 31.407 | 2 |
| 2025-04-20T16:55:00 | 54.292469 | 7.759094 | 2.0 | 8.565 | 2 | 33.578 | 8.764 | 31.488 | 2 |
| 2025-04-20T16:56:00 | 54.289547 | 7.758282 | 2.0 | 8.566 | 2 | 33.622 | 8.748 | 31.548 | 2 |
| 2025-04-20T16:57:00 | 54.286649 | 7.757486 | 2.0 | 8.542 | 2 | 33.747 | 8.740 | 31.685 | 2 |
| 2025-04-20T16:58:00 | 54.283737 | 7.756713 | 2.0 | 8.530 | 2 | 33.811 | 8.725 | 31.765 | 2 |
| 2025-04-20T16:59:00 | 54.280820 | 7.755887 | 2.0 | 8.528 | 2 | 33.678 | 8.706 | 31.644 | 2 |
| 2025-04-20T17:00:00 | 54.277906 | 7.755083 | 2.0 | 8.525 | 2 | 33.643 | 8.705 | 31.608 | 2 |
| 2025-04-20T17:01:00 | 54.275003 | 7.754342 | 2.0 | 8.538 | 2 | 33.677 | 8.710 | 31.639 | 2 |
| 2025-04-20T17:02:00 | 54.272124 | 7.753477 | 2.0 | 8.535 | 2 | 33.736 | 8.715 | 31.696 | 2 |
| 2025-04-20T17:03:00 | 54.269215 | 7.752722 | 2.0 | 8.544 | 2 | 33.681 | 8.714 | 31.640 | 2 |
| 2025-04-20T17:04:00 | 54.266295 | 7.751942 | 2.0 | 8.540 | 2 | 33.768 | 8.720 | 31.725 | 2 |
| 2025-04-20T17:05:00 | 54.263380 | 7.751121 | 2.0 | 8.510 | 2 | 33.713 | 8.716 | 31.671 | 2 |
| 2025-04-20T17:06:00 | 54.260460 | 7.750331 | 2.0 | 8.469 | 2 | 33.774 | 8.682 | 31.765 | 2 |
| 2025-04-20T17:07:00 | 54.257540 | 7.749477 | 2.0 | 8.450 | 2 | 33.749 | 8.646 | 31.771 | 2 |
| 2025-04-20T17:08:00 | 54.254610 | 7.748725 | 2.0 | 8.437 | 2 | 33.748 | 8.627 | 31.787 | 2 |
| 2025-04-20T17:09:00 | 54.251692 | 7.747928 | 2.0 | 8.444 | 2 | 33.810 | 8.618 | 31.860 | 2 |
| 2025-04-20T17:10:00 | 54.248773 | 7.747079 | 2.0 | 8.449 | 2 | 33.850 | 8.624 | 31.897 | 2 |
| 2025-04-20T17:11:00 | 54.245844 | 7.746225 | 2.0 | 8.451 | 2 | 33.872 | 8.631 | 31.913 | 2 |
| 2025-04-20T17:12:00 | 54.242902 | 7.745529 | 2.0 | 8.423 | 2 | 33.907 | 8.624 | 31.956 | 2 |
| 2025-04-20T17:13:00 | 54.239973 | 7.744725 | 2.0 | 8.409 | 2 | 33.903 | 8.599 | 31.975 | 2 |
| 2025-04-20T17:14:00 | 54.237038 | 7.743879 | 2.0 | 8.429 | 2 | 33.927 | 8.592 | 32.006 | 2 |
| 2025-04-20T17:15:00 | 54.234096 | 7.743166 | 2.0 | 8.456 | 2 | 33.957 | 8.614 | 32.018 | 2 |
| 2025-04-20T17:16:00 | 54.231176 | 7.742288 | 2.0 | 8.441 | 2 | 33.980 | 8.624 | 32.033 | 2 |
| 2025-04-20T17:17:00 | 54.228246 | 7.741543 | 2.0 | 8.443 | 2 | 34.012 | 8.619 | 32.071 | 2 |
| 2025-04-20T17:18:00 | 54.225325 | 7.740742 | 2.0 | 8.494 | 2 | 34.057 | 8.626 | 32.111 | 2 |
| 2025-04-20T17:19:00 | 54.222396 | 7.739986 | 2.0 | 8.434 | 2 | 34.046 | 8.658 | 32.071 | 2 |
| 2025-04-20T17:20:00 | 54.219471 | 7.739157 | 2.0 | 8.420 | 2 | 34.079 | 8.611 | 32.148 | 2 |
| 2025-04-20T17:21:00 | 54.216536 | 7.738337 | 2.0 | 8.429 | 2 | 34.165 | 8.598 | 32.250 | 2 |
| 2025-04-20T17:22:00 | 54.213588 | 7.737605 | 2.0 | 8.446 | 2 | 34.166 | 8.609 | 32.241 | 2 |
| 2025-04-20T17:23:00 | 54.210643 | 7.736707 | 2.0 | 8.454 | 2 | 34.174 | 8.622 | 32.237 | 2 |
| 2025-04-20T17:24:00 | 54.207693 | 7.735943 | 2.0 | 8.426 | 2 | 34.218 | 8.630 | 32.276 | 2 |
| 2025-04-20T17:25:00 | 54.204765 | 7.735124 | 2.0 | 8.432 | 2 | 34.279 | 8.587 | 32.380 | 2 |
| 2025-04-20T17:26:00 | 54.201816 | 7.734382 | 2.0 | 8.474 | 2 | 34.303 | 8.616 | 32.378 | 2 |
| 2025-04-20T17:27:00 | 54.198858 | 7.733521 | 2.0 | 8.405 | 2 | 34.340 | 8.639 | 32.396 | 2 |
| 2025-04-20T17:28:00 | 54.195897 | 7.732639 | 2.0 | 8.299 | 2 | 34.381 | 8.559 | 32.512 | 2 |
| 2025-04-20T17:29:00 | 54.192925 | 7.731941 | 2.0 | 8.324 | 2 | 34.327 | 8.498 | 32.512 | 2 |
| 2025-04-20T17:30:00 | 54.189949 | 7.731191 | 2.0 | 8.337 | 2 | 34.285 | 8.503 | 32.463 | 2 |
| 2025-04-20T17:31:00 | 54.186997 | 7.730279 | 2.0 | 8.344 | 2 | 34.274 | 8.504 | 32.450 | 2 |
| 2025-04-20T17:32:00 | 54.184040 | 7.729507 | 2.0 | 8.394 | 2 | 34.254 | 8.529 | 32.406 | 2 |
| 2025-04-20T17:33:00 | 54.181062 | 7.728732 | 2.0 | 8.424 | 2 | 34.227 | 8.571 | 32.340 | 2 |
| 2025-04-20T17:34:00 | 54.178103 | 7.727906 | 2.0 | 8.433 | 2 | 34.207 | 8.599 | 32.293 | 2 |
| 2025-04-20T17:35:00 | 54.175118 | 7.727102 | 2.0 | 8.417 | 2 | 34.208 | 8.606 | 32.288 | 2 |
| 2025-04-20T17:36:00 | 54.172140 | 7.726314 | 2.0 | 8.417 | 2 | 34.224 | 8.594 | 32.315 | 2 |
| 2025-04-20T17:37:00 | 54.169178 | 7.725460 | 2.0 | 8.415 | 2 | 34.235 | 8.593 | 32.328 | 2 |
| 2025-04-20T17:38:00 | 54.166209 | 7.724781 | 2.0 | 8.397 | 2 | 34.227 | 8.588 | 32.324 | 2 |
| 2025-04-20T17:39:00 | 54.163257 | 7.723884 | 2.0 | 8.398 | 2 | 34.215 | 8.575 | 32.323 | 2 |
| 2025-04-20T17:40:00 | 54.160285 | 7.723667 | 2.0 | 8.420 | 2 | 34.201 | 8.576 | 32.308 | 2 |
| 2025-04-20T17:41:00 | 54.157288 | 7.723797 | 2.0 | 8.458 | 2 | 34.201 | 8.600 | 32.286 | 2 |
| 2025-04-20T17:42:00 | 54.154293 | 7.723877 | 2.0 | 8.467 | 2 | 34.205 | 8.634 | 32.259 | 2 |
| 2025-04-20T17:43:00 | 54.151375 | 7.724745 | 2.0 | 8.476 | 2 | 34.200 | 8.642 | 32.246 | 2 |
| 2025-04-20T17:44:00 | 54.148466 | 7.725707 | 2.0 | 8.472 | 2 | 34.198 | 8.646 | 32.241 | 2 |
| 2025-04-20T17:45:00 | 54.145705 | 7.727321 | 2.0 | 8.479 | 2 | 34.221 | 8.645 | 32.266 | 2 |
| 2025-04-20T17:46:00 | 54.142950 | 7.729158 | 2.0 | 8.419 | 2 | 34.273 | 8.642 | 32.323 | 2 |
| 2025-04-20T17:47:00 | 54.140175 | 7.730953 | 2.0 | 8.397 | 2 | 34.352 | 8.596 | 32.448 | 2 |
| 2025-04-20T17:48:00 | 54.137376 | 7.732719 | 2.0 | 8.418 | 2 | 34.381 | 8.580 | 32.493 | 2 |
| 2025-04-20T17:49:00 | 54.134582 | 7.734551 | 2.0 | 8.421 | 2 | 34.365 | 8.596 | 32.461 | 2 |
| 2025-04-20T17:50:00 | 54.131785 | 7.736375 | 2.0 | 8.409 | 2 | 34.402 | 8.592 | 32.504 | 2 |
| 2025-04-20T17:51:00 | 54.129042 | 7.738358 | 2.0 | 8.391 | 2 | 34.435 | 8.579 | 32.550 | 2 |
| 2025-04-20T17:52:00 | 54.126492 | 7.740889 | 2.0 | 8.402 | 2 | 34.445 | 8.571 | 32.568 | 2 |
| 2025-04-20T17:53:00 | 54.123904 | 7.743434 | 2.0 | 8.250 | 2 | 34.470 | 8.562 | 32.603 | 2 |
| 2025-04-20T17:54:00 | 54.121339 | 7.746076 | 2.0 | 8.148 | 2 | 34.569 | 8.415 | 32.844 | 2 |
| 2025-04-20T17:55:00 | 54.118851 | 7.748887 | 2.0 | 8.098 | 2 | 34.543 | 8.317 | 32.908 | 2 |
| 2025-04-20T17:56:00 | 54.116519 | 7.752002 | 2.0 | 8.125 | 2 | 34.506 | 8.287 | 32.897 | 2 |
| 2025-04-20T17:57:00 | 54.114232 | 7.755236 | 2.0 | 8.125 | 2 | 34.510 | 8.302 | 32.887 | 2 |
| 2025-04-20T17:58:00 | 54.111937 | 7.758441 | 2.0 | 8.142 | 2 | 34.511 | 8.306 | 32.884 | 2 |
| 2025-04-20T17:59:00 | 54.109701 | 7.761722 | 2.0 | 8.137 | 2 | 34.519 | 8.319 | 32.880 | 2 |
| 2025-04-20T18:00:00 | 54.107416 | 7.764933 | 2.0 | 8.125 | 2 | 34.523 | 8.314 | 32.889 | 2 |
| 2025-04-20T18:01:00 | 54.105126 | 7.768180 | 2.0 | 8.105 | 2 | 34.520 | 8.301 | 32.898 | 2 |
| 2025-04-20T18:02:00 | 54.102941 | 7.771548 | 2.0 | 8.121 | 2 | 34.521 | 8.289 | 32.911 | 2 |
| 2025-04-20T18:03:00 | 54.100921 | 7.775223 | 2.0 | 8.131 | 2 | 34.518 | 8.301 | 32.896 | 2 |
| 2025-04-20T18:04:00 | 54.098776 | 7.778757 | 2.0 | 8.115 | 2 | 34.537 | 8.307 | 32.911 | 2 |
| 2025-04-20T18:05:00 | 54.096703 | 7.782344 | 2.0 | 8.104 | 2 | 34.531 | 8.291 | 32.919 | 2 |
| 2025-04-20T18:06:00 | 54.094602 | 7.785855 | 2.0 | 8.124 | 2 | 34.524 | 8.284 | 32.918 | 2 |
| 2025-04-20T18:07:00 | 54.092534 | 7.789428 | 2.0 | 8.142 | 2 | 34.543 | 8.303 | 32.921 | 2 |
| 2025-04-20T18:08:00 | 54.090589 | 7.793137 | 2.0 | 8.362 | 2 | 34.535 | 8.351 | 32.867 | 2 |
| 2025-04-20T18:09:00 | 54.088682 | 7.796916 | 2.0 | 8.401 | 2 | 34.463 | 8.533 | 32.622 | 2 |
| 2025-04-20T18:10:00 | 54.086821 | 7.800756 | 2.0 | 8.500 | 2 | 34.361 | 8.576 | 32.476 | 2 |
| 2025-04-20T18:11:00 | 54.084936 | 7.804549 | 2.0 | 8.686 | 2 | 34.257 | 8.718 | 32.237 | 2 |
| 2025-04-20T18:12:00 | 54.083104 | 7.808390 | 2.0 | 8.607 | 2 | 34.158 | 8.814 | 32.046 | 2 |
| 2025-04-20T18:13:00 | 54.081220 | 7.812212 | 2.0 | 8.739 | 2 | 34.133 | 8.801 | 32.032 | 2 |
| 2025-04-20T18:14:00 | 54.079338 | 7.816022 | 2.0 | 8.851 | 2 | 34.237 | 8.915 | 32.037 | 2 |
| 2025-04-20T18:15:00 | 54.077473 | 7.819871 | 2.0 | 8.865 | 2 | 34.284 | 9.001 | 32.009 | 2 |
| 2025-04-20T18:16:00 | 54.075567 | 7.823655 | 2.0 | 8.944 | 2 | 34.204 | 9.060 | 31.873 | 2 |
| 2025-04-20T18:17:00 | 54.073659 | 7.827457 | 2.0 | 8.868 | 2 | 34.118 | 9.099 | 31.749 | 2 |
| 2025-04-20T18:18:00 | 54.071814 | 7.831330 | 2.0 | 8.870 | 2 | 34.066 | 8.995 | 31.788 | 2 |
| 2025-04-20T18:19:00 | 54.069982 | 7.834962 | 2.0 | 9.154 | 2 | 33.876 | 9.119 | 31.482 | 2 |
| 2025-04-20T18:20:00 | 54.068528 | 7.837846 | 2.0 | 9.198 | 2 | 33.743 | 9.316 | 31.172 | 2 |
| 2025-04-20T18:21:00 | 54.067251 | 7.839716 | 2.0 | 9.214 | 2 | 33.657 | 9.364 | 31.042 | 2 |
| 2025-04-20T18:22:00 | 54.066180 | 7.840695 | 2.0 | 9.212 | 2 | 33.613 | 9.375 | 30.988 | 2 |
| 2025-04-20T18:23:00 | 54.065400 | 7.841535 | 2.0 | 9.210 | 2 | 33.586 | 9.374 | 30.961 | 2 |
| 2025-04-20T18:24:00 | 54.064832 | 7.841646 | 2.0 | 9.210 | 2 | 33.571 | 9.376 | 30.944 | 2 |
| 2025-04-20T18:25:00 | 54.064645 | 7.841505 | 2.0 | 9.219 | 2 | 33.585 | 9.373 | 30.961 | 2 |
| 2025-04-20T18:26:00 | 54.064611 | 7.841482 | 2.0 | 9.215 | 2 | 33.590 | 9.382 | 30.958 | 2 |
| 2025-04-20T18:27:00 | 54.064606 | 7.841526 | 2.0 | 9.219 | 2 | 33.592 | 9.381 | 30.961 | 2 |
| 2025-04-20T18:28:00 | 54.064607 | 7.841608 | 2.0 | 9.225 | 2 | 33.592 | 9.388 | 30.955 | 2 |
| 2025-04-20T18:29:00 | 54.064629 | 7.841696 | 2.0 | 9.216 | 2 | 33.594 | 9.390 | 30.956 | 2 |
| 2025-04-20T18:30:00 | 54.064665 | 7.841809 | 2.0 | 9.216 | 2 | 33.597 | 9.378 | 30.969 | 2 |
| 2025-04-20T18:31:00 | 54.064708 | 7.841924 | 2.0 | 9.210 | 2 | 33.596 | 9.383 | 30.964 | 2 |
| 2025-04-20T18:32:00 | 54.064747 | 7.842049 | 2.0 | 9.210 | 2 | 33.597 | 9.377 | 30.970 | 2 |
| 2025-04-20T18:33:00 | 54.064641 | 7.842161 | 2.0 | 9.202 | 2 | 33.598 | 9.373 | 30.974 | 2 |
| 2025-04-20T18:34:00 | 54.064435 | 7.841865 | 2.0 | 9.243 | 2 | 33.594 | 9.380 | 30.964 | 2 |
| 2025-04-20T18:35:00 | 54.064297 | 7.840682 | 2.0 | 9.233 | 2 | 33.591 | 9.402 | 30.942 | 2 |
| 2025-04-20T18:36:00 | 54.064260 | 7.838563 | 2.0 | 9.201 | 2 | 33.596 | 9.393 | 30.955 | 2 |
| 2025-04-20T18:37:00 | 54.064190 | 7.835977 | 2.0 | 9.187 | 2 | 33.598 | 9.363 | 30.983 | 2 |
| 2025-04-20T18:38:00 | 54.064057 | 7.833257 | 2.0 | 9.170 | 2 | 33.630 | 9.356 | 31.022 | 2 |
| 2025-04-20T18:39:00 | 54.064070 | 7.830710 | 2.0 | 9.071 | 2 | 33.708 | 9.319 | 31.134 | 2 |
| 2025-04-20T18:40:00 | 54.064037 | 7.828470 | 2.0 | 9.076 | 2 | 33.760 | 9.234 | 31.261 | 2 |
| 2025-04-20T18:41:00 | 54.063945 | 7.826370 | 2.0 | 9.051 | 2 | 33.801 | 9.229 | 31.308 | 2 |
| 2025-04-20T18:42:00 | 54.063919 | 7.824245 | 2.0 | 9.031 | 2 | 33.834 | 9.215 | 31.354 | 2 |
| 2025-04-20T18:43:00 | 54.063900 | 7.822076 | 2.0 | 9.019 | 2 | 33.860 | 9.196 | 31.397 | 2 |
| 2025-04-20T18:44:00 | 54.063885 | 7.819832 | 2.0 | 9.010 | 2 | 33.901 | 9.187 | 31.447 | 2 |
| 2025-04-20T18:45:00 | 54.063840 | 7.817562 | 2.0 | 8.993 | 2 | 33.954 | 9.175 | 31.513 | 2 |
| 2025-04-20T18:46:00 | 54.063801 | 7.815265 | 2.0 | 8.954 | 2 | 34.016 | 9.157 | 31.592 | 2 |
| 2025-04-20T18:47:00 | 54.063778 | 7.812952 | 2.0 | 8.903 | 2 | 34.067 | 9.117 | 31.680 | 2 |
| 2025-04-20T18:48:00 | 54.063790 | 7.810635 | 2.0 | 8.843 | 2 | 34.110 | 9.065 | 31.771 | 2 |
| 2025-04-20T18:49:00 | 54.063799 | 7.808326 | 2.0 | 8.809 | 2 | 34.129 | 9.008 | 31.842 | 2 |
| 2025-04-20T18:50:00 | 54.063814 | 7.806018 | 2.0 | 8.793 | 2 | 34.150 | 8.980 | 31.889 | 2 |
| 2025-04-20T18:51:00 | 54.063806 | 7.803698 | 2.0 | 8.755 | 2 | 34.168 | 8.959 | 31.926 | 2 |
| 2025-04-20T18:52:00 | 54.063751 | 7.801344 | 2.0 | 8.726 | 2 | 34.172 | 8.922 | 31.964 | 2 |
| 2025-04-20T18:53:00 | 54.063692 | 7.798993 | 2.0 | 8.720 | 2 | 34.181 | 8.897 | 31.995 | 2 |
| 2025-04-20T18:54:00 | 54.063691 | 7.796632 | 2.0 | 8.682 | 2 | 34.210 | 8.889 | 32.033 | 2 |
| 2025-04-20T18:55:00 | 54.063633 | 7.794286 | 2.0 | 8.638 | 2 | 34.232 | 8.845 | 32.095 | 2 |
| 2025-04-20T18:56:00 | 54.063558 | 7.791922 | 2.0 | 8.589 | 2 | 34.253 | 8.802 | 32.156 | 2 |
| 2025-04-20T18:57:00 | 54.063620 | 7.789565 | 2.0 | 8.568 | 2 | 34.268 | 8.760 | 32.210 | 2 |
| 2025-04-20T18:58:00 | 54.064077 | 7.787383 | 2.0 | 8.553 | 2 | 34.293 | 8.738 | 32.256 | 2 |
| 2025-04-20T18:59:00 | 54.064587 | 7.785274 | 2.0 | 8.525 | 2 | 34.328 | 8.721 | 32.308 | 2 |
| 2025-04-20T19:00:00 | 54.064923 | 7.783096 | 2.0 | 8.496 | 2 | 34.347 | 8.693 | 32.354 | 2 |
| 2025-04-20T19:01:00 | 54.065036 | 7.780866 | 2.0 | 8.458 | 2 | 34.350 | 8.661 | 32.386 | 2 |
| 2025-04-20T19:02:00 | 54.065020 | 7.778594 | 2.0 | 8.446 | 2 | 34.354 | 8.630 | 32.419 | 2 |
| 2025-04-20T19:03:00 | 54.064822 | 7.776389 | 2.0 | 8.450 | 2 | 34.357 | 8.620 | 32.431 | 2 |
| 2025-04-20T19:04:00 | 54.064294 | 7.774374 | 2.0 | 8.464 | 2 | 34.382 | 8.628 | 32.450 | 2 |
| 2025-04-20T19:05:00 | 54.063724 | 7.772283 | 2.0 | 8.266 | 2 | 34.415 | 8.611 | 32.500 | 2 |
| 2025-04-20T19:06:00 | 54.063421 | 7.770012 | 2.0 | 8.195 | 2 | 34.374 | 8.416 | 32.637 | 2 |
| 2025-04-20T19:07:00 | 54.063463 | 7.767675 | 2.0 | 8.250 | 2 | 34.362 | 8.380 | 32.658 | 2 |
| 2025-04-20T19:08:00 | 54.063424 | 7.765331 | 2.0 | 8.282 | 2 | 34.381 | 8.435 | 32.627 | 2 |
| 2025-04-20T19:09:00 | 54.063368 | 7.762962 | 2.0 | 8.278 | 2 | 34.383 | 8.452 | 32.613 | 2 |
| 2025-04-20T19:10:00 | 54.063334 | 7.760552 | 2.0 | 8.311 | 2 | 34.390 | 8.455 | 32.618 | 2 |
| 2025-04-20T19:11:00 | 54.063279 | 7.758133 | 2.0 | 8.319 | 2 | 34.422 | 8.487 | 32.622 | 2 |
| 2025-04-20T19:12:00 | 54.063417 | 7.755751 | 2.0 | 8.318 | 2 | 34.444 | 8.486 | 32.646 | 2 |
| 2025-04-20T19:13:00 | 54.063767 | 7.753417 | 2.0 | 8.317 | 2 | 34.456 | 8.491 | 32.654 | 2 |
| 2025-04-20T19:14:00 | 54.064062 | 7.751030 | 2.0 | 8.299 | 2 | 34.461 | 8.483 | 32.667 | 2 |
| 2025-04-20T19:15:00 | 54.064348 | 7.748580 | 2.0 | 8.292 | 2 | 34.455 | 8.470 | 32.672 | 2 |
| 2025-04-20T19:16:00 | 54.064709 | 7.746122 | 2.0 | 8.282 | 2 | 34.457 | 8.464 | 32.680 | 2 |
| 2025-04-20T19:17:00 | 54.064980 | 7.743744 | 2.0 | 8.262 | 2 | 34.461 | 8.450 | 32.697 | 2 |
| 2025-04-20T19:18:00 | 54.064841 | 7.741519 | 2.0 | 8.243 | 2 | 34.464 | 8.430 | 32.719 | 2 |
| 2025-04-20T19:19:00 | 54.064195 | 7.739698 | 2.0 | 8.236 | 2 | 34.460 | 8.414 | 32.730 | 2 |
| 2025-04-20T19:20:00 | 54.063417 | 7.737876 | 2.0 | 8.157 | 2 | 34.459 | 8.405 | 32.737 | 2 |
| 2025-04-20T19:21:00 | 54.062904 | 7.735781 | 2.0 | 8.185 | 2 | 34.436 | 8.315 | 32.796 | 2 |
| 2025-04-20T19:22:00 | 54.062952 | 7.733503 | 2.0 | 8.198 | 2 | 34.445 | 8.358 | 32.766 | 2 |
| 2025-04-20T19:23:00 | 54.063004 | 7.731244 | 2.0 | 8.170 | 2 | 34.462 | 8.367 | 32.775 | 2 |
| 2025-04-20T19:24:00 | 54.062886 | 7.728946 | 2.0 | 8.176 | 2 | 34.453 | 8.345 | 32.786 | 2 |
| 2025-04-20T19:25:00 | 54.062915 | 7.726568 | 2.0 | 8.118 | 2 | 34.467 | 8.336 | 32.810 | 2 |
| 2025-04-20T19:26:00 | 54.062956 | 7.724171 | 2.0 | 8.098 | 2 | 34.311 | 8.290 | 32.687 | 2 |
| 2025-04-20T19:27:00 | 54.062923 | 7.721784 | 2.0 | 8.197 | 2 | 34.453 | 8.302 | 32.826 | 2 |
| 2025-04-20T19:28:00 | 54.062884 | 7.719372 | 2.0 | 8.210 | 2 | 34.531 | 8.367 | 32.848 | 2 |
| 2025-04-20T19:29:00 | 54.062370 | 7.717379 | 2.0 | 8.228 | 2 | 34.539 | 8.381 | 32.844 | 2 |
| 2025-04-20T19:30:00 | 54.061982 | 7.715287 | 2.0 | 8.240 | 2 | 34.533 | 8.399 | 32.820 | 2 |
| 2025-04-20T19:31:00 | 54.062808 | 7.714282 | 2.0 | 8.240 | 2 | 34.364 | 8.410 | 32.632 | 2 |
| 2025-04-20T19:32:00 | 54.063424 | 7.715569 | 2.0 | 8.228 | 2 | 34.532 | 8.409 | 32.810 | 2 |
| 2025-04-20T19:33:00 | 54.063477 | 7.717881 | 2.0 | 8.199 | 2 | 34.538 | 8.394 | 32.830 | 2 |
| 2025-04-20T19:34:00 | 54.063708 | 7.720472 | 2.0 | 8.125 | 2 | 33.897 | 8.366 | 32.180 | 2 |
| 2025-04-20T19:35:00 | 54.063764 | 7.722945 | 2.0 | 8.146 | 2 | 34.433 | 8.297 | 32.810 | 2 |
| 2025-04-20T19:36:00 | 54.063768 | 7.725241 | 2.0 | 8.176 | 2 | 34.229 | 8.325 | 32.568 | 2 |
| 2025-04-20T19:37:00 | 54.063856 | 7.727437 | 2.0 | 8.199 | 2 | 34.448 | 8.348 | 32.778 | 2 |
| 2025-04-20T19:38:00 | 54.063921 | 7.729661 | 2.0 | 8.211 | 2 | 34.287 | 8.374 | 32.584 | 2 |
| 2025-04-20T19:39:00 | 54.063925 | 7.731944 | 2.0 | 8.204 | 2 | 34.273 | 8.374 | 32.569 | 2 |
| 2025-04-20T19:40:00 | 54.063950 | 7.734258 | 2.0 | 8.211 | 2 | 34.309 | 8.368 | 32.613 | 2 |
| 2025-04-20T19:41:00 | 54.064042 | 7.736581 | 2.0 | 8.245 | 2 | 34.128 | 8.391 | 32.401 | 2 |
| 2025-04-20T19:42:00 | 54.064151 | 7.738918 | 2.0 | 8.280 | 2 | 34.191 | 8.419 | 32.441 | 2 |
| 2025-04-20T19:43:00 | 54.064154 | 7.741264 | 2.0 | 8.303 | 2 | 34.274 | 8.454 | 32.497 | 2 |
| 2025-04-20T19:44:00 | 54.064102 | 7.743627 | 2.0 | 8.296 | 2 | 34.311 | 8.466 | 32.524 | 2 |
| 2025-04-20T19:45:00 | 54.064091 | 7.746012 | 2.0 | 8.290 | 2 | 34.298 | 8.464 | 32.513 | 2 |
| 2025-04-20T19:46:00 | 54.064132 | 7.748412 | 2.0 | 8.278 | 2 | 34.266 | 8.463 | 32.480 | 2 |
| 2025-04-20T19:47:00 | 54.064166 | 7.750831 | 2.0 | 8.247 | 2 | 34.100 | 8.440 | 32.326 | 2 |
| 2025-04-20T19:48:00 | 54.064200 | 7.753257 | 2.0 | 8.296 | 2 | 34.127 | 8.432 | 32.362 | 2 |
| 2025-04-20T19:49:00 | 54.064211 | 7.755694 | 2.0 | 8.300 | 2 | 34.104 | 8.463 | 32.309 | 2 |
| 2025-04-20T19:50:00 | 54.064205 | 7.758134 | 2.0 | 8.342 | 2 | 34.210 | 8.477 | 32.408 | 2 |
| 2025-04-20T19:51:00 | 54.064232 | 7.760570 | 2.0 | 8.292 | 2 | 34.190 | 8.499 | 32.367 | 2 |
| 2025-04-20T19:52:00 | 54.064293 | 7.763001 | 2.0 | 8.370 | 2 | 34.209 | 8.471 | 32.413 | 2 |
| 2025-04-20T19:53:00 | 54.064337 | 7.765452 | 2.0 | 8.446 | 2 | 34.211 | 8.532 | 32.359 | 2 |
| 2025-04-20T19:54:00 | 54.064344 | 7.767909 | 2.0 | 8.503 | 2 | 34.136 | 8.619 | 32.200 | 2 |
| 2025-04-20T19:55:00 | 54.064333 | 7.770371 | 2.0 | 8.524 | 2 | 34.032 | 8.673 | 32.043 | 2 |
| 2025-04-20T19:56:00 | 54.064354 | 7.772821 | 2.0 | 8.585 | 2 | 34.185 | 8.702 | 32.176 | 2 |
| 2025-04-20T19:57:00 | 54.064449 | 7.775262 | 2.0 | 8.643 | 2 | 34.070 | 8.758 | 32.005 | 2 |
| 2025-04-20T19:58:00 | 54.064368 | 7.777716 | 2.0 | 8.693 | 2 | 34.131 | 8.817 | 32.016 | 2 |
| 2025-04-20T19:59:00 | 54.064367 | 7.780166 | 2.0 | 8.723 | 2 | 34.129 | 8.862 | 31.973 | 2 |
| 2025-04-20T20:00:00 | 54.064444 | 7.782626 | 2.0 | 8.758 | 2 | 34.007 | 8.894 | 31.817 | 2 |
| 2025-04-20T20:01:00 | 54.064439 | 7.785108 | 2.0 | 8.783 | 2 | 34.118 | 8.925 | 31.905 | 2 |
| 2025-04-20T20:02:00 | 54.064384 | 7.787584 | 2.0 | 8.828 | 2 | 34.061 | 8.954 | 31.820 | 2 |
| 2025-04-20T20:03:00 | 54.064372 | 7.790067 | 2.0 | 8.878 | 2 | 34.035 | 9.000 | 31.752 | 2 |
| 2025-04-20T20:04:00 | 54.064406 | 7.792540 | 2.0 | 8.898 | 2 | 33.936 | 9.046 | 31.608 | 2 |
| 2025-04-20T20:05:00 | 54.064457 | 7.794941 | 2.0 | 8.926 | 2 | 33.887 | 9.064 | 31.542 | 2 |
| 2025-04-20T20:06:00 | 54.064476 | 7.797260 | 2.0 | 8.922 | 2 | 33.740 | 9.091 | 31.366 | 2 |
| 2025-04-20T20:07:00 | 54.064470 | 7.799482 | 2.0 | 8.923 | 2 | 33.726 | 9.080 | 31.362 | 2 |
| 2025-04-20T20:08:00 | 54.064551 | 7.801507 | 2.0 | 8.974 | 2 | 33.647 | 9.101 | 31.262 | 2 |
| 2025-04-20T20:09:00 | 54.064572 | 7.803321 | 2.0 | 9.048 | 2 | 33.640 | 9.149 | 31.212 | 2 |
| 2025-04-20T20:10:00 | 54.064548 | 7.804928 | 2.0 | 9.093 | 2 | 33.534 | 9.222 | 31.040 | 2 |
| 2025-04-20T20:11:00 | 54.064566 | 7.806392 | 2.0 | 9.099 | 2 | 33.509 | 9.254 | 30.986 | 2 |
| 2025-04-20T20:12:00 | 54.064588 | 7.807768 | 2.0 | 9.129 | 2 | 33.506 | 9.268 | 30.971 | 2 |
| 2025-04-20T20:13:00 | 54.064651 | 7.809077 | 2.0 | 9.146 | 2 | 33.440 | 9.298 | 30.878 | 2 |
| 2025-04-20T20:14:00 | 54.064619 | 7.810383 | 2.0 | 9.209 | 2 | 33.340 | 9.314 | 30.761 | 2 |
| 2025-04-20T20:15:00 | 54.064676 | 7.811699 | 2.0 | 9.273 | 2 | 33.492 | 9.381 | 30.859 | 2 |
| 2025-04-20T20:16:00 | 54.064629 | 7.813055 | 2.0 | 9.301 | 2 | 33.465 | 9.440 | 30.781 | 2 |
| 2025-04-20T20:17:00 | 54.064692 | 7.814432 | 2.0 | 9.311 | 2 | 33.456 | 9.464 | 30.751 | 2 |
| 2025-04-20T20:18:00 | 54.064666 | 7.815828 | 2.0 | 9.313 | 2 | 33.454 | 9.474 | 30.740 | 2 |
| 2025-04-20T20:19:00 | 54.064634 | 7.817247 | 2.0 | 9.314 | 2 | 33.448 | 9.476 | 30.733 | 2 |
| 2025-04-20T20:20:00 | 54.064645 | 7.818681 | 2.0 | 9.303 | 2 | 33.446 | 9.475 | 30.731 | 2 |
| 2025-04-20T20:21:00 | 54.064688 | 7.820122 | 2.0 | 9.288 | 2 | 33.433 | 9.465 | 30.727 | 2 |
| 2025-04-20T20:22:00 | 54.064718 | 7.821563 | 2.0 | 9.263 | 2 | 33.390 | 9.449 | 30.697 | 2 |
| 2025-04-20T20:23:00 | 54.064771 | 7.823091 | 2.0 | 9.282 | 2 | 33.316 | 9.431 | 30.637 | 2 |
| 2025-04-20T20:24:00 | 54.064812 | 7.824988 | 2.0 | 9.310 | 2 | 33.268 | 9.447 | 30.574 | 2 |
| 2025-04-20T20:25:00 | 54.064812 | 7.827384 | 2.0 | 9.355 | 2 | 33.238 | 9.482 | 30.514 | 2 |
| 2025-04-20T20:26:00 | 54.064853 | 7.830090 | 2.0 | 9.380 | 2 | 33.205 | 9.521 | 30.447 | 2 |
| 2025-04-20T20:27:00 | 54.064468 | 7.832663 | 2.0 | 9.391 | 2 | 33.153 | 9.542 | 30.376 | 2 |
| 2025-04-20T20:28:00 | 54.065101 | 7.833764 | 2.0 | 9.391 | 2 | 33.117 | 9.552 | 30.331 | 2 |
| 2025-04-20T20:29:00 | 54.065732 | 7.832637 | 2.0 | 9.385 | 2 | 33.085 | 9.553 | 30.298 | 2 |
| 2025-04-20T20:30:00 | 54.065899 | 7.830613 | 2.0 | 9.381 | 2 | 33.095 | 9.547 | 30.313 | 2 |
| 2025-04-20T20:31:00 | 54.065809 | 7.828113 | 2.0 | 9.369 | 2 | 33.123 | 9.543 | 30.345 | 2 |
| 2025-04-20T20:32:00 | 54.065784 | 7.825484 | 2.0 | 9.360 | 2 | 33.144 | 9.532 | 30.376 | 2 |
| 2025-04-20T20:33:00 | 54.065817 | 7.823038 | 2.0 | 9.349 | 2 | 33.171 | 9.525 | 30.409 | 2 |
| 2025-04-20T20:34:00 | 54.065785 | 7.820784 | 2.0 | 9.304 | 2 | 33.201 | 9.506 | 30.456 | 2 |
| 2025-04-20T20:35:00 | 54.065711 | 7.818654 | 2.0 | 9.293 | 2 | 33.237 | 9.469 | 30.524 | 2 |
| 2025-04-20T20:36:00 | 54.065655 | 7.816548 | 2.0 | 9.293 | 2 | 33.333 | 9.459 | 30.630 | 2 |
| 2025-04-20T20:37:00 | 54.065629 | 7.814454 | 2.0 | 9.283 | 2 | 33.366 | 9.457 | 30.665 | 2 |
| 2025-04-20T20:38:00 | 54.065609 | 7.812403 | 2.0 | 9.305 | 2 | 33.387 | 9.450 | 30.693 | 2 |
| 2025-04-20T20:39:00 | 54.065620 | 7.810383 | 2.0 | 9.327 | 2 | 33.428 | 9.475 | 30.713 | 2 |
| 2025-04-20T20:40:00 | 54.065615 | 7.808381 | 2.0 | 9.319 | 2 | 33.443 | 9.489 | 30.716 | 2 |
| 2025-04-20T20:41:00 | 54.065606 | 7.806379 | 2.0 | 9.297 | 2 | 33.444 | 9.481 | 30.724 | 2 |
| 2025-04-20T20:42:00 | 54.065597 | 7.804346 | 2.0 | 9.260 | 2 | 33.392 | 9.454 | 30.694 | 2 |
| 2025-04-20T20:43:00 | 54.065569 | 7.802194 | 2.0 | 9.249 | 2 | 33.452 | 9.422 | 30.783 | 2 |
| 2025-04-20T20:44:00 | 54.065534 | 7.800005 | 2.0 | 9.202 | 2 | 33.480 | 9.410 | 30.822 | 2 |
| 2025-04-20T20:45:00 | 54.065504 | 7.797767 | 2.0 | 9.170 | 2 | 33.521 | 9.365 | 30.903 | 2 |
| 2025-04-20T20:46:00 | 54.065461 | 7.795528 | 2.0 | 9.124 | 2 | 33.185 | 9.327 | 30.592 | 2 |
| 2025-04-20T20:47:00 | 54.065429 | 7.793267 | 2.0 | 9.108 | 2 | 33.177 | 9.292 | 30.614 | 2 |
| 2025-04-20T20:48:00 | 54.065412 | 7.790987 | 2.0 | 9.082 | 2 | 33.548 | 9.272 | 31.011 | 2 |
| 2025-04-20T20:49:00 | 54.065398 | 7.788690 | 2.0 | 9.012 | 2 | 33.623 | 9.236 | 31.119 | 2 |
| 2025-04-20T20:50:00 | 54.065376 | 7.786386 | 2.0 | 8.963 | 2 | 33.648 | 9.172 | 31.200 | 2 |
| 2025-04-20T20:51:00 | 54.065330 | 7.784094 | 2.0 | 8.931 | 2 | 33.681 | 9.120 | 31.280 | 2 |
| 2025-04-20T20:52:00 | 54.065319 | 7.781772 | 2.0 | 8.910 | 2 | 33.751 | 9.092 | 31.377 | 2 |
| 2025-04-20T20:53:00 | 54.065264 | 7.779465 | 2.0 | 8.933 | 2 | 33.785 | 9.092 | 31.412 | 2 |
| 2025-04-20T20:54:00 | 54.065257 | 7.777163 | 2.0 | 8.922 | 2 | 33.873 | 9.097 | 31.498 | 2 |
| 2025-04-20T20:55:00 | 54.065271 | 7.774879 | 2.0 | 8.908 | 2 | 33.914 | 9.088 | 31.548 | 2 |
| 2025-04-20T20:56:00 | 54.065222 | 7.772625 | 2.0 | 8.890 | 2 | 33.883 | 9.074 | 31.529 | 2 |
| 2025-04-20T20:57:00 | 54.065202 | 7.770375 | 2.0 | 8.847 | 2 | 33.823 | 9.051 | 31.487 | 2 |
| 2025-04-20T20:58:00 | 54.065179 | 7.768103 | 2.0 | 8.792 | 2 | 33.879 | 9.012 | 31.580 | 2 |
| 2025-04-20T20:59:00 | 54.065127 | 7.765798 | 2.0 | 8.755 | 2 | 33.749 | 8.957 | 31.494 | 2 |
| 2025-04-20T21:00:00 | 54.065117 | 7.763473 | 2.0 | 8.718 | 2 | 34.087 | 8.921 | 31.876 | 2 |
| 2025-04-20T21:01:00 | 54.065115 | 7.761150 | 2.0 | 8.672 | 2 | 34.191 | 8.879 | 32.022 | 2 |
| 2025-04-20T21:02:00 | 54.065095 | 7.758800 | 2.0 | 8.658 | 2 | 34.025 | 8.843 | 31.882 | 2 |
| 2025-04-20T21:03:00 | 54.065073 | 7.756441 | 2.0 | 8.609 | 2 | 34.006 | 8.819 | 31.884 | 2 |
| 2025-04-20T21:04:00 | 54.065031 | 7.754082 | 2.0 | 8.572 | 2 | 34.069 | 8.774 | 31.990 | 2 |
| 2025-04-20T21:05:00 | 54.064968 | 7.751714 | 2.0 | 8.537 | 2 | 34.106 | 8.743 | 32.056 | 2 |
| 2025-04-20T21:06:00 | 54.064967 | 7.749342 | 2.0 | 8.509 | 2 | 34.072 | 8.706 | 32.055 | 2 |
| 2025-04-20T21:07:00 | 54.065021 | 7.746969 | 2.0 | 8.476 | 2 | 33.987 | 8.674 | 31.995 | 2 |
| 2025-04-20T21:08:00 | 54.065045 | 7.744614 | 2.0 | 8.450 | 2 | 34.010 | 8.644 | 32.046 | 2 |
| 2025-04-20T21:09:00 | 54.065002 | 7.742303 | 2.0 | 8.414 | 2 | 34.181 | 8.617 | 32.249 | 2 |
| 2025-04-20T21:10:00 | 54.064883 | 7.740007 | 2.0 | 8.372 | 2 | 34.083 | 8.579 | 32.181 | 2 |
| 2025-04-20T21:11:00 | 54.064808 | 7.737690 | 2.0 | 8.364 | 2 | 34.157 | 8.542 | 32.293 | 2 |
| 2025-04-20T21:12:00 | 54.064792 | 7.735373 | 2.0 | 8.369 | 2 | 34.325 | 8.539 | 32.472 | 2 |
| 2025-04-20T21:13:00 | 54.064788 | 7.733049 | 2.0 | 8.370 | 2 | 34.191 | 8.540 | 32.330 | 2 |
| 2025-04-20T21:14:00 | 54.064732 | 7.730722 | 2.0 | 8.330 | 2 | 34.211 | 8.533 | 32.358 | 2 |
| 2025-04-20T21:15:00 | 54.064719 | 7.728367 | 2.0 | 8.313 | 2 | 34.349 | 8.501 | 32.532 | 2 |
| 2025-04-20T21:16:00 | 54.064724 | 7.725995 | 2.0 | 8.314 | 2 | 34.168 | 8.484 | 32.357 | 2 |
| 2025-04-20T21:17:00 | 54.064710 | 7.723631 | 2.0 | 8.319 | 2 | 34.215 | 8.486 | 32.405 | 2 |
| 2025-04-20T21:18:00 | 54.064642 | 7.721286 | 2.0 | 8.318 | 2 | 34.283 | 8.490 | 32.473 | 2 |
| 2025-04-20T21:19:00 | 54.064434 | 7.718986 | 2.0 | 8.277 | 2 | 34.237 | 8.482 | 32.432 | 2 |
| 2025-04-20T21:20:00 | 54.063710 | 7.716743 | 2.0 | 8.276 | 2 | 34.301 | 8.444 | 32.534 | 2 |
| 2025-04-20T21:21:00 | 54.064326 | 7.715257 | 2.0 | 8.268 | 2 | 34.286 | 8.445 | 32.517 | 2 |
| 2025-04-20T21:22:00 | 54.065024 | 7.716501 | 2.0 | 8.286 | 2 | 34.314 | 8.441 | 32.551 | 2 |
| 2025-04-20T21:23:00 | 54.065298 | 7.719009 | 2.0 | 8.306 | 2 | 34.361 | 8.460 | 32.583 | 2 |
| 2025-04-20T21:24:00 | 54.065546 | 7.721433 | 2.0 | 8.322 | 2 | 34.340 | 8.481 | 32.541 | 2 |
| 2025-04-20T21:25:00 | 54.065543 | 7.723696 | 2.0 | 8.327 | 2 | 34.369 | 8.494 | 32.560 | 2 |
| 2025-04-20T21:26:00 | 54.065555 | 7.725848 | 2.0 | 8.322 | 2 | 34.366 | 8.497 | 32.554 | 2 |
| 2025-04-20T21:27:00 | 54.065660 | 7.727920 | 2.0 | 8.308 | 2 | 34.284 | 8.489 | 32.475 | 2 |
| 2025-04-20T21:28:00 | 54.065703 | 7.729948 | 2.0 | 8.322 | 2 | 34.287 | 8.479 | 32.487 | 2 |
| 2025-04-20T21:29:00 | 54.065714 | 7.731942 | 2.0 | 8.388 | 2 | 34.300 | 8.504 | 32.478 | 2 |
| 2025-04-20T21:30:00 | 54.065787 | 7.733912 | 2.0 | 8.394 | 2 | 34.194 | 8.553 | 32.322 | 2 |
| 2025-04-20T21:31:00 | 54.065762 | 7.735898 | 2.0 | 8.402 | 2 | 34.178 | 8.563 | 32.296 | 2 |
| 2025-04-20T21:32:00 | 54.065690 | 7.737973 | 2.0 | 8.416 | 2 | 34.186 | 8.573 | 32.295 | 2 |
| 2025-04-20T21:33:00 | 54.065687 | 7.740140 | 2.0 | 8.425 | 2 | 34.218 | 8.584 | 32.318 | 2 |
| 2025-04-20T21:34:00 | 54.065681 | 7.742350 | 2.0 | 8.470 | 2 | 34.203 | 8.599 | 32.289 | 2 |
| 2025-04-20T21:35:00 | 54.065716 | 7.744568 | 2.0 | 8.510 | 2 | 34.182 | 8.646 | 32.224 | 2 |
| 2025-04-20T21:36:00 | 54.065798 | 7.746803 | 2.0 | 8.555 | 2 | 34.130 | 8.682 | 32.137 | 2 |
| 2025-04-20T21:37:00 | 54.065840 | 7.749074 | 2.0 | 8.608 | 2 | 34.163 | 8.729 | 32.129 | 2 |
| 2025-04-20T21:38:00 | 54.065836 | 7.751362 | 2.0 | 8.659 | 2 | 34.122 | 8.780 | 32.040 | 2 |
| 2025-04-20T21:39:00 | 54.065871 | 7.753640 | 2.0 | 8.717 | 2 | 34.124 | 8.835 | 31.992 | 2 |
| 2025-04-20T21:40:00 | 54.065933 | 7.755906 | 2.0 | 8.729 | 2 | 34.097 | 8.873 | 31.930 | 2 |
| 2025-04-20T21:41:00 | 54.065948 | 7.758199 | 2.0 | 8.770 | 2 | 34.052 | 8.905 | 31.854 | 2 |
| 2025-04-20T21:42:00 | 54.065963 | 7.760490 | 2.0 | 8.817 | 2 | 33.987 | 8.944 | 31.752 | 2 |
| 2025-04-20T21:43:00 | 54.065990 | 7.762766 | 2.0 | 8.887 | 2 | 33.922 | 8.989 | 31.645 | 2 |
| 2025-04-20T21:44:00 | 54.066034 | 7.765031 | 2.0 | 8.868 | 2 | 33.889 | 9.041 | 31.564 | 2 |
| 2025-04-20T21:45:00 | 54.066039 | 7.767289 | 2.0 | 8.880 | 2 | 33.786 | 9.038 | 31.460 | 2 |
| 2025-04-20T21:46:00 | 54.066036 | 7.769538 | 2.0 | 8.942 | 2 | 33.681 | 9.050 | 31.341 | 2 |
| 2025-04-20T21:47:00 | 54.066069 | 7.771789 | 2.0 | 8.980 | 2 | 33.629 | 9.110 | 31.235 | 2 |
| 2025-04-20T21:48:00 | 54.066099 | 7.774029 | 2.0 | 9.031 | 2 | 33.581 | 9.149 | 31.152 | 2 |
| 2025-04-20T21:49:00 | 54.066149 | 7.776253 | 2.0 | 9.088 | 2 | 33.543 | 9.203 | 31.066 | 2 |
| 2025-04-20T21:50:00 | 54.066124 | 7.778494 | 2.0 | 9.189 | 2 | 33.494 | 9.266 | 30.961 | 2 |
| 2025-04-20T21:51:00 | 54.066043 | 7.780705 | 2.0 | 9.263 | 2 | 33.430 | 9.360 | 30.814 | 2 |
| 2025-04-20T21:52:00 | 54.066187 | 7.782854 | 2.0 | 9.290 | 2 | 33.417 | 9.429 | 30.741 | 2 |
| 2025-04-20T21:53:00 | 54.066162 | 7.785016 | 2.0 | 9.288 | 2 | 33.413 | 9.444 | 30.724 | 2 |
| 2025-04-20T21:54:00 | 54.066268 | 7.787153 | 2.0 | 9.305 | 2 | 33.394 | 9.457 | 30.694 | 2 |
| 2025-04-20T21:55:00 | 54.066297 | 7.789305 | 2.0 | 9.304 | 2 | 33.336 | 9.459 | 30.633 | 2 |
| 2025-04-20T21:56:00 | 54.066336 | 7.791466 | 2.0 | 9.314 | 2 | 33.245 | 9.467 | 30.534 | 2 |
| 2025-04-20T21:57:00 | 54.066315 | 7.793607 | 2.0 | 9.337 | 2 | 33.166 | 9.478 | 30.444 | 2 |
| 2025-04-20T21:58:00 | 54.066353 | 7.795748 | 2.0 | 9.367 | 2 | 33.123 | 9.506 | 30.376 | 2 |
| 2025-04-20T21:59:00 | 54.066371 | 7.797911 | 2.0 | 9.384 | 2 | 33.097 | 9.529 | 30.331 | 2 |
| 2025-04-20T22:00:00 | 54.066453 | 7.800074 | 2.0 | 9.388 | 2 | 33.085 | 9.546 | 30.304 | 2 |
| 2025-04-20T22:01:00 | 54.066392 | 7.802247 | 2.0 | 9.389 | 2 | 33.067 | 9.550 | 30.282 | 2 |
| 2025-04-20T22:02:00 | 54.066395 | 7.804404 | 2.0 | 9.386 | 2 | 33.041 | 9.550 | 30.256 | 2 |
| 2025-04-20T22:03:00 | 54.066431 | 7.806559 | 2.0 | 9.390 | 2 | 33.021 | 9.550 | 30.236 | 2 |
| 2025-04-20T22:04:00 | 54.066514 | 7.808721 | 2.0 | 9.399 | 2 | 33.018 | 9.552 | 30.231 | 2 |
| 2025-04-20T22:05:00 | 54.066467 | 7.810887 | 2.0 | 9.396 | 2 | 33.004 | 9.562 | 30.208 | 2 |
| 2025-04-20T22:06:00 | 54.066515 | 7.813041 | 2.0 | 9.393 | 2 | 32.918 | 9.558 | 30.124 | 2 |
| 2025-04-20T22:07:00 | 54.066555 | 7.815203 | 2.0 | 9.399 | 2 | 32.902 | 9.558 | 30.108 | 2 |
| 2025-04-20T22:08:00 | 54.066585 | 7.817373 | 2.0 | 9.398 | 2 | 32.924 | 9.562 | 30.127 | 2 |
| 2025-04-20T22:09:00 | 54.066582 | 7.819549 | 2.0 | 9.394 | 2 | 32.846 | 9.561 | 30.049 | 2 |
| 2025-04-20T22:10:00 | 54.066603 | 7.821722 | 2.0 | 9.393 | 2 | 32.816 | 9.557 | 30.022 | 2 |
| 2025-04-20T22:11:00 | 54.066643 | 7.823908 | 2.0 | 9.390 | 2 | 32.795 | 9.556 | 30.002 | 2 |
| 2025-04-20T22:12:00 | 54.066610 | 7.826100 | 2.0 | 9.387 | 2 | 32.896 | 9.554 | 30.106 | 2 |
| 2025-04-20T22:13:00 | 54.066406 | 7.828271 | 2.0 | 9.386 | 2 | 32.791 | 9.551 | 30.002 | 2 |
| 2025-04-20T22:14:00 | 54.066893 | 7.829564 | 2.0 | 9.384 | 2 | 32.987 | 9.548 | 30.203 | 2 |
| 2025-04-20T22:15:00 | 54.067591 | 7.828840 | 2.0 | 9.383 | 2 | 32.992 | 9.547 | 30.209 | 2 |
| 2025-04-20T22:16:00 | 54.067687 | 7.827089 | 2.0 | 9.383 | 2 | 32.989 | 9.547 | 30.206 | 2 |
| 2025-04-20T22:17:00 | 54.067538 | 7.825047 | 2.0 | 9.383 | 2 | 32.983 | 9.548 | 30.199 | 2 |
| 2025-04-20T22:18:00 | 54.067515 | 7.822824 | 2.0 | 9.385 | 2 | 32.976 | 9.549 | 30.191 | 2 |
| 2025-04-20T22:19:00 | 54.067509 | 7.820546 | 2.0 | 9.388 | 2 | 32.973 | 9.550 | 30.187 | 2 |
| 2025-04-20T22:20:00 | 54.067526 | 7.818267 | 2.0 | 9.393 | 2 | 32.973 | 9.553 | 30.184 | 2 |
| 2025-04-20T22:21:00 | 54.067473 | 7.816078 | 2.0 | 9.396 | 2 | 32.973 | 9.557 | 30.181 | 2 |
| 2025-04-20T22:22:00 | 54.067425 | 7.813908 | 2.0 | 9.392 | 2 | 32.975 | 9.560 | 30.181 | 2 |
| 2025-04-20T22:23:00 | 54.067391 | 7.811752 | 2.0 | 9.395 | 2 | 32.978 | 9.557 | 30.186 | 2 |
| 2025-04-20T22:24:00 | 54.067364 | 7.809602 | 2.0 | 9.393 | 2 | 32.982 | 9.558 | 30.189 | 2 |
| 2025-04-20T22:25:00 | 54.067336 | 7.807465 | 2.0 | 9.389 | 2 | 32.983 | 9.557 | 30.191 | 2 |
| 2025-04-20T22:26:00 | 54.067292 | 7.805346 | 2.0 | 9.390 | 2 | 32.985 | 9.554 | 30.196 | 2 |
| 2025-04-20T22:27:00 | 54.067276 | 7.803226 | 2.0 | 9.390 | 2 | 32.994 | 9.555 | 30.204 | 2 |
| 2025-04-20T22:28:00 | 54.067223 | 7.801116 | 2.0 | 9.392 | 2 | 33.004 | 9.555 | 30.214 | 2 |
| 2025-04-20T22:29:00 | 54.067149 | 7.799028 | 2.0 | 9.397 | 2 | 33.014 | 9.557 | 30.223 | 2 |
| 2025-04-20T22:30:00 | 54.067241 | 7.796943 | 2.0 | 9.385 | 2 | 33.024 | 9.558 | 30.232 | 2 |
| 2025-04-20T22:31:00 | 54.067267 | 7.794851 | 2.0 | 9.375 | 2 | 33.030 | 9.549 | 30.246 | 2 |
| 2025-04-20T22:32:00 | 54.067243 | 7.792784 | 2.0 | 9.358 | 2 | 33.040 | 9.536 | 30.267 | 2 |
| 2025-04-20T22:33:00 | 54.067202 | 7.790705 | 2.0 | 9.345 | 2 | 33.052 | 9.521 | 30.292 | 2 |
| 2025-04-20T22:34:00 | 54.067156 | 7.788614 | 2.0 | 9.353 | 2 | 33.064 | 9.511 | 30.312 | 2 |
| 2025-04-20T22:35:00 | 54.067072 | 7.786517 | 2.0 | 9.359 | 2 | 33.084 | 9.522 | 30.323 | 2 |
| 2025-04-20T22:36:00 | 54.067090 | 7.784412 | 2.0 | 9.341 | 2 | 33.107 | 9.520 | 30.348 | 2 |
| 2025-04-20T22:37:00 | 54.067103 | 7.782292 | 2.0 | 9.333 | 2 | 33.121 | 9.506 | 30.374 | 2 |
| 2025-04-20T22:38:00 | 54.067057 | 7.780170 | 2.0 | 9.340 | 2 | 33.161 | 9.502 | 30.418 | 2 |
| 2025-04-20T22:39:00 | 54.067006 | 7.778059 | 2.0 | 9.310 | 2 | 33.211 | 9.500 | 30.471 | 2 |
| 2025-04-20T22:40:00 | 54.066951 | 7.775944 | 2.0 | 9.283 | 2 | 33.229 | 9.471 | 30.514 | 2 |
| 2025-04-20T22:41:00 | 54.066995 | 7.773810 | 2.0 | 9.287 | 2 | 33.270 | 9.451 | 30.573 | 2 |
| 2025-04-20T22:42:00 | 54.066998 | 7.771650 | 2.0 | 9.255 | 2 | 33.350 | 9.448 | 30.657 | 2 |
| 2025-04-20T22:43:00 | 54.066967 | 7.769505 | 2.0 | 9.226 | 2 | 33.410 | 9.413 | 30.748 | 2 |
| 2025-04-20T22:44:00 | 54.066930 | 7.767378 | 2.0 | 9.215 | 2 | 33.341 | 9.393 | 30.695 | 2 |
| 2025-04-20T22:45:00 | 54.066894 | 7.765307 | 2.0 | 9.194 | 2 | 33.449 | 9.377 | 30.819 | 2 |
| 2025-04-20T22:46:00 | 54.066868 | 7.763231 | 2.0 | 9.159 | 2 | 33.331 | 9.355 | 30.717 | 2 |
| 2025-04-20T22:47:00 | 54.066871 | 7.761135 | 2.0 | 9.137 | 2 | 33.129 | 9.322 | 30.539 | 2 |
| 2025-04-20T22:48:00 | 54.066841 | 7.759061 | 2.0 | 9.088 | 2 | 33.409 | 9.295 | 30.848 | 2 |
| 2025-04-20T22:49:00 | 54.066806 | 7.757015 | 2.0 | 8.989 | 2 | 33.565 | 9.231 | 31.064 | 2 |
| 2025-04-20T22:50:00 | 54.066767 | 7.755010 | 2.0 | 8.915 | 2 | 33.545 | 9.164 | 31.102 | 2 |
| 2025-04-20T22:51:00 | 54.066774 | 7.753018 | 2.0 | 8.869 | 2 | 33.600 | 9.073 | 31.238 | 2 |
| 2025-04-20T22:52:00 | 54.066789 | 7.750928 | 2.0 | 8.796 | 2 | 33.269 | 9.023 | 30.940 | 2 |
| 2025-04-20T22:53:00 | 54.066742 | 7.748718 | 2.0 | 8.707 | 2 | 33.948 | 8.954 | 31.703 | 2 |
| 2025-04-20T22:54:00 | 54.066744 | 7.746489 | 2.0 | 8.626 | 2 | 34.086 | 8.867 | 31.924 | 2 |
| 2025-04-20T22:55:00 | 54.066718 | 7.744182 | 2.0 | 8.589 | 2 | 33.933 | 8.800 | 31.825 | 2 |
| 2025-04-20T22:56:00 | 54.066714 | 7.741865 | 2.0 | 8.507 | 2 | 34.230 | 8.747 | 32.182 | 2 |
| 2025-04-20T22:57:00 | 54.066677 | 7.739549 | 2.0 | 8.425 | 2 | 33.948 | 8.667 | 31.960 | 2 |
| 2025-04-20T22:58:00 | 54.066614 | 7.737257 | 2.0 | 8.402 | 2 | 34.196 | 8.599 | 32.282 | 2 |
| 2025-04-20T22:59:00 | 54.066569 | 7.735004 | 2.0 | 8.478 | 2 | 34.239 | 8.584 | 32.340 | 2 |
| 2025-04-20T23:00:00 | 54.066549 | 7.732754 | 2.0 | 8.462 | 2 | 34.366 | 8.641 | 32.421 | 2 |
| 2025-04-20T23:01:00 | 54.066465 | 7.730503 | 2.0 | 8.460 | 2 | 34.053 | 8.631 | 32.103 | 2 |
| 2025-04-20T23:02:00 | 54.066458 | 7.728261 | 2.0 | 8.440 | 2 | 34.157 | 8.628 | 32.214 | 2 |
| 2025-04-20T23:03:00 | 54.066448 | 7.726032 | 2.0 | 8.410 | 2 | 34.114 | 8.605 | 32.190 | 2 |
| 2025-04-20T23:04:00 | 54.066361 | 7.723794 | 2.0 | 8.351 | 2 | 34.245 | 8.574 | 32.356 | 2 |
| 2025-04-20T23:05:00 | 54.066377 | 7.721578 | 2.0 | 8.299 | 2 | 34.237 | 8.515 | 32.402 | 2 |
| 2025-04-20T23:06:00 | 54.066311 | 7.719373 | 2.0 | 8.271 | 2 | 33.951 | 8.469 | 32.143 | 2 |
| 2025-04-20T23:07:00 | 54.066062 | 7.717167 | 2.0 | 8.255 | 2 | 34.012 | 8.443 | 32.231 | 2 |
| 2025-04-20T23:08:00 | 54.066330 | 7.715484 | 2.0 | 8.266 | 2 | 33.946 | 8.426 | 32.177 | 2 |
| 2025-04-20T23:09:00 | 54.067207 | 7.716032 | 2.0 | 8.291 | 2 | 33.926 | 8.444 | 32.140 | 2 |
| 2025-04-20T23:10:00 | 54.067413 | 7.718147 | 2.0 | 8.306 | 2 | 34.007 | 8.461 | 32.209 | 2 |
| 2025-04-20T23:11:00 | 54.067328 | 7.720829 | 2.0 | 8.328 | 2 | 34.079 | 8.477 | 32.270 | 2 |
| 2025-04-20T23:12:00 | 54.067396 | 7.723774 | 2.0 | 8.353 | 2 | 33.890 | 8.501 | 32.050 | 2 |
| 2025-04-20T23:13:00 | 54.067427 | 7.726615 | 2.0 | 8.401 | 2 | 33.982 | 8.529 | 32.121 | 2 |
| 2025-04-20T23:14:00 | 54.067409 | 7.729305 | 2.0 | 8.460 | 2 | 34.074 | 8.580 | 32.171 | 2 |
| 2025-04-20T23:15:00 | 54.067455 | 7.731886 | 2.0 | 8.509 | 2 | 34.222 | 8.635 | 32.276 | 2 |
| 2025-04-20T23:16:00 | 54.067456 | 7.734420 | 2.0 | 8.563 | 2 | 34.272 | 8.668 | 32.298 | 2 |
| 2025-04-20T23:17:00 | 54.067402 | 7.736945 | 2.0 | 8.550 | 2 | 34.222 | 8.722 | 32.197 | 2 |
| 2025-04-20T23:18:00 | 54.067502 | 7.739458 | 2.0 | 8.539 | 2 | 34.089 | 8.717 | 32.062 | 2 |
| 2025-04-20T23:19:00 | 54.067523 | 7.741975 | 2.0 | 8.455 | 2 | 34.183 | 8.683 | 32.191 | 2 |
| 2025-04-20T23:20:00 | 54.067515 | 7.744483 | 2.0 | 8.558 | 2 | 34.218 | 8.642 | 32.265 | 2 |
| 2025-04-20T23:21:00 | 54.067569 | 7.746942 | 2.0 | 8.628 | 2 | 34.089 | 8.726 | 32.054 | 2 |
| 2025-04-20T23:22:00 | 54.067631 | 7.749380 | 2.0 | 8.705 | 2 | 33.972 | 8.818 | 31.849 | 2 |
| 2025-04-20T23:23:00 | 54.067654 | 7.751804 | 2.0 | 8.796 | 2 | 33.921 | 8.869 | 31.751 | 2 |
| 2025-04-20T23:24:00 | 54.067691 | 7.754243 | 2.0 | 8.861 | 2 | 33.747 | 8.960 | 31.489 | 2 |
| 2025-04-20T23:25:00 | 54.067708 | 7.756658 | 2.0 | 8.990 | 2 | 33.593 | 9.058 | 31.244 | 2 |
| 2025-04-20T23:26:00 | 54.067761 | 7.759064 | 2.0 | 9.129 | 2 | 33.503 | 9.163 | 31.059 | 2 |
| 2025-04-20T23:27:00 | 54.067775 | 7.761444 | 2.0 | 9.168 | 2 | 33.361 | 9.285 | 30.808 | 2 |
| 2025-04-20T23:28:00 | 54.067805 | 7.763810 | 2.0 | 9.202 | 2 | 33.331 | 9.332 | 30.737 | 2 |
| 2025-04-20T23:29:00 | 54.067823 | 7.766183 | 2.0 | 9.228 | 2 | 33.296 | 9.363 | 30.674 | 2 |
| 2025-04-20T23:30:00 | 54.067848 | 7.768550 | 2.0 | 9.231 | 2 | 33.361 | 9.386 | 30.721 | 2 |
| 2025-04-20T23:31:00 | 54.067925 | 7.770932 | 2.0 | 9.277 | 2 | 33.320 | 9.404 | 30.664 | 2 |
| 2025-04-20T23:32:00 | 54.067929 | 7.773314 | 2.0 | 9.283 | 2 | 33.258 | 9.439 | 30.571 | 2 |
| 2025-04-20T23:33:00 | 54.067930 | 7.775697 | 2.0 | 9.301 | 2 | 33.206 | 9.446 | 30.512 | 2 |
| 2025-04-20T23:34:00 | 54.067979 | 7.778086 | 2.0 | 9.325 | 2 | 33.115 | 9.467 | 30.401 | 2 |
| 2025-04-20T23:35:00 | 54.067990 | 7.780461 | 2.0 | 9.317 | 2 | 33.099 | 9.482 | 30.372 | 2 |
| 2025-04-20T23:36:00 | 54.068005 | 7.782842 | 2.0 | 9.329 | 2 | 33.050 | 9.482 | 30.322 | 2 |
| 2025-04-20T23:37:00 | 54.068045 | 7.785223 | 2.0 | 9.332 | 2 | 33.043 | 9.491 | 30.308 | 2 |
| 2025-04-20T23:38:00 | 54.068062 | 7.787598 | 2.0 | 9.339 | 2 | 33.006 | 9.495 | 30.267 | 2 |
| 2025-04-20T23:39:00 | 54.068083 | 7.789977 | 2.0 | 9.350 | 2 | 32.988 | 9.503 | 30.242 | 2 |
| 2025-04-20T23:40:00 | 54.068094 | 7.792367 | 2.0 | 9.363 | 2 | 32.991 | 9.514 | 30.236 | 2 |
| 2025-04-20T23:41:00 | 54.068122 | 7.794763 | 2.0 | 9.369 | 2 | 32.969 | 9.527 | 30.202 | 2 |
| 2025-04-20T23:42:00 | 54.068117 | 7.797154 | 2.0 | 9.378 | 2 | 32.977 | 9.534 | 30.204 | 2 |
| 2025-04-20T23:43:00 | 54.068136 | 7.799549 | 2.0 | 9.377 | 2 | 32.972 | 9.539 | 30.195 | 2 |
| 2025-04-20T23:44:00 | 54.068169 | 7.801954 | 2.0 | 9.374 | 2 | 32.967 | 9.540 | 30.189 | 2 |
| 2025-04-20T23:45:00 | 54.068225 | 7.804386 | 2.0 | 9.372 | 2 | 32.949 | 9.536 | 30.174 | 2 |
| 2025-04-20T23:46:00 | 54.068257 | 7.806810 | 2.0 | 9.375 | 2 | 32.956 | 9.536 | 30.182 | 2 |
| 2025-04-20T23:47:00 | 54.068271 | 7.809233 | 2.0 | 9.380 | 2 | 32.949 | 9.539 | 30.172 | 2 |
| 2025-04-20T23:48:00 | 54.068285 | 7.811649 | 2.0 | 9.384 | 2 | 32.964 | 9.544 | 30.183 | 2 |
| 2025-04-20T23:49:00 | 54.068301 | 7.814057 | 2.0 | 9.379 | 2 | 32.958 | 9.547 | 30.174 | 2 |
| 2025-04-20T23:50:00 | 54.068356 | 7.816476 | 2.0 | 9.375 | 2 | 32.959 | 9.541 | 30.180 | 2 |
| 2025-04-20T23:51:00 | 54.068669 | 7.818560 | 2.0 | 9.373 | 2 | 32.961 | 9.538 | 30.185 | 2 |
| 2025-04-20T23:52:00 | 54.069466 | 7.818839 | 2.0 | 9.373 | 2 | 32.953 | 9.535 | 30.179 | 2 |
| 2025-04-20T23:53:00 | 54.069836 | 7.817638 | 2.0 | 9.375 | 2 | 32.956 | 9.535 | 30.182 | 2 |
| 2025-04-20T23:54:00 | 54.069783 | 7.815730 | 2.0 | 9.378 | 2 | 32.960 | 9.539 | 30.183 | 2 |
| 2025-04-20T23:55:00 | 54.069577 | 7.813549 | 2.0 | 9.382 | 2 | 32.961 | 9.543 | 30.181 | 2 |
| 2025-04-20T23:56:00 | 54.069373 | 7.811306 | 2.0 | 9.381 | 2 | 32.962 | 9.546 | 30.179 | 2 |
| 2025-04-20T23:57:00 | 54.069286 | 7.809008 | 2.0 | 9.376 | 2 | 32.968 | 9.544 | 30.187 | 2 |
| 2025-04-20T23:58:00 | 54.069261 | 7.806701 | 2.0 | 9.367 | 2 | 32.968 | 9.539 | 30.191 | 2 |
| 2025-04-20T23:59:00 | 54.069178 | 7.804415 | 2.0 | 9.367 | 2 | 32.974 | 9.531 | 30.204 | 2 |
| 2025-04-21T00:00:00 | 54.069190 | 7.802101 | 2.0 | 9.372 | 2 | 32.989 | 9.532 | 30.218 | 2 |
| 2025-04-21T00:01:00 | 54.069188 | 7.799753 | 2.0 | 9.355 | 2 | 33.004 | 9.535 | 30.231 | 2 |
| 2025-04-21T00:02:00 | 54.069106 | 7.797398 | 2.0 | 9.362 | 2 | 33.025 | 9.521 | 30.264 | 2 |
| 2025-04-21T00:03:00 | 54.069080 | 7.795050 | 2.0 | 9.360 | 2 | 33.025 | 9.524 | 30.262 | 2 |
| 2025-04-21T00:04:00 | 54.069098 | 7.792746 | 2.0 | 9.352 | 2 | 33.053 | 9.522 | 30.292 | 2 |
| 2025-04-21T00:05:00 | 54.069153 | 7.790501 | 2.0 | 9.331 | 2 | 33.075 | 9.514 | 30.321 | 2 |
| 2025-04-21T00:06:00 | 54.069125 | 7.788219 | 2.0 | 9.332 | 2 | 33.085 | 9.498 | 30.345 | 2 |
| 2025-04-21T00:07:00 | 54.069032 | 7.785914 | 2.0 | 9.315 | 2 | 33.111 | 9.494 | 30.374 | 2 |
| 2025-04-21T00:08:00 | 54.068982 | 7.783583 | 2.0 | 9.300 | 2 | 33.137 | 9.476 | 30.416 | 2 |
| 2025-04-21T00:09:00 | 54.068933 | 7.781235 | 2.0 | 9.302 | 2 | 33.183 | 9.466 | 30.471 | 2 |
| 2025-04-21T00:10:00 | 54.068885 | 7.778861 | 2.0 | 9.283 | 2 | 33.221 | 9.465 | 30.511 | 2 |
| 2025-04-21T00:11:00 | 54.068860 | 7.776467 | 2.0 | 9.253 | 2 | 33.283 | 9.446 | 30.590 | 2 |
| 2025-04-21T00:12:00 | 54.068806 | 7.774067 | 2.0 | 9.208 | 2 | 33.383 | 9.409 | 30.724 | 2 |
| 2025-04-21T00:13:00 | 54.068815 | 7.771690 | 2.0 | 9.187 | 2 | 33.435 | 9.375 | 30.806 | 2 |
| 2025-04-21T00:14:00 | 54.068806 | 7.769346 | 2.0 | 9.133 | 2 | 33.472 | 9.342 | 30.872 | 2 |
| 2025-04-21T00:15:00 | 54.068796 | 7.767004 | 2.0 | 9.123 | 2 | 33.529 | 9.298 | 30.969 | 2 |
| 2025-04-21T00:16:00 | 54.068769 | 7.764671 | 2.0 | 8.979 | 2 | 33.592 | 9.248 | 31.077 | 2 |
| 2025-04-21T00:17:00 | 54.068713 | 7.762346 | 2.0 | 8.846 | 2 | 33.749 | 9.119 | 31.351 | 2 |
| 2025-04-21T00:18:00 | 54.068716 | 7.760051 | 2.0 | 8.831 | 2 | 33.822 | 9.049 | 31.488 | 2 |
| 2025-04-21T00:19:00 | 54.068691 | 7.757739 | 2.0 | 8.724 | 2 | 33.964 | 8.946 | 31.726 | 2 |
| 2025-04-21T00:20:00 | 54.068645 | 7.755415 | 2.0 | 8.620 | 2 | 34.068 | 8.862 | 31.910 | 2 |
| 2025-04-21T00:21:00 | 54.068625 | 7.753068 | 2.0 | 8.541 | 2 | 34.149 | 8.783 | 32.065 | 2 |
| 2025-04-21T00:22:00 | 54.068572 | 7.750743 | 2.0 | 8.569 | 2 | 34.244 | 8.732 | 32.210 | 2 |
| 2025-04-21T00:23:00 | 54.068570 | 7.748383 | 2.0 | 8.520 | 2 | 34.308 | 8.730 | 32.279 | 2 |
| 2025-04-21T00:24:00 | 54.068542 | 7.746023 | 2.0 | 8.401 | 2 | 34.313 | 8.646 | 32.361 | 2 |
| 2025-04-21T00:25:00 | 54.068449 | 7.743711 | 2.0 | 8.366 | 2 | 34.254 | 8.576 | 32.363 | 2 |
| 2025-04-21T00:26:00 | 54.068446 | 7.741432 | 2.0 | 8.355 | 2 | 34.186 | 8.542 | 32.323 | 2 |
| 2025-04-21T00:27:00 | 54.068448 | 7.739192 | 2.0 | 8.333 | 2 | 34.172 | 8.527 | 32.322 | 2 |
| 2025-04-21T00:28:00 | 54.068398 | 7.736967 | 2.0 | 8.315 | 2 | 34.227 | 8.506 | 32.399 | 2 |
| 2025-04-21T00:29:00 | 54.068382 | 7.734820 | 2.0 | 8.291 | 2 | 34.287 | 8.486 | 32.481 | 2 |
| 2025-04-21T00:30:00 | 54.068374 | 7.732647 | 2.0 | 8.270 | 2 | 34.335 | 8.461 | 32.554 | 2 |
| 2025-04-21T00:31:00 | 54.068344 | 7.730451 | 2.0 | 8.240 | 2 | 34.371 | 8.436 | 32.615 | 2 |
| 2025-04-21T00:32:00 | 54.068328 | 7.728231 | 2.0 | 8.244 | 2 | 34.415 | 8.413 | 32.683 | 2 |
| 2025-04-21T00:33:00 | 54.068300 | 7.725985 | 2.0 | 8.237 | 2 | 34.483 | 8.415 | 32.753 | 2 |
| 2025-04-21T00:34:00 | 54.068218 | 7.723727 | 2.0 | 8.218 | 2 | 34.502 | 8.403 | 32.784 | 2 |
| 2025-04-21T00:35:00 | 54.068219 | 7.721457 | 2.0 | 8.207 | 2 | 34.511 | 8.391 | 32.805 | 2 |
| 2025-04-21T00:36:00 | 54.068048 | 7.719220 | 2.0 | 8.203 | 2 | 34.518 | 8.379 | 32.823 | 2 |
| 2025-04-21T00:37:00 | 54.067725 | 7.717016 | 2.0 | 8.144 | 2 | 34.527 | 8.368 | 32.843 | 2 |
| 2025-04-21T00:38:00 | 54.068127 | 7.715476 | 2.0 | 8.137 | 2 | 34.522 | 8.316 | 32.886 | 2 |
| 2025-04-21T00:39:00 | 54.068990 | 7.716374 | 2.0 | 8.153 | 2 | 34.523 | 8.313 | 32.890 | 2 |
| 2025-04-21T00:40:00 | 54.069167 | 7.718504 | 2.0 | 8.161 | 2 | 34.529 | 8.324 | 32.886 | 2 |
| 2025-04-21T00:41:00 | 54.069096 | 7.721055 | 2.0 | 8.180 | 2 | 34.529 | 8.334 | 32.877 | 2 |
| 2025-04-21T00:42:00 | 54.069146 | 7.723809 | 2.0 | 8.215 | 2 | 34.524 | 8.358 | 32.849 | 2 |
| 2025-04-21T00:43:00 | 54.069209 | 7.726489 | 2.0 | 8.229 | 2 | 34.521 | 8.386 | 32.820 | 2 |
| 2025-04-21T00:44:00 | 54.069215 | 7.729106 | 2.0 | 8.238 | 2 | 34.515 | 8.402 | 32.799 | 2 |
| 2025-04-21T00:45:00 | 54.069235 | 7.731631 | 2.0 | 8.244 | 2 | 34.506 | 8.407 | 32.785 | 2 |
| 2025-04-21T00:46:00 | 54.069292 | 7.734094 | 2.0 | 8.256 | 2 | 34.500 | 8.417 | 32.769 | 2 |
| 2025-04-21T00:47:00 | 54.069329 | 7.736499 | 2.0 | 8.259 | 2 | 34.485 | 8.425 | 32.746 | 2 |
| 2025-04-21T00:48:00 | 54.069324 | 7.738826 | 2.0 | 8.265 | 2 | 34.464 | 8.430 | 32.719 | 2 |
| 2025-04-21T00:49:00 | 54.069346 | 7.741119 | 2.0 | 8.264 | 2 | 34.436 | 8.432 | 32.688 | 2 |
| 2025-04-21T00:50:00 | 54.069357 | 7.743394 | 2.0 | 8.282 | 2 | 34.391 | 8.436 | 32.636 | 2 |
| 2025-04-21T00:51:00 | 54.069371 | 7.745640 | 2.0 | 8.298 | 2 | 34.343 | 8.453 | 32.570 | 2 |
| 2025-04-21T00:52:00 | 54.069398 | 7.747850 | 2.0 | 8.336 | 2 | 34.274 | 8.474 | 32.478 | 2 |
| 2025-04-21T00:53:00 | 54.069398 | 7.750042 | 2.0 | 8.372 | 2 | 34.202 | 8.512 | 32.367 | 2 |
| 2025-04-21T00:54:00 | 54.069446 | 7.752216 | 2.0 | 8.391 | 2 | 34.164 | 8.540 | 32.302 | 2 |
| 2025-04-21T00:55:00 | 54.069484 | 7.754385 | 2.0 | 8.412 | 2 | 34.152 | 8.561 | 32.270 | 2 |
| 2025-04-21T00:56:00 | 54.069444 | 7.756536 | 2.0 | 8.490 | 2 | 34.188 | 8.599 | 32.273 | 2 |
| 2025-04-21T00:57:00 | 54.069564 | 7.758666 | 2.0 | 8.531 | 2 | 34.261 | 8.660 | 32.294 | 2 |
| 2025-04-21T00:58:00 | 54.069665 | 7.760795 | 2.0 | 8.548 | 2 | 34.271 | 8.703 | 32.265 | 2 |
| 2025-04-21T00:59:00 | 54.069685 | 7.762921 | 2.0 | 8.572 | 2 | 34.266 | 8.714 | 32.250 | 2 |
| 2025-04-21T01:00:00 | 54.069709 | 7.765044 | 2.0 | 8.635 | 2 | 34.186 | 8.750 | 32.134 | 2 |
| 2025-04-21T01:01:00 | 54.069744 | 7.767162 | 2.0 | 8.700 | 2 | 33.716 | 8.807 | 31.593 | 2 |
| 2025-04-21T01:02:00 | 54.069740 | 7.769230 | 2.0 | 8.681 | 2 | 33.991 | 8.865 | 31.827 | 2 |
| 2025-04-21T01:03:00 | 54.069720 | 7.771296 | 2.0 | 8.847 | 2 | 33.952 | 8.879 | 31.774 | 2 |
| 2025-04-21T01:04:00 | 54.069750 | 7.773361 | 2.0 | 8.967 | 2 | 33.584 | 9.011 | 31.276 | 2 |
| 2025-04-21T01:05:00 | 54.069799 | 7.775411 | 2.0 | 9.028 | 2 | 33.609 | 9.146 | 31.183 | 2 |
| 2025-04-21T01:06:00 | 54.069816 | 7.777448 | 2.0 | 9.142 | 2 | 33.571 | 9.192 | 31.104 | 2 |
| 2025-04-21T01:07:00 | 54.069826 | 7.779444 | 2.0 | 9.153 | 2 | 33.312 | 9.293 | 30.751 | 2 |
| 2025-04-21T01:08:00 | 54.069843 | 7.781406 | 2.0 | 9.164 | 2 | 33.470 | 9.306 | 30.901 | 2 |
| 2025-04-21T01:09:00 | 54.069838 | 7.783328 | 2.0 | 9.199 | 2 | 33.349 | 9.330 | 30.757 | 2 |
| 2025-04-21T01:10:00 | 54.069848 | 7.785238 | 2.0 | 9.217 | 2 | 33.234 | 9.353 | 30.620 | 2 |
| 2025-04-21T01:11:00 | 54.069870 | 7.787239 | 2.0 | 9.235 | 2 | 33.231 | 9.375 | 30.598 | 2 |
| 2025-04-21T01:12:00 | 54.069921 | 7.789359 | 2.0 | 9.247 | 2 | 33.417 | 9.396 | 30.770 | 2 |
| 2025-04-21T01:13:00 | 54.069947 | 7.791568 | 2.0 | 9.248 | 2 | 33.239 | 9.407 | 30.579 | 2 |
| 2025-04-21T01:14:00 | 54.069952 | 7.793813 | 2.0 | 9.259 | 2 | 33.405 | 9.410 | 30.745 | 2 |
| 2025-04-21T01:15:00 | 54.069984 | 7.796103 | 2.0 | 9.265 | 2 | 32.997 | 9.421 | 30.320 | 2 |
| 2025-04-21T01:16:00 | 54.070015 | 7.798411 | 2.0 | 9.274 | 2 | 33.269 | 9.429 | 30.590 | 2 |
| 2025-04-21T01:17:00 | 54.070035 | 7.800733 | 2.0 | 9.292 | 2 | 33.240 | 9.438 | 30.553 | 2 |
| 2025-04-21T01:18:00 | 54.070073 | 7.803059 | 2.0 | 9.315 | 2 | 32.984 | 9.456 | 30.277 | 2 |
| 2025-04-21T01:19:00 | 54.070104 | 7.805381 | 2.0 | 9.308 | 2 | 33.034 | 9.477 | 30.310 | 2 |
| 2025-04-21T01:20:00 | 54.070063 | 7.807689 | 2.0 | 9.321 | 2 | 33.091 | 9.468 | 30.376 | 2 |
| 2025-04-21T01:21:00 | 54.070044 | 7.810061 | 2.0 | 9.322 | 2 | 32.864 | 9.482 | 30.134 | 2 |
| 2025-04-21T01:22:00 | 54.070098 | 7.812542 | 2.0 | 9.302 | 2 | 33.085 | 9.470 | 30.368 | 2 |
| 2025-04-21T01:23:00 | 54.070100 | 7.815064 | 2.0 | 9.330 | 2 | 32.884 | 9.463 | 30.170 | 2 |
| 2025-04-21T01:24:00 | 54.069821 | 7.817494 | 2.0 | 9.344 | 2 | 32.971 | 9.490 | 30.235 | 2 |
| 2025-04-21T01:25:00 | 54.070240 | 7.819283 | 2.0 | 9.342 | 2 | 32.725 | 9.503 | 29.975 | 2 |
| 2025-04-21T01:26:00 | 54.071000 | 7.819249 | 2.0 | 9.275 | 2 | 32.776 | 9.496 | 30.032 | 2 |
| 2025-04-21T01:27:00 | 54.071308 | 7.817978 | 2.0 | 9.268 | 2 | 33.053 | 9.448 | 30.354 | 2 |
| 2025-04-21T01:28:00 | 54.071271 | 7.816123 | 2.0 | 9.274 | 2 | 32.896 | 9.434 | 30.206 | 2 |
| 2025-04-21T01:29:00 | 54.071103 | 7.814109 | 2.0 | 9.252 | 2 | 32.961 | 9.417 | 30.287 | 2 |
| 2025-04-21T01:30:00 | 54.070981 | 7.811971 | 2.0 | 9.292 | 2 | 33.060 | 9.427 | 30.379 | 2 |
| 2025-04-21T01:31:00 | 54.070945 | 7.809742 | 2.0 | 9.287 | 2 | 33.151 | 9.450 | 30.452 | 2 |
| 2025-04-21T01:32:00 | 54.070875 | 7.807493 | 2.0 | 9.277 | 2 | 33.147 | 9.451 | 30.447 | 2 |
| 2025-04-21T01:33:00 | 54.070836 | 7.805211 | 2.0 | 9.238 | 2 | 33.073 | 9.425 | 30.394 | 2 |
| 2025-04-21T01:34:00 | 54.070810 | 7.802883 | 2.0 | 9.252 | 2 | 33.201 | 9.393 | 30.552 | 2 |
| 2025-04-21T01:35:00 | 54.070791 | 7.800552 | 2.0 | 9.241 | 2 | 33.282 | 9.416 | 30.615 | 2 |
| 2025-04-21T01:36:00 | 54.070765 | 7.798221 | 2.0 | 9.126 | 2 | 33.358 | 9.392 | 30.713 | 2 |
| 2025-04-21T01:37:00 | 54.070764 | 7.795862 | 2.0 | 9.099 | 2 | 33.294 | 9.304 | 30.723 | 2 |
| 2025-04-21T01:38:00 | 54.070740 | 7.793490 | 2.0 | 8.955 | 2 | 33.285 | 9.235 | 30.773 | 2 |
| 2025-04-21T01:39:00 | 54.070725 | 7.791137 | 2.0 | 8.980 | 2 | 33.291 | 9.141 | 30.860 | 2 |
| 2025-04-21T01:40:00 | 54.070729 | 7.788786 | 2.0 | 8.940 | 2 | 33.417 | 9.140 | 30.991 | 2 |
| 2025-04-21T01:41:00 | 54.070722 | 7.786418 | 2.0 | 8.871 | 2 | 33.338 | 9.116 | 30.930 | 2 |
| 2025-04-21T01:42:00 | 54.070643 | 7.784066 | 2.0 | 8.730 | 2 | 33.617 | 9.005 | 31.315 | 2 |
| 2025-04-21T01:43:00 | 54.070592 | 7.781716 | 2.0 | 8.724 | 2 | 33.751 | 8.908 | 31.539 | 2 |
| 2025-04-21T01:44:00 | 54.070606 | 7.779349 | 2.0 | 8.627 | 2 | 33.672 | 8.888 | 31.475 | 2 |
| 2025-04-21T01:45:00 | 54.070592 | 7.776986 | 2.0 | 8.557 | 2 | 33.879 | 8.814 | 31.756 | 2 |
| 2025-04-21T01:46:00 | 54.070469 | 7.774627 | 2.0 | 8.461 | 2 | 34.294 | 8.719 | 32.275 | 2 |
| 2025-04-21T01:47:00 | 54.070439 | 7.772261 | 2.0 | 8.401 | 2 | 34.246 | 8.624 | 32.311 | 2 |
| 2025-04-21T01:48:00 | 54.070477 | 7.769894 | 2.0 | 8.389 | 2 | 34.168 | 8.579 | 32.270 | 2 |
| 2025-04-21T01:49:00 | 54.070459 | 7.767578 | 2.0 | 8.328 | 2 | 34.185 | 8.549 | 32.316 | 2 |
| 2025-04-21T01:50:00 | 54.070406 | 7.765237 | 2.0 | 8.266 | 2 | 34.260 | 8.491 | 32.448 | 2 |
| 2025-04-21T01:51:00 | 54.070368 | 7.762882 | 2.0 | 8.243 | 2 | 34.446 | 8.439 | 32.692 | 2 |
| 2025-04-21T01:52:00 | 54.070408 | 7.760530 | 2.0 | 8.222 | 2 | 34.501 | 8.414 | 32.773 | 2 |
| 2025-04-21T01:53:00 | 54.070392 | 7.758178 | 2.0 | 8.202 | 2 | 34.516 | 8.394 | 32.807 | 2 |
| 2025-04-21T01:54:00 | 54.070350 | 7.755814 | 2.0 | 8.183 | 2 | 34.529 | 8.373 | 32.841 | 2 |
| 2025-04-21T01:55:00 | 54.070294 | 7.753473 | 2.0 | 8.160 | 2 | 34.535 | 8.352 | 32.866 | 2 |
| 2025-04-21T01:56:00 | 54.070292 | 7.751145 | 2.0 | 8.131 | 2 | 34.535 | 8.326 | 32.891 | 2 |
| 2025-04-21T01:57:00 | 54.070320 | 7.748804 | 2.0 | 8.125 | 2 | 34.533 | 8.304 | 32.909 | 2 |
| 2025-04-21T01:58:00 | 54.070316 | 7.746445 | 2.0 | 8.114 | 2 | 34.533 | 8.296 | 32.917 | 2 |
| 2025-04-21T01:59:00 | 54.070310 | 7.744058 | 2.0 | 8.108 | 2 | 34.532 | 8.287 | 32.924 | 2 |
| 2025-04-21T02:00:00 | 54.070273 | 7.741663 | 2.0 | 8.098 | 2 | 34.530 | 8.278 | 32.930 | 2 |
| 2025-04-21T02:01:00 | 54.070245 | 7.739298 | 2.0 | 8.102 | 2 | 34.524 | 8.272 | 32.930 | 2 |
| 2025-04-21T02:02:00 | 54.070237 | 7.736944 | 2.0 | 8.109 | 2 | 34.522 | 8.274 | 32.926 | 2 |
| 2025-04-21T02:03:00 | 54.070204 | 7.734603 | 2.0 | 8.121 | 2 | 34.521 | 8.282 | 32.917 | 2 |
| 2025-04-21T02:04:00 | 54.070148 | 7.732253 | 2.0 | 8.127 | 2 | 34.523 | 8.293 | 32.909 | 2 |
| 2025-04-21T02:05:00 | 54.070106 | 7.729893 | 2.0 | 8.133 | 2 | 34.508 | 8.299 | 32.887 | 2 |
| 2025-04-21T02:06:00 | 54.070057 | 7.727556 | 2.0 | 8.129 | 2 | 34.469 | 8.302 | 32.843 | 2 |
| 2025-04-21T02:07:00 | 54.070049 | 7.725209 | 2.0 | 8.137 | 2 | 34.443 | 8.301 | 32.817 | 2 |
| 2025-04-21T02:08:00 | 54.070064 | 7.722863 | 2.0 | 8.144 | 2 | 34.437 | 8.309 | 32.803 | 2 |
| 2025-04-21T02:09:00 | 54.070058 | 7.720532 | 2.0 | 8.153 | 2 | 34.433 | 8.316 | 32.792 | 2 |
| 2025-04-21T02:10:00 | 54.069747 | 7.718379 | 2.0 | 8.170 | 2 | 34.430 | 8.326 | 32.780 | 2 |
| 2025-04-21T02:11:00 | 54.069047 | 7.716412 | 2.0 | 8.180 | 2 | 34.431 | 8.341 | 32.767 | 2 |
| 2025-04-21T02:12:00 | 54.069415 | 7.714762 | 2.0 | 8.182 | 2 | 34.273 | 8.349 | 32.593 | 2 |
| 2025-04-21T02:13:00 | 54.070506 | 7.715112 | 2.0 | 8.177 | 2 | 34.437 | 8.350 | 32.765 | 2 |
| 2025-04-21T02:14:00 | 54.070990 | 7.717331 | 2.0 | 8.162 | 2 | 34.437 | 8.343 | 32.771 | 2 |
| 2025-04-21T02:15:00 | 54.070936 | 7.720011 | 2.0 | 8.156 | 2 | 34.434 | 8.332 | 32.778 | 2 |
| 2025-04-21T02:16:00 | 54.070906 | 7.722700 | 2.0 | 8.144 | 2 | 34.430 | 8.324 | 32.782 | 2 |
| 2025-04-21T02:17:00 | 54.071058 | 7.725284 | 2.0 | 8.135 | 2 | 33.881 | 8.313 | 32.212 | 2 |
| 2025-04-21T02:18:00 | 54.071132 | 7.727806 | 2.0 | 8.126 | 2 | 34.225 | 8.304 | 32.584 | 2 |
| 2025-04-21T02:19:00 | 54.071134 | 7.730325 | 2.0 | 8.123 | 2 | 34.429 | 8.297 | 32.806 | 2 |
| 2025-04-21T02:20:00 | 54.071110 | 7.732818 | 2.0 | 8.121 | 2 | 34.438 | 8.293 | 32.819 | 2 |
| 2025-04-21T02:21:00 | 54.071097 | 7.735283 | 2.0 | 8.130 | 2 | 34.447 | 8.293 | 32.829 | 2 |
| 2025-04-21T02:22:00 | 54.071176 | 7.737712 | 2.0 | 8.129 | 2 | 34.410 | 8.299 | 32.784 | 2 |
| 2025-04-21T02:23:00 | 54.071273 | 7.740131 | 2.0 | 8.120 | 2 | 34.421 | 8.297 | 32.797 | 2 |
| 2025-04-21T02:24:00 | 54.071290 | 7.742564 | 2.0 | 8.115 | 2 | 34.401 | 8.290 | 32.783 | 2 |
| 2025-04-21T02:25:00 | 54.071240 | 7.745000 | 2.0 | 8.107 | 2 | 34.521 | 8.284 | 32.915 | 2 |
| 2025-04-21T02:26:00 | 54.071204 | 7.747408 | 2.0 | 8.114 | 2 | 34.055 | 8.278 | 32.428 | 2 |
| 2025-04-21T02:27:00 | 54.071196 | 7.749804 | 2.0 | 8.107 | 2 | 34.523 | 8.285 | 32.916 | 2 |
| 2025-04-21T02:28:00 | 54.071258 | 7.752195 | 2.0 | 8.118 | 2 | 34.523 | 8.277 | 32.924 | 2 |
| 2025-04-21T02:29:00 | 54.071302 | 7.754591 | 2.0 | 8.112 | 2 | 34.268 | 8.284 | 32.648 | 2 |
| 2025-04-21T02:30:00 | 54.071311 | 7.756990 | 2.0 | 8.110 | 2 | 34.391 | 8.281 | 32.780 | 2 |
| 2025-04-21T02:31:00 | 54.071275 | 7.759403 | 2.0 | 8.115 | 2 | 34.360 | 8.281 | 32.748 | 2 |
| 2025-04-21T02:32:00 | 54.071255 | 7.761816 | 2.0 | 8.121 | 2 | 34.525 | 8.286 | 32.918 | 2 |
| 2025-04-21T02:33:00 | 54.071265 | 7.764213 | 2.0 | 8.167 | 2 | 34.515 | 8.297 | 32.897 | 2 |
| 2025-04-21T02:34:00 | 54.071330 | 7.766576 | 2.0 | 8.200 | 2 | 34.340 | 8.344 | 32.668 | 2 |
| 2025-04-21T02:35:00 | 54.071384 | 7.768930 | 2.0 | 8.203 | 2 | 34.326 | 8.368 | 32.631 | 2 |
| 2025-04-21T02:36:00 | 54.071416 | 7.771278 | 2.0 | 8.205 | 2 | 34.338 | 8.371 | 32.641 | 2 |
| 2025-04-21T02:37:00 | 54.071454 | 7.773619 | 2.0 | 8.201 | 2 | 34.512 | 8.373 | 32.823 | 2 |
| 2025-04-21T02:38:00 | 54.071498 | 7.775966 | 2.0 | 8.200 | 2 | 34.408 | 8.369 | 32.716 | 2 |
| 2025-04-21T02:39:00 | 54.071519 | 7.778329 | 2.0 | 8.198 | 2 | 34.416 | 8.369 | 32.725 | 2 |
| 2025-04-21T02:40:00 | 54.071587 | 7.780678 | 2.0 | 8.285 | 2 | 34.184 | 8.390 | 32.461 | 2 |
| 2025-04-21T02:41:00 | 54.071663 | 7.783032 | 2.0 | 8.349 | 2 | 33.957 | 8.461 | 32.157 | 2 |
| 2025-04-21T02:42:00 | 54.071625 | 7.785372 | 2.0 | 8.366 | 2 | 34.015 | 8.517 | 32.167 | 2 |
| 2025-04-21T02:43:00 | 54.071571 | 7.787715 | 2.0 | 8.365 | 2 | 34.030 | 8.532 | 32.169 | 2 |
| 2025-04-21T02:44:00 | 54.071551 | 7.790085 | 2.0 | 8.356 | 2 | 33.976 | 8.529 | 32.115 | 2 |
| 2025-04-21T02:45:00 | 54.071581 | 7.792465 | 2.0 | 8.366 | 2 | 34.180 | 8.522 | 32.335 | 2 |
| 2025-04-21T02:46:00 | 54.071643 | 7.794849 | 2.0 | 8.481 | 2 | 34.121 | 8.557 | 32.241 | 2 |
| 2025-04-21T02:47:00 | 54.071723 | 7.797258 | 2.0 | 8.515 | 2 | 34.001 | 8.645 | 32.036 | 2 |
| 2025-04-21T02:48:00 | 54.071789 | 7.799700 | 2.0 | 8.521 | 2 | 34.186 | 8.682 | 32.195 | 2 |
| 2025-04-21T02:49:00 | 54.071831 | 7.802158 | 2.0 | 8.760 | 2 | 34.111 | 8.732 | 32.072 | 2 |
| 2025-04-21T02:50:00 | 54.071872 | 7.804617 | 2.0 | 8.896 | 2 | 33.674 | 8.934 | 31.437 | 2 |
| 2025-04-21T02:51:00 | 54.071882 | 7.807044 | 2.0 | 9.046 | 2 | 33.621 | 9.064 | 31.267 | 2 |
| 2025-04-21T02:52:00 | 54.071866 | 7.809442 | 2.0 | 9.203 | 2 | 33.411 | 9.220 | 30.915 | 2 |
| 2025-04-21T02:53:00 | 54.071559 | 7.811550 | 2.0 | 9.109 | 2 | 33.312 | 9.306 | 30.740 | 2 |
| 2025-04-21T02:54:00 | 54.071785 | 7.813415 | 2.0 | 9.211 | 2 | 33.317 | 9.317 | 30.735 | 2 |
| 2025-04-21T02:55:00 | 54.072649 | 7.814025 | 2.0 | 8.938 | 2 | 33.262 | 9.307 | 30.688 | 2 |
| 2025-04-21T02:56:00 | 54.073201 | 7.813199 | 2.0 | 8.966 | 2 | 33.592 | 9.121 | 31.187 | 2 |
| 2025-04-21T02:57:00 | 54.073010 | 7.811652 | 2.0 | 9.068 | 2 | 33.492 | 9.156 | 31.054 | 2 |
| 2025-04-21T02:58:00 | 54.072882 | 7.809461 | 2.0 | 9.044 | 2 | 33.429 | 9.220 | 30.934 | 2 |
| 2025-04-21T02:59:00 | 54.072755 | 7.807117 | 2.0 | 8.829 | 2 | 33.501 | 9.118 | 31.096 | 2 |
| 2025-04-21T03:00:00 | 54.072685 | 7.804781 | 2.0 | 8.593 | 2 | 33.816 | 8.954 | 31.566 | 2 |
| 2025-04-21T03:01:00 | 54.072661 | 7.802435 | 2.0 | 8.466 | 2 | 33.958 | 8.801 | 31.850 | 2 |
| 2025-04-21T03:02:00 | 54.072616 | 7.800100 | 2.0 | 8.394 | 2 | 34.130 | 8.649 | 32.167 | 2 |
| 2025-04-21T03:03:00 | 54.072634 | 7.797769 | 2.0 | 8.375 | 2 | 34.145 | 8.586 | 32.240 | 2 |
| 2025-04-21T03:04:00 | 54.072631 | 7.795408 | 2.0 | 8.340 | 2 | 34.133 | 8.544 | 32.266 | 2 |
| 2025-04-21T03:05:00 | 54.072581 | 7.792988 | 2.0 | 8.330 | 2 | 34.103 | 8.514 | 32.262 | 2 |
| 2025-04-21T03:06:00 | 54.072529 | 7.790519 | 2.0 | 8.339 | 2 | 34.112 | 8.504 | 32.280 | 2 |
| 2025-04-21T03:07:00 | 54.072509 | 7.788058 | 2.0 | 8.299 | 2 | 34.147 | 8.502 | 32.319 | 2 |
| 2025-04-21T03:08:00 | 54.072504 | 7.785595 | 2.0 | 8.204 | 2 | 34.212 | 8.447 | 32.438 | 2 |
| 2025-04-21T03:09:00 | 54.072446 | 7.783109 | 2.0 | 8.196 | 2 | 34.359 | 8.381 | 32.654 | 2 |
| 2025-04-21T03:10:00 | 54.072390 | 7.780612 | 2.0 | 8.197 | 2 | 34.389 | 8.370 | 32.696 | 2 |
| 2025-04-21T03:11:00 | 54.072384 | 7.778089 | 2.0 | 8.193 | 2 | 34.376 | 8.369 | 32.683 | 2 |
| 2025-04-21T03:12:00 | 54.072420 | 7.775567 | 2.0 | 8.171 | 2 | 34.409 | 8.363 | 32.723 | 2 |
| 2025-04-21T03:13:00 | 54.072403 | 7.773029 | 2.0 | 8.139 | 2 | 34.424 | 8.339 | 32.761 | 2 |
| 2025-04-21T03:14:00 | 54.072357 | 7.770506 | 2.0 | 8.115 | 2 | 34.428 | 8.308 | 32.794 | 2 |
| 2025-04-21T03:15:00 | 54.072324 | 7.768012 | 2.0 | 8.108 | 2 | 34.456 | 8.287 | 32.844 | 2 |
| 2025-04-21T03:16:00 | 54.072297 | 7.765518 | 2.0 | 8.111 | 2 | 34.464 | 8.279 | 32.860 | 2 |
| 2025-04-21T03:17:00 | 54.072253 | 7.763040 | 2.0 | 8.126 | 2 | 34.462 | 8.287 | 32.850 | 2 |
| 2025-04-21T03:18:00 | 54.072217 | 7.760556 | 2.0 | 8.116 | 2 | 34.482 | 8.294 | 32.865 | 2 |
| 2025-04-21T03:19:00 | 54.072202 | 7.758084 | 2.0 | 8.121 | 2 | 34.466 | 8.290 | 32.851 | 2 |
| 2025-04-21T03:20:00 | 54.072198 | 7.755648 | 2.0 | 8.124 | 2 | 34.462 | 8.292 | 32.845 | 2 |
| 2025-04-21T03:21:00 | 54.072165 | 7.753185 | 2.0 | 8.114 | 2 | 34.403 | 8.294 | 32.781 | 2 |
| 2025-04-21T03:22:00 | 54.072092 | 7.750683 | 2.0 | 8.108 | 2 | 34.418 | 8.284 | 32.806 | 2 |
| 2025-04-21T03:23:00 | 54.072055 | 7.748176 | 2.0 | 8.106 | 2 | 34.360 | 8.278 | 32.750 | 2 |
| 2025-04-21T03:24:00 | 54.072074 | 7.745677 | 2.0 | 8.115 | 2 | 34.391 | 8.279 | 32.782 | 2 |
| 2025-04-21T03:25:00 | 54.072053 | 7.743226 | 2.0 | 8.131 | 2 | 34.366 | 8.289 | 32.747 | 2 |
| 2025-04-21T03:26:00 | 54.072009 | 7.740790 | 2.0 | 8.145 | 2 | 34.368 | 8.303 | 32.736 | 2 |
| 2025-04-21T03:27:00 | 54.071999 | 7.738340 | 2.0 | 8.155 | 2 | 34.382 | 8.316 | 32.738 | 2 |
| 2025-04-21T03:28:00 | 54.071993 | 7.735884 | 2.0 | 8.164 | 2 | 34.412 | 8.326 | 32.761 | 2 |
| 2025-04-21T03:29:00 | 54.071991 | 7.733419 | 2.0 | 8.171 | 2 | 34.406 | 8.334 | 32.747 | 2 |
| 2025-04-21T03:30:00 | 54.071961 | 7.730960 | 2.0 | 8.175 | 2 | 34.388 | 8.339 | 32.723 | 2 |
| 2025-04-21T03:31:00 | 54.071908 | 7.728499 | 2.0 | 8.182 | 2 | 34.372 | 8.346 | 32.700 | 2 |
| 2025-04-21T03:32:00 | 54.071890 | 7.726050 | 2.0 | 8.189 | 2 | 34.372 | 8.352 | 32.694 | 2 |
| 2025-04-21T03:33:00 | 54.071889 | 7.723585 | 2.0 | 8.195 | 2 | 34.383 | 8.359 | 32.699 | 2 |
| 2025-04-21T03:34:00 | 54.071904 | 7.721117 | 2.0 | 8.202 | 2 | 34.386 | 8.365 | 32.697 | 2 |
| 2025-04-21T03:35:00 | 54.072017 | 7.718742 | 2.0 | 8.198 | 2 | 34.382 | 8.370 | 32.688 | 2 |
| 2025-04-21T03:36:00 | 54.072016 | 7.716813 | 2.0 | 8.200 | 2 | 34.353 | 8.368 | 32.659 | 2 |
| 2025-04-21T03:37:00 | 54.072027 | 7.715273 | 2.0 | 8.201 | 2 | 34.376 | 8.369 | 32.683 | 2 |
| 2025-04-21T03:38:00 | 54.071858 | 7.714155 | 2.0 | 8.203 | 2 | 34.360 | 8.369 | 32.666 | 2 |
| 2025-04-21T03:39:00 | 54.071592 | 7.713385 | 2.0 | 8.208 | 2 | 34.364 | 8.372 | 32.667 | 2 |
| 2025-04-21T03:40:00 | 54.071597 | 7.712776 | 2.0 | 8.211 | 2 | 34.369 | 8.377 | 32.668 | 2 |
| 2025-04-21T03:41:00 | 54.071604 | 7.712349 | 2.0 | 8.215 | 2 | 34.366 | 8.380 | 32.662 | 2 |
| 2025-04-21T03:42:00 | 54.071625 | 7.712137 | 2.0 | 8.219 | 2 | 34.370 | 8.384 | 32.662 | 2 |
| 2025-04-21T03:43:00 | 54.071678 | 7.712041 | 2.0 | 8.221 | 2 | 34.370 | 8.387 | 32.660 | 2 |
| 2025-04-21T03:44:00 | 54.071773 | 7.712068 | 2.0 | 8.221 | 2 | 34.368 | 8.388 | 32.657 | 2 |
| 2025-04-21T03:45:00 | 54.071874 | 7.712132 | 2.0 | 8.222 | 2 | 34.370 | 8.388 | 32.659 | 2 |
| 2025-04-21T03:46:00 | 54.072053 | 7.712188 | 2.0 | 8.223 | 2 | 34.362 | 8.390 | 32.648 | 2 |
| 2025-04-21T03:47:00 | 54.072281 | 7.712503 | 2.0 | 8.220 | 2 | 34.372 | 8.391 | 32.658 | 2 |
| 2025-04-21T03:48:00 | 54.072473 | 7.713197 | 2.0 | 8.214 | 2 | 34.370 | 8.387 | 32.660 | 2 |
| 2025-04-21T03:49:00 | 54.072702 | 7.714100 | 2.0 | 8.209 | 2 | 34.372 | 8.380 | 32.668 | 2 |
| 2025-04-21T03:50:00 | 54.073051 | 7.715348 | 2.0 | 8.204 | 2 | 34.373 | 8.376 | 32.673 | 2 |
| 2025-04-21T03:51:00 | 54.073671 | 7.717379 | 2.0 | 8.195 | 2 | 34.369 | 8.371 | 32.673 | 2 |
| 2025-04-21T03:52:00 | 54.074452 | 7.720129 | 2.0 | 8.188 | 2 | 34.375 | 8.363 | 32.687 | 2 |
| 2025-04-21T03:53:00 | 54.075262 | 7.723467 | 2.0 | 8.184 | 2 | 34.381 | 8.357 | 32.699 | 2 |
| 2025-04-21T03:54:00 | 54.076246 | 7.727553 | 2.0 | 8.174 | 2 | 34.382 | 8.355 | 32.702 | 2 |
| 2025-04-21T03:55:00 | 54.077298 | 7.731938 | 2.0 | 8.161 | 2 | 34.384 | 8.343 | 32.715 | 2 |
| 2025-04-21T03:56:00 | 54.078398 | 7.736531 | 2.0 | 8.149 | 2 | 34.384 | 8.331 | 32.726 | 2 |
| 2025-04-21T03:57:00 | 54.079532 | 7.741273 | 2.0 | 8.139 | 2 | 34.379 | 8.320 | 32.731 | 2 |
| 2025-04-21T03:58:00 | 54.080674 | 7.746050 | 2.0 | 8.108 | 2 | 34.380 | 8.305 | 32.746 | 2 |
| 2025-04-21T03:59:00 | 54.081812 | 7.750838 | 2.0 | 8.075 | 2 | 34.375 | 8.277 | 32.767 | 2 |
| 2025-04-21T04:00:00 | 54.082946 | 7.755635 | 2.0 | 8.057 | 2 | 34.373 | 8.248 | 32.792 | 2 |
| 2025-04-21T04:01:00 | 54.084082 | 7.760415 | 2.0 | 8.070 | 2 | 34.390 | 8.235 | 32.822 | 2 |
| 2025-04-21T04:02:00 | 54.085215 | 7.765189 | 2.0 | 8.061 | 2 | 34.420 | 8.242 | 32.848 | 2 |
| 2025-04-21T04:03:00 | 54.086344 | 7.769949 | 2.0 | 8.048 | 2 | 34.426 | 8.233 | 32.862 | 2 |
| 2025-04-21T04:04:00 | 54.087475 | 7.774709 | 2.0 | 8.078 | 2 | 34.428 | 8.222 | 32.875 | 2 |
| 2025-04-21T04:05:00 | 54.088617 | 7.779474 | 2.0 | 8.125 | 2 | 34.463 | 8.261 | 32.875 | 2 |
| 2025-04-21T04:06:00 | 54.089749 | 7.784223 | 2.0 | 8.149 | 2 | 34.492 | 8.301 | 32.869 | 2 |
| 2025-04-21T04:07:00 | 54.090871 | 7.788958 | 2.0 | 8.150 | 2 | 34.500 | 8.318 | 32.861 | 2 |
| 2025-04-21T04:08:00 | 54.091994 | 7.793698 | 2.0 | 8.171 | 2 | 34.504 | 8.324 | 32.860 | 2 |
| 2025-04-21T04:09:00 | 54.093124 | 7.798439 | 2.0 | 8.200 | 2 | 34.506 | 8.346 | 32.841 | 2 |
| 2025-04-21T04:10:00 | 54.094261 | 7.803181 | 2.0 | 8.234 | 2 | 34.485 | 8.375 | 32.792 | 2 |
| 2025-04-21T04:11:00 | 54.095399 | 7.807898 | 2.0 | 8.248 | 2 | 34.429 | 8.403 | 32.707 | 2 |
| 2025-04-21T04:12:00 | 54.096974 | 7.812141 | 2.0 | 8.273 | 2 | 34.389 | 8.418 | 32.651 | 2 |
| 2025-04-21T04:13:00 | 54.098766 | 7.816145 | 2.0 | 8.308 | 2 | 34.361 | 8.448 | 32.594 | 2 |
| 2025-04-21T04:14:00 | 54.100651 | 7.820026 | 2.0 | 8.313 | 2 | 34.342 | 8.475 | 32.549 | 2 |
| 2025-04-21T04:15:00 | 54.102522 | 7.823905 | 2.0 | 8.282 | 2 | 34.341 | 8.480 | 32.543 | 2 |
| 2025-04-21T04:16:00 | 54.104377 | 7.827797 | 2.0 | 8.256 | 2 | 34.354 | 8.445 | 32.589 | 2 |
| 2025-04-21T04:17:00 | 54.106256 | 7.831687 | 2.0 | 8.202 | 2 | 34.358 | 8.395 | 32.640 | 2 |
| 2025-04-21T04:18:00 | 54.108211 | 7.835550 | 2.0 | 8.336 | 2 | 34.273 | 8.422 | 32.525 | 2 |
| 2025-04-21T04:19:00 | 54.110222 | 7.839492 | 2.0 | 8.528 | 2 | 34.173 | 8.525 | 32.325 | 2 |
| 2025-04-21T04:20:00 | 54.112270 | 7.843454 | 2.0 | 8.872 | 2 | 34.044 | 8.693 | 32.037 | 2 |
| 2025-04-21T04:21:00 | 54.114357 | 7.847395 | 2.0 | 9.130 | 2 | 33.633 | 9.089 | 31.258 | 2 |
| 2025-04-21T04:22:00 | 54.116439 | 7.851326 | 2.0 | 9.181 | 2 | 33.448 | 9.288 | 30.894 | 2 |
| 2025-04-21T04:23:00 | 54.118500 | 7.855290 | 2.0 | 9.086 | 2 | 33.427 | 9.324 | 30.842 | 2 |
| 2025-04-21T04:24:00 | 54.120705 | 7.858984 | 2.0 | 9.049 | 2 | 33.559 | 9.235 | 31.054 | 2 |
| 2025-04-21T04:25:00 | 54.123163 | 7.862223 | 2.0 | 9.129 | 2 | 33.571 | 9.223 | 31.077 | 2 |
| 2025-04-21T04:26:00 | 54.125728 | 7.865203 | 2.0 | 9.158 | 2 | 33.510 | 9.297 | 30.950 | 2 |
| 2025-04-21T04:27:00 | 54.128316 | 7.868114 | 2.0 | 9.260 | 2 | 33.379 | 9.334 | 30.784 | 2 |
| 2025-04-21T04:28:00 | 54.130898 | 7.871011 | 2.0 | 9.276 | 2 | 33.182 | 9.411 | 30.517 | 2 |
| 2025-04-21T04:29:00 | 54.133489 | 7.873899 | 2.0 | 9.323 | 2 | 33.115 | 9.442 | 30.422 | 2 |
| 2025-04-21T04:30:00 | 54.136083 | 7.876769 | 2.0 | 9.354 | 2 | 33.046 | 9.489 | 30.313 | 2 |
| 2025-04-21T04:31:00 | 54.138669 | 7.879570 | 2.0 | 9.358 | 2 | 33.000 | 9.512 | 30.246 | 2 |
| 2025-04-21T04:32:00 | 54.141449 | 7.880933 | 2.0 | 9.363 | 2 | 32.979 | 9.521 | 30.217 | 2 |
| 2025-04-21T04:33:00 | 54.144335 | 7.880790 | 2.0 | 9.364 | 2 | 32.975 | 9.525 | 30.210 | 2 |
| 2025-04-21T04:34:00 | 54.146761 | 7.880845 | 2.0 | 9.353 | 2 | 32.981 | 9.524 | 30.217 | 2 |
| 2025-04-21T04:35:00 | 54.148776 | 7.880898 | 2.0 | 9.351 | 2 | 32.932 | 9.515 | 30.175 | 2 |
| 2025-04-21T04:36:00 | 54.150401 | 7.880927 | 2.0 | 9.339 | 2 | 32.969 | 9.510 | 30.217 | 2 |
| 2025-04-21T04:37:00 | 54.151760 | 7.881051 | 2.0 | 9.323 | 2 | 32.966 | 9.499 | 30.223 | 2 |
| 2025-04-21T04:38:00 | 54.152752 | 7.880836 | 2.0 | 9.315 | 2 | 32.964 | 9.480 | 30.237 | 2 |
| 2025-04-21T04:39:00 | 54.153130 | 7.880335 | 2.0 | 9.316 | 2 | 32.977 | 9.475 | 30.254 | 2 |
| 2025-04-21T04:40:00 | 54.153316 | 7.879996 | 2.0 | 9.307 | 2 | 33.005 | 9.480 | 30.278 | 2 |
| 2025-04-21T04:41:00 | 54.153436 | 7.879753 | 2.0 | 9.291 | 2 | 33.034 | 9.462 | 30.323 | 2 |
| 2025-04-21T04:42:00 | 54.153502 | 7.879620 | 2.0 | 9.315 | 2 | 33.038 | 9.459 | 30.330 | 2 |
| 2025-04-21T04:43:00 | 54.153561 | 7.879563 | 2.0 | 9.310 | 2 | 33.027 | 9.474 | 30.306 | 2 |
| 2025-04-21T04:44:00 | 54.153647 | 7.879531 | 2.0 | 9.318 | 2 | 33.030 | 9.473 | 30.310 | 2 |
| 2025-04-21T04:45:00 | 54.153739 | 7.879485 | 2.0 | 9.319 | 2 | 33.025 | 9.479 | 30.300 | 2 |
| 2025-04-21T04:46:00 | 54.153753 | 7.879405 | 2.0 | 9.319 | 2 | 33.026 | 9.478 | 30.301 | 2 |
| 2025-04-21T04:47:00 | 54.153708 | 7.879796 | 2.0 | 9.326 | 2 | 33.020 | 9.482 | 30.292 | 2 |
| 2025-04-21T04:48:00 | 54.153383 | 7.881125 | 2.0 | 9.334 | 2 | 33.006 | 9.487 | 30.274 | 2 |
| 2025-04-21T04:49:00 | 54.152990 | 7.883163 | 2.0 | 9.336 | 2 | 32.965 | 9.495 | 30.225 | 2 |
| 2025-04-21T04:50:00 | 54.152539 | 7.885347 | 2.0 | 9.348 | 2 | 32.951 | 9.501 | 30.206 | 2 |
| 2025-04-21T04:51:00 | 54.152048 | 7.887628 | 2.0 | 9.349 | 2 | 32.925 | 9.511 | 30.171 | 2 |
| 2025-04-21T04:52:00 | 54.151472 | 7.889827 | 2.0 | 9.349 | 2 | 32.935 | 9.511 | 30.181 | 2 |
| 2025-04-21T04:53:00 | 54.150945 | 7.892056 | 2.0 | 9.349 | 2 | 32.929 | 9.511 | 30.175 | 2 |
| 2025-04-21T04:54:00 | 54.150398 | 7.894247 | 2.0 | 9.348 | 2 | 32.928 | 9.510 | 30.175 | 2 |
| 2025-04-21T04:55:00 | 54.149887 | 7.896472 | 2.0 | 9.347 | 2 | 32.889 | 9.511 | 30.135 | 2 |
| 2025-04-21T04:56:00 | 54.149337 | 7.898660 | 2.0 | 9.343 | 2 | 32.928 | 9.509 | 30.176 | 2 |
| 2025-04-21T04:57:00 | 54.148812 | 7.900891 | 2.0 | 9.341 | 2 | 32.925 | 9.506 | 30.175 | 2 |
| 2025-04-21T04:58:00 | 54.148311 | 7.903142 | 2.0 | 9.337 | 2 | 32.922 | 9.503 | 30.175 | 2 |
| 2025-04-21T04:59:00 | 54.147794 | 7.905401 | 2.0 | 9.333 | 2 | 32.921 | 9.499 | 30.177 | 2 |
| 2025-04-21T05:00:00 | 54.147203 | 7.907616 | 2.0 | 9.329 | 2 | 32.923 | 9.496 | 30.182 | 2 |
| 2025-04-21T05:01:00 | 54.146563 | 7.909765 | 2.0 | 9.323 | 2 | 32.922 | 9.492 | 30.184 | 2 |
| 2025-04-21T05:02:00 | 54.146605 | 7.911912 | 2.0 | 9.315 | 2 | 32.666 | 9.484 | 29.931 | 2 |
| 2025-04-21T05:03:00 | 54.146907 | 7.914030 | 2.0 | 9.309 | 2 | 32.602 | 9.476 | 29.873 | 2 |
| 2025-04-21T05:04:00 | 54.146231 | 7.915499 | 2.0 | 9.308 | 2 | 32.913 | 9.471 | 30.193 | 2 |
| 2025-04-21T05:05:00 | 54.145284 | 7.914823 | 2.0 | 9.311 | 2 | 32.913 | 9.471 | 30.193 | 2 |
| 2025-04-21T05:06:00 | 54.145173 | 7.912890 | 2.0 | 9.317 | 2 | 32.643 | 9.474 | 29.916 | 2 |
| 2025-04-21T05:07:00 | 54.145585 | 7.910762 | 2.0 | 9.323 | 2 | 32.616 | 9.482 | 29.882 | 2 |
| 2025-04-21T05:08:00 | 54.145961 | 7.908606 | 2.0 | 9.327 | 2 | 32.715 | 9.486 | 29.979 | 2 |
| 2025-04-21T05:09:00 | 54.146538 | 7.906459 | 2.0 | 9.329 | 2 | 32.746 | 9.491 | 30.006 | 2 |
| 2025-04-21T05:10:00 | 54.147052 | 7.904208 | 2.0 | 9.331 | 2 | 32.919 | 9.492 | 30.181 | 2 |
| 2025-04-21T05:11:00 | 54.147674 | 7.902000 | 2.0 | 9.336 | 2 | 32.920 | 9.495 | 30.179 | 2 |
| 2025-04-21T05:12:00 | 54.148173 | 7.899688 | 2.0 | 9.340 | 2 | 32.921 | 9.500 | 30.176 | 2 |
| 2025-04-21T05:13:00 | 54.148705 | 7.897360 | 2.0 | 9.345 | 2 | 32.576 | 9.503 | 29.824 | 2 |
| 2025-04-21T05:14:00 | 54.149266 | 7.895086 | 2.0 | 9.345 | 2 | 32.916 | 9.507 | 30.165 | 2 |
| 2025-04-21T05:15:00 | 54.149954 | 7.893016 | 2.0 | 9.344 | 2 | 32.829 | 9.507 | 30.077 | 2 |
| 2025-04-21T05:16:00 | 54.150675 | 7.891084 | 2.0 | 9.346 | 2 | 32.927 | 9.507 | 30.176 | 2 |
| 2025-04-21T05:17:00 | 54.150974 | 7.889031 | 2.0 | 9.352 | 2 | 32.693 | 9.509 | 29.937 | 2 |
| 2025-04-21T05:18:00 | 54.151310 | 7.886976 | 2.0 | 9.352 | 2 | 32.707 | 9.514 | 29.947 | 2 |
| 2025-04-21T05:19:00 | 54.151847 | 7.884948 | 2.0 | 9.352 | 2 | 32.679 | 9.513 | 29.920 | 2 |
| 2025-04-21T05:20:00 | 54.152385 | 7.882768 | 2.0 | 9.355 | 2 | 32.548 | 9.515 | 29.785 | 2 |
| 2025-04-21T05:21:00 | 54.152938 | 7.880489 | 2.0 | 9.359 | 2 | 32.579 | 9.519 | 29.814 | 2 |
| 2025-04-21T05:22:00 | 54.153497 | 7.878177 | 2.0 | 9.360 | 2 | 32.893 | 9.522 | 30.129 | 2 |
| 2025-04-21T05:23:00 | 54.154052 | 7.875846 | 2.0 | 9.351 | 2 | 32.929 | 9.523 | 30.165 | 2 |
| 2025-04-21T05:24:00 | 54.154647 | 7.873542 | 2.0 | 9.339 | 2 | 32.747 | 9.512 | 29.990 | 2 |
| 2025-04-21T05:25:00 | 54.155248 | 7.871253 | 2.0 | 9.328 | 2 | 32.928 | 9.501 | 30.183 | 2 |
| 2025-04-21T05:26:00 | 54.155825 | 7.868951 | 2.0 | 9.293 | 2 | 32.998 | 9.484 | 30.268 | 2 |
| 2025-04-21T05:27:00 | 54.156399 | 7.866637 | 2.0 | 9.292 | 2 | 32.955 | 9.466 | 30.239 | 2 |
| 2025-04-21T05:28:00 | 54.157003 | 7.864323 | 2.0 | 9.272 | 2 | 33.049 | 9.451 | 30.348 | 2 |
| 2025-04-21T05:29:00 | 54.157596 | 7.862033 | 2.0 | 9.250 | 2 | 33.099 | 9.434 | 30.413 | 2 |
| 2025-04-21T05:30:00 | 54.158164 | 7.859815 | 2.0 | 9.232 | 2 | 33.004 | 9.415 | 30.332 | 2 |
| 2025-04-21T05:31:00 | 54.158669 | 7.857700 | 2.0 | 9.218 | 2 | 33.005 | 9.393 | 30.352 | 2 |
| 2025-04-21T05:32:00 | 54.159165 | 7.855585 | 2.0 | 9.214 | 2 | 32.997 | 9.382 | 30.353 | 2 |
| 2025-04-21T05:33:00 | 54.159675 | 7.853425 | 2.0 | 9.211 | 2 | 33.185 | 9.379 | 30.547 | 2 |
| 2025-04-21T05:34:00 | 54.160165 | 7.851319 | 2.0 | 9.207 | 2 | 33.112 | 9.374 | 30.477 | 2 |
| 2025-04-21T05:35:00 | 54.160848 | 7.849441 | 2.0 | 9.184 | 2 | 33.165 | 9.362 | 30.542 | 2 |
| 2025-04-21T05:36:00 | 54.161903 | 7.848261 | 2.0 | 9.189 | 2 | 33.275 | 9.347 | 30.667 | 2 |
| 2025-04-21T05:37:00 | 54.162498 | 7.846540 | 2.0 | 9.188 | 2 | 33.162 | 9.352 | 30.547 | 2 |
| 2025-04-21T05:38:00 | 54.161961 | 7.845597 | 2.0 | 9.164 | 2 | 33.098 | 9.347 | 30.486 | 2 |
| 2025-04-21T05:39:00 | 54.161050 | 7.846162 | 2.0 | 9.159 | 2 | 33.142 | 9.326 | 30.549 | 2 |
| 2025-04-21T05:40:00 | 54.160121 | 7.847726 | 2.0 | 9.208 | 2 | 33.122 | 9.332 | 30.523 | 2 |
| 2025-04-21T05:41:00 | 54.159422 | 7.849891 | 2.0 | 9.209 | 2 | 33.170 | 9.374 | 30.536 | 2 |
| 2025-04-21T05:42:00 | 54.158887 | 7.852018 | 2.0 | 9.215 | 2 | 33.130 | 9.373 | 30.496 | 2 |
| 2025-04-21T05:43:00 | 54.158361 | 7.854030 | 2.0 | 9.229 | 2 | 33.133 | 9.381 | 30.493 | 2 |
| 2025-04-21T05:44:00 | 54.157857 | 7.856049 | 2.0 | 9.247 | 2 | 33.077 | 9.395 | 30.424 | 2 |
| 2025-04-21T05:45:00 | 54.157324 | 7.858136 | 2.0 | 9.273 | 2 | 33.031 | 9.413 | 30.362 | 2 |
| 2025-04-21T05:46:00 | 54.156737 | 7.860244 | 2.0 | 9.297 | 2 | 32.982 | 9.440 | 30.289 | 2 |
| 2025-04-21T05:47:00 | 54.156155 | 7.862401 | 2.0 | 9.312 | 2 | 32.979 | 9.462 | 30.267 | 2 |
| 2025-04-21T05:48:00 | 54.155589 | 7.864588 | 2.0 | 9.322 | 2 | 32.974 | 9.476 | 30.250 | 2 |
| 2025-04-21T05:49:00 | 54.155052 | 7.866821 | 2.0 | 9.352 | 2 | 32.990 | 9.489 | 30.256 | 2 |
| 2025-04-21T05:50:00 | 54.154542 | 7.869106 | 2.0 | 9.356 | 2 | 32.944 | 9.513 | 30.189 | 2 |
| 2025-04-21T05:51:00 | 54.154027 | 7.871393 | 2.0 | 9.368 | 2 | 32.908 | 9.520 | 30.146 | 2 |
| 2025-04-21T05:52:00 | 54.153493 | 7.873675 | 2.0 | 9.368 | 2 | 32.916 | 9.529 | 30.147 | 2 |
| 2025-04-21T05:53:00 | 54.152892 | 7.875881 | 2.0 | 9.364 | 2 | 32.913 | 9.531 | 30.142 | 2 |
| 2025-04-21T05:54:00 | 54.152308 | 7.878065 | 2.0 | 9.356 | 2 | 32.877 | 9.525 | 30.111 | 2 |
| 2025-04-21T05:55:00 | 54.151772 | 7.880263 | 2.0 | 9.352 | 2 | 32.883 | 9.518 | 30.123 | 2 |
| 2025-04-21T05:56:00 | 54.151293 | 7.882517 | 2.0 | 9.348 | 2 | 32.889 | 9.514 | 30.132 | 2 |
| 2025-04-21T05:57:00 | 54.150752 | 7.884728 | 2.0 | 9.346 | 2 | 32.894 | 9.511 | 30.140 | 2 |
| 2025-04-21T05:58:00 | 54.150159 | 7.886888 | 2.0 | 9.344 | 2 | 32.913 | 9.508 | 30.161 | 2 |
| 2025-04-21T05:59:00 | 54.149590 | 7.889076 | 2.0 | 9.342 | 2 | 32.925 | 9.507 | 30.174 | 2 |
| 2025-04-21T06:00:00 | 54.149002 | 7.891253 | 2.0 | 9.330 | 2 | 32.905 | 9.503 | 30.157 | 2 |
| 2025-04-21T06:01:00 | 54.148450 | 7.893479 | 2.0 | 9.323 | 2 | 32.918 | 9.493 | 30.179 | 2 |
| 2025-04-21T06:02:00 | 54.147934 | 7.895760 | 2.0 | 9.320 | 2 | 32.929 | 9.486 | 30.196 | 2 |
| 2025-04-21T06:03:00 | 54.147382 | 7.898032 | 2.0 | 9.321 | 2 | 32.928 | 9.483 | 30.198 | 2 |
| 2025-04-21T06:04:00 | 54.146790 | 7.900291 | 2.0 | 9.319 | 2 | 32.939 | 9.483 | 30.209 | 2 |
| 2025-04-21T06:05:00 | 54.146214 | 7.902577 | 2.0 | 9.315 | 2 | 32.940 | 9.482 | 30.211 | 2 |
| 2025-04-21T06:06:00 | 54.145636 | 7.904870 | 2.0 | 9.308 | 2 | 32.945 | 9.478 | 30.219 | 2 |
| 2025-04-21T06:07:00 | 54.145087 | 7.907195 | 2.0 | 9.309 | 2 | 32.953 | 9.473 | 30.232 | 2 |
| 2025-04-21T06:08:00 | 54.144567 | 7.909507 | 2.0 | 9.307 | 2 | 32.968 | 9.473 | 30.247 | 2 |
| 2025-04-21T06:09:00 | 54.143871 | 7.910083 | 2.0 | 9.300 | 2 | 32.982 | 9.469 | 30.264 | 2 |
| 2025-04-21T06:10:00 | 54.143725 | 7.907929 | 2.0 | 9.307 | 2 | 33.009 | 9.466 | 30.294 | 2 |
| 2025-04-21T06:11:00 | 54.144274 | 7.905332 | 2.0 | 9.310 | 2 | 33.002 | 9.473 | 30.281 | 2 |
| 2025-04-21T06:12:00 | 54.144911 | 7.903017 | 2.0 | 9.310 | 2 | 32.976 | 9.475 | 30.253 | 2 |
| 2025-04-21T06:13:00 | 54.145356 | 7.900698 | 2.0 | 9.314 | 2 | 32.950 | 9.475 | 30.227 | 2 |
| 2025-04-21T06:14:00 | 54.145842 | 7.898414 | 2.0 | 9.314 | 2 | 32.948 | 9.478 | 30.222 | 2 |
| 2025-04-21T06:15:00 | 54.146440 | 7.896243 | 2.0 | 9.315 | 2 | 32.951 | 9.478 | 30.225 | 2 |
| 2025-04-21T06:16:00 | 54.147002 | 7.894113 | 2.0 | 9.316 | 2 | 32.949 | 9.478 | 30.223 | 2 |
| 2025-04-21T06:17:00 | 54.147502 | 7.892032 | 2.0 | 9.321 | 2 | 32.942 | 9.481 | 30.214 | 2 |
| 2025-04-21T06:18:00 | 54.148000 | 7.890019 | 2.0 | 9.325 | 2 | 32.940 | 9.485 | 30.208 | 2 |
| 2025-04-21T06:19:00 | 54.148506 | 7.888064 | 2.0 | 9.330 | 2 | 32.939 | 9.489 | 30.204 | 2 |
| 2025-04-21T06:20:00 | 54.148989 | 7.886130 | 2.0 | 9.338 | 2 | 32.943 | 9.494 | 30.204 | 2 |
| 2025-04-21T06:21:00 | 54.149489 | 7.884145 | 2.0 | 9.342 | 2 | 32.939 | 9.502 | 30.193 | 2 |
| 2025-04-21T06:22:00 | 54.150008 | 7.882105 | 2.0 | 9.343 | 2 | 32.931 | 9.505 | 30.182 | 2 |
| 2025-04-21T06:23:00 | 54.150558 | 7.880042 | 2.0 | 9.343 | 2 | 32.926 | 9.506 | 30.176 | 2 |
| 2025-04-21T06:24:00 | 54.151114 | 7.878001 | 2.0 | 9.344 | 2 | 32.922 | 9.506 | 30.172 | 2 |
| 2025-04-21T06:25:00 | 54.151664 | 7.875923 | 2.0 | 9.345 | 2 | 32.919 | 9.507 | 30.168 | 2 |
| 2025-04-21T06:26:00 | 54.152190 | 7.873800 | 2.0 | 9.346 | 2 | 32.917 | 9.509 | 30.165 | 2 |
| 2025-04-21T06:27:00 | 54.152677 | 7.871639 | 2.0 | 9.351 | 2 | 32.907 | 9.509 | 30.154 | 2 |
| 2025-04-21T06:28:00 | 54.153155 | 7.869491 | 2.0 | 9.368 | 2 | 32.915 | 9.517 | 30.156 | 2 |
| 2025-04-21T06:29:00 | 54.153664 | 7.867327 | 2.0 | 9.372 | 2 | 32.934 | 9.531 | 30.163 | 2 |
| 2025-04-21T06:30:00 | 54.154208 | 7.865128 | 2.0 | 9.370 | 2 | 32.946 | 9.534 | 30.173 | 2 |
| 2025-04-21T06:31:00 | 54.154735 | 7.862913 | 2.0 | 9.369 | 2 | 32.953 | 9.533 | 30.181 | 2 |
| 2025-04-21T06:32:00 | 54.155206 | 7.860737 | 2.0 | 9.366 | 2 | 32.960 | 9.532 | 30.189 | 2 |
| 2025-04-21T06:33:00 | 54.155794 | 7.858632 | 2.0 | 9.362 | 2 | 32.965 | 9.529 | 30.197 | 2 |
| 2025-04-21T06:34:00 | 54.156417 | 7.856565 | 2.0 | 9.363 | 2 | 32.972 | 9.526 | 30.206 | 2 |
| 2025-04-21T06:35:00 | 54.156959 | 7.854480 | 2.0 | 9.359 | 2 | 32.993 | 9.526 | 30.227 | 2 |
| 2025-04-21T06:36:00 | 54.157481 | 7.852360 | 2.0 | 9.357 | 2 | 33.007 | 9.522 | 30.245 | 2 |
| 2025-04-21T06:37:00 | 54.157997 | 7.850257 | 2.0 | 9.348 | 2 | 33.016 | 9.518 | 30.258 | 2 |
| 2025-04-21T06:38:00 | 54.158535 | 7.848165 | 2.0 | 9.349 | 2 | 33.027 | 9.511 | 30.275 | 2 |
| 2025-04-21T06:39:00 | 54.159130 | 7.846159 | 2.0 | 9.311 | 2 | 33.022 | 9.506 | 30.274 | 2 |
| 2025-04-21T06:40:00 | 54.160278 | 7.845123 | 2.0 | 9.318 | 2 | 33.050 | 9.476 | 30.328 | 2 |
| 2025-04-21T06:41:00 | 54.161686 | 7.844834 | 2.0 | 9.337 | 2 | 33.040 | 9.485 | 30.310 | 2 |
| 2025-04-21T06:42:00 | 54.163289 | 7.843900 | 2.0 | 9.330 | 2 | 33.024 | 9.498 | 30.283 | 2 |
| 2025-04-21T06:43:00 | 54.164577 | 7.841332 | 2.0 | 9.266 | 2 | 33.052 | 9.487 | 30.320 | 2 |
| 2025-04-21T06:44:00 | 54.165646 | 7.837367 | 2.0 | 9.223 | 2 | 33.192 | 9.431 | 30.510 | 2 |
| 2025-04-21T06:45:00 | 54.167068 | 7.832765 | 2.0 | 9.152 | 2 | 33.268 | 9.382 | 30.630 | 2 |
| 2025-04-21T06:46:00 | 54.168459 | 7.827914 | 2.0 | 9.077 | 2 | 33.386 | 9.308 | 30.814 | 2 |
| 2025-04-21T06:47:00 | 54.169814 | 7.822961 | 2.0 | 8.992 | 2 | 33.522 | 9.234 | 31.017 | 2 |
| 2025-04-21T06:48:00 | 54.171178 | 7.818024 | 2.0 | 8.929 | 2 | 33.629 | 9.160 | 31.191 | 2 |
| 2025-04-21T06:49:00 | 54.172640 | 7.813209 | 2.0 | 8.675 | 2 | 33.742 | 9.047 | 31.407 | 2 |
| 2025-04-21T06:50:00 | 54.174028 | 7.808283 | 2.0 | 8.591 | 2 | 33.881 | 8.852 | 31.724 | 2 |
| 2025-04-21T06:51:00 | 54.175678 | 7.803543 | 2.0 | 8.559 | 2 | 33.934 | 8.797 | 31.829 | 2 |
| 2025-04-21T06:52:00 | 54.178373 | 7.801252 | 2.0 | 8.615 | 2 | 33.973 | 8.741 | 31.920 | 2 |
| 2025-04-21T06:53:00 | 54.181253 | 7.802358 | 2.0 | 8.764 | 2 | 33.921 | 8.822 | 31.793 | 2 |
| 2025-04-21T06:54:00 | 54.184322 | 7.803230 | 2.0 | 8.813 | 2 | 33.849 | 8.928 | 31.623 | 2 |
| 2025-04-21T06:55:00 | 54.187424 | 7.804169 | 2.0 | 8.855 | 2 | 33.794 | 8.981 | 31.519 | 2 |
| 2025-04-21T06:56:00 | 54.190568 | 7.805133 | 2.0 | 8.853 | 2 | 33.758 | 9.014 | 31.453 | 2 |
| 2025-04-21T06:57:00 | 54.193753 | 7.806110 | 2.0 | 8.827 | 2 | 33.763 | 8.996 | 31.474 | 2 |
| 2025-04-21T06:58:00 | 54.196943 | 7.807101 | 2.0 | 8.829 | 2 | 33.739 | 9.012 | 31.435 | 2 |
| 2025-04-21T06:59:00 | 54.200143 | 7.808054 | 2.0 | 8.879 | 2 | 33.730 | 8.999 | 31.437 | 2 |
| 2025-04-21T07:00:00 | 54.203341 | 7.809023 | 2.0 | 8.925 | 2 | 33.679 | 9.048 | 31.341 | 2 |
| 2025-04-21T07:01:00 | 54.206535 | 7.810006 | 2.0 | 8.810 | 2 | 33.617 | 9.088 | 31.242 | 2 |
| 2025-04-21T07:02:00 | 54.209727 | 7.810789 | 2.0 | 8.767 | 2 | 33.566 | 8.945 | 31.315 | 2 |
| 2025-04-21T07:03:00 | 54.212949 | 7.811392 | 2.0 | 8.821 | 2 | 33.450 | 8.986 | 31.159 | 2 |
| 2025-04-21T07:04:00 | 54.216147 | 7.810544 | 2.0 | 8.770 | 2 | 33.430 | 8.967 | 31.155 | 2 |
| 2025-04-21T07:05:00 | 54.219365 | 7.809717 | 2.0 | 8.915 | 2 | 33.448 | 8.957 | 31.183 | 2 |
| 2025-04-21T07:06:00 | 54.222572 | 7.808834 | 2.0 | 8.804 | 2 | 33.458 | 9.065 | 31.098 | 2 |
| 2025-04-21T07:07:00 | 54.225777 | 7.807930 | 2.0 | 8.657 | 2 | 33.483 | 8.938 | 31.235 | 2 |
| 2025-04-21T07:08:00 | 54.228977 | 7.807098 | 2.0 | 8.550 | 2 | 33.530 | 8.818 | 31.390 | 2 |
| 2025-04-21T07:09:00 | 54.232148 | 7.806200 | 2.0 | 8.558 | 2 | 33.597 | 8.720 | 31.547 | 2 |
| 2025-04-21T07:10:00 | 54.235245 | 7.805288 | 2.0 | 8.525 | 2 | 33.625 | 8.741 | 31.557 | 2 |
| 2025-04-21T07:11:00 | 54.238301 | 7.804445 | 2.0 | 8.439 | 2 | 33.649 | 8.692 | 31.626 | 2 |
| 2025-04-21T07:12:00 | 54.241335 | 7.803609 | 2.0 | 8.386 | 2 | 33.703 | 8.613 | 31.753 | 2 |
| 2025-04-21T07:13:00 | 54.244352 | 7.802689 | 2.0 | 8.366 | 2 | 33.763 | 8.558 | 31.865 | 2 |
| 2025-04-21T07:14:00 | 54.247323 | 7.801878 | 2.0 | 8.329 | 2 | 33.765 | 8.545 | 31.879 | 2 |
| 2025-04-21T07:15:00 | 54.250323 | 7.800945 | 2.0 | 8.375 | 2 | 33.803 | 8.508 | 31.952 | 2 |
| 2025-04-21T07:16:00 | 54.253363 | 7.800203 | 2.0 | 8.469 | 2 | 33.797 | 8.577 | 31.884 | 2 |
| 2025-04-21T07:17:00 | 54.256402 | 7.799373 | 2.0 | 8.461 | 2 | 33.773 | 8.645 | 31.797 | 2 |
| 2025-04-21T07:18:00 | 54.259437 | 7.798542 | 2.0 | 8.481 | 2 | 33.781 | 8.638 | 31.812 | 2 |
| 2025-04-21T07:19:00 | 54.262491 | 7.797706 | 2.0 | 8.406 | 2 | 33.805 | 8.639 | 31.836 | 2 |
| 2025-04-21T07:20:00 | 54.265583 | 7.796909 | 2.0 | 8.377 | 2 | 33.802 | 8.573 | 31.893 | 2 |
| 2025-04-21T07:21:00 | 54.268695 | 7.796053 | 2.0 | 8.404 | 2 | 33.802 | 8.560 | 31.904 | 2 |
| 2025-04-21T07:22:00 | 54.271795 | 7.795174 | 2.0 | 8.456 | 2 | 33.830 | 8.571 | 31.924 | 2 |
| 2025-04-21T07:23:00 | 54.274874 | 7.794286 | 2.0 | 8.454 | 2 | 33.784 | 8.626 | 31.826 | 2 |
| 2025-04-21T07:24:00 | 54.277941 | 7.793526 | 2.0 | 8.515 | 2 | 33.760 | 8.637 | 31.791 | 2 |
| 2025-04-21T07:25:00 | 54.281004 | 7.792734 | 2.0 | 8.324 | 2 | 33.744 | 8.660 | 31.754 | 2 |
| 2025-04-21T07:26:00 | 54.284056 | 7.791889 | 2.0 | 8.274 | 2 | 33.840 | 8.494 | 32.004 | 2 |
| 2025-04-21T07:27:00 | 54.287106 | 7.791075 | 2.0 | 8.354 | 2 | 33.840 | 8.469 | 32.027 | 2 |
| 2025-04-21T07:28:00 | 54.290143 | 7.790298 | 2.0 | 8.376 | 2 | 33.832 | 8.515 | 31.976 | 2 |
| 2025-04-21T07:29:00 | 54.293160 | 7.789490 | 2.0 | 8.521 | 2 | 33.796 | 8.573 | 31.886 | 2 |
| 2025-04-21T07:30:00 | 54.296169 | 7.788696 | 2.0 | 8.561 | 2 | 33.727 | 8.692 | 31.707 | 2 |
| 2025-04-21T07:31:00 | 54.299185 | 7.787889 | 2.0 | 8.592 | 2 | 33.696 | 8.729 | 31.642 | 2 |
| 2025-04-21T07:32:00 | 54.302207 | 7.787114 | 2.0 | 8.578 | 2 | 33.681 | 8.754 | 31.604 | 2 |
| 2025-04-21T07:33:00 | 54.305243 | 7.786320 | 2.0 | 8.558 | 2 | 33.691 | 8.733 | 31.633 | 2 |
| 2025-04-21T07:34:00 | 54.308265 | 7.785491 | 2.0 | 8.573 | 2 | 33.701 | 8.731 | 31.645 | 2 |
| 2025-04-21T07:35:00 | 54.311281 | 7.784708 | 2.0 | 8.517 | 2 | 33.702 | 8.740 | 31.638 | 2 |
| 2025-04-21T07:36:00 | 54.314301 | 7.783882 | 2.0 | 8.467 | 2 | 33.780 | 8.670 | 31.782 | 2 |
| 2025-04-21T07:37:00 | 54.317298 | 7.783029 | 2.0 | 8.555 | 2 | 33.799 | 8.667 | 31.805 | 2 |
| 2025-04-21T07:38:00 | 54.320286 | 7.782251 | 2.0 | 8.616 | 2 | 33.751 | 8.727 | 31.701 | 2 |
| 2025-04-21T07:39:00 | 54.323260 | 7.781398 | 2.0 | 8.599 | 2 | 33.699 | 8.775 | 31.604 | 2 |
| 2025-04-21T07:40:00 | 54.326224 | 7.780623 | 2.0 | 8.614 | 2 | 33.710 | 8.771 | 31.619 | 2 |
| 2025-04-21T07:41:00 | 54.329211 | 7.779804 | 2.0 | 8.628 | 2 | 33.603 | 8.784 | 31.496 | 2 |
| 2025-04-21T07:42:00 | 54.332206 | 7.778963 | 2.0 | 8.654 | 2 | 33.711 | 8.799 | 31.595 | 2 |
| 2025-04-21T07:43:00 | 54.335212 | 7.778186 | 2.0 | 8.663 | 2 | 33.707 | 8.824 | 31.568 | 2 |
| 2025-04-21T07:44:00 | 54.338176 | 7.777347 | 2.0 | 8.661 | 2 | 33.701 | 8.831 | 31.556 | 2 |
| 2025-04-21T07:45:00 | 54.341163 | 7.776519 | 2.0 | 8.667 | 2 | 33.626 | 8.831 | 31.478 | 2 |
| 2025-04-21T07:46:00 | 54.344177 | 7.775690 | 2.0 | 8.665 | 2 | 33.418 | 8.834 | 31.260 | 2 |
| 2025-04-21T07:47:00 | 54.347196 | 7.774912 | 2.0 | 8.668 | 2 | 33.710 | 8.835 | 31.562 | 2 |
| 2025-04-21T07:48:00 | 54.350195 | 7.774111 | 2.0 | 8.656 | 2 | 33.714 | 8.836 | 31.565 | 2 |
| 2025-04-21T07:49:00 | 54.353177 | 7.773265 | 2.0 | 8.639 | 2 | 33.732 | 8.825 | 31.594 | 2 |
| 2025-04-21T07:50:00 | 54.356161 | 7.772531 | 2.0 | 8.630 | 2 | 33.755 | 8.810 | 31.631 | 2 |
| 2025-04-21T07:51:00 | 54.359128 | 7.771660 | 2.0 | 8.607 | 2 | 33.763 | 8.797 | 31.651 | 2 |
| 2025-04-21T07:52:00 | 54.362091 | 7.770622 | 2.0 | 8.576 | 2 | 33.570 | 8.774 | 31.471 | 2 |
| 2025-04-21T07:53:00 | 54.365048 | 7.769655 | 2.0 | 8.556 | 2 | 33.659 | 8.743 | 31.591 | 2 |
| 2025-04-21T07:54:00 | 54.368026 | 7.768628 | 2.0 | 8.610 | 2 | 33.667 | 8.735 | 31.606 | 2 |
| 2025-04-21T07:55:00 | 54.371024 | 7.767628 | 2.0 | 8.654 | 2 | 33.685 | 8.784 | 31.581 | 2 |
| 2025-04-21T07:56:00 | 54.373983 | 7.766658 | 2.0 | 8.676 | 2 | 33.680 | 8.827 | 31.538 | 2 |
| 2025-04-21T07:57:00 | 54.376571 | 7.765721 | 2.0 | 8.676 | 2 | 33.679 | 8.843 | 31.523 | 2 |
| 2025-04-21T07:58:00 | 54.378850 | 7.764959 | 2.0 | 8.675 | 2 | 33.686 | 8.845 | 31.528 | 2 |
| 2025-04-21T07:59:00 | 54.380995 | 7.764267 | 2.0 | 8.668 | 2 | 33.846 | 8.840 | 31.699 | 2 |
| 2025-04-21T08:00:00 | 54.383076 | 7.763559 | 2.0 | 8.670 | 2 | 33.831 | 8.835 | 31.687 | 2 |
| 2025-04-21T08:01:00 | 54.385137 | 7.762881 | 2.0 | 8.683 | 2 | 33.742 | 8.839 | 31.591 | 2 |
| 2025-04-21T08:02:00 | 54.387205 | 7.762153 | 2.0 | 8.688 | 2 | 33.833 | 8.850 | 31.676 | 2 |
| 2025-04-21T08:03:00 | 54.389290 | 7.761486 | 2.0 | 8.698 | 2 | 33.821 | 8.856 | 31.658 | 2 |
| 2025-04-21T08:04:00 | 54.391368 | 7.760859 | 2.0 | 8.691 | 2 | 33.822 | 8.864 | 31.652 | 2 |
| 2025-04-21T08:05:00 | 54.393423 | 7.760150 | 2.0 | 8.681 | 2 | 33.616 | 8.853 | 31.448 | 2 |
| 2025-04-21T08:06:00 | 54.395487 | 7.759455 | 2.0 | 8.685 | 2 | 33.699 | 8.849 | 31.538 | 2 |
| 2025-04-21T08:07:00 | 54.397325 | 7.758331 | 2.0 | 8.693 | 2 | 33.672 | 8.857 | 31.503 | 2 |
| 2025-04-21T08:08:00 | 54.398631 | 7.756656 | 2.0 | 8.677 | 2 | 33.637 | 8.867 | 31.458 | 2 |
| 2025-04-21T08:09:00 | 54.399680 | 7.754935 | 2.0 | 8.683 | 2 | 33.807 | 8.858 | 31.642 | 2 |
| 2025-04-21T08:10:00 | 54.400561 | 7.754002 | 2.0 | 8.685 | 2 | 33.695 | 8.865 | 31.520 | 2 |
| 2025-04-21T08:11:00 | 54.400929 | 7.754037 | 2.0 | 8.671 | 2 | 33.775 | 8.867 | 31.601 | 2 |
| 2025-04-21T08:12:00 | 54.401001 | 7.754156 | 2.0 | 8.678 | 2 | 33.585 | 8.855 | 31.414 | 2 |
| 2025-04-21T08:13:00 | 54.400853 | 7.754594 | 2.0 | 8.683 | 2 | 33.790 | 8.868 | 31.615 | 2 |
| 2025-04-21T08:14:00 | 54.400603 | 7.754971 | 2.0 | 8.683 | 2 | 33.714 | 8.872 | 31.533 | 2 |
| 2025-04-21T08:15:00 | 54.400323 | 7.755277 | 2.0 | 8.684 | 2 | 33.758 | 8.873 | 31.578 | 2 |
| 2025-04-21T08:16:00 | 54.400013 | 7.755497 | 2.0 | 8.682 | 2 | 33.688 | 8.872 | 31.506 | 2 |
| 2025-04-21T08:17:00 | 54.399701 | 7.755704 | 2.0 | 8.683 | 2 | 33.732 | 8.873 | 31.551 | 2 |
| 2025-04-21T08:18:00 | 54.399412 | 7.755977 | 2.0 | 8.690 | 2 | 33.741 | 8.875 | 31.558 | 2 |
| 2025-04-21T08:19:00 | 54.399129 | 7.756290 | 2.0 | 8.691 | 2 | 33.681 | 8.880 | 31.492 | 2 |
| 2025-04-21T08:20:00 | 54.398838 | 7.756584 | 2.0 | 8.664 | 2 | 33.738 | 8.875 | 31.555 | 2 |
| 2025-04-21T08:21:00 | 54.398479 | 7.756940 | 2.0 | 8.656 | 2 | 33.728 | 8.853 | 31.564 | 2 |
| 2025-04-21T08:22:00 | 54.398172 | 7.757235 | 2.0 | 8.580 | 2 | 33.730 | 8.849 | 31.570 | 2 |
| 2025-04-21T08:23:00 | 54.398022 | 7.757348 | 2.0 | 8.567 | 2 | 33.714 | 8.769 | 31.625 | 2 |
| 2025-04-21T08:24:00 | 54.397963 | 7.757406 | 2.0 | 8.534 | 2 | 33.724 | 8.747 | 31.655 | 2 |
| 2025-04-21T08:25:00 | 54.397817 | 7.757650 | 2.0 | 8.671 | 2 | 33.700 | 8.779 | 31.601 | 2 |
| 2025-04-21T08:26:00 | 54.397673 | 7.757839 | 2.0 | 8.658 | 2 | 33.678 | 8.853 | 31.513 | 2 |
| 2025-04-21T08:27:00 | 54.397455 | 7.758065 | 2.0 | 8.679 | 2 | 33.697 | 8.857 | 31.529 | 2 |
| 2025-04-21T08:28:00 | 54.397200 | 7.758413 | 2.0 | 8.688 | 2 | 33.726 | 8.874 | 31.544 | 2 |
| 2025-04-21T08:29:00 | 54.396963 | 7.758724 | 2.0 | 8.690 | 2 | 33.732 | 8.884 | 31.541 | 2 |
| 2025-04-21T08:30:00 | 54.396813 | 7.758864 | 2.0 | 8.515 | 2 | 33.734 | 8.876 | 31.550 | 2 |
| 2025-04-21T08:31:00 | 54.396839 | 7.758800 | 2.0 | 8.436 | 2 | 33.799 | 8.661 | 31.810 | 2 |
| 2025-04-21T08:32:00 | 54.396844 | 7.758820 | 2.0 | 8.692 | 2 | 33.766 | 8.720 | 31.723 | 2 |
| 2025-04-21T08:33:00 | 54.396828 | 7.758846 | 2.0 | 8.650 | 2 | 33.771 | 8.877 | 31.588 | 2 |
| 2025-04-21T08:34:00 | 54.396893 | 7.758766 | 2.0 | 8.631 | 2 | 33.761 | 8.841 | 31.609 | 2 |
| 2025-04-21T08:35:00 | 54.396928 | 7.758762 | 2.0 | 8.701 | 2 | 33.769 | 8.825 | 31.632 | 2 |
| 2025-04-21T08:36:00 | 54.396883 | 7.758813 | 2.0 | 8.692 | 2 | 33.784 | 8.889 | 31.591 | 2 |
| 2025-04-21T08:37:00 | 54.396840 | 7.758838 | 2.0 | 8.689 | 2 | 33.786 | 8.892 | 31.590 | 2 |
| 2025-04-21T08:38:00 | 54.396809 | 7.758851 | 2.0 | 8.689 | 2 | 33.783 | 8.888 | 31.590 | 2 |
| 2025-04-21T08:39:00 | 54.396803 | 7.758863 | 2.0 | 8.676 | 2 | 33.775 | 8.885 | 31.585 | 2 |
| 2025-04-21T08:40:00 | 54.396817 | 7.758853 | 2.0 | 8.678 | 2 | 33.797 | 8.876 | 31.616 | 2 |
| 2025-04-21T08:41:00 | 54.396850 | 7.758843 | 2.0 | 8.682 | 2 | 33.804 | 8.880 | 31.619 | 2 |
| 2025-04-21T08:42:00 | 54.396856 | 7.758887 | 2.0 | 8.680 | 2 | 33.802 | 8.882 | 31.615 | 2 |
| 2025-04-21T08:43:00 | 54.396872 | 7.758894 | 2.0 | 8.683 | 2 | 33.797 | 8.881 | 31.611 | 2 |
| 2025-04-21T08:44:00 | 54.396905 | 7.758889 | 2.0 | 8.685 | 2 | 33.809 | 8.882 | 31.623 | 2 |
| 2025-04-21T08:45:00 | 54.396906 | 7.758928 | 2.0 | 8.685 | 2 | 33.820 | 8.886 | 31.631 | 2 |
| 2025-04-21T08:46:00 | 54.396912 | 7.758926 | 2.0 | 8.681 | 2 | 33.821 | 8.884 | 31.633 | 2 |
| 2025-04-21T08:47:00 | 54.396927 | 7.758896 | 2.0 | 8.691 | 2 | 33.824 | 8.884 | 31.636 | 2 |
| 2025-04-21T08:48:00 | 54.396936 | 7.758880 | 2.0 | 8.697 | 2 | 33.818 | 8.890 | 31.625 | 2 |
| 2025-04-21T08:49:00 | 54.396906 | 7.758869 | 2.0 | 8.703 | 2 | 33.836 | 8.899 | 31.636 | 2 |
| 2025-04-21T08:50:00 | 54.396900 | 7.758825 | 2.0 | 8.706 | 2 | 33.843 | 8.903 | 31.639 | 2 |
| 2025-04-21T08:51:00 | 54.396872 | 7.758746 | 2.0 | 8.697 | 2 | 33.845 | 8.903 | 31.641 | 2 |
| 2025-04-21T08:52:00 | 54.396868 | 7.758627 | 2.0 | 8.702 | 2 | 33.839 | 8.898 | 31.640 | 2 |
| 2025-04-21T08:53:00 | 54.396842 | 7.758535 | 2.0 | 8.711 | 2 | 33.846 | 8.902 | 31.643 | 2 |
| 2025-04-21T08:54:00 | 54.396765 | 7.758348 | 2.0 | 8.699 | 2 | 33.857 | 8.910 | 31.648 | 2 |
| 2025-04-21T08:55:00 | 54.396711 | 7.758112 | 2.0 | 8.700 | 2 | 33.850 | 8.898 | 31.651 | 2 |
| 2025-04-21T08:56:00 | 54.396660 | 7.757884 | 2.0 | 8.601 | 2 | 33.849 | 8.896 | 31.652 | 2 |
| 2025-04-21T08:57:00 | 54.396673 | 7.757731 | 2.0 | 8.649 | 2 | 33.833 | 8.802 | 31.719 | 2 |
| 2025-04-21T08:58:00 | 54.396677 | 7.757653 | 2.0 | 8.700 | 2 | 33.828 | 8.855 | 31.667 | 2 |
| 2025-04-21T08:59:00 | 54.396668 | 7.757673 | 2.0 | 8.704 | 2 | 33.847 | 8.900 | 31.646 | 2 |
| 2025-04-21T09:00:00 | 54.396658 | 7.757839 | 2.0 | 8.703 | 2 | 33.850 | 8.905 | 31.645 | 2 |
| 2025-04-21T09:01:00 | 54.396690 | 7.758120 | 2.0 | 8.708 | 2 | 33.847 | 8.905 | 31.642 | 2 |
| 2025-04-21T09:02:00 | 54.396748 | 7.758467 | 2.0 | 8.706 | 2 | 33.844 | 8.909 | 31.635 | 2 |
| 2025-04-21T09:03:00 | 54.396497 | 7.758874 | 2.0 | 8.695 | 2 | 33.835 | 8.904 | 31.630 | 2 |
| 2025-04-21T09:04:00 | 54.396185 | 7.759271 | 2.0 | 8.690 | 2 | 33.807 | 8.900 | 31.605 | 2 |
| 2025-04-21T09:05:00 | 54.395891 | 7.759640 | 2.0 | 8.695 | 2 | 33.792 | 8.896 | 31.593 | 2 |
| 2025-04-21T09:06:00 | 54.395611 | 7.759986 | 2.0 | 8.661 | 2 | 33.783 | 8.892 | 31.587 | 2 |
| 2025-04-21T09:07:00 | 54.395349 | 7.760280 | 2.0 | 8.692 | 2 | 33.766 | 8.875 | 31.584 | 2 |
| 2025-04-21T09:08:00 | 54.395093 | 7.760326 | 2.0 | 8.700 | 2 | 33.776 | 8.899 | 31.573 | 2 |
| 2025-04-21T09:09:00 | 54.394845 | 7.760266 | 2.0 | 8.687 | 2 | 33.776 | 8.900 | 31.572 | 2 |
| 2025-04-21T09:10:00 | 54.394602 | 7.760173 | 2.0 | 8.703 | 2 | 33.771 | 8.894 | 31.573 | 2 |
| 2025-04-21T09:11:00 | 54.394409 | 7.760072 | 2.0 | 8.715 | 2 | 33.782 | 8.909 | 31.571 | 2 |
| 2025-04-21T09:12:00 | 54.394257 | 7.759977 | 2.0 | 8.709 | 2 | 33.791 | 8.917 | 31.573 | 2 |
| 2025-04-21T09:13:00 | 54.394087 | 7.759896 | 2.0 | 8.718 | 2 | 33.790 | 8.914 | 31.575 | 2 |
| 2025-04-21T09:14:00 | 54.393898 | 7.759842 | 2.0 | 8.719 | 2 | 33.797 | 8.920 | 31.576 | 2 |
| 2025-04-21T09:15:00 | 54.393690 | 7.759784 | 2.0 | 8.717 | 2 | 33.801 | 8.922 | 31.579 | 2 |
| 2025-04-21T09:16:00 | 54.393516 | 7.759708 | 2.0 | 8.726 | 2 | 33.803 | 8.922 | 31.581 | 2 |
| 2025-04-21T09:17:00 | 54.393379 | 7.759603 | 2.0 | 8.707 | 2 | 33.809 | 8.927 | 31.583 | 2 |
| 2025-04-21T09:18:00 | 54.393290 | 7.759480 | 2.0 | 8.707 | 2 | 33.799 | 8.913 | 31.585 | 2 |
| 2025-04-21T09:19:00 | 54.393232 | 7.759350 | 2.0 | 8.695 | 2 | 33.808 | 8.894 | 31.611 | 2 |
| 2025-04-21T09:20:00 | 54.393205 | 7.759219 | 2.0 | 8.711 | 2 | 33.809 | 8.904 | 31.603 | 2 |
| 2025-04-21T09:21:00 | 54.393202 | 7.759103 | 2.0 | 8.716 | 2 | 33.811 | 8.915 | 31.595 | 2 |
| 2025-04-21T09:22:00 | 54.393161 | 7.759061 | 2.0 | 8.709 | 2 | 33.807 | 8.917 | 31.589 | 2 |
| 2025-04-21T09:23:00 | 54.393119 | 7.759039 | 2.0 | 8.713 | 2 | 33.803 | 8.914 | 31.588 | 2 |
| 2025-04-21T09:24:00 | 54.393111 | 7.759020 | 2.0 | 8.712 | 2 | 33.807 | 8.914 | 31.592 | 2 |
| 2025-04-21T09:25:00 | 54.393129 | 7.759027 | 2.0 | 8.718 | 2 | 33.805 | 8.917 | 31.587 | 2 |
| 2025-04-21T09:26:00 | 54.393153 | 7.759066 | 2.0 | 8.720 | 2 | 33.809 | 8.921 | 31.588 | 2 |
| 2025-04-21T09:27:00 | 54.393174 | 7.759105 | 2.0 | 8.722 | 2 | 33.812 | 8.924 | 31.588 | 2 |
| 2025-04-21T09:28:00 | 54.393151 | 7.759140 | 2.0 | 8.727 | 2 | 33.810 | 8.927 | 31.584 | 2 |
| 2025-04-21T09:29:00 | 54.393125 | 7.759151 | 2.0 | 8.725 | 2 | 33.802 | 8.929 | 31.574 | 2 |
| 2025-04-21T09:30:00 | 54.393129 | 7.759166 | 2.0 | 8.721 | 2 | 33.808 | 8.928 | 31.581 | 2 |
| 2025-04-21T09:31:00 | 54.393111 | 7.759195 | 2.0 | 8.721 | 2 | 33.811 | 8.924 | 31.587 | 2 |
| 2025-04-21T09:32:00 | 54.393081 | 7.759233 | 2.0 | 8.722 | 2 | 33.812 | 8.924 | 31.588 | 2 |
| 2025-04-21T09:33:00 | 54.393040 | 7.759265 | 2.0 | 8.724 | 2 | 33.812 | 8.925 | 31.588 | 2 |
| 2025-04-21T09:34:00 | 54.393028 | 7.759276 | 2.0 | 8.723 | 2 | 33.812 | 8.927 | 31.586 | 2 |
| 2025-04-21T09:35:00 | 54.392998 | 7.759315 | 2.0 | 8.720 | 2 | 33.813 | 8.927 | 31.587 | 2 |
| 2025-04-21T09:36:00 | 54.392987 | 7.759334 | 2.0 | 8.717 | 2 | 33.811 | 8.923 | 31.588 | 2 |
| 2025-04-21T09:37:00 | 54.393005 | 7.759345 | 2.0 | 8.718 | 2 | 33.809 | 8.920 | 31.589 | 2 |
| 2025-04-21T09:38:00 | 54.393028 | 7.759375 | 2.0 | 8.717 | 2 | 33.808 | 8.921 | 31.587 | 2 |
| 2025-04-21T09:39:00 | 54.393014 | 7.759423 | 2.0 | 8.718 | 2 | 33.805 | 8.919 | 31.586 | 2 |
| 2025-04-21T09:40:00 | 54.392967 | 7.759460 | 2.0 | 8.715 | 2 | 33.804 | 8.920 | 31.584 | 2 |
| 2025-04-21T09:41:00 | 54.392931 | 7.759469 | 2.0 | 8.722 | 2 | 33.803 | 8.920 | 31.583 | 2 |
| 2025-04-21T09:42:00 | 54.392913 | 7.759485 | 2.0 | 8.721 | 2 | 33.806 | 8.924 | 31.582 | 2 |
| 2025-04-21T09:43:00 | 54.392891 | 7.759516 | 2.0 | 8.721 | 2 | 33.805 | 8.924 | 31.581 | 2 |
| 2025-04-21T09:44:00 | 54.392865 | 7.759525 | 2.0 | 8.720 | 2 | 33.804 | 8.923 | 31.581 | 2 |
| 2025-04-21T09:45:00 | 54.392841 | 7.759533 | 2.0 | 8.720 | 2 | 33.804 | 8.924 | 31.580 | 2 |
| 2025-04-21T09:46:00 | 54.392826 | 7.759538 | 2.0 | 8.718 | 2 | 33.802 | 8.922 | 31.580 | 2 |
| 2025-04-21T09:47:00 | 54.392786 | 7.759508 | 2.0 | 8.719 | 2 | 33.800 | 8.921 | 31.579 | 2 |
| 2025-04-21T09:48:00 | 54.392785 | 7.759451 | 2.0 | 8.722 | 2 | 33.799 | 8.922 | 31.577 | 2 |
| 2025-04-21T09:49:00 | 54.392778 | 7.759336 | 2.0 | 8.721 | 2 | 33.801 | 8.925 | 31.576 | 2 |
| 2025-04-21T09:50:00 | 54.392749 | 7.759169 | 2.0 | 8.719 | 2 | 33.801 | 8.924 | 31.577 | 2 |
| 2025-04-21T09:51:00 | 54.392724 | 7.759018 | 2.0 | 8.718 | 2 | 33.799 | 8.922 | 31.577 | 2 |
| 2025-04-21T09:52:00 | 54.392691 | 7.758921 | 2.0 | 8.719 | 2 | 33.799 | 8.921 | 31.578 | 2 |
| 2025-04-21T09:53:00 | 54.392656 | 7.758879 | 2.0 | 8.714 | 2 | 33.800 | 8.920 | 31.580 | 2 |
| 2025-04-21T09:54:00 | 54.392660 | 7.758906 | 2.0 | 8.718 | 2 | 33.798 | 8.918 | 31.579 | 2 |
| 2025-04-21T09:55:00 | 54.392666 | 7.759030 | 2.0 | 8.718 | 2 | 33.800 | 8.921 | 31.579 | 2 |
| 2025-04-21T09:56:00 | 54.392563 | 7.759142 | 2.0 | 8.716 | 2 | 33.799 | 8.920 | 31.579 | 2 |
| 2025-04-21T09:57:00 | 54.392057 | 7.759203 | 2.0 | 8.714 | 2 | 33.797 | 8.918 | 31.578 | 2 |
| 2025-04-21T09:58:00 | 54.391233 | 7.759582 | 2.0 | 8.707 | 2 | 33.796 | 8.916 | 31.579 | 2 |
| 2025-04-21T09:59:00 | 54.390173 | 7.760059 | 2.0 | 8.708 | 2 | 33.794 | 8.911 | 31.581 | 2 |
| 2025-04-21T10:00:00 | 54.388971 | 7.760578 | 2.0 | 8.706 | 2 | 33.799 | 8.912 | 31.586 | 2 |
| 2025-04-21T10:01:00 | 54.387697 | 7.761135 | 2.0 | 8.702 | 2 | 33.691 | 8.910 | 31.476 | 2 |
| 2025-04-21T10:02:00 | 54.386387 | 7.761724 | 2.0 | 8.703 | 2 | 33.800 | 8.908 | 31.590 | 2 |
| 2025-04-21T10:03:00 | 54.385056 | 7.762319 | 2.0 | 8.701 | 2 | 33.798 | 8.907 | 31.589 | 2 |
| 2025-04-21T10:04:00 | 54.383713 | 7.762930 | 2.0 | 8.704 | 2 | 33.798 | 8.906 | 31.590 | 2 |
| 2025-04-21T10:05:00 | 54.382533 | 7.763996 | 2.0 | 8.701 | 2 | 33.800 | 8.908 | 31.590 | 2 |
| 2025-04-21T10:06:00 | 54.381983 | 7.765933 | 2.0 | 8.702 | 2 | 33.800 | 8.907 | 31.591 | 2 |
| 2025-04-21T10:07:00 | 54.381493 | 7.768082 | 2.0 | 8.704 | 2 | 33.800 | 8.907 | 31.591 | 2 |
| 2025-04-21T10:08:00 | 54.380989 | 7.770331 | 2.0 | 8.701 | 2 | 33.801 | 8.909 | 31.590 | 2 |
| 2025-04-21T10:09:00 | 54.380462 | 7.772617 | 2.0 | 8.702 | 2 | 33.710 | 8.904 | 31.501 | 2 |
| 2025-04-21T10:10:00 | 54.379904 | 7.774925 | 2.0 | 8.706 | 2 | 33.775 | 8.907 | 31.565 | 2 |
| 2025-04-21T10:11:00 | 54.379328 | 7.777255 | 2.0 | 8.707 | 2 | 33.572 | 8.911 | 31.351 | 2 |
| 2025-04-21T10:12:00 | 54.378747 | 7.779593 | 2.0 | 8.704 | 2 | 33.535 | 8.911 | 31.313 | 2 |
| 2025-04-21T10:13:00 | 54.378157 | 7.781925 | 2.0 | 8.704 | 2 | 33.808 | 8.909 | 31.598 | 2 |
| 2025-04-21T10:14:00 | 54.377575 | 7.784267 | 2.0 | 8.696 | 2 | 33.815 | 8.909 | 31.605 | 2 |
| 2025-04-21T10:15:00 | 54.376988 | 7.786614 | 2.0 | 8.682 | 2 | 33.713 | 8.898 | 31.509 | 2 |
| 2025-04-21T10:16:00 | 54.376392 | 7.788964 | 2.0 | 8.669 | 2 | 33.499 | 8.888 | 31.296 | 2 |
| 2025-04-21T10:17:00 | 54.375803 | 7.791305 | 2.0 | 8.657 | 2 | 33.665 | 8.872 | 31.482 | 2 |
| 2025-04-21T10:18:00 | 54.375207 | 7.793662 | 2.0 | 8.658 | 2 | 33.782 | 8.864 | 31.611 | 2 |
| 2025-04-21T10:19:00 | 54.374573 | 7.796178 | 2.0 | 8.661 | 2 | 33.761 | 8.865 | 31.588 | 2 |
| 2025-04-21T10:20:00 | 54.373897 | 7.798813 | 2.0 | 8.655 | 2 | 33.770 | 8.866 | 31.597 | 2 |
| 2025-04-21T10:21:00 | 54.373199 | 7.801514 | 2.0 | 8.647 | 2 | 33.378 | 8.859 | 31.196 | 2 |
| 2025-04-21T10:22:00 | 54.372486 | 7.804253 | 2.0 | 8.622 | 2 | 33.499 | 8.845 | 31.334 | 2 |
| 2025-04-21T10:23:00 | 54.371766 | 7.807009 | 2.0 | 8.633 | 2 | 33.608 | 8.830 | 31.460 | 2 |
| 2025-04-21T10:24:00 | 54.371049 | 7.809751 | 2.0 | 8.646 | 2 | 33.563 | 8.840 | 31.405 | 2 |
| 2025-04-21T10:25:00 | 54.370369 | 7.812524 | 2.0 | 8.646 | 2 | 33.697 | 8.852 | 31.533 | 2 |
| 2025-04-21T10:26:00 | 54.369736 | 7.815259 | 2.0 | 8.638 | 2 | 33.436 | 8.848 | 31.266 | 2 |
| 2025-04-21T10:27:00 | 54.369113 | 7.817980 | 2.0 | 8.633 | 2 | 33.509 | 8.842 | 31.347 | 2 |
| 2025-04-21T10:28:00 | 54.368490 | 7.820684 | 2.0 | 8.627 | 2 | 33.612 | 8.838 | 31.457 | 2 |
| 2025-04-21T10:29:00 | 54.367870 | 7.823392 | 2.0 | 8.619 | 2 | 33.497 | 8.832 | 31.343 | 2 |
| 2025-04-21T10:30:00 | 54.367241 | 7.826098 | 2.0 | 8.615 | 2 | 33.584 | 8.825 | 31.440 | 2 |
| 2025-04-21T10:31:00 | 54.366610 | 7.828805 | 2.0 | 8.614 | 2 | 33.515 | 8.821 | 31.372 | 2 |
| 2025-04-21T10:32:00 | 54.365981 | 7.831501 | 2.0 | 8.609 | 2 | 33.439 | 8.818 | 31.296 | 2 |
| 2025-04-21T10:33:00 | 54.365356 | 7.834199 | 2.0 | 8.607 | 2 | 33.439 | 8.814 | 31.299 | 2 |
| 2025-04-21T10:34:00 | 54.364727 | 7.836904 | 2.0 | 8.607 | 2 | 33.447 | 8.813 | 31.308 | 2 |
| 2025-04-21T10:35:00 | 54.364107 | 7.839620 | 2.0 | 8.604 | 2 | 33.234 | 8.812 | 31.088 | 2 |
| 2025-04-21T10:36:00 | 54.363495 | 7.842339 | 2.0 | 8.604 | 2 | 33.285 | 8.810 | 31.143 | 2 |
| 2025-04-21T10:37:00 | 54.362882 | 7.845071 | 2.0 | 8.615 | 2 | 33.526 | 8.811 | 31.392 | 2 |
| 2025-04-21T10:38:00 | 54.362274 | 7.847800 | 2.0 | 8.632 | 2 | 33.577 | 8.823 | 31.434 | 2 |
| 2025-04-21T10:39:00 | 54.361668 | 7.850550 | 2.0 | 8.636 | 2 | 33.578 | 8.837 | 31.423 | 2 |
| 2025-04-21T10:40:00 | 54.361056 | 7.853321 | 2.0 | 8.641 | 2 | 33.579 | 8.842 | 31.420 | 2 |
| 2025-04-21T10:41:00 | 54.360441 | 7.856117 | 2.0 | 8.645 | 2 | 33.582 | 8.847 | 31.418 | 2 |
| 2025-04-21T10:42:00 | 54.359830 | 7.858921 | 2.0 | 8.657 | 2 | 33.587 | 8.851 | 31.420 | 2 |
| 2025-04-21T10:43:00 | 54.359207 | 7.861746 | 2.0 | 8.665 | 2 | 33.596 | 8.862 | 31.420 | 2 |
| 2025-04-21T10:44:00 | 54.358587 | 7.864578 | 2.0 | 8.670 | 2 | 33.596 | 8.870 | 31.412 | 2 |
| 2025-04-21T10:45:00 | 54.357965 | 7.867395 | 2.0 | 8.669 | 2 | 33.601 | 8.877 | 31.411 | 2 |
| 2025-04-21T10:46:00 | 54.357411 | 7.869895 | 2.0 | 8.647 | 2 | 33.611 | 8.873 | 31.425 | 2 |
| 2025-04-21T10:47:00 | 54.356915 | 7.872121 | 2.0 | 8.670 | 2 | 33.628 | 8.855 | 31.459 | 2 |
| 2025-04-21T10:48:00 | 54.356416 | 7.874324 | 2.0 | 8.682 | 2 | 33.627 | 8.873 | 31.442 | 2 |
| 2025-04-21T10:49:00 | 54.355921 | 7.876532 | 2.0 | 8.665 | 2 | 33.631 | 8.884 | 31.436 | 2 |
| 2025-04-21T10:50:00 | 54.355423 | 7.878745 | 2.0 | 8.650 | 2 | 33.645 | 8.868 | 31.465 | 2 |
| 2025-04-21T10:51:00 | 54.354923 | 7.880967 | 2.0 | 8.632 | 2 | 33.667 | 8.849 | 31.505 | 2 |
| 2025-04-21T10:52:00 | 54.354413 | 7.883245 | 2.0 | 8.629 | 2 | 33.681 | 8.840 | 31.527 | 2 |
| 2025-04-21T10:53:00 | 54.353896 | 7.885554 | 2.0 | 8.617 | 2 | 33.690 | 8.826 | 31.549 | 2 |
| 2025-04-21T10:54:00 | 54.353357 | 7.887862 | 2.0 | 8.632 | 2 | 33.696 | 8.826 | 31.555 | 2 |
| 2025-04-21T10:55:00 | 54.352814 | 7.890155 | 2.0 | 8.621 | 2 | 33.702 | 8.836 | 31.553 | 2 |
| 2025-04-21T10:56:00 | 54.352300 | 7.892346 | 2.0 | 8.626 | 2 | 33.706 | 8.828 | 31.564 | 2 |
| 2025-04-21T10:57:00 | 54.351863 | 7.894434 | 2.0 | 8.583 | 2 | 33.711 | 8.819 | 31.577 | 2 |
| 2025-04-21T10:58:00 | 54.351497 | 7.896464 | 2.0 | 8.590 | 2 | 33.717 | 8.789 | 31.610 | 2 |
| 2025-04-21T10:59:00 | 54.351137 | 7.898453 | 2.0 | 8.619 | 2 | 33.469 | 8.792 | 31.350 | 2 |
| 2025-04-21T11:00:00 | 54.350758 | 7.900534 | 2.0 | 8.663 | 2 | 33.715 | 8.833 | 31.569 | 2 |
| 2025-04-21T11:01:00 | 54.350364 | 7.902706 | 2.0 | 8.682 | 2 | 33.706 | 8.868 | 31.528 | 2 |
| 2025-04-21T11:02:00 | 54.349965 | 7.904946 | 2.0 | 8.686 | 2 | 33.699 | 8.886 | 31.505 | 2 |
| 2025-04-21T11:03:00 | 54.349556 | 7.907233 | 2.0 | 8.678 | 2 | 33.691 | 8.888 | 31.495 | 2 |
| 2025-04-21T11:04:00 | 54.349145 | 7.909539 | 2.0 | 8.646 | 2 | 33.681 | 8.881 | 31.491 | 2 |
| 2025-04-21T11:05:00 | 54.348730 | 7.911871 | 2.0 | 8.618 | 2 | 33.633 | 8.841 | 31.477 | 2 |
| 2025-04-21T11:06:00 | 54.348303 | 7.914221 | 2.0 | 8.632 | 2 | 33.590 | 8.828 | 31.443 | 2 |
| 2025-04-21T11:07:00 | 54.347888 | 7.916570 | 2.0 | 8.639 | 2 | 33.566 | 8.838 | 31.410 | 2 |
| 2025-04-21T11:08:00 | 54.347368 | 7.918721 | 2.0 | 8.646 | 2 | 33.550 | 8.846 | 31.386 | 2 |
| 2025-04-21T11:09:00 | 54.346818 | 7.919258 | 2.0 | 8.633 | 2 | 33.495 | 8.846 | 31.329 | 2 |
| 2025-04-21T11:10:00 | 54.346620 | 7.919405 | 2.0 | 8.628 | 2 | 33.059 | 8.835 | 30.887 | 2 |
| 2025-04-21T11:11:00 | 54.346608 | 7.919683 | 2.0 | 8.624 | 2 | 33.549 | 8.828 | 31.401 | 2 |
| 2025-04-21T11:12:00 | 54.346548 | 7.919779 | 2.0 | 8.636 | 2 | 33.459 | 8.829 | 31.307 | 2 |
| 2025-04-21T11:13:00 | 54.346424 | 7.919699 | 2.0 | 8.639 | 2 | 33.405 | 8.841 | 31.240 | 2 |
| 2025-04-21T11:14:00 | 54.346346 | 7.919660 | 2.0 | 8.648 | 2 | 33.392 | 8.844 | 31.224 | 2 |
| 2025-04-21T11:15:00 | 54.346310 | 7.919635 | 2.0 | 8.645 | 2 | 33.272 | 8.851 | 31.093 | 2 |
| 2025-04-21T11:16:00 | 54.346234 | 7.919571 | 2.0 | 8.642 | 2 | 33.319 | 8.848 | 31.145 | 2 |
| 2025-04-21T11:17:00 | 54.346097 | 7.919471 | 2.0 | 8.640 | 2 | 33.275 | 8.846 | 31.101 | 2 |
| 2025-04-21T11:18:00 | 54.345936 | 7.919260 | 2.0 | 8.636 | 2 | 33.549 | 8.843 | 31.388 | 2 |
| 2025-04-21T11:19:00 | 54.345777 | 7.919000 | 2.0 | 8.640 | 2 | 33.551 | 8.839 | 31.393 | 2 |
| 2025-04-21T11:20:00 | 54.345745 | 7.918536 | 2.0 | 8.637 | 2 | 33.436 | 8.841 | 31.272 | 2 |
| 2025-04-21T11:21:00 | 54.345782 | 7.917909 | 2.0 | 8.632 | 2 | 33.477 | 8.840 | 31.316 | 2 |
| 2025-04-21T11:22:00 | 54.345712 | 7.917641 | 2.0 | 8.635 | 2 | 33.564 | 8.838 | 31.408 | 2 |
| 2025-04-21T11:23:00 | 54.345533 | 7.917609 | 2.0 | 8.629 | 2 | 33.549 | 8.838 | 31.392 | 2 |
| 2025-04-21T11:24:00 | 54.345398 | 7.917491 | 2.0 | 8.626 | 2 | 33.567 | 8.832 | 31.416 | 2 |
| 2025-04-21T11:25:00 | 54.345438 | 7.917251 | 2.0 | 8.627 | 2 | 33.563 | 8.833 | 31.411 | 2 |
| 2025-04-21T11:26:00 | 54.345619 | 7.916943 | 2.0 | 8.630 | 2 | 33.582 | 8.833 | 31.431 | 2 |
| 2025-04-21T11:27:00 | 54.345782 | 7.916888 | 2.0 | 8.624 | 2 | 33.417 | 8.835 | 31.258 | 2 |
| 2025-04-21T11:28:00 | 54.345938 | 7.916916 | 2.0 | 8.620 | 2 | 33.428 | 8.830 | 31.274 | 2 |
| 2025-04-21T11:29:00 | 54.346103 | 7.917027 | 2.0 | 8.629 | 2 | 33.434 | 8.831 | 31.279 | 2 |
| 2025-04-21T11:30:00 | 54.346266 | 7.917182 | 2.0 | 8.639 | 2 | 33.592 | 8.838 | 31.437 | 2 |
| 2025-04-21T11:31:00 | 54.346425 | 7.917274 | 2.0 | 8.641 | 2 | 33.462 | 8.848 | 31.293 | 2 |
| 2025-04-21T11:32:00 | 54.346635 | 7.917309 | 2.0 | 8.631 | 2 | 33.436 | 8.847 | 31.267 | 2 |
| 2025-04-21T11:33:00 | 54.346868 | 7.917241 | 2.0 | 8.671 | 2 | 33.575 | 8.846 | 31.412 | 2 |
| 2025-04-21T11:34:00 | 54.347110 | 7.917124 | 2.0 | 8.678 | 2 | 33.403 | 8.877 | 31.206 | 2 |
| 2025-04-21T11:35:00 | 54.347320 | 7.917077 | 2.0 | 8.675 | 2 | 33.584 | 8.885 | 31.387 | 2 |
| 2025-04-21T11:36:00 | 54.347492 | 7.917084 | 2.0 | 8.676 | 2 | 33.501 | 8.882 | 31.303 | 2 |
| 2025-04-21T11:37:00 | 54.347704 | 7.917063 | 2.0 | 8.680 | 2 | 33.607 | 8.883 | 31.412 | 2 |
| 2025-04-21T11:38:00 | 54.347924 | 7.916996 | 2.0 | 8.685 | 2 | 33.597 | 8.891 | 31.395 | 2 |
| 2025-04-21T11:39:00 | 54.348132 | 7.916891 | 2.0 | 8.689 | 2 | 33.469 | 8.894 | 31.260 | 2 |
| 2025-04-21T11:40:00 | 54.348288 | 7.916780 | 2.0 | 8.691 | 2 | 33.605 | 8.897 | 31.398 | 2 |
| 2025-04-21T11:41:00 | 54.348376 | 7.916694 | 2.0 | 8.694 | 2 | 33.606 | 8.899 | 31.397 | 2 |
| 2025-04-21T11:42:00 | 54.348398 | 7.916635 | 2.0 | 8.695 | 2 | 33.601 | 8.901 | 31.390 | 2 |
| 2025-04-21T11:43:00 | 54.348375 | 7.916589 | 2.0 | 8.695 | 2 | 33.560 | 8.902 | 31.347 | 2 |
| 2025-04-21T11:44:00 | 54.348337 | 7.916560 | 2.0 | 8.691 | 2 | 33.599 | 8.902 | 31.387 | 2 |
| 2025-04-21T11:45:00 | 54.348309 | 7.916530 | 2.0 | 8.689 | 2 | 33.590 | 8.898 | 31.381 | 2 |
| 2025-04-21T11:46:00 | 54.348303 | 7.916491 | 2.0 | 8.696 | 2 | 33.596 | 8.899 | 31.387 | 2 |
| 2025-04-21T11:47:00 | 54.348293 | 7.916460 | 2.0 | 8.690 | 2 | 33.567 | 8.903 | 31.353 | 2 |
| 2025-04-21T11:48:00 | 54.348287 | 7.916429 | 2.0 | 8.698 | 2 | 33.572 | 8.898 | 31.363 | 2 |
| 2025-04-21T11:49:00 | 54.348278 | 7.916419 | 2.0 | 8.707 | 2 | 33.609 | 8.908 | 31.392 | 2 |
| 2025-04-21T11:50:00 | 54.348260 | 7.916396 | 2.0 | 8.707 | 2 | 33.624 | 8.915 | 31.402 | 2 |
| 2025-04-21T11:51:00 | 54.348236 | 7.916374 | 2.0 | 8.702 | 2 | 33.623 | 8.913 | 31.402 | 2 |
| 2025-04-21T11:52:00 | 54.348212 | 7.916370 | 2.0 | 8.700 | 2 | 33.631 | 8.909 | 31.414 | 2 |
| 2025-04-21T11:53:00 | 54.348186 | 7.916377 | 2.0 | 8.699 | 2 | 33.655 | 8.907 | 31.441 | 2 |
| 2025-04-21T11:54:00 | 54.348169 | 7.916385 | 2.0 | 8.694 | 2 | 33.645 | 8.906 | 31.431 | 2 |
| 2025-04-21T11:55:00 | 54.348152 | 7.916404 | 2.0 | 8.688 | 2 | 33.650 | 8.899 | 31.443 | 2 |
| 2025-04-21T11:56:00 | 54.348133 | 7.916429 | 2.0 | 8.684 | 2 | 33.668 | 8.896 | 31.464 | 2 |
| 2025-04-21T11:57:00 | 54.348114 | 7.916394 | 2.0 | 8.671 | 2 | 33.675 | 8.888 | 31.478 | 2 |
| 2025-04-21T11:58:00 | 54.348099 | 7.916353 | 2.0 | 8.661 | 2 | 33.669 | 8.877 | 31.482 | 2 |
| 2025-04-21T11:59:00 | 54.348088 | 7.916317 | 2.0 | 8.658 | 2 | 33.675 | 8.869 | 31.495 | 2 |
| 2025-04-21T12:00:00 | 54.348071 | 7.916298 | 2.0 | 8.649 | 2 | 33.674 | 8.861 | 31.501 | 2 |
| 2025-04-21T12:01:00 | 54.348050 | 7.916278 | 2.0 | 8.645 | 2 | 33.681 | 8.856 | 31.513 | 2 |
| 2025-04-21T12:02:00 | 54.348030 | 7.916261 | 2.0 | 8.644 | 2 | 33.697 | 8.854 | 31.531 | 2 |
| 2025-04-21T12:03:00 | 54.348003 | 7.916246 | 2.0 | 8.640 | 2 | 33.705 | 8.853 | 31.541 | 2 |
| 2025-04-21T12:04:00 | 54.347969 | 7.916243 | 2.0 | 8.637 | 2 | 33.691 | 8.848 | 31.531 | 2 |
| 2025-04-21T12:05:00 | 54.347948 | 7.916228 | 2.0 | 8.671 | 2 | 33.732 | 8.854 | 31.568 | 2 |
| 2025-04-21T12:06:00 | 54.347939 | 7.916216 | 2.0 | 8.667 | 2 | 33.719 | 8.868 | 31.542 | 2 |
| 2025-04-21T12:07:00 | 54.347911 | 7.916170 | 2.0 | 8.668 | 2 | 33.727 | 8.862 | 31.555 | 2 |
| 2025-04-21T12:08:00 | 54.347884 | 7.916157 | 2.0 | 8.670 | 2 | 33.722 | 8.860 | 31.552 | 2 |
| 2025-04-21T12:09:00 | 54.347857 | 7.916184 | 2.0 | 8.672 | 2 | 33.713 | 8.860 | 31.543 | 2 |
| 2025-04-21T12:10:00 | 54.347834 | 7.916207 | 2.0 | 8.668 | 2 | 33.709 | 8.856 | 31.542 | 2 |
| 2025-04-21T12:11:00 | 54.347812 | 7.916207 | 2.0 | 8.668 | 2 | 33.715 | 8.854 | 31.550 | 2 |
| 2025-04-21T12:12:00 | 54.347778 | 7.916208 | 2.0 | 8.655 | 2 | 33.719 | 8.851 | 31.557 | 2 |
| 2025-04-21T12:13:00 | 54.347751 | 7.916191 | 2.0 | 8.657 | 2 | 33.713 | 8.840 | 31.560 | 2 |
| 2025-04-21T12:14:00 | 54.347719 | 7.916157 | 2.0 | 8.661 | 2 | 33.714 | 8.843 | 31.559 | 2 |
| 2025-04-21T12:15:00 | 54.347681 | 7.916115 | 2.0 | 8.670 | 2 | 33.713 | 8.845 | 31.556 | 2 |
| 2025-04-21T12:16:00 | 54.347676 | 7.916030 | 2.0 | 8.673 | 2 | 33.709 | 8.853 | 31.545 | 2 |
| 2025-04-21T12:17:00 | 54.347711 | 7.915719 | 2.0 | 8.670 | 2 | 33.708 | 8.854 | 31.543 | 2 |
| 2025-04-21T12:18:00 | 54.347749 | 7.915185 | 2.0 | 8.678 | 2 | 33.708 | 8.853 | 31.544 | 2 |
| 2025-04-21T12:19:00 | 54.347772 | 7.914480 | 2.0 | 8.681 | 2 | 33.707 | 8.860 | 31.536 | 2 |
| 2025-04-21T12:20:00 | 54.347786 | 7.913549 | 2.0 | 8.677 | 2 | 33.702 | 8.860 | 31.531 | 2 |
| 2025-04-21T12:21:00 | 54.347890 | 7.912491 | 2.0 | 8.673 | 2 | 33.695 | 8.857 | 31.527 | 2 |
| 2025-04-21T12:22:00 | 54.348042 | 7.911353 | 2.0 | 8.670 | 2 | 33.689 | 8.851 | 31.526 | 2 |
| 2025-04-21T12:23:00 | 54.348208 | 7.910146 | 2.0 | 8.684 | 2 | 33.681 | 8.852 | 31.517 | 2 |
| 2025-04-21T12:24:00 | 54.348373 | 7.908920 | 2.0 | 8.672 | 2 | 33.670 | 8.862 | 31.496 | 2 |
| 2025-04-21T12:25:00 | 54.348524 | 7.907704 | 2.0 | 8.666 | 2 | 33.668 | 8.852 | 31.503 | 2 |
| 2025-04-21T12:26:00 | 54.348674 | 7.906487 | 2.0 | 8.647 | 2 | 33.669 | 8.845 | 31.510 | 2 |
| 2025-04-21T12:27:00 | 54.348818 | 7.905268 | 2.0 | 8.646 | 2 | 33.669 | 8.823 | 31.530 | 2 |
| 2025-04-21T12:28:00 | 54.348965 | 7.904030 | 2.0 | 8.629 | 2 | 33.669 | 8.823 | 31.530 | 2 |
| 2025-04-21T12:29:00 | 54.349103 | 7.902770 | 2.0 | 8.619 | 2 | 33.668 | 8.802 | 31.548 | 2 |
| 2025-04-21T12:30:00 | 54.349329 | 7.901527 | 2.0 | 8.624 | 2 | 33.664 | 8.796 | 31.549 | 2 |
| 2025-04-21T12:31:00 | 54.349742 | 7.900488 | 2.0 | 8.617 | 2 | 33.656 | 8.801 | 31.536 | 2 |
| 2025-04-21T12:32:00 | 54.349958 | 7.899433 | 2.0 | 8.611 | 2 | 33.649 | 8.793 | 31.536 | 2 |
| 2025-04-21T12:33:00 | 54.350177 | 7.898413 | 2.0 | 8.607 | 2 | 33.645 | 8.790 | 31.534 | 2 |
| 2025-04-21T12:34:00 | 54.350404 | 7.897365 | 2.0 | 8.637 | 2 | 33.643 | 8.793 | 31.530 | 2 |
| 2025-04-21T12:35:00 | 54.350653 | 7.896245 | 2.0 | 8.639 | 2 | 33.638 | 8.811 | 31.508 | 2 |
| 2025-04-21T12:36:00 | 54.350919 | 7.895123 | 2.0 | 8.655 | 2 | 33.635 | 8.821 | 31.496 | 2 |
| 2025-04-21T12:37:00 | 54.351180 | 7.894064 | 2.0 | 8.665 | 2 | 33.622 | 8.834 | 31.471 | 2 |
| 2025-04-21T12:38:00 | 54.351439 | 7.893056 | 2.0 | 8.654 | 2 | 33.618 | 8.838 | 31.464 | 2 |
| 2025-04-21T12:39:00 | 54.351684 | 7.892112 | 2.0 | 8.672 | 2 | 33.623 | 8.833 | 31.473 | 2 |
| 2025-04-21T12:40:00 | 54.351915 | 7.891292 | 2.0 | 8.670 | 2 | 33.623 | 8.846 | 31.462 | 2 |
| 2025-04-21T12:41:00 | 54.352131 | 7.890571 | 2.0 | 8.659 | 2 | 33.622 | 8.845 | 31.462 | 2 |
| 2025-04-21T12:42:00 | 54.352358 | 7.889791 | 2.0 | 8.654 | 2 | 33.626 | 8.838 | 31.472 | 2 |
| 2025-04-21T12:43:00 | 54.352613 | 7.888833 | 2.0 | 8.662 | 2 | 33.625 | 8.832 | 31.476 | 2 |
| 2025-04-21T12:44:00 | 54.352873 | 7.887766 | 2.0 | 8.670 | 2 | 33.624 | 8.838 | 31.470 | 2 |
| 2025-04-21T12:45:00 | 54.353150 | 7.886613 | 2.0 | 8.668 | 2 | 33.623 | 8.842 | 31.465 | 2 |
| 2025-04-21T12:46:00 | 54.353442 | 7.885401 | 2.0 | 8.669 | 2 | 33.624 | 8.844 | 31.465 | 2 |
| 2025-04-21T12:47:00 | 54.353735 | 7.884149 | 2.0 | 8.656 | 2 | 33.627 | 8.842 | 31.469 | 2 |
| 2025-04-21T12:48:00 | 54.354040 | 7.882894 | 2.0 | 8.667 | 2 | 33.625 | 8.835 | 31.474 | 2 |
| 2025-04-21T12:49:00 | 54.354345 | 7.881648 | 2.0 | 8.675 | 2 | 33.622 | 8.843 | 31.463 | 2 |
| 2025-04-21T12:50:00 | 54.354645 | 7.880420 | 2.0 | 8.672 | 2 | 33.625 | 8.849 | 31.461 | 2 |
| 2025-04-21T12:51:00 | 54.354947 | 7.879203 | 2.0 | 8.679 | 2 | 33.624 | 8.849 | 31.460 | 2 |
| 2025-04-21T12:52:00 | 54.355240 | 7.878062 | 2.0 | 8.681 | 2 | 33.630 | 8.855 | 31.461 | 2 |
| 2025-04-21T12:53:00 | 54.355524 | 7.876973 | 2.0 | 8.691 | 2 | 33.635 | 8.858 | 31.464 | 2 |
| 2025-04-21T12:54:00 | 54.355797 | 7.875913 | 2.0 | 8.689 | 2 | 33.645 | 8.867 | 31.466 | 2 |
| 2025-04-21T12:55:00 | 54.356068 | 7.874883 | 2.0 | 8.681 | 2 | 33.641 | 8.862 | 31.466 | 2 |
| 2025-04-21T12:56:00 | 54.356323 | 7.873848 | 2.0 | 8.687 | 2 | 33.636 | 8.857 | 31.465 | 2 |
| 2025-04-21T12:57:00 | 54.356565 | 7.872799 | 2.0 | 8.689 | 2 | 33.638 | 8.863 | 31.462 | 2 |
| 2025-04-21T12:58:00 | 54.356818 | 7.871655 | 2.0 | 8.690 | 2 | 33.637 | 8.865 | 31.459 | 2 |
| 2025-04-21T12:59:00 | 54.357080 | 7.870432 | 2.0 | 8.688 | 2 | 33.626 | 8.864 | 31.449 | 2 |
| 2025-04-21T13:00:00 | 54.357352 | 7.869160 | 2.0 | 8.695 | 2 | 33.629 | 8.865 | 31.451 | 2 |
| 2025-04-21T13:01:00 | 54.357644 | 7.867863 | 2.0 | 8.693 | 2 | 33.637 | 8.869 | 31.456 | 2 |
| 2025-04-21T13:02:00 | 54.357931 | 7.866574 | 2.0 | 8.696 | 2 | 33.640 | 8.869 | 31.459 | 2 |
| 2025-04-21T13:03:00 | 54.358219 | 7.865338 | 2.0 | 8.700 | 2 | 33.645 | 8.871 | 31.462 | 2 |
| 2025-04-21T13:04:00 | 54.358511 | 7.864123 | 2.0 | 8.702 | 2 | 33.654 | 8.877 | 31.466 | 2 |
| 2025-04-21T13:05:00 | 54.358788 | 7.862923 | 2.0 | 8.691 | 2 | 33.656 | 8.877 | 31.468 | 2 |
| 2025-04-21T13:06:00 | 54.359064 | 7.861745 | 2.0 | 8.709 | 2 | 33.661 | 8.867 | 31.483 | 2 |
| 2025-04-21T13:07:00 | 54.359337 | 7.860551 | 2.0 | 8.707 | 2 | 33.704 | 8.880 | 31.516 | 2 |
| 2025-04-21T13:08:00 | 54.359610 | 7.859353 | 2.0 | 8.728 | 2 | 33.746 | 8.888 | 31.552 | 2 |
| 2025-04-21T13:09:00 | 54.359875 | 7.858166 | 2.0 | 8.713 | 2 | 33.798 | 8.898 | 31.597 | 2 |
| 2025-04-21T13:10:00 | 54.360129 | 7.856996 | 2.0 | 8.697 | 2 | 33.786 | 8.883 | 31.598 | 2 |
| 2025-04-21T13:11:00 | 54.360380 | 7.855819 | 2.0 | 8.718 | 2 | 33.767 | 8.872 | 31.588 | 2 |
| 2025-04-21T13:12:00 | 54.360636 | 7.854637 | 2.0 | 8.719 | 2 | 33.787 | 8.883 | 31.599 | 2 |
| 2025-04-21T13:13:00 | 54.360899 | 7.853449 | 2.0 | 8.741 | 2 | 33.809 | 8.902 | 31.605 | 2 |
| 2025-04-21T13:14:00 | 54.361161 | 7.852265 | 2.0 | 8.755 | 2 | 33.824 | 8.917 | 31.607 | 2 |
| 2025-04-21T13:15:00 | 54.361409 | 7.851091 | 2.0 | 8.771 | 2 | 33.832 | 8.928 | 31.606 | 2 |
| 2025-04-21T13:16:00 | 54.361651 | 7.849933 | 2.0 | 8.795 | 2 | 33.850 | 8.948 | 31.606 | 2 |
| 2025-04-21T13:17:00 | 54.361895 | 7.848770 | 2.0 | 8.795 | 2 | 33.870 | 8.968 | 31.609 | 2 |
| 2025-04-21T13:18:00 | 54.362142 | 7.847602 | 2.0 | 8.799 | 2 | 33.869 | 8.968 | 31.608 | 2 |
| 2025-04-21T13:19:00 | 54.362386 | 7.846440 | 2.0 | 8.797 | 2 | 33.873 | 8.973 | 31.608 | 2 |
| 2025-04-21T13:20:00 | 54.362638 | 7.845295 | 2.0 | 8.798 | 2 | 33.872 | 8.971 | 31.609 | 2 |
| 2025-04-21T13:21:00 | 54.362880 | 7.844149 | 2.0 | 8.796 | 2 | 33.864 | 8.972 | 31.600 | 2 |
| 2025-04-21T13:22:00 | 54.363123 | 7.842993 | 2.0 | 8.792 | 2 | 33.863 | 8.969 | 31.601 | 2 |
| 2025-04-21T13:23:00 | 54.363362 | 7.841846 | 2.0 | 8.790 | 2 | 33.860 | 8.964 | 31.603 | 2 |
| 2025-04-21T13:24:00 | 54.363602 | 7.840708 | 2.0 | 8.789 | 2 | 33.859 | 8.963 | 31.602 | 2 |
| 2025-04-21T13:25:00 | 54.363844 | 7.839563 | 2.0 | 8.783 | 2 | 33.858 | 8.959 | 31.605 | 2 |
| 2025-04-21T13:26:00 | 54.364090 | 7.838400 | 2.0 | 8.781 | 2 | 33.855 | 8.956 | 31.605 | 2 |
| 2025-04-21T13:27:00 | 54.364333 | 7.837230 | 2.0 | 8.780 | 2 | 33.853 | 8.953 | 31.605 | 2 |
| 2025-04-21T13:28:00 | 54.364578 | 7.836055 | 2.0 | 8.781 | 2 | 33.852 | 8.952 | 31.605 | 2 |
| 2025-04-21T13:29:00 | 54.364827 | 7.834896 | 2.0 | 8.820 | 2 | 33.861 | 8.959 | 31.608 | 2 |
| 2025-04-21T13:30:00 | 54.365058 | 7.833814 | 2.0 | 8.824 | 2 | 33.895 | 8.992 | 31.614 | 2 |
| 2025-04-21T13:31:00 | 54.365278 | 7.832800 | 2.0 | 8.829 | 2 | 33.903 | 8.998 | 31.617 | 2 |
| 2025-04-21T13:32:00 | 54.365487 | 7.831870 | 2.0 | 8.827 | 2 | 33.904 | 8.998 | 31.618 | 2 |
| 2025-04-21T13:33:00 | 54.365686 | 7.831038 | 2.0 | 8.832 | 2 | 33.907 | 9.001 | 31.618 | 2 |
| 2025-04-21T13:34:00 | 54.365879 | 7.830263 | 2.0 | 8.826 | 2 | 33.906 | 9.001 | 31.617 | 2 |
| 2025-04-21T13:35:00 | 54.366066 | 7.829510 | 2.0 | 8.825 | 2 | 33.903 | 8.997 | 31.618 | 2 |
| 2025-04-21T13:36:00 | 54.366255 | 7.828783 | 2.0 | 8.820 | 2 | 33.906 | 8.997 | 31.621 | 2 |
| 2025-04-21T13:37:00 | 54.366442 | 7.828074 | 2.0 | 8.831 | 2 | 33.903 | 8.993 | 31.621 | 2 |
| 2025-04-21T13:38:00 | 54.366628 | 7.827372 | 2.0 | 8.828 | 2 | 33.912 | 9.003 | 31.622 | 2 |
| 2025-04-21T13:39:00 | 54.366804 | 7.826688 | 2.0 | 8.809 | 2 | 33.909 | 8.996 | 31.625 | 2 |
| 2025-04-21T13:40:00 | 54.366982 | 7.826015 | 2.0 | 8.825 | 2 | 33.898 | 8.978 | 31.629 | 2 |
| 2025-04-21T13:41:00 | 54.367165 | 7.825345 | 2.0 | 8.826 | 2 | 33.934 | 9.008 | 31.640 | 2 |
| 2025-04-21T13:42:00 | 54.367337 | 7.824667 | 2.0 | 8.808 | 2 | 33.923 | 8.993 | 31.642 | 2 |
| 2025-04-21T13:43:00 | 54.367509 | 7.823985 | 2.0 | 8.823 | 2 | 33.917 | 8.982 | 31.646 | 2 |
| 2025-04-21T13:44:00 | 54.367666 | 7.823296 | 2.0 | 8.797 | 2 | 33.927 | 9.000 | 31.640 | 2 |
| 2025-04-21T13:45:00 | 54.367827 | 7.822591 | 2.0 | 8.798 | 2 | 33.903 | 8.969 | 31.643 | 2 |
| 2025-04-21T13:46:00 | 54.367992 | 7.821876 | 2.0 | 8.853 | 2 | 33.909 | 8.969 | 31.649 | 2 |
| 2025-04-21T13:47:00 | 54.368150 | 7.821168 | 2.0 | 8.849 | 2 | 33.971 | 9.018 | 31.669 | 2 |
| 2025-04-21T13:48:00 | 54.368310 | 7.820463 | 2.0 | 8.838 | 2 | 33.979 | 9.018 | 31.678 | 2 |
| 2025-04-21T13:49:00 | 54.368466 | 7.819807 | 2.0 | 8.819 | 2 | 33.971 | 9.005 | 31.681 | 2 |
| 2025-04-21T13:50:00 | 54.368610 | 7.819208 | 2.0 | 8.819 | 2 | 33.968 | 8.991 | 31.690 | 2 |
| 2025-04-21T13:51:00 | 54.368758 | 7.818646 | 2.0 | 8.800 | 2 | 33.981 | 8.987 | 31.707 | 2 |
| 2025-04-21T13:52:00 | 54.368881 | 7.818124 | 2.0 | 8.812 | 2 | 33.983 | 8.978 | 31.717 | 2 |
| 2025-04-21T13:53:00 | 54.369015 | 7.817654 | 2.0 | 8.818 | 2 | 34.005 | 8.984 | 31.735 | 2 |
| 2025-04-21T13:54:00 | 54.369132 | 7.817210 | 2.0 | 8.828 | 2 | 34.027 | 8.986 | 31.756 | 2 |
| 2025-04-21T13:55:00 | 54.369266 | 7.816796 | 2.0 | 8.817 | 2 | 34.037 | 9.000 | 31.754 | 2 |
| 2025-04-21T13:56:00 | 54.369383 | 7.816397 | 2.0 | 8.806 | 2 | 34.019 | 8.983 | 31.750 | 2 |
| 2025-04-21T13:57:00 | 54.369509 | 7.816016 | 2.0 | 8.820 | 2 | 34.018 | 8.981 | 31.751 | 2 |
| 2025-04-21T13:58:00 | 54.369645 | 7.815649 | 2.0 | 8.828 | 2 | 34.025 | 8.988 | 31.752 | 2 |
| 2025-04-21T13:59:00 | 54.369749 | 7.815297 | 2.0 | 8.809 | 2 | 34.035 | 9.000 | 31.752 | 2 |
| 2025-04-21T14:00:00 | 54.369876 | 7.814974 | 2.0 | 8.834 | 2 | 34.026 | 8.988 | 31.753 | 2 |
| 2025-04-21T14:01:00 | 54.369989 | 7.814614 | 2.0 | 8.829 | 2 | 34.035 | 9.000 | 31.752 | 2 |
| 2025-04-21T14:02:00 | 54.370130 | 7.814124 | 2.0 | 8.803 | 2 | 34.037 | 8.997 | 31.756 | 2 |
| 2025-04-21T14:03:00 | 54.370297 | 7.813392 | 2.0 | 8.780 | 2 | 34.022 | 8.971 | 31.764 | 2 |
| 2025-04-21T14:04:00 | 54.370492 | 7.812426 | 2.0 | 8.781 | 2 | 34.020 | 8.957 | 31.775 | 2 |
| 2025-04-21T14:05:00 | 54.370713 | 7.811284 | 2.0 | 8.795 | 2 | 34.024 | 8.953 | 31.782 | 2 |
| 2025-04-21T14:06:00 | 54.370949 | 7.810027 | 2.0 | 8.790 | 2 | 34.031 | 8.961 | 31.782 | 2 |
| 2025-04-21T14:07:00 | 54.371204 | 7.808676 | 2.0 | 8.807 | 2 | 34.019 | 8.950 | 31.780 | 2 |
| 2025-04-21T14:08:00 | 54.371474 | 7.807228 | 2.0 | 8.815 | 2 | 34.033 | 8.979 | 31.768 | 2 |
| 2025-04-21T14:09:00 | 54.371763 | 7.805705 | 2.0 | 8.826 | 2 | 34.036 | 8.979 | 31.771 | 2 |
| 2025-04-21T14:10:00 | 54.372058 | 7.804129 | 2.0 | 8.838 | 2 | 34.054 | 9.009 | 31.763 | 2 |
| 2025-04-21T14:11:00 | 54.372360 | 7.802522 | 2.0 | 8.829 | 2 | 34.041 | 9.000 | 31.758 | 2 |
| 2025-04-21T14:12:00 | 54.372680 | 7.800886 | 2.0 | 8.857 | 2 | 34.052 | 9.004 | 31.766 | 2 |
| 2025-04-21T14:13:00 | 54.373044 | 7.799253 | 2.0 | 8.844 | 2 | 34.076 | 9.023 | 31.774 | 2 |
| 2025-04-21T14:14:00 | 54.373426 | 7.797611 | 2.0 | 8.850 | 2 | 34.067 | 9.013 | 31.773 | 2 |
| 2025-04-21T14:15:00 | 54.373811 | 7.795966 | 2.0 | 8.865 | 2 | 34.075 | 9.024 | 31.772 | 2 |
| 2025-04-21T14:16:00 | 54.374230 | 7.794258 | 2.0 | 8.838 | 2 | 34.080 | 9.030 | 31.771 | 2 |
| 2025-04-21T14:17:00 | 54.374679 | 7.792502 | 2.0 | 8.829 | 2 | 34.064 | 9.009 | 31.774 | 2 |
| 2025-04-21T14:18:00 | 54.375139 | 7.790703 | 2.0 | 8.828 | 2 | 34.060 | 9.002 | 31.776 | 2 |
| 2025-04-21T14:19:00 | 54.375649 | 7.788671 | 2.0 | 8.831 | 2 | 34.061 | 8.999 | 31.779 | 2 |
| 2025-04-21T14:20:00 | 54.376258 | 7.786388 | 2.0 | 8.839 | 2 | 34.064 | 9.003 | 31.779 | 2 |
| 2025-04-21T14:21:00 | 54.376965 | 7.784000 | 2.0 | 8.852 | 2 | 34.076 | 9.011 | 31.784 | 2 |
| 2025-04-21T14:22:00 | 54.377680 | 7.781548 | 2.0 | 8.851 | 2 | 34.094 | 9.026 | 31.789 | 2 |
| 2025-04-21T14:23:00 | 54.378409 | 7.779042 | 2.0 | 8.856 | 2 | 34.089 | 9.020 | 31.790 | 2 |
| 2025-04-21T14:24:00 | 54.379112 | 7.776547 | 2.0 | 8.856 | 2 | 34.095 | 9.029 | 31.788 | 2 |
| 2025-04-21T14:25:00 | 54.379840 | 7.774051 | 2.0 | 8.831 | 2 | 34.083 | 9.019 | 31.784 | 2 |
| 2025-04-21T14:26:00 | 54.380705 | 7.771704 | 2.0 | 8.845 | 2 | 34.071 | 9.007 | 31.783 | 2 |
| 2025-04-21T14:27:00 | 54.381538 | 7.769335 | 2.0 | 8.834 | 2 | 34.089 | 9.014 | 31.795 | 2 |
| 2025-04-21T14:28:00 | 54.382435 | 7.766983 | 2.0 | 8.848 | 2 | 34.089 | 9.004 | 31.804 | 2 |
| 2025-04-21T14:29:00 | 54.383428 | 7.764690 | 2.0 | 8.840 | 2 | 34.104 | 9.020 | 31.805 | 2 |
| 2025-04-21T14:30:00 | 54.384675 | 7.762740 | 2.0 | 8.863 | 2 | 34.098 | 9.013 | 31.805 | 2 |
| 2025-04-21T14:31:00 | 54.386342 | 7.761772 | 2.0 | 8.881 | 2 | 34.109 | 9.031 | 31.801 | 2 |
| 2025-04-21T14:32:00 | 54.388150 | 7.761592 | 2.0 | 8.879 | 2 | 34.120 | 9.048 | 31.797 | 2 |
| 2025-04-21T14:33:00 | 54.389717 | 7.761369 | 2.0 | 8.853 | 2 | 34.114 | 9.041 | 31.797 | 2 |
| 2025-04-21T14:34:00 | 54.390970 | 7.760988 | 2.0 | 8.896 | 2 | 34.105 | 9.030 | 31.797 | 2 |
| 2025-04-21T14:35:00 | 54.391982 | 7.760712 | 2.0 | 8.903 | 2 | 34.127 | 9.058 | 31.795 | 2 |
| 2025-04-21T14:36:00 | 54.392443 | 7.760083 | 2.0 | 8.925 | 2 | 34.144 | 9.076 | 31.797 | 2 |
| 2025-04-21T14:37:00 | 54.392625 | 7.759531 | 2.0 | 8.928 | 2 | 34.166 | 9.098 | 31.800 | 2 |
| 2025-04-21T14:38:00 | 54.392767 | 7.759064 | 2.0 | 8.917 | 2 | 34.159 | 9.087 | 31.802 | 2 |
| 2025-04-21T14:39:00 | 54.392936 | 7.758659 | 2.0 | 8.920 | 2 | 34.158 | 9.089 | 31.799 | 2 |
| 2025-04-21T14:40:00 | 54.393100 | 7.758296 | 2.0 | 8.928 | 2 | 34.158 | 9.086 | 31.802 | 2 |
| 2025-04-21T14:41:00 | 54.393258 | 7.757980 | 2.0 | 8.943 | 2 | 34.166 | 9.098 | 31.800 | 2 |
| 2025-04-21T14:42:00 | 54.393372 | 7.757757 | 2.0 | 8.920 | 2 | 34.176 | 9.109 | 31.800 | 2 |
| 2025-04-21T14:43:00 | 54.393417 | 7.757634 | 2.0 | 8.911 | 2 | 34.145 | 9.089 | 31.786 | 2 |
| 2025-04-21T14:44:00 | 54.393423 | 7.757550 | 2.0 | 8.923 | 2 | 34.137 | 9.081 | 31.785 | 2 |
| 2025-04-21T14:45:00 | 54.393415 | 7.757465 | 2.0 | 8.942 | 2 | 34.151 | 9.097 | 31.785 | 2 |
| 2025-04-21T14:46:00 | 54.393386 | 7.757373 | 2.0 | 8.944 | 2 | 34.168 | 9.112 | 31.789 | 2 |
| 2025-04-21T14:47:00 | 54.393347 | 7.757273 | 2.0 | 8.931 | 2 | 34.166 | 9.105 | 31.793 | 2 |
| 2025-04-21T14:48:00 | 54.393300 | 7.757231 | 2.0 | 8.935 | 2 | 34.161 | 9.102 | 31.791 | 2 |
| 2025-04-21T14:49:00 | 54.393268 | 7.757243 | 2.0 | 8.951 | 2 | 34.166 | 9.106 | 31.792 | 2 |
| 2025-04-21T14:50:00 | 54.393251 | 7.757283 | 2.0 | 8.944 | 2 | 34.176 | 9.117 | 31.793 | 2 |
| 2025-04-21T14:51:00 | 54.393207 | 7.757274 | 2.0 | 8.938 | 2 | 34.171 | 9.111 | 31.793 | 2 |
| 2025-04-21T14:52:00 | 54.393194 | 7.757288 | 2.0 | 8.933 | 2 | 34.168 | 9.106 | 31.795 | 2 |
| 2025-04-21T14:53:00 | 54.393253 | 7.757337 | 2.0 | 8.932 | 2 | 34.165 | 9.100 | 31.797 | 2 |
| 2025-04-21T14:54:00 | 54.393259 | 7.757388 | 2.0 | 8.951 | 2 | 34.170 | 9.107 | 31.796 | 2 |
| 2025-04-21T14:55:00 | 54.393221 | 7.757417 | 2.0 | 8.942 | 2 | 34.180 | 9.116 | 31.798 | 2 |
| 2025-04-21T14:56:00 | 54.393184 | 7.757392 | 2.0 | 8.949 | 2 | 34.176 | 9.111 | 31.798 | 2 |
| 2025-04-21T14:57:00 | 54.393138 | 7.757324 | 2.0 | 8.954 | 2 | 34.185 | 9.120 | 31.800 | 2 |
| 2025-04-21T14:58:00 | 54.393096 | 7.757248 | 2.0 | 8.946 | 2 | 34.188 | 9.122 | 31.801 | 2 |
| 2025-04-21T14:59:00 | 54.393084 | 7.757214 | 2.0 | 8.946 | 2 | 34.180 | 9.113 | 31.801 | 2 |
| 2025-04-21T15:00:00 | 54.393099 | 7.757231 | 2.0 | 8.957 | 2 | 34.181 | 9.115 | 31.800 | 2 |
| 2025-04-21T15:01:00 | 54.393133 | 7.757240 | 2.0 | 8.963 | 2 | 34.189 | 9.124 | 31.800 | 2 |
| 2025-04-21T15:02:00 | 54.393120 | 7.757167 | 2.0 | 8.962 | 2 | 34.194 | 9.131 | 31.799 | 2 |
| 2025-04-21T15:03:00 | 54.393109 | 7.757115 | 2.0 | 8.957 | 2 | 34.193 | 9.130 | 31.799 | 2 |
| 2025-04-21T15:04:00 | 54.393100 | 7.757122 | 2.0 | 8.950 | 2 | 34.188 | 9.124 | 31.799 | 2 |
| 2025-04-21T15:05:00 | 54.393100 | 7.757187 | 2.0 | 8.947 | 2 | 34.183 | 9.118 | 31.799 | 2 |
| 2025-04-21T15:06:00 | 54.393096 | 7.757227 | 2.0 | 8.938 | 2 | 34.178 | 9.112 | 31.800 | 2 |
| 2025-04-21T15:07:00 | 54.393042 | 7.757103 | 2.0 | 8.937 | 2 | 34.174 | 9.109 | 31.798 | 2 |
| 2025-04-21T15:08:00 | 54.392997 | 7.756959 | 2.0 | 8.942 | 2 | 34.171 | 9.104 | 31.799 | 2 |
| 2025-04-21T15:09:00 | 54.392977 | 7.756882 | 2.0 | 8.957 | 2 | 34.177 | 9.114 | 31.797 | 2 |
| 2025-04-21T15:10:00 | 54.392980 | 7.756823 | 2.0 | 8.965 | 2 | 34.186 | 9.125 | 31.796 | 2 |
| 2025-04-21T15:11:00 | 54.392951 | 7.756715 | 2.0 | 8.974 | 2 | 34.191 | 9.134 | 31.793 | 2 |
| 2025-04-21T15:12:00 | 54.392911 | 7.756552 | 2.0 | 8.971 | 2 | 34.194 | 9.141 | 31.790 | 2 |
| 2025-04-21T15:13:00 | 54.392887 | 7.756388 | 2.0 | 8.969 | 2 | 34.183 | 9.139 | 31.781 | 2 |
| 2025-04-21T15:14:00 | 54.392886 | 7.756273 | 2.0 | 8.973 | 2 | 34.178 | 9.135 | 31.779 | 2 |
| 2025-04-21T15:15:00 | 54.392899 | 7.756208 | 2.0 | 8.974 | 2 | 34.183 | 9.138 | 31.781 | 2 |
| 2025-04-21T15:16:00 | 54.392912 | 7.756178 | 2.0 | 8.970 | 2 | 34.186 | 9.138 | 31.785 | 2 |
| 2025-04-21T15:17:00 | 54.392928 | 7.756189 | 2.0 | 8.964 | 2 | 34.184 | 9.136 | 31.784 | 2 |
| 2025-04-21T15:18:00 | 54.392949 | 7.756194 | 2.0 | 8.961 | 2 | 34.178 | 9.126 | 31.787 | 2 |
| 2025-04-21T15:19:00 | 54.392938 | 7.756200 | 2.0 | 8.984 | 2 | 34.183 | 9.135 | 31.784 | 2 |
| 2025-04-21T15:20:00 | 54.392912 | 7.756204 | 2.0 | 8.977 | 2 | 34.197 | 9.150 | 31.785 | 2 |
| 2025-04-21T15:21:00 | 54.392900 | 7.756240 | 2.0 | 8.974 | 2 | 34.192 | 9.144 | 31.785 | 2 |
| 2025-04-21T15:22:00 | 54.392904 | 7.756304 | 2.0 | 8.951 | 2 | 34.187 | 9.137 | 31.786 | 2 |
| 2025-04-21T15:23:00 | 54.392902 | 7.756311 | 2.0 | 8.956 | 2 | 34.173 | 9.118 | 31.789 | 2 |
| 2025-04-21T15:24:00 | 54.392874 | 7.756263 | 2.0 | 8.961 | 2 | 34.177 | 9.129 | 31.783 | 2 |
| 2025-04-21T15:25:00 | 54.392843 | 7.756210 | 2.0 | 8.971 | 2 | 34.177 | 9.127 | 31.785 | 2 |
| 2025-04-21T15:26:00 | 54.392827 | 7.756190 | 2.0 | 8.983 | 2 | 34.187 | 9.141 | 31.783 | 2 |
| 2025-04-21T15:27:00 | 54.392826 | 7.756213 | 2.0 | 8.969 | 2 | 34.198 | 9.153 | 31.784 | 2 |
| 2025-04-21T15:28:00 | 54.392834 | 7.756277 | 2.0 | 8.953 | 2 | 34.185 | 9.134 | 31.787 | 2 |
| 2025-04-21T15:29:00 | 54.392847 | 7.756343 | 2.0 | 8.963 | 2 | 34.174 | 9.122 | 31.786 | 2 |
| 2025-04-21T15:30:00 | 54.392855 | 7.756451 | 2.0 | 8.976 | 2 | 34.180 | 9.132 | 31.784 | 2 |
| 2025-04-21T15:31:00 | 54.392853 | 7.756598 | 2.0 | 8.984 | 2 | 34.189 | 9.145 | 31.781 | 2 |
| 2025-04-21T15:32:00 | 54.392847 | 7.756760 | 2.0 | 8.998 | 2 | 34.192 | 9.154 | 31.776 | 2 |
| 2025-04-21T15:33:00 | 54.392840 | 7.756939 | 2.0 | 8.998 | 2 | 34.204 | 9.166 | 31.778 | 2 |
| 2025-04-21T15:34:00 | 54.392848 | 7.757142 | 2.0 | 8.995 | 2 | 34.206 | 9.165 | 31.781 | 2 |
| 2025-04-21T15:35:00 | 54.392863 | 7.757328 | 2.0 | 8.986 | 2 | 34.204 | 9.161 | 31.783 | 2 |
| 2025-04-21T15:36:00 | 54.392890 | 7.757495 | 2.0 | 8.944 | 2 | 34.194 | 9.146 | 31.786 | 2 |
| 2025-04-21T15:37:00 | 54.392909 | 7.757568 | 2.0 | 8.965 | 2 | 34.168 | 9.116 | 31.786 | 2 |
| 2025-04-21T15:38:00 | 54.392920 | 7.757578 | 2.0 | 8.961 | 2 | 34.179 | 9.129 | 31.785 | 2 |
| 2025-04-21T15:39:00 | 54.392927 | 7.757532 | 2.0 | 8.970 | 2 | 34.182 | 9.131 | 31.787 | 2 |
| 2025-04-21T15:40:00 | 54.392922 | 7.757464 | 2.0 | 8.966 | 2 | 34.188 | 9.139 | 31.786 | 2 |
| 2025-04-21T15:41:00 | 54.392919 | 7.757433 | 2.0 | 8.976 | 2 | 34.187 | 9.137 | 31.786 | 2 |
| 2025-04-21T15:42:00 | 54.392919 | 7.757441 | 2.0 | 8.975 | 2 | 34.191 | 9.142 | 31.786 | 2 |
| 2025-04-21T15:43:00 | 54.392920 | 7.757481 | 2.0 | 8.969 | 2 | 34.192 | 9.142 | 31.787 | 2 |
| 2025-04-21T15:44:00 | 54.392921 | 7.757555 | 2.0 | 8.966 | 2 | 34.186 | 9.135 | 31.787 | 2 |
| 2025-04-21T15:45:00 | 54.392928 | 7.757666 | 2.0 | 8.947 | 2 | 34.185 | 9.135 | 31.786 | 2 |
| 2025-04-21T15:46:00 | 54.392924 | 7.757804 | 2.0 | 8.966 | 2 | 34.173 | 9.119 | 31.788 | 2 |
| 2025-04-21T15:47:00 | 54.392908 | 7.757868 | 2.0 | 8.971 | 2 | 34.183 | 9.134 | 31.785 | 2 |
| 2025-04-21T15:48:00 | 54.392878 | 7.757850 | 2.0 | 8.967 | 2 | 34.187 | 9.139 | 31.785 | 2 |
| 2025-04-21T15:49:00 | 54.392852 | 7.757786 | 2.0 | 8.971 | 2 | 34.185 | 9.137 | 31.784 | 2 |
| 2025-04-21T15:50:00 | 54.392857 | 7.757745 | 2.0 | 8.969 | 2 | 34.188 | 9.140 | 31.785 | 2 |
| 2025-04-21T15:51:00 | 54.392876 | 7.757739 | 2.0 | 8.955 | 2 | 34.185 | 9.134 | 31.787 | 2 |
| 2025-04-21T15:52:00 | 54.392887 | 7.757690 | 2.0 | 8.957 | 2 | 34.176 | 9.123 | 31.788 | 2 |
| 2025-04-21T15:53:00 | 54.392870 | 7.757520 | 2.0 | 8.955 | 2 | 34.177 | 9.126 | 31.786 | 2 |
| 2025-04-21T15:54:00 | 54.392853 | 7.757351 | 2.0 | 8.953 | 2 | 34.176 | 9.124 | 31.787 | 2 |
| 2025-04-21T15:55:00 | 54.392846 | 7.757228 | 2.0 | 8.948 | 2 | 34.175 | 9.121 | 31.788 | 2 |
| 2025-04-21T15:56:00 | 54.392849 | 7.757139 | 2.0 | 8.951 | 2 | 34.173 | 9.117 | 31.790 | 2 |
| 2025-04-21T15:57:00 | 54.392859 | 7.757082 | 2.0 | 8.959 | 2 | 34.174 | 9.118 | 31.790 | 2 |
| 2025-04-21T15:58:00 | 54.392889 | 7.757021 | 2.0 | 8.977 | 2 | 34.181 | 9.127 | 31.789 | 2 |
| 2025-04-21T15:59:00 | 54.392904 | 7.757000 | 2.0 | 8.996 | 2 | 34.146 | 9.149 | 31.734 | 2 |
| 2025-04-21T16:00:00 | 54.392903 | 7.757019 | 2.0 | 9.003 | 2 | 34.213 | 9.162 | 31.791 | 2 |
| 2025-04-21T16:01:00 | 54.392857 | 7.756990 | 2.0 | 9.039 | 2 | 34.226 | 9.180 | 31.788 | 2 |
| 2025-04-21T16:02:00 | 54.392821 | 7.756784 | 2.0 | 9.014 | 2 | 34.207 | 9.193 | 31.757 | 2 |
| 2025-04-21T16:03:00 | 54.392804 | 7.756530 | 2.0 | 9.015 | 2 | 34.228 | 9.181 | 31.790 | 2 |
| 2025-04-21T16:04:00 | 54.392791 | 7.756235 | 2.0 | 9.038 | 2 | 33.893 | 9.187 | 31.439 | 2 |
| 2025-04-21T16:05:00 | 54.392784 | 7.755950 | 2.0 | 9.028 | 2 | 34.061 | 9.202 | 31.599 | 2 |
| 2025-04-21T16:06:00 | 54.392792 | 7.755718 | 2.0 | 9.025 | 2 | 34.232 | 9.194 | 31.782 | 2 |
| 2025-04-21T16:07:00 | 54.392807 | 7.755531 | 2.0 | 9.014 | 2 | 34.234 | 9.189 | 31.789 | 2 |
| 2025-04-21T16:08:00 | 54.392830 | 7.755390 | 2.0 | 9.011 | 2 | 34.224 | 9.182 | 31.785 | 2 |
| 2025-04-21T16:09:00 | 54.392864 | 7.755278 | 2.0 | 8.997 | 2 | 34.224 | 9.176 | 31.790 | 2 |
| 2025-04-21T16:10:00 | 54.392897 | 7.755183 | 2.0 | 8.982 | 2 | 33.904 | 9.161 | 31.474 | 2 |
| 2025-04-21T16:11:00 | 54.392894 | 7.755125 | 2.0 | 8.967 | 2 | 33.996 | 9.146 | 31.582 | 2 |
| 2025-04-21T16:12:00 | 54.392877 | 7.755052 | 2.0 | 8.954 | 2 | 33.833 | 9.134 | 31.424 | 2 |
| 2025-04-21T16:13:00 | 54.392864 | 7.755003 | 2.0 | 8.939 | 2 | 33.988 | 9.119 | 31.597 | 2 |
| 2025-04-21T16:14:00 | 54.392861 | 7.754982 | 2.0 | 8.934 | 2 | 33.998 | 9.106 | 31.619 | 2 |
| 2025-04-21T16:15:00 | 54.392856 | 7.754989 | 2.0 | 8.932 | 2 | 33.986 | 9.103 | 31.609 | 2 |
| 2025-04-21T16:16:00 | 54.392852 | 7.755016 | 2.0 | 8.931 | 2 | 34.158 | 9.100 | 31.790 | 2 |
| 2025-04-21T16:17:00 | 54.392852 | 7.755063 | 2.0 | 8.932 | 2 | 34.119 | 9.099 | 31.750 | 2 |
| 2025-04-21T16:18:00 | 54.392861 | 7.755112 | 2.0 | 8.929 | 2 | 34.158 | 9.100 | 31.790 | 2 |
| 2025-04-21T16:19:00 | 54.392876 | 7.755162 | 2.0 | 8.931 | 2 | 34.055 | 9.098 | 31.685 | 2 |
| 2025-04-21T16:20:00 | 54.392885 | 7.755214 | 2.0 | 8.930 | 2 | 34.147 | 9.099 | 31.779 | 2 |
| 2025-04-21T16:21:00 | 54.392884 | 7.755241 | 2.0 | 8.926 | 2 | 33.926 | 9.098 | 31.552 | 2 |
| 2025-04-21T16:22:00 | 54.392887 | 7.755294 | 2.0 | 8.918 | 2 | 33.991 | 9.094 | 31.623 | 2 |
| 2025-04-21T16:23:00 | 54.392901 | 7.755356 | 2.0 | 8.917 | 2 | 33.988 | 9.085 | 31.627 | 2 |
| 2025-04-21T16:24:00 | 54.392917 | 7.755431 | 2.0 | 8.920 | 2 | 34.080 | 9.085 | 31.722 | 2 |
| 2025-04-21T16:25:00 | 54.392939 | 7.755503 | 2.0 | 8.918 | 2 | 33.990 | 9.087 | 31.628 | 2 |
| 2025-04-21T16:26:00 | 54.392963 | 7.755582 | 2.0 | 8.915 | 2 | 34.142 | 9.085 | 31.786 | 2 |
| 2025-04-21T16:27:00 | 54.392990 | 7.755660 | 2.0 | 8.916 | 2 | 34.049 | 9.083 | 31.692 | 2 |
| 2025-04-21T16:28:00 | 54.393013 | 7.755742 | 2.0 | 8.916 | 2 | 34.139 | 9.084 | 31.784 | 2 |
| 2025-04-21T16:29:00 | 54.393037 | 7.755826 | 2.0 | 8.920 | 2 | 33.988 | 9.085 | 31.627 | 2 |
| 2025-04-21T16:30:00 | 54.393060 | 7.755916 | 2.0 | 8.919 | 2 | 34.015 | 9.087 | 31.653 | 2 |
| 2025-04-21T16:31:00 | 54.393084 | 7.756010 | 2.0 | 8.921 | 2 | 34.110 | 9.087 | 31.752 | 2 |
| 2025-04-21T16:32:00 | 54.393104 | 7.756106 | 2.0 | 8.922 | 2 | 34.108 | 9.089 | 31.748 | 2 |
| 2025-04-21T16:33:00 | 54.393126 | 7.756200 | 2.0 | 8.922 | 2 | 34.078 | 9.089 | 31.717 | 2 |
| 2025-04-21T16:34:00 | 54.393149 | 7.756297 | 2.0 | 8.924 | 2 | 34.010 | 9.090 | 31.646 | 2 |
| 2025-04-21T16:35:00 | 54.393183 | 7.756389 | 2.0 | 8.924 | 2 | 33.990 | 9.092 | 31.623 | 2 |
| 2025-04-21T16:36:00 | 54.393220 | 7.756473 | 2.0 | 8.925 | 2 | 33.972 | 9.092 | 31.605 | 2 |
| 2025-04-21T16:37:00 | 54.393264 | 7.756512 | 2.0 | 8.926 | 2 | 34.059 | 9.091 | 31.695 | 2 |
| 2025-04-21T16:38:00 | 54.393277 | 7.756443 | 2.0 | 8.933 | 2 | 34.041 | 9.094 | 31.674 | 2 |
| 2025-04-21T16:39:00 | 54.393264 | 7.756355 | 2.0 | 8.943 | 2 | 34.042 | 9.101 | 31.669 | 2 |
| 2025-04-21T16:40:00 | 54.393247 | 7.756292 | 2.0 | 8.938 | 2 | 34.029 | 9.109 | 31.648 | 2 |
| 2025-04-21T16:41:00 | 54.393234 | 7.756247 | 2.0 | 8.951 | 2 | 34.057 | 9.105 | 31.681 | 2 |
| 2025-04-21T16:42:00 | 54.393229 | 7.756205 | 2.0 | 8.962 | 2 | 34.059 | 9.119 | 31.670 | 2 |
| 2025-04-21T16:43:00 | 54.393241 | 7.756165 | 2.0 | 8.956 | 2 | 34.070 | 9.129 | 31.673 | 2 |
| 2025-04-21T16:44:00 | 54.393264 | 7.756131 | 2.0 | 8.944 | 2 | 34.059 | 9.120 | 31.670 | 2 |
| 2025-04-21T16:45:00 | 54.393290 | 7.756063 | 2.0 | 8.932 | 2 | 34.077 | 9.109 | 31.698 | 2 |
| 2025-04-21T16:46:00 | 54.393298 | 7.755982 | 2.0 | 8.935 | 2 | 34.058 | 9.100 | 31.686 | 2 |
| 2025-04-21T16:47:00 | 54.393304 | 7.755948 | 2.0 | 8.949 | 2 | 34.092 | 9.107 | 31.715 | 2 |
| 2025-04-21T16:48:00 | 54.393310 | 7.755938 | 2.0 | 8.935 | 2 | 34.082 | 9.113 | 31.700 | 2 |
| 2025-04-21T16:49:00 | 54.393321 | 7.755934 | 2.0 | 8.931 | 2 | 34.087 | 9.100 | 31.716 | 2 |
| 2025-04-21T16:50:00 | 54.393324 | 7.755909 | 2.0 | 8.906 | 2 | 34.078 | 9.096 | 31.711 | 2 |
| 2025-04-21T16:51:00 | 54.393286 | 7.755844 | 2.0 | 8.912 | 2 | 34.057 | 9.073 | 31.709 | 2 |
| 2025-04-21T16:52:00 | 54.393211 | 7.755764 | 2.0 | 8.926 | 2 | 34.099 | 9.086 | 31.741 | 2 |
| 2025-04-21T16:53:00 | 54.393141 | 7.755703 | 2.0 | 8.921 | 2 | 34.111 | 9.093 | 31.747 | 2 |
| 2025-04-21T16:54:00 | 54.393081 | 7.755647 | 2.0 | 8.900 | 2 | 34.104 | 9.081 | 31.751 | 2 |
| 2025-04-21T16:55:00 | 54.393032 | 7.755580 | 2.0 | 8.909 | 2 | 34.097 | 9.071 | 31.752 | 2 |
| 2025-04-21T16:56:00 | 54.392983 | 7.755513 | 2.0 | 8.901 | 2 | 34.122 | 9.072 | 31.777 | 2 |
| 2025-04-21T16:57:00 | 54.392947 | 7.755458 | 2.0 | 8.919 | 2 | 34.111 | 9.073 | 31.765 | 2 |
| 2025-04-21T16:58:00 | 54.392888 | 7.755409 | 2.0 | 8.978 | 2 | 34.127 | 9.093 | 31.764 | 2 |
| 2025-04-21T16:59:00 | 54.392820 | 7.755321 | 2.0 | 9.002 | 2 | 34.169 | 9.147 | 31.759 | 2 |
| 2025-04-21T17:00:00 | 54.392806 | 7.755221 | 2.0 | 8.983 | 2 | 34.199 | 9.166 | 31.773 | 2 |
| 2025-04-21T17:01:00 | 54.392815 | 7.755122 | 2.0 | 8.985 | 2 | 34.189 | 9.151 | 31.776 | 2 |
| 2025-04-21T17:02:00 | 54.392839 | 7.755032 | 2.0 | 8.983 | 2 | 34.186 | 9.151 | 31.773 | 2 |
| 2025-04-21T17:03:00 | 54.392868 | 7.754865 | 2.0 | 8.996 | 2 | 34.195 | 9.151 | 31.782 | 2 |
| 2025-04-21T17:04:00 | 54.392927 | 7.754736 | 2.0 | 8.979 | 2 | 34.196 | 9.156 | 31.779 | 2 |
| 2025-04-21T17:05:00 | 54.393001 | 7.754651 | 2.0 | 8.975 | 2 | 34.191 | 9.148 | 31.781 | 2 |
| 2025-04-21T17:06:00 | 54.393102 | 7.754627 | 2.0 | 9.008 | 2 | 34.199 | 9.156 | 31.782 | 2 |
| 2025-04-21T17:07:00 | 54.393205 | 7.754681 | 2.0 | 9.024 | 2 | 34.223 | 9.192 | 31.775 | 2 |
| 2025-04-21T17:08:00 | 54.393373 | 7.754851 | 2.0 | 9.004 | 2 | 34.235 | 9.208 | 31.773 | 2 |
| 2025-04-21T17:09:00 | 54.393655 | 7.755782 | 2.0 | 8.905 | 2 | 34.212 | 9.157 | 31.794 | 2 |
| 2025-04-21T17:10:00 | 54.393857 | 7.757415 | 2.0 | 8.957 | 2 | 34.171 | 9.107 | 31.797 | 2 |
| 2025-04-21T17:11:00 | 54.394252 | 7.759295 | 2.0 | 8.982 | 2 | 34.200 | 9.148 | 31.790 | 2 |
| 2025-04-21T17:12:00 | 54.395193 | 7.760278 | 2.0 | 9.012 | 2 | 34.226 | 9.181 | 31.787 | 2 |
| 2025-04-21T17:13:00 | 54.396265 | 7.760377 | 2.0 | 8.964 | 2 | 34.237 | 9.193 | 31.788 | 2 |
| 2025-04-21T17:14:00 | 54.397044 | 7.760262 | 2.0 | 8.934 | 2 | 34.211 | 9.158 | 31.793 | 2 |
| 2025-04-21T17:15:00 | 54.397319 | 7.760049 | 2.0 | 8.888 | 2 | 34.190 | 9.133 | 31.793 | 2 |
| 2025-04-21T17:16:00 | 54.397418 | 7.759927 | 2.0 | 8.772 | 2 | 34.151 | 9.020 | 31.854 | 2 |
| 2025-04-21T17:17:00 | 54.397344 | 7.759369 | 2.0 | 8.985 | 2 | 34.134 | 9.028 | 31.829 | 2 |
| 2025-04-21T17:18:00 | 54.397336 | 7.758842 | 2.0 | 8.988 | 2 | 34.208 | 9.169 | 31.780 | 2 |
| 2025-04-21T17:19:00 | 54.397340 | 7.758395 | 2.0 | 8.985 | 2 | 34.222 | 9.182 | 31.782 | 2 |
| 2025-04-21T17:20:00 | 54.397303 | 7.758038 | 2.0 | 8.850 | 2 | 34.224 | 9.181 | 31.785 | 2 |
| 2025-04-21T17:21:00 | 54.397262 | 7.757890 | 2.0 | 8.941 | 2 | 34.138 | 9.014 | 31.846 | 2 |
| 2025-04-21T17:22:00 | 54.397105 | 7.757716 | 2.0 | 8.952 | 2 | 34.182 | 9.138 | 31.780 | 2 |
| 2025-04-21T17:23:00 | 54.397046 | 7.757597 | 2.0 | 8.838 | 2 | 34.178 | 9.106 | 31.805 | 2 |
| 2025-04-21T17:24:00 | 54.397036 | 7.757524 | 2.0 | 8.917 | 2 | 34.144 | 9.062 | 31.809 | 2 |
| 2025-04-21T17:25:00 | 54.397069 | 7.757537 | 2.0 | 8.904 | 2 | 34.173 | 9.101 | 31.804 | 2 |
| 2025-04-21T17:26:00 | 54.397168 | 7.757764 | 2.0 | 8.887 | 2 | 34.176 | 9.104 | 31.805 | 2 |
| 2025-04-21T17:27:00 | 54.397219 | 7.758127 | 2.0 | 8.971 | 2 | 34.181 | 9.108 | 31.806 | 2 |
| 2025-04-21T17:28:00 | 54.396987 | 7.758609 | 2.0 | 8.987 | 2 | 34.213 | 9.172 | 31.782 | 2 |
| 2025-04-21T17:29:00 | 54.395940 | 7.759271 | 2.0 | 8.932 | 2 | 34.214 | 9.170 | 31.785 | 2 |
| 2025-04-21T17:30:00 | 54.394227 | 7.759954 | 2.0 | 8.990 | 2 | 34.204 | 9.156 | 31.787 | 2 |
| 2025-04-21T17:31:00 | 54.392154 | 7.760353 | 2.0 | 8.958 | 2 | 34.231 | 9.189 | 31.785 | 2 |
| 2025-04-21T17:32:00 | 54.389903 | 7.760745 | 2.0 | 8.935 | 2 | 34.211 | 9.161 | 31.790 | 2 |
| 2025-04-21T17:33:00 | 54.387488 | 7.761175 | 2.0 | 8.888 | 2 | 34.192 | 9.126 | 31.801 | 2 |
| 2025-04-21T17:34:00 | 54.384903 | 7.761642 | 2.0 | 8.844 | 2 | 34.167 | 9.083 | 31.814 | 2 |
| 2025-04-21T17:35:00 | 54.382165 | 7.761763 | 2.0 | 8.850 | 2 | 34.147 | 9.036 | 31.835 | 2 |
| 2025-04-21T17:36:00 | 54.379326 | 7.761723 | 2.0 | 8.802 | 2 | 34.121 | 9.030 | 31.814 | 2 |
| 2025-04-21T17:37:00 | 54.376653 | 7.759965 | 2.0 | 8.816 | 2 | 34.060 | 8.993 | 31.784 | 2 |
| 2025-04-21T17:38:00 | 54.374396 | 7.756795 | 2.0 | 8.829 | 2 | 34.037 | 9.001 | 31.753 | 2 |
| 2025-04-21T17:39:00 | 54.372626 | 7.752757 | 2.0 | 8.897 | 2 | 34.035 | 9.015 | 31.738 | 2 |
| 2025-04-21T17:40:00 | 54.370753 | 7.748873 | 2.0 | 8.927 | 2 | 34.075 | 9.089 | 31.714 | 2 |
| 2025-04-21T17:41:00 | 54.368913 | 7.744944 | 2.0 | 8.914 | 2 | 34.060 | 9.104 | 31.685 | 2 |
| 2025-04-21T17:42:00 | 54.367080 | 7.741034 | 2.0 | 8.910 | 2 | 34.012 | 9.097 | 31.642 | 2 |
| 2025-04-21T17:43:00 | 54.365236 | 7.737142 | 2.0 | 8.902 | 2 | 33.974 | 9.088 | 31.610 | 2 |
| 2025-04-21T17:44:00 | 54.363377 | 7.733279 | 2.0 | 8.912 | 2 | 33.972 | 9.083 | 31.613 | 2 |
| 2025-04-21T17:45:00 | 54.361546 | 7.729369 | 2.0 | 8.911 | 2 | 33.988 | 9.092 | 31.621 | 2 |
| 2025-04-21T17:46:00 | 54.359700 | 7.725463 | 2.0 | 8.877 | 2 | 34.006 | 9.084 | 31.647 | 2 |
| 2025-04-21T17:47:00 | 54.357868 | 7.721533 | 2.0 | 8.876 | 2 | 34.013 | 9.056 | 31.679 | 2 |
| 2025-04-21T17:48:00 | 54.356034 | 7.717608 | 2.0 | 8.838 | 2 | 34.041 | 9.044 | 31.719 | 2 |
| 2025-04-21T17:49:00 | 54.354183 | 7.713688 | 2.0 | 8.807 | 2 | 34.031 | 9.012 | 31.737 | 2 |
| 2025-04-21T17:50:00 | 54.352343 | 7.709769 | 2.0 | 8.799 | 2 | 34.030 | 8.989 | 31.756 | 2 |
| 2025-04-21T17:51:00 | 54.350480 | 7.705862 | 2.0 | 8.812 | 2 | 34.040 | 8.981 | 31.774 | 2 |
| 2025-04-21T17:52:00 | 54.348624 | 7.701903 | 2.0 | 8.810 | 2 | 34.069 | 8.989 | 31.797 | 2 |
| 2025-04-21T17:53:00 | 54.346767 | 7.697934 | 2.0 | 8.804 | 2 | 34.085 | 8.990 | 31.812 | 2 |
| 2025-04-21T17:54:00 | 54.344884 | 7.693985 | 2.0 | 8.757 | 2 | 34.087 | 8.977 | 31.826 | 2 |
| 2025-04-21T17:55:00 | 54.343005 | 7.690016 | 2.0 | 8.789 | 2 | 34.071 | 8.948 | 31.835 | 2 |
| 2025-04-21T17:56:00 | 54.341138 | 7.686014 | 2.0 | 8.777 | 2 | 34.096 | 8.959 | 31.852 | 2 |
| 2025-04-21T17:57:00 | 54.339237 | 7.682055 | 2.0 | 8.787 | 2 | 34.097 | 8.958 | 31.853 | 2 |
| 2025-04-21T17:58:00 | 54.337401 | 7.677988 | 2.0 | 8.835 | 2 | 34.098 | 8.960 | 31.853 | 2 |
| 2025-04-21T17:59:00 | 54.335452 | 7.674053 | 2.0 | 8.919 | 2 | 34.153 | 9.039 | 31.839 | 2 |
| 2025-04-21T18:00:00 | 54.333559 | 7.670024 | 2.0 | 8.899 | 2 | 34.191 | 9.086 | 31.836 | 2 |
| 2025-04-21T18:01:00 | 54.331656 | 7.666006 | 2.0 | 8.870 | 2 | 34.166 | 9.073 | 31.822 | 2 |
| 2025-04-21T18:02:00 | 54.329772 | 7.661985 | 2.0 | 8.913 | 2 | 34.158 | 9.053 | 31.832 | 2 |
| 2025-04-21T18:03:00 | 54.327847 | 7.658026 | 2.0 | 8.942 | 2 | 34.127 | 9.096 | 31.761 | 2 |
| 2025-04-21T18:04:00 | 54.325995 | 7.653957 | 2.0 | 8.910 | 2 | 34.131 | 9.112 | 31.751 | 2 |
| 2025-04-21T18:05:00 | 54.324081 | 7.649971 | 2.0 | 8.873 | 2 | 34.113 | 9.082 | 31.759 | 2 |
| 2025-04-21T18:06:00 | 54.322167 | 7.645982 | 2.0 | 8.835 | 2 | 34.095 | 9.043 | 31.775 | 2 |
| 2025-04-21T18:07:00 | 54.320272 | 7.641951 | 2.0 | 8.843 | 2 | 34.086 | 9.013 | 31.793 | 2 |
| 2025-04-21T18:08:00 | 54.318353 | 7.637946 | 2.0 | 8.837 | 2 | 33.863 | 9.013 | 31.562 | 2 |
| 2025-04-21T18:09:00 | 54.316453 | 7.633912 | 2.0 | 8.827 | 2 | 34.183 | 9.012 | 31.894 | 2 |
| 2025-04-21T18:10:00 | 54.314576 | 7.629851 | 2.0 | 8.812 | 2 | 33.840 | 9.000 | 31.550 | 2 |
| 2025-04-21T18:11:00 | 54.312652 | 7.625857 | 2.0 | 8.784 | 2 | 34.224 | 8.979 | 31.966 | 2 |
| 2025-04-21T18:12:00 | 54.310751 | 7.621797 | 2.0 | 8.754 | 2 | 34.251 | 8.960 | 32.011 | 2 |
| 2025-04-21T18:13:00 | 54.308821 | 7.617763 | 2.0 | 8.793 | 2 | 34.034 | 8.929 | 31.814 | 2 |
| 2025-04-21T18:14:00 | 54.306884 | 7.613712 | 2.0 | 8.814 | 2 | 34.188 | 8.976 | 31.932 | 2 |
| 2025-04-21T18:15:00 | 54.304974 | 7.609604 | 2.0 | 8.799 | 2 | 34.338 | 8.988 | 32.076 | 2 |
| 2025-04-21T18:16:00 | 54.303030 | 7.605510 | 2.0 | 8.771 | 2 | 34.336 | 8.966 | 32.094 | 2 |
| 2025-04-21T18:17:00 | 54.301079 | 7.601457 | 2.0 | 8.790 | 2 | 34.318 | 8.950 | 32.090 | 2 |
| 2025-04-21T18:18:00 | 54.299154 | 7.597374 | 2.0 | 8.787 | 2 | 34.311 | 8.971 | 32.064 | 2 |
| 2025-04-21T18:19:00 | 54.297256 | 7.593246 | 2.0 | 8.765 | 2 | 34.307 | 8.957 | 32.072 | 2 |
| 2025-04-21T18:20:00 | 54.295276 | 7.589216 | 2.0 | 8.762 | 2 | 34.202 | 8.940 | 31.979 | 2 |
| 2025-04-21T18:21:00 | 54.293321 | 7.585132 | 2.0 | 8.732 | 2 | 34.115 | 8.934 | 31.894 | 2 |
| 2025-04-21T18:22:00 | 54.291392 | 7.581014 | 2.0 | 8.744 | 2 | 34.071 | 8.912 | 31.868 | 2 |
| 2025-04-21T18:23:00 | 54.289430 | 7.576962 | 2.0 | 8.739 | 2 | 34.260 | 8.919 | 32.058 | 2 |
| 2025-04-21T18:24:00 | 54.287509 | 7.572815 | 2.0 | 8.722 | 2 | 34.341 | 8.911 | 32.149 | 2 |
| 2025-04-21T18:25:00 | 54.285545 | 7.568717 | 2.0 | 8.674 | 2 | 34.523 | 8.891 | 32.356 | 2 |
| 2025-04-21T18:26:00 | 54.283627 | 7.564554 | 2.0 | 8.659 | 2 | 34.391 | 8.847 | 32.259 | 2 |
| 2025-04-21T18:27:00 | 54.281657 | 7.560499 | 2.0 | 8.697 | 2 | 34.500 | 8.841 | 32.378 | 2 |
| 2025-04-21T18:28:00 | 54.279709 | 7.556401 | 2.0 | 8.713 | 2 | 34.502 | 8.866 | 32.357 | 2 |
| 2025-04-21T18:29:00 | 54.277709 | 7.552338 | 2.0 | 8.757 | 2 | 34.620 | 8.898 | 32.451 | 2 |
| 2025-04-21T18:30:00 | 54.275786 | 7.548122 | 2.0 | 8.749 | 2 | 34.647 | 8.924 | 32.455 | 2 |
| 2025-04-21T18:31:00 | 54.273803 | 7.543977 | 2.0 | 8.734 | 2 | 34.688 | 8.920 | 32.502 | 2 |
| 2025-04-21T18:32:00 | 54.271811 | 7.539829 | 2.0 | 8.726 | 2 | 34.573 | 8.907 | 32.394 | 2 |
| 2025-04-21T18:33:00 | 54.269806 | 7.535684 | 2.0 | 8.775 | 2 | 34.574 | 8.919 | 32.384 | 2 |
| 2025-04-21T18:34:00 | 54.267869 | 7.531415 | 2.0 | 8.681 | 2 | 34.603 | 8.924 | 32.410 | 2 |
| 2025-04-21T18:35:00 | 54.265845 | 7.527290 | 2.0 | 8.745 | 2 | 34.701 | 8.869 | 32.562 | 2 |
| 2025-04-21T18:36:00 | 54.263857 | 7.523075 | 2.0 | 8.621 | 2 | 34.603 | 8.917 | 32.416 | 2 |
| 2025-04-21T18:37:00 | 54.261913 | 7.518839 | 2.0 | 8.513 | 2 | 34.785 | 8.741 | 32.768 | 2 |
| 2025-04-21T18:38:00 | 54.259934 | 7.514711 | 2.0 | 8.569 | 2 | 34.692 | 8.704 | 32.704 | 2 |
| 2025-04-21T18:39:00 | 54.257966 | 7.510559 | 2.0 | 8.541 | 2 | 34.724 | 8.724 | 32.719 | 2 |
| 2025-04-21T18:40:00 | 54.255998 | 7.506417 | 2.0 | 8.628 | 2 | 34.679 | 8.743 | 32.655 | 2 |
| 2025-04-21T18:41:00 | 54.254042 | 7.502243 | 2.0 | 8.592 | 2 | 34.658 | 8.774 | 32.604 | 2 |
| 2025-04-21T18:42:00 | 54.252070 | 7.498126 | 2.0 | 8.635 | 2 | 34.618 | 8.777 | 32.560 | 2 |
| 2025-04-21T18:43:00 | 54.250095 | 7.493991 | 2.0 | 8.574 | 2 | 34.594 | 8.807 | 32.507 | 2 |
| 2025-04-21T18:44:00 | 54.248153 | 7.489852 | 2.0 | 8.560 | 2 | 34.634 | 8.754 | 32.598 | 2 |
| 2025-04-21T18:45:00 | 54.246211 | 7.485736 | 2.0 | 8.561 | 2 | 34.623 | 8.729 | 32.609 | 2 |
| 2025-04-21T18:46:00 | 54.244273 | 7.481637 | 2.0 | 8.603 | 2 | 34.561 | 8.743 | 32.532 | 2 |
| 2025-04-21T18:47:00 | 54.242306 | 7.477576 | 2.0 | 8.709 | 2 | 34.522 | 8.799 | 32.439 | 2 |
| 2025-04-21T18:48:00 | 54.240365 | 7.473475 | 2.0 | 8.829 | 2 | 34.485 | 8.896 | 32.312 | 2 |
| 2025-04-21T18:49:00 | 54.238418 | 7.469391 | 2.0 | 8.844 | 2 | 34.434 | 8.995 | 32.170 | 2 |
| 2025-04-21T18:50:00 | 54.236482 | 7.465309 | 2.0 | 8.888 | 2 | 34.417 | 9.024 | 32.126 | 2 |
| 2025-04-21T18:51:00 | 54.234545 | 7.461235 | 2.0 | 8.894 | 2 | 34.410 | 9.064 | 32.082 | 2 |
| 2025-04-21T18:52:00 | 54.232593 | 7.457181 | 2.0 | 8.871 | 2 | 34.419 | 9.060 | 32.095 | 2 |
| 2025-04-21T18:53:00 | 54.230671 | 7.453098 | 2.0 | 8.869 | 2 | 34.407 | 9.047 | 32.095 | 2 |
| 2025-04-21T18:54:00 | 54.228731 | 7.449037 | 2.0 | 8.819 | 2 | 34.429 | 9.034 | 32.129 | 2 |
| 2025-04-21T18:55:00 | 54.226794 | 7.444963 | 2.0 | 8.792 | 2 | 34.379 | 8.988 | 32.119 | 2 |
| 2025-04-21T18:56:00 | 54.224866 | 7.440897 | 2.0 | 8.811 | 2 | 34.378 | 8.967 | 32.137 | 2 |
| 2025-04-21T18:57:00 | 54.222921 | 7.436858 | 2.0 | 8.815 | 2 | 34.488 | 8.979 | 32.240 | 2 |
| 2025-04-21T18:58:00 | 54.221006 | 7.432792 | 2.0 | 8.782 | 2 | 34.527 | 8.983 | 32.277 | 2 |
| 2025-04-21T18:59:00 | 54.219112 | 7.428717 | 2.0 | 8.750 | 2 | 34.538 | 8.950 | 32.318 | 2 |
| 2025-04-21T19:00:00 | 54.217187 | 7.424696 | 2.0 | 8.737 | 2 | 34.498 | 8.925 | 32.299 | 2 |
| 2025-04-21T19:01:00 | 54.215276 | 7.420653 | 2.0 | 8.722 | 2 | 34.522 | 8.913 | 32.335 | 2 |
| 2025-04-21T19:02:00 | 54.213353 | 7.416608 | 2.0 | 8.727 | 2 | 34.575 | 8.898 | 32.404 | 2 |
| 2025-04-21T19:03:00 | 54.211430 | 7.412566 | 2.0 | 8.658 | 2 | 34.628 | 8.892 | 32.465 | 2 |
| 2025-04-21T19:04:00 | 54.209532 | 7.408520 | 2.0 | 8.671 | 2 | 34.600 | 8.823 | 32.499 | 2 |
| 2025-04-21T19:05:00 | 54.207664 | 7.404429 | 2.0 | 8.748 | 2 | 34.646 | 8.857 | 32.516 | 2 |
| 2025-04-21T19:06:00 | 54.205972 | 7.400106 | 2.0 | 8.815 | 2 | 34.767 | 8.925 | 32.579 | 2 |
| 2025-04-21T19:07:00 | 54.204400 | 7.395627 | 2.0 | 8.773 | 2 | 34.879 | 8.972 | 32.653 | 2 |
| 2025-04-21T19:08:00 | 54.202911 | 7.391045 | 2.0 | 8.728 | 2 | 34.882 | 8.938 | 32.687 | 2 |
| 2025-04-21T19:09:00 | 54.201420 | 7.386462 | 2.0 | 8.698 | 2 | 34.821 | 8.893 | 32.665 | 2 |
| 2025-04-21T19:10:00 | 54.199929 | 7.381864 | 2.0 | 8.656 | 2 | 34.811 | 8.871 | 32.675 | 2 |
| 2025-04-21T19:11:00 | 54.198423 | 7.377288 | 2.0 | 8.602 | 2 | 34.749 | 8.813 | 32.663 | 2 |
| 2025-04-21T19:12:00 | 54.196941 | 7.372670 | 2.0 | 8.763 | 2 | 34.718 | 8.792 | 32.650 | 2 |
| 2025-04-21T19:13:00 | 54.195684 | 7.367826 | 2.0 | 8.726 | 2 | 34.864 | 8.913 | 32.691 | 2 |
| 2025-04-21T19:14:00 | 54.194617 | 7.362856 | 2.0 | 8.589 | 2 | 34.949 | 8.888 | 32.803 | 2 |
| 2025-04-21T19:15:00 | 54.193834 | 7.357762 | 2.0 | 8.492 | 2 | 34.909 | 8.736 | 32.902 | 2 |
| 2025-04-21T19:16:00 | 54.193188 | 7.352622 | 2.0 | 8.539 | 2 | 34.891 | 8.702 | 32.915 | 2 |
| 2025-04-21T19:17:00 | 54.192778 | 7.347401 | 2.0 | 8.505 | 2 | 34.894 | 8.646 | 32.970 | 2 |
| 2025-04-21T19:18:00 | 54.192570 | 7.342134 | 2.0 | 8.515 | 2 | 34.906 | 8.687 | 32.944 | 2 |
| 2025-04-21T19:19:00 | 54.192407 | 7.336845 | 2.0 | 8.499 | 2 | 34.896 | 8.672 | 32.948 | 2 |
| 2025-04-21T19:20:00 | 54.192330 | 7.331540 | 2.0 | 8.461 | 2 | 34.935 | 8.660 | 33.000 | 2 |
| 2025-04-21T19:21:00 | 54.192292 | 7.326222 | 2.0 | 8.482 | 2 | 34.981 | 8.640 | 33.067 | 2 |
| 2025-04-21T19:22:00 | 54.192252 | 7.320895 | 2.0 | 8.520 | 2 | 35.015 | 8.660 | 33.084 | 2 |
| 2025-04-21T19:23:00 | 54.192183 | 7.315563 | 2.0 | 8.481 | 2 | 35.071 | 8.690 | 33.115 | 2 |
| 2025-04-21T19:24:00 | 54.192153 | 7.310211 | 2.0 | 8.413 | 2 | 35.052 | 8.631 | 33.150 | 2 |
| 2025-04-21T19:25:00 | 54.192100 | 7.304858 | 2.0 | 8.354 | 2 | 35.041 | 8.588 | 33.179 | 2 |
| 2025-04-21T19:26:00 | 54.192024 | 7.299497 | 2.0 | 8.372 | 2 | 35.028 | 8.532 | 33.218 | 2 |
| 2025-04-21T19:27:00 | 54.191954 | 7.294122 | 2.0 | 8.414 | 2 | 35.061 | 8.547 | 33.238 | 2 |
| 2025-04-21T19:28:00 | 54.191865 | 7.288745 | 2.0 | 8.389 | 2 | 35.137 | 8.590 | 33.278 | 2 |
| 2025-04-21T19:29:00 | 54.191725 | 7.283367 | 2.0 | 8.321 | 2 | 35.148 | 8.547 | 33.330 | 2 |
| 2025-04-21T19:30:00 | 54.191609 | 7.277969 | 2.0 | 8.271 | 2 | 35.122 | 8.487 | 33.359 | 2 |
| 2025-04-21T19:31:00 | 54.191500 | 7.272557 | 2.0 | 8.282 | 2 | 35.120 | 8.455 | 33.388 | 2 |
| 2025-04-21T19:32:00 | 54.191380 | 7.267137 | 2.0 | 8.217 | 2 | 35.132 | 8.437 | 33.417 | 2 |
| 2025-04-21T19:33:00 | 54.191218 | 7.261705 | 2.0 | 8.169 | 2 | 35.129 | 8.409 | 33.441 | 2 |
| 2025-04-21T19:34:00 | 54.191157 | 7.256297 | 2.0 | 8.067 | 2 | 35.065 | 8.312 | 33.465 | 2 |
| 2025-04-21T19:35:00 | 54.191046 | 7.250884 | 2.0 | 8.057 | 2 | 35.002 | 8.244 | 33.463 | 2 |
| 2025-04-21T19:36:00 | 54.190952 | 7.245491 | 2.0 | 8.029 | 2 | 34.985 | 8.228 | 33.460 | 2 |
| 2025-04-21T19:37:00 | 54.190829 | 7.240113 | 2.0 | 7.919 | 2 | 34.957 | 8.196 | 33.461 | 2 |
| 2025-04-21T19:38:00 | 54.190741 | 7.234730 | 2.0 | 7.864 | 2 | 34.853 | 8.089 | 33.453 | 2 |
| 2025-04-21T19:39:00 | 54.190655 | 7.229350 | 2.0 | 7.832 | 2 | 34.797 | 8.043 | 33.437 | 2 |
| 2025-04-21T19:40:00 | 54.190557 | 7.223964 | 2.0 | 7.822 | 2 | 34.765 | 8.016 | 33.428 | 2 |
| 2025-04-21T19:41:00 | 54.190458 | 7.218582 | 2.0 | 7.829 | 2 | 34.748 | 8.002 | 33.424 | 2 |
| 2025-04-21T19:42:00 | 54.190372 | 7.213211 | 2.0 | 7.821 | 2 | 34.749 | 8.012 | 33.415 | 2 |
| 2025-04-21T19:43:00 | 54.190230 | 7.207850 | 2.0 | 7.813 | 2 | 34.738 | 8.002 | 33.413 | 2 |
| 2025-04-21T19:44:00 | 54.190145 | 7.202466 | 2.0 | 7.814 | 2 | 34.728 | 7.992 | 33.412 | 2 |
| 2025-04-21T19:45:00 | 54.190011 | 7.197082 | 2.0 | 7.814 | 2 | 34.729 | 7.993 | 33.412 | 2 |
| 2025-04-21T19:46:00 | 54.189909 | 7.191684 | 2.0 | 7.832 | 2 | 34.731 | 7.994 | 33.413 | 2 |
| 2025-04-21T19:47:00 | 54.189807 | 7.186284 | 2.0 | 7.853 | 2 | 34.758 | 8.008 | 33.429 | 2 |
| 2025-04-21T19:48:00 | 54.189651 | 7.180885 | 2.0 | 7.918 | 2 | 34.808 | 8.039 | 33.452 | 2 |
| 2025-04-21T19:49:00 | 54.189537 | 7.175436 | 2.0 | 8.169 | 2 | 34.893 | 8.125 | 33.461 | 2 |
| 2025-04-21T19:50:00 | 54.189390 | 7.169947 | 2.0 | 8.299 | 2 | 35.078 | 8.346 | 33.447 | 2 |
| 2025-04-21T19:51:00 | 54.189277 | 7.164446 | 2.0 | 8.287 | 2 | 35.200 | 8.482 | 33.447 | 2 |
| 2025-04-21T19:52:00 | 54.189156 | 7.158943 | 2.0 | 8.076 | 2 | 35.219 | 8.427 | 33.519 | 2 |
| 2025-04-21T19:53:00 | 54.189020 | 7.153459 | 2.0 | 7.989 | 2 | 35.083 | 8.238 | 33.555 | 2 |
| 2025-04-21T19:54:00 | 54.188894 | 7.147990 | 2.0 | 8.058 | 2 | 35.043 | 8.184 | 33.564 | 2 |
| 2025-04-21T19:55:00 | 54.188780 | 7.142518 | 2.0 | 8.078 | 2 | 35.101 | 8.245 | 33.567 | 2 |
| 2025-04-21T19:56:00 | 54.188685 | 7.137033 | 2.0 | 7.991 | 2 | 35.111 | 8.246 | 33.577 | 2 |
| 2025-04-21T19:57:00 | 54.188526 | 7.131557 | 2.0 | 7.893 | 2 | 35.037 | 8.146 | 33.594 | 2 |
| 2025-04-21T19:58:00 | 54.188438 | 7.126114 | 2.0 | 7.880 | 2 | 34.965 | 8.074 | 33.586 | 2 |
| 2025-04-21T19:59:00 | 54.188341 | 7.120670 | 2.0 | 7.846 | 2 | 34.941 | 8.052 | 33.582 | 2 |
| 2025-04-21T20:00:00 | 54.188223 | 7.115232 | 2.0 | 7.823 | 2 | 34.911 | 8.022 | 33.579 | 2 |
| 2025-04-21T20:01:00 | 54.188142 | 7.109798 | 2.0 | 7.787 | 2 | 34.888 | 7.996 | 33.579 | 2 |
| 2025-04-21T20:02:00 | 54.188041 | 7.104380 | 2.0 | 7.781 | 2 | 34.858 | 7.963 | 33.579 | 2 |
| 2025-04-21T20:03:00 | 54.187934 | 7.099000 | 2.0 | 7.769 | 2 | 34.849 | 7.960 | 33.572 | 2 |
| 2025-04-21T20:04:00 | 54.187814 | 7.093621 | 2.0 | 7.784 | 2 | 34.835 | 7.950 | 33.566 | 2 |
| 2025-04-21T20:05:00 | 54.187702 | 7.088253 | 2.0 | 7.896 | 2 | 34.843 | 7.967 | 33.559 | 2 |
| 2025-04-21T20:06:00 | 54.187567 | 7.082873 | 2.0 | 8.083 | 2 | 34.955 | 8.104 | 33.547 | 2 |
| 2025-04-21T20:07:00 | 54.187446 | 7.077465 | 2.0 | 8.254 | 2 | 35.115 | 8.284 | 33.545 | 2 |
| 2025-04-21T20:08:00 | 54.187352 | 7.072014 | 2.0 | 8.287 | 2 | 35.220 | 8.420 | 33.527 | 2 |
| 2025-04-21T20:09:00 | 54.187301 | 7.066569 | 2.0 | 8.213 | 2 | 35.209 | 8.441 | 33.495 | 2 |
| 2025-04-21T20:10:00 | 54.187224 | 7.061162 | 2.0 | 8.109 | 2 | 35.144 | 8.374 | 33.490 | 2 |
| 2025-04-21T20:11:00 | 54.187179 | 7.055768 | 2.0 | 8.068 | 2 | 35.047 | 8.275 | 33.481 | 2 |
| 2025-04-21T20:12:00 | 54.187110 | 7.050372 | 2.0 | 8.043 | 2 | 35.007 | 8.244 | 33.469 | 2 |
| 2025-04-21T20:13:00 | 54.187074 | 7.044962 | 2.0 | 7.967 | 2 | 34.974 | 8.209 | 33.467 | 2 |
| 2025-04-21T20:14:00 | 54.187044 | 7.039563 | 2.0 | 7.920 | 2 | 34.912 | 8.136 | 33.471 | 2 |
| 2025-04-21T20:15:00 | 54.187005 | 7.034180 | 2.0 | 7.978 | 2 | 34.878 | 8.108 | 33.461 | 2 |
| 2025-04-21T20:16:00 | 54.186943 | 7.028801 | 2.0 | 7.992 | 2 | 34.916 | 8.154 | 33.458 | 2 |
| 2025-04-21T20:17:00 | 54.186914 | 7.023431 | 2.0 | 7.954 | 2 | 34.937 | 8.173 | 33.462 | 2 |
| 2025-04-21T20:18:00 | 54.186885 | 7.018079 | 2.0 | 7.903 | 2 | 34.904 | 8.118 | 33.479 | 2 |
| 2025-04-21T20:19:00 | 54.186830 | 7.012726 | 2.0 | 7.894 | 2 | 34.876 | 8.081 | 33.485 | 2 |
| 2025-04-21T20:20:00 | 54.186786 | 7.007368 | 2.0 | 7.964 | 2 | 34.883 | 8.094 | 33.480 | 2 |
| 2025-04-21T20:21:00 | 54.186751 | 7.002020 | 2.0 | 7.897 | 2 | 34.914 | 8.101 | 33.506 | 2 |
| 2025-04-21T20:22:00 | 54.186673 | 6.996684 | 2.0 | 7.854 | 2 | 34.887 | 8.067 | 33.510 | 2 |
| 2025-04-21T20:23:00 | 54.186651 | 6.991355 | 2.0 | 7.905 | 2 | 34.856 | 8.044 | 33.499 | 2 |
| 2025-04-21T20:24:00 | 54.186602 | 6.986038 | 2.0 | 7.873 | 2 | 34.890 | 8.080 | 33.501 | 2 |
| 2025-04-21T20:25:00 | 54.186556 | 6.980724 | 2.0 | 7.870 | 2 | 34.887 | 8.062 | 33.515 | 2 |
| 2025-04-21T20:26:00 | 54.186508 | 6.975416 | 2.0 | 7.843 | 2 | 34.876 | 8.035 | 33.529 | 2 |
| 2025-04-21T20:27:00 | 54.186447 | 6.970089 | 2.0 | 7.840 | 2 | 34.880 | 8.022 | 33.545 | 2 |
| 2025-04-21T20:28:00 | 54.186391 | 6.964746 | 2.0 | 7.925 | 2 | 34.935 | 8.027 | 33.599 | 2 |
| 2025-04-21T20:29:00 | 54.186331 | 6.959401 | 2.0 | 8.076 | 2 | 35.089 | 8.137 | 33.658 | 2 |
| 2025-04-21T20:30:00 | 54.186228 | 6.954072 | 2.0 | 8.104 | 2 | 35.250 | 8.242 | 33.729 | 2 |
| 2025-04-21T20:31:00 | 54.186174 | 6.948753 | 2.0 | 8.102 | 2 | 35.312 | 8.272 | 33.766 | 2 |
| 2025-04-21T20:32:00 | 54.186148 | 6.943436 | 2.0 | 8.039 | 2 | 35.332 | 8.271 | 33.788 | 2 |
| 2025-04-21T20:33:00 | 54.186051 | 6.938108 | 2.0 | 7.955 | 2 | 35.293 | 8.203 | 33.812 | 2 |
| 2025-04-21T20:34:00 | 54.185988 | 6.932779 | 2.0 | 8.145 | 2 | 35.226 | 8.142 | 33.799 | 2 |
| 2025-04-21T20:35:00 | 54.185929 | 6.927451 | 2.0 | 8.306 | 2 | 35.343 | 8.341 | 33.732 | 2 |
| 2025-04-21T20:36:00 | 54.185761 | 6.922088 | 2.0 | 8.315 | 2 | 35.416 | 8.475 | 33.681 | 2 |
| 2025-04-21T20:37:00 | 54.185723 | 6.916697 | 2.0 | 8.295 | 2 | 35.338 | 8.481 | 33.593 | 2 |
| 2025-04-21T20:38:00 | 54.185679 | 6.911302 | 2.0 | 8.346 | 2 | 35.280 | 8.465 | 33.547 | 2 |
| 2025-04-21T20:39:00 | 54.185588 | 6.905897 | 2.0 | 8.399 | 2 | 35.314 | 8.544 | 33.508 | 2 |
| 2025-04-21T20:40:00 | 54.185534 | 6.900508 | 2.0 | 8.353 | 2 | 35.328 | 8.562 | 33.506 | 2 |
| 2025-04-21T20:41:00 | 54.185486 | 6.895112 | 2.0 | 8.343 | 2 | 35.298 | 8.522 | 33.512 | 2 |
| 2025-04-21T20:42:00 | 54.185445 | 6.889719 | 2.0 | 8.257 | 2 | 35.278 | 8.500 | 33.512 | 2 |
| 2025-04-21T20:43:00 | 54.185366 | 6.884307 | 2.0 | 8.237 | 2 | 35.226 | 8.438 | 33.516 | 2 |
| 2025-04-21T20:44:00 | 54.185345 | 6.878902 | 2.0 | 7.936 | 2 | 35.154 | 8.332 | 33.541 | 2 |
| 2025-04-21T20:45:00 | 54.185293 | 6.873501 | 2.0 | 7.995 | 2 | 34.996 | 8.138 | 33.558 | 2 |
| 2025-04-21T20:46:00 | 54.185254 | 6.868091 | 2.0 | 8.052 | 2 | 35.015 | 8.182 | 33.536 | 2 |
| 2025-04-21T20:47:00 | 54.185188 | 6.862670 | 2.0 | 8.089 | 2 | 35.052 | 8.234 | 33.526 | 2 |
| 2025-04-21T20:48:00 | 54.185136 | 6.857241 | 2.0 | 8.162 | 2 | 35.069 | 8.267 | 33.512 | 2 |
| 2025-04-21T20:49:00 | 54.185068 | 6.851806 | 2.0 | 8.252 | 2 | 35.104 | 8.334 | 33.486 | 2 |
| 2025-04-21T20:50:00 | 54.185018 | 6.846369 | 2.0 | 8.316 | 2 | 35.168 | 8.437 | 33.455 | 2 |
| 2025-04-21T20:51:00 | 54.184967 | 6.840922 | 2.0 | 8.310 | 2 | 35.194 | 8.480 | 33.442 | 2 |
| 2025-04-21T20:52:00 | 54.184914 | 6.835484 | 2.0 | 8.292 | 2 | 35.178 | 8.469 | 33.436 | 2 |
| 2025-04-21T20:53:00 | 54.184881 | 6.830040 | 2.0 | 8.241 | 2 | 35.154 | 8.453 | 33.425 | 2 |
| 2025-04-21T20:54:00 | 54.184810 | 6.824603 | 2.0 | 8.244 | 2 | 35.033 | 8.413 | 33.336 | 2 |
| 2025-04-21T20:55:00 | 54.184736 | 6.819183 | 2.0 | 8.224 | 2 | 35.023 | 8.411 | 33.327 | 2 |
| 2025-04-21T20:56:00 | 54.184663 | 6.813768 | 2.0 | 8.153 | 2 | 34.872 | 8.391 | 33.186 | 2 |
| 2025-04-21T20:57:00 | 54.184620 | 6.808373 | 2.0 | 8.194 | 2 | 35.026 | 8.340 | 33.397 | 2 |
| 2025-04-21T20:58:00 | 54.184572 | 6.802984 | 2.0 | 8.192 | 2 | 35.036 | 8.364 | 33.385 | 2 |
| 2025-04-21T20:59:00 | 54.184503 | 6.797613 | 2.0 | 8.150 | 2 | 34.772 | 8.356 | 33.113 | 2 |
| 2025-04-21T21:00:00 | 54.184482 | 6.792259 | 2.0 | 8.095 | 2 | 34.765 | 8.318 | 33.142 | 2 |
| 2025-04-21T21:01:00 | 54.184406 | 6.786923 | 2.0 | 7.959 | 2 | 34.925 | 8.251 | 33.375 | 2 |
| 2025-04-21T21:02:00 | 54.184355 | 6.781592 | 2.0 | 7.907 | 2 | 34.819 | 8.142 | 33.366 | 2 |
| 2025-04-21T21:03:00 | 54.184303 | 6.776263 | 2.0 | 7.957 | 2 | 34.767 | 8.095 | 33.355 | 2 |
| 2025-04-21T21:04:00 | 54.184254 | 6.770934 | 2.0 | 7.951 | 2 | 34.781 | 8.126 | 33.341 | 2 |
| 2025-04-21T21:05:00 | 54.184214 | 6.765582 | 2.0 | 7.934 | 2 | 34.784 | 8.130 | 33.340 | 2 |
| 2025-04-21T21:06:00 | 54.184176 | 6.760231 | 2.0 | 7.944 | 2 | 34.755 | 8.099 | 33.339 | 2 |
| 2025-04-21T21:07:00 | 54.184129 | 6.754895 | 2.0 | 8.099 | 2 | 34.791 | 8.151 | 33.327 | 2 |
| 2025-04-21T21:08:00 | 54.184082 | 6.749557 | 2.0 | 7.952 | 2 | 34.890 | 8.239 | 33.349 | 2 |
| 2025-04-21T21:09:00 | 54.184054 | 6.744231 | 2.0 | 7.872 | 2 | 34.795 | 8.114 | 33.367 | 2 |
| 2025-04-21T21:10:00 | 54.183996 | 6.738914 | 2.0 | 7.878 | 2 | 34.727 | 8.048 | 33.357 | 2 |
| 2025-04-21T21:11:00 | 54.183980 | 6.733606 | 2.0 | 7.890 | 2 | 34.739 | 8.064 | 33.355 | 2 |
| 2025-04-21T21:12:00 | 54.183918 | 6.728361 | 2.0 | 7.854 | 2 | 34.740 | 8.051 | 33.368 | 2 |
| 2025-04-21T21:13:00 | 54.183854 | 6.723145 | 2.0 | 7.876 | 2 | 34.730 | 8.039 | 33.369 | 2 |
| 2025-04-21T21:14:00 | 54.183836 | 6.717960 | 2.0 | 7.907 | 2 | 34.745 | 8.052 | 33.373 | 2 |
| 2025-04-21T21:15:00 | 54.183786 | 6.712800 | 2.0 | 7.901 | 2 | 34.769 | 8.078 | 33.373 | 2 |
| 2025-04-21T21:16:00 | 54.183735 | 6.707636 | 2.0 | 7.918 | 2 | 34.782 | 8.079 | 33.386 | 2 |
| 2025-04-21T21:17:00 | 54.183683 | 6.702465 | 2.0 | 8.354 | 2 | 34.841 | 8.140 | 33.391 | 2 |
| 2025-04-21T21:18:00 | 54.183637 | 6.697269 | 2.0 | 8.411 | 2 | 35.227 | 8.506 | 33.452 | 2 |
| 2025-04-21T21:19:00 | 54.183575 | 6.692038 | 2.0 | 8.394 | 2 | 35.318 | 8.568 | 33.489 | 2 |
| 2025-04-21T21:20:00 | 54.183506 | 6.686757 | 2.0 | 8.296 | 2 | 35.302 | 8.547 | 33.492 | 2 |
| 2025-04-21T21:21:00 | 54.183438 | 6.681462 | 2.0 | 8.192 | 2 | 35.225 | 8.455 | 33.499 | 2 |
| 2025-04-21T21:22:00 | 54.183368 | 6.676172 | 2.0 | 8.163 | 2 | 35.142 | 8.366 | 33.495 | 2 |
| 2025-04-21T21:23:00 | 54.183312 | 6.670883 | 2.0 | 8.115 | 2 | 35.109 | 8.332 | 33.493 | 2 |
| 2025-04-21T21:24:00 | 54.183292 | 6.665606 | 2.0 | 8.071 | 2 | 35.064 | 8.269 | 33.505 | 2 |
| 2025-04-21T21:25:00 | 54.183226 | 6.660333 | 2.0 | 7.920 | 2 | 35.034 | 8.229 | 33.512 | 2 |
| 2025-04-21T21:26:00 | 54.183150 | 6.655081 | 2.0 | 8.134 | 2 | 34.951 | 8.128 | 33.520 | 2 |
| 2025-04-21T21:27:00 | 54.183045 | 6.649844 | 2.0 | 8.309 | 2 | 35.123 | 8.312 | 33.527 | 2 |
| 2025-04-21T21:28:00 | 54.182933 | 6.644660 | 2.0 | 8.391 | 2 | 35.161 | 8.518 | 33.371 | 2 |
| 2025-04-21T21:29:00 | 54.182880 | 6.639535 | 2.0 | 8.362 | 2 | 35.068 | 8.554 | 33.239 | 2 |
| 2025-04-21T21:30:00 | 54.182800 | 6.634411 | 2.0 | 8.297 | 2 | 35.002 | 8.518 | 33.204 | 2 |
| 2025-04-21T21:31:00 | 54.182751 | 6.629291 | 2.0 | 8.262 | 2 | 34.943 | 8.467 | 33.189 | 2 |
| 2025-04-21T21:32:00 | 54.182699 | 6.624194 | 2.0 | 8.230 | 2 | 34.899 | 8.433 | 33.175 | 2 |
| 2025-04-21T21:33:00 | 54.182655 | 6.619097 | 2.0 | 8.222 | 2 | 34.866 | 8.403 | 33.168 | 2 |
| 2025-04-21T21:34:00 | 54.182643 | 6.614004 | 2.0 | 8.183 | 2 | 34.854 | 8.391 | 33.167 | 2 |
| 2025-04-21T21:35:00 | 54.182597 | 6.608900 | 2.0 | 8.080 | 2 | 34.812 | 8.337 | 33.174 | 2 |
| 2025-04-21T21:36:00 | 54.182577 | 6.603773 | 2.0 | 8.045 | 2 | 34.743 | 8.258 | 33.175 | 2 |
| 2025-04-21T21:37:00 | 54.182516 | 6.598647 | 2.0 | 7.991 | 2 | 34.702 | 8.208 | 33.179 | 2 |
| 2025-04-21T21:38:00 | 54.182476 | 6.593511 | 2.0 | 7.935 | 2 | 34.692 | 8.196 | 33.179 | 2 |
| 2025-04-21T21:39:00 | 54.182455 | 6.588385 | 2.0 | 7.898 | 2 | 34.674 | 8.106 | 33.246 | 2 |
| 2025-04-21T21:40:00 | 54.182406 | 6.583267 | 2.0 | 7.916 | 2 | 34.649 | 8.082 | 33.242 | 2 |
| 2025-04-21T21:41:00 | 54.182390 | 6.578187 | 2.0 | 7.927 | 2 | 34.637 | 8.091 | 33.220 | 2 |
| 2025-04-21T21:42:00 | 54.182356 | 6.573093 | 2.0 | 8.000 | 2 | 34.627 | 8.117 | 33.185 | 2 |
| 2025-04-21T21:43:00 | 54.182335 | 6.567998 | 2.0 | 8.094 | 2 | 34.659 | 8.197 | 33.143 | 2 |
| 2025-04-21T21:44:00 | 54.182290 | 6.562902 | 2.0 | 8.033 | 2 | 34.728 | 8.266 | 33.152 | 2 |
| 2025-04-21T21:45:00 | 54.182237 | 6.557836 | 2.0 | 8.022 | 2 | 34.717 | 8.190 | 33.212 | 2 |
| 2025-04-21T21:46:00 | 54.182226 | 6.552792 | 2.0 | 7.887 | 2 | 34.719 | 8.162 | 33.240 | 2 |
| 2025-04-21T21:47:00 | 54.182154 | 6.547788 | 2.0 | 7.886 | 2 | 34.674 | 8.074 | 33.276 | 2 |
| 2025-04-21T21:48:00 | 54.182069 | 6.542778 | 2.0 | 7.880 | 2 | 34.678 | 8.059 | 33.295 | 2 |
| 2025-04-21T21:49:00 | 54.182054 | 6.537767 | 2.0 | 7.958 | 2 | 34.705 | 8.074 | 33.309 | 2 |
| 2025-04-21T21:50:00 | 54.181965 | 6.532752 | 2.0 | 7.984 | 2 | 34.809 | 8.126 | 33.370 | 2 |
| 2025-04-21T21:51:00 | 54.181860 | 6.527717 | 2.0 | 8.029 | 2 | 34.988 | 8.160 | 33.529 | 2 |
| 2025-04-21T21:52:00 | 54.181820 | 6.522666 | 2.0 | 8.084 | 2 | 35.119 | 8.208 | 33.622 | 2 |
| 2025-04-21T21:53:00 | 54.181765 | 6.517602 | 2.0 | 7.952 | 2 | 35.214 | 8.233 | 33.699 | 2 |
| 2025-04-21T21:54:00 | 54.181640 | 6.512524 | 2.0 | 7.973 | 2 | 35.184 | 8.132 | 33.764 | 2 |
| 2025-04-21T21:55:00 | 54.181604 | 6.507425 | 2.0 | 8.011 | 2 | 35.215 | 8.158 | 33.772 | 2 |
| 2025-04-21T21:56:00 | 54.181544 | 6.502315 | 2.0 | 8.013 | 2 | 35.237 | 8.179 | 33.775 | 2 |
| 2025-04-21T21:57:00 | 54.181495 | 6.497376 | 2.0 | 8.147 | 2 | 35.252 | 8.206 | 33.765 | 2 |
| 2025-04-21T21:58:00 | 54.181441 | 6.492626 | 2.0 | 8.179 | 2 | 35.349 | 8.339 | 33.741 | 2 |
| 2025-04-21T21:59:00 | 54.181385 | 6.488314 | 2.0 | 8.121 | 2 | 35.371 | 8.344 | 33.759 | 2 |
| 2025-04-21T22:00:00 | 54.181358 | 6.484240 | 2.0 | 8.050 | 2 | 35.315 | 8.279 | 33.762 | 2 |
| 2025-04-21T22:01:00 | 54.181322 | 6.480277 | 2.0 | 7.949 | 2 | 35.242 | 8.192 | 33.768 | 2 |
| 2025-04-21T22:02:00 | 54.181268 | 6.476357 | 2.0 | 7.989 | 2 | 35.184 | 8.132 | 33.764 | 2 |
| 2025-04-21T22:03:00 | 54.181201 | 6.472452 | 2.0 | 8.020 | 2 | 35.202 | 8.170 | 33.747 | 2 |
| 2025-04-21T22:04:00 | 54.181138 | 6.468565 | 2.0 | 7.979 | 2 | 35.217 | 8.183 | 33.750 | 2 |
| 2025-04-21T22:05:00 | 54.181113 | 6.464701 | 2.0 | 7.960 | 2 | 35.184 | 8.145 | 33.752 | 2 |
| 2025-04-21T22:06:00 | 54.181096 | 6.460847 | 2.0 | 7.999 | 2 | 35.176 | 8.147 | 33.741 | 2 |
| 2025-04-21T22:07:00 | 54.181036 | 6.457020 | 2.0 | 7.987 | 2 | 35.179 | 8.158 | 33.734 | 2 |
| 2025-04-21T22:08:00 | 54.181000 | 6.453213 | 2.0 | 7.980 | 2 | 35.174 | 8.150 | 33.736 | 2 |
| 2025-04-21T22:09:00 | 54.180985 | 6.449441 | 2.0 | 7.937 | 2 | 35.176 | 8.160 | 33.729 | 2 |
| 2025-04-21T22:10:00 | 54.180956 | 6.445882 | 2.0 | 7.856 | 2 | 35.134 | 8.105 | 33.737 | 2 |
| 2025-04-21T22:11:00 | 54.180898 | 6.442607 | 2.0 | 7.837 | 2 | 34.725 | 8.027 | 33.375 | 2 |
| 2025-04-21T22:12:00 | 54.180875 | 6.439491 | 2.0 | 7.835 | 2 | 35.044 | 8.016 | 33.727 | 2 |
| 2025-04-21T22:13:00 | 54.180855 | 6.436477 | 2.0 | 7.816 | 2 | 35.043 | 8.010 | 33.731 | 2 |
| 2025-04-21T22:14:00 | 54.180834 | 6.433527 | 2.0 | 7.823 | 2 | 35.033 | 8.000 | 33.730 | 2 |
| 2025-04-21T22:15:00 | 54.180798 | 6.430618 | 2.0 | 7.828 | 2 | 35.030 | 8.001 | 33.726 | 2 |
| 2025-04-21T22:16:00 | 54.180748 | 6.427729 | 2.0 | 7.881 | 2 | 35.032 | 8.008 | 33.721 | 2 |
| 2025-04-21T22:17:00 | 54.180718 | 6.424859 | 2.0 | 7.863 | 2 | 35.032 | 8.045 | 33.686 | 2 |
| 2025-04-21T22:18:00 | 54.180687 | 6.422018 | 2.0 | 7.897 | 2 | 35.062 | 8.046 | 33.717 | 2 |
| 2025-04-21T22:19:00 | 54.180668 | 6.419187 | 2.0 | 7.902 | 2 | 35.017 | 8.070 | 33.646 | 2 |
| 2025-04-21T22:20:00 | 54.180642 | 6.416361 | 2.0 | 7.896 | 2 | 35.080 | 8.067 | 33.716 | 2 |
| 2025-04-21T22:21:00 | 54.180624 | 6.413543 | 2.0 | 7.899 | 2 | 34.990 | 8.066 | 33.621 | 2 |
| 2025-04-21T22:22:00 | 54.180470 | 6.410767 | 2.0 | 7.918 | 2 | 35.082 | 8.072 | 33.713 | 2 |
| 2025-04-21T22:23:00 | 54.180139 | 6.407951 | 2.0 | 7.927 | 2 | 35.088 | 8.091 | 33.701 | 2 |
| 2025-04-21T22:24:00 | 54.179839 | 6.405042 | 2.0 | 7.935 | 2 | 34.868 | 8.096 | 33.462 | 2 |
| 2025-04-21T22:25:00 | 54.179555 | 6.402075 | 2.0 | 8.112 | 2 | 34.670 | 8.118 | 33.230 | 2 |
| 2025-04-21T22:26:00 | 54.179238 | 6.399104 | 2.0 | 8.231 | 2 | 34.382 | 8.302 | 32.751 | 2 |
| 2025-04-21T22:27:00 | 54.178920 | 6.396115 | 2.0 | 8.243 | 2 | 34.917 | 8.396 | 33.229 | 2 |
| 2025-04-21T22:28:00 | 54.178610 | 6.393111 | 2.0 | 8.230 | 2 | 34.781 | 8.400 | 33.081 | 2 |
| 2025-04-21T22:29:00 | 54.178306 | 6.390086 | 2.0 | 8.223 | 2 | 34.952 | 8.397 | 33.265 | 2 |
| 2025-04-21T22:30:00 | 54.177982 | 6.387053 | 2.0 | 8.209 | 2 | 34.916 | 8.385 | 33.238 | 2 |
| 2025-04-21T22:31:00 | 54.177625 | 6.384023 | 2.0 | 8.229 | 2 | 34.905 | 8.379 | 33.232 | 2 |
| 2025-04-21T22:32:00 | 54.177200 | 6.381125 | 2.0 | 8.241 | 2 | 34.927 | 8.398 | 33.238 | 2 |
| 2025-04-21T22:33:00 | 54.176471 | 6.378534 | 2.0 | 8.242 | 2 | 34.973 | 8.411 | 33.274 | 2 |
| 2025-04-21T22:34:00 | 54.175474 | 6.376269 | 2.0 | 8.221 | 2 | 34.871 | 8.403 | 33.174 | 2 |
| 2025-04-21T22:35:00 | 54.174421 | 6.374021 | 2.0 | 8.213 | 2 | 35.035 | 8.389 | 33.360 | 2 |
| 2025-04-21T22:36:00 | 54.173288 | 6.371482 | 2.0 | 8.229 | 2 | 35.261 | 8.384 | 33.604 | 2 |
| 2025-04-21T22:37:00 | 54.172074 | 6.368799 | 2.0 | 8.235 | 2 | 35.269 | 8.398 | 33.599 | 2 |
| 2025-04-21T22:38:00 | 54.170676 | 6.366282 | 2.0 | 8.239 | 2 | 35.268 | 8.398 | 33.598 | 2 |
| 2025-04-21T22:39:00 | 54.168957 | 6.364403 | 2.0 | 8.253 | 2 | 35.274 | 8.412 | 33.591 | 2 |
| 2025-04-21T22:40:00 | 54.167041 | 6.362836 | 2.0 | 8.173 | 2 | 35.287 | 8.409 | 33.608 | 2 |
| 2025-04-21T22:41:00 | 54.164532 | 6.362050 | 2.0 | 8.041 | 2 | 35.272 | 8.323 | 33.674 | 2 |
| 2025-04-21T22:42:00 | 54.161766 | 6.362160 | 2.0 | 8.016 | 2 | 35.190 | 8.220 | 33.686 | 2 |
| 2025-04-21T22:43:00 | 54.158951 | 6.362168 | 2.0 | 8.040 | 2 | 35.152 | 8.192 | 33.672 | 2 |
| 2025-04-21T22:44:00 | 54.156120 | 6.362232 | 2.0 | 8.151 | 2 | 35.162 | 8.231 | 33.646 | 2 |
| 2025-04-21T22:45:00 | 54.153280 | 6.362296 | 2.0 | 8.179 | 2 | 35.209 | 8.322 | 33.608 | 2 |
| 2025-04-21T22:46:00 | 54.150442 | 6.362407 | 2.0 | 8.195 | 2 | 35.215 | 8.351 | 33.587 | 2 |
| 2025-04-21T22:47:00 | 54.147602 | 6.362527 | 2.0 | 8.043 | 2 | 35.194 | 8.326 | 33.589 | 2 |
| 2025-04-21T22:48:00 | 54.144766 | 6.362596 | 2.0 | 8.013 | 2 | 35.111 | 8.214 | 33.608 | 2 |
| 2025-04-21T22:49:00 | 54.141932 | 6.362658 | 2.0 | 7.941 | 2 | 35.086 | 8.193 | 33.601 | 2 |
| 2025-04-21T22:50:00 | 54.139119 | 6.362786 | 2.0 | 7.885 | 2 | 35.027 | 8.098 | 33.630 | 2 |
| 2025-04-21T22:51:00 | 54.136310 | 6.362824 | 2.0 | 7.899 | 2 | 34.985 | 8.064 | 33.617 | 2 |
| 2025-04-21T22:52:00 | 54.133585 | 6.362929 | 2.0 | 7.913 | 2 | 34.995 | 8.087 | 33.606 | 2 |
| 2025-04-21T22:53:00 | 54.130961 | 6.363020 | 2.0 | 8.019 | 2 | 34.988 | 8.093 | 33.593 | 2 |
| 2025-04-21T22:54:00 | 54.128626 | 6.363003 | 2.0 | 8.074 | 2 | 35.057 | 8.199 | 33.565 | 2 |
| 2025-04-21T22:55:00 | 54.126449 | 6.363021 | 2.0 | 8.108 | 2 | 35.094 | 8.252 | 33.553 | 2 |
| 2025-04-21T22:56:00 | 54.124337 | 6.363048 | 2.0 | 8.152 | 2 | 35.121 | 8.286 | 33.550 | 2 |
| 2025-04-21T22:57:00 | 54.122337 | 6.362340 | 2.0 | 8.159 | 2 | 35.154 | 8.328 | 33.544 | 2 |
| 2025-04-21T22:58:00 | 54.120372 | 6.361658 | 2.0 | 8.086 | 2 | 35.132 | 8.293 | 33.554 | 2 |
| 2025-04-21T22:59:00 | 54.118416 | 6.361051 | 2.0 | 8.117 | 2 | 35.107 | 8.291 | 33.530 | 2 |
| 2025-04-21T23:00:00 | 54.116524 | 6.360384 | 2.0 | 8.066 | 2 | 35.092 | 8.269 | 33.535 | 2 |
| 2025-04-21T23:01:00 | 54.114638 | 6.359774 | 2.0 | 8.084 | 2 | 35.036 | 8.236 | 33.507 | 2 |
| 2025-04-21T23:02:00 | 54.112696 | 6.359167 | 2.0 | 8.061 | 2 | 35.051 | 8.258 | 33.502 | 2 |
| 2025-04-21T23:03:00 | 54.110722 | 6.358550 | 2.0 | 8.029 | 2 | 35.036 | 8.221 | 33.521 | 2 |
| 2025-04-21T23:04:00 | 54.108723 | 6.358183 | 2.0 | 8.177 | 2 | 35.060 | 8.242 | 33.527 | 2 |
| 2025-04-21T23:05:00 | 54.106697 | 6.358059 | 2.0 | 8.110 | 2 | 35.193 | 8.317 | 33.596 | 2 |
| 2025-04-21T23:06:00 | 54.104665 | 6.357794 | 2.0 | 8.102 | 2 | 35.156 | 8.268 | 33.604 | 2 |
| 2025-04-21T23:07:00 | 54.102608 | 6.357630 | 2.0 | 8.167 | 2 | 35.135 | 8.280 | 33.570 | 2 |
| 2025-04-21T23:08:00 | 54.100546 | 6.357375 | 2.0 | 8.238 | 2 | 35.176 | 8.353 | 33.544 | 2 |
| 2025-04-21T23:09:00 | 54.098480 | 6.357114 | 2.0 | 8.050 | 2 | 35.200 | 8.386 | 33.538 | 2 |
| 2025-04-21T23:10:00 | 54.096412 | 6.356859 | 2.0 | 7.885 | 2 | 35.065 | 8.199 | 33.573 | 2 |
| 2025-04-21T23:11:00 | 54.094344 | 6.356580 | 2.0 | 7.925 | 2 | 34.957 | 8.083 | 33.569 | 2 |
| 2025-04-21T23:12:00 | 54.092291 | 6.356320 | 2.0 | 8.087 | 2 | 34.986 | 8.144 | 33.542 | 2 |
| 2025-04-21T23:13:00 | 54.090309 | 6.356080 | 2.0 | 7.973 | 2 | 35.047 | 8.216 | 33.538 | 2 |
| 2025-04-21T23:14:00 | 54.088416 | 6.355855 | 2.0 | 8.176 | 2 | 35.012 | 8.192 | 33.523 | 2 |
| 2025-04-21T23:15:00 | 54.086748 | 6.355665 | 2.0 | 8.291 | 2 | 35.126 | 8.343 | 33.500 | 2 |
| 2025-04-21T23:16:00 | 54.085231 | 6.355516 | 2.0 | 8.288 | 2 | 35.207 | 8.448 | 33.486 | 2 |
| 2025-04-21T23:17:00 | 54.083819 | 6.355374 | 2.0 | 8.315 | 2 | 35.215 | 8.452 | 33.491 | 2 |
| 2025-04-21T23:18:00 | 54.082545 | 6.355235 | 2.0 | 8.226 | 2 | 35.224 | 8.457 | 33.496 | 2 |
| 2025-04-21T23:19:00 | 54.081432 | 6.355297 | 2.0 | 8.251 | 2 | 35.181 | 8.407 | 33.498 | 2 |
| 2025-04-21T23:20:00 | 54.080463 | 6.355515 | 2.0 | 8.325 | 2 | 35.197 | 8.441 | 33.482 | 2 |
| 2025-04-21T23:21:00 | 54.079616 | 6.355682 | 2.0 | 8.348 | 2 | 35.235 | 8.486 | 33.480 | 2 |
| 2025-04-21T23:22:00 | 54.078862 | 6.355766 | 2.0 | 8.353 | 2 | 35.250 | 8.514 | 33.469 | 2 |
| 2025-04-21T23:23:00 | 54.078179 | 6.355834 | 2.0 | 8.275 | 2 | 35.182 | 8.501 | 33.410 | 2 |
| 2025-04-21T23:24:00 | 54.077564 | 6.356009 | 2.0 | 8.175 | 2 | 35.032 | 8.426 | 33.322 | 2 |
| 2025-04-21T23:25:00 | 54.077025 | 6.356102 | 2.0 | 8.103 | 2 | 34.889 | 8.337 | 33.255 | 2 |
| 2025-04-21T23:26:00 | 54.076547 | 6.356199 | 2.0 | 8.055 | 2 | 34.783 | 8.267 | 33.209 | 2 |
| 2025-04-21T23:27:00 | 54.076097 | 6.356435 | 2.0 | 8.038 | 2 | 34.720 | 8.224 | 33.183 | 2 |
| 2025-04-21T23:28:00 | 54.075693 | 6.356589 | 2.0 | 8.041 | 2 | 34.702 | 8.212 | 33.175 | 2 |
| 2025-04-21T23:29:00 | 54.075339 | 6.356635 | 2.0 | 8.032 | 2 | 34.705 | 8.211 | 33.179 | 2 |
| 2025-04-21T23:30:00 | 54.075031 | 6.356632 | 2.0 | 8.036 | 2 | 34.687 | 8.204 | 33.167 | 2 |
| 2025-04-21T23:31:00 | 54.074741 | 6.356733 | 2.0 | 8.043 | 2 | 34.684 | 8.207 | 33.161 | 2 |
| 2025-04-21T23:32:00 | 54.074458 | 6.357019 | 2.0 | 8.048 | 2 | 34.683 | 8.214 | 33.153 | 2 |
| 2025-04-21T23:33:00 | 54.074180 | 6.357322 | 2.0 | 8.040 | 2 | 34.685 | 8.215 | 33.154 | 2 |
| 2025-04-21T23:34:00 | 54.073912 | 6.357569 | 2.0 | 8.040 | 2 | 34.682 | 8.209 | 33.157 | 2 |
| 2025-04-21T23:35:00 | 54.073642 | 6.357866 | 2.0 | 8.052 | 2 | 34.449 | 8.213 | 32.906 | 2 |
| 2025-04-21T23:36:00 | 54.073373 | 6.358153 | 2.0 | 8.042 | 2 | 34.685 | 8.218 | 33.151 | 2 |
| 2025-04-21T23:37:00 | 54.073110 | 6.358397 | 2.0 | 8.048 | 2 | 34.684 | 8.213 | 33.155 | 2 |
| 2025-04-21T23:38:00 | 54.072851 | 6.358700 | 2.0 | 8.061 | 2 | 34.651 | 8.218 | 33.115 | 2 |
| 2025-04-21T23:39:00 | 54.072591 | 6.359046 | 2.0 | 8.065 | 2 | 34.685 | 8.230 | 33.140 | 2 |
| 2025-04-21T23:40:00 | 54.072340 | 6.359327 | 2.0 | 8.066 | 2 | 34.663 | 8.230 | 33.117 | 2 |
| 2025-04-21T23:41:00 | 54.072091 | 6.359647 | 2.0 | 8.090 | 2 | 34.497 | 8.236 | 32.935 | 2 |
| 2025-04-21T23:42:00 | 54.071848 | 6.360034 | 2.0 | 8.095 | 2 | 34.573 | 8.257 | 32.996 | 2 |
| 2025-04-21T23:43:00 | 54.071618 | 6.360372 | 2.0 | 8.093 | 2 | 34.720 | 8.259 | 33.150 | 2 |
| 2025-04-21T23:44:00 | 54.071409 | 6.360673 | 2.0 | 8.105 | 2 | 34.581 | 8.262 | 32.999 | 2 |
| 2025-04-21T23:45:00 | 54.071210 | 6.361034 | 2.0 | 8.119 | 2 | 34.712 | 8.275 | 33.126 | 2 |
| 2025-04-21T23:46:00 | 54.071019 | 6.361444 | 2.0 | 8.125 | 2 | 34.750 | 8.288 | 33.154 | 2 |
| 2025-04-21T23:47:00 | 54.070837 | 6.361809 | 2.0 | 8.113 | 2 | 34.752 | 8.289 | 33.155 | 2 |
| 2025-04-21T23:48:00 | 54.070663 | 6.362150 | 2.0 | 8.121 | 2 | 34.720 | 8.283 | 33.127 | 2 |
| 2025-04-21T23:49:00 | 54.070490 | 6.362546 | 2.0 | 8.144 | 2 | 34.512 | 8.296 | 32.895 | 2 |
| 2025-04-21T23:50:00 | 54.070316 | 6.363028 | 2.0 | 8.134 | 2 | 34.562 | 8.307 | 32.937 | 2 |
| 2025-04-21T23:51:00 | 54.070126 | 6.363480 | 2.0 | 8.128 | 2 | 34.590 | 8.304 | 32.970 | 2 |
| 2025-04-21T23:52:00 | 54.069935 | 6.363811 | 2.0 | 8.123 | 2 | 34.541 | 8.293 | 32.928 | 2 |
| 2025-04-21T23:53:00 | 54.069761 | 6.364019 | 2.0 | 8.118 | 2 | 34.651 | 8.289 | 33.048 | 2 |
| 2025-04-21T23:54:00 | 54.069617 | 6.364140 | 2.0 | 8.117 | 2 | 34.728 | 8.289 | 33.130 | 2 |
| 2025-04-21T23:55:00 | 54.069467 | 6.364268 | 2.0 | 8.120 | 2 | 34.737 | 8.285 | 33.143 | 2 |
| 2025-04-21T23:56:00 | 54.069309 | 6.364414 | 2.0 | 8.126 | 2 | 34.732 | 8.290 | 33.133 | 2 |
| 2025-04-21T23:57:00 | 54.069161 | 6.364513 | 2.0 | 8.118 | 2 | 34.722 | 8.293 | 33.120 | 2 |
| 2025-04-21T23:58:00 | 54.069044 | 6.364571 | 2.0 | 8.110 | 2 | 34.717 | 8.287 | 33.120 | 2 |
| 2025-04-21T23:59:00 | 54.068919 | 6.364656 | 2.0 | 8.106 | 2 | 34.662 | 8.277 | 33.071 | 2 |
| 2025-04-22T00:00:00 | 54.068792 | 6.364770 | 2.0 | 8.109 | 2 | 34.711 | 8.275 | 33.125 | 2 |
| 2025-04-22T00:01:00 | 54.068686 | 6.364860 | 2.0 | 8.106 | 2 | 34.714 | 8.278 | 33.125 | 2 |
| 2025-04-22T00:02:00 | 54.068573 | 6.364965 | 2.0 | 8.106 | 2 | 34.702 | 8.275 | 33.115 | 2 |
| 2025-04-22T00:03:00 | 54.068447 | 6.365108 | 2.0 | 8.138 | 2 | 34.711 | 8.281 | 33.119 | 2 |
| 2025-04-22T00:04:00 | 54.068335 | 6.365218 | 2.0 | 8.142 | 2 | 34.730 | 8.309 | 33.113 | 2 |
| 2025-04-22T00:05:00 | 54.068235 | 6.365291 | 2.0 | 8.144 | 2 | 34.580 | 8.310 | 32.953 | 2 |
| 2025-04-22T00:06:00 | 54.068152 | 6.365357 | 2.0 | 8.138 | 2 | 34.604 | 8.307 | 32.982 | 2 |
| 2025-04-22T00:07:00 | 54.068051 | 6.365462 | 2.0 | 8.138 | 2 | 34.586 | 8.308 | 32.962 | 2 |
| 2025-04-22T00:08:00 | 54.067942 | 6.365594 | 2.0 | 8.141 | 2 | 34.631 | 8.304 | 33.013 | 2 |
| 2025-04-22T00:09:00 | 54.067847 | 6.365680 | 2.0 | 8.133 | 2 | 34.719 | 8.307 | 33.103 | 2 |
| 2025-04-22T00:10:00 | 54.067786 | 6.365721 | 2.0 | 8.123 | 2 | 34.675 | 8.300 | 33.063 | 2 |
| 2025-04-22T00:11:00 | 54.067728 | 6.365780 | 2.0 | 8.129 | 2 | 34.481 | 8.293 | 32.865 | 2 |
| 2025-04-22T00:12:00 | 54.067658 | 6.365868 | 2.0 | 8.128 | 2 | 34.665 | 8.297 | 33.056 | 2 |
| 2025-04-22T00:13:00 | 54.067596 | 6.365937 | 2.0 | 8.120 | 2 | 34.629 | 8.295 | 33.019 | 2 |
| 2025-04-22T00:14:00 | 54.067536 | 6.366012 | 2.0 | 8.114 | 2 | 34.634 | 8.288 | 33.031 | 2 |
| 2025-04-22T00:15:00 | 54.067462 | 6.366132 | 2.0 | 8.111 | 2 | 34.675 | 8.282 | 33.080 | 2 |
| 2025-04-22T00:16:00 | 54.067392 | 6.366251 | 2.0 | 8.108 | 2 | 34.583 | 8.280 | 32.985 | 2 |
| 2025-04-22T00:17:00 | 54.067336 | 6.366340 | 2.0 | 8.105 | 2 | 34.636 | 8.274 | 33.046 | 2 |
| 2025-04-22T00:18:00 | 54.067248 | 6.366418 | 2.0 | 8.107 | 2 | 34.570 | 8.273 | 32.977 | 2 |
| 2025-04-22T00:19:00 | 54.067143 | 6.366508 | 2.0 | 8.107 | 2 | 34.588 | 8.277 | 32.993 | 2 |
| 2025-04-22T00:20:00 | 54.067056 | 6.366540 | 2.0 | 8.103 | 2 | 34.599 | 8.274 | 33.007 | 2 |
| 2025-04-22T00:21:00 | 54.066988 | 6.366545 | 2.0 | 8.111 | 2 | 34.568 | 8.274 | 32.974 | 2 |
| 2025-04-22T00:22:00 | 54.066882 | 6.366601 | 2.0 | 8.124 | 2 | 34.582 | 8.280 | 32.984 | 2 |
| 2025-04-22T00:23:00 | 54.066745 | 6.366703 | 2.0 | 8.130 | 2 | 34.618 | 8.292 | 33.010 | 2 |
| 2025-04-22T00:24:00 | 54.066616 | 6.366768 | 2.0 | 8.122 | 2 | 34.613 | 8.298 | 33.000 | 2 |
| 2025-04-22T00:25:00 | 54.066495 | 6.366799 | 2.0 | 8.136 | 2 | 34.454 | 8.290 | 32.839 | 2 |
| 2025-04-22T00:26:00 | 54.066347 | 6.366858 | 2.0 | 8.147 | 2 | 34.624 | 8.307 | 33.003 | 2 |
| 2025-04-22T00:27:00 | 54.066210 | 6.366886 | 2.0 | 8.133 | 2 | 34.678 | 8.311 | 33.056 | 2 |
| 2025-04-22T00:28:00 | 54.066082 | 6.366901 | 2.0 | 8.133 | 2 | 34.766 | 8.299 | 33.161 | 2 |
| 2025-04-22T00:29:00 | 54.065921 | 6.366946 | 2.0 | 8.141 | 2 | 34.766 | 8.303 | 33.157 | 2 |
| 2025-04-22T00:30:00 | 54.065775 | 6.366961 | 2.0 | 8.130 | 2 | 34.767 | 8.305 | 33.156 | 2 |
| 2025-04-22T00:31:00 | 54.065635 | 6.366960 | 2.0 | 8.128 | 2 | 34.766 | 8.300 | 33.160 | 2 |
| 2025-04-22T00:32:00 | 54.065461 | 6.367045 | 2.0 | 8.139 | 2 | 34.768 | 8.301 | 33.161 | 2 |
| 2025-04-22T00:33:00 | 54.065249 | 6.367246 | 2.0 | 8.142 | 2 | 34.771 | 8.305 | 33.160 | 2 |
| 2025-04-22T00:34:00 | 54.065023 | 6.367507 | 2.0 | 8.147 | 2 | 34.774 | 8.310 | 33.159 | 2 |
| 2025-04-22T00:35:00 | 54.064804 | 6.367734 | 2.0 | 8.145 | 2 | 34.778 | 8.315 | 33.158 | 2 |
| 2025-04-22T00:36:00 | 54.064576 | 6.367990 | 2.0 | 8.164 | 2 | 34.780 | 8.317 | 33.159 | 2 |
| 2025-04-22T00:37:00 | 54.064339 | 6.368287 | 2.0 | 8.151 | 2 | 34.788 | 8.326 | 33.158 | 2 |
| 2025-04-22T00:38:00 | 54.064118 | 6.368535 | 2.0 | 8.167 | 2 | 34.786 | 8.322 | 33.160 | 2 |
| 2025-04-22T00:39:00 | 54.063888 | 6.368808 | 2.0 | 8.178 | 2 | 34.791 | 8.334 | 33.154 | 2 |
| 2025-04-22T00:40:00 | 54.063654 | 6.369126 | 2.0 | 8.190 | 2 | 34.800 | 8.347 | 33.151 | 2 |
| 2025-04-22T00:41:00 | 54.063434 | 6.369384 | 2.0 | 8.181 | 2 | 34.811 | 8.361 | 33.150 | 2 |
| 2025-04-22T00:42:00 | 54.063219 | 6.369646 | 2.0 | 8.203 | 2 | 34.809 | 8.350 | 33.158 | 2 |
| 2025-04-22T00:43:00 | 54.062991 | 6.369951 | 2.0 | 8.212 | 2 | 34.821 | 8.370 | 33.152 | 2 |
| 2025-04-22T00:44:00 | 54.062772 | 6.370209 | 2.0 | 8.198 | 2 | 34.829 | 8.378 | 33.153 | 2 |
| 2025-04-22T00:45:00 | 54.062558 | 6.370459 | 2.0 | 8.224 | 2 | 34.824 | 8.372 | 33.153 | 2 |
| 2025-04-22T00:46:00 | 54.062325 | 6.370779 | 2.0 | 8.240 | 2 | 34.839 | 8.392 | 33.150 | 2 |
| 2025-04-22T00:47:00 | 54.062100 | 6.371073 | 2.0 | 8.232 | 2 | 34.851 | 8.406 | 33.150 | 2 |
| 2025-04-22T00:48:00 | 54.061890 | 6.371329 | 2.0 | 8.227 | 2 | 34.845 | 8.396 | 33.153 | 2 |
| 2025-04-22T00:49:00 | 54.061672 | 6.371623 | 2.0 | 8.276 | 2 | 34.848 | 8.403 | 33.149 | 2 |
| 2025-04-22T00:50:00 | 54.061443 | 6.371917 | 2.0 | 8.276 | 2 | 34.882 | 8.443 | 33.148 | 2 |
| 2025-04-22T00:51:00 | 54.061225 | 6.372165 | 2.0 | 8.281 | 2 | 34.882 | 8.440 | 33.150 | 2 |
| 2025-04-22T00:52:00 | 54.061000 | 6.372446 | 2.0 | 8.296 | 2 | 34.891 | 8.454 | 33.147 | 2 |
| 2025-04-22T00:53:00 | 54.060769 | 6.372745 | 2.0 | 8.286 | 2 | 34.896 | 8.462 | 33.145 | 2 |
| 2025-04-22T00:54:00 | 54.060550 | 6.372991 | 2.0 | 8.277 | 2 | 34.885 | 8.446 | 33.148 | 2 |
| 2025-04-22T00:55:00 | 54.060331 | 6.373259 | 2.0 | 8.270 | 2 | 34.879 | 8.440 | 33.147 | 2 |
| 2025-04-22T00:56:00 | 54.060098 | 6.373571 | 2.0 | 8.232 | 2 | 34.875 | 8.432 | 33.151 | 2 |
| 2025-04-22T00:57:00 | 54.059879 | 6.373832 | 2.0 | 8.172 | 2 | 34.843 | 8.385 | 33.161 | 2 |
| 2025-04-22T00:58:00 | 54.059655 | 6.374091 | 2.0 | 8.176 | 2 | 34.807 | 8.339 | 33.166 | 2 |
| 2025-04-22T00:59:00 | 54.059421 | 6.374402 | 2.0 | 8.176 | 2 | 34.800 | 8.346 | 33.152 | 2 |
| 2025-04-22T01:00:00 | 54.059194 | 6.374679 | 2.0 | 8.167 | 2 | 34.793 | 8.344 | 33.147 | 2 |
| 2025-04-22T01:01:00 | 54.058966 | 6.374955 | 2.0 | 8.160 | 2 | 34.779 | 8.333 | 33.142 | 2 |
| 2025-04-22T01:02:00 | 54.058724 | 6.375283 | 2.0 | 8.160 | 2 | 34.764 | 8.330 | 33.129 | 2 |
| 2025-04-22T01:03:00 | 54.058495 | 6.375574 | 2.0 | 8.162 | 2 | 34.761 | 8.329 | 33.127 | 2 |
| 2025-04-22T01:04:00 | 54.058279 | 6.375836 | 2.0 | 8.170 | 2 | 34.758 | 8.330 | 33.123 | 2 |
| 2025-04-22T01:05:00 | 54.058051 | 6.376156 | 2.0 | 8.180 | 2 | 34.761 | 8.340 | 33.117 | 2 |
| 2025-04-22T01:06:00 | 54.057825 | 6.376470 | 2.0 | 8.169 | 2 | 34.762 | 8.345 | 33.113 | 2 |
| 2025-04-22T01:07:00 | 54.057615 | 6.376746 | 2.0 | 8.159 | 2 | 34.753 | 8.333 | 33.115 | 2 |
| 2025-04-22T01:08:00 | 54.057398 | 6.377059 | 2.0 | 8.167 | 2 | 34.746 | 8.332 | 33.108 | 2 |
| 2025-04-22T01:09:00 | 54.057178 | 6.377381 | 2.0 | 8.164 | 2 | 34.747 | 8.335 | 33.107 | 2 |
| 2025-04-22T01:10:00 | 54.056971 | 6.377650 | 2.0 | 8.163 | 2 | 34.745 | 8.331 | 33.108 | 2 |
| 2025-04-22T01:11:00 | 54.056760 | 6.377947 | 2.0 | 8.180 | 2 | 34.749 | 8.337 | 33.107 | 2 |
| 2025-04-22T01:12:00 | 54.056540 | 6.378284 | 2.0 | 8.183 | 2 | 34.757 | 8.347 | 33.106 | 2 |
| 2025-04-22T01:13:00 | 54.056331 | 6.378566 | 2.0 | 8.193 | 2 | 34.761 | 8.349 | 33.108 | 2 |
| 2025-04-22T01:14:00 | 54.056134 | 6.378834 | 2.0 | 8.219 | 2 | 34.774 | 8.369 | 33.103 | 2 |
| 2025-04-22T01:15:00 | 54.055921 | 6.379173 | 2.0 | 8.250 | 2 | 34.792 | 8.391 | 33.102 | 2 |
| 2025-04-22T01:16:00 | 54.055708 | 6.379491 | 2.0 | 8.236 | 2 | 34.810 | 8.411 | 33.102 | 2 |
| 2025-04-22T01:17:00 | 54.055507 | 6.379774 | 2.0 | 8.239 | 2 | 34.804 | 8.402 | 33.104 | 2 |
| 2025-04-22T01:18:00 | 54.055296 | 6.380102 | 2.0 | 8.255 | 2 | 34.809 | 8.410 | 33.102 | 2 |
| 2025-04-22T01:19:00 | 54.055078 | 6.380438 | 2.0 | 8.241 | 2 | 34.820 | 8.425 | 33.099 | 2 |
| 2025-04-22T01:20:00 | 54.054874 | 6.380724 | 2.0 | 8.215 | 2 | 34.806 | 8.403 | 33.105 | 2 |
| 2025-04-22T01:21:00 | 54.054659 | 6.381041 | 2.0 | 8.243 | 2 | 34.791 | 8.388 | 33.103 | 2 |
| 2025-04-22T01:22:00 | 54.054435 | 6.381393 | 2.0 | 8.224 | 2 | 34.800 | 8.405 | 33.097 | 2 |
| 2025-04-22T01:23:00 | 54.054214 | 6.381688 | 2.0 | 8.208 | 2 | 34.791 | 8.392 | 33.100 | 2 |
| 2025-04-22T01:24:00 | 54.053998 | 6.381994 | 2.0 | 8.200 | 2 | 34.775 | 8.374 | 33.100 | 2 |
| 2025-04-22T01:25:00 | 54.053763 | 6.382358 | 2.0 | 8.215 | 2 | 34.766 | 8.367 | 33.097 | 2 |
| 2025-04-22T01:26:00 | 54.053538 | 6.382669 | 2.0 | 8.197 | 2 | 34.775 | 8.386 | 33.088 | 2 |
| 2025-04-22T01:27:00 | 54.053317 | 6.382962 | 2.0 | 8.192 | 2 | 34.760 | 8.362 | 33.095 | 2 |
| 2025-04-22T01:28:00 | 54.053079 | 6.383311 | 2.0 | 8.199 | 2 | 34.247 | 8.360 | 32.555 | 2 |
| 2025-04-22T01:29:00 | 54.052848 | 6.383629 | 2.0 | 8.170 | 2 | 34.753 | 8.362 | 33.088 | 2 |
| 2025-04-22T01:30:00 | 54.052630 | 6.383909 | 2.0 | 8.196 | 2 | 34.495 | 8.347 | 32.829 | 2 |
| 2025-04-22T01:31:00 | 54.052410 | 6.384238 | 2.0 | 8.195 | 2 | 34.420 | 8.361 | 32.737 | 2 |
| 2025-04-22T01:32:00 | 54.052212 | 6.384625 | 2.0 | 8.182 | 2 | 34.749 | 8.359 | 33.086 | 2 |
| 2025-04-22T01:33:00 | 54.052035 | 6.385029 | 2.0 | 8.158 | 2 | 34.724 | 8.339 | 33.079 | 2 |
| 2025-04-22T01:34:00 | 54.051887 | 6.385439 | 2.0 | 8.160 | 2 | 34.722 | 8.328 | 33.087 | 2 |
| 2025-04-22T01:35:00 | 54.051772 | 6.385829 | 2.0 | 8.138 | 2 | 34.692 | 8.320 | 33.063 | 2 |
| 2025-04-22T01:36:00 | 54.051690 | 6.386192 | 2.0 | 8.162 | 2 | 34.487 | 8.308 | 32.857 | 2 |
| 2025-04-22T01:37:00 | 54.051606 | 6.386505 | 2.0 | 8.180 | 2 | 34.724 | 8.334 | 33.083 | 2 |
| 2025-04-22T01:38:00 | 54.051541 | 6.386753 | 2.0 | 8.186 | 2 | 34.739 | 8.349 | 33.085 | 2 |
| 2025-04-22T01:39:00 | 54.051508 | 6.386941 | 2.0 | 8.194 | 2 | 34.418 | 8.355 | 32.740 | 2 |
| 2025-04-22T01:40:00 | 54.051485 | 6.387096 | 2.0 | 8.199 | 2 | 34.576 | 8.362 | 32.900 | 2 |
| 2025-04-22T01:41:00 | 54.051455 | 6.387241 | 2.0 | 8.196 | 2 | 34.740 | 8.367 | 33.069 | 2 |
| 2025-04-22T01:42:00 | 54.051432 | 6.387353 | 2.0 | 8.176 | 2 | 34.752 | 8.360 | 33.088 | 2 |
| 2025-04-22T01:43:00 | 54.051417 | 6.387459 | 2.0 | 8.215 | 2 | 34.750 | 8.350 | 33.096 | 2 |
| 2025-04-22T01:44:00 | 54.051388 | 6.387582 | 2.0 | 8.234 | 2 | 34.711 | 8.382 | 33.024 | 2 |
| 2025-04-22T01:45:00 | 54.051369 | 6.387685 | 2.0 | 8.256 | 2 | 34.794 | 8.405 | 33.090 | 2 |
| 2025-04-22T01:46:00 | 54.051375 | 6.387765 | 2.0 | 8.258 | 2 | 34.807 | 8.424 | 33.086 | 2 |
| 2025-04-22T01:47:00 | 54.051342 | 6.387916 | 2.0 | 8.251 | 2 | 34.779 | 8.424 | 33.057 | 2 |
| 2025-04-22T01:48:00 | 54.051270 | 6.388148 | 2.0 | 8.232 | 2 | 34.788 | 8.415 | 33.075 | 2 |
| 2025-04-22T01:49:00 | 54.051189 | 6.388378 | 2.0 | 8.245 | 2 | 34.788 | 8.399 | 33.090 | 2 |
| 2025-04-22T01:50:00 | 54.051106 | 6.388584 | 2.0 | 8.278 | 2 | 34.801 | 8.420 | 33.084 | 2 |
| 2025-04-22T01:51:00 | 54.051005 | 6.388821 | 2.0 | 8.281 | 2 | 34.627 | 8.443 | 32.879 | 2 |
| 2025-04-22T01:52:00 | 54.050881 | 6.389072 | 2.0 | 8.284 | 2 | 34.699 | 8.448 | 32.950 | 2 |
| 2025-04-22T01:53:00 | 54.050775 | 6.389282 | 2.0 | 8.288 | 2 | 34.832 | 8.450 | 33.088 | 2 |
| 2025-04-22T01:54:00 | 54.050669 | 6.389487 | 2.0 | 8.294 | 2 | 34.730 | 8.457 | 32.974 | 2 |
| 2025-04-22T01:55:00 | 54.050537 | 6.389722 | 2.0 | 8.301 | 2 | 34.837 | 8.462 | 33.082 | 2 |
| 2025-04-22T01:56:00 | 54.050411 | 6.389928 | 2.0 | 8.303 | 2 | 34.680 | 8.468 | 32.911 | 2 |
| 2025-04-22T01:57:00 | 54.050301 | 6.390108 | 2.0 | 8.311 | 2 | 34.703 | 8.470 | 32.934 | 2 |
| 2025-04-22T01:58:00 | 54.050173 | 6.390303 | 2.0 | 8.313 | 2 | 34.783 | 8.477 | 33.011 | 2 |
| 2025-04-22T01:59:00 | 54.050035 | 6.390479 | 2.0 | 8.317 | 2 | 34.855 | 8.479 | 33.085 | 2 |
| 2025-04-22T02:00:00 | 54.049915 | 6.390612 | 2.0 | 8.321 | 2 | 34.838 | 8.484 | 33.063 | 2 |
| 2025-04-22T02:01:00 | 54.049788 | 6.390773 | 2.0 | 8.323 | 2 | 34.805 | 8.488 | 33.024 | 2 |
| 2025-04-22T02:02:00 | 54.049628 | 6.390974 | 2.0 | 8.335 | 2 | 34.837 | 8.493 | 33.053 | 2 |
| 2025-04-22T02:03:00 | 54.049488 | 6.391133 | 2.0 | 8.335 | 2 | 34.853 | 8.501 | 33.063 | 2 |
| 2025-04-22T02:04:00 | 54.049384 | 6.391241 | 2.0 | 8.338 | 2 | 34.754 | 8.503 | 32.956 | 2 |
| 2025-04-22T02:05:00 | 54.049278 | 6.391361 | 2.0 | 8.345 | 2 | 34.827 | 8.505 | 33.031 | 2 |
| 2025-04-22T02:06:00 | 54.049143 | 6.391529 | 2.0 | 8.353 | 2 | 34.828 | 8.514 | 33.024 | 2 |
| 2025-04-22T02:07:00 | 54.049002 | 6.391677 | 2.0 | 8.351 | 2 | 34.863 | 8.521 | 33.054 | 2 |
| 2025-04-22T02:08:00 | 54.048878 | 6.391790 | 2.0 | 8.355 | 2 | 34.840 | 8.519 | 33.032 | 2 |
| 2025-04-22T02:09:00 | 54.048740 | 6.391939 | 2.0 | 8.356 | 2 | 34.857 | 8.521 | 33.048 | 2 |
| 2025-04-22T02:10:00 | 54.048593 | 6.392100 | 2.0 | 8.359 | 2 | 34.852 | 8.524 | 33.040 | 2 |
| 2025-04-22T02:11:00 | 54.048452 | 6.392219 | 2.0 | 8.361 | 2 | 34.874 | 8.526 | 33.061 | 2 |
| 2025-04-22T02:12:00 | 54.048307 | 6.392359 | 2.0 | 8.369 | 2 | 34.890 | 8.529 | 33.075 | 2 |
| 2025-04-22T02:13:00 | 54.048154 | 6.392524 | 2.0 | 8.376 | 2 | 34.843 | 8.537 | 33.018 | 2 |
| 2025-04-22T02:14:00 | 54.048012 | 6.392646 | 2.0 | 8.377 | 2 | 34.871 | 8.543 | 33.042 | 2 |
| 2025-04-22T02:15:00 | 54.047881 | 6.392775 | 2.0 | 8.385 | 2 | 34.916 | 8.545 | 33.088 | 2 |
| 2025-04-22T02:16:00 | 54.047734 | 6.392935 | 2.0 | 8.389 | 2 | 34.892 | 8.551 | 33.057 | 2 |
| 2025-04-22T02:17:00 | 54.047584 | 6.393061 | 2.0 | 8.392 | 2 | 34.933 | 8.555 | 33.096 | 2 |
| 2025-04-22T02:18:00 | 54.047456 | 6.393181 | 2.0 | 8.394 | 2 | 34.933 | 8.558 | 33.093 | 2 |
| 2025-04-22T02:19:00 | 54.047309 | 6.393327 | 2.0 | 8.395 | 2 | 34.929 | 8.561 | 33.086 | 2 |
| 2025-04-22T02:20:00 | 54.047158 | 6.393455 | 2.0 | 8.394 | 2 | 34.938 | 8.561 | 33.096 | 2 |
| 2025-04-22T02:21:00 | 54.047026 | 6.393562 | 2.0 | 8.394 | 2 | 34.956 | 8.560 | 33.116 | 2 |
| 2025-04-22T02:22:00 | 54.046882 | 6.393703 | 2.0 | 8.393 | 2 | 34.946 | 8.561 | 33.104 | 2 |
| 2025-04-22T02:23:00 | 54.046729 | 6.393825 | 2.0 | 8.391 | 2 | 34.951 | 8.560 | 33.110 | 2 |
| 2025-04-22T02:24:00 | 54.046577 | 6.393925 | 2.0 | 8.388 | 2 | 34.935 | 8.557 | 33.096 | 2 |
| 2025-04-22T02:25:00 | 54.046417 | 6.394071 | 2.0 | 8.392 | 2 | 34.813 | 8.555 | 32.970 | 2 |
| 2025-04-22T02:26:00 | 54.046258 | 6.394195 | 2.0 | 8.408 | 2 | 34.984 | 8.562 | 33.143 | 2 |
| 2025-04-22T02:27:00 | 54.046113 | 6.394295 | 2.0 | 8.413 | 2 | 34.995 | 8.575 | 33.143 | 2 |
| 2025-04-22T02:28:00 | 54.045949 | 6.394446 | 2.0 | 8.413 | 2 | 35.000 | 8.579 | 33.144 | 2 |
| 2025-04-22T02:29:00 | 54.045780 | 6.394587 | 2.0 | 8.415 | 2 | 35.000 | 8.580 | 33.143 | 2 |
| 2025-04-22T02:30:00 | 54.045634 | 6.394688 | 2.0 | 8.416 | 2 | 35.002 | 8.582 | 33.143 | 2 |
| 2025-04-22T02:31:00 | 54.045472 | 6.394825 | 2.0 | 8.416 | 2 | 35.002 | 8.582 | 33.143 | 2 |
| 2025-04-22T02:32:00 | 54.045299 | 6.394973 | 2.0 | 8.415 | 2 | 35.003 | 8.582 | 33.145 | 2 |
| 2025-04-22T02:33:00 | 54.045147 | 6.395075 | 2.0 | 8.411 | 2 | 35.003 | 8.581 | 33.145 | 2 |
| 2025-04-22T02:34:00 | 54.044997 | 6.395194 | 2.0 | 8.411 | 2 | 35.002 | 8.578 | 33.147 | 2 |
| 2025-04-22T02:35:00 | 54.044822 | 6.395348 | 2.0 | 8.413 | 2 | 34.999 | 8.577 | 33.145 | 2 |
| 2025-04-22T02:36:00 | 54.044658 | 6.395463 | 2.0 | 8.417 | 2 | 34.996 | 8.580 | 33.139 | 2 |
| 2025-04-22T02:37:00 | 54.044526 | 6.395539 | 2.0 | 8.420 | 2 | 34.998 | 8.584 | 33.137 | 2 |
| 2025-04-22T02:38:00 | 54.044381 | 6.395627 | 2.0 | 8.420 | 2 | 35.000 | 8.585 | 33.139 | 2 |
| 2025-04-22T02:39:00 | 54.044196 | 6.395735 | 2.0 | 8.419 | 2 | 34.971 | 8.585 | 33.108 | 2 |
| 2025-04-22T02:40:00 | 54.044035 | 6.395786 | 2.0 | 8.416 | 2 | 35.001 | 8.585 | 33.140 | 2 |
| 2025-04-22T02:41:00 | 54.043984 | 6.395758 | 2.0 | 8.414 | 2 | 35.003 | 8.582 | 33.145 | 2 |
| 2025-04-22T02:42:00 | 54.044044 | 6.395697 | 2.0 | 8.416 | 2 | 35.005 | 8.581 | 33.148 | 2 |
| 2025-04-22T02:43:00 | 54.044148 | 6.395623 | 2.0 | 8.411 | 2 | 35.009 | 8.582 | 33.151 | 2 |
| 2025-04-22T02:44:00 | 54.044222 | 6.395524 | 2.0 | 8.413 | 2 | 35.008 | 8.577 | 33.154 | 2 |
| 2025-04-22T02:45:00 | 54.044314 | 6.395405 | 2.0 | 8.420 | 2 | 35.012 | 8.580 | 33.156 | 2 |
| 2025-04-22T02:46:00 | 54.044438 | 6.395283 | 2.0 | 8.428 | 2 | 35.018 | 8.588 | 33.155 | 2 |
| 2025-04-22T02:47:00 | 54.044528 | 6.395140 | 2.0 | 8.427 | 2 | 35.027 | 8.594 | 33.158 | 2 |
| 2025-04-22T02:48:00 | 54.044645 | 6.394981 | 2.0 | 8.437 | 2 | 35.033 | 8.594 | 33.165 | 2 |
| 2025-04-22T02:49:00 | 54.044744 | 6.394813 | 2.0 | 8.436 | 2 | 35.041 | 8.603 | 33.165 | 2 |
| 2025-04-22T02:50:00 | 54.044846 | 6.394635 | 2.0 | 8.436 | 2 | 35.043 | 8.602 | 33.168 | 2 |
| 2025-04-22T02:51:00 | 54.044952 | 6.394447 | 2.0 | 8.432 | 2 | 35.052 | 8.602 | 33.177 | 2 |
| 2025-04-22T02:52:00 | 54.045040 | 6.394247 | 2.0 | 8.421 | 2 | 34.887 | 8.596 | 33.009 | 2 |
| 2025-04-22T02:53:00 | 54.045143 | 6.394044 | 2.0 | 8.410 | 2 | 35.061 | 8.587 | 33.201 | 2 |
| 2025-04-22T02:54:00 | 54.045218 | 6.393823 | 2.0 | 8.395 | 2 | 35.059 | 8.573 | 33.212 | 2 |
| 2025-04-22T02:55:00 | 54.045324 | 6.393603 | 2.0 | 8.387 | 2 | 35.054 | 8.561 | 33.218 | 2 |
| 2025-04-22T02:56:00 | 54.045398 | 6.393373 | 2.0 | 8.385 | 2 | 35.057 | 8.558 | 33.224 | 2 |
| 2025-04-22T02:57:00 | 54.045493 | 6.393144 | 2.0 | 8.384 | 2 | 34.982 | 8.546 | 33.156 | 2 |
| 2025-04-22T02:58:00 | 54.045590 | 6.392923 | 2.0 | 8.373 | 2 | 35.056 | 8.545 | 33.235 | 2 |
| 2025-04-22T02:59:00 | 54.045661 | 6.392696 | 2.0 | 8.365 | 2 | 35.058 | 8.542 | 33.240 | 2 |
| 2025-04-22T03:00:00 | 54.045766 | 6.392479 | 2.0 | 8.341 | 2 | 35.053 | 8.524 | 33.252 | 2 |
| 2025-04-22T03:01:00 | 54.045839 | 6.392255 | 2.0 | 8.331 | 2 | 35.049 | 8.508 | 33.263 | 2 |
| 2025-04-22T03:02:00 | 54.045933 | 6.392039 | 2.0 | 8.278 | 2 | 35.038 | 8.489 | 33.269 | 2 |
| 2025-04-22T03:03:00 | 54.046018 | 6.391815 | 2.0 | 8.272 | 2 | 34.851 | 8.447 | 33.111 | 2 |
| 2025-04-22T03:04:00 | 54.046109 | 6.391582 | 2.0 | 8.270 | 2 | 34.776 | 8.438 | 33.040 | 2 |
| 2025-04-22T03:05:00 | 54.046198 | 6.391343 | 2.0 | 8.265 | 2 | 34.790 | 8.438 | 33.055 | 2 |
| 2025-04-22T03:06:00 | 54.046273 | 6.391089 | 2.0 | 8.252 | 2 | 34.834 | 8.427 | 33.112 | 2 |
| 2025-04-22T03:07:00 | 54.046366 | 6.390835 | 2.0 | 8.253 | 2 | 34.977 | 8.424 | 33.266 | 2 |
| 2025-04-22T03:08:00 | 54.046441 | 6.390566 | 2.0 | 8.258 | 2 | 34.996 | 8.420 | 33.290 | 2 |
| 2025-04-22T03:09:00 | 54.046528 | 6.390297 | 2.0 | 8.254 | 2 | 34.867 | 8.427 | 33.147 | 2 |
| 2025-04-22T03:10:00 | 54.046609 | 6.390016 | 2.0 | 8.236 | 2 | 35.007 | 8.417 | 33.304 | 2 |
| 2025-04-22T03:11:00 | 54.046698 | 6.389739 | 2.0 | 8.256 | 2 | 34.983 | 8.407 | 33.288 | 2 |
| 2025-04-22T03:12:00 | 54.046776 | 6.389448 | 2.0 | 8.265 | 2 | 34.887 | 8.424 | 33.171 | 2 |
| 2025-04-22T03:13:00 | 54.046861 | 6.389150 | 2.0 | 8.258 | 2 | 34.845 | 8.427 | 33.124 | 2 |
| 2025-04-22T03:14:00 | 54.046941 | 6.388853 | 2.0 | 8.276 | 2 | 34.886 | 8.431 | 33.163 | 2 |
| 2025-04-22T03:15:00 | 54.047013 | 6.388550 | 2.0 | 8.266 | 2 | 34.845 | 8.440 | 33.111 | 2 |
| 2025-04-22T03:16:00 | 54.047109 | 6.388247 | 2.0 | 8.279 | 2 | 34.871 | 8.437 | 33.142 | 2 |
| 2025-04-22T03:17:00 | 54.047172 | 6.387942 | 2.0 | 8.263 | 2 | 35.029 | 8.443 | 33.303 | 2 |
| 2025-04-22T03:18:00 | 54.047261 | 6.387647 | 2.0 | 8.296 | 2 | 34.776 | 8.431 | 33.047 | 2 |
| 2025-04-22T03:19:00 | 54.047317 | 6.387356 | 2.0 | 8.287 | 2 | 34.856 | 8.459 | 33.105 | 2 |
| 2025-04-22T03:20:00 | 54.047401 | 6.387058 | 2.0 | 8.287 | 2 | 34.814 | 8.461 | 33.059 | 2 |
| 2025-04-22T03:21:00 | 54.047462 | 6.386769 | 2.0 | 8.322 | 2 | 35.034 | 8.453 | 33.299 | 2 |
| 2025-04-22T03:22:00 | 54.047540 | 6.386474 | 2.0 | 8.301 | 2 | 34.949 | 8.484 | 33.180 | 2 |
| 2025-04-22T03:23:00 | 54.047615 | 6.386190 | 2.0 | 8.339 | 2 | 34.800 | 8.474 | 33.032 | 2 |
| 2025-04-22T03:24:00 | 54.047670 | 6.385937 | 2.0 | 8.343 | 2 | 34.815 | 8.502 | 33.022 | 2 |
| 2025-04-22T03:25:00 | 54.047745 | 6.385713 | 2.0 | 8.346 | 2 | 34.952 | 8.510 | 33.158 | 2 |
| 2025-04-22T03:26:00 | 54.047797 | 6.385510 | 2.0 | 8.373 | 2 | 35.044 | 8.517 | 33.249 | 2 |
| 2025-04-22T03:27:00 | 54.047853 | 6.385324 | 2.0 | 8.364 | 2 | 35.027 | 8.541 | 33.208 | 2 |
| 2025-04-22T03:28:00 | 54.047927 | 6.385158 | 2.0 | 8.384 | 2 | 34.925 | 8.530 | 33.111 | 2 |
| 2025-04-22T03:29:00 | 54.047973 | 6.385002 | 2.0 | 8.408 | 2 | 34.962 | 8.556 | 33.126 | 2 |
| 2025-04-22T03:30:00 | 54.048034 | 6.384862 | 2.0 | 8.396 | 2 | 34.947 | 8.570 | 33.097 | 2 |
| 2025-04-22T03:31:00 | 54.048103 | 6.384728 | 2.0 | 8.390 | 2 | 35.033 | 8.560 | 33.197 | 2 |
| 2025-04-22T03:32:00 | 54.048139 | 6.384598 | 2.0 | 8.417 | 2 | 34.927 | 8.560 | 33.085 | 2 |
| 2025-04-22T03:33:00 | 54.048196 | 6.384471 | 2.0 | 8.386 | 2 | 34.806 | 8.581 | 32.938 | 2 |
| 2025-04-22T03:34:00 | 54.048259 | 6.384355 | 2.0 | 8.394 | 2 | 34.980 | 8.549 | 33.151 | 2 |
| 2025-04-22T03:35:00 | 54.048301 | 6.384243 | 2.0 | 8.420 | 2 | 35.041 | 8.570 | 33.196 | 2 |
| 2025-04-22T03:36:00 | 54.048356 | 6.384136 | 2.0 | 8.425 | 2 | 34.951 | 8.586 | 33.086 | 2 |
| 2025-04-22T03:37:00 | 54.048411 | 6.384037 | 2.0 | 8.402 | 2 | 34.925 | 8.583 | 33.062 | 2 |
| 2025-04-22T03:38:00 | 54.048418 | 6.383954 | 2.0 | 8.460 | 2 | 35.000 | 8.579 | 33.144 | 2 |
| 2025-04-22T03:39:00 | 54.048401 | 6.383872 | 2.0 | 8.433 | 2 | 34.969 | 8.618 | 33.075 | 2 |
| 2025-04-22T03:40:00 | 54.048414 | 6.383787 | 2.0 | 8.394 | 2 | 34.941 | 8.589 | 33.073 | 2 |
| 2025-04-22T03:41:00 | 54.048458 | 6.383712 | 2.0 | 8.459 | 2 | 34.974 | 8.568 | 33.127 | 2 |
| 2025-04-22T03:42:00 | 54.048474 | 6.383644 | 2.0 | 8.460 | 2 | 34.961 | 8.621 | 33.064 | 2 |
| 2025-04-22T03:43:00 | 54.048469 | 6.383574 | 2.0 | 8.431 | 2 | 34.986 | 8.623 | 33.088 | 2 |
| 2025-04-22T03:44:00 | 54.048484 | 6.383499 | 2.0 | 8.423 | 2 | 35.009 | 8.595 | 33.139 | 2 |
| 2025-04-22T03:45:00 | 54.048499 | 6.383425 | 2.0 | 8.463 | 2 | 35.020 | 8.594 | 33.151 | 2 |
| 2025-04-22T03:46:00 | 54.048480 | 6.383348 | 2.0 | 8.462 | 2 | 34.971 | 8.626 | 33.070 | 2 |
| 2025-04-22T03:47:00 | 54.048462 | 6.383263 | 2.0 | 8.466 | 2 | 34.972 | 8.628 | 33.069 | 2 |
| 2025-04-22T03:48:00 | 54.048469 | 6.383188 | 2.0 | 8.464 | 2 | 35.004 | 8.631 | 33.100 | 2 |
| 2025-04-22T03:49:00 | 54.048458 | 6.383068 | 2.0 | 8.470 | 2 | 34.987 | 8.632 | 33.081 | 2 |
| 2025-04-22T03:50:00 | 54.048425 | 6.382911 | 2.0 | 8.468 | 2 | 34.993 | 8.635 | 33.084 | 2 |
| 2025-04-22T03:51:00 | 54.048432 | 6.382747 | 2.0 | 8.472 | 2 | 34.987 | 8.635 | 33.078 | 2 |
| 2025-04-22T03:52:00 | 54.048434 | 6.382572 | 2.0 | 8.473 | 2 | 35.021 | 8.638 | 33.111 | 2 |
| 2025-04-22T03:53:00 | 54.048421 | 6.382370 | 2.0 | 8.473 | 2 | 34.980 | 8.639 | 33.067 | 2 |
| 2025-04-22T03:54:00 | 54.048450 | 6.382168 | 2.0 | 8.472 | 2 | 34.991 | 8.638 | 33.079 | 2 |
| 2025-04-22T03:55:00 | 54.048470 | 6.381948 | 2.0 | 8.469 | 2 | 35.006 | 8.638 | 33.095 | 2 |
| 2025-04-22T03:56:00 | 54.048482 | 6.381721 | 2.0 | 8.471 | 2 | 34.989 | 8.636 | 33.079 | 2 |
| 2025-04-22T03:57:00 | 54.048504 | 6.381526 | 2.0 | 8.476 | 2 | 35.021 | 8.638 | 33.111 | 2 |
| 2025-04-22T03:58:00 | 54.048503 | 6.381337 | 2.0 | 8.481 | 2 | 35.010 | 8.644 | 33.094 | 2 |
| 2025-04-22T03:59:00 | 54.048505 | 6.381160 | 2.0 | 8.484 | 2 | 35.010 | 8.647 | 33.091 | 2 |
| 2025-04-22T04:00:00 | 54.048526 | 6.381006 | 2.0 | 8.483 | 2 | 35.013 | 8.650 | 33.091 | 2 |
| 2025-04-22T04:01:00 | 54.048520 | 6.380863 | 2.0 | 8.479 | 2 | 35.006 | 8.648 | 33.086 | 2 |
| 2025-04-22T04:02:00 | 54.048499 | 6.380727 | 2.0 | 8.474 | 2 | 34.999 | 8.644 | 33.082 | 2 |
| 2025-04-22T04:03:00 | 54.048510 | 6.380612 | 2.0 | 8.473 | 2 | 35.003 | 8.640 | 33.090 | 2 |
| 2025-04-22T04:04:00 | 54.048524 | 6.380511 | 2.0 | 8.476 | 2 | 35.009 | 8.641 | 33.096 | 2 |
| 2025-04-22T04:05:00 | 54.048518 | 6.380408 | 2.0 | 8.476 | 2 | 35.007 | 8.641 | 33.093 | 2 |
| 2025-04-22T04:06:00 | 54.048519 | 6.380304 | 2.0 | 8.482 | 2 | 35.001 | 8.644 | 33.084 | 2 |
| 2025-04-22T04:07:00 | 54.048538 | 6.380208 | 2.0 | 8.484 | 2 | 35.004 | 8.649 | 33.083 | 2 |
| 2025-04-22T04:08:00 | 54.048532 | 6.380110 | 2.0 | 8.485 | 2 | 34.996 | 8.650 | 33.073 | 2 |
| 2025-04-22T04:09:00 | 54.048512 | 6.380009 | 2.0 | 8.487 | 2 | 34.998 | 8.651 | 33.075 | 2 |
| 2025-04-22T04:10:00 | 54.048523 | 6.379917 | 2.0 | 8.488 | 2 | 35.001 | 8.654 | 33.075 | 2 |
| 2025-04-22T04:11:00 | 54.048525 | 6.379821 | 2.0 | 8.486 | 2 | 34.998 | 8.654 | 33.072 | 2 |
| 2025-04-22T04:12:00 | 54.048492 | 6.379712 | 2.0 | 8.488 | 2 | 34.988 | 8.652 | 33.063 | 2 |
| 2025-04-22T04:13:00 | 54.048457 | 6.379600 | 2.0 | 8.486 | 2 | 34.992 | 8.653 | 33.066 | 2 |
| 2025-04-22T04:14:00 | 54.048454 | 6.379499 | 2.0 | 8.490 | 2 | 34.989 | 8.653 | 33.063 | 2 |
| 2025-04-22T04:15:00 | 54.048452 | 6.379405 | 2.0 | 8.488 | 2 | 34.990 | 8.656 | 33.062 | 2 |
| 2025-04-22T04:16:00 | 54.048431 | 6.379303 | 2.0 | 8.486 | 2 | 34.988 | 8.654 | 33.061 | 2 |
| 2025-04-22T04:17:00 | 54.048413 | 6.379198 | 2.0 | 8.490 | 2 | 34.981 | 8.652 | 33.056 | 2 |
| 2025-04-22T04:18:00 | 54.048411 | 6.379108 | 2.0 | 8.490 | 2 | 34.982 | 8.657 | 33.052 | 2 |
| 2025-04-22T04:19:00 | 54.048403 | 6.379019 | 2.0 | 8.491 | 2 | 34.979 | 8.657 | 33.049 | 2 |
| 2025-04-22T04:20:00 | 54.048379 | 6.378924 | 2.0 | 8.491 | 2 | 34.978 | 8.658 | 33.047 | 2 |
| 2025-04-22T04:21:00 | 54.048365 | 6.378836 | 2.0 | 8.493 | 2 | 34.973 | 8.658 | 33.042 | 2 |
| 2025-04-22T04:22:00 | 54.048356 | 6.378754 | 2.0 | 8.494 | 2 | 34.969 | 8.660 | 33.036 | 2 |
| 2025-04-22T04:23:00 | 54.048325 | 6.378666 | 2.0 | 8.495 | 2 | 34.973 | 8.661 | 33.039 | 2 |
| 2025-04-22T04:24:00 | 54.048287 | 6.378569 | 2.0 | 8.495 | 2 | 34.973 | 8.661 | 33.039 | 2 |
| 2025-04-22T04:25:00 | 54.048271 | 6.378468 | 2.0 | 8.495 | 2 | 34.973 | 8.661 | 33.039 | 2 |
| 2025-04-22T04:26:00 | 54.048260 | 6.378370 | 2.0 | 8.492 | 2 | 34.975 | 8.661 | 33.041 | 2 |
| 2025-04-22T04:27:00 | 54.048228 | 6.378261 | 2.0 | 8.491 | 2 | 34.973 | 8.658 | 33.042 | 2 |
| 2025-04-22T04:28:00 | 54.048210 | 6.378188 | 2.0 | 8.490 | 2 | 34.972 | 8.656 | 33.043 | 2 |
| 2025-04-22T04:29:00 | 54.048203 | 6.378043 | 2.0 | 8.490 | 2 | 34.973 | 8.656 | 33.044 | 2 |
| 2025-04-22T04:30:00 | 54.048192 | 6.377922 | 2.0 | 8.488 | 2 | 34.975 | 8.656 | 33.046 | 2 |
| 2025-04-22T04:31:00 | 54.048164 | 6.377806 | 2.0 | 8.485 | 2 | 34.973 | 8.653 | 33.046 | 2 |
| 2025-04-22T04:32:00 | 54.048148 | 6.377687 | 2.0 | 8.479 | 2 | 34.970 | 8.650 | 33.046 | 2 |
| 2025-04-22T04:33:00 | 54.048133 | 6.377566 | 2.0 | 8.473 | 2 | 34.964 | 8.645 | 33.045 | 2 |
| 2025-04-22T04:34:00 | 54.048087 | 6.377432 | 2.0 | 8.481 | 2 | 34.958 | 8.642 | 33.041 | 2 |
| 2025-04-22T04:35:00 | 54.048050 | 6.377289 | 2.0 | 8.484 | 2 | 34.961 | 8.647 | 33.039 | 2 |
| 2025-04-22T04:36:00 | 54.048033 | 6.377154 | 2.0 | 8.474 | 2 | 34.961 | 8.648 | 33.039 | 2 |
| 2025-04-22T04:37:00 | 54.048006 | 6.377016 | 2.0 | 8.464 | 2 | 34.943 | 8.639 | 33.028 | 2 |
| 2025-04-22T04:38:00 | 54.047962 | 6.376858 | 2.0 | 8.461 | 2 | 34.930 | 8.629 | 33.024 | 2 |
| 2025-04-22T04:39:00 | 54.047952 | 6.376641 | 2.0 | 8.466 | 2 | 34.930 | 8.628 | 33.025 | 2 |
| 2025-04-22T04:40:00 | 54.048065 | 6.376475 | 2.0 | 8.472 | 2 | 34.936 | 8.633 | 33.026 | 2 |
| 2025-04-22T04:41:00 | 54.048292 | 6.376535 | 2.0 | 8.496 | 2 | 34.956 | 8.644 | 33.037 | 2 |
| 2025-04-22T04:42:00 | 54.048568 | 6.376667 | 2.0 | 8.487 | 2 | 34.984 | 8.657 | 33.054 | 2 |
| 2025-04-22T04:43:00 | 54.048910 | 6.376762 | 2.0 | 8.480 | 2 | 34.970 | 8.652 | 33.044 | 2 |
| 2025-04-22T04:44:00 | 54.049306 | 6.376865 | 2.0 | 8.468 | 2 | 34.966 | 8.643 | 33.048 | 2 |
| 2025-04-22T04:45:00 | 54.049749 | 6.376961 | 2.0 | 8.476 | 2 | 34.960 | 8.636 | 33.049 | 2 |
| 2025-04-22T04:46:00 | 54.050217 | 6.377001 | 2.0 | 8.472 | 2 | 34.970 | 8.642 | 33.054 | 2 |
| 2025-04-22T04:47:00 | 54.050711 | 6.376991 | 2.0 | 8.467 | 2 | 34.972 | 8.637 | 33.060 | 2 |
| 2025-04-22T04:48:00 | 54.051238 | 6.376939 | 2.0 | 8.470 | 2 | 34.975 | 8.634 | 33.066 | 2 |
| 2025-04-22T04:49:00 | 54.051772 | 6.376891 | 2.0 | 8.478 | 2 | 34.993 | 8.638 | 33.082 | 2 |
| 2025-04-22T04:50:00 | 54.052325 | 6.376827 | 2.0 | 8.459 | 2 | 35.018 | 8.640 | 33.106 | 2 |
| 2025-04-22T04:51:00 | 54.052887 | 6.376749 | 2.0 | 8.464 | 2 | 35.025 | 8.629 | 33.124 | 2 |
| 2025-04-22T04:52:00 | 54.053459 | 6.376673 | 2.0 | 8.468 | 2 | 35.023 | 8.628 | 33.122 | 2 |
| 2025-04-22T04:53:00 | 54.054052 | 6.376596 | 2.0 | 8.484 | 2 | 35.013 | 8.639 | 33.102 | 2 |
| 2025-04-22T04:54:00 | 54.054651 | 6.376497 | 2.0 | 8.502 | 2 | 35.024 | 8.650 | 33.103 | 2 |
| 2025-04-22T04:55:00 | 54.055241 | 6.376410 | 2.0 | 8.495 | 2 | 35.053 | 8.665 | 33.119 | 2 |
| 2025-04-22T04:56:00 | 54.055651 | 6.376061 | 2.0 | 8.468 | 2 | 35.040 | 8.656 | 33.114 | 2 |
| 2025-04-22T04:57:00 | 54.055729 | 6.375550 | 2.0 | 8.453 | 2 | 34.990 | 8.631 | 33.085 | 2 |
| 2025-04-22T04:58:00 | 54.055699 | 6.375084 | 2.0 | 8.455 | 2 | 34.968 | 8.621 | 33.071 | 2 |
| 2025-04-22T04:59:00 | 54.055686 | 6.374674 | 2.0 | 8.463 | 2 | 34.969 | 8.623 | 33.070 | 2 |
| 2025-04-22T05:00:00 | 54.055728 | 6.374352 | 2.0 | 8.461 | 2 | 34.984 | 8.633 | 33.077 | 2 |
| 2025-04-22T05:01:00 | 54.055784 | 6.374084 | 2.0 | 8.464 | 2 | 34.974 | 8.629 | 33.070 | 2 |
| 2025-04-22T05:02:00 | 54.055811 | 6.373833 | 2.0 | 8.460 | 2 | 34.976 | 8.630 | 33.071 | 2 |
| 2025-04-22T05:03:00 | 54.055818 | 6.373590 | 2.0 | 8.458 | 2 | 34.964 | 8.625 | 33.063 | 2 |
| 2025-04-22T05:04:00 | 54.055835 | 6.373334 | 2.0 | 8.460 | 2 | 34.955 | 8.625 | 33.054 | 2 |
| 2025-04-22T05:05:00 | 54.055847 | 6.373060 | 2.0 | 8.457 | 2 | 34.959 | 8.625 | 33.058 | 2 |
| 2025-04-22T05:06:00 | 54.055858 | 6.372763 | 2.0 | 8.458 | 2 | 34.958 | 8.624 | 33.058 | 2 |
| 2025-04-22T05:07:00 | 54.055867 | 6.372450 | 2.0 | 8.459 | 2 | 34.958 | 8.624 | 33.058 | 2 |
| 2025-04-22T05:08:00 | 54.055868 | 6.372128 | 2.0 | 8.458 | 2 | 34.959 | 8.625 | 33.058 | 2 |
| 2025-04-22T05:09:00 | 54.055874 | 6.371791 | 2.0 | 8.458 | 2 | 34.957 | 8.625 | 33.056 | 2 |
| 2025-04-22T05:10:00 | 54.055882 | 6.371435 | 2.0 | 8.455 | 2 | 34.954 | 8.624 | 33.054 | 2 |
| 2025-04-22T05:11:00 | 54.055888 | 6.371079 | 2.0 | 8.454 | 2 | 34.947 | 8.621 | 33.049 | 2 |
| 2025-04-22T05:12:00 | 54.055891 | 6.370732 | 2.0 | 8.454 | 2 | 34.938 | 8.621 | 33.040 | 2 |
| 2025-04-22T05:13:00 | 54.055892 | 6.370395 | 2.0 | 8.453 | 2 | 34.938 | 8.621 | 33.040 | 2 |
| 2025-04-22T05:14:00 | 54.055880 | 6.370072 | 2.0 | 8.455 | 2 | 34.935 | 8.620 | 33.037 | 2 |
| 2025-04-22T05:15:00 | 54.055869 | 6.369755 | 2.0 | 8.455 | 2 | 34.936 | 8.621 | 33.038 | 2 |
| 2025-04-22T05:16:00 | 54.055856 | 6.369435 | 2.0 | 8.454 | 2 | 34.934 | 8.621 | 33.035 | 2 |
| 2025-04-22T05:17:00 | 54.055837 | 6.369117 | 2.0 | 8.453 | 2 | 34.931 | 8.620 | 33.033 | 2 |
| 2025-04-22T05:18:00 | 54.055816 | 6.368798 | 2.0 | 8.454 | 2 | 34.929 | 8.619 | 33.032 | 2 |
| 2025-04-22T05:19:00 | 54.055792 | 6.368479 | 2.0 | 8.452 | 2 | 34.931 | 8.620 | 33.033 | 2 |
| 2025-04-22T05:20:00 | 54.055775 | 6.368148 | 2.0 | 8.453 | 2 | 34.929 | 8.618 | 33.033 | 2 |
| 2025-04-22T05:21:00 | 54.055747 | 6.367812 | 2.0 | 8.457 | 2 | 34.930 | 8.620 | 33.032 | 2 |
| 2025-04-22T05:22:00 | 54.055709 | 6.367490 | 2.0 | 8.455 | 2 | 34.921 | 8.623 | 33.020 | 2 |
| 2025-04-22T05:23:00 | 54.055696 | 6.367271 | 2.0 | 8.454 | 2 | 34.923 | 8.621 | 33.024 | 2 |
| 2025-04-22T05:24:00 | 54.055727 | 6.367216 | 2.0 | 8.461 | 2 | 34.923 | 8.620 | 33.025 | 2 |
| 2025-04-22T05:25:00 | 54.055755 | 6.367269 | 2.0 | 8.456 | 2 | 34.950 | 8.628 | 33.046 | 2 |
| 2025-04-22T05:26:00 | 54.055792 | 6.367339 | 2.0 | 8.452 | 2 | 34.937 | 8.622 | 33.038 | 2 |
| 2025-04-22T05:27:00 | 54.055849 | 6.367425 | 2.0 | 8.450 | 2 | 34.926 | 8.617 | 33.031 | 2 |
| 2025-04-22T05:28:00 | 54.055913 | 6.367509 | 2.0 | 8.447 | 2 | 34.925 | 8.616 | 33.031 | 2 |
| 2025-04-22T05:29:00 | 54.055987 | 6.367586 | 2.0 | 8.448 | 2 | 34.925 | 8.613 | 33.033 | 2 |
| 2025-04-22T05:30:00 | 54.056076 | 6.367657 | 2.0 | 8.444 | 2 | 34.928 | 8.613 | 33.037 | 2 |
| 2025-04-22T05:31:00 | 54.056170 | 6.367719 | 2.0 | 8.440 | 2 | 34.925 | 8.609 | 33.037 | 2 |
| 2025-04-22T05:32:00 | 54.056270 | 6.367771 | 2.0 | 8.439 | 2 | 34.919 | 8.605 | 33.035 | 2 |
| 2025-04-22T05:33:00 | 54.056387 | 6.367824 | 2.0 | 8.439 | 2 | 34.921 | 8.604 | 33.038 | 2 |
| 2025-04-22T05:34:00 | 54.056511 | 6.367872 | 2.0 | 8.442 | 2 | 34.923 | 8.606 | 33.038 | 2 |
| 2025-04-22T05:35:00 | 54.056615 | 6.367927 | 2.0 | 8.442 | 2 | 34.928 | 8.608 | 33.041 | 2 |
| 2025-04-22T05:36:00 | 54.056705 | 6.368036 | 2.0 | 8.443 | 2 | 34.930 | 8.608 | 33.043 | 2 |
| 2025-04-22T05:37:00 | 54.056775 | 6.368226 | 2.0 | 8.444 | 2 | 34.933 | 8.609 | 33.046 | 2 |
| 2025-04-22T05:38:00 | 54.056829 | 6.368595 | 2.0 | 8.443 | 2 | 34.938 | 8.608 | 33.052 | 2 |
| 2025-04-22T05:39:00 | 54.056616 | 6.369504 | 2.0 | 8.443 | 2 | 34.946 | 8.608 | 33.060 | 2 |
| 2025-04-22T05:40:00 | 54.055876 | 6.370319 | 2.0 | 8.450 | 2 | 34.953 | 8.611 | 33.065 | 2 |
| 2025-04-22T05:41:00 | 54.054851 | 6.370144 | 2.0 | 8.452 | 2 | 34.960 | 8.618 | 33.066 | 2 |
| 2025-04-22T05:42:00 | 54.053716 | 6.369370 | 2.0 | 8.458 | 2 | 34.947 | 8.620 | 33.050 | 2 |
| 2025-04-22T05:43:00 | 54.052437 | 6.368514 | 2.0 | 8.445 | 2 | 34.940 | 8.623 | 33.040 | 2 |
| 2025-04-22T05:44:00 | 54.051030 | 6.368369 | 2.0 | 8.442 | 2 | 34.925 | 8.617 | 33.030 | 2 |
| 2025-04-22T05:45:00 | 54.049589 | 6.368506 | 2.0 | 8.441 | 2 | 34.919 | 8.607 | 33.033 | 2 |
| 2025-04-22T05:46:00 | 54.048152 | 6.368419 | 2.0 | 8.439 | 2 | 34.919 | 8.609 | 33.031 | 2 |
| 2025-04-22T05:47:00 | 54.046728 | 6.368274 | 2.0 | 8.447 | 2 | 34.914 | 8.608 | 33.027 | 2 |
| 2025-04-22T05:48:00 | 54.045307 | 6.368190 | 2.0 | 8.426 | 2 | 34.917 | 8.608 | 33.030 | 2 |
| 2025-04-22T05:49:00 | 54.043889 | 6.368215 | 2.0 | 8.424 | 2 | 34.888 | 8.596 | 33.010 | 2 |
| 2025-04-22T05:50:00 | 54.042469 | 6.368304 | 2.0 | 8.436 | 2 | 34.888 | 8.594 | 33.012 | 2 |
| 2025-04-22T05:51:00 | 54.041050 | 6.368344 | 2.0 | 8.430 | 2 | 34.886 | 8.601 | 33.004 | 2 |
| 2025-04-22T05:52:00 | 54.039627 | 6.368345 | 2.0 | 8.438 | 2 | 34.879 | 8.602 | 32.995 | 2 |
| 2025-04-22T05:53:00 | 54.038212 | 6.368300 | 2.0 | 8.448 | 2 | 34.874 | 8.604 | 32.988 | 2 |
| 2025-04-22T05:54:00 | 54.036806 | 6.368262 | 2.0 | 8.468 | 2 | 34.876 | 8.619 | 32.976 | 2 |
| 2025-04-22T05:55:00 | 54.035423 | 6.368276 | 2.0 | 8.459 | 2 | 34.880 | 8.629 | 32.971 | 2 |
| 2025-04-22T05:56:00 | 54.034049 | 6.368330 | 2.0 | 8.478 | 2 | 34.864 | 8.637 | 32.947 | 2 |
| 2025-04-22T05:57:00 | 54.032679 | 6.368332 | 2.0 | 8.497 | 2 | 34.864 | 8.645 | 32.940 | 2 |
| 2025-04-22T05:58:00 | 54.031313 | 6.368302 | 2.0 | 8.514 | 2 | 34.873 | 8.665 | 32.930 | 2 |
| 2025-04-22T05:59:00 | 54.029949 | 6.368285 | 2.0 | 8.519 | 2 | 34.876 | 8.681 | 32.919 | 2 |
| 2025-04-22T06:00:00 | 54.028578 | 6.368251 | 2.0 | 8.513 | 2 | 34.879 | 8.683 | 32.920 | 2 |
| 2025-04-22T06:01:00 | 54.027206 | 6.368219 | 2.0 | 8.500 | 2 | 34.875 | 8.678 | 32.920 | 2 |
| 2025-04-22T06:02:00 | 54.025839 | 6.368265 | 2.0 | 8.523 | 2 | 34.862 | 8.671 | 32.913 | 2 |
| 2025-04-22T06:03:00 | 54.024472 | 6.368323 | 2.0 | 8.533 | 2 | 34.872 | 8.694 | 32.902 | 2 |
| 2025-04-22T06:04:00 | 54.023104 | 6.368383 | 2.0 | 8.520 | 2 | 34.871 | 8.695 | 32.900 | 2 |
| 2025-04-22T06:05:00 | 54.021735 | 6.368380 | 2.0 | 8.533 | 2 | 34.870 | 8.689 | 32.905 | 2 |
| 2025-04-22T06:06:00 | 54.020365 | 6.368368 | 2.0 | 8.551 | 2 | 34.882 | 8.701 | 32.906 | 2 |
| 2025-04-22T06:07:00 | 54.018999 | 6.368375 | 2.0 | 8.555 | 2 | 34.892 | 8.718 | 32.901 | 2 |
| 2025-04-22T06:08:00 | 54.017637 | 6.368383 | 2.0 | 8.552 | 2 | 34.901 | 8.721 | 32.908 | 2 |
| 2025-04-22T06:09:00 | 54.016281 | 6.368414 | 2.0 | 8.557 | 2 | 34.908 | 8.720 | 32.916 | 2 |
| 2025-04-22T06:10:00 | 54.014997 | 6.368936 | 2.0 | 8.568 | 2 | 34.919 | 8.726 | 32.922 | 2 |
| 2025-04-22T06:11:00 | 54.014050 | 6.370279 | 2.0 | 8.565 | 2 | 34.931 | 8.734 | 32.927 | 2 |
| 2025-04-22T06:12:00 | 54.013296 | 6.372034 | 2.0 | 8.559 | 2 | 34.938 | 8.729 | 32.939 | 2 |
| 2025-04-22T06:13:00 | 54.012125 | 6.373401 | 2.0 | 8.553 | 2 | 34.946 | 8.725 | 32.951 | 2 |
| 2025-04-22T06:14:00 | 54.010737 | 6.373285 | 2.0 | 8.517 | 2 | 34.958 | 8.715 | 32.973 | 2 |
| 2025-04-22T06:15:00 | 54.009782 | 6.371669 | 2.0 | 8.509 | 2 | 34.944 | 8.677 | 32.994 | 2 |
| 2025-04-22T06:16:00 | 54.009684 | 6.369441 | 2.0 | 8.532 | 2 | 34.942 | 8.675 | 32.993 | 2 |
| 2025-04-22T06:17:00 | 54.010444 | 6.367622 | 2.0 | 8.548 | 2 | 34.954 | 8.697 | 32.985 | 2 |
| 2025-04-22T06:18:00 | 54.011705 | 6.366690 | 2.0 | 8.568 | 2 | 34.953 | 8.720 | 32.963 | 2 |
| 2025-04-22T06:19:00 | 54.012904 | 6.365600 | 2.0 | 8.573 | 2 | 34.885 | 8.734 | 32.879 | 2 |
| 2025-04-22T06:20:00 | 54.013512 | 6.363743 | 2.0 | 8.567 | 2 | 34.937 | 8.737 | 32.930 | 2 |
| 2025-04-22T06:21:00 | 54.013700 | 6.361600 | 2.0 | 8.564 | 2 | 34.874 | 8.731 | 32.870 | 2 |
| 2025-04-22T06:22:00 | 54.013918 | 6.359368 | 2.0 | 8.560 | 2 | 34.878 | 8.730 | 32.875 | 2 |
| 2025-04-22T06:23:00 | 54.014425 | 6.357310 | 2.0 | 8.545 | 2 | 34.890 | 8.723 | 32.894 | 2 |
| 2025-04-22T06:24:00 | 54.015480 | 6.356304 | 2.0 | 8.546 | 2 | 34.904 | 8.712 | 32.919 | 2 |
| 2025-04-22T06:25:00 | 54.016686 | 6.356328 | 2.0 | 8.549 | 2 | 34.889 | 8.713 | 32.902 | 2 |
| 2025-04-22T06:26:00 | 54.017957 | 6.356407 | 2.0 | 8.533 | 2 | 34.885 | 8.713 | 32.898 | 2 |
| 2025-04-22T06:27:00 | 54.019317 | 6.356285 | 2.0 | 8.517 | 2 | 34.776 | 8.697 | 32.799 | 2 |
| 2025-04-22T06:28:00 | 54.020748 | 6.356265 | 2.0 | 8.511 | 2 | 34.684 | 8.683 | 32.716 | 2 |
| 2025-04-22T06:29:00 | 54.022228 | 6.356362 | 2.0 | 8.519 | 2 | 34.861 | 8.679 | 32.905 | 2 |
| 2025-04-22T06:30:00 | 54.023701 | 6.356453 | 2.0 | 8.524 | 2 | 34.690 | 8.686 | 32.719 | 2 |
| 2025-04-22T06:31:00 | 54.025132 | 6.356496 | 2.0 | 8.526 | 2 | 34.855 | 8.691 | 32.887 | 2 |
| 2025-04-22T06:32:00 | 54.026550 | 6.356556 | 2.0 | 8.492 | 2 | 34.751 | 8.689 | 32.780 | 2 |
| 2025-04-22T06:33:00 | 54.027953 | 6.356611 | 2.0 | 8.489 | 2 | 34.674 | 8.655 | 32.731 | 2 |
| 2025-04-22T06:34:00 | 54.029367 | 6.356536 | 2.0 | 8.523 | 2 | 34.528 | 8.667 | 32.567 | 2 |
| 2025-04-22T06:35:00 | 54.030768 | 6.356364 | 2.0 | 8.516 | 2 | 34.707 | 8.684 | 32.739 | 2 |
| 2025-04-22T06:36:00 | 54.032168 | 6.356292 | 2.0 | 8.500 | 2 | 34.752 | 8.684 | 32.786 | 2 |
| 2025-04-22T06:37:00 | 54.033549 | 6.356367 | 2.0 | 8.471 | 2 | 34.802 | 8.663 | 32.858 | 2 |
| 2025-04-22T06:38:00 | 54.034931 | 6.356445 | 2.0 | 8.471 | 2 | 34.778 | 8.637 | 32.857 | 2 |
| 2025-04-22T06:39:00 | 54.036323 | 6.356439 | 2.0 | 8.481 | 2 | 34.665 | 8.644 | 32.732 | 2 |
| 2025-04-22T06:40:00 | 54.037729 | 6.356403 | 2.0 | 8.464 | 2 | 34.858 | 8.643 | 32.935 | 2 |
| 2025-04-22T06:41:00 | 54.039145 | 6.356371 | 2.0 | 8.451 | 2 | 34.745 | 8.634 | 32.825 | 2 |
| 2025-04-22T06:42:00 | 54.040563 | 6.356364 | 2.0 | 8.411 | 2 | 34.843 | 8.611 | 32.949 | 2 |
| 2025-04-22T06:43:00 | 54.041979 | 6.356340 | 2.0 | 8.389 | 2 | 34.637 | 8.579 | 32.763 | 2 |
| 2025-04-22T06:44:00 | 54.043388 | 6.356355 | 2.0 | 8.378 | 2 | 34.776 | 8.557 | 32.929 | 2 |
| 2025-04-22T06:45:00 | 54.044788 | 6.356396 | 2.0 | 8.381 | 2 | 34.810 | 8.548 | 32.973 | 2 |
| 2025-04-22T06:46:00 | 54.046196 | 6.356409 | 2.0 | 8.366 | 2 | 34.727 | 8.545 | 32.889 | 2 |
| 2025-04-22T06:47:00 | 54.047599 | 6.356381 | 2.0 | 8.401 | 2 | 34.695 | 8.537 | 32.863 | 2 |
| 2025-04-22T06:48:00 | 54.048994 | 6.356324 | 2.0 | 8.422 | 2 | 34.741 | 8.573 | 32.877 | 2 |
| 2025-04-22T06:49:00 | 54.050379 | 6.356301 | 2.0 | 8.445 | 2 | 34.889 | 8.591 | 33.016 | 2 |
| 2025-04-22T06:50:00 | 54.051762 | 6.356366 | 2.0 | 8.432 | 2 | 34.862 | 8.609 | 32.971 | 2 |
| 2025-04-22T06:51:00 | 54.052943 | 6.357333 | 2.0 | 8.415 | 2 | 34.745 | 8.596 | 32.860 | 2 |
| 2025-04-22T06:52:00 | 54.053504 | 6.359303 | 2.0 | 8.417 | 2 | 34.833 | 8.582 | 32.966 | 2 |
| 2025-04-22T06:53:00 | 54.053289 | 6.361676 | 2.0 | 8.433 | 2 | 34.878 | 8.586 | 33.009 | 2 |
| 2025-04-22T06:54:00 | 54.052242 | 6.363473 | 2.0 | 8.434 | 2 | 34.856 | 8.600 | 32.973 | 2 |
| 2025-04-22T06:55:00 | 54.050773 | 6.363969 | 2.0 | 8.438 | 2 | 34.799 | 8.602 | 32.911 | 2 |
| 2025-04-22T06:56:00 | 54.049292 | 6.364209 | 2.0 | 8.443 | 2 | 34.803 | 8.605 | 32.913 | 2 |
| 2025-04-22T06:57:00 | 54.047827 | 6.364449 | 2.0 | 8.447 | 2 | 34.757 | 8.610 | 32.860 | 2 |
| 2025-04-22T06:58:00 | 54.046352 | 6.364412 | 2.0 | 8.463 | 2 | 34.859 | 8.618 | 32.959 | 2 |
| 2025-04-22T06:59:00 | 54.044880 | 6.364356 | 2.0 | 8.471 | 2 | 34.830 | 8.629 | 32.919 | 2 |
| 2025-04-22T07:00:00 | 54.043426 | 6.364375 | 2.0 | 8.499 | 2 | 34.862 | 8.644 | 32.938 | 2 |
| 2025-04-22T07:01:00 | 54.042000 | 6.364376 | 2.0 | 8.460 | 2 | 34.882 | 8.657 | 32.947 | 2 |
| 2025-04-22T07:02:00 | 54.040596 | 6.364402 | 2.0 | 8.451 | 2 | 34.797 | 8.625 | 32.888 | 2 |
| 2025-04-22T07:03:00 | 54.039210 | 6.364459 | 2.0 | 8.452 | 2 | 34.798 | 8.619 | 32.894 | 2 |
| 2025-04-22T07:04:00 | 54.037837 | 6.364475 | 2.0 | 8.443 | 2 | 34.804 | 8.617 | 32.903 | 2 |
| 2025-04-22T07:05:00 | 54.036475 | 6.364460 | 2.0 | 8.447 | 2 | 34.778 | 8.612 | 32.880 | 2 |
| 2025-04-22T07:06:00 | 54.035119 | 6.364411 | 2.0 | 8.453 | 2 | 34.765 | 8.615 | 32.864 | 2 |
| 2025-04-22T07:07:00 | 54.033758 | 6.364329 | 2.0 | 8.467 | 2 | 34.765 | 8.625 | 32.854 | 2 |
| 2025-04-22T07:08:00 | 54.032386 | 6.364275 | 2.0 | 8.468 | 2 | 34.766 | 8.631 | 32.850 | 2 |
| 2025-04-22T07:09:00 | 54.031006 | 6.364279 | 2.0 | 8.485 | 2 | 34.768 | 8.636 | 32.847 | 2 |
| 2025-04-22T07:10:00 | 54.029620 | 6.364270 | 2.0 | 8.486 | 2 | 34.818 | 8.652 | 32.885 | 2 |
| 2025-04-22T07:11:00 | 54.028233 | 6.364249 | 2.0 | 8.506 | 2 | 34.789 | 8.656 | 32.851 | 2 |
| 2025-04-22T07:12:00 | 54.026841 | 6.364223 | 2.0 | 8.511 | 2 | 34.798 | 8.672 | 32.845 | 2 |
| 2025-04-22T07:13:00 | 54.025448 | 6.364211 | 2.0 | 8.526 | 2 | 34.820 | 8.678 | 32.863 | 2 |
| 2025-04-22T07:14:00 | 54.024051 | 6.364253 | 2.0 | 8.535 | 2 | 34.832 | 8.693 | 32.861 | 2 |
| 2025-04-22T07:15:00 | 54.022662 | 6.364300 | 2.0 | 8.521 | 2 | 34.840 | 8.700 | 32.863 | 2 |
| 2025-04-22T07:16:00 | 54.021268 | 6.364310 | 2.0 | 8.522 | 2 | 34.804 | 8.686 | 32.838 | 2 |
| 2025-04-22T07:17:00 | 54.019870 | 6.364272 | 2.0 | 8.538 | 2 | 34.849 | 8.692 | 32.880 | 2 |
| 2025-04-22T07:18:00 | 54.018465 | 6.364237 | 2.0 | 8.550 | 2 | 34.863 | 8.707 | 32.881 | 2 |
| 2025-04-22T07:19:00 | 54.017056 | 6.364277 | 2.0 | 8.552 | 2 | 34.865 | 8.715 | 32.875 | 2 |
| 2025-04-22T07:20:00 | 54.015628 | 6.364353 | 2.0 | 8.558 | 2 | 34.885 | 8.717 | 32.895 | 2 |
| 2025-04-22T07:21:00 | 54.014287 | 6.365022 | 2.0 | 8.580 | 2 | 34.883 | 8.727 | 32.883 | 2 |
| 2025-04-22T07:22:00 | 54.013578 | 6.366695 | 2.0 | 8.589 | 2 | 34.919 | 8.746 | 32.903 | 2 |
| 2025-04-22T07:23:00 | 54.013709 | 6.368621 | 2.0 | 8.593 | 2 | 34.919 | 8.754 | 32.896 | 2 |
| 2025-04-22T07:24:00 | 54.014556 | 6.370202 | 2.0 | 8.590 | 2 | 34.934 | 8.755 | 32.911 | 2 |
| 2025-04-22T07:25:00 | 54.015838 | 6.371319 | 2.0 | 8.568 | 2 | 34.942 | 8.754 | 32.920 | 2 |
| 2025-04-22T07:26:00 | 54.017254 | 6.372507 | 2.0 | 8.545 | 2 | 34.929 | 8.728 | 32.930 | 2 |
| 2025-04-22T07:27:00 | 54.018709 | 6.372448 | 2.0 | 8.566 | 2 | 34.919 | 8.719 | 32.928 | 2 |
| 2025-04-22T07:28:00 | 54.020072 | 6.372357 | 2.0 | 8.552 | 2 | 34.928 | 8.726 | 32.931 | 2 |
| 2025-04-22T07:29:00 | 54.021451 | 6.372472 | 2.0 | 8.548 | 2 | 34.927 | 8.719 | 32.937 | 2 |
| 2025-04-22T07:30:00 | 54.022851 | 6.372407 | 2.0 | 8.552 | 2 | 34.935 | 8.714 | 32.950 | 2 |
| 2025-04-22T07:31:00 | 54.024277 | 6.372306 | 2.0 | 8.548 | 2 | 34.937 | 8.717 | 32.949 | 2 |
| 2025-04-22T07:32:00 | 54.025712 | 6.372273 | 2.0 | 8.536 | 2 | 34.929 | 8.714 | 32.943 | 2 |
| 2025-04-22T07:33:00 | 54.027157 | 6.372247 | 2.0 | 8.527 | 2 | 34.923 | 8.701 | 32.949 | 2 |
| 2025-04-22T07:34:00 | 54.028607 | 6.372237 | 2.0 | 8.527 | 2 | 34.927 | 8.696 | 32.958 | 2 |
| 2025-04-22T07:35:00 | 54.030050 | 6.372207 | 2.0 | 8.509 | 2 | 34.926 | 8.690 | 32.963 | 2 |
| 2025-04-22T07:36:00 | 54.031488 | 6.372173 | 2.0 | 8.488 | 2 | 34.923 | 8.672 | 32.976 | 2 |
| 2025-04-22T07:37:00 | 54.032936 | 6.372109 | 2.0 | 8.494 | 2 | 34.929 | 8.657 | 32.997 | 2 |
| 2025-04-22T07:38:00 | 54.034392 | 6.372080 | 2.0 | 8.479 | 2 | 34.951 | 8.665 | 33.012 | 2 |
| 2025-04-22T07:39:00 | 54.035844 | 6.371939 | 2.0 | 8.418 | 2 | 35.014 | 8.635 | 33.106 | 2 |
| 2025-04-22T07:40:00 | 54.037290 | 6.371829 | 2.0 | 8.419 | 2 | 35.030 | 8.587 | 33.168 | 2 |
| 2025-04-22T07:41:00 | 54.038698 | 6.371958 | 2.0 | 8.414 | 2 | 35.040 | 8.592 | 33.174 | 2 |
| 2025-04-22T07:42:00 | 54.040112 | 6.372078 | 2.0 | 8.393 | 2 | 35.052 | 8.580 | 33.198 | 2 |
| 2025-04-22T07:43:00 | 54.041535 | 6.372067 | 2.0 | 8.395 | 2 | 35.040 | 8.569 | 33.196 | 2 |
| 2025-04-22T07:44:00 | 54.042956 | 6.371994 | 2.0 | 8.390 | 2 | 35.048 | 8.561 | 33.212 | 2 |
| 2025-04-22T07:45:00 | 54.044365 | 6.372030 | 2.0 | 8.394 | 2 | 35.065 | 8.558 | 33.232 | 2 |
| 2025-04-22T07:46:00 | 54.045759 | 6.372141 | 2.0 | 8.407 | 2 | 35.086 | 8.564 | 33.249 | 2 |
| 2025-04-22T07:47:00 | 54.047157 | 6.372209 | 2.0 | 8.398 | 2 | 35.110 | 8.571 | 33.267 | 2 |
| 2025-04-22T07:48:00 | 54.048568 | 6.372224 | 2.0 | 8.444 | 2 | 35.126 | 8.576 | 33.280 | 2 |
| 2025-04-22T07:49:00 | 54.049984 | 6.372231 | 2.0 | 8.423 | 2 | 35.159 | 8.603 | 33.289 | 2 |
| 2025-04-22T07:50:00 | 54.051409 | 6.372259 | 2.0 | 8.436 | 2 | 35.165 | 8.595 | 33.303 | 2 |
| 2025-04-22T07:51:00 | 54.052830 | 6.371914 | 2.0 | 8.428 | 2 | 35.178 | 8.598 | 33.314 | 2 |
| 2025-04-22T07:52:00 | 54.054024 | 6.370625 | 2.0 | 8.439 | 2 | 35.185 | 8.598 | 33.321 | 2 |
| 2025-04-22T07:53:00 | 54.054787 | 6.368558 | 2.0 | 8.413 | 2 | 35.189 | 8.604 | 33.320 | 2 |
| 2025-04-22T07:54:00 | 54.054989 | 6.366090 | 2.0 | 8.454 | 2 | 35.183 | 8.589 | 33.327 | 2 |
| 2025-04-22T07:55:00 | 54.054574 | 6.363695 | 2.0 | 8.472 | 2 | 35.196 | 8.624 | 33.308 | 2 |
| 2025-04-22T07:56:00 | 54.053620 | 6.361857 | 2.0 | 8.502 | 2 | 35.206 | 8.641 | 33.302 | 2 |
| 2025-04-22T07:57:00 | 54.052354 | 6.360753 | 2.0 | 8.507 | 2 | 35.218 | 8.671 | 33.287 | 2 |
| 2025-04-22T07:58:00 | 54.050975 | 6.360435 | 2.0 | 8.497 | 2 | 35.205 | 8.668 | 33.276 | 2 |
| 2025-04-22T07:59:00 | 54.049550 | 6.360555 | 2.0 | 8.486 | 2 | 35.175 | 8.663 | 33.249 | 2 |
| 2025-04-22T08:00:00 | 54.048062 | 6.360544 | 2.0 | 8.475 | 2 | 35.141 | 8.650 | 33.226 | 2 |
| 2025-04-22T08:01:00 | 54.046544 | 6.360404 | 2.0 | 8.468 | 2 | 35.111 | 8.641 | 33.203 | 2 |
| 2025-04-22T08:02:00 | 54.045040 | 6.360277 | 2.0 | 8.452 | 2 | 35.086 | 8.626 | 33.190 | 2 |
| 2025-04-22T08:03:00 | 54.043554 | 6.360195 | 2.0 | 8.456 | 2 | 35.063 | 8.623 | 33.169 | 2 |
| 2025-04-22T08:04:00 | 54.042105 | 6.360210 | 2.0 | 8.470 | 2 | 35.050 | 8.623 | 33.155 | 2 |
| 2025-04-22T08:05:00 | 54.040692 | 6.360283 | 2.0 | 8.472 | 2 | 35.046 | 8.639 | 33.136 | 2 |
| 2025-04-22T08:06:00 | 54.039296 | 6.360344 | 2.0 | 8.475 | 2 | 35.041 | 8.639 | 33.131 | 2 |
| 2025-04-22T08:07:00 | 54.037916 | 6.360436 | 2.0 | 8.455 | 2 | 35.040 | 8.639 | 33.130 | 2 |
| 2025-04-22T08:08:00 | 54.036543 | 6.360521 | 2.0 | 8.464 | 2 | 35.041 | 8.620 | 33.149 | 2 |
| 2025-04-22T08:09:00 | 54.035180 | 6.360566 | 2.0 | 8.508 | 2 | 35.042 | 8.639 | 33.132 | 2 |
| 2025-04-22T08:10:00 | 54.033833 | 6.360638 | 2.0 | 8.516 | 2 | 35.036 | 8.682 | 33.085 | 2 |
| 2025-04-22T08:11:00 | 54.032479 | 6.360622 | 2.0 | 8.510 | 2 | 34.994 | 8.681 | 33.042 | 2 |
| 2025-04-22T08:12:00 | 54.031097 | 6.360498 | 2.0 | 8.499 | 2 | 34.974 | 8.675 | 33.027 | 2 |
| 2025-04-22T08:13:00 | 54.029708 | 6.360435 | 2.0 | 8.518 | 2 | 34.955 | 8.675 | 33.007 | 2 |
| 2025-04-22T08:14:00 | 54.028312 | 6.360461 | 2.0 | 8.516 | 2 | 34.943 | 8.682 | 32.988 | 2 |
| 2025-04-22T08:15:00 | 54.026906 | 6.360440 | 2.0 | 8.533 | 2 | 34.930 | 8.685 | 32.971 | 2 |
| 2025-04-22T08:16:00 | 54.025497 | 6.360370 | 2.0 | 8.551 | 2 | 34.947 | 8.701 | 32.974 | 2 |
| 2025-04-22T08:17:00 | 54.024090 | 6.360303 | 2.0 | 8.559 | 2 | 34.950 | 8.717 | 32.963 | 2 |
| 2025-04-22T08:18:00 | 54.022683 | 6.360243 | 2.0 | 8.569 | 2 | 34.952 | 8.728 | 32.954 | 2 |
| 2025-04-22T08:19:00 | 54.021270 | 6.360202 | 2.0 | 8.588 | 2 | 34.960 | 8.738 | 32.954 | 2 |
| 2025-04-22T08:20:00 | 54.019859 | 6.360233 | 2.0 | 8.602 | 2 | 34.964 | 8.753 | 32.944 | 2 |
| 2025-04-22T08:21:00 | 54.018449 | 6.360288 | 2.0 | 8.616 | 2 | 34.978 | 8.771 | 32.942 | 2 |
| 2025-04-22T08:22:00 | 54.017047 | 6.360320 | 2.0 | 8.611 | 2 | 34.988 | 8.781 | 32.943 | 2 |
| 2025-04-22T08:23:00 | 54.015692 | 6.360333 | 2.0 | 8.612 | 2 | 34.973 | 8.772 | 32.936 | 2 |
| 2025-04-22T08:24:00 | 54.014475 | 6.360314 | 2.0 | 8.603 | 2 | 34.976 | 8.778 | 32.933 | 2 |
| 2025-04-22T08:25:00 | 54.013399 | 6.360255 | 2.0 | 8.590 | 2 | 34.983 | 8.766 | 32.952 | 2 |
| 2025-04-22T08:26:00 | 54.012460 | 6.360238 | 2.0 | 8.614 | 2 | 34.980 | 8.762 | 32.952 | 2 |
| 2025-04-22T08:27:00 | 54.011904 | 6.360697 | 2.0 | 8.622 | 2 | 34.984 | 8.783 | 32.937 | 2 |
| 2025-04-22T08:28:00 | 54.011545 | 6.361335 | 2.0 | 8.605 | 2 | 34.984 | 8.780 | 32.940 | 2 |
| 2025-04-22T08:29:00 | 54.011204 | 6.362091 | 2.0 | 8.627 | 2 | 34.981 | 8.777 | 32.939 | 2 |
| 2025-04-22T08:30:00 | 54.011423 | 6.363019 | 2.0 | 8.635 | 2 | 34.996 | 8.794 | 32.939 | 2 |
| 2025-04-22T08:31:00 | 54.012292 | 6.362741 | 2.0 | 8.641 | 2 | 35.001 | 8.799 | 32.940 | 2 |
| 2025-04-22T08:32:00 | 54.013192 | 6.360911 | 2.0 | 8.632 | 2 | 35.006 | 8.804 | 32.940 | 2 |
| 2025-04-22T08:33:00 | 54.014362 | 6.357973 | 2.0 | 8.610 | 2 | 35.003 | 8.796 | 32.945 | 2 |
| 2025-04-22T08:34:00 | 54.015841 | 6.354154 | 2.0 | 8.610 | 2 | 34.980 | 8.777 | 32.938 | 2 |
| 2025-04-22T08:35:00 | 54.017452 | 6.350012 | 2.0 | 8.598 | 2 | 34.975 | 8.776 | 32.934 | 2 |
| 2025-04-22T08:36:00 | 54.019103 | 6.345786 | 2.0 | 8.573 | 2 | 34.968 | 8.758 | 32.943 | 2 |
| 2025-04-22T08:37:00 | 54.020766 | 6.341543 | 2.0 | 8.567 | 2 | 34.950 | 8.740 | 32.941 | 2 |
| 2025-04-22T08:38:00 | 54.022433 | 6.337310 | 2.0 | 8.528 | 2 | 34.934 | 8.731 | 32.933 | 2 |
| 2025-04-22T08:39:00 | 54.024121 | 6.333222 | 2.0 | 8.513 | 2 | 34.900 | 8.695 | 32.931 | 2 |
| 2025-04-22T08:40:00 | 54.025776 | 6.329442 | 2.0 | 8.535 | 2 | 34.887 | 8.687 | 32.925 | 2 |
| 2025-04-22T08:41:00 | 54.027110 | 6.326349 | 2.0 | 8.509 | 2 | 34.668 | 8.703 | 32.680 | 2 |
| 2025-04-22T08:42:00 | 54.028332 | 6.324232 | 2.0 | 8.501 | 2 | 34.885 | 8.673 | 32.935 | 2 |
| 2025-04-22T08:43:00 | 54.029387 | 6.322432 | 2.0 | 8.524 | 2 | 34.883 | 8.675 | 32.932 | 2 |
| 2025-04-22T08:44:00 | 54.030244 | 6.321319 | 2.0 | 8.473 | 2 | 34.887 | 8.688 | 32.924 | 2 |
| 2025-04-22T08:45:00 | 54.030485 | 6.321466 | 2.0 | 8.393 | 2 | 34.860 | 8.621 | 32.958 | 2 |
| 2025-04-22T08:46:00 | 54.030535 | 6.321966 | 2.0 | 8.489 | 2 | 34.839 | 8.592 | 32.963 | 2 |
| 2025-04-22T08:47:00 | 54.030599 | 6.322438 | 2.0 | 8.514 | 2 | 34.869 | 8.655 | 32.935 | 2 |
| 2025-04-22T08:48:00 | 54.030674 | 6.322646 | 2.0 | 8.519 | 2 | 34.895 | 8.688 | 32.932 | 2 |
| 2025-04-22T08:49:00 | 54.030772 | 6.322737 | 2.0 | 8.534 | 2 | 34.906 | 8.697 | 32.935 | 2 |
| 2025-04-22T08:50:00 | 54.030875 | 6.322860 | 2.0 | 8.502 | 2 | 34.922 | 8.714 | 32.936 | 2 |
| 2025-04-22T08:51:00 | 54.030982 | 6.322888 | 2.0 | 8.488 | 2 | 34.903 | 8.667 | 32.960 | 2 |
| 2025-04-22T08:52:00 | 54.031271 | 6.322950 | 2.0 | 8.505 | 2 | 34.909 | 8.688 | 32.947 | 2 |
| 2025-04-22T08:53:00 | 54.031721 | 6.324231 | 2.0 | 8.482 | 2 | 34.905 | 8.688 | 32.942 | 2 |
| 2025-04-22T08:54:00 | 54.030776 | 6.325944 | 2.0 | 8.486 | 2 | 34.888 | 8.674 | 32.938 | 2 |
| 2025-04-22T08:55:00 | 54.028830 | 6.325382 | 2.0 | 8.507 | 2 | 34.902 | 8.682 | 32.945 | 2 |
| 2025-04-22T08:56:00 | 54.027579 | 6.323946 | 2.0 | 8.496 | 2 | 34.913 | 8.701 | 32.939 | 2 |
| 2025-04-22T08:57:00 | 54.027611 | 6.323105 | 2.0 | 8.505 | 2 | 34.910 | 8.682 | 32.953 | 2 |
| 2025-04-22T08:58:00 | 54.027719 | 6.322889 | 2.0 | 8.443 | 2 | 34.898 | 8.660 | 32.961 | 2 |
| 2025-04-22T08:59:00 | 54.027815 | 6.322775 | 2.0 | 8.508 | 2 | 34.894 | 8.665 | 32.952 | 2 |
| 2025-04-22T09:00:00 | 54.027925 | 6.322690 | 2.0 | 8.532 | 2 | 34.916 | 8.701 | 32.942 | 2 |
| 2025-04-22T09:01:00 | 54.028350 | 6.322981 | 2.0 | 8.508 | 2 | 34.936 | 8.727 | 32.939 | 2 |
| 2025-04-22T09:02:00 | 54.028857 | 6.324248 | 2.0 | 8.417 | 2 | 34.921 | 8.706 | 32.942 | 2 |
| 2025-04-22T09:03:00 | 54.028527 | 6.325727 | 2.0 | 8.536 | 2 | 34.900 | 8.650 | 32.973 | 2 |
| 2025-04-22T09:04:00 | 54.027555 | 6.326578 | 2.0 | 8.533 | 2 | 34.935 | 8.719 | 32.945 | 2 |
| 2025-04-22T09:05:00 | 54.026348 | 6.326554 | 2.0 | 8.520 | 2 | 34.952 | 8.729 | 32.954 | 2 |
| 2025-04-22T09:06:00 | 54.025176 | 6.326347 | 2.0 | 8.531 | 2 | 34.949 | 8.720 | 32.959 | 2 |
| 2025-04-22T09:07:00 | 54.024025 | 6.326203 | 2.0 | 8.551 | 2 | 34.955 | 8.737 | 32.949 | 2 |
| 2025-04-22T09:08:00 | 54.022880 | 6.326105 | 2.0 | 8.592 | 2 | 34.959 | 8.744 | 32.947 | 2 |
| 2025-04-22T09:09:00 | 54.021515 | 6.326229 | 2.0 | 8.557 | 2 | 34.980 | 8.785 | 32.931 | 2 |
| 2025-04-22T09:10:00 | 54.020178 | 6.326379 | 2.0 | 8.557 | 2 | 34.953 | 8.752 | 32.933 | 2 |
| 2025-04-22T09:11:00 | 54.018950 | 6.326485 | 2.0 | 8.626 | 2 | 34.944 | 8.765 | 32.912 | 2 |
| 2025-04-22T09:12:00 | 54.018293 | 6.325861 | 2.0 | 8.609 | 2 | 34.982 | 8.810 | 32.910 | 2 |
| 2025-04-22T09:13:00 | 54.018221 | 6.325256 | 2.0 | 8.654 | 2 | 34.988 | 8.817 | 32.909 | 2 |
| 2025-04-22T09:14:00 | 54.018335 | 6.325011 | 2.0 | 8.587 | 2 | 34.998 | 8.820 | 32.917 | 2 |
| 2025-04-22T09:15:00 | 54.018507 | 6.324691 | 2.0 | 8.631 | 2 | 34.980 | 8.802 | 32.915 | 2 |
| 2025-04-22T09:16:00 | 54.018571 | 6.324458 | 2.0 | 8.575 | 2 | 34.991 | 8.813 | 32.916 | 2 |
| 2025-04-22T09:17:00 | 54.018626 | 6.324369 | 2.0 | 8.586 | 2 | 34.962 | 8.778 | 32.918 | 2 |
| 2025-04-22T09:18:00 | 54.018670 | 6.324333 | 2.0 | 8.254 | 2 | 34.933 | 8.705 | 32.956 | 2 |
| 2025-04-22T09:19:00 | 54.018686 | 6.324233 | 2.0 | 8.400 | 2 | 34.798 | 8.510 | 32.996 | 2 |
| 2025-04-22T09:20:00 | 54.018829 | 6.324005 | 2.0 | 8.487 | 2 | 34.856 | 8.625 | 32.950 | 2 |
| 2025-04-22T09:21:00 | 54.019040 | 6.323623 | 2.0 | 8.511 | 2 | 34.909 | 8.696 | 32.939 | 2 |
| 2025-04-22T09:22:00 | 54.019377 | 6.323614 | 2.0 | 8.514 | 2 | 34.914 | 8.688 | 32.952 | 2 |
| 2025-04-22T09:23:00 | 54.019607 | 6.324821 | 2.0 | 8.560 | 2 | 34.923 | 8.718 | 32.933 | 2 |
| 2025-04-22T09:24:00 | 54.018225 | 6.326448 | 2.0 | 8.571 | 2 | 34.947 | 8.759 | 32.920 | 2 |
| 2025-04-22T09:25:00 | 54.015684 | 6.326708 | 2.0 | 8.595 | 2 | 34.963 | 8.775 | 32.922 | 2 |
| 2025-04-22T09:26:00 | 54.012889 | 6.326064 | 2.0 | 8.643 | 2 | 34.987 | 8.802 | 32.922 | 2 |
| 2025-04-22T09:27:00 | 54.009929 | 6.326007 | 2.0 | 8.618 | 2 | 35.006 | 8.830 | 32.916 | 2 |
| 2025-04-22T09:28:00 | 54.007114 | 6.325751 | 2.0 | 8.603 | 2 | 34.990 | 8.814 | 32.914 | 2 |
| 2025-04-22T09:29:00 | 54.005056 | 6.325177 | 2.0 | 8.596 | 2 | 34.998 | 8.806 | 32.930 | 2 |
| 2025-04-22T09:30:00 | 54.004475 | 6.323746 | 2.0 | 8.635 | 2 | 35.002 | 8.802 | 32.938 | 2 |
| 2025-04-22T09:31:00 | 54.004510 | 6.323104 | 2.0 | 8.657 | 2 | 35.012 | 8.824 | 32.928 | 2 |
| 2025-04-22T09:32:00 | 54.004612 | 6.322735 | 2.0 | 8.723 | 2 | 35.040 | 8.878 | 32.907 | 2 |
| 2025-04-22T09:33:00 | 54.004663 | 6.322645 | 2.0 | 8.604 | 2 | 35.065 | 8.901 | 32.912 | 2 |
| 2025-04-22T09:34:00 | 54.004705 | 6.322610 | 2.0 | 8.620 | 2 | 35.017 | 8.814 | 32.942 | 2 |
| 2025-04-22T09:35:00 | 54.004862 | 6.322776 | 2.0 | 8.633 | 2 | 35.024 | 8.833 | 32.932 | 2 |
| 2025-04-22T09:36:00 | 54.004888 | 6.324369 | 2.0 | 8.574 | 2 | 35.012 | 8.789 | 32.960 | 2 |
| 2025-04-22T09:37:00 | 54.003358 | 6.326042 | 2.0 | 8.682 | 2 | 35.003 | 8.809 | 32.932 | 2 |
| 2025-04-22T09:38:00 | 54.001681 | 6.325010 | 2.0 | 8.704 | 2 | 35.039 | 8.887 | 32.898 | 2 |
| 2025-04-22T09:39:00 | 54.001584 | 6.323880 | 2.0 | 8.653 | 2 | 35.053 | 8.887 | 32.912 | 2 |
| 2025-04-22T09:40:00 | 54.001652 | 6.323450 | 2.0 | 8.582 | 2 | 35.030 | 8.849 | 32.924 | 2 |
| 2025-04-22T09:41:00 | 54.001704 | 6.323237 | 2.0 | 8.631 | 2 | 34.997 | 8.790 | 32.944 | 2 |
| 2025-04-22T09:42:00 | 54.001878 | 6.323270 | 2.0 | 8.704 | 2 | 35.023 | 8.845 | 32.920 | 2 |
| 2025-04-22T09:43:00 | 54.002094 | 6.323450 | 2.0 | 8.718 | 2 | 35.067 | 8.906 | 32.909 | 2 |
| 2025-04-22T09:44:00 | 54.002487 | 6.324409 | 2.0 | 8.513 | 2 | 35.066 | 8.881 | 32.931 | 2 |
| 2025-04-22T09:45:00 | 54.003111 | 6.325973 | 2.0 | 8.712 | 2 | 35.011 | 8.789 | 32.959 | 2 |
| 2025-04-22T09:46:00 | 54.003971 | 6.327963 | 2.0 | 8.682 | 2 | 35.074 | 8.900 | 32.922 | 2 |
| 2025-04-22T09:47:00 | 54.004947 | 6.330224 | 2.0 | 8.677 | 2 | 35.073 | 8.870 | 32.949 | 2 |
| 2025-04-22T09:48:00 | 54.005966 | 6.332606 | 2.0 | 8.647 | 2 | 35.081 | 8.871 | 32.956 | 2 |
| 2025-04-22T09:49:00 | 54.006964 | 6.334924 | 2.0 | 8.670 | 2 | 35.071 | 8.846 | 32.969 | 2 |
| 2025-04-22T09:50:00 | 54.007942 | 6.337206 | 2.0 | 8.652 | 2 | 35.070 | 8.866 | 32.950 | 2 |
| 2025-04-22T09:51:00 | 54.008905 | 6.339499 | 2.0 | 8.670 | 2 | 35.058 | 8.844 | 32.957 | 2 |
| 2025-04-22T09:52:00 | 54.009875 | 6.341784 | 2.0 | 8.714 | 2 | 35.070 | 8.869 | 32.947 | 2 |
| 2025-04-22T09:53:00 | 54.010820 | 6.344077 | 2.0 | 8.713 | 2 | 35.097 | 8.899 | 32.947 | 2 |
| 2025-04-22T09:54:00 | 54.011778 | 6.346346 | 2.0 | 8.686 | 2 | 35.094 | 8.887 | 32.955 | 2 |
| 2025-04-22T09:55:00 | 54.012736 | 6.348624 | 2.0 | 8.688 | 2 | 35.090 | 8.867 | 32.969 | 2 |
| 2025-04-22T09:56:00 | 54.013700 | 6.350898 | 2.0 | 8.706 | 2 | 35.100 | 8.873 | 32.974 | 2 |
| 2025-04-22T09:57:00 | 54.014669 | 6.353183 | 2.0 | 8.699 | 2 | 35.116 | 8.883 | 32.982 | 2 |
| 2025-04-22T09:58:00 | 54.015638 | 6.355475 | 2.0 | 8.693 | 2 | 35.119 | 8.879 | 32.989 | 2 |
| 2025-04-22T09:59:00 | 54.016624 | 6.357739 | 2.0 | 8.697 | 2 | 35.125 | 8.871 | 33.002 | 2 |
| 2025-04-22T10:00:00 | 54.017604 | 6.360020 | 2.0 | 8.704 | 2 | 35.138 | 8.878 | 33.009 | 2 |
| 2025-04-22T10:01:00 | 54.018597 | 6.362284 | 2.0 | 8.690 | 2 | 35.149 | 8.877 | 33.022 | 2 |
| 2025-04-22T10:02:00 | 54.019573 | 6.364473 | 2.0 | 8.701 | 2 | 35.149 | 8.870 | 33.028 | 2 |
| 2025-04-22T10:03:00 | 54.020489 | 6.366528 | 2.0 | 8.715 | 2 | 35.163 | 8.880 | 33.034 | 2 |
| 2025-04-22T10:04:00 | 54.021334 | 6.368392 | 2.0 | 8.709 | 2 | 35.171 | 8.888 | 33.034 | 2 |
| 2025-04-22T10:05:00 | 54.022108 | 6.370093 | 2.0 | 8.712 | 2 | 35.172 | 8.885 | 33.038 | 2 |
| 2025-04-22T10:06:00 | 54.022794 | 6.371571 | 2.0 | 8.693 | 2 | 35.178 | 8.884 | 33.045 | 2 |
| 2025-04-22T10:07:00 | 54.023371 | 6.372862 | 2.0 | 8.664 | 2 | 35.164 | 8.864 | 33.050 | 2 |
| 2025-04-22T10:08:00 | 54.023913 | 6.373906 | 2.0 | 8.680 | 2 | 35.146 | 8.840 | 33.053 | 2 |
| 2025-04-22T10:09:00 | 54.024337 | 6.374864 | 2.0 | 8.625 | 2 | 35.150 | 8.840 | 33.057 | 2 |
| 2025-04-22T10:10:00 | 54.024428 | 6.375741 | 2.0 | 8.469 | 2 | 35.101 | 8.789 | 33.054 | 2 |
| 2025-04-22T10:11:00 | 54.024262 | 6.376266 | 2.0 | 8.241 | 2 | 34.948 | 8.602 | 33.068 | 2 |
| 2025-04-22T10:12:00 | 54.024047 | 6.376487 | 2.0 | 8.252 | 2 | 34.788 | 8.434 | 33.057 | 2 |
| 2025-04-22T10:13:00 | 54.023847 | 6.376562 | 2.0 | 8.322 | 2 | 34.787 | 8.447 | 33.044 | 2 |
| 2025-04-22T10:14:00 | 54.023674 | 6.376578 | 2.0 | 8.313 | 2 | 34.836 | 8.498 | 33.047 | 2 |
| 2025-04-22T10:15:00 | 54.023523 | 6.376572 | 2.0 | 8.403 | 2 | 34.855 | 8.522 | 33.045 | 2 |
| 2025-04-22T10:16:00 | 54.023394 | 6.376554 | 2.0 | 8.429 | 2 | 34.898 | 8.567 | 33.048 | 2 |
| 2025-04-22T10:17:00 | 54.023282 | 6.376542 | 2.0 | 8.549 | 2 | 34.947 | 8.629 | 33.042 | 2 |
| 2025-04-22T10:18:00 | 54.023178 | 6.376536 | 2.0 | 8.543 | 2 | 35.034 | 8.723 | 33.045 | 2 |
| 2025-04-22T10:19:00 | 54.023063 | 6.376518 | 2.0 | 8.552 | 2 | 35.032 | 8.715 | 33.050 | 2 |
| 2025-04-22T10:20:00 | 54.022917 | 6.376513 | 2.0 | 8.547 | 2 | 35.039 | 8.725 | 33.048 | 2 |
| 2025-04-22T10:21:00 | 54.022742 | 6.376560 | 2.0 | 8.493 | 2 | 35.023 | 8.707 | 33.048 | 2 |
| 2025-04-22T10:22:00 | 54.022543 | 6.376639 | 2.0 | 8.407 | 2 | 34.967 | 8.640 | 33.052 | 2 |
| 2025-04-22T10:23:00 | 54.022358 | 6.376683 | 2.0 | 8.415 | 2 | 34.897 | 8.574 | 33.041 | 2 |
| 2025-04-22T10:24:00 | 54.022193 | 6.376697 | 2.0 | 8.403 | 2 | 34.910 | 8.597 | 33.033 | 2 |
| 2025-04-22T10:25:00 | 54.022047 | 6.376698 | 2.0 | 8.370 | 2 | 34.882 | 8.564 | 33.034 | 2 |
| 2025-04-22T10:26:00 | 54.021916 | 6.376686 | 2.0 | 8.436 | 2 | 34.861 | 8.551 | 33.024 | 2 |
| 2025-04-22T10:27:00 | 54.021802 | 6.376667 | 2.0 | 8.468 | 2 | 34.915 | 8.617 | 33.019 | 2 |
| 2025-04-22T10:28:00 | 54.021708 | 6.376656 | 2.0 | 8.494 | 2 | 34.945 | 8.642 | 33.027 | 2 |
| 2025-04-22T10:29:00 | 54.021625 | 6.376645 | 2.0 | 8.542 | 2 | 34.973 | 8.677 | 33.024 | 2 |
| 2025-04-22T10:30:00 | 54.021550 | 6.376648 | 2.0 | 8.561 | 2 | 35.017 | 8.722 | 33.028 | 2 |
| 2025-04-22T10:31:00 | 54.021473 | 6.376655 | 2.0 | 8.564 | 2 | 35.031 | 8.733 | 33.033 | 2 |
| 2025-04-22T10:32:00 | 54.021393 | 6.376669 | 2.0 | 8.556 | 2 | 35.033 | 8.733 | 33.035 | 2 |
| 2025-04-22T10:33:00 | 54.021322 | 6.376687 | 2.0 | 8.552 | 2 | 35.029 | 8.728 | 33.035 | 2 |
| 2025-04-22T10:34:00 | 54.021262 | 6.376712 | 2.0 | 8.554 | 2 | 35.028 | 8.728 | 33.034 | 2 |
| 2025-04-22T10:35:00 | 54.021202 | 6.376753 | 2.0 | 8.559 | 2 | 35.028 | 8.728 | 33.034 | 2 |
| 2025-04-22T10:36:00 | 54.021145 | 6.376804 | 2.0 | 8.560 | 2 | 35.017 | 8.729 | 33.022 | 2 |
| 2025-04-22T10:37:00 | 54.021095 | 6.376870 | 2.0 | 8.552 | 2 | 35.026 | 8.735 | 33.025 | 2 |
| 2025-04-22T10:38:00 | 54.021020 | 6.376941 | 2.0 | 8.555 | 2 | 35.017 | 8.721 | 33.029 | 2 |
| 2025-04-22T10:39:00 | 54.020913 | 6.377000 | 2.0 | 8.569 | 2 | 35.025 | 8.732 | 33.027 | 2 |
| 2025-04-22T10:40:00 | 54.020780 | 6.377028 | 2.0 | 8.575 | 2 | 35.037 | 8.741 | 33.031 | 2 |
| 2025-04-22T10:41:00 | 54.020633 | 6.377015 | 2.0 | 8.579 | 2 | 35.042 | 8.748 | 33.030 | 2 |
| 2025-04-22T10:42:00 | 54.020479 | 6.376947 | 2.0 | 8.546 | 2 | 35.036 | 8.742 | 33.029 | 2 |
| 2025-04-22T10:43:00 | 54.020334 | 6.376815 | 2.0 | 8.559 | 2 | 35.013 | 8.720 | 33.026 | 2 |
| 2025-04-22T10:44:00 | 54.020196 | 6.376635 | 2.0 | 8.553 | 2 | 35.022 | 8.729 | 33.027 | 2 |
| 2025-04-22T10:45:00 | 54.020065 | 6.376422 | 2.0 | 8.570 | 2 | 35.021 | 8.729 | 33.026 | 2 |
| 2025-04-22T10:46:00 | 54.019940 | 6.376195 | 2.0 | 8.565 | 2 | 35.027 | 8.734 | 33.027 | 2 |
| 2025-04-22T10:47:00 | 54.019850 | 6.375950 | 2.0 | 8.558 | 2 | 35.030 | 8.738 | 33.027 | 2 |
| 2025-04-22T10:48:00 | 54.019806 | 6.375699 | 2.0 | 8.668 | 2 | 35.028 | 8.743 | 33.020 | 2 |
| 2025-04-22T10:49:00 | 54.019828 | 6.375474 | 2.0 | 8.673 | 2 | 35.106 | 8.829 | 33.022 | 2 |
| 2025-04-22T10:50:00 | 54.019899 | 6.375289 | 2.0 | 8.683 | 2 | 35.118 | 8.843 | 33.021 | 2 |
| 2025-04-22T10:51:00 | 54.020021 | 6.375154 | 2.0 | 8.678 | 2 | 35.128 | 8.851 | 33.024 | 2 |
| 2025-04-22T10:52:00 | 54.020181 | 6.375083 | 2.0 | 8.663 | 2 | 35.128 | 8.848 | 33.027 | 2 |
| 2025-04-22T10:53:00 | 54.020378 | 6.375035 | 2.0 | 8.648 | 2 | 35.111 | 8.825 | 33.030 | 2 |
| 2025-04-22T10:54:00 | 54.020607 | 6.374920 | 2.0 | 8.664 | 2 | 35.108 | 8.823 | 33.029 | 2 |
| 2025-04-22T10:55:00 | 54.020875 | 6.374771 | 2.0 | 8.661 | 2 | 35.120 | 8.832 | 33.033 | 2 |
| 2025-04-22T10:56:00 | 54.021205 | 6.374655 | 2.0 | 8.594 | 2 | 35.108 | 8.812 | 33.039 | 2 |
| 2025-04-22T10:57:00 | 54.021611 | 6.374469 | 2.0 | 8.595 | 2 | 35.061 | 8.763 | 33.036 | 2 |
| 2025-04-22T10:58:00 | 54.022094 | 6.374260 | 2.0 | 8.551 | 2 | 35.064 | 8.765 | 33.037 | 2 |
| 2025-04-22T10:59:00 | 54.022656 | 6.373922 | 2.0 | 8.618 | 2 | 35.030 | 8.726 | 33.038 | 2 |
| 2025-04-22T11:00:00 | 54.023343 | 6.373426 | 2.0 | 8.671 | 2 | 35.088 | 8.790 | 33.039 | 2 |
| 2025-04-22T11:01:00 | 54.024150 | 6.372810 | 2.0 | 8.658 | 2 | 35.140 | 8.838 | 33.049 | 2 |
| 2025-04-22T11:02:00 | 54.025050 | 6.372126 | 2.0 | 8.656 | 2 | 35.139 | 8.834 | 33.051 | 2 |
| 2025-04-22T11:03:00 | 54.025981 | 6.371425 | 2.0 | 8.729 | 2 | 35.132 | 8.830 | 33.048 | 2 |
| 2025-04-22T11:04:00 | 54.026920 | 6.370733 | 2.0 | 8.711 | 2 | 35.195 | 8.892 | 33.056 | 2 |
| 2025-04-22T11:05:00 | 54.027877 | 6.370123 | 2.0 | 8.700 | 2 | 35.188 | 8.879 | 33.061 | 2 |
| 2025-04-22T11:06:00 | 54.028839 | 6.369508 | 2.0 | 8.687 | 2 | 35.176 | 8.862 | 33.064 | 2 |
| 2025-04-22T11:07:00 | 54.029816 | 6.368887 | 2.0 | 8.691 | 2 | 35.180 | 8.861 | 33.069 | 2 |
| 2025-04-22T11:08:00 | 54.030791 | 6.368270 | 2.0 | 8.686 | 2 | 35.178 | 8.859 | 33.069 | 2 |
| 2025-04-22T11:09:00 | 54.031776 | 6.367657 | 2.0 | 8.709 | 2 | 35.182 | 8.861 | 33.071 | 2 |
| 2025-04-22T11:10:00 | 54.032755 | 6.367050 | 2.0 | 8.701 | 2 | 35.204 | 8.877 | 33.079 | 2 |
| 2025-04-22T11:11:00 | 54.033724 | 6.366459 | 2.0 | 8.713 | 2 | 35.207 | 8.874 | 33.085 | 2 |
| 2025-04-22T11:12:00 | 54.034708 | 6.365869 | 2.0 | 8.683 | 2 | 35.219 | 8.878 | 33.094 | 2 |
| 2025-04-22T11:13:00 | 54.035707 | 6.365274 | 2.0 | 8.663 | 2 | 35.203 | 8.849 | 33.104 | 2 |
| 2025-04-22T11:14:00 | 54.036717 | 6.364673 | 2.0 | 8.649 | 2 | 35.191 | 8.827 | 33.112 | 2 |
| 2025-04-22T11:15:00 | 54.037723 | 6.364073 | 2.0 | 8.655 | 2 | 35.192 | 8.822 | 33.118 | 2 |
| 2025-04-22T11:16:00 | 54.038699 | 6.363376 | 2.0 | 8.657 | 2 | 35.201 | 8.824 | 33.126 | 2 |
| 2025-04-22T11:17:00 | 54.039670 | 6.362666 | 2.0 | 8.628 | 2 | 35.212 | 8.822 | 33.139 | 2 |
| 2025-04-22T11:18:00 | 54.040575 | 6.361785 | 2.0 | 8.593 | 2 | 35.201 | 8.800 | 33.148 | 2 |
| 2025-04-22T11:19:00 | 54.041474 | 6.360897 | 2.0 | 8.574 | 2 | 35.174 | 8.760 | 33.157 | 2 |
| 2025-04-22T11:20:00 | 54.042423 | 6.360111 | 2.0 | 8.539 | 2 | 35.165 | 8.741 | 33.165 | 2 |
| 2025-04-22T11:21:00 | 54.043399 | 6.359428 | 2.0 | 8.539 | 2 | 35.145 | 8.712 | 33.172 | 2 |
| 2025-04-22T11:22:00 | 54.044316 | 6.358889 | 2.0 | 8.523 | 2 | 35.155 | 8.707 | 33.187 | 2 |
| 2025-04-22T11:23:00 | 54.045135 | 6.358510 | 2.0 | 8.536 | 2 | 35.169 | 8.706 | 33.203 | 2 |
| 2025-04-22T11:24:00 | 54.045881 | 6.358293 | 2.0 | 8.550 | 2 | 35.183 | 8.709 | 33.214 | 2 |
| 2025-04-22T11:25:00 | 54.046561 | 6.358168 | 2.0 | 8.539 | 2 | 35.204 | 8.721 | 33.225 | 2 |
| 2025-04-22T11:26:00 | 54.047176 | 6.358101 | 2.0 | 8.536 | 2 | 35.205 | 8.711 | 33.236 | 2 |
| 2025-04-22T11:27:00 | 54.047745 | 6.358182 | 2.0 | 8.511 | 2 | 35.210 | 8.703 | 33.248 | 2 |
| 2025-04-22T11:28:00 | 54.048258 | 6.358423 | 2.0 | 8.539 | 2 | 35.196 | 8.684 | 33.252 | 2 |
| 2025-04-22T11:29:00 | 54.048611 | 6.358929 | 2.0 | 8.519 | 2 | 35.217 | 8.706 | 33.253 | 2 |
| 2025-04-22T11:30:00 | 54.048697 | 6.359475 | 2.0 | 8.481 | 2 | 35.192 | 8.680 | 33.251 | 2 |
| 2025-04-22T11:31:00 | 54.048572 | 6.359836 | 2.0 | 8.459 | 2 | 35.151 | 8.646 | 33.240 | 2 |
| 2025-04-22T11:32:00 | 54.048307 | 6.359810 | 2.0 | 8.447 | 2 | 35.130 | 8.626 | 33.237 | 2 |
| 2025-04-22T11:33:00 | 54.047886 | 6.359794 | 2.0 | 8.515 | 2 | 35.133 | 8.641 | 33.226 | 2 |
| 2025-04-22T11:34:00 | 54.047503 | 6.359991 | 2.0 | 8.547 | 2 | 35.184 | 8.694 | 33.230 | 2 |
| 2025-04-22T11:35:00 | 54.047174 | 6.360310 | 2.0 | 8.568 | 2 | 35.187 | 8.703 | 33.224 | 2 |
| 2025-04-22T11:36:00 | 54.046875 | 6.360651 | 2.0 | 8.544 | 2 | 35.216 | 8.739 | 33.221 | 2 |
| 2025-04-22T11:37:00 | 54.046613 | 6.360879 | 2.0 | 8.468 | 2 | 35.185 | 8.705 | 33.220 | 2 |
| 2025-04-22T11:38:00 | 54.046482 | 6.360923 | 2.0 | 8.507 | 2 | 35.134 | 8.640 | 33.228 | 2 |
| 2025-04-22T11:39:00 | 54.046382 | 6.360898 | 2.0 | 8.555 | 2 | 35.152 | 8.677 | 33.212 | 2 |
| 2025-04-22T11:40:00 | 54.046226 | 6.360875 | 2.0 | 8.645 | 2 | 35.226 | 8.757 | 33.214 | 2 |
| 2025-04-22T11:41:00 | 54.046029 | 6.360856 | 2.0 | 8.498 | 2 | 35.263 | 8.782 | 33.230 | 2 |
| 2025-04-22T11:42:00 | 54.045807 | 6.360898 | 2.0 | 8.524 | 2 | 35.155 | 8.680 | 33.212 | 2 |
| 2025-04-22T11:43:00 | 54.045582 | 6.361043 | 2.0 | 8.505 | 2 | 34.900 | 8.690 | 32.935 | 2 |
| 2025-04-22T11:44:00 | 54.045373 | 6.361219 | 2.0 | 8.511 | 2 | 35.145 | 8.677 | 33.205 | 2 |
| 2025-04-22T11:45:00 | 54.045208 | 6.361377 | 2.0 | 8.511 | 2 | 35.155 | 8.686 | 33.207 | 2 |
| 2025-04-22T11:46:00 | 54.045085 | 6.361482 | 2.0 | 8.536 | 2 | 35.156 | 8.682 | 33.211 | 2 |
| 2025-04-22T11:47:00 | 54.044960 | 6.361524 | 2.0 | 8.551 | 2 | 35.186 | 8.710 | 33.217 | 2 |
| 2025-04-22T11:48:00 | 54.044813 | 6.361511 | 2.0 | 8.580 | 2 | 35.187 | 8.738 | 33.191 | 2 |
| 2025-04-22T11:49:00 | 54.044662 | 6.361497 | 2.0 | 8.566 | 2 | 35.190 | 8.764 | 33.170 | 2 |
| 2025-04-22T11:50:00 | 54.044518 | 6.361535 | 2.0 | 8.567 | 2 | 35.146 | 8.755 | 33.132 | 2 |
| 2025-04-22T11:51:00 | 54.044385 | 6.361550 | 2.0 | 8.578 | 2 | 35.241 | 8.757 | 33.230 | 2 |
| 2025-04-22T11:52:00 | 54.044320 | 6.361601 | 2.0 | 8.474 | 2 | 35.248 | 8.758 | 33.237 | 2 |
| 2025-04-22T11:53:00 | 54.044292 | 6.361659 | 2.0 | 8.560 | 2 | 35.164 | 8.664 | 33.237 | 2 |
| 2025-04-22T11:54:00 | 54.044284 | 6.361682 | 2.0 | 8.612 | 2 | 35.252 | 8.775 | 33.225 | 2 |
| 2025-04-22T11:55:00 | 54.044282 | 6.361667 | 2.0 | 8.623 | 2 | 35.246 | 8.784 | 33.210 | 2 |
| 2025-04-22T11:56:00 | 54.044291 | 6.361689 | 2.0 | 8.669 | 2 | 35.167 | 8.824 | 33.090 | 2 |
| 2025-04-22T11:57:00 | 54.044296 | 6.361706 | 2.0 | 8.670 | 2 | 35.348 | 8.856 | 33.249 | 2 |
| 2025-04-22T11:58:00 | 54.044292 | 6.361670 | 2.0 | 8.702 | 2 | 35.172 | 8.859 | 33.063 | 2 |
| 2025-04-22T11:59:00 | 54.044291 | 6.361649 | 2.0 | 8.695 | 2 | 35.039 | 8.908 | 32.878 | 2 |
| 2025-04-22T12:00:00 | 54.044301 | 6.361685 | 2.0 | 8.696 | 2 | 35.161 | 8.890 | 33.022 | 2 |
| 2025-04-22T12:01:00 | 54.044291 | 6.361676 | 2.0 | 8.626 | 2 | 35.374 | 8.878 | 33.256 | 2 |
| 2025-04-22T12:02:00 | 54.044235 | 6.361559 | 2.0 | 8.689 | 2 | 35.189 | 8.825 | 33.112 | 2 |
| 2025-04-22T12:03:00 | 54.044249 | 6.361366 | 2.0 | 8.687 | 2 | 35.340 | 8.880 | 33.218 | 2 |
| 2025-04-22T12:04:00 | 54.044464 | 6.361374 | 2.0 | 8.692 | 2 | 35.170 | 8.885 | 33.036 | 2 |
| 2025-04-22T12:05:00 | 54.044715 | 6.361756 | 2.0 | 8.562 | 2 | 35.288 | 8.867 | 33.176 | 2 |
| 2025-04-22T12:06:00 | 54.044905 | 6.362281 | 2.0 | 8.564 | 2 | 35.072 | 8.761 | 33.049 | 2 |
| 2025-04-22T12:07:00 | 54.045048 | 6.362819 | 2.0 | 8.592 | 2 | 35.083 | 8.757 | 33.065 | 2 |
| 2025-04-22T12:08:00 | 54.045171 | 6.363404 | 2.0 | 8.544 | 2 | 35.173 | 8.809 | 33.110 | 2 |
| 2025-04-22T12:09:00 | 54.045188 | 6.364101 | 2.0 | 8.485 | 2 | 35.141 | 8.714 | 33.166 | 2 |
| 2025-04-22T12:10:00 | 54.045012 | 6.364702 | 2.0 | 8.567 | 2 | 35.211 | 8.722 | 33.232 | 2 |
| 2025-04-22T12:11:00 | 54.044751 | 6.365100 | 2.0 | 8.525 | 2 | 35.228 | 8.749 | 33.224 | 2 |
| 2025-04-22T12:12:00 | 54.044352 | 6.365399 | 2.0 | 8.491 | 2 | 35.106 | 8.713 | 33.130 | 2 |
| 2025-04-22T12:13:00 | 54.043922 | 6.365938 | 2.0 | 8.530 | 2 | 35.141 | 8.707 | 33.172 | 2 |
| 2025-04-22T12:14:00 | 54.043695 | 6.366814 | 2.0 | 8.548 | 2 | 35.002 | 8.732 | 33.003 | 2 |
| 2025-04-22T12:15:00 | 54.043764 | 6.367684 | 2.0 | 8.557 | 2 | 35.039 | 8.744 | 33.031 | 2 |
| 2025-04-22T12:16:00 | 54.044007 | 6.368429 | 2.0 | 8.590 | 2 | 35.099 | 8.763 | 33.076 | 2 |
| 2025-04-22T12:17:00 | 54.044384 | 6.369278 | 2.0 | 8.610 | 2 | 35.211 | 8.784 | 33.173 | 2 |
| 2025-04-22T12:18:00 | 54.044521 | 6.370177 | 2.0 | 8.566 | 2 | 35.248 | 8.818 | 33.180 | 2 |
| 2025-04-22T12:19:00 | 54.044492 | 6.370776 | 2.0 | 8.692 | 2 | 35.189 | 8.762 | 33.171 | 2 |
| 2025-04-22T12:20:00 | 54.044361 | 6.370983 | 2.0 | 8.534 | 2 | 35.156 | 8.839 | 33.064 | 2 |
| 2025-04-22T12:21:00 | 54.044125 | 6.370708 | 2.0 | 8.584 | 2 | 35.094 | 8.756 | 33.077 | 2 |
| 2025-04-22T12:22:00 | 54.043995 | 6.370507 | 2.0 | 8.483 | 2 | 34.991 | 8.779 | 32.948 | 2 |
| 2025-04-22T12:23:00 | 54.043958 | 6.370441 | 2.0 | 8.537 | 2 | 35.101 | 8.689 | 33.147 | 2 |
| 2025-04-22T12:24:00 | 54.043919 | 6.370375 | 2.0 | 8.690 | 2 | 35.093 | 8.758 | 33.074 | 2 |
| 2025-04-22T12:25:00 | 54.043880 | 6.370368 | 2.0 | 8.587 | 2 | 35.259 | 8.878 | 33.136 | 2 |
| 2025-04-22T12:26:00 | 54.043824 | 6.370379 | 2.0 | 8.540 | 2 | 35.144 | 8.785 | 33.102 | 2 |
| 2025-04-22T12:27:00 | 54.043771 | 6.370388 | 2.0 | 8.414 | 2 | 35.052 | 8.718 | 33.069 | 2 |
| 2025-04-22T12:28:00 | 54.043748 | 6.370416 | 2.0 | 8.435 | 2 | 34.970 | 8.624 | 33.070 | 2 |
| 2025-04-22T12:29:00 | 54.043722 | 6.370436 | 2.0 | 8.519 | 2 | 35.001 | 8.651 | 33.078 | 2 |
| 2025-04-22T12:30:00 | 54.043701 | 6.370455 | 2.0 | 8.570 | 2 | 35.074 | 8.727 | 33.083 | 2 |
| 2025-04-22T12:31:00 | 54.043656 | 6.370509 | 2.0 | 8.543 | 2 | 35.125 | 8.763 | 33.103 | 2 |
| 2025-04-22T12:32:00 | 54.043588 | 6.370516 | 2.0 | 8.522 | 2 | 35.082 | 8.735 | 33.084 | 2 |
| 2025-04-22T12:33:00 | 54.043555 | 6.370494 | 2.0 | 8.576 | 2 | 35.106 | 8.729 | 33.115 | 2 |
| 2025-04-22T12:34:00 | 54.043482 | 6.370472 | 2.0 | 8.745 | 2 | 35.156 | 8.805 | 33.096 | 2 |
| 2025-04-22T12:35:00 | 54.043456 | 6.370485 | 2.0 | 8.727 | 2 | 35.322 | 8.938 | 33.145 | 2 |
| 2025-04-22T12:36:00 | 54.043418 | 6.370525 | 2.0 | 8.662 | 2 | 35.327 | 8.918 | 33.169 | 2 |
| 2025-04-22T12:37:00 | 54.043362 | 6.370546 | 2.0 | 8.610 | 2 | 35.238 | 8.856 | 33.134 | 2 |
| 2025-04-22T12:38:00 | 54.043314 | 6.370540 | 2.0 | 8.593 | 2 | 35.268 | 8.816 | 33.203 | 2 |
| 2025-04-22T12:39:00 | 54.043220 | 6.370539 | 2.0 | 8.598 | 2 | 35.215 | 8.789 | 33.173 | 2 |
| 2025-04-22T12:40:00 | 54.043091 | 6.370543 | 2.0 | 8.731 | 2 | 35.245 | 8.829 | 33.167 | 2 |
| 2025-04-22T12:41:00 | 54.043004 | 6.370356 | 2.0 | 8.704 | 2 | 35.339 | 8.918 | 33.182 | 2 |
| 2025-04-22T12:42:00 | 54.042981 | 6.370253 | 2.0 | 8.712 | 2 | 35.347 | 8.909 | 33.199 | 2 |
| 2025-04-22T12:43:00 | 54.043172 | 6.369982 | 2.0 | 8.521 | 2 | 35.314 | 8.857 | 33.213 | 2 |
| 2025-04-22T12:44:00 | 54.043476 | 6.369444 | 2.0 | 8.540 | 2 | 35.216 | 8.746 | 33.214 | 2 |
| 2025-04-22T12:45:00 | 54.043774 | 6.368925 | 2.0 | 8.569 | 2 | 35.213 | 8.754 | 33.204 | 2 |
| 2025-04-22T12:46:00 | 54.044039 | 6.368468 | 2.0 | 8.591 | 2 | 35.261 | 8.794 | 33.216 | 2 |
| 2025-04-22T12:47:00 | 54.044411 | 6.368229 | 2.0 | 8.445 | 2 | 35.257 | 8.761 | 33.243 | 2 |
| 2025-04-22T12:48:00 | 54.044779 | 6.368017 | 2.0 | 8.562 | 2 | 35.181 | 8.678 | 33.241 | 2 |
| 2025-04-22T12:49:00 | 54.045093 | 6.367763 | 2.0 | 8.460 | 2 | 35.264 | 8.756 | 33.255 | 2 |
| 2025-04-22T12:50:00 | 54.045447 | 6.367679 | 2.0 | 8.301 | 2 | 35.175 | 8.644 | 33.267 | 2 |
| 2025-04-22T12:51:00 | 54.045820 | 6.368056 | 2.0 | 8.235 | 2 | 35.042 | 8.514 | 33.250 | 2 |
| 2025-04-22T12:52:00 | 54.045996 | 6.369094 | 2.0 | 8.215 | 2 | 34.987 | 8.442 | 33.259 | 2 |
| 2025-04-22T12:53:00 | 54.045942 | 6.370814 | 2.0 | 8.333 | 2 | 34.889 | 8.434 | 33.164 | 2 |
| 2025-04-22T12:54:00 | 54.045733 | 6.373141 | 2.0 | 8.472 | 2 | 35.049 | 8.578 | 33.197 | 2 |
| 2025-04-22T12:55:00 | 54.045524 | 6.375835 | 2.0 | 8.573 | 2 | 35.171 | 8.684 | 33.225 | 2 |
| 2025-04-22T12:56:00 | 54.045552 | 6.378764 | 2.0 | 8.673 | 2 | 35.292 | 8.813 | 33.231 | 2 |
| 2025-04-22T12:57:00 | 54.045677 | 6.381612 | 2.0 | 8.607 | 2 | 35.327 | 8.869 | 33.215 | 2 |
| 2025-04-22T12:58:00 | 54.044928 | 6.382708 | 2.0 | 8.592 | 2 | 35.234 | 8.805 | 33.178 | 2 |
| 2025-04-22T12:59:00 | 54.044693 | 6.382292 | 2.0 | 8.518 | 2 | 35.190 | 8.767 | 33.167 | 2 |
| 2025-04-22T13:00:00 | 54.044915 | 6.381149 | 2.0 | 8.633 | 2 | 35.169 | 8.746 | 33.165 | 2 |
| 2025-04-22T13:01:00 | 54.044949 | 6.379472 | 2.0 | 8.521 | 2 | 35.289 | 8.849 | 33.194 | 2 |
| 2025-04-22T13:02:00 | 54.044771 | 6.377513 | 2.0 | 8.524 | 2 | 35.233 | 8.710 | 33.266 | 2 |
| 2025-04-22T13:03:00 | 54.044684 | 6.375548 | 2.0 | 8.521 | 2 | 35.214 | 8.716 | 33.240 | 2 |
| 2025-04-22T13:04:00 | 54.044578 | 6.373724 | 2.0 | 8.477 | 2 | 35.227 | 8.725 | 33.246 | 2 |
| 2025-04-22T13:05:00 | 54.044514 | 6.371910 | 2.0 | 8.283 | 2 | 35.195 | 8.656 | 33.277 | 2 |
| 2025-04-22T13:06:00 | 54.044470 | 6.369944 | 2.0 | 8.255 | 2 | 35.058 | 8.498 | 33.282 | 2 |
| 2025-04-22T13:07:00 | 54.044462 | 6.367865 | 2.0 | 8.227 | 2 | 35.028 | 8.463 | 33.283 | 2 |
| 2025-04-22T13:08:00 | 54.044412 | 6.365730 | 2.0 | 8.278 | 2 | 35.015 | 8.447 | 33.284 | 2 |
| 2025-04-22T13:09:00 | 54.044368 | 6.363552 | 2.0 | 8.315 | 2 | 35.060 | 8.490 | 33.291 | 2 |
| 2025-04-22T13:10:00 | 54.044389 | 6.361348 | 2.0 | 8.380 | 2 | 35.099 | 8.533 | 33.292 | 2 |
| 2025-04-22T13:11:00 | 54.044423 | 6.359133 | 2.0 | 8.439 | 2 | 35.151 | 8.593 | 33.290 | 2 |
| 2025-04-22T13:12:00 | 54.043921 | 6.357617 | 2.0 | 8.516 | 2 | 35.207 | 8.658 | 33.288 | 2 |
| 2025-04-22T13:13:00 | 54.042841 | 6.357268 | 2.0 | 8.544 | 2 | 35.268 | 8.726 | 33.288 | 2 |
| 2025-04-22T13:14:00 | 54.041635 | 6.357637 | 2.0 | 8.615 | 2 | 35.299 | 8.773 | 33.276 | 2 |
| 2025-04-22T13:15:00 | 54.040331 | 6.358461 | 2.0 | 8.589 | 2 | 35.332 | 8.807 | 33.278 | 2 |
| 2025-04-22T13:16:00 | 54.039242 | 6.360008 | 2.0 | 8.532 | 2 | 35.319 | 8.801 | 33.271 | 2 |
| 2025-04-22T13:17:00 | 54.038451 | 6.362257 | 2.0 | 8.465 | 2 | 35.253 | 8.722 | 33.276 | 2 |
| 2025-04-22T13:18:00 | 54.038418 | 6.364870 | 2.0 | 8.481 | 2 | 35.148 | 8.674 | 33.211 | 2 |
| 2025-04-22T13:19:00 | 54.039133 | 6.366954 | 2.0 | 8.546 | 2 | 35.216 | 8.737 | 33.223 | 2 |
| 2025-04-22T13:20:00 | 54.040252 | 6.368501 | 2.0 | 8.396 | 2 | 35.251 | 8.718 | 33.277 | 2 |
| 2025-04-22T13:21:00 | 54.041526 | 6.369236 | 2.0 | 8.355 | 2 | 35.153 | 8.609 | 33.277 | 2 |
| 2025-04-22T13:22:00 | 54.042919 | 6.369547 | 2.0 | 8.290 | 2 | 35.119 | 8.551 | 33.296 | 2 |
| 2025-04-22T13:23:00 | 54.044409 | 6.370048 | 2.0 | 8.288 | 2 | 35.078 | 8.504 | 33.297 | 2 |
| 2025-04-22T13:24:00 | 54.045848 | 6.370321 | 2.0 | 8.298 | 2 | 34.997 | 8.515 | 33.201 | 2 |
| 2025-04-22T13:25:00 | 54.046948 | 6.369685 | 2.0 | 8.327 | 2 | 34.980 | 8.516 | 33.182 | 2 |
| 2025-04-22T13:26:00 | 54.047574 | 6.368490 | 2.0 | 8.395 | 2 | 35.128 | 8.553 | 33.303 | 2 |
| 2025-04-22T13:27:00 | 54.047753 | 6.367080 | 2.0 | 8.416 | 2 | 35.069 | 8.615 | 33.183 | 2 |
| 2025-04-22T13:28:00 | 54.047760 | 6.365583 | 2.0 | 8.391 | 2 | 35.185 | 8.617 | 33.303 | 2 |
| 2025-04-22T13:29:00 | 54.047547 | 6.363695 | 2.0 | 8.399 | 2 | 35.159 | 8.598 | 33.294 | 2 |
| 2025-04-22T13:30:00 | 54.046832 | 6.361653 | 2.0 | 8.453 | 2 | 35.182 | 8.619 | 33.298 | 2 |
| 2025-04-22T13:31:00 | 54.045685 | 6.359365 | 2.0 | 8.575 | 2 | 35.134 | 8.685 | 33.185 | 2 |
| 2025-04-22T13:32:00 | 54.044198 | 6.356231 | 2.0 | 8.852 | 2 | 35.330 | 8.787 | 33.295 | 2 |
| 2025-04-22T13:33:00 | 54.042498 | 6.352934 | 2.0 | 8.900 | 2 | 35.348 | 9.100 | 33.022 | 2 |
| 2025-04-22T13:34:00 | 54.040752 | 6.349544 | 2.0 | 8.719 | 2 | 35.396 | 9.072 | 33.098 | 2 |
| 2025-04-22T13:35:00 | 54.039043 | 6.346037 | 2.0 | 8.582 | 2 | 35.252 | 8.909 | 33.099 | 2 |
| 2025-04-22T13:36:00 | 54.037299 | 6.342538 | 2.0 | 8.551 | 2 | 35.129 | 8.792 | 33.080 | 2 |
| 2025-04-22T13:37:00 | 54.035482 | 6.339152 | 2.0 | 8.554 | 2 | 34.863 | 8.765 | 32.827 | 2 |
| 2025-04-22T13:38:00 | 54.033574 | 6.336081 | 2.0 | 8.549 | 2 | 35.036 | 8.765 | 33.008 | 2 |
| 2025-04-22T13:39:00 | 54.031964 | 6.333642 | 2.0 | 8.519 | 2 | 35.008 | 8.749 | 32.994 | 2 |
| 2025-04-22T13:40:00 | 54.030744 | 6.331664 | 2.0 | 8.481 | 2 | 34.989 | 8.735 | 32.987 | 2 |
| 2025-04-22T13:41:00 | 54.030419 | 6.330009 | 2.0 | 8.587 | 2 | 34.880 | 8.709 | 32.897 | 2 |
| 2025-04-22T13:42:00 | 54.030313 | 6.328628 | 2.0 | 8.611 | 2 | 34.901 | 8.814 | 32.821 | 2 |
| 2025-04-22T13:43:00 | 54.030312 | 6.327483 | 2.0 | 8.586 | 2 | 34.915 | 8.805 | 32.844 | 2 |
| 2025-04-22T13:44:00 | 54.030335 | 6.326536 | 2.0 | 8.634 | 2 | 34.952 | 8.810 | 32.878 | 2 |
| 2025-04-22T13:45:00 | 54.030362 | 6.325751 | 2.0 | 8.596 | 2 | 34.903 | 8.832 | 32.807 | 2 |
| 2025-04-22T13:46:00 | 54.030388 | 6.325093 | 2.0 | 8.593 | 2 | 35.032 | 8.792 | 32.979 | 2 |
| 2025-04-22T13:47:00 | 54.030424 | 6.324554 | 2.0 | 8.642 | 2 | 35.028 | 8.828 | 32.941 | 2 |
| 2025-04-22T13:48:00 | 54.030471 | 6.324163 | 2.0 | 8.813 | 2 | 34.988 | 8.901 | 32.832 | 2 |
| 2025-04-22T13:49:00 | 54.030502 | 6.323832 | 2.0 | 8.824 | 2 | 35.175 | 8.971 | 32.961 | 2 |
| 2025-04-22T13:50:00 | 54.030496 | 6.323480 | 2.0 | 8.852 | 2 | 35.203 | 9.025 | 32.941 | 2 |
| 2025-04-22T13:51:00 | 54.030487 | 6.323231 | 2.0 | 9.065 | 2 | 35.221 | 9.081 | 32.907 | 2 |
| 2025-04-22T13:52:00 | 54.030487 | 6.322946 | 2.0 | 8.665 | 2 | 35.333 | 9.186 | 32.927 | 2 |
| 2025-04-22T13:53:00 | 54.030508 | 6.322828 | 2.0 | 9.068 | 2 | 35.120 | 8.956 | 32.918 | 2 |
| 2025-04-22T13:54:00 | 54.030552 | 6.322774 | 2.0 | 9.100 | 2 | 35.287 | 9.245 | 32.825 | 2 |
| 2025-04-22T13:55:00 | 54.030581 | 6.322855 | 2.0 | 9.123 | 2 | 35.411 | 9.315 | 32.888 | 2 |
| 2025-04-22T13:56:00 | 54.030538 | 6.322831 | 2.0 | 8.466 | 2 | 35.219 | 9.085 | 32.902 | 2 |
| 2025-04-22T13:57:00 | 54.030044 | 6.323125 | 2.0 | 8.474 | 2 | 34.894 | 8.739 | 32.884 | 2 |
| 2025-04-22T13:58:00 | 54.029426 | 6.323791 | 2.0 | 8.477 | 2 | 34.842 | 8.689 | 32.876 | 2 |
| 2025-04-22T13:59:00 | 54.028813 | 6.324518 | 2.0 | 8.505 | 2 | 34.866 | 8.701 | 32.890 | 2 |
| 2025-04-22T14:00:00 | 54.028234 | 6.325213 | 2.0 | 8.547 | 2 | 34.864 | 8.719 | 32.871 | 2 |
| 2025-04-22T14:01:00 | 54.027755 | 6.325603 | 2.0 | 8.776 | 2 | 34.874 | 8.760 | 32.843 | 2 |
| 2025-04-22T14:02:00 | 54.027487 | 6.325489 | 2.0 | 8.939 | 2 | 35.112 | 9.025 | 32.846 | 2 |
| 2025-04-22T14:03:00 | 54.027422 | 6.324969 | 2.0 | 8.704 | 2 | 35.166 | 9.077 | 32.854 | 2 |
| 2025-04-22T14:04:00 | 54.027398 | 6.324464 | 2.0 | 8.795 | 2 | 35.068 | 8.929 | 32.889 | 2 |
| 2025-04-22T14:05:00 | 54.027368 | 6.324060 | 2.0 | 8.953 | 2 | 35.130 | 9.029 | 32.861 | 2 |
| 2025-04-22T14:06:00 | 54.027356 | 6.323747 | 2.0 | 8.985 | 2 | 35.240 | 9.149 | 32.864 | 2 |
| 2025-04-22T14:07:00 | 54.027352 | 6.323530 | 2.0 | 9.139 | 2 | 35.292 | 9.222 | 32.851 | 2 |
| 2025-04-22T14:08:00 | 54.027402 | 6.323415 | 2.0 | 9.137 | 2 | 35.412 | 9.351 | 32.856 | 2 |
| 2025-04-22T14:09:00 | 54.027445 | 6.323315 | 2.0 | 9.127 | 2 | 35.416 | 9.343 | 32.868 | 2 |
| 2025-04-22T14:10:00 | 54.027438 | 6.323007 | 2.0 | 8.941 | 2 | 35.362 | 9.314 | 32.839 | 2 |
| 2025-04-22T14:11:00 | 54.027429 | 6.322854 | 2.0 | 9.135 | 2 | 35.251 | 9.135 | 32.889 | 2 |
| 2025-04-22T14:12:00 | 54.027443 | 6.322855 | 2.0 | 8.369 | 2 | 35.351 | 9.241 | 32.894 | 2 |
| 2025-04-22T14:13:00 | 54.027083 | 6.322924 | 2.0 | 9.182 | 2 | 35.086 | 8.917 | 32.919 | 2 |
| 2025-04-22T14:14:00 | 54.026091 | 6.323595 | 2.0 | 8.726 | 2 | 35.380 | 9.227 | 32.937 | 2 |
| 2025-04-22T14:15:00 | 54.024683 | 6.324545 | 2.0 | 8.879 | 2 | 35.171 | 8.976 | 32.953 | 2 |
| 2025-04-22T14:16:00 | 54.023306 | 6.325490 | 2.0 | 8.763 | 2 | 35.210 | 9.061 | 32.915 | 2 |
| 2025-04-22T14:17:00 | 54.022073 | 6.326380 | 2.0 | 9.002 | 2 | 35.200 | 9.044 | 32.920 | 2 |
| 2025-04-22T14:18:00 | 54.020975 | 6.327146 | 2.0 | 8.883 | 2 | 35.319 | 9.175 | 32.922 | 2 |
| 2025-04-22T14:19:00 | 54.019994 | 6.327603 | 2.0 | 9.017 | 2 | 35.293 | 9.130 | 32.937 | 2 |
| 2025-04-22T14:20:00 | 54.019138 | 6.327820 | 2.0 | 8.983 | 2 | 35.340 | 9.192 | 32.928 | 2 |
| 2025-04-22T14:21:00 | 54.018598 | 6.327706 | 2.0 | 8.877 | 2 | 35.344 | 9.208 | 32.918 | 2 |
| 2025-04-22T14:22:00 | 54.018451 | 6.327345 | 2.0 | 8.943 | 2 | 35.228 | 9.067 | 32.928 | 2 |
| 2025-04-22T14:23:00 | 54.018418 | 6.326940 | 2.0 | 8.986 | 2 | 35.255 | 9.138 | 32.890 | 2 |
| 2025-04-22T14:24:00 | 54.018399 | 6.326551 | 2.0 | 9.062 | 2 | 35.329 | 9.223 | 32.888 | 2 |
| 2025-04-22T14:25:00 | 54.018389 | 6.326167 | 2.0 | 9.048 | 2 | 35.360 | 9.254 | 32.892 | 2 |
| 2025-04-22T14:26:00 | 54.018383 | 6.325780 | 2.0 | 9.008 | 2 | 35.361 | 9.233 | 32.912 | 2 |
| 2025-04-22T14:27:00 | 54.018390 | 6.325430 | 2.0 | 9.127 | 2 | 35.372 | 9.241 | 32.916 | 2 |
| 2025-04-22T14:28:00 | 54.018404 | 6.325116 | 2.0 | 9.270 | 2 | 35.463 | 9.354 | 32.906 | 2 |
| 2025-04-22T14:29:00 | 54.018405 | 6.324991 | 2.0 | 9.302 | 2 | 35.563 | 9.470 | 32.902 | 2 |
| 2025-04-22T14:30:00 | 54.018401 | 6.324937 | 2.0 | 9.319 | 2 | 35.604 | 9.508 | 32.910 | 2 |
| 2025-04-22T14:31:00 | 54.018386 | 6.324860 | 2.0 | 9.184 | 2 | 35.609 | 9.509 | 32.914 | 2 |
| 2025-04-22T14:32:00 | 54.018389 | 6.324620 | 2.0 | 8.931 | 2 | 35.465 | 9.315 | 32.944 | 2 |
| 2025-04-22T14:33:00 | 54.018412 | 6.324343 | 2.0 | 8.816 | 2 | 35.292 | 9.124 | 32.941 | 2 |
| 2025-04-22T14:34:00 | 54.018436 | 6.324325 | 2.0 | 8.821 | 2 | 35.214 | 9.038 | 32.940 | 2 |
| 2025-04-22T14:35:00 | 54.018105 | 6.324336 | 2.0 | 8.903 | 2 | 35.231 | 9.075 | 32.923 | 2 |
| 2025-04-22T14:36:00 | 54.017137 | 6.324805 | 2.0 | 9.003 | 2 | 35.258 | 9.115 | 32.914 | 2 |
| 2025-04-22T14:37:00 | 54.015705 | 6.325453 | 2.0 | 9.034 | 2 | 35.345 | 9.225 | 32.903 | 2 |
| 2025-04-22T14:38:00 | 54.014218 | 6.325985 | 2.0 | 9.005 | 2 | 35.381 | 9.268 | 32.901 | 2 |
| 2025-04-22T14:39:00 | 54.012711 | 6.326469 | 2.0 | 8.955 | 2 | 35.337 | 9.200 | 32.918 | 2 |
| 2025-04-22T14:40:00 | 54.011195 | 6.326930 | 2.0 | 8.966 | 2 | 35.305 | 9.179 | 32.904 | 2 |
| 2025-04-22T14:41:00 | 54.009667 | 6.327253 | 2.0 | 9.009 | 2 | 35.310 | 9.186 | 32.903 | 2 |
| 2025-04-22T14:42:00 | 54.008157 | 6.327356 | 2.0 | 9.170 | 2 | 35.343 | 9.239 | 32.888 | 2 |
| 2025-04-22T14:43:00 | 54.006821 | 6.327337 | 2.0 | 9.089 | 2 | 35.457 | 9.363 | 32.892 | 2 |
| 2025-04-22T14:44:00 | 54.005671 | 6.327347 | 2.0 | 9.199 | 2 | 35.422 | 9.325 | 32.890 | 2 |
| 2025-04-22T14:45:00 | 54.004816 | 6.327146 | 2.0 | 9.258 | 2 | 35.487 | 9.420 | 32.870 | 2 |
| 2025-04-22T14:46:00 | 54.004569 | 6.326601 | 2.0 | 9.243 | 2 | 35.519 | 9.459 | 32.867 | 2 |
| 2025-04-22T14:47:00 | 54.004499 | 6.325861 | 2.0 | 9.378 | 2 | 35.516 | 9.464 | 32.859 | 2 |
| 2025-04-22T14:48:00 | 54.004459 | 6.325072 | 2.0 | 9.324 | 2 | 35.592 | 9.565 | 32.845 | 2 |
| 2025-04-22T14:49:00 | 54.004427 | 6.324392 | 2.0 | 9.182 | 2 | 35.561 | 9.521 | 32.853 | 2 |
| 2025-04-22T14:50:00 | 54.004392 | 6.323823 | 2.0 | 9.250 | 2 | 35.482 | 9.437 | 32.849 | 2 |
| 2025-04-22T14:51:00 | 54.004377 | 6.323371 | 2.0 | 9.074 | 2 | 35.474 | 9.422 | 32.855 | 2 |
| 2025-04-22T14:52:00 | 54.004358 | 6.323057 | 2.0 | 9.176 | 2 | 35.354 | 9.267 | 32.874 | 2 |
| 2025-04-22T14:53:00 | 54.004362 | 6.322834 | 2.0 | 9.288 | 2 | 35.432 | 9.420 | 32.813 | 2 |
| 2025-04-22T14:54:00 | 54.004377 | 6.322783 | 2.0 | 9.344 | 2 | 35.527 | 9.517 | 32.822 | 2 |
| 2025-04-22T14:55:00 | 54.004396 | 6.322747 | 2.0 | 9.260 | 2 | 35.536 | 9.511 | 32.837 | 2 |
| 2025-04-22T14:56:00 | 54.004422 | 6.322923 | 2.0 | 9.181 | 2 | 35.492 | 9.457 | 32.841 | 2 |
| 2025-04-22T14:57:00 | 54.004291 | 6.322972 | 2.0 | 9.091 | 2 | 35.407 | 9.338 | 32.863 | 2 |
| 2025-04-22T14:58:00 | 54.003683 | 6.323428 | 2.0 | 9.098 | 2 | 35.354 | 9.298 | 32.845 | 2 |
| 2025-04-22T14:59:00 | 54.003008 | 6.324310 | 2.0 | 9.103 | 2 | 35.363 | 9.323 | 32.831 | 2 |
| 2025-04-22T15:00:00 | 54.002315 | 6.325210 | 2.0 | 9.162 | 2 | 35.369 | 9.326 | 32.835 | 2 |
| 2025-04-22T15:01:00 | 54.001652 | 6.325793 | 2.0 | 9.135 | 2 | 35.410 | 9.379 | 32.828 | 2 |
| 2025-04-22T15:02:00 | 54.001332 | 6.325840 | 2.0 | 9.256 | 2 | 35.393 | 9.350 | 32.837 | 2 |
| 2025-04-22T15:03:00 | 54.001292 | 6.325357 | 2.0 | 9.225 | 2 | 35.451 | 9.433 | 32.821 | 2 |
| 2025-04-22T15:04:00 | 54.001311 | 6.324796 | 2.0 | 9.256 | 2 | 35.474 | 9.466 | 32.814 | 2 |
| 2025-04-22T15:05:00 | 54.001332 | 6.324333 | 2.0 | 9.175 | 2 | 35.460 | 9.441 | 32.823 | 2 |
| 2025-04-22T15:06:00 | 54.001347 | 6.323994 | 2.0 | 9.334 | 2 | 35.417 | 9.396 | 32.820 | 2 |
| 2025-04-22T15:07:00 | 54.001384 | 6.323804 | 2.0 | 9.178 | 2 | 35.495 | 9.500 | 32.805 | 2 |
| 2025-04-22T15:08:00 | 54.001407 | 6.323556 | 2.0 | 9.160 | 2 | 35.373 | 9.335 | 32.831 | 2 |
| 2025-04-22T15:09:00 | 54.001413 | 6.323450 | 2.0 | 9.326 | 2 | 35.388 | 9.421 | 32.767 | 2 |
| 2025-04-22T15:10:00 | 54.001401 | 6.323220 | 2.0 | 9.293 | 2 | 35.393 | 9.484 | 32.715 | 2 |
| 2025-04-22T15:11:00 | 54.001373 | 6.323079 | 2.0 | 9.349 | 2 | 35.519 | 9.550 | 32.784 | 2 |
| 2025-04-22T15:12:00 | 54.001335 | 6.322986 | 2.0 | 9.458 | 2 | 35.541 | 9.562 | 32.795 | 2 |
| 2025-04-22T15:13:00 | 54.001315 | 6.322945 | 2.0 | 9.443 | 2 | 35.611 | 9.656 | 32.781 | 2 |
| 2025-04-22T15:14:00 | 54.001325 | 6.322932 | 2.0 | 9.436 | 2 | 35.611 | 9.650 | 32.787 | 2 |
| 2025-04-22T15:15:00 | 54.001370 | 6.322961 | 2.0 | 9.367 | 2 | 35.380 | 9.665 | 32.537 | 2 |
| 2025-04-22T15:16:00 | 54.001458 | 6.322854 | 2.0 | 9.092 | 2 | 35.303 | 9.497 | 32.611 | 2 |
| 2025-04-22T15:17:00 | 54.001267 | 6.322511 | 2.0 | 9.394 | 2 | 35.215 | 9.353 | 32.651 | 2 |
| 2025-04-22T15:18:00 | 54.000557 | 6.322032 | 2.0 | 9.150 | 2 | 35.497 | 9.531 | 32.779 | 2 |
| 2025-04-22T15:19:00 | 53.999542 | 6.321220 | 2.0 | 9.052 | 2 | 35.370 | 9.362 | 32.803 | 2 |
| 2025-04-22T15:20:00 | 53.998327 | 6.320195 | 2.0 | 8.898 | 2 | 35.272 | 9.247 | 32.807 | 2 |
| 2025-04-22T15:21:00 | 53.996919 | 6.319403 | 2.0 | 8.879 | 2 | 34.952 | 9.107 | 32.605 | 2 |
| 2025-04-22T15:22:00 | 53.995485 | 6.318374 | 2.0 | 8.888 | 2 | 35.084 | 9.108 | 32.740 | 2 |
| 2025-04-22T15:23:00 | 53.993976 | 6.317381 | 2.0 | 8.845 | 2 | 35.066 | 9.084 | 32.744 | 2 |
| 2025-04-22T15:24:00 | 53.992430 | 6.316380 | 2.0 | 8.842 | 2 | 35.057 | 9.064 | 32.753 | 2 |
| 2025-04-22T15:25:00 | 53.990876 | 6.315346 | 2.0 | 8.958 | 2 | 35.006 | 9.076 | 32.689 | 2 |
| 2025-04-22T15:26:00 | 53.989312 | 6.314332 | 2.0 | 9.352 | 2 | 34.946 | 9.288 | 32.433 | 2 |
| 2025-04-22T15:27:00 | 53.987714 | 6.313678 | 2.0 | 9.061 | 2 | 35.292 | 9.505 | 32.592 | 2 |
| 2025-04-22T15:28:00 | 53.986037 | 6.313645 | 2.0 | 8.994 | 2 | 35.200 | 9.259 | 32.722 | 2 |
| 2025-04-22T15:29:00 | 53.984333 | 6.313582 | 2.0 | 9.064 | 2 | 35.074 | 9.221 | 32.626 | 2 |
| 2025-04-22T15:30:00 | 53.982607 | 6.313585 | 2.0 | 9.160 | 2 | 35.200 | 9.293 | 32.691 | 2 |
| 2025-04-22T15:31:00 | 53.980858 | 6.313608 | 2.0 | 9.095 | 2 | 35.374 | 9.376 | 32.794 | 2 |
| 2025-04-22T15:32:00 | 53.979187 | 6.313589 | 2.0 | 8.722 | 2 | 35.202 | 9.248 | 32.734 | 2 |
| 2025-04-22T15:33:00 | 53.977785 | 6.313559 | 2.0 | 8.668 | 2 | 34.925 | 8.962 | 32.710 | 2 |
| 2025-04-22T15:34:00 | 53.976709 | 6.313392 | 2.0 | 8.662 | 2 | 34.943 | 8.900 | 32.786 | 2 |
| 2025-04-22T15:35:00 | 53.976421 | 6.312716 | 2.0 | 8.689 | 2 | 34.799 | 8.865 | 32.668 | 2 |
| 2025-04-22T15:36:00 | 53.976287 | 6.311749 | 2.0 | 8.748 | 2 | 34.933 | 8.912 | 32.764 | 2 |
| 2025-04-22T15:37:00 | 53.976064 | 6.310337 | 2.0 | 8.696 | 2 | 34.776 | 8.933 | 32.581 | 2 |
| 2025-04-22T15:38:00 | 53.975774 | 6.308520 | 2.0 | 8.714 | 2 | 34.836 | 8.889 | 32.684 | 2 |
| 2025-04-22T15:39:00 | 53.975539 | 6.306570 | 2.0 | 8.683 | 2 | 34.850 | 8.916 | 32.674 | 2 |
| 2025-04-22T15:40:00 | 53.975598 | 6.304551 | 2.0 | 8.645 | 2 | 34.870 | 8.858 | 32.748 | 2 |
| 2025-04-22T15:41:00 | 53.975898 | 6.302618 | 2.0 | 8.703 | 2 | 34.803 | 8.850 | 32.686 | 2 |
| 2025-04-22T15:42:00 | 53.976773 | 6.301689 | 2.0 | 8.653 | 2 | 34.820 | 8.883 | 32.673 | 2 |
| 2025-04-22T15:43:00 | 53.977772 | 6.302391 | 2.0 | 8.634 | 2 | 34.653 | 8.830 | 32.548 | 2 |
| 2025-04-22T15:44:00 | 53.978810 | 6.303443 | 2.0 | 8.653 | 2 | 34.686 | 8.841 | 32.572 | 2 |
| 2025-04-22T15:45:00 | 53.979940 | 6.304031 | 2.0 | 8.702 | 2 | 34.709 | 8.855 | 32.583 | 2 |
| 2025-04-22T15:46:00 | 53.981134 | 6.304387 | 2.0 | 8.723 | 2 | 34.945 | 8.882 | 32.804 | 2 |
| 2025-04-22T15:47:00 | 53.982342 | 6.304554 | 2.0 | 8.730 | 2 | 34.975 | 8.908 | 32.812 | 2 |
| 2025-04-22T15:48:00 | 53.983556 | 6.304509 | 2.0 | 8.664 | 2 | 34.960 | 8.874 | 32.827 | 2 |
| 2025-04-22T15:49:00 | 53.984797 | 6.304498 | 2.0 | 8.775 | 2 | 34.957 | 8.886 | 32.813 | 2 |
| 2025-04-22T15:50:00 | 53.986040 | 6.304524 | 2.0 | 8.738 | 2 | 35.033 | 8.947 | 32.836 | 2 |
| 2025-04-22T15:51:00 | 53.987298 | 6.304563 | 2.0 | 8.741 | 2 | 35.025 | 8.934 | 32.840 | 2 |
| 2025-04-22T15:52:00 | 53.988555 | 6.304587 | 2.0 | 8.765 | 2 | 35.017 | 8.910 | 32.853 | 2 |
| 2025-04-22T15:53:00 | 53.989795 | 6.304601 | 2.0 | 9.150 | 2 | 35.088 | 9.024 | 32.822 | 2 |
| 2025-04-22T15:54:00 | 53.991038 | 6.304594 | 2.0 | 9.262 | 2 | 35.365 | 9.326 | 32.831 | 2 |
| 2025-04-22T15:55:00 | 53.992281 | 6.304589 | 2.0 | 9.330 | 2 | 35.482 | 9.444 | 32.843 | 2 |
| 2025-04-22T15:56:00 | 53.993521 | 6.304560 | 2.0 | 9.326 | 2 | 35.554 | 9.514 | 32.853 | 2 |
| 2025-04-22T15:57:00 | 53.994771 | 6.304526 | 2.0 | 9.189 | 2 | 35.539 | 9.496 | 32.854 | 2 |
| 2025-04-22T15:58:00 | 53.996026 | 6.304501 | 2.0 | 9.099 | 2 | 35.399 | 9.354 | 32.840 | 2 |
| 2025-04-22T15:59:00 | 53.997288 | 6.304524 | 2.0 | 9.186 | 2 | 35.327 | 9.312 | 32.804 | 2 |
| 2025-04-22T16:00:00 | 53.998549 | 6.304598 | 2.0 | 9.184 | 2 | 35.377 | 9.367 | 32.805 | 2 |
| 2025-04-22T16:01:00 | 53.999792 | 6.304694 | 2.0 | 9.224 | 2 | 35.394 | 9.387 | 32.805 | 2 |
| 2025-04-22T16:02:00 | 54.001008 | 6.304741 | 2.0 | 9.333 | 2 | 35.444 | 9.429 | 32.818 | 2 |
| 2025-04-22T16:03:00 | 54.002212 | 6.304696 | 2.0 | 9.278 | 2 | 35.503 | 9.497 | 32.816 | 2 |
| 2025-04-22T16:04:00 | 54.003409 | 6.304606 | 2.0 | 9.274 | 2 | 35.463 | 9.464 | 32.805 | 2 |
| 2025-04-22T16:05:00 | 54.004639 | 6.304568 | 2.0 | 9.042 | 2 | 35.398 | 9.386 | 32.810 | 2 |
| 2025-04-22T16:06:00 | 54.005889 | 6.304604 | 2.0 | 8.953 | 2 | 35.245 | 9.239 | 32.787 | 2 |
| 2025-04-22T16:07:00 | 54.007143 | 6.304658 | 2.0 | 9.336 | 2 | 35.197 | 9.226 | 32.749 | 2 |
| 2025-04-22T16:08:00 | 54.008396 | 6.304685 | 2.0 | 9.312 | 2 | 35.427 | 9.451 | 32.780 | 2 |
| 2025-04-22T16:09:00 | 54.009655 | 6.304672 | 2.0 | 9.024 | 2 | 35.450 | 9.488 | 32.770 | 2 |
| 2025-04-22T16:10:00 | 54.010914 | 6.304652 | 2.0 | 9.190 | 2 | 35.244 | 9.251 | 32.775 | 2 |
| 2025-04-22T16:11:00 | 54.012168 | 6.304645 | 2.0 | 9.096 | 2 | 35.324 | 9.351 | 32.765 | 2 |
| 2025-04-22T16:12:00 | 54.013415 | 6.304628 | 2.0 | 9.063 | 2 | 35.256 | 9.254 | 32.784 | 2 |
| 2025-04-22T16:13:00 | 54.014653 | 6.304632 | 2.0 | 8.978 | 2 | 35.265 | 9.272 | 32.777 | 2 |
| 2025-04-22T16:14:00 | 54.015894 | 6.304654 | 2.0 | 9.103 | 2 | 35.258 | 9.265 | 32.776 | 2 |
| 2025-04-22T16:15:00 | 54.017129 | 6.304670 | 2.0 | 8.724 | 2 | 35.212 | 9.161 | 32.824 | 2 |
| 2025-04-22T16:16:00 | 54.018352 | 6.304648 | 2.0 | 8.947 | 2 | 35.012 | 8.957 | 32.805 | 2 |
| 2025-04-22T16:17:00 | 54.019582 | 6.304646 | 2.0 | 8.803 | 2 | 35.174 | 9.135 | 32.809 | 2 |
| 2025-04-22T16:18:00 | 54.020811 | 6.304644 | 2.0 | 8.734 | 2 | 35.067 | 8.984 | 32.837 | 2 |
| 2025-04-22T16:19:00 | 54.022038 | 6.304610 | 2.0 | 8.634 | 2 | 34.994 | 8.892 | 32.846 | 2 |
| 2025-04-22T16:20:00 | 54.023257 | 6.304560 | 2.0 | 8.540 | 2 | 34.936 | 8.807 | 32.864 | 2 |
| 2025-04-22T16:21:00 | 54.024481 | 6.304573 | 2.0 | 8.504 | 2 | 34.865 | 8.724 | 32.867 | 2 |
| 2025-04-22T16:22:00 | 54.025697 | 6.304640 | 2.0 | 8.741 | 2 | 34.850 | 8.712 | 32.863 | 2 |
| 2025-04-22T16:23:00 | 54.026907 | 6.304682 | 2.0 | 8.716 | 2 | 35.037 | 8.936 | 32.850 | 2 |
| 2025-04-22T16:24:00 | 54.028121 | 6.304677 | 2.0 | 8.672 | 2 | 35.067 | 8.927 | 32.890 | 2 |
| 2025-04-22T16:25:00 | 54.029329 | 6.304653 | 2.0 | 8.935 | 2 | 34.977 | 8.914 | 32.808 | 2 |
| 2025-04-22T16:26:00 | 54.030519 | 6.304607 | 2.0 | 8.638 | 2 | 35.158 | 9.026 | 32.893 | 2 |
| 2025-04-22T16:27:00 | 54.031720 | 6.304578 | 2.0 | 8.806 | 2 | 35.006 | 8.857 | 32.891 | 2 |
| 2025-04-22T16:28:00 | 54.032935 | 6.304572 | 2.0 | 8.925 | 2 | 35.139 | 9.018 | 32.881 | 2 |
| 2025-04-22T16:29:00 | 54.034144 | 6.304574 | 2.0 | 8.671 | 2 | 35.176 | 9.027 | 32.911 | 2 |
| 2025-04-22T16:30:00 | 54.035347 | 6.304567 | 2.0 | 8.621 | 2 | 34.925 | 8.865 | 32.799 | 2 |
| 2025-04-22T16:31:00 | 54.036572 | 6.304581 | 2.0 | 8.699 | 2 | 34.891 | 8.799 | 32.825 | 2 |
| 2025-04-22T16:32:00 | 54.037799 | 6.304583 | 2.0 | 8.663 | 2 | 35.017 | 8.910 | 32.853 | 2 |
| 2025-04-22T16:33:00 | 54.039015 | 6.304603 | 2.0 | 8.614 | 2 | 34.895 | 8.825 | 32.805 | 2 |
| 2025-04-22T16:34:00 | 54.040229 | 6.304602 | 2.0 | 8.847 | 2 | 34.906 | 8.879 | 32.766 | 2 |
| 2025-04-22T16:35:00 | 54.041442 | 6.304559 | 2.0 | 8.989 | 2 | 35.167 | 9.028 | 32.900 | 2 |
| 2025-04-22T16:36:00 | 54.042648 | 6.304540 | 2.0 | 8.731 | 2 | 35.263 | 9.127 | 32.909 | 2 |
| 2025-04-22T16:37:00 | 54.043852 | 6.304623 | 2.0 | 8.648 | 2 | 35.002 | 8.879 | 32.866 | 2 |
| 2025-04-22T16:38:00 | 54.045017 | 6.305291 | 2.0 | 8.698 | 2 | 34.899 | 8.873 | 32.765 | 2 |
| 2025-04-22T16:39:00 | 54.046140 | 6.306140 | 2.0 | 8.697 | 2 | 34.894 | 8.866 | 32.766 | 2 |
| 2025-04-22T16:40:00 | 54.047278 | 6.306818 | 2.0 | 8.755 | 2 | 35.085 | 8.878 | 32.954 | 2 |
| 2025-04-22T16:41:00 | 54.048457 | 6.307284 | 2.0 | 8.632 | 2 | 35.014 | 8.915 | 32.846 | 2 |
| 2025-04-22T16:42:00 | 54.049723 | 6.307691 | 2.0 | 8.596 | 2 | 35.039 | 8.839 | 32.942 | 2 |
| 2025-04-22T16:43:00 | 54.050930 | 6.308682 | 2.0 | 8.555 | 2 | 34.789 | 8.755 | 32.759 | 2 |
| 2025-04-22T16:44:00 | 54.051617 | 6.310615 | 2.0 | 8.562 | 2 | 34.914 | 8.761 | 32.884 | 2 |
| 2025-04-22T16:45:00 | 54.051496 | 6.312787 | 2.0 | 8.671 | 2 | 34.886 | 8.743 | 32.871 | 2 |
| 2025-04-22T16:46:00 | 54.050707 | 6.314357 | 2.0 | 8.723 | 2 | 34.913 | 8.855 | 32.796 | 2 |
| 2025-04-22T16:47:00 | 54.049602 | 6.315014 | 2.0 | 8.900 | 2 | 35.101 | 8.910 | 32.941 | 2 |
| 2025-04-22T16:48:00 | 54.048370 | 6.315312 | 2.0 | 9.063 | 2 | 35.120 | 9.093 | 32.792 | 2 |
| 2025-04-22T16:49:00 | 54.047055 | 6.315288 | 2.0 | 9.025 | 2 | 35.310 | 9.216 | 32.875 | 2 |
| 2025-04-22T16:50:00 | 54.045691 | 6.315237 | 2.0 | 9.061 | 2 | 35.171 | 9.216 | 32.731 | 2 |
| 2025-04-22T16:51:00 | 54.044285 | 6.315297 | 2.0 | 8.966 | 2 | 35.357 | 9.207 | 32.932 | 2 |
| 2025-04-22T16:52:00 | 54.042868 | 6.315307 | 2.0 | 9.014 | 2 | 35.261 | 9.151 | 32.884 | 2 |
| 2025-04-22T16:53:00 | 54.041458 | 6.315312 | 2.0 | 9.092 | 2 | 35.335 | 9.221 | 32.896 | 2 |
| 2025-04-22T16:54:00 | 54.040058 | 6.315340 | 2.0 | 9.117 | 2 | 35.349 | 9.264 | 32.871 | 2 |
| 2025-04-22T16:55:00 | 54.038668 | 6.315333 | 2.0 | 8.986 | 2 | 35.288 | 9.270 | 32.803 | 2 |
| 2025-04-22T16:56:00 | 54.037280 | 6.315272 | 2.0 | 8.783 | 2 | 35.201 | 9.128 | 32.843 | 2 |
| 2025-04-22T16:57:00 | 54.035901 | 6.315215 | 2.0 | 8.639 | 2 | 34.950 | 8.925 | 32.770 | 2 |
| 2025-04-22T16:58:00 | 54.034526 | 6.315230 | 2.0 | 8.714 | 2 | 34.988 | 8.829 | 32.898 | 2 |
| 2025-04-22T16:59:00 | 54.033150 | 6.315278 | 2.0 | 8.888 | 2 | 35.020 | 8.933 | 32.835 | 2 |
| 2025-04-22T17:00:00 | 54.031783 | 6.315310 | 2.0 | 8.852 | 2 | 35.077 | 9.034 | 32.801 | 2 |
| 2025-04-22T17:01:00 | 54.030417 | 6.315296 | 2.0 | 8.952 | 2 | 35.108 | 9.072 | 32.798 | 2 |
| 2025-04-22T17:02:00 | 54.029056 | 6.315279 | 2.0 | 9.016 | 2 | 35.146 | 9.113 | 32.800 | 2 |
| 2025-04-22T17:03:00 | 54.027693 | 6.315247 | 2.0 | 8.647 | 2 | 35.137 | 9.118 | 32.786 | 2 |
| 2025-04-22T17:04:00 | 54.026334 | 6.315190 | 2.0 | 8.841 | 2 | 34.941 | 8.882 | 32.800 | 2 |
| 2025-04-22T17:05:00 | 54.024977 | 6.315172 | 2.0 | 8.788 | 2 | 35.044 | 9.027 | 32.773 | 2 |
| 2025-04-22T17:06:00 | 54.023628 | 6.315198 | 2.0 | 8.806 | 2 | 34.981 | 8.962 | 32.768 | 2 |
| 2025-04-22T17:07:00 | 54.022278 | 6.315241 | 2.0 | 9.087 | 2 | 35.040 | 9.038 | 32.759 | 2 |
| 2025-04-22T17:08:00 | 54.020927 | 6.315298 | 2.0 | 9.138 | 2 | 35.168 | 9.207 | 32.736 | 2 |
| 2025-04-22T17:09:00 | 54.019574 | 6.315351 | 2.0 | 9.328 | 2 | 35.304 | 9.360 | 32.737 | 2 |
| 2025-04-22T17:10:00 | 54.018217 | 6.315374 | 2.0 | 9.308 | 2 | 35.372 | 9.459 | 32.716 | 2 |
| 2025-04-22T17:11:00 | 54.016859 | 6.315382 | 2.0 | 8.987 | 2 | 35.311 | 9.345 | 32.758 | 2 |
| 2025-04-22T17:12:00 | 54.015505 | 6.315347 | 2.0 | 9.111 | 2 | 35.175 | 9.243 | 32.711 | 2 |
| 2025-04-22T17:13:00 | 54.014157 | 6.315293 | 2.0 | 8.932 | 2 | 35.217 | 9.272 | 32.727 | 2 |
| 2025-04-22T17:14:00 | 54.012808 | 6.315264 | 2.0 | 9.001 | 2 | 35.073 | 9.104 | 32.733 | 2 |
| 2025-04-22T17:15:00 | 54.011456 | 6.315256 | 2.0 | 9.090 | 2 | 35.145 | 9.193 | 32.726 | 2 |
| 2025-04-22T17:16:00 | 54.010103 | 6.315270 | 2.0 | 9.032 | 2 | 35.264 | 9.293 | 32.757 | 2 |
| 2025-04-22T17:17:00 | 54.008748 | 6.315271 | 2.0 | 9.067 | 2 | 35.191 | 9.159 | 32.804 | 2 |
| 2025-04-22T17:18:00 | 54.007395 | 6.315278 | 2.0 | 9.288 | 2 | 35.305 | 9.319 | 32.775 | 2 |
| 2025-04-22T17:19:00 | 54.006041 | 6.315282 | 2.0 | 9.208 | 2 | 35.454 | 9.449 | 32.809 | 2 |
| 2025-04-22T17:20:00 | 54.004690 | 6.315278 | 2.0 | 9.324 | 2 | 35.444 | 9.427 | 32.819 | 2 |
| 2025-04-22T17:21:00 | 54.003341 | 6.315287 | 2.0 | 9.386 | 2 | 35.534 | 9.497 | 32.848 | 2 |
| 2025-04-22T17:22:00 | 54.001984 | 6.315303 | 2.0 | 9.319 | 2 | 35.595 | 9.547 | 32.865 | 2 |
| 2025-04-22T17:23:00 | 54.000621 | 6.315301 | 2.0 | 9.226 | 2 | 35.540 | 9.477 | 32.872 | 2 |
| 2025-04-22T17:24:00 | 53.999257 | 6.315266 | 2.0 | 9.153 | 2 | 35.457 | 9.387 | 32.869 | 2 |
| 2025-04-22T17:25:00 | 53.997891 | 6.315238 | 2.0 | 9.084 | 2 | 35.392 | 9.324 | 32.860 | 2 |
| 2025-04-22T17:26:00 | 53.996522 | 6.315249 | 2.0 | 9.064 | 2 | 35.302 | 9.217 | 32.866 | 2 |
| 2025-04-22T17:27:00 | 53.995156 | 6.315265 | 2.0 | 8.921 | 2 | 35.330 | 9.274 | 32.842 | 2 |
| 2025-04-22T17:28:00 | 53.993792 | 6.315252 | 2.0 | 8.609 | 2 | 35.132 | 9.019 | 32.872 | 2 |
| 2025-04-22T17:29:00 | 53.992431 | 6.315204 | 2.0 | 8.499 | 2 | 34.895 | 8.780 | 32.847 | 2 |
| 2025-04-22T17:30:00 | 53.991073 | 6.315174 | 2.0 | 8.540 | 2 | 34.812 | 8.708 | 32.826 | 2 |
| 2025-04-22T17:31:00 | 53.989717 | 6.315171 | 2.0 | 8.591 | 2 | 34.804 | 8.717 | 32.810 | 2 |
| 2025-04-22T17:32:00 | 53.988364 | 6.315179 | 2.0 | 8.594 | 2 | 34.854 | 8.771 | 32.812 | 2 |
| 2025-04-22T17:33:00 | 53.987011 | 6.315220 | 2.0 | 8.600 | 2 | 34.862 | 8.774 | 32.818 | 2 |
| 2025-04-22T17:34:00 | 53.985658 | 6.315270 | 2.0 | 8.536 | 2 | 34.864 | 8.771 | 32.822 | 2 |
| 2025-04-22T17:35:00 | 53.984308 | 6.315291 | 2.0 | 8.439 | 2 | 34.797 | 8.700 | 32.818 | 2 |
| 2025-04-22T17:36:00 | 53.982959 | 6.315303 | 2.0 | 8.461 | 2 | 34.716 | 8.630 | 32.798 | 2 |
| 2025-04-22T17:37:00 | 53.981612 | 6.315340 | 2.0 | 8.503 | 2 | 34.720 | 8.645 | 32.788 | 2 |
| 2025-04-22T17:38:00 | 53.980370 | 6.314689 | 2.0 | 8.475 | 2 | 34.746 | 8.681 | 32.782 | 2 |
| 2025-04-22T17:39:00 | 53.979877 | 6.312584 | 2.0 | 8.462 | 2 | 34.726 | 8.647 | 32.793 | 2 |
| 2025-04-22T17:40:00 | 53.980600 | 6.310388 | 2.0 | 8.474 | 2 | 34.726 | 8.644 | 32.796 | 2 |
| 2025-04-22T17:41:00 | 53.982110 | 6.309359 | 2.0 | 8.501 | 2 | 34.745 | 8.659 | 32.802 | 2 |
| 2025-04-22T17:42:00 | 53.983063 | 6.307233 | 2.0 | 8.546 | 2 | 34.762 | 8.679 | 32.801 | 2 |
| 2025-04-22T17:43:00 | 53.983230 | 6.304428 | 2.0 | 8.615 | 2 | 34.816 | 8.747 | 32.794 | 2 |
| 2025-04-22T17:44:00 | 53.982596 | 6.301711 | 2.0 | 8.582 | 2 | 34.870 | 8.781 | 32.819 | 2 |
| 2025-04-22T17:45:00 | 53.981299 | 6.299791 | 2.0 | 8.758 | 2 | 34.863 | 8.778 | 32.815 | 2 |
| 2025-04-22T17:46:00 | 53.979702 | 6.299788 | 2.0 | 8.723 | 2 | 34.996 | 8.931 | 32.812 | 2 |
| 2025-04-22T17:47:00 | 53.978619 | 6.301696 | 2.0 | 8.615 | 2 | 34.969 | 8.895 | 32.817 | 2 |
| 2025-04-22T17:48:00 | 53.978527 | 6.304431 | 2.0 | 8.549 | 2 | 34.867 | 8.772 | 32.825 | 2 |
| 2025-04-22T17:49:00 | 53.979553 | 6.306610 | 2.0 | 8.523 | 2 | 34.808 | 8.721 | 32.810 | 2 |
| 2025-04-22T17:50:00 | 53.981051 | 6.307009 | 2.0 | 8.682 | 2 | 34.826 | 8.752 | 32.800 | 2 |
| 2025-04-22T17:51:00 | 53.982586 | 6.307109 | 2.0 | 8.562 | 2 | 34.891 | 8.818 | 32.807 | 2 |
| 2025-04-22T17:52:00 | 53.984156 | 6.307335 | 2.0 | 8.468 | 2 | 34.813 | 8.726 | 32.811 | 2 |
| 2025-04-22T17:53:00 | 53.985758 | 6.307324 | 2.0 | 8.384 | 2 | 34.747 | 8.661 | 32.802 | 2 |
| 2025-04-22T17:54:00 | 53.987331 | 6.307248 | 2.0 | 8.407 | 2 | 34.663 | 8.575 | 32.794 | 2 |
| 2025-04-22T17:55:00 | 53.988808 | 6.307240 | 2.0 | 8.410 | 2 | 34.683 | 8.590 | 32.801 | 2 |
| 2025-04-22T17:56:00 | 53.990211 | 6.307276 | 2.0 | 8.443 | 2 | 34.692 | 8.591 | 32.809 | 2 |
| 2025-04-22T17:57:00 | 53.991566 | 6.307300 | 2.0 | 8.441 | 2 | 34.716 | 8.620 | 32.807 | 2 |
| 2025-04-22T17:58:00 | 53.992923 | 6.307290 | 2.0 | 8.400 | 2 | 34.712 | 8.605 | 32.817 | 2 |
| 2025-04-22T17:59:00 | 53.994291 | 6.307255 | 2.0 | 8.384 | 2 | 34.691 | 8.572 | 32.826 | 2 |
| 2025-04-22T18:00:00 | 53.995669 | 6.307232 | 2.0 | 8.384 | 2 | 34.679 | 8.556 | 32.828 | 2 |
| 2025-04-22T18:01:00 | 53.997048 | 6.307240 | 2.0 | 8.439 | 2 | 34.689 | 8.571 | 32.825 | 2 |
| 2025-04-22T18:02:00 | 53.998435 | 6.307280 | 2.0 | 8.514 | 2 | 34.756 | 8.644 | 32.827 | 2 |
| 2025-04-22T18:03:00 | 53.999832 | 6.307289 | 2.0 | 8.507 | 2 | 34.784 | 8.668 | 32.834 | 2 |
| 2025-04-22T18:04:00 | 54.001230 | 6.307259 | 2.0 | 8.764 | 2 | 34.849 | 8.764 | 32.813 | 2 |
| 2025-04-22T18:05:00 | 54.002625 | 6.307244 | 2.0 | 8.568 | 2 | 34.986 | 8.876 | 32.853 | 2 |
| 2025-04-22T18:06:00 | 54.004013 | 6.307232 | 2.0 | 8.637 | 2 | 34.934 | 8.832 | 32.839 | 2 |
| 2025-04-22T18:07:00 | 54.005403 | 6.307247 | 2.0 | 8.764 | 2 | 34.941 | 8.816 | 32.861 | 2 |
| 2025-04-22T18:08:00 | 54.006788 | 6.307259 | 2.0 | 8.979 | 2 | 35.085 | 8.991 | 32.849 | 2 |
| 2025-04-22T18:09:00 | 54.008171 | 6.307281 | 2.0 | 9.084 | 2 | 35.240 | 9.158 | 32.856 | 2 |
| 2025-04-22T18:10:00 | 54.009553 | 6.307302 | 2.0 | 9.154 | 2 | 35.330 | 9.254 | 32.861 | 2 |
| 2025-04-22T18:11:00 | 54.010927 | 6.307315 | 2.0 | 9.233 | 2 | 35.404 | 9.328 | 32.869 | 2 |
| 2025-04-22T18:12:00 | 54.012300 | 6.307292 | 2.0 | 9.301 | 2 | 35.490 | 9.410 | 32.882 | 2 |
| 2025-04-22T18:13:00 | 54.013674 | 6.307228 | 2.0 | 9.331 | 2 | 35.550 | 9.468 | 32.891 | 2 |
| 2025-04-22T18:14:00 | 54.015050 | 6.307162 | 2.0 | 9.328 | 2 | 35.580 | 9.507 | 32.886 | 2 |
| 2025-04-22T18:15:00 | 54.016433 | 6.307175 | 2.0 | 9.094 | 2 | 35.501 | 9.420 | 32.884 | 2 |
| 2025-04-22T18:16:00 | 54.017821 | 6.307256 | 2.0 | 9.120 | 2 | 35.314 | 9.282 | 32.818 | 2 |
| 2025-04-22T18:17:00 | 54.019207 | 6.307351 | 2.0 | 8.849 | 2 | 35.309 | 9.271 | 32.823 | 2 |
| 2025-04-22T18:18:00 | 54.020588 | 6.307388 | 2.0 | 8.709 | 2 | 35.091 | 8.997 | 32.850 | 2 |
| 2025-04-22T18:19:00 | 54.021969 | 6.307413 | 2.0 | 8.736 | 2 | 34.976 | 8.881 | 32.838 | 2 |
| 2025-04-22T18:20:00 | 54.023351 | 6.307407 | 2.0 | 8.667 | 2 | 35.031 | 8.972 | 32.811 | 2 |
| 2025-04-22T18:21:00 | 54.024740 | 6.307376 | 2.0 | 8.643 | 2 | 34.972 | 8.880 | 32.834 | 2 |
| 2025-04-22T18:22:00 | 54.026129 | 6.307319 | 2.0 | 8.672 | 2 | 34.946 | 8.815 | 32.867 | 2 |
| 2025-04-22T18:23:00 | 54.027518 | 6.307320 | 2.0 | 8.976 | 2 | 34.953 | 8.887 | 32.808 | 2 |
| 2025-04-22T18:24:00 | 54.028906 | 6.307368 | 2.0 | 9.191 | 2 | 35.215 | 9.167 | 32.822 | 2 |
| 2025-04-22T18:25:00 | 54.030290 | 6.307381 | 2.0 | 8.889 | 2 | 35.347 | 9.279 | 32.855 | 2 |
| 2025-04-22T18:26:00 | 54.031681 | 6.307298 | 2.0 | 9.159 | 2 | 35.231 | 9.166 | 32.839 | 2 |
| 2025-04-22T18:27:00 | 54.033067 | 6.307155 | 2.0 | 9.085 | 2 | 35.329 | 9.248 | 32.865 | 2 |
| 2025-04-22T18:28:00 | 54.034450 | 6.307076 | 2.0 | 9.065 | 2 | 35.340 | 9.273 | 32.854 | 2 |
| 2025-04-22T18:29:00 | 54.035833 | 6.307099 | 2.0 | 8.826 | 2 | 35.244 | 9.130 | 32.886 | 2 |
| 2025-04-22T18:30:00 | 54.037210 | 6.307120 | 2.0 | 8.869 | 2 | 35.146 | 9.041 | 32.867 | 2 |
| 2025-04-22T18:31:00 | 54.038587 | 6.307079 | 2.0 | 8.924 | 2 | 35.164 | 9.053 | 32.874 | 2 |
| 2025-04-22T18:32:00 | 54.039972 | 6.307042 | 2.0 | 9.110 | 2 | 35.216 | 9.111 | 32.875 | 2 |
| 2025-04-22T18:33:00 | 54.041353 | 6.307066 | 2.0 | 8.937 | 2 | 35.366 | 9.288 | 32.867 | 2 |
| 2025-04-22T18:34:00 | 54.042732 | 6.307123 | 2.0 | 9.045 | 2 | 35.225 | 9.127 | 32.869 | 2 |
| 2025-04-22T18:35:00 | 54.044107 | 6.307187 | 2.0 | 8.857 | 2 | 35.277 | 9.139 | 32.912 | 2 |
| 2025-04-22T18:36:00 | 54.045489 | 6.307169 | 2.0 | 8.848 | 2 | 35.185 | 9.016 | 32.930 | 2 |
| 2025-04-22T18:37:00 | 54.046870 | 6.307127 | 2.0 | 8.876 | 2 | 35.187 | 9.026 | 32.923 | 2 |
| 2025-04-22T18:38:00 | 54.048249 | 6.307192 | 2.0 | 8.597 | 2 | 35.187 | 9.003 | 32.944 | 2 |
| 2025-04-22T18:39:00 | 54.049623 | 6.307353 | 2.0 | 8.658 | 2 | 35.028 | 8.819 | 32.949 | 2 |
| 2025-04-22T18:40:00 | 54.050997 | 6.307711 | 2.0 | 8.436 | 2 | 35.002 | 8.785 | 32.954 | 2 |
| 2025-04-22T18:41:00 | 54.052219 | 6.309004 | 2.0 | 8.434 | 2 | 34.865 | 8.628 | 32.956 | 2 |
| 2025-04-22T18:42:00 | 54.052921 | 6.311163 | 2.0 | 8.540 | 2 | 34.862 | 8.637 | 32.945 | 2 |
| 2025-04-22T18:43:00 | 54.052987 | 6.313660 | 2.0 | 8.561 | 2 | 34.953 | 8.729 | 32.955 | 2 |
| 2025-04-22T18:44:00 | 54.052388 | 6.315948 | 2.0 | 8.752 | 2 | 34.992 | 8.759 | 32.967 | 2 |
| 2025-04-22T18:45:00 | 54.051233 | 6.317515 | 2.0 | 8.852 | 2 | 35.129 | 8.921 | 32.960 | 2 |
| 2025-04-22T18:46:00 | 54.049795 | 6.317900 | 2.0 | 8.963 | 2 | 35.227 | 9.043 | 32.949 | 2 |
| 2025-04-22T18:47:00 | 54.048338 | 6.317831 | 2.0 | 8.980 | 2 | 35.042 | 9.147 | 32.661 | 2 |
| 2025-04-22T18:48:00 | 54.046901 | 6.317986 | 2.0 | 9.073 | 2 | 35.322 | 9.170 | 32.930 | 2 |
| 2025-04-22T18:49:00 | 54.045471 | 6.318049 | 2.0 | 9.140 | 2 | 35.400 | 9.244 | 32.942 | 2 |
| 2025-04-22T18:50:00 | 54.044025 | 6.317970 | 2.0 | 9.117 | 2 | 35.354 | 9.295 | 32.848 | 2 |
| 2025-04-22T18:51:00 | 54.042581 | 6.317851 | 2.0 | 9.086 | 2 | 35.422 | 9.278 | 32.934 | 2 |
| 2025-04-22T18:52:00 | 54.041129 | 6.317803 | 2.0 | 9.099 | 2 | 35.404 | 9.257 | 32.934 | 2 |
| 2025-04-22T18:53:00 | 54.039684 | 6.317798 | 2.0 | 9.028 | 2 | 35.388 | 9.242 | 32.932 | 2 |
| 2025-04-22T18:54:00 | 54.038263 | 6.317776 | 2.0 | 8.941 | 2 | 35.239 | 9.201 | 32.815 | 2 |
| 2025-04-22T18:55:00 | 54.036847 | 6.317702 | 2.0 | 8.804 | 2 | 35.029 | 9.086 | 32.704 | 2 |
| 2025-04-22T18:56:00 | 54.035446 | 6.317713 | 2.0 | 8.766 | 2 | 35.145 | 8.974 | 32.927 | 2 |
| 2025-04-22T18:57:00 | 54.034056 | 6.317806 | 2.0 | 8.768 | 2 | 35.098 | 8.948 | 32.903 | 2 |
| 2025-04-22T18:58:00 | 54.032670 | 6.317840 | 2.0 | 8.781 | 2 | 35.059 | 8.920 | 32.888 | 2 |
| 2025-04-22T18:59:00 | 54.031286 | 6.317828 | 2.0 | 8.977 | 2 | 35.074 | 9.012 | 32.818 | 2 |
| 2025-04-22T19:00:00 | 54.029901 | 6.317875 | 2.0 | 9.211 | 2 | 35.174 | 9.187 | 32.761 | 2 |
| 2025-04-22T19:01:00 | 54.028526 | 6.317933 | 2.0 | 9.185 | 2 | 35.409 | 9.373 | 32.833 | 2 |
| 2025-04-22T19:02:00 | 54.027148 | 6.317926 | 2.0 | 8.949 | 2 | 35.231 | 9.320 | 32.698 | 2 |
| 2025-04-22T19:03:00 | 54.025772 | 6.317854 | 2.0 | 8.800 | 2 | 35.195 | 9.069 | 32.892 | 2 |
| 2025-04-22T19:04:00 | 54.024396 | 6.317798 | 2.0 | 9.078 | 2 | 35.048 | 9.036 | 32.769 | 2 |
| 2025-04-22T19:05:00 | 54.023026 | 6.317895 | 2.0 | 8.875 | 2 | 35.279 | 9.247 | 32.814 | 2 |
| 2025-04-22T19:06:00 | 54.021657 | 6.317957 | 2.0 | 8.716 | 2 | 35.110 | 9.052 | 32.819 | 2 |
| 2025-04-22T19:07:00 | 54.020295 | 6.317926 | 2.0 | 8.684 | 2 | 34.808 | 8.893 | 32.651 | 2 |
| 2025-04-22T19:08:00 | 54.018930 | 6.317858 | 2.0 | 8.700 | 2 | 34.614 | 8.868 | 32.472 | 2 |
| 2025-04-22T19:09:00 | 54.017573 | 6.317814 | 2.0 | 8.806 | 2 | 34.804 | 8.895 | 32.645 | 2 |
| 2025-04-22T19:10:00 | 54.016215 | 6.317833 | 2.0 | 8.868 | 2 | 34.757 | 8.994 | 32.506 | 2 |
| 2025-04-22T19:11:00 | 54.014861 | 6.317902 | 2.0 | 8.840 | 2 | 34.806 | 9.040 | 32.514 | 2 |
| 2025-04-22T19:12:00 | 54.013508 | 6.317974 | 2.0 | 8.858 | 2 | 34.851 | 9.018 | 32.581 | 2 |
| 2025-04-22T19:13:00 | 54.012155 | 6.317995 | 2.0 | 9.019 | 2 | 35.035 | 9.064 | 32.730 | 2 |
| 2025-04-22T19:14:00 | 54.010803 | 6.317990 | 2.0 | 9.176 | 2 | 35.057 | 9.178 | 32.648 | 2 |
| 2025-04-22T19:15:00 | 54.009451 | 6.318010 | 2.0 | 9.218 | 2 | 35.318 | 9.369 | 32.743 | 2 |
| 2025-04-22T19:16:00 | 54.008101 | 6.318036 | 2.0 | 9.061 | 2 | 35.235 | 9.321 | 32.701 | 2 |
| 2025-04-22T19:17:00 | 54.006748 | 6.318060 | 2.0 | 9.228 | 2 | 35.237 | 9.277 | 32.744 | 2 |
| 2025-04-22T19:18:00 | 54.005391 | 6.318037 | 2.0 | 9.146 | 2 | 35.298 | 9.381 | 32.711 | 2 |
| 2025-04-22T19:19:00 | 54.004030 | 6.317968 | 2.0 | 9.145 | 2 | 35.169 | 9.291 | 32.661 | 2 |
| 2025-04-22T19:20:00 | 54.002666 | 6.317945 | 2.0 | 9.179 | 2 | 35.255 | 9.353 | 32.693 | 2 |
| 2025-04-22T19:21:00 | 54.001299 | 6.317964 | 2.0 | 9.184 | 2 | 35.257 | 9.339 | 32.707 | 2 |
| 2025-04-22T19:22:00 | 53.999927 | 6.317979 | 2.0 | 9.154 | 2 | 35.218 | 9.336 | 32.670 | 2 |
| 2025-04-22T19:23:00 | 53.998548 | 6.317953 | 2.0 | 9.385 | 2 | 35.260 | 9.378 | 32.675 | 2 |
| 2025-04-22T19:24:00 | 53.997170 | 6.317932 | 2.0 | 9.386 | 2 | 35.450 | 9.541 | 32.721 | 2 |
| 2025-04-22T19:25:00 | 53.995785 | 6.317940 | 2.0 | 9.384 | 2 | 35.400 | 9.544 | 32.667 | 2 |
| 2025-04-22T19:26:00 | 53.994395 | 6.317962 | 2.0 | 9.325 | 2 | 35.438 | 9.538 | 32.712 | 2 |
| 2025-04-22T19:27:00 | 53.993002 | 6.317953 | 2.0 | 9.290 | 2 | 35.411 | 9.473 | 32.743 | 2 |
| 2025-04-22T19:28:00 | 53.991605 | 6.317914 | 2.0 | 9.292 | 2 | 35.380 | 9.460 | 32.723 | 2 |
| 2025-04-22T19:29:00 | 53.990201 | 6.317872 | 2.0 | 9.221 | 2 | 35.371 | 9.456 | 32.718 | 2 |
| 2025-04-22T19:30:00 | 53.988800 | 6.317847 | 2.0 | 9.259 | 2 | 35.344 | 9.392 | 32.748 | 2 |
| 2025-04-22T19:31:00 | 53.987400 | 6.317898 | 2.0 | 9.202 | 2 | 35.363 | 9.416 | 32.746 | 2 |
| 2025-04-22T19:32:00 | 53.985999 | 6.317967 | 2.0 | 9.170 | 2 | 35.305 | 9.363 | 32.735 | 2 |
| 2025-04-22T19:33:00 | 53.984594 | 6.317981 | 2.0 | 9.137 | 2 | 35.275 | 9.343 | 32.722 | 2 |
| 2025-04-22T19:34:00 | 53.983192 | 6.317941 | 2.0 | 9.128 | 2 | 35.217 | 9.301 | 32.701 | 2 |
| 2025-04-22T19:35:00 | 53.981792 | 6.317910 | 2.0 | 9.141 | 2 | 35.027 | 9.309 | 32.498 | 2 |
| 2025-04-22T19:36:00 | 53.980375 | 6.317435 | 2.0 | 8.589 | 2 | 35.116 | 9.173 | 32.714 | 2 |
| 2025-04-22T19:37:00 | 53.979324 | 6.315518 | 2.0 | 8.563 | 2 | 34.698 | 8.770 | 32.650 | 2 |
| 2025-04-22T19:38:00 | 53.979222 | 6.312819 | 2.0 | 8.664 | 2 | 34.709 | 8.766 | 32.665 | 2 |
| 2025-04-22T19:39:00 | 53.980097 | 6.310536 | 2.0 | 8.716 | 2 | 34.782 | 8.856 | 32.658 | 2 |
| 2025-04-22T19:40:00 | 53.981554 | 6.309669 | 2.0 | 8.757 | 2 | 34.962 | 8.909 | 32.797 | 2 |
| 2025-04-22T19:41:00 | 53.983090 | 6.309825 | 2.0 | 8.880 | 2 | 35.001 | 8.951 | 32.799 | 2 |
| 2025-04-22T19:42:00 | 53.984555 | 6.309835 | 2.0 | 9.068 | 2 | 35.088 | 9.052 | 32.796 | 2 |
| 2025-04-22T19:43:00 | 53.985961 | 6.309684 | 2.0 | 8.993 | 2 | 35.254 | 9.235 | 32.800 | 2 |
| 2025-04-22T19:44:00 | 53.987319 | 6.309625 | 2.0 | 8.561 | 2 | 35.156 | 9.080 | 32.841 | 2 |
| 2025-04-22T19:45:00 | 53.988638 | 6.309694 | 2.0 | 9.070 | 2 | 34.891 | 8.818 | 32.807 | 2 |
| 2025-04-22T19:46:00 | 53.989928 | 6.309790 | 2.0 | 9.165 | 2 | 35.242 | 9.244 | 32.779 | 2 |
| 2025-04-22T19:47:00 | 53.991203 | 6.309851 | 2.0 | 8.851 | 2 | 35.321 | 9.246 | 32.859 | 2 |
| 2025-04-22T19:48:00 | 53.992522 | 6.309875 | 2.0 | 9.092 | 2 | 35.142 | 9.048 | 32.856 | 2 |
| 2025-04-22T19:49:00 | 53.993873 | 6.309907 | 2.0 | 9.301 | 2 | 35.348 | 9.317 | 32.821 | 2 |
| 2025-04-22T19:50:00 | 53.995243 | 6.309962 | 2.0 | 9.326 | 2 | 35.496 | 9.460 | 32.843 | 2 |
| 2025-04-22T19:51:00 | 53.996620 | 6.309986 | 2.0 | 9.344 | 2 | 35.537 | 9.497 | 32.851 | 2 |
| 2025-04-22T19:52:00 | 53.998012 | 6.309971 | 2.0 | 9.288 | 2 | 35.555 | 9.510 | 32.857 | 2 |
| 2025-04-22T19:53:00 | 53.999411 | 6.309949 | 2.0 | 8.929 | 2 | 35.449 | 9.373 | 32.874 | 2 |
| 2025-04-22T19:54:00 | 54.000814 | 6.309916 | 2.0 | 9.095 | 2 | 35.213 | 9.150 | 32.835 | 2 |
| 2025-04-22T19:55:00 | 54.002232 | 6.309905 | 2.0 | 9.139 | 2 | 35.286 | 9.278 | 32.793 | 2 |
| 2025-04-22T19:56:00 | 54.003652 | 6.309908 | 2.0 | 9.034 | 2 | 35.267 | 9.272 | 32.779 | 2 |
| 2025-04-22T19:57:00 | 54.005075 | 6.309915 | 2.0 | 9.073 | 2 | 35.186 | 9.195 | 32.766 | 2 |
| 2025-04-22T19:58:00 | 54.006499 | 6.309949 | 2.0 | 9.144 | 2 | 35.249 | 9.272 | 32.761 | 2 |
| 2025-04-22T19:59:00 | 54.007926 | 6.309990 | 2.0 | 9.182 | 2 | 35.311 | 9.317 | 32.783 | 2 |
| 2025-04-22T20:00:00 | 54.009351 | 6.309975 | 2.0 | 8.806 | 2 | 35.296 | 9.258 | 32.822 | 2 |
| 2025-04-22T20:01:00 | 54.010777 | 6.309893 | 2.0 | 8.858 | 2 | 35.060 | 9.023 | 32.794 | 2 |
| 2025-04-22T20:02:00 | 54.012196 | 6.309803 | 2.0 | 9.122 | 2 | 35.070 | 9.079 | 32.753 | 2 |
| 2025-04-22T20:03:00 | 54.013615 | 6.309764 | 2.0 | 9.102 | 2 | 35.251 | 9.274 | 32.761 | 2 |
| 2025-04-22T20:04:00 | 54.015026 | 6.309751 | 2.0 | 8.782 | 2 | 35.215 | 9.219 | 32.774 | 2 |
| 2025-04-22T20:05:00 | 54.016444 | 6.309736 | 2.0 | 8.726 | 2 | 34.981 | 8.940 | 32.788 | 2 |
| 2025-04-22T20:06:00 | 54.017871 | 6.309694 | 2.0 | 8.857 | 2 | 34.951 | 8.929 | 32.767 | 2 |
| 2025-04-22T20:07:00 | 54.019299 | 6.309692 | 2.0 | 9.027 | 2 | 35.067 | 9.054 | 32.772 | 2 |
| 2025-04-22T20:08:00 | 54.020722 | 6.309756 | 2.0 | 9.165 | 2 | 35.248 | 9.227 | 32.801 | 2 |
| 2025-04-22T20:09:00 | 54.022144 | 6.309859 | 2.0 | 9.221 | 2 | 35.349 | 9.321 | 32.819 | 2 |
| 2025-04-22T20:10:00 | 54.023564 | 6.309920 | 2.0 | 9.336 | 2 | 35.419 | 9.408 | 32.811 | 2 |
| 2025-04-22T20:11:00 | 54.024984 | 6.309872 | 2.0 | 9.343 | 2 | 35.508 | 9.496 | 32.822 | 2 |
| 2025-04-22T20:12:00 | 54.026407 | 6.309795 | 2.0 | 9.331 | 2 | 35.532 | 9.506 | 32.837 | 2 |
| 2025-04-22T20:13:00 | 54.027832 | 6.309796 | 2.0 | 9.345 | 2 | 35.393 | 9.503 | 32.697 | 2 |
| 2025-04-22T20:14:00 | 54.029247 | 6.309884 | 2.0 | 8.985 | 2 | 35.531 | 9.479 | 32.861 | 2 |
| 2025-04-22T20:15:00 | 54.030662 | 6.309995 | 2.0 | 8.796 | 2 | 35.226 | 9.100 | 32.895 | 2 |
| 2025-04-22T20:16:00 | 54.032086 | 6.310025 | 2.0 | 9.021 | 2 | 35.108 | 9.014 | 32.852 | 2 |
| 2025-04-22T20:17:00 | 54.033512 | 6.310009 | 2.0 | 9.143 | 2 | 35.272 | 9.219 | 32.833 | 2 |
| 2025-04-22T20:18:00 | 54.034932 | 6.310035 | 2.0 | 9.271 | 2 | 35.407 | 9.335 | 32.866 | 2 |
| 2025-04-22T20:19:00 | 54.036347 | 6.310099 | 2.0 | 9.087 | 2 | 35.527 | 9.424 | 32.908 | 2 |
| 2025-04-22T20:20:00 | 54.037762 | 6.310112 | 2.0 | 9.146 | 2 | 35.407 | 9.275 | 32.921 | 2 |
| 2025-04-22T20:21:00 | 54.039183 | 6.310039 | 2.0 | 9.171 | 2 | 35.398 | 9.307 | 32.882 | 2 |
| 2025-04-22T20:22:00 | 54.040606 | 6.309947 | 2.0 | 9.207 | 2 | 35.463 | 9.345 | 32.914 | 2 |
| 2025-04-22T20:23:00 | 54.042028 | 6.309942 | 2.0 | 9.203 | 2 | 35.297 | 9.334 | 32.753 | 2 |
| 2025-04-22T20:24:00 | 54.043449 | 6.310000 | 2.0 | 9.266 | 2 | 35.482 | 9.383 | 32.899 | 2 |
| 2025-04-22T20:25:00 | 54.044870 | 6.310028 | 2.0 | 9.252 | 2 | 35.513 | 9.430 | 32.888 | 2 |
| 2025-04-22T20:26:00 | 54.046301 | 6.309976 | 2.0 | 9.194 | 2 | 35.521 | 9.402 | 32.922 | 2 |
| 2025-04-22T20:27:00 | 54.047735 | 6.309873 | 2.0 | 9.196 | 2 | 35.455 | 9.346 | 32.905 | 2 |
| 2025-04-22T20:28:00 | 54.049170 | 6.309784 | 2.0 | 9.164 | 2 | 35.337 | 9.356 | 32.774 | 2 |
| 2025-04-22T20:29:00 | 54.050586 | 6.310104 | 2.0 | 9.115 | 2 | 35.447 | 9.326 | 32.915 | 2 |
| 2025-04-22T20:30:00 | 54.051752 | 6.311563 | 2.0 | 9.112 | 2 | 35.311 | 9.289 | 32.809 | 2 |
| 2025-04-22T20:31:00 | 54.052341 | 6.313903 | 2.0 | 8.811 | 2 | 35.313 | 9.210 | 32.884 | 2 |
| 2025-04-22T20:32:00 | 54.052191 | 6.316509 | 2.0 | 8.800 | 2 | 35.193 | 8.999 | 32.954 | 2 |
| 2025-04-22T20:33:00 | 54.051284 | 6.318609 | 2.0 | 8.777 | 2 | 35.145 | 8.959 | 32.941 | 2 |
| 2025-04-22T20:34:00 | 54.049928 | 6.319607 | 2.0 | 8.962 | 2 | 35.100 | 8.972 | 32.882 | 2 |
| 2025-04-22T20:35:00 | 54.048633 | 6.320482 | 2.0 | 9.136 | 2 | 35.288 | 9.201 | 32.866 | 2 |
| 2025-04-22T20:36:00 | 54.047305 | 6.320818 | 2.0 | 8.666 | 2 | 35.212 | 9.136 | 32.847 | 2 |
| 2025-04-22T20:37:00 | 54.045901 | 6.320596 | 2.0 | 8.745 | 2 | 34.979 | 8.895 | 32.828 | 2 |
| 2025-04-22T20:38:00 | 54.044441 | 6.320545 | 2.0 | 8.808 | 2 | 34.995 | 8.931 | 32.811 | 2 |
| 2025-04-22T20:39:00 | 54.042983 | 6.320574 | 2.0 | 8.869 | 2 | 35.098 | 8.996 | 32.858 | 2 |
| 2025-04-22T20:40:00 | 54.041540 | 6.320562 | 2.0 | 9.050 | 2 | 35.209 | 9.044 | 32.929 | 2 |
| 2025-04-22T20:41:00 | 54.040107 | 6.320514 | 2.0 | 9.335 | 2 | 35.344 | 9.307 | 32.826 | 2 |
| 2025-04-22T20:42:00 | 54.038690 | 6.320421 | 2.0 | 9.044 | 2 | 35.385 | 9.453 | 32.735 | 2 |
| 2025-04-22T20:43:00 | 54.037293 | 6.320363 | 2.0 | 9.110 | 2 | 35.242 | 9.244 | 32.779 | 2 |
| 2025-04-22T20:44:00 | 54.035912 | 6.320407 | 2.0 | 9.171 | 2 | 35.055 | 9.280 | 32.553 | 2 |
| 2025-04-22T20:45:00 | 54.034532 | 6.320480 | 2.0 | 8.829 | 2 | 35.148 | 9.251 | 32.675 | 2 |
| 2025-04-22T20:46:00 | 54.033152 | 6.320523 | 2.0 | 8.956 | 2 | 34.941 | 9.034 | 32.660 | 2 |
| 2025-04-22T20:47:00 | 54.031775 | 6.320531 | 2.0 | 8.993 | 2 | 35.060 | 9.155 | 32.672 | 2 |
| 2025-04-22T20:48:00 | 54.030403 | 6.320542 | 2.0 | 9.090 | 2 | 34.869 | 9.190 | 32.443 | 2 |
| 2025-04-22T20:49:00 | 54.029035 | 6.320561 | 2.0 | 9.229 | 2 | 35.185 | 9.273 | 32.694 | 2 |
| 2025-04-22T20:50:00 | 54.027665 | 6.320612 | 2.0 | 9.168 | 2 | 35.260 | 9.340 | 32.710 | 2 |
| 2025-04-22T20:51:00 | 54.026298 | 6.320688 | 2.0 | 9.209 | 2 | 35.282 | 9.385 | 32.691 | 2 |
| 2025-04-22T20:52:00 | 54.024933 | 6.320711 | 2.0 | 9.241 | 2 | 35.298 | 9.359 | 32.731 | 2 |
| 2025-04-22T20:53:00 | 54.023565 | 6.320677 | 2.0 | 9.312 | 2 | 35.340 | 9.423 | 32.716 | 2 |
| 2025-04-22T20:54:00 | 54.022194 | 6.320623 | 2.0 | 9.281 | 2 | 35.278 | 9.460 | 32.619 | 2 |
| 2025-04-22T20:55:00 | 54.020822 | 6.320577 | 2.0 | 9.346 | 2 | 35.336 | 9.443 | 32.694 | 2 |
| 2025-04-22T20:56:00 | 54.019453 | 6.320556 | 2.0 | 9.347 | 2 | 35.390 | 9.501 | 32.696 | 2 |
| 2025-04-22T20:57:00 | 54.018086 | 6.320517 | 2.0 | 9.323 | 2 | 35.416 | 9.496 | 32.727 | 2 |
| 2025-04-22T20:58:00 | 54.016713 | 6.320454 | 2.0 | 9.246 | 2 | 35.361 | 9.412 | 32.748 | 2 |
| 2025-04-22T20:59:00 | 54.015347 | 6.320419 | 2.0 | 9.353 | 2 | 35.374 | 9.458 | 32.719 | 2 |
| 2025-04-22T21:00:00 | 54.013991 | 6.320462 | 2.0 | 9.352 | 2 | 35.421 | 9.515 | 32.715 | 2 |
| 2025-04-22T21:01:00 | 54.012637 | 6.320516 | 2.0 | 9.144 | 2 | 35.429 | 9.504 | 32.733 | 2 |
| 2025-04-22T21:02:00 | 54.011280 | 6.320552 | 2.0 | 9.256 | 2 | 35.298 | 9.330 | 32.758 | 2 |
| 2025-04-22T21:03:00 | 54.009923 | 6.320575 | 2.0 | 9.314 | 2 | 35.329 | 9.409 | 32.717 | 2 |
| 2025-04-22T21:04:00 | 54.008568 | 6.320593 | 2.0 | 9.304 | 2 | 35.406 | 9.479 | 32.733 | 2 |
| 2025-04-22T21:05:00 | 54.007215 | 6.320631 | 2.0 | 9.348 | 2 | 35.424 | 9.438 | 32.789 | 2 |
| 2025-04-22T21:06:00 | 54.005867 | 6.320722 | 2.0 | 9.417 | 2 | 35.496 | 9.550 | 32.760 | 2 |
| 2025-04-22T21:07:00 | 54.004508 | 6.320764 | 2.0 | 9.439 | 2 | 35.543 | 9.582 | 32.779 | 2 |
| 2025-04-22T21:08:00 | 54.003136 | 6.320685 | 2.0 | 9.429 | 2 | 35.548 | 9.598 | 32.770 | 2 |
| 2025-04-22T21:09:00 | 54.001754 | 6.320590 | 2.0 | 9.430 | 2 | 35.559 | 9.596 | 32.783 | 2 |
| 2025-04-22T21:10:00 | 54.000375 | 6.320585 | 2.0 | 9.434 | 2 | 35.507 | 9.597 | 32.729 | 2 |
| 2025-04-22T21:11:00 | 53.999000 | 6.320634 | 2.0 | 9.437 | 2 | 35.448 | 9.603 | 32.663 | 2 |
| 2025-04-22T21:12:00 | 53.997618 | 6.320689 | 2.0 | 9.431 | 2 | 35.537 | 9.603 | 32.754 | 2 |
| 2025-04-22T21:13:00 | 53.996229 | 6.320671 | 2.0 | 9.438 | 2 | 35.545 | 9.600 | 32.765 | 2 |
| 2025-04-22T21:14:00 | 53.994830 | 6.320569 | 2.0 | 9.444 | 2 | 35.530 | 9.605 | 32.745 | 2 |
| 2025-04-22T21:15:00 | 53.993426 | 6.320495 | 2.0 | 9.456 | 2 | 35.574 | 9.614 | 32.782 | 2 |
| 2025-04-22T21:16:00 | 53.992024 | 6.320461 | 2.0 | 9.465 | 2 | 35.588 | 9.622 | 32.789 | 2 |
| 2025-04-22T21:17:00 | 53.990622 | 6.320430 | 2.0 | 9.454 | 2 | 35.590 | 9.633 | 32.781 | 2 |
| 2025-04-22T21:18:00 | 53.989216 | 6.320420 | 2.0 | 9.437 | 2 | 35.571 | 9.621 | 32.772 | 2 |
| 2025-04-22T21:19:00 | 53.987810 | 6.320471 | 2.0 | 9.419 | 2 | 35.540 | 9.597 | 32.762 | 2 |
| 2025-04-22T21:20:00 | 53.986404 | 6.320542 | 2.0 | 9.431 | 2 | 35.525 | 9.591 | 32.752 | 2 |
| 2025-04-22T21:21:00 | 53.984995 | 6.320590 | 2.0 | 9.421 | 2 | 35.524 | 9.596 | 32.747 | 2 |
| 2025-04-22T21:22:00 | 53.983586 | 6.320618 | 2.0 | 9.400 | 2 | 35.453 | 9.585 | 32.684 | 2 |
| 2025-04-22T21:23:00 | 53.982179 | 6.320651 | 2.0 | 9.381 | 2 | 35.276 | 9.566 | 32.520 | 2 |
| 2025-04-22T21:24:00 | 53.980755 | 6.320370 | 2.0 | 9.355 | 2 | 35.466 | 9.544 | 32.735 | 2 |
| 2025-04-22T21:25:00 | 53.979553 | 6.318699 | 2.0 | 9.314 | 2 | 35.245 | 9.521 | 32.529 | 2 |
| 2025-04-22T21:26:00 | 53.979233 | 6.316059 | 2.0 | 9.184 | 2 | 35.206 | 9.462 | 32.543 | 2 |
| 2025-04-22T21:27:00 | 53.979932 | 6.313661 | 2.0 | 9.070 | 2 | 35.260 | 9.323 | 32.725 | 2 |
| 2025-04-22T21:28:00 | 53.981199 | 6.312466 | 2.0 | 9.063 | 2 | 35.174 | 9.229 | 32.722 | 2 |
| 2025-04-22T21:29:00 | 53.982496 | 6.312416 | 2.0 | 9.214 | 2 | 35.201 | 9.270 | 32.713 | 2 |
| 2025-04-22T21:30:00 | 53.983784 | 6.312599 | 2.0 | 9.293 | 2 | 35.110 | 9.395 | 32.505 | 2 |
| 2025-04-22T21:31:00 | 53.985128 | 6.312438 | 2.0 | 9.302 | 2 | 35.289 | 9.456 | 32.633 | 2 |
| 2025-04-22T21:32:00 | 53.986547 | 6.312356 | 2.0 | 9.350 | 2 | 35.170 | 9.480 | 32.489 | 2 |
| 2025-04-22T21:33:00 | 53.987982 | 6.312452 | 2.0 | 9.373 | 2 | 35.266 | 9.517 | 32.554 | 2 |
| 2025-04-22T21:34:00 | 53.989381 | 6.312475 | 2.0 | 9.417 | 2 | 35.481 | 9.542 | 32.752 | 2 |
| 2025-04-22T21:35:00 | 53.990735 | 6.312448 | 2.0 | 9.422 | 2 | 35.529 | 9.583 | 32.764 | 2 |
| 2025-04-22T21:36:00 | 53.992044 | 6.312448 | 2.0 | 9.444 | 2 | 35.538 | 9.589 | 32.768 | 2 |
| 2025-04-22T21:37:00 | 53.993326 | 6.312507 | 2.0 | 9.429 | 2 | 35.467 | 9.607 | 32.679 | 2 |
| 2025-04-22T21:38:00 | 53.994608 | 6.312545 | 2.0 | 9.415 | 2 | 35.498 | 9.589 | 32.727 | 2 |
| 2025-04-22T21:39:00 | 53.995890 | 6.312522 | 2.0 | 9.423 | 2 | 35.557 | 9.585 | 32.791 | 2 |
| 2025-04-22T21:40:00 | 53.997165 | 6.312494 | 2.0 | 9.433 | 2 | 35.557 | 9.593 | 32.783 | 2 |
| 2025-04-22T21:41:00 | 53.998436 | 6.312451 | 2.0 | 9.445 | 2 | 35.598 | 9.602 | 32.817 | 2 |
| 2025-04-22T21:42:00 | 53.999705 | 6.312437 | 2.0 | 9.433 | 2 | 35.584 | 9.610 | 32.796 | 2 |
| 2025-04-22T21:43:00 | 54.000973 | 6.312475 | 2.0 | 9.434 | 2 | 35.617 | 9.600 | 32.839 | 2 |
| 2025-04-22T21:44:00 | 54.002237 | 6.312542 | 2.0 | 9.439 | 2 | 35.596 | 9.602 | 32.815 | 2 |
| 2025-04-22T21:45:00 | 54.003503 | 6.312619 | 2.0 | 9.464 | 2 | 35.618 | 9.611 | 32.830 | 2 |
| 2025-04-22T21:46:00 | 54.004768 | 6.312627 | 2.0 | 9.453 | 2 | 35.628 | 9.633 | 32.820 | 2 |
| 2025-04-22T21:47:00 | 54.006038 | 6.312597 | 2.0 | 9.440 | 2 | 35.618 | 9.613 | 32.828 | 2 |
| 2025-04-22T21:48:00 | 54.007310 | 6.312586 | 2.0 | 9.392 | 2 | 35.528 | 9.589 | 32.757 | 2 |
| 2025-04-22T21:49:00 | 54.008586 | 6.312596 | 2.0 | 9.395 | 2 | 35.625 | 9.561 | 32.882 | 2 |
| 2025-04-22T21:50:00 | 54.009862 | 6.312605 | 2.0 | 9.368 | 2 | 35.595 | 9.560 | 32.853 | 2 |
| 2025-04-22T21:51:00 | 54.011139 | 6.312602 | 2.0 | 9.322 | 2 | 35.477 | 9.531 | 32.758 | 2 |
| 2025-04-22T21:52:00 | 54.012424 | 6.312583 | 2.0 | 9.153 | 2 | 35.275 | 9.440 | 32.634 | 2 |
| 2025-04-22T21:53:00 | 54.013712 | 6.312552 | 2.0 | 9.233 | 2 | 35.403 | 9.351 | 32.847 | 2 |
| 2025-04-22T21:54:00 | 54.014993 | 6.312563 | 2.0 | 9.239 | 2 | 35.387 | 9.404 | 32.782 | 2 |
| 2025-04-22T21:55:00 | 54.016282 | 6.312578 | 2.0 | 9.225 | 2 | 35.420 | 9.395 | 32.824 | 2 |
| 2025-04-22T21:56:00 | 54.017570 | 6.312581 | 2.0 | 8.942 | 2 | 35.318 | 9.350 | 32.760 | 2 |
| 2025-04-22T21:57:00 | 54.018858 | 6.312592 | 2.0 | 8.958 | 2 | 35.244 | 9.109 | 32.905 | 2 |
| 2025-04-22T21:58:00 | 54.020148 | 6.312593 | 2.0 | 8.878 | 2 | 35.160 | 9.126 | 32.803 | 2 |
| 2025-04-22T21:59:00 | 54.021437 | 6.312612 | 2.0 | 8.914 | 2 | 35.148 | 9.069 | 32.843 | 2 |
| 2025-04-22T22:00:00 | 54.022727 | 6.312613 | 2.0 | 9.170 | 2 | 35.222 | 9.153 | 32.842 | 2 |
| 2025-04-22T22:01:00 | 54.024019 | 6.312581 | 2.0 | 9.200 | 2 | 35.320 | 9.307 | 32.802 | 2 |
| 2025-04-22T22:02:00 | 54.025304 | 6.312521 | 2.0 | 9.065 | 2 | 35.360 | 9.361 | 32.793 | 2 |
| 2025-04-22T22:03:00 | 54.026591 | 6.312453 | 2.0 | 8.784 | 2 | 35.263 | 9.152 | 32.885 | 2 |
| 2025-04-22T22:04:00 | 54.027879 | 6.312438 | 2.0 | 8.765 | 2 | 35.112 | 9.083 | 32.792 | 2 |
| 2025-04-22T22:05:00 | 54.029163 | 6.312482 | 2.0 | 8.916 | 2 | 35.060 | 8.948 | 32.863 | 2 |
| 2025-04-22T22:06:00 | 54.030446 | 6.312545 | 2.0 | 8.623 | 2 | 35.134 | 9.015 | 32.878 | 2 |
| 2025-04-22T22:07:00 | 54.031735 | 6.312562 | 2.0 | 8.626 | 2 | 34.931 | 8.798 | 32.867 | 2 |
| 2025-04-22T22:08:00 | 54.033032 | 6.312526 | 2.0 | 8.848 | 2 | 34.935 | 8.821 | 32.850 | 2 |
| 2025-04-22T22:09:00 | 54.034327 | 6.312498 | 2.0 | 8.806 | 2 | 35.106 | 9.023 | 32.842 | 2 |
| 2025-04-22T22:10:00 | 54.035616 | 6.312504 | 2.0 | 8.999 | 2 | 35.105 | 9.000 | 32.862 | 2 |
| 2025-04-22T22:11:00 | 54.036904 | 6.312548 | 2.0 | 9.074 | 2 | 35.245 | 9.171 | 32.849 | 2 |
| 2025-04-22T22:12:00 | 54.038191 | 6.312585 | 2.0 | 9.064 | 2 | 35.315 | 9.229 | 32.868 | 2 |
| 2025-04-22T22:13:00 | 54.039482 | 6.312574 | 2.0 | 8.816 | 2 | 35.306 | 9.191 | 32.894 | 2 |
| 2025-04-22T22:14:00 | 54.040775 | 6.312569 | 2.0 | 8.470 | 2 | 35.108 | 8.905 | 32.953 | 2 |
| 2025-04-22T22:15:00 | 54.042068 | 6.312595 | 2.0 | 8.405 | 2 | 34.879 | 8.674 | 32.928 | 2 |
| 2025-04-22T22:16:00 | 54.043361 | 6.312612 | 2.0 | 8.438 | 2 | 34.806 | 8.572 | 32.947 | 2 |
| 2025-04-22T22:17:00 | 54.044647 | 6.312615 | 2.0 | 8.395 | 2 | 34.854 | 8.650 | 32.924 | 2 |
| 2025-04-22T22:18:00 | 54.045938 | 6.312594 | 2.0 | 8.418 | 2 | 34.847 | 8.620 | 32.945 | 2 |
| 2025-04-22T22:19:00 | 54.047225 | 6.312565 | 2.0 | 8.359 | 2 | 34.851 | 8.602 | 32.966 | 2 |
| 2025-04-22T22:20:00 | 54.048507 | 6.312566 | 2.0 | 8.376 | 2 | 34.792 | 8.532 | 32.969 | 2 |
| 2025-04-22T22:21:00 | 54.049773 | 6.312645 | 2.0 | 8.731 | 2 | 34.863 | 8.672 | 32.913 | 2 |
| 2025-04-22T22:22:00 | 54.050812 | 6.313488 | 2.0 | 8.882 | 2 | 35.084 | 8.876 | 32.955 | 2 |
| 2025-04-22T22:23:00 | 54.051446 | 6.315202 | 2.0 | 8.869 | 2 | 35.234 | 9.041 | 32.958 | 2 |
| 2025-04-22T22:24:00 | 54.051590 | 6.317487 | 2.0 | 8.846 | 2 | 35.240 | 9.030 | 32.974 | 2 |
| 2025-04-22T22:25:00 | 54.051037 | 6.319761 | 2.0 | 8.599 | 2 | 35.192 | 8.982 | 32.969 | 2 |
| 2025-04-22T22:26:00 | 54.049889 | 6.321498 | 2.0 | 8.745 | 2 | 35.072 | 8.813 | 33.001 | 2 |
| 2025-04-22T22:27:00 | 54.048691 | 6.323070 | 2.0 | 8.817 | 2 | 35.121 | 8.889 | 32.981 | 2 |
| 2025-04-22T22:28:00 | 54.047313 | 6.323107 | 2.0 | 8.801 | 2 | 35.212 | 8.978 | 32.994 | 2 |
| 2025-04-22T22:29:00 | 54.045961 | 6.323003 | 2.0 | 8.803 | 2 | 35.218 | 8.977 | 33.001 | 2 |
| 2025-04-22T22:30:00 | 54.044613 | 6.323104 | 2.0 | 8.759 | 2 | 35.205 | 8.956 | 33.007 | 2 |
| 2025-04-22T22:31:00 | 54.043259 | 6.323129 | 2.0 | 8.737 | 2 | 35.177 | 8.927 | 33.004 | 2 |
| 2025-04-22T22:32:00 | 54.041911 | 6.323127 | 2.0 | 8.780 | 2 | 35.166 | 8.912 | 33.007 | 2 |
| 2025-04-22T22:33:00 | 54.040582 | 6.323197 | 2.0 | 8.806 | 2 | 35.196 | 8.946 | 33.007 | 2 |
| 2025-04-22T22:34:00 | 54.039278 | 6.323247 | 2.0 | 8.871 | 2 | 35.214 | 8.971 | 33.002 | 2 |
| 2025-04-22T22:35:00 | 54.037974 | 6.323198 | 2.0 | 8.841 | 2 | 35.260 | 9.026 | 32.999 | 2 |
| 2025-04-22T22:36:00 | 54.036677 | 6.323192 | 2.0 | 8.803 | 2 | 35.253 | 9.011 | 33.006 | 2 |
| 2025-04-22T22:37:00 | 54.035392 | 6.323260 | 2.0 | 8.837 | 2 | 35.228 | 8.984 | 33.005 | 2 |
| 2025-04-22T22:38:00 | 54.034112 | 6.323300 | 2.0 | 8.843 | 2 | 35.234 | 9.013 | 32.984 | 2 |
| 2025-04-22T22:39:00 | 54.032826 | 6.323240 | 2.0 | 8.773 | 2 | 35.236 | 8.987 | 33.010 | 2 |
| 2025-04-22T22:40:00 | 54.031542 | 6.323154 | 2.0 | 8.812 | 2 | 35.219 | 8.955 | 33.022 | 2 |
| 2025-04-22T22:41:00 | 54.030275 | 6.323171 | 2.0 | 8.706 | 2 | 35.219 | 8.952 | 33.025 | 2 |
| 2025-04-22T22:42:00 | 54.029019 | 6.323270 | 2.0 | 8.897 | 2 | 35.169 | 8.897 | 33.024 | 2 |
| 2025-04-22T22:43:00 | 54.027762 | 6.323298 | 2.0 | 8.801 | 2 | 35.281 | 9.049 | 32.999 | 2 |
| 2025-04-22T22:44:00 | 54.026500 | 6.323217 | 2.0 | 8.821 | 2 | 35.216 | 8.948 | 33.026 | 2 |
| 2025-04-22T22:45:00 | 54.025245 | 6.323188 | 2.0 | 8.935 | 2 | 35.275 | 9.052 | 32.990 | 2 |
| 2025-04-22T22:46:00 | 54.023995 | 6.323267 | 2.0 | 9.049 | 2 | 35.326 | 9.106 | 32.993 | 2 |
| 2025-04-22T22:47:00 | 54.022738 | 6.323353 | 2.0 | 9.160 | 2 | 35.417 | 9.217 | 32.985 | 2 |
| 2025-04-22T22:48:00 | 54.021473 | 6.323366 | 2.0 | 9.095 | 2 | 35.474 | 9.280 | 32.986 | 2 |
| 2025-04-22T22:49:00 | 54.020204 | 6.323288 | 2.0 | 9.201 | 2 | 35.436 | 9.226 | 32.996 | 2 |
| 2025-04-22T22:50:00 | 54.018950 | 6.323331 | 2.0 | 9.194 | 2 | 35.508 | 9.348 | 32.958 | 2 |
| 2025-04-22T22:51:00 | 54.017701 | 6.323385 | 2.0 | 9.185 | 2 | 35.517 | 9.353 | 32.963 | 2 |
| 2025-04-22T22:52:00 | 54.016397 | 6.323333 | 2.0 | 8.993 | 2 | 35.501 | 9.322 | 32.975 | 2 |
| 2025-04-22T22:53:00 | 54.015058 | 6.323270 | 2.0 | 9.009 | 2 | 35.396 | 9.196 | 32.983 | 2 |
| 2025-04-22T22:54:00 | 54.013707 | 6.323245 | 2.0 | 8.961 | 2 | 35.393 | 9.196 | 32.979 | 2 |
| 2025-04-22T22:55:00 | 54.012366 | 6.323257 | 2.0 | 9.175 | 2 | 35.381 | 9.192 | 32.971 | 2 |
| 2025-04-22T22:56:00 | 54.011030 | 6.323297 | 2.0 | 9.119 | 2 | 35.475 | 9.311 | 32.958 | 2 |
| 2025-04-22T22:57:00 | 54.009688 | 6.323330 | 2.0 | 9.041 | 2 | 35.470 | 9.301 | 32.962 | 2 |
| 2025-04-22T22:58:00 | 54.008345 | 6.323316 | 2.0 | 9.142 | 2 | 35.393 | 9.207 | 32.969 | 2 |
| 2025-04-22T22:59:00 | 54.007002 | 6.323343 | 2.0 | 9.167 | 2 | 35.458 | 9.314 | 32.938 | 2 |
| 2025-04-22T23:00:00 | 54.005657 | 6.323364 | 2.0 | 9.005 | 2 | 35.458 | 9.301 | 32.950 | 2 |
| 2025-04-22T23:01:00 | 54.004303 | 6.323312 | 2.0 | 9.067 | 2 | 35.364 | 9.186 | 32.959 | 2 |
| 2025-04-22T23:02:00 | 54.002945 | 6.323253 | 2.0 | 9.047 | 2 | 35.343 | 9.160 | 32.961 | 2 |
| 2025-04-22T23:03:00 | 54.001590 | 6.323257 | 2.0 | 9.189 | 2 | 35.414 | 9.269 | 32.934 | 2 |
| 2025-04-22T23:04:00 | 54.000248 | 6.323300 | 2.0 | 9.076 | 2 | 35.473 | 9.303 | 32.963 | 2 |
| 2025-04-22T23:05:00 | 53.998907 | 6.323280 | 2.0 | 9.059 | 2 | 35.402 | 9.196 | 32.989 | 2 |
| 2025-04-22T23:06:00 | 53.997560 | 6.323242 | 2.0 | 9.240 | 2 | 35.423 | 9.257 | 32.954 | 2 |
| 2025-04-22T23:07:00 | 53.996208 | 6.323273 | 2.0 | 9.274 | 2 | 35.555 | 9.411 | 32.948 | 2 |
| 2025-04-22T23:08:00 | 53.994846 | 6.323314 | 2.0 | 9.293 | 2 | 35.559 | 9.387 | 32.975 | 2 |
| 2025-04-22T23:09:00 | 53.993476 | 6.323287 | 2.0 | 9.239 | 2 | 35.596 | 9.447 | 32.957 | 2 |
| 2025-04-22T23:10:00 | 53.992122 | 6.323243 | 2.0 | 9.041 | 2 | 35.554 | 9.368 | 32.987 | 2 |
| 2025-04-22T23:11:00 | 53.990783 | 6.323231 | 2.0 | 8.916 | 2 | 35.409 | 9.178 | 33.013 | 2 |
| 2025-04-22T23:12:00 | 53.989452 | 6.323248 | 2.0 | 8.790 | 2 | 35.306 | 9.072 | 33.004 | 2 |
| 2025-04-22T23:13:00 | 53.988129 | 6.323274 | 2.0 | 8.712 | 2 | 35.221 | 8.966 | 33.014 | 2 |
| 2025-04-22T23:14:00 | 53.986804 | 6.323305 | 2.0 | 8.469 | 2 | 35.145 | 8.851 | 33.042 | 2 |
| 2025-04-22T23:15:00 | 53.985484 | 6.323286 | 2.0 | 8.434 | 2 | 34.982 | 8.650 | 33.059 | 2 |
| 2025-04-22T23:16:00 | 53.984168 | 6.323245 | 2.0 | 8.487 | 2 | 34.952 | 8.600 | 33.074 | 2 |
| 2025-04-22T23:17:00 | 53.982855 | 6.323245 | 2.0 | 8.374 | 2 | 34.964 | 8.607 | 33.080 | 2 |
| 2025-04-22T23:18:00 | 53.981546 | 6.323307 | 2.0 | 8.513 | 2 | 34.940 | 8.577 | 33.083 | 2 |
| 2025-04-22T23:19:00 | 53.980389 | 6.323992 | 2.0 | 8.519 | 2 | 35.025 | 8.692 | 33.065 | 2 |
| 2025-04-22T23:20:00 | 53.979614 | 6.325527 | 2.0 | 8.396 | 2 | 35.044 | 8.660 | 33.114 | 2 |
| 2025-04-22T23:21:00 | 53.979435 | 6.327598 | 2.0 | 8.186 | 2 | 34.942 | 8.531 | 33.128 | 2 |
| 2025-04-22T23:22:00 | 53.979931 | 6.329614 | 2.0 | 8.221 | 2 | 34.802 | 8.381 | 33.121 | 2 |
| 2025-04-22T23:23:00 | 53.981047 | 6.330845 | 2.0 | 8.176 | 2 | 34.799 | 8.386 | 33.114 | 2 |
| 2025-04-22T23:24:00 | 53.982337 | 6.330948 | 2.0 | 8.190 | 2 | 34.770 | 8.362 | 33.106 | 2 |
| 2025-04-22T23:25:00 | 53.983599 | 6.331112 | 2.0 | 8.190 | 2 | 34.765 | 8.364 | 33.098 | 2 |
| 2025-04-22T23:26:00 | 53.984864 | 6.331170 | 2.0 | 8.182 | 2 | 34.751 | 8.360 | 33.087 | 2 |
| 2025-04-22T23:27:00 | 53.986139 | 6.331096 | 2.0 | 8.202 | 2 | 34.733 | 8.362 | 33.066 | 2 |
| 2025-04-22T23:28:00 | 53.987418 | 6.331077 | 2.0 | 8.218 | 2 | 34.728 | 8.383 | 33.041 | 2 |
| 2025-04-22T23:29:00 | 53.988699 | 6.331154 | 2.0 | 8.284 | 2 | 34.723 | 8.398 | 33.022 | 2 |
| 2025-04-22T23:30:00 | 53.989985 | 6.331238 | 2.0 | 8.406 | 2 | 34.781 | 8.478 | 33.008 | 2 |
| 2025-04-22T23:31:00 | 53.991283 | 6.331308 | 2.0 | 8.361 | 2 | 34.873 | 8.571 | 33.018 | 2 |
| 2025-04-22T23:32:00 | 53.992594 | 6.331311 | 2.0 | 8.484 | 2 | 34.839 | 8.531 | 33.020 | 2 |
| 2025-04-22T23:33:00 | 53.993909 | 6.331305 | 2.0 | 8.884 | 2 | 34.981 | 8.723 | 32.990 | 2 |
| 2025-04-22T23:34:00 | 53.995220 | 6.331297 | 2.0 | 8.992 | 2 | 35.279 | 9.064 | 32.983 | 2 |
| 2025-04-22T23:35:00 | 53.996523 | 6.331301 | 2.0 | 9.249 | 2 | 35.398 | 9.209 | 32.973 | 2 |
| 2025-04-22T23:36:00 | 53.997823 | 6.331313 | 2.0 | 9.182 | 2 | 35.523 | 9.361 | 32.961 | 2 |
| 2025-04-22T23:37:00 | 53.999117 | 6.331316 | 2.0 | 8.820 | 2 | 35.494 | 9.292 | 32.995 | 2 |
| 2025-04-22T23:38:00 | 54.000405 | 6.331331 | 2.0 | 8.864 | 2 | 35.253 | 9.006 | 33.010 | 2 |
| 2025-04-22T23:39:00 | 54.001694 | 6.331360 | 2.0 | 8.891 | 2 | 35.232 | 9.012 | 32.983 | 2 |
| 2025-04-22T23:40:00 | 54.002988 | 6.331369 | 2.0 | 8.828 | 2 | 35.286 | 9.072 | 32.983 | 2 |
| 2025-04-22T23:41:00 | 54.004274 | 6.331325 | 2.0 | 8.837 | 2 | 35.224 | 8.998 | 32.987 | 2 |
| 2025-04-22T23:42:00 | 54.005566 | 6.331256 | 2.0 | 8.594 | 2 | 35.229 | 8.988 | 33.002 | 2 |
| 2025-04-22T23:43:00 | 54.006855 | 6.331205 | 2.0 | 8.856 | 2 | 34.822 | 8.813 | 32.740 | 2 |
| 2025-04-22T23:44:00 | 54.008130 | 6.331271 | 2.0 | 9.022 | 2 | 35.251 | 9.050 | 32.967 | 2 |
| 2025-04-22T23:45:00 | 54.009401 | 6.331370 | 2.0 | 9.148 | 2 | 35.388 | 9.205 | 32.966 | 2 |
| 2025-04-22T23:46:00 | 54.010666 | 6.331418 | 2.0 | 9.170 | 2 | 35.316 | 9.306 | 32.798 | 2 |
| 2025-04-22T23:47:00 | 54.011938 | 6.331384 | 2.0 | 9.121 | 2 | 35.517 | 9.318 | 32.995 | 2 |
| 2025-04-22T23:48:00 | 54.013214 | 6.331323 | 2.0 | 9.128 | 2 | 35.465 | 9.283 | 32.974 | 2 |
| 2025-04-22T23:49:00 | 54.014493 | 6.331300 | 2.0 | 9.137 | 2 | 35.496 | 9.295 | 32.994 | 2 |
| 2025-04-22T23:50:00 | 54.015774 | 6.331308 | 2.0 | 9.134 | 2 | 35.350 | 9.291 | 32.847 | 2 |
| 2025-04-22T23:51:00 | 54.017063 | 6.331349 | 2.0 | 9.145 | 2 | 35.317 | 9.297 | 32.808 | 2 |
| 2025-04-22T23:52:00 | 54.018348 | 6.331411 | 2.0 | 9.127 | 2 | 35.514 | 9.308 | 33.001 | 2 |
| 2025-04-22T23:53:00 | 54.019635 | 6.331412 | 2.0 | 9.129 | 2 | 35.499 | 9.292 | 33.000 | 2 |
| 2025-04-22T23:54:00 | 54.020917 | 6.331372 | 2.0 | 9.049 | 2 | 35.289 | 9.283 | 32.792 | 2 |
| 2025-04-22T23:55:00 | 54.022187 | 6.331340 | 2.0 | 9.025 | 2 | 35.413 | 9.196 | 33.000 | 2 |
| 2025-04-22T23:56:00 | 54.023447 | 6.331367 | 2.0 | 9.021 | 2 | 35.281 | 9.183 | 32.875 | 2 |
| 2025-04-22T23:57:00 | 54.024707 | 6.331428 | 2.0 | 9.029 | 2 | 35.329 | 9.186 | 32.922 | 2 |
| 2025-04-22T23:58:00 | 54.025995 | 6.331483 | 2.0 | 9.018 | 2 | 35.275 | 9.193 | 32.860 | 2 |
| 2025-04-22T23:59:00 | 54.027314 | 6.331483 | 2.0 | 8.977 | 2 | 35.351 | 9.178 | 32.953 | 2 |
| 2025-04-23T00:00:00 | 54.028649 | 6.331434 | 2.0 | 8.962 | 2 | 35.317 | 9.143 | 32.950 | 2 |
| 2025-04-23T00:01:00 | 54.029998 | 6.331408 | 2.0 | 8.972 | 2 | 35.395 | 9.135 | 33.038 | 2 |
| 2025-04-23T00:02:00 | 54.031355 | 6.331411 | 2.0 | 8.980 | 2 | 35.375 | 9.142 | 33.011 | 2 |
| 2025-04-23T00:03:00 | 54.032711 | 6.331427 | 2.0 | 8.972 | 2 | 35.393 | 9.145 | 33.027 | 2 |
| 2025-04-23T00:04:00 | 54.034073 | 6.331445 | 2.0 | 8.977 | 2 | 35.426 | 9.143 | 33.063 | 2 |
| 2025-04-23T00:05:00 | 54.035438 | 6.331462 | 2.0 | 8.964 | 2 | 35.384 | 9.142 | 33.020 | 2 |
| 2025-04-23T00:06:00 | 54.036806 | 6.331484 | 2.0 | 8.949 | 2 | 35.379 | 9.130 | 33.026 | 2 |
| 2025-04-23T00:07:00 | 54.038171 | 6.331487 | 2.0 | 8.943 | 2 | 35.369 | 9.118 | 33.027 | 2 |
| 2025-04-23T00:08:00 | 54.039535 | 6.331468 | 2.0 | 8.926 | 2 | 35.385 | 9.106 | 33.055 | 2 |
| 2025-04-23T00:09:00 | 54.040900 | 6.331445 | 2.0 | 8.914 | 2 | 35.304 | 9.094 | 32.982 | 2 |
| 2025-04-23T00:10:00 | 54.042265 | 6.331427 | 2.0 | 8.909 | 2 | 35.335 | 9.081 | 33.026 | 2 |
| 2025-04-23T00:11:00 | 54.043626 | 6.331439 | 2.0 | 8.917 | 2 | 35.415 | 9.079 | 33.111 | 2 |
| 2025-04-23T00:12:00 | 54.044987 | 6.331468 | 2.0 | 8.949 | 2 | 35.385 | 9.095 | 33.065 | 2 |
| 2025-04-23T00:13:00 | 54.046349 | 6.331486 | 2.0 | 8.952 | 2 | 35.424 | 9.119 | 33.083 | 2 |
| 2025-04-23T00:14:00 | 54.047714 | 6.331469 | 2.0 | 8.888 | 2 | 35.438 | 9.114 | 33.102 | 2 |
| 2025-04-23T00:15:00 | 54.049084 | 6.331426 | 2.0 | 8.882 | 2 | 35.463 | 9.069 | 33.170 | 2 |
| 2025-04-23T00:16:00 | 54.050421 | 6.331219 | 2.0 | 8.893 | 2 | 35.430 | 9.050 | 33.153 | 2 |
| 2025-04-23T00:17:00 | 54.051340 | 6.329940 | 2.0 | 8.919 | 2 | 35.404 | 9.065 | 33.112 | 2 |
| 2025-04-23T00:18:00 | 54.051475 | 6.328111 | 2.0 | 8.932 | 2 | 35.412 | 9.086 | 33.101 | 2 |
| 2025-04-23T00:19:00 | 54.050817 | 6.326496 | 2.0 | 8.934 | 2 | 35.395 | 9.099 | 33.071 | 2 |
| 2025-04-23T00:20:00 | 54.049637 | 6.325957 | 2.0 | 8.917 | 2 | 35.400 | 9.099 | 33.077 | 2 |
| 2025-04-23T00:21:00 | 54.048288 | 6.326146 | 2.0 | 8.902 | 2 | 35.350 | 9.082 | 33.040 | 2 |
| 2025-04-23T00:22:00 | 54.046827 | 6.326165 | 2.0 | 8.901 | 2 | 35.343 | 9.071 | 33.043 | 2 |
| 2025-04-23T00:23:00 | 54.045387 | 6.325983 | 2.0 | 8.913 | 2 | 35.247 | 9.073 | 32.942 | 2 |
| 2025-04-23T00:24:00 | 54.043978 | 6.325965 | 2.0 | 8.916 | 2 | 35.303 | 9.082 | 32.992 | 2 |
| 2025-04-23T00:25:00 | 54.042597 | 6.326077 | 2.0 | 8.918 | 2 | 35.298 | 9.085 | 32.984 | 2 |
| 2025-04-23T00:26:00 | 54.041263 | 6.326129 | 2.0 | 8.915 | 2 | 35.306 | 9.086 | 32.991 | 2 |
| 2025-04-23T00:27:00 | 54.039959 | 6.326109 | 2.0 | 8.921 | 2 | 35.264 | 9.084 | 32.949 | 2 |
| 2025-04-23T00:28:00 | 54.038660 | 6.326096 | 2.0 | 8.956 | 2 | 35.318 | 9.098 | 32.992 | 2 |
| 2025-04-23T00:29:00 | 54.037357 | 6.326143 | 2.0 | 8.953 | 2 | 35.313 | 9.124 | 32.963 | 2 |
| 2025-04-23T00:30:00 | 54.036045 | 6.326176 | 2.0 | 8.918 | 2 | 35.312 | 9.116 | 32.969 | 2 |
| 2025-04-23T00:31:00 | 54.034737 | 6.326170 | 2.0 | 8.903 | 2 | 35.286 | 9.086 | 32.970 | 2 |
| 2025-04-23T00:32:00 | 54.033423 | 6.326149 | 2.0 | 8.910 | 2 | 35.298 | 9.074 | 32.994 | 2 |
| 2025-04-23T00:33:00 | 54.032112 | 6.326132 | 2.0 | 8.921 | 2 | 35.279 | 9.082 | 32.967 | 2 |
| 2025-04-23T00:34:00 | 54.030803 | 6.326138 | 2.0 | 8.884 | 2 | 35.290 | 9.081 | 32.979 | 2 |
| 2025-04-23T00:35:00 | 54.029492 | 6.326158 | 2.0 | 8.905 | 2 | 35.319 | 9.057 | 33.031 | 2 |
| 2025-04-23T00:36:00 | 54.028185 | 6.326172 | 2.0 | 8.954 | 2 | 35.328 | 9.080 | 33.019 | 2 |
| 2025-04-23T00:37:00 | 54.026879 | 6.326179 | 2.0 | 9.001 | 2 | 35.364 | 9.128 | 33.012 | 2 |
| 2025-04-23T00:38:00 | 54.025579 | 6.326174 | 2.0 | 9.013 | 2 | 35.397 | 9.168 | 33.009 | 2 |
| 2025-04-23T00:39:00 | 54.024272 | 6.326133 | 2.0 | 9.020 | 2 | 35.411 | 9.181 | 33.012 | 2 |
| 2025-04-23T00:40:00 | 54.022973 | 6.326042 | 2.0 | 8.984 | 2 | 35.414 | 9.176 | 33.020 | 2 |
| 2025-04-23T00:41:00 | 54.021676 | 6.325981 | 2.0 | 9.019 | 2 | 35.403 | 9.159 | 33.024 | 2 |
| 2025-04-23T00:42:00 | 54.020374 | 6.326021 | 2.0 | 9.049 | 2 | 35.421 | 9.189 | 33.015 | 2 |
| 2025-04-23T00:43:00 | 54.019078 | 6.326103 | 2.0 | 9.096 | 2 | 35.445 | 9.221 | 33.010 | 2 |
| 2025-04-23T00:44:00 | 54.017789 | 6.326102 | 2.0 | 9.097 | 2 | 35.477 | 9.257 | 33.010 | 2 |
| 2025-04-23T00:45:00 | 54.016507 | 6.326064 | 2.0 | 9.079 | 2 | 35.485 | 9.267 | 33.009 | 2 |
| 2025-04-23T00:46:00 | 54.015227 | 6.326020 | 2.0 | 9.134 | 2 | 35.456 | 9.229 | 33.014 | 2 |
| 2025-04-23T00:47:00 | 54.013953 | 6.326022 | 2.0 | 9.117 | 2 | 35.491 | 9.299 | 32.986 | 2 |
| 2025-04-23T00:48:00 | 54.012676 | 6.326033 | 2.0 | 9.109 | 2 | 35.484 | 9.281 | 32.995 | 2 |
| 2025-04-23T00:49:00 | 54.011396 | 6.326030 | 2.0 | 9.093 | 2 | 35.478 | 9.270 | 32.999 | 2 |
| 2025-04-23T00:50:00 | 54.010112 | 6.326039 | 2.0 | 9.055 | 2 | 35.463 | 9.263 | 32.990 | 2 |
| 2025-04-23T00:51:00 | 54.008828 | 6.326068 | 2.0 | 9.084 | 2 | 35.411 | 9.194 | 33.000 | 2 |
| 2025-04-23T00:52:00 | 54.007547 | 6.326087 | 2.0 | 9.069 | 2 | 35.427 | 9.235 | 32.979 | 2 |
| 2025-04-23T00:53:00 | 54.006269 | 6.326066 | 2.0 | 8.835 | 2 | 35.386 | 9.168 | 32.998 | 2 |
| 2025-04-23T00:54:00 | 54.004994 | 6.326000 | 2.0 | 8.876 | 2 | 35.256 | 9.021 | 32.999 | 2 |
| 2025-04-23T00:55:00 | 54.003719 | 6.325978 | 2.0 | 8.894 | 2 | 35.260 | 9.046 | 32.980 | 2 |
| 2025-04-23T00:56:00 | 54.002442 | 6.326024 | 2.0 | 9.021 | 2 | 35.288 | 9.076 | 32.982 | 2 |
| 2025-04-23T00:57:00 | 54.001165 | 6.326078 | 2.0 | 9.071 | 2 | 35.378 | 9.198 | 32.962 | 2 |
| 2025-04-23T00:58:00 | 53.999889 | 6.326071 | 2.0 | 9.023 | 2 | 35.411 | 9.227 | 32.969 | 2 |
| 2025-04-23T00:59:00 | 53.998620 | 6.326007 | 2.0 | 8.990 | 2 | 35.371 | 9.165 | 32.985 | 2 |
| 2025-04-23T01:00:00 | 53.997350 | 6.325979 | 2.0 | 9.190 | 2 | 35.377 | 9.214 | 32.946 | 2 |
| 2025-04-23T01:01:00 | 53.996081 | 6.326004 | 2.0 | 8.967 | 2 | 35.505 | 9.333 | 32.969 | 2 |
| 2025-04-23T01:02:00 | 53.994796 | 6.326032 | 2.0 | 8.713 | 2 | 35.121 | 9.087 | 32.798 | 2 |
| 2025-04-23T01:03:00 | 53.993506 | 6.326046 | 2.0 | 8.569 | 2 | 35.167 | 8.898 | 33.021 | 2 |
| 2025-04-23T01:04:00 | 53.992211 | 6.326046 | 2.0 | 8.326 | 2 | 34.767 | 8.685 | 32.801 | 2 |
| 2025-04-23T01:05:00 | 53.990917 | 6.326057 | 2.0 | 8.280 | 2 | 34.625 | 8.502 | 32.822 | 2 |
| 2025-04-23T01:06:00 | 53.989625 | 6.326039 | 2.0 | 8.265 | 2 | 34.789 | 8.459 | 33.034 | 2 |
| 2025-04-23T01:07:00 | 53.988336 | 6.326005 | 2.0 | 8.241 | 2 | 34.589 | 8.440 | 32.841 | 2 |
| 2025-04-23T01:08:00 | 53.987042 | 6.325996 | 2.0 | 8.207 | 2 | 34.776 | 8.409 | 33.068 | 2 |
| 2025-04-23T01:09:00 | 53.985751 | 6.326009 | 2.0 | 8.181 | 2 | 34.589 | 8.379 | 32.898 | 2 |
| 2025-04-23T01:10:00 | 53.984456 | 6.326005 | 2.0 | 8.154 | 2 | 34.712 | 8.352 | 33.054 | 2 |
| 2025-04-23T01:11:00 | 53.983153 | 6.326007 | 2.0 | 8.145 | 2 | 34.693 | 8.330 | 33.054 | 2 |
| 2025-04-23T01:12:00 | 53.981845 | 6.326005 | 2.0 | 8.133 | 2 | 34.694 | 8.317 | 33.067 | 2 |
| 2025-04-23T01:13:00 | 53.980576 | 6.326449 | 2.0 | 8.127 | 2 | 34.699 | 8.306 | 33.083 | 2 |
| 2025-04-23T01:14:00 | 53.979634 | 6.328026 | 2.0 | 8.144 | 2 | 34.704 | 8.302 | 33.092 | 2 |
| 2025-04-23T01:15:00 | 53.979410 | 6.330296 | 2.0 | 8.217 | 2 | 34.599 | 8.324 | 32.960 | 2 |
| 2025-04-23T01:16:00 | 53.979947 | 6.332334 | 2.0 | 8.294 | 2 | 34.649 | 8.402 | 32.940 | 2 |
| 2025-04-23T01:17:00 | 53.980979 | 6.333519 | 2.0 | 8.289 | 2 | 34.660 | 8.470 | 32.888 | 2 |
| 2025-04-23T01:18:00 | 53.982179 | 6.333768 | 2.0 | 8.259 | 2 | 34.783 | 8.451 | 33.036 | 2 |
| 2025-04-23T01:19:00 | 53.983476 | 6.333903 | 2.0 | 8.238 | 2 | 34.693 | 8.429 | 32.961 | 2 |
| 2025-04-23T01:20:00 | 53.984835 | 6.334052 | 2.0 | 8.272 | 2 | 34.662 | 8.413 | 32.944 | 2 |
| 2025-04-23T01:21:00 | 53.986201 | 6.334131 | 2.0 | 8.283 | 2 | 34.671 | 8.456 | 32.913 | 2 |
| 2025-04-23T01:22:00 | 53.987557 | 6.334110 | 2.0 | 8.280 | 2 | 34.732 | 8.455 | 32.978 | 2 |
| 2025-04-23T01:23:00 | 53.988915 | 6.334044 | 2.0 | 8.276 | 2 | 34.764 | 8.451 | 33.016 | 2 |
| 2025-04-23T01:24:00 | 53.990278 | 6.334015 | 2.0 | 8.239 | 2 | 34.760 | 8.446 | 33.016 | 2 |
| 2025-04-23T01:25:00 | 53.991646 | 6.334060 | 2.0 | 8.271 | 2 | 34.722 | 8.418 | 33.002 | 2 |
| 2025-04-23T01:26:00 | 53.993018 | 6.334128 | 2.0 | 8.316 | 2 | 34.638 | 8.459 | 32.875 | 2 |
| 2025-04-23T01:27:00 | 53.994360 | 6.334148 | 2.0 | 8.652 | 2 | 34.812 | 8.525 | 32.997 | 2 |
| 2025-04-23T01:28:00 | 53.995674 | 6.334058 | 2.0 | 8.705 | 2 | 34.987 | 8.821 | 32.905 | 2 |
| 2025-04-23T01:29:00 | 53.996968 | 6.333932 | 2.0 | 9.119 | 2 | 35.144 | 8.915 | 32.981 | 2 |
| 2025-04-23T01:30:00 | 53.998257 | 6.333878 | 2.0 | 9.161 | 2 | 35.327 | 9.244 | 32.867 | 2 |
| 2025-04-23T01:31:00 | 53.999528 | 6.333921 | 2.0 | 9.035 | 2 | 35.417 | 9.281 | 32.926 | 2 |
| 2025-04-23T01:32:00 | 54.000788 | 6.333988 | 2.0 | 9.025 | 2 | 35.317 | 9.192 | 32.904 | 2 |
| 2025-04-23T01:33:00 | 54.002039 | 6.334052 | 2.0 | 9.045 | 2 | 35.299 | 9.188 | 32.889 | 2 |
| 2025-04-23T01:34:00 | 54.003286 | 6.334074 | 2.0 | 8.986 | 2 | 35.275 | 9.200 | 32.854 | 2 |
| 2025-04-23T01:35:00 | 54.004525 | 6.334068 | 2.0 | 8.893 | 2 | 35.195 | 9.130 | 32.835 | 2 |
| 2025-04-23T01:36:00 | 54.005745 | 6.334010 | 2.0 | 8.881 | 2 | 35.119 | 9.068 | 32.814 | 2 |
| 2025-04-23T01:37:00 | 54.006970 | 6.333955 | 2.0 | 8.980 | 2 | 35.137 | 9.062 | 32.838 | 2 |
| 2025-04-23T01:38:00 | 54.008212 | 6.333965 | 2.0 | 9.079 | 2 | 35.201 | 9.168 | 32.806 | 2 |
| 2025-04-23T01:39:00 | 54.009464 | 6.333999 | 2.0 | 9.076 | 2 | 35.281 | 9.236 | 32.827 | 2 |
| 2025-04-23T01:40:00 | 54.010737 | 6.334016 | 2.0 | 9.081 | 2 | 35.285 | 9.241 | 32.826 | 2 |
| 2025-04-23T01:41:00 | 54.012029 | 6.334026 | 2.0 | 9.038 | 2 | 35.306 | 9.233 | 32.855 | 2 |
| 2025-04-23T01:42:00 | 54.013336 | 6.334038 | 2.0 | 9.027 | 2 | 35.286 | 9.207 | 32.859 | 2 |
| 2025-04-23T01:43:00 | 54.014650 | 6.334033 | 2.0 | 9.085 | 2 | 35.304 | 9.195 | 32.888 | 2 |
| 2025-04-23T01:44:00 | 54.015974 | 6.334047 | 2.0 | 9.075 | 2 | 35.331 | 9.242 | 32.873 | 2 |
| 2025-04-23T01:45:00 | 54.017302 | 6.334066 | 2.0 | 9.039 | 2 | 35.365 | 9.241 | 32.909 | 2 |
| 2025-04-23T01:46:00 | 54.018629 | 6.334075 | 2.0 | 8.998 | 2 | 35.305 | 9.186 | 32.898 | 2 |
| 2025-04-23T01:47:00 | 54.019961 | 6.334087 | 2.0 | 8.935 | 2 | 35.313 | 9.158 | 32.932 | 2 |
| 2025-04-23T01:48:00 | 54.021289 | 6.334095 | 2.0 | 8.944 | 2 | 35.239 | 9.105 | 32.904 | 2 |
| 2025-04-23T01:49:00 | 54.022610 | 6.334059 | 2.0 | 8.948 | 2 | 35.266 | 9.116 | 32.922 | 2 |
| 2025-04-23T01:50:00 | 54.023929 | 6.334010 | 2.0 | 8.933 | 2 | 35.273 | 9.110 | 32.935 | 2 |
| 2025-04-23T01:51:00 | 54.025236 | 6.334005 | 2.0 | 8.887 | 2 | 35.230 | 9.094 | 32.905 | 2 |
| 2025-04-23T01:52:00 | 54.026540 | 6.334054 | 2.0 | 8.837 | 2 | 35.231 | 9.048 | 32.948 | 2 |
| 2025-04-23T01:53:00 | 54.027846 | 6.334100 | 2.0 | 8.812 | 2 | 35.185 | 9.004 | 32.941 | 2 |
| 2025-04-23T01:54:00 | 54.029144 | 6.334115 | 2.0 | 8.799 | 2 | 35.154 | 8.982 | 32.929 | 2 |
| 2025-04-23T01:55:00 | 54.030423 | 6.334095 | 2.0 | 8.801 | 2 | 35.179 | 8.965 | 32.971 | 2 |
| 2025-04-23T01:56:00 | 54.031709 | 6.334054 | 2.0 | 8.817 | 2 | 35.209 | 8.980 | 32.989 | 2 |
| 2025-04-23T01:57:00 | 54.032998 | 6.334033 | 2.0 | 8.806 | 2 | 35.180 | 8.979 | 32.959 | 2 |
| 2025-04-23T01:58:00 | 54.034289 | 6.334041 | 2.0 | 8.823 | 2 | 35.203 | 8.979 | 32.983 | 2 |
| 2025-04-23T01:59:00 | 54.035573 | 6.334060 | 2.0 | 8.822 | 2 | 35.235 | 8.991 | 33.005 | 2 |
| 2025-04-23T02:00:00 | 54.036857 | 6.334068 | 2.0 | 8.827 | 2 | 35.240 | 8.991 | 33.011 | 2 |
| 2025-04-23T02:01:00 | 54.038137 | 6.334063 | 2.0 | 8.841 | 2 | 35.248 | 8.994 | 33.016 | 2 |
| 2025-04-23T02:02:00 | 54.039420 | 6.334052 | 2.0 | 8.863 | 2 | 35.270 | 9.013 | 33.021 | 2 |
| 2025-04-23T02:03:00 | 54.040701 | 6.334040 | 2.0 | 8.866 | 2 | 35.294 | 9.031 | 33.030 | 2 |
| 2025-04-23T02:04:00 | 54.041978 | 6.334035 | 2.0 | 8.859 | 2 | 35.310 | 9.030 | 33.047 | 2 |
| 2025-04-23T02:05:00 | 54.043255 | 6.334035 | 2.0 | 8.875 | 2 | 35.316 | 9.030 | 33.053 | 2 |
| 2025-04-23T02:06:00 | 54.044528 | 6.334032 | 2.0 | 8.879 | 2 | 35.325 | 9.044 | 33.050 | 2 |
| 2025-04-23T02:07:00 | 54.045796 | 6.334057 | 2.0 | 8.873 | 2 | 35.330 | 9.045 | 33.054 | 2 |
| 2025-04-23T02:08:00 | 54.047063 | 6.334070 | 2.0 | 8.906 | 2 | 35.338 | 9.044 | 33.063 | 2 |
| 2025-04-23T02:09:00 | 54.048333 | 6.334058 | 2.0 | 8.910 | 2 | 35.376 | 9.077 | 33.072 | 2 |
| 2025-04-23T02:10:00 | 54.049597 | 6.334038 | 2.0 | 8.933 | 2 | 35.380 | 9.079 | 33.074 | 2 |
| 2025-04-23T02:11:00 | 54.050710 | 6.333545 | 2.0 | 8.937 | 2 | 35.403 | 9.099 | 33.080 | 2 |
| 2025-04-23T02:12:00 | 54.051252 | 6.332090 | 2.0 | 8.909 | 2 | 35.399 | 9.095 | 33.079 | 2 |
| 2025-04-23T02:13:00 | 54.050976 | 6.330271 | 2.0 | 8.892 | 2 | 35.367 | 9.072 | 33.067 | 2 |
| 2025-04-23T02:14:00 | 54.049933 | 6.329017 | 2.0 | 8.881 | 2 | 35.347 | 9.056 | 33.061 | 2 |
| 2025-04-23T02:15:00 | 54.048571 | 6.328816 | 2.0 | 8.859 | 2 | 35.334 | 9.051 | 33.053 | 2 |
| 2025-04-23T02:16:00 | 54.047196 | 6.328778 | 2.0 | 8.832 | 2 | 35.305 | 9.021 | 33.050 | 2 |
| 2025-04-23T02:17:00 | 54.045834 | 6.328577 | 2.0 | 8.830 | 2 | 35.271 | 9.002 | 33.033 | 2 |
| 2025-04-23T02:18:00 | 54.044446 | 6.328648 | 2.0 | 8.814 | 2 | 35.245 | 8.997 | 33.010 | 2 |
| 2025-04-23T02:19:00 | 54.043045 | 6.328764 | 2.0 | 8.782 | 2 | 35.237 | 8.977 | 33.020 | 2 |
| 2025-04-23T02:20:00 | 54.041651 | 6.328733 | 2.0 | 8.763 | 2 | 35.106 | 8.950 | 32.909 | 2 |
| 2025-04-23T02:21:00 | 54.040259 | 6.328667 | 2.0 | 8.773 | 2 | 35.184 | 8.939 | 33.001 | 2 |
| 2025-04-23T02:22:00 | 54.038858 | 6.328665 | 2.0 | 8.759 | 2 | 35.177 | 8.935 | 32.997 | 2 |
| 2025-04-23T02:23:00 | 54.037452 | 6.328695 | 2.0 | 8.793 | 2 | 34.974 | 8.935 | 32.786 | 2 |
| 2025-04-23T02:24:00 | 54.036046 | 6.328722 | 2.0 | 8.784 | 2 | 35.096 | 8.964 | 32.886 | 2 |
| 2025-04-23T02:25:00 | 54.034644 | 6.328728 | 2.0 | 8.767 | 2 | 35.173 | 8.943 | 32.985 | 2 |
| 2025-04-23T02:26:00 | 54.033245 | 6.328703 | 2.0 | 8.780 | 2 | 35.066 | 8.939 | 32.878 | 2 |
| 2025-04-23T02:27:00 | 54.031841 | 6.328688 | 2.0 | 8.810 | 2 | 35.156 | 8.950 | 32.961 | 2 |
| 2025-04-23T02:28:00 | 54.030440 | 6.328695 | 2.0 | 8.826 | 2 | 35.196 | 8.984 | 32.971 | 2 |
| 2025-04-23T02:29:00 | 54.029041 | 6.328707 | 2.0 | 8.813 | 2 | 35.081 | 8.991 | 32.845 | 2 |
| 2025-04-23T02:30:00 | 54.027645 | 6.328701 | 2.0 | 8.817 | 2 | 35.079 | 8.974 | 32.859 | 2 |
| 2025-04-23T02:31:00 | 54.026253 | 6.328690 | 2.0 | 8.753 | 2 | 35.072 | 8.976 | 32.850 | 2 |
| 2025-04-23T02:32:00 | 54.024866 | 6.328658 | 2.0 | 8.729 | 2 | 35.083 | 8.901 | 32.931 | 2 |
| 2025-04-23T02:33:00 | 54.023483 | 6.328645 | 2.0 | 8.913 | 2 | 35.172 | 8.945 | 32.982 | 2 |
| 2025-04-23T02:34:00 | 54.022108 | 6.328663 | 2.0 | 8.997 | 2 | 35.294 | 9.083 | 32.981 | 2 |
| 2025-04-23T02:35:00 | 54.020740 | 6.328668 | 2.0 | 9.035 | 2 | 35.244 | 9.163 | 32.856 | 2 |
| 2025-04-23T02:36:00 | 54.019378 | 6.328655 | 2.0 | 9.045 | 2 | 35.385 | 9.188 | 32.979 | 2 |
| 2025-04-23T02:37:00 | 54.018022 | 6.328620 | 2.0 | 9.069 | 2 | 35.385 | 9.208 | 32.960 | 2 |
| 2025-04-23T02:38:00 | 54.016668 | 6.328617 | 2.0 | 9.031 | 2 | 35.409 | 9.213 | 32.980 | 2 |
| 2025-04-23T02:39:00 | 54.015318 | 6.328611 | 2.0 | 9.064 | 2 | 35.396 | 9.199 | 32.980 | 2 |
| 2025-04-23T02:40:00 | 54.013972 | 6.328596 | 2.0 | 9.103 | 2 | 35.315 | 9.231 | 32.866 | 2 |
| 2025-04-23T02:41:00 | 54.012626 | 6.328578 | 2.0 | 9.069 | 2 | 35.425 | 9.271 | 32.943 | 2 |
| 2025-04-23T02:42:00 | 54.011283 | 6.328555 | 2.0 | 8.914 | 2 | 35.378 | 9.171 | 32.987 | 2 |
| 2025-04-23T02:43:00 | 54.009941 | 6.328574 | 2.0 | 8.976 | 2 | 35.305 | 9.105 | 32.972 | 2 |
| 2025-04-23T02:44:00 | 54.008606 | 6.328604 | 2.0 | 9.037 | 2 | 35.205 | 9.153 | 32.824 | 2 |
| 2025-04-23T02:45:00 | 54.007269 | 6.328629 | 2.0 | 8.997 | 2 | 35.225 | 9.182 | 32.818 | 2 |
| 2025-04-23T02:46:00 | 54.005936 | 6.328640 | 2.0 | 8.997 | 2 | 35.283 | 9.165 | 32.894 | 2 |
| 2025-04-23T02:47:00 | 54.004606 | 6.328653 | 2.0 | 8.978 | 2 | 35.214 | 9.160 | 32.827 | 2 |
| 2025-04-23T02:48:00 | 54.003276 | 6.328644 | 2.0 | 8.996 | 2 | 35.234 | 9.152 | 32.855 | 2 |
| 2025-04-23T02:49:00 | 54.001944 | 6.328613 | 2.0 | 8.991 | 2 | 35.265 | 9.162 | 32.878 | 2 |
| 2025-04-23T02:50:00 | 54.000609 | 6.328602 | 2.0 | 8.987 | 2 | 35.233 | 9.155 | 32.852 | 2 |
| 2025-04-23T02:51:00 | 53.999269 | 6.328598 | 2.0 | 9.038 | 2 | 35.244 | 9.165 | 32.854 | 2 |
| 2025-04-23T02:52:00 | 53.997932 | 6.328575 | 2.0 | 9.118 | 2 | 35.315 | 9.220 | 32.877 | 2 |
| 2025-04-23T02:53:00 | 53.996594 | 6.328576 | 2.0 | 9.155 | 2 | 35.322 | 9.293 | 32.817 | 2 |
| 2025-04-23T02:54:00 | 53.995249 | 6.328598 | 2.0 | 9.164 | 2 | 35.393 | 9.319 | 32.866 | 2 |
| 2025-04-23T02:55:00 | 53.993904 | 6.328624 | 2.0 | 9.169 | 2 | 35.387 | 9.328 | 32.852 | 2 |
| 2025-04-23T02:56:00 | 53.992565 | 6.328615 | 2.0 | 9.146 | 2 | 35.368 | 9.329 | 32.831 | 2 |
| 2025-04-23T02:57:00 | 53.991224 | 6.328600 | 2.0 | 9.054 | 2 | 35.333 | 9.295 | 32.826 | 2 |
| 2025-04-23T02:58:00 | 53.989890 | 6.328582 | 2.0 | 9.065 | 2 | 35.305 | 9.222 | 32.864 | 2 |
| 2025-04-23T02:59:00 | 53.988559 | 6.328591 | 2.0 | 9.035 | 2 | 35.325 | 9.238 | 32.870 | 2 |
| 2025-04-23T03:00:00 | 53.987229 | 6.328599 | 2.0 | 9.062 | 2 | 35.309 | 9.211 | 32.879 | 2 |
| 2025-04-23T03:01:00 | 53.985904 | 6.328586 | 2.0 | 9.051 | 2 | 35.322 | 9.227 | 32.877 | 2 |
| 2025-04-23T03:02:00 | 53.984577 | 6.328557 | 2.0 | 9.130 | 2 | 35.360 | 9.236 | 32.908 | 2 |
| 2025-04-23T03:03:00 | 53.983247 | 6.328548 | 2.0 | 9.129 | 2 | 35.363 | 9.293 | 32.859 | 2 |
| 2025-04-23T03:04:00 | 53.981904 | 6.328550 | 2.0 | 9.176 | 2 | 35.395 | 9.295 | 32.890 | 2 |
| 2025-04-23T03:05:00 | 53.980552 | 6.328573 | 2.0 | 9.275 | 2 | 35.401 | 9.359 | 32.837 | 2 |
| 2025-04-23T03:06:00 | 53.979195 | 6.328602 | 2.0 | 9.318 | 2 | 35.491 | 9.444 | 32.852 | 2 |
| 2025-04-23T03:07:00 | 53.977832 | 6.328652 | 2.0 | 9.336 | 2 | 35.482 | 9.481 | 32.809 | 2 |
| 2025-04-23T03:08:00 | 53.976472 | 6.328646 | 2.0 | 9.362 | 2 | 35.498 | 9.505 | 32.803 | 2 |
| 2025-04-23T03:09:00 | 53.975285 | 6.327982 | 2.0 | 9.373 | 2 | 35.500 | 9.525 | 32.787 | 2 |
| 2025-04-23T03:10:00 | 53.974419 | 6.326677 | 2.0 | 9.383 | 2 | 35.473 | 9.539 | 32.747 | 2 |
| 2025-04-23T03:11:00 | 53.973527 | 6.325287 | 2.0 | 9.373 | 2 | 35.502 | 9.544 | 32.772 | 2 |
| 2025-04-23T03:12:00 | 53.972474 | 6.324056 | 2.0 | 9.146 | 2 | 35.459 | 9.523 | 32.747 | 2 |
| 2025-04-23T03:13:00 | 53.971379 | 6.322818 | 2.0 | 9.140 | 2 | 35.268 | 9.296 | 32.758 | 2 |
| 2025-04-23T03:14:00 | 53.970296 | 6.321504 | 2.0 | 9.124 | 2 | 35.279 | 9.332 | 32.736 | 2 |
| 2025-04-23T03:15:00 | 53.969219 | 6.320167 | 2.0 | 9.073 | 2 | 35.235 | 9.278 | 32.741 | 2 |
| 2025-04-23T03:16:00 | 53.968128 | 6.318834 | 2.0 | 9.100 | 2 | 35.223 | 9.253 | 32.751 | 2 |
| 2025-04-23T03:17:00 | 53.966973 | 6.317480 | 2.0 | 9.082 | 2 | 35.269 | 9.269 | 32.784 | 2 |
| 2025-04-23T03:18:00 | 53.965749 | 6.316065 | 2.0 | 8.924 | 2 | 35.260 | 9.240 | 32.801 | 2 |
| 2025-04-23T03:19:00 | 53.964502 | 6.314581 | 2.0 | 8.624 | 2 | 35.038 | 8.995 | 32.797 | 2 |
| 2025-04-23T03:20:00 | 53.963255 | 6.313051 | 2.0 | 8.719 | 2 | 34.858 | 8.829 | 32.762 | 2 |
| 2025-04-23T03:21:00 | 53.962016 | 6.311558 | 2.0 | 8.753 | 2 | 34.919 | 8.905 | 32.756 | 2 |
| 2025-04-23T03:22:00 | 53.960772 | 6.310085 | 2.0 | 8.707 | 2 | 34.941 | 8.914 | 32.771 | 2 |
| 2025-04-23T03:23:00 | 53.959528 | 6.308573 | 2.0 | 8.722 | 2 | 34.958 | 8.884 | 32.816 | 2 |
| 2025-04-23T03:24:00 | 53.958264 | 6.307077 | 2.0 | 8.894 | 2 | 35.027 | 8.893 | 32.880 | 2 |
| 2025-04-23T03:25:00 | 53.956979 | 6.305615 | 2.0 | 9.024 | 2 | 35.239 | 9.092 | 32.916 | 2 |
| 2025-04-23T03:26:00 | 53.955703 | 6.304146 | 2.0 | 8.995 | 2 | 35.343 | 9.167 | 32.954 | 2 |
| 2025-04-23T03:27:00 | 53.954441 | 6.302673 | 2.0 | 8.982 | 2 | 35.332 | 9.159 | 32.950 | 2 |
| 2025-04-23T03:28:00 | 53.953219 | 6.301154 | 2.0 | 8.921 | 2 | 35.314 | 9.142 | 32.948 | 2 |
| 2025-04-23T03:29:00 | 53.952002 | 6.299640 | 2.0 | 8.759 | 2 | 35.235 | 9.049 | 32.952 | 2 |
| 2025-04-23T03:30:00 | 53.950767 | 6.298158 | 2.0 | 8.742 | 2 | 35.108 | 8.920 | 32.939 | 2 |
| 2025-04-23T03:31:00 | 53.949516 | 6.296709 | 2.0 | 8.738 | 2 | 35.081 | 8.900 | 32.929 | 2 |
| 2025-04-23T03:32:00 | 53.948265 | 6.295234 | 2.0 | 8.840 | 2 | 35.084 | 8.909 | 32.924 | 2 |
| 2025-04-23T03:33:00 | 53.947023 | 6.293728 | 2.0 | 9.038 | 2 | 35.206 | 9.041 | 32.929 | 2 |
| 2025-04-23T03:34:00 | 53.945773 | 6.292245 | 2.0 | 9.055 | 2 | 35.378 | 9.215 | 32.946 | 2 |
| 2025-04-23T03:35:00 | 53.944499 | 6.290809 | 2.0 | 8.974 | 2 | 35.368 | 9.194 | 32.955 | 2 |
| 2025-04-23T03:36:00 | 53.943231 | 6.289364 | 2.0 | 8.938 | 2 | 35.270 | 9.142 | 32.902 | 2 |
| 2025-04-23T03:37:00 | 53.942009 | 6.287856 | 2.0 | 8.813 | 2 | 35.195 | 9.075 | 32.886 | 2 |
| 2025-04-23T03:38:00 | 53.940794 | 6.286352 | 2.0 | 8.830 | 2 | 35.094 | 8.978 | 32.871 | 2 |
| 2025-04-23T03:39:00 | 53.939554 | 6.284900 | 2.0 | 8.933 | 2 | 35.114 | 9.014 | 32.858 | 2 |
| 2025-04-23T03:40:00 | 53.938310 | 6.283457 | 2.0 | 8.986 | 2 | 35.192 | 9.108 | 32.852 | 2 |
| 2025-04-23T03:41:00 | 53.937075 | 6.282005 | 2.0 | 8.984 | 2 | 35.224 | 9.143 | 32.853 | 2 |
| 2025-04-23T03:42:00 | 53.935851 | 6.280528 | 2.0 | 8.897 | 2 | 35.206 | 9.151 | 32.827 | 2 |
| 2025-04-23T03:43:00 | 53.934636 | 6.279043 | 2.0 | 8.767 | 2 | 35.083 | 9.039 | 32.803 | 2 |
| 2025-04-23T03:44:00 | 53.933394 | 6.277613 | 2.0 | 8.598 | 2 | 34.924 | 8.892 | 32.773 | 2 |
| 2025-04-23T03:45:00 | 53.932149 | 6.276196 | 2.0 | 8.486 | 2 | 34.796 | 8.771 | 32.751 | 2 |
| 2025-04-23T03:46:00 | 53.930902 | 6.274784 | 2.0 | 8.465 | 2 | 34.679 | 8.661 | 32.731 | 2 |
| 2025-04-23T03:47:00 | 53.929657 | 6.273370 | 2.0 | 8.446 | 2 | 34.641 | 8.637 | 32.713 | 2 |
| 2025-04-23T03:48:00 | 53.928420 | 6.271943 | 2.0 | 8.420 | 2 | 34.615 | 8.616 | 32.705 | 2 |
| 2025-04-23T03:49:00 | 53.927189 | 6.270497 | 2.0 | 8.512 | 2 | 34.595 | 8.600 | 32.699 | 2 |
| 2025-04-23T03:50:00 | 53.925946 | 6.269052 | 2.0 | 8.569 | 2 | 34.678 | 8.695 | 32.698 | 2 |
| 2025-04-23T03:51:00 | 53.924681 | 6.267645 | 2.0 | 8.658 | 2 | 34.735 | 8.752 | 32.705 | 2 |
| 2025-04-23T03:52:00 | 53.923412 | 6.266237 | 2.0 | 8.675 | 2 | 34.814 | 8.825 | 32.720 | 2 |
| 2025-04-23T03:53:00 | 53.922156 | 6.264783 | 2.0 | 8.708 | 2 | 34.830 | 8.850 | 32.714 | 2 |
| 2025-04-23T03:54:00 | 53.920927 | 6.263297 | 2.0 | 8.720 | 2 | 34.851 | 8.877 | 32.711 | 2 |
| 2025-04-23T03:55:00 | 53.919737 | 6.261930 | 2.0 | 8.662 | 2 | 34.857 | 8.880 | 32.714 | 2 |
| 2025-04-23T03:56:00 | 53.918589 | 6.260657 | 2.0 | 8.545 | 2 | 34.806 | 8.810 | 32.726 | 2 |
| 2025-04-23T03:57:00 | 53.917552 | 6.259318 | 2.0 | 8.447 | 2 | 34.707 | 8.682 | 32.741 | 2 |
| 2025-04-23T03:58:00 | 53.916666 | 6.257815 | 2.0 | 8.405 | 2 | 34.648 | 8.610 | 32.745 | 2 |
| 2025-04-23T03:59:00 | 53.915758 | 6.256395 | 2.0 | 8.416 | 2 | 34.620 | 8.584 | 32.740 | 2 |
| 2025-04-23T04:00:00 | 53.914823 | 6.255048 | 2.0 | 8.417 | 2 | 34.621 | 8.591 | 32.735 | 2 |
| 2025-04-23T04:01:00 | 53.913900 | 6.253692 | 2.0 | 8.412 | 2 | 34.620 | 8.593 | 32.732 | 2 |
| 2025-04-23T04:02:00 | 53.913010 | 6.252277 | 2.0 | 8.443 | 2 | 34.613 | 8.588 | 32.729 | 2 |
| 2025-04-23T04:03:00 | 53.912277 | 6.250557 | 2.0 | 8.513 | 2 | 34.636 | 8.625 | 32.719 | 2 |
| 2025-04-23T04:04:00 | 53.911748 | 6.248528 | 2.0 | 8.654 | 2 | 34.702 | 8.703 | 32.716 | 2 |
| 2025-04-23T04:05:00 | 53.911354 | 6.246373 | 2.0 | 8.720 | 2 | 34.852 | 8.836 | 32.750 | 2 |
| 2025-04-23T04:06:00 | 53.910955 | 6.244256 | 2.0 | 8.728 | 2 | 34.914 | 8.883 | 32.771 | 2 |
| 2025-04-23T04:07:00 | 53.910869 | 6.242063 | 2.0 | 8.753 | 2 | 34.930 | 8.896 | 32.776 | 2 |
| 2025-04-23T04:08:00 | 53.910815 | 6.239857 | 2.0 | 8.817 | 2 | 34.958 | 8.928 | 32.775 | 2 |
| 2025-04-23T04:09:00 | 53.910759 | 6.237644 | 2.0 | 8.829 | 2 | 35.003 | 8.985 | 32.770 | 2 |
| 2025-04-23T04:10:00 | 53.910745 | 6.235424 | 2.0 | 8.778 | 2 | 35.011 | 8.985 | 32.778 | 2 |
| 2025-04-23T04:11:00 | 53.910740 | 6.233203 | 2.0 | 8.747 | 2 | 34.972 | 8.923 | 32.795 | 2 |
| 2025-04-23T04:12:00 | 53.910750 | 6.230985 | 2.0 | 8.840 | 2 | 34.991 | 8.935 | 32.803 | 2 |
| 2025-04-23T04:13:00 | 53.911283 | 6.229091 | 2.0 | 8.846 | 2 | 35.077 | 9.001 | 32.832 | 2 |
| 2025-04-23T04:14:00 | 53.912216 | 6.227696 | 2.0 | 8.821 | 2 | 35.104 | 9.005 | 32.856 | 2 |
| 2025-04-23T04:15:00 | 53.912967 | 6.226105 | 2.0 | 8.781 | 2 | 35.080 | 8.983 | 32.852 | 2 |
| 2025-04-23T04:16:00 | 53.912935 | 6.224235 | 2.0 | 8.794 | 2 | 35.056 | 8.949 | 32.858 | 2 |
| 2025-04-23T04:17:00 | 53.912077 | 6.222951 | 2.0 | 8.844 | 2 | 34.880 | 8.981 | 32.645 | 2 |
| 2025-04-23T04:18:00 | 53.910876 | 6.223128 | 2.0 | 8.798 | 2 | 35.108 | 8.991 | 32.873 | 2 |
| 2025-04-23T04:19:00 | 53.910059 | 6.224660 | 2.0 | 8.852 | 2 | 35.147 | 8.970 | 32.933 | 2 |
| 2025-04-23T04:20:00 | 53.910032 | 6.226600 | 2.0 | 8.854 | 2 | 35.114 | 9.019 | 32.854 | 2 |
| 2025-04-23T04:21:00 | 53.910122 | 6.228703 | 2.0 | 8.811 | 2 | 34.949 | 9.007 | 32.693 | 2 |
| 2025-04-23T04:22:00 | 53.910128 | 6.230912 | 2.0 | 8.821 | 2 | 34.977 | 8.981 | 32.746 | 2 |
| 2025-04-23T04:23:00 | 53.910151 | 6.233097 | 2.0 | 8.858 | 2 | 35.105 | 8.997 | 32.865 | 2 |
| 2025-04-23T04:24:00 | 53.910166 | 6.235245 | 2.0 | 8.847 | 2 | 35.006 | 9.024 | 32.737 | 2 |
| 2025-04-23T04:25:00 | 53.910161 | 6.237364 | 2.0 | 8.789 | 2 | 34.862 | 9.002 | 32.607 | 2 |
| 2025-04-23T04:26:00 | 53.910163 | 6.239464 | 2.0 | 8.759 | 2 | 34.984 | 8.959 | 32.774 | 2 |
| 2025-04-23T04:27:00 | 53.910174 | 6.241552 | 2.0 | 8.703 | 2 | 34.973 | 8.917 | 32.801 | 2 |
| 2025-04-23T04:28:00 | 53.910190 | 6.243626 | 2.0 | 8.718 | 2 | 34.943 | 8.874 | 32.810 | 2 |
| 2025-04-23T04:29:00 | 53.910213 | 6.245687 | 2.0 | 8.756 | 2 | 34.966 | 8.894 | 32.815 | 2 |
| 2025-04-23T04:30:00 | 53.910232 | 6.247730 | 2.0 | 8.747 | 2 | 34.986 | 8.927 | 32.805 | 2 |
| 2025-04-23T04:31:00 | 53.910234 | 6.249764 | 2.0 | 8.749 | 2 | 34.769 | 8.917 | 32.589 | 2 |
| 2025-04-23T04:32:00 | 53.910223 | 6.251795 | 2.0 | 8.741 | 2 | 34.721 | 8.913 | 32.542 | 2 |
| 2025-04-23T04:33:00 | 53.910276 | 6.253815 | 2.0 | 8.727 | 2 | 34.918 | 8.909 | 32.751 | 2 |
| 2025-04-23T04:34:00 | 53.910577 | 6.255768 | 2.0 | 8.716 | 2 | 34.778 | 8.898 | 32.615 | 2 |
| 2025-04-23T04:35:00 | 53.911171 | 6.257554 | 2.0 | 8.650 | 2 | 34.922 | 8.878 | 32.784 | 2 |
| 2025-04-23T04:36:00 | 53.912032 | 6.259081 | 2.0 | 8.562 | 2 | 34.823 | 8.805 | 32.748 | 2 |
| 2025-04-23T04:37:00 | 53.913147 | 6.260306 | 2.0 | 8.531 | 2 | 34.674 | 8.730 | 32.662 | 2 |
| 2025-04-23T04:38:00 | 53.914463 | 6.261423 | 2.0 | 8.490 | 2 | 34.587 | 8.700 | 32.598 | 2 |
| 2025-04-23T04:39:00 | 53.915848 | 6.262686 | 2.0 | 8.446 | 2 | 34.544 | 8.656 | 32.594 | 2 |
| 2025-04-23T04:40:00 | 53.917249 | 6.263985 | 2.0 | 8.429 | 2 | 34.555 | 8.611 | 32.647 | 2 |
| 2025-04-23T04:41:00 | 53.918664 | 6.265192 | 2.0 | 8.432 | 2 | 34.623 | 8.613 | 32.716 | 2 |
| 2025-04-23T04:42:00 | 53.920068 | 6.266399 | 2.0 | 8.434 | 2 | 34.631 | 8.601 | 32.736 | 2 |
| 2025-04-23T04:43:00 | 53.921442 | 6.267618 | 2.0 | 8.438 | 2 | 34.627 | 8.604 | 32.729 | 2 |
| 2025-04-23T04:44:00 | 53.922803 | 6.268778 | 2.0 | 8.457 | 2 | 34.570 | 8.608 | 32.665 | 2 |
| 2025-04-23T04:45:00 | 53.924160 | 6.269922 | 2.0 | 8.545 | 2 | 34.574 | 8.643 | 32.637 | 2 |
| 2025-04-23T04:46:00 | 53.925498 | 6.271072 | 2.0 | 8.575 | 2 | 34.617 | 8.717 | 32.614 | 2 |
| 2025-04-23T04:47:00 | 53.926808 | 6.272258 | 2.0 | 8.601 | 2 | 34.707 | 8.736 | 32.691 | 2 |
| 2025-04-23T04:48:00 | 53.928087 | 6.273464 | 2.0 | 8.664 | 2 | 34.632 | 8.786 | 32.566 | 2 |
| 2025-04-23T04:49:00 | 53.929368 | 6.274617 | 2.0 | 8.648 | 2 | 34.729 | 8.829 | 32.628 | 2 |
| 2025-04-23T04:50:00 | 53.930672 | 6.275719 | 2.0 | 8.585 | 2 | 34.712 | 8.804 | 32.633 | 2 |
| 2025-04-23T04:51:00 | 53.931989 | 6.276807 | 2.0 | 8.569 | 2 | 34.675 | 8.756 | 32.639 | 2 |
| 2025-04-23T04:52:00 | 53.933310 | 6.277920 | 2.0 | 8.557 | 2 | 34.627 | 8.737 | 32.606 | 2 |
| 2025-04-23T04:53:00 | 53.934623 | 6.279074 | 2.0 | 8.548 | 2 | 34.656 | 8.723 | 32.649 | 2 |
| 2025-04-23T04:54:00 | 53.935930 | 6.280263 | 2.0 | 8.543 | 2 | 34.668 | 8.714 | 32.670 | 2 |
| 2025-04-23T04:55:00 | 53.937242 | 6.281440 | 2.0 | 8.587 | 2 | 34.637 | 8.722 | 32.630 | 2 |
| 2025-04-23T04:56:00 | 53.938566 | 6.282564 | 2.0 | 8.578 | 2 | 34.612 | 8.753 | 32.576 | 2 |
| 2025-04-23T04:57:00 | 53.939894 | 6.283671 | 2.0 | 8.625 | 2 | 34.693 | 8.749 | 32.664 | 2 |
| 2025-04-23T04:58:00 | 53.941220 | 6.284789 | 2.0 | 8.662 | 2 | 34.715 | 8.807 | 32.634 | 2 |
| 2025-04-23T04:59:00 | 53.942535 | 6.285947 | 2.0 | 8.686 | 2 | 34.747 | 8.824 | 32.651 | 2 |
| 2025-04-23T05:00:00 | 53.943860 | 6.287082 | 2.0 | 8.851 | 2 | 34.787 | 8.884 | 32.638 | 2 |
| 2025-04-23T05:01:00 | 53.945183 | 6.288223 | 2.0 | 8.892 | 2 | 34.967 | 9.016 | 32.704 | 2 |
| 2025-04-23T05:02:00 | 53.946502 | 6.289374 | 2.0 | 8.869 | 2 | 34.987 | 9.047 | 32.696 | 2 |
| 2025-04-23T05:03:00 | 53.947824 | 6.290517 | 2.0 | 8.835 | 2 | 35.006 | 9.023 | 32.738 | 2 |
| 2025-04-23T05:04:00 | 53.949151 | 6.291638 | 2.0 | 8.740 | 2 | 35.000 | 8.993 | 32.759 | 2 |
| 2025-04-23T05:05:00 | 53.950476 | 6.292783 | 2.0 | 8.750 | 2 | 34.924 | 8.898 | 32.768 | 2 |
| 2025-04-23T05:06:00 | 53.951787 | 6.293960 | 2.0 | 8.923 | 2 | 35.010 | 8.964 | 32.796 | 2 |
| 2025-04-23T05:07:00 | 53.953097 | 6.295121 | 2.0 | 8.932 | 2 | 35.154 | 9.080 | 32.839 | 2 |
| 2025-04-23T05:08:00 | 53.954418 | 6.296186 | 2.0 | 9.015 | 2 | 35.214 | 9.106 | 32.877 | 2 |
| 2025-04-23T05:09:00 | 53.955745 | 6.297213 | 2.0 | 9.036 | 2 | 35.306 | 9.193 | 32.892 | 2 |
| 2025-04-23T05:10:00 | 53.957040 | 6.298355 | 2.0 | 8.793 | 2 | 35.325 | 9.146 | 32.955 | 2 |
| 2025-04-23T05:11:00 | 53.958326 | 6.299525 | 2.0 | 8.681 | 2 | 35.121 | 8.963 | 32.913 | 2 |
| 2025-04-23T05:12:00 | 53.959627 | 6.300643 | 2.0 | 8.520 | 2 | 35.005 | 8.830 | 32.915 | 2 |
| 2025-04-23T05:13:00 | 53.960944 | 6.301710 | 2.0 | 8.537 | 2 | 34.871 | 8.695 | 32.900 | 2 |
| 2025-04-23T05:14:00 | 53.962261 | 6.302807 | 2.0 | 8.597 | 2 | 34.889 | 8.720 | 32.896 | 2 |
| 2025-04-23T05:15:00 | 53.963567 | 6.303973 | 2.0 | 8.605 | 2 | 34.942 | 8.769 | 32.906 | 2 |
| 2025-04-23T05:16:00 | 53.964884 | 6.305140 | 2.0 | 8.579 | 2 | 34.931 | 8.772 | 32.892 | 2 |
| 2025-04-23T05:17:00 | 53.966216 | 6.306264 | 2.0 | 8.532 | 2 | 34.880 | 8.740 | 32.868 | 2 |
| 2025-04-23T05:18:00 | 53.967555 | 6.307381 | 2.0 | 8.508 | 2 | 34.797 | 8.697 | 32.821 | 2 |
| 2025-04-23T05:19:00 | 53.968887 | 6.308533 | 2.0 | 8.562 | 2 | 34.752 | 8.688 | 32.782 | 2 |
| 2025-04-23T05:20:00 | 53.970212 | 6.309723 | 2.0 | 8.612 | 2 | 34.779 | 8.736 | 32.766 | 2 |
| 2025-04-23T05:21:00 | 53.971534 | 6.310906 | 2.0 | 8.563 | 2 | 34.813 | 8.780 | 32.761 | 2 |
| 2025-04-23T05:22:00 | 53.972868 | 6.312076 | 2.0 | 8.497 | 2 | 34.765 | 8.719 | 32.767 | 2 |
| 2025-04-23T05:23:00 | 53.974269 | 6.313271 | 2.0 | 8.568 | 2 | 34.723 | 8.685 | 32.755 | 2 |
| 2025-04-23T05:24:00 | 53.975634 | 6.314446 | 2.0 | 8.639 | 2 | 34.755 | 8.748 | 32.730 | 2 |
| 2025-04-23T05:25:00 | 53.976985 | 6.315591 | 2.0 | 8.674 | 2 | 34.854 | 8.817 | 32.769 | 2 |
| 2025-04-23T05:26:00 | 53.978322 | 6.316732 | 2.0 | 8.722 | 2 | 34.897 | 8.848 | 32.786 | 2 |
| 2025-04-23T05:27:00 | 53.979649 | 6.317879 | 2.0 | 8.846 | 2 | 34.950 | 8.908 | 32.785 | 2 |
| 2025-04-23T05:28:00 | 53.980968 | 6.319021 | 2.0 | 8.887 | 2 | 35.056 | 9.015 | 32.797 | 2 |
| 2025-04-23T05:29:00 | 53.982275 | 6.320135 | 2.0 | 8.975 | 2 | 35.109 | 9.055 | 32.815 | 2 |
| 2025-04-23T05:30:00 | 53.983473 | 6.321177 | 2.0 | 8.972 | 2 | 35.197 | 9.138 | 32.830 | 2 |
| 2025-04-23T05:31:00 | 53.984783 | 6.322288 | 2.0 | 8.921 | 2 | 35.182 | 9.123 | 32.828 | 2 |
| 2025-04-23T05:32:00 | 53.986419 | 6.323614 | 2.0 | 8.884 | 2 | 35.118 | 9.078 | 32.803 | 2 |
| 2025-04-23T05:33:00 | 53.988530 | 6.325260 | 2.0 | 8.883 | 2 | 35.071 | 9.049 | 32.781 | 2 |
| 2025-04-23T05:34:00 | 53.991033 | 6.327193 | 2.0 | 8.884 | 2 | 35.075 | 9.050 | 32.784 | 2 |
| 2025-04-23T05:35:00 | 53.993669 | 6.329231 | 2.0 | 8.916 | 2 | 35.086 | 9.059 | 32.788 | 2 |
| 2025-04-23T05:36:00 | 53.996342 | 6.331277 | 2.0 | 8.946 | 2 | 35.115 | 9.090 | 32.789 | 2 |
| 2025-04-23T05:37:00 | 53.999017 | 6.333339 | 2.0 | 8.866 | 2 | 35.140 | 9.101 | 32.805 | 2 |
| 2025-04-23T05:38:00 | 54.001698 | 6.335385 | 2.0 | 8.905 | 2 | 35.116 | 9.044 | 32.833 | 2 |
| 2025-04-23T05:39:00 | 54.004373 | 6.337440 | 2.0 | 8.930 | 2 | 35.165 | 9.083 | 32.847 | 2 |
| 2025-04-23T05:40:00 | 54.007048 | 6.339490 | 2.0 | 8.971 | 2 | 35.190 | 9.090 | 32.867 | 2 |
| 2025-04-23T05:41:00 | 54.009734 | 6.341538 | 2.0 | 9.029 | 2 | 35.245 | 9.144 | 32.874 | 2 |
| 2025-04-23T05:42:00 | 54.012429 | 6.343575 | 2.0 | 9.001 | 2 | 35.311 | 9.194 | 32.896 | 2 |
| 2025-04-23T05:43:00 | 54.015124 | 6.345600 | 2.0 | 8.962 | 2 | 35.306 | 9.162 | 32.921 | 2 |
| 2025-04-23T05:44:00 | 54.017820 | 6.347635 | 2.0 | 8.889 | 2 | 35.269 | 9.115 | 32.926 | 2 |
| 2025-04-23T05:45:00 | 54.020512 | 6.349674 | 2.0 | 8.810 | 2 | 35.219 | 9.040 | 32.943 | 2 |
| 2025-04-23T05:46:00 | 54.023192 | 6.351695 | 2.0 | 8.781 | 2 | 35.170 | 8.974 | 32.954 | 2 |
| 2025-04-23T05:47:00 | 54.025774 | 6.353654 | 2.0 | 8.777 | 2 | 35.147 | 8.951 | 32.951 | 2 |
| 2025-04-23T05:48:00 | 54.028296 | 6.355557 | 2.0 | 8.737 | 2 | 35.139 | 8.939 | 32.954 | 2 |
| 2025-04-23T05:49:00 | 54.030813 | 6.357472 | 2.0 | 8.670 | 2 | 35.108 | 8.900 | 32.958 | 2 |
| 2025-04-23T05:50:00 | 54.033302 | 6.359361 | 2.0 | 8.654 | 2 | 35.060 | 8.840 | 32.963 | 2 |
| 2025-04-23T05:51:00 | 54.035783 | 6.361261 | 2.0 | 8.662 | 2 | 35.051 | 8.832 | 32.961 | 2 |
| 2025-04-23T05:52:00 | 54.038115 | 6.363073 | 2.0 | 8.635 | 2 | 35.058 | 8.846 | 32.956 | 2 |
| 2025-04-23T05:53:00 | 54.039868 | 6.364449 | 2.0 | 8.636 | 2 | 35.048 | 8.826 | 32.964 | 2 |
| 2025-04-23T05:54:00 | 54.041342 | 6.365645 | 2.0 | 8.601 | 2 | 35.051 | 8.823 | 32.970 | 2 |
| 2025-04-23T05:55:00 | 54.042682 | 6.366608 | 2.0 | 8.543 | 2 | 35.021 | 8.777 | 32.981 | 2 |
| 2025-04-23T05:56:00 | 54.043197 | 6.365917 | 2.0 | 8.570 | 2 | 34.991 | 8.748 | 32.977 | 2 |
| 2025-04-23T05:57:00 | 54.043258 | 6.364944 | 2.0 | 8.573 | 2 | 35.009 | 8.766 | 32.979 | 2 |
| 2025-04-23T05:58:00 | 54.043355 | 6.364087 | 2.0 | 8.585 | 2 | 35.011 | 8.766 | 32.981 | 2 |
| 2025-04-23T05:59:00 | 54.043358 | 6.363458 | 2.0 | 8.598 | 2 | 35.020 | 8.779 | 32.978 | 2 |
| 2025-04-23T06:00:00 | 54.043331 | 6.363335 | 2.0 | 8.603 | 2 | 35.031 | 8.791 | 32.979 | 2 |
| 2025-04-23T06:01:00 | 54.043326 | 6.363254 | 2.0 | 8.602 | 2 | 34.896 | 8.798 | 32.831 | 2 |
| 2025-04-23T06:02:00 | 54.043312 | 6.363103 | 2.0 | 8.597 | 2 | 35.001 | 8.795 | 32.943 | 2 |
| 2025-04-23T06:03:00 | 54.043397 | 6.362652 | 2.0 | 8.592 | 2 | 35.030 | 8.790 | 32.978 | 2 |
| 2025-04-23T06:04:00 | 54.043624 | 6.362364 | 2.0 | 8.594 | 2 | 34.858 | 8.787 | 32.801 | 2 |
| 2025-04-23T06:05:00 | 54.043971 | 6.362260 | 2.0 | 8.596 | 2 | 34.938 | 8.790 | 32.882 | 2 |
| 2025-04-23T06:06:00 | 54.044139 | 6.362140 | 2.0 | 8.597 | 2 | 35.032 | 8.793 | 32.978 | 2 |
| 2025-04-23T06:07:00 | 54.044206 | 6.362042 | 2.0 | 8.597 | 2 | 35.036 | 8.796 | 32.979 | 2 |
| 2025-04-23T06:08:00 | 54.044268 | 6.361646 | 2.0 | 8.594 | 2 | 34.698 | 8.793 | 32.629 | 2 |
| 2025-04-23T06:09:00 | 54.044301 | 6.361394 | 2.0 | 8.602 | 2 | 35.040 | 8.797 | 32.982 | 2 |
| 2025-04-23T06:10:00 | 54.044286 | 6.361004 | 2.0 | 8.602 | 2 | 35.037 | 8.802 | 32.975 | 2 |
| 2025-04-23T06:11:00 | 54.044297 | 6.360389 | 2.0 | 8.600 | 2 | 35.034 | 8.801 | 32.972 | 2 |
| 2025-04-23T06:12:00 | 54.044332 | 6.359561 | 2.0 | 8.562 | 2 | 34.883 | 8.792 | 32.823 | 2 |
| 2025-04-23T06:13:00 | 54.044403 | 6.358477 | 2.0 | 8.544 | 2 | 35.006 | 8.762 | 32.979 | 2 |
| 2025-04-23T06:14:00 | 54.044481 | 6.356859 | 2.0 | 8.520 | 2 | 34.947 | 8.745 | 32.933 | 2 |
| 2025-04-23T06:15:00 | 54.044317 | 6.354773 | 2.0 | 8.521 | 2 | 34.944 | 8.726 | 32.948 | 2 |
| 2025-04-23T06:16:00 | 54.043635 | 6.352715 | 2.0 | 8.539 | 2 | 34.971 | 8.729 | 32.973 | 2 |
| 2025-04-23T06:17:00 | 54.042437 | 6.351290 | 2.0 | 8.472 | 2 | 34.954 | 8.730 | 32.955 | 2 |
| 2025-04-23T06:18:00 | 54.040892 | 6.350524 | 2.0 | 8.466 | 2 | 34.862 | 8.675 | 32.909 | 2 |
| 2025-04-23T06:19:00 | 54.038864 | 6.349509 | 2.0 | 8.483 | 2 | 34.910 | 8.669 | 32.965 | 2 |
| 2025-04-23T06:20:00 | 54.036452 | 6.348151 | 2.0 | 8.620 | 2 | 34.931 | 8.694 | 32.964 | 2 |
| 2025-04-23T06:21:00 | 54.033850 | 6.346795 | 2.0 | 8.592 | 2 | 34.867 | 8.767 | 32.829 | 2 |
| 2025-04-23T06:22:00 | 54.030999 | 6.345544 | 2.0 | 8.740 | 2 | 34.932 | 8.817 | 32.851 | 2 |
| 2025-04-23T06:23:00 | 54.028054 | 6.344307 | 2.0 | 8.761 | 2 | 35.093 | 8.921 | 32.922 | 2 |
| 2025-04-23T06:24:00 | 54.025094 | 6.343028 | 2.0 | 8.832 | 2 | 35.107 | 8.940 | 32.919 | 2 |
| 2025-04-23T06:25:00 | 54.022124 | 6.341820 | 2.0 | 8.814 | 2 | 35.058 | 9.002 | 32.811 | 2 |
| 2025-04-23T06:26:00 | 54.019153 | 6.340563 | 2.0 | 8.849 | 2 | 35.056 | 8.985 | 32.825 | 2 |
| 2025-04-23T06:27:00 | 54.016178 | 6.339289 | 2.0 | 8.956 | 2 | 35.132 | 9.052 | 32.842 | 2 |
| 2025-04-23T06:28:00 | 54.013216 | 6.337993 | 2.0 | 8.980 | 2 | 35.135 | 9.138 | 32.766 | 2 |
| 2025-04-23T06:29:00 | 54.010248 | 6.336773 | 2.0 | 8.905 | 2 | 35.124 | 9.129 | 32.763 | 2 |
| 2025-04-23T06:30:00 | 54.007277 | 6.335558 | 2.0 | 8.810 | 2 | 35.095 | 9.067 | 32.790 | 2 |
| 2025-04-23T06:31:00 | 54.004322 | 6.334263 | 2.0 | 8.836 | 2 | 34.991 | 8.995 | 32.748 | 2 |
| 2025-04-23T06:32:00 | 54.001355 | 6.332998 | 2.0 | 8.836 | 2 | 34.975 | 9.020 | 32.708 | 2 |
| 2025-04-23T06:33:00 | 53.998373 | 6.331777 | 2.0 | 8.831 | 2 | 34.977 | 9.006 | 32.723 | 2 |
| 2025-04-23T06:34:00 | 53.995406 | 6.330501 | 2.0 | 8.899 | 2 | 34.952 | 9.026 | 32.679 | 2 |
| 2025-04-23T06:35:00 | 53.992435 | 6.329236 | 2.0 | 8.924 | 2 | 34.966 | 9.073 | 32.650 | 2 |
| 2025-04-23T06:36:00 | 53.989466 | 6.327941 | 2.0 | 8.934 | 2 | 35.019 | 9.094 | 32.686 | 2 |
| 2025-04-23T06:37:00 | 53.986492 | 6.326682 | 2.0 | 8.955 | 2 | 35.040 | 9.120 | 32.684 | 2 |
| 2025-04-23T06:38:00 | 53.983518 | 6.325403 | 2.0 | 8.986 | 2 | 35.064 | 9.134 | 32.696 | 2 |
| 2025-04-23T06:39:00 | 53.980534 | 6.324145 | 2.0 | 8.934 | 2 | 35.087 | 9.153 | 32.702 | 2 |
| 2025-04-23T06:40:00 | 53.977551 | 6.322847 | 2.0 | 8.778 | 2 | 35.058 | 9.081 | 32.738 | 2 |
| 2025-04-23T06:41:00 | 53.974565 | 6.321591 | 2.0 | 8.618 | 2 | 34.901 | 8.936 | 32.709 | 2 |
| 2025-04-23T06:42:00 | 53.971576 | 6.320314 | 2.0 | 8.482 | 2 | 34.732 | 8.767 | 32.688 | 2 |
| 2025-04-23T06:43:00 | 53.968594 | 6.319043 | 2.0 | 8.542 | 2 | 34.645 | 8.679 | 32.678 | 2 |
| 2025-04-23T06:44:00 | 53.965624 | 6.317760 | 2.0 | 8.549 | 2 | 34.681 | 8.733 | 32.666 | 2 |
| 2025-04-23T06:45:00 | 53.962658 | 6.316492 | 2.0 | 8.538 | 2 | 34.712 | 8.721 | 32.710 | 2 |
| 2025-04-23T06:46:00 | 53.959711 | 6.315212 | 2.0 | 8.583 | 2 | 34.781 | 8.720 | 32.783 | 2 |
| 2025-04-23T06:47:00 | 53.956753 | 6.313983 | 2.0 | 8.580 | 2 | 34.874 | 8.762 | 32.841 | 2 |
| 2025-04-23T06:48:00 | 53.953794 | 6.312785 | 2.0 | 8.918 | 2 | 34.932 | 8.786 | 32.880 | 2 |
| 2025-04-23T06:49:00 | 53.950820 | 6.311606 | 2.0 | 8.928 | 2 | 35.206 | 9.106 | 32.869 | 2 |
| 2025-04-23T06:50:00 | 53.947854 | 6.310377 | 2.0 | 8.834 | 2 | 35.147 | 9.058 | 32.852 | 2 |
| 2025-04-23T06:51:00 | 53.944905 | 6.309082 | 2.0 | 8.834 | 2 | 35.040 | 9.012 | 32.783 | 2 |
| 2025-04-23T06:52:00 | 53.941959 | 6.307846 | 2.0 | 8.649 | 2 | 34.978 | 8.960 | 32.767 | 2 |
| 2025-04-23T06:53:00 | 53.939001 | 6.306604 | 2.0 | 8.528 | 2 | 34.815 | 8.817 | 32.729 | 2 |
| 2025-04-23T06:54:00 | 53.936049 | 6.305313 | 2.0 | 8.491 | 2 | 34.704 | 8.701 | 32.720 | 2 |
| 2025-04-23T06:55:00 | 53.933096 | 6.304017 | 2.0 | 8.465 | 2 | 34.674 | 8.673 | 32.714 | 2 |
| 2025-04-23T06:56:00 | 53.930129 | 6.302873 | 2.0 | 8.548 | 2 | 34.650 | 8.654 | 32.707 | 2 |
| 2025-04-23T06:57:00 | 53.927173 | 6.301685 | 2.0 | 8.662 | 2 | 34.727 | 8.751 | 32.698 | 2 |
| 2025-04-23T06:58:00 | 53.924213 | 6.300539 | 2.0 | 8.703 | 2 | 34.813 | 8.844 | 32.702 | 2 |
| 2025-04-23T06:59:00 | 53.921247 | 6.299554 | 2.0 | 8.550 | 2 | 34.805 | 8.850 | 32.688 | 2 |
| 2025-04-23T07:00:00 | 53.918609 | 6.298834 | 2.0 | 8.543 | 2 | 34.736 | 8.738 | 32.719 | 2 |
| 2025-04-23T07:01:00 | 53.916609 | 6.298366 | 2.0 | 8.512 | 2 | 34.693 | 8.707 | 32.703 | 2 |
| 2025-04-23T07:02:00 | 53.914983 | 6.297520 | 2.0 | 8.563 | 2 | 34.669 | 8.694 | 32.690 | 2 |
| 2025-04-23T07:03:00 | 53.914199 | 6.297820 | 2.0 | 8.578 | 2 | 34.701 | 8.736 | 32.684 | 2 |
| 2025-04-23T07:04:00 | 53.914190 | 6.298234 | 2.0 | 8.575 | 2 | 34.715 | 8.748 | 32.688 | 2 |
| 2025-04-23T07:05:00 | 53.914262 | 6.298536 | 2.0 | 8.560 | 2 | 34.711 | 8.744 | 32.687 | 2 |
| 2025-04-23T07:06:00 | 53.914351 | 6.298742 | 2.0 | 8.551 | 2 | 34.698 | 8.730 | 32.687 | 2 |
| 2025-04-23T07:07:00 | 53.914461 | 6.298862 | 2.0 | 8.548 | 2 | 34.689 | 8.721 | 32.686 | 2 |
| 2025-04-23T07:08:00 | 53.914626 | 6.298960 | 2.0 | 8.550 | 2 | 34.687 | 8.721 | 32.684 | 2 |
| 2025-04-23T07:09:00 | 53.914736 | 6.299074 | 2.0 | 8.551 | 2 | 34.687 | 8.722 | 32.683 | 2 |
| 2025-04-23T07:10:00 | 53.914802 | 6.299158 | 2.0 | 8.555 | 2 | 34.688 | 8.722 | 32.684 | 2 |
| 2025-04-23T07:11:00 | 53.914853 | 6.299176 | 2.0 | 8.561 | 2 | 34.692 | 8.728 | 32.682 | 2 |
| 2025-04-23T07:12:00 | 53.914882 | 6.299165 | 2.0 | 8.562 | 2 | 34.696 | 8.732 | 32.683 | 2 |
| 2025-04-23T07:13:00 | 53.914900 | 6.299156 | 2.0 | 8.569 | 2 | 34.697 | 8.733 | 32.683 | 2 |
| 2025-04-23T07:14:00 | 53.914910 | 6.299107 | 2.0 | 8.569 | 2 | 34.702 | 8.739 | 32.683 | 2 |
| 2025-04-23T07:15:00 | 53.914928 | 6.299124 | 2.0 | 8.572 | 2 | 34.704 | 8.741 | 32.683 | 2 |
| 2025-04-23T07:16:00 | 53.914966 | 6.299218 | 2.0 | 8.572 | 2 | 34.707 | 8.744 | 32.683 | 2 |
| 2025-04-23T07:17:00 | 53.914963 | 6.299346 | 2.0 | 8.573 | 2 | 34.705 | 8.742 | 32.683 | 2 |
| 2025-04-23T07:18:00 | 53.914934 | 6.299444 | 2.0 | 8.573 | 2 | 34.708 | 8.745 | 32.683 | 2 |
| 2025-04-23T07:19:00 | 53.914900 | 6.299473 | 2.0 | 8.574 | 2 | 34.707 | 8.744 | 32.683 | 2 |
| 2025-04-23T07:20:00 | 53.914853 | 6.299433 | 2.0 | 8.572 | 2 | 34.706 | 8.744 | 32.682 | 2 |
| 2025-04-23T07:21:00 | 53.914792 | 6.299384 | 2.0 | 8.573 | 2 | 34.705 | 8.742 | 32.683 | 2 |
| 2025-04-23T07:22:00 | 53.914739 | 6.299391 | 2.0 | 8.573 | 2 | 34.707 | 8.745 | 32.682 | 2 |
| 2025-04-23T07:23:00 | 53.914698 | 6.299472 | 2.0 | 8.573 | 2 | 34.706 | 8.744 | 32.682 | 2 |
| 2025-04-23T07:24:00 | 53.914676 | 6.299537 | 2.0 | 8.573 | 2 | 34.706 | 8.745 | 32.681 | 2 |
| 2025-04-23T07:25:00 | 53.914644 | 6.299543 | 2.0 | 8.573 | 2 | 34.706 | 8.744 | 32.682 | 2 |
| 2025-04-23T07:26:00 | 53.914612 | 6.299550 | 2.0 | 8.577 | 2 | 34.706 | 8.744 | 32.682 | 2 |
| 2025-04-23T07:27:00 | 53.914566 | 6.299633 | 2.0 | 8.578 | 2 | 34.710 | 8.749 | 32.682 | 2 |
| 2025-04-23T07:28:00 | 53.914528 | 6.299682 | 2.0 | 8.578 | 2 | 34.709 | 8.747 | 32.683 | 2 |
| 2025-04-23T07:29:00 | 53.914502 | 6.299732 | 2.0 | 8.577 | 2 | 34.710 | 8.748 | 32.683 | 2 |
| 2025-04-23T07:30:00 | 53.914492 | 6.299806 | 2.0 | 8.580 | 2 | 34.710 | 8.748 | 32.683 | 2 |
| 2025-04-23T07:31:00 | 53.914490 | 6.299805 | 2.0 | 8.582 | 2 | 34.714 | 8.751 | 32.684 | 2 |
| 2025-04-23T07:32:00 | 53.914495 | 6.299751 | 2.0 | 8.581 | 2 | 34.717 | 8.756 | 32.683 | 2 |
| 2025-04-23T07:33:00 | 53.914485 | 6.299645 | 2.0 | 8.580 | 2 | 34.722 | 8.761 | 32.683 | 2 |
| 2025-04-23T07:34:00 | 53.914471 | 6.299541 | 2.0 | 8.581 | 2 | 34.726 | 8.766 | 32.683 | 2 |
| 2025-04-23T07:35:00 | 53.914444 | 6.299556 | 2.0 | 8.579 | 2 | 34.729 | 8.770 | 32.682 | 2 |
| 2025-04-23T07:36:00 | 53.914448 | 6.299714 | 2.0 | 8.577 | 2 | 34.730 | 8.770 | 32.683 | 2 |
| 2025-04-23T07:37:00 | 53.914492 | 6.299885 | 2.0 | 8.574 | 2 | 34.730 | 8.770 | 32.683 | 2 |
| 2025-04-23T07:38:00 | 53.914506 | 6.300020 | 2.0 | 8.605 | 2 | 34.732 | 8.773 | 32.683 | 2 |
| 2025-04-23T07:39:00 | 53.914508 | 6.300061 | 2.0 | 8.651 | 2 | 34.757 | 8.796 | 32.687 | 2 |
| 2025-04-23T07:40:00 | 53.914499 | 6.300019 | 2.0 | 8.681 | 2 | 34.811 | 8.859 | 32.686 | 2 |
| 2025-04-23T07:41:00 | 53.914510 | 6.300004 | 2.0 | 8.700 | 2 | 34.828 | 8.869 | 32.694 | 2 |
| 2025-04-23T07:42:00 | 53.914550 | 6.300019 | 2.0 | 8.726 | 2 | 34.628 | 8.898 | 32.459 | 2 |
| 2025-04-23T07:43:00 | 53.914730 | 6.300032 | 2.0 | 8.742 | 2 | 34.783 | 8.918 | 32.602 | 2 |
| 2025-04-23T07:44:00 | 53.914969 | 6.300101 | 2.0 | 8.766 | 2 | 34.843 | 8.939 | 32.645 | 2 |
| 2025-04-23T07:45:00 | 53.914842 | 6.301136 | 2.0 | 8.818 | 2 | 34.918 | 8.968 | 32.697 | 2 |
| 2025-04-23T07:47:00 | 53.913139 | 6.305177 | 2.0 | 8.938 | 2 | 35.016 | 9.111 | 32.667 | 2 |
| 2025-04-23T07:48:00 | 53.911806 | 6.302944 | 2.0 | 8.854 | 2 | 35.059 | 9.120 | 32.703 | 2 |
| 2025-04-23T07:52:00 | 53.912095 | 6.282054 | 2.0 | 8.599 | 2 | 34.696 | 8.821 | 32.601 | 2 |
| 2025-04-23T07:53:00 | 53.912740 | 6.276471 | 2.0 | 8.606 | 2 | 34.771 | 8.786 | 32.711 | 2 |
| 2025-04-23T07:54:00 | 53.913418 | 6.270859 | 2.0 | 8.634 | 2 | 34.791 | 8.806 | 32.714 | 2 |
| 2025-04-23T07:55:00 | 53.914108 | 6.265233 | 2.0 | 8.638 | 2 | 34.829 | 8.821 | 32.740 | 2 |
| 2025-04-23T07:56:00 | 53.914795 | 6.259582 | 2.0 | 8.584 | 2 | 34.842 | 8.806 | 32.767 | 2 |
| 2025-04-23T07:57:00 | 53.915480 | 6.253909 | 2.0 | 8.590 | 2 | 34.841 | 8.773 | 32.797 | 2 |
| 2025-04-23T07:58:00 | 53.916165 | 6.248210 | 2.0 | 8.619 | 2 | 34.857 | 8.781 | 32.806 | 2 |
| 2025-04-23T07:59:00 | 53.916859 | 6.242503 | 2.0 | 8.645 | 2 | 34.882 | 8.811 | 32.804 | 2 |
| 2025-04-23T08:00:00 | 53.917543 | 6.236794 | 2.0 | 8.654 | 2 | 34.894 | 8.823 | 32.806 | 2 |
| 2025-04-23T08:01:00 | 53.918228 | 6.231109 | 2.0 | 8.701 | 2 | 34.923 | 8.843 | 32.817 | 2 |
| 2025-04-23T08:02:00 | 53.918906 | 6.225433 | 2.0 | 8.682 | 2 | 34.990 | 8.887 | 32.847 | 2 |
| 2025-04-23T08:03:00 | 53.919832 | 6.219923 | 2.0 | 8.718 | 2 | 35.010 | 8.883 | 32.871 | 2 |
| 2025-04-23T08:04:00 | 53.920462 | 6.215352 | 2.0 | 8.737 | 2 | 35.051 | 8.916 | 32.883 | 2 |
| 2025-04-23T08:05:00 | 53.921230 | 6.212116 | 2.0 | 8.731 | 2 | 35.070 | 8.936 | 32.885 | 2 |
| 2025-04-23T08:06:00 | 53.921996 | 6.211130 | 2.0 | 8.691 | 2 | 35.059 | 8.908 | 32.899 | 2 |
| 2025-04-23T08:07:00 | 53.922199 | 6.211087 | 2.0 | 8.733 | 2 | 35.038 | 8.896 | 32.888 | 2 |
| 2025-04-23T08:08:00 | 53.922214 | 6.211013 | 2.0 | 8.763 | 2 | 35.068 | 8.933 | 32.885 | 2 |
| 2025-04-23T08:09:00 | 53.922190 | 6.211062 | 2.0 | 8.790 | 2 | 35.094 | 8.964 | 32.884 | 2 |
| 2025-04-23T08:10:00 | 53.922153 | 6.211128 | 2.0 | 8.795 | 2 | 35.111 | 8.985 | 32.882 | 2 |
| 2025-04-23T08:11:00 | 53.922154 | 6.211163 | 2.0 | 8.778 | 2 | 35.114 | 8.988 | 32.882 | 2 |
| 2025-04-23T08:12:00 | 53.922367 | 6.211163 | 2.0 | 8.755 | 2 | 35.101 | 8.970 | 32.885 | 2 |
| 2025-04-23T08:13:00 | 53.922694 | 6.211190 | 2.0 | 8.763 | 2 | 35.086 | 8.954 | 32.885 | 2 |
| 2025-04-23T08:14:00 | 53.923024 | 6.211125 | 2.0 | 8.772 | 2 | 35.091 | 8.962 | 32.882 | 2 |
| 2025-04-23T08:15:00 | 53.923351 | 6.210890 | 2.0 | 8.771 | 2 | 35.098 | 8.972 | 32.880 | 2 |
| 2025-04-23T08:16:00 | 53.923677 | 6.210555 | 2.0 | 8.750 | 2 | 35.095 | 8.967 | 32.882 | 2 |
| 2025-04-23T08:17:00 | 53.924017 | 6.210194 | 2.0 | 8.750 | 2 | 35.082 | 8.953 | 32.881 | 2 |
| 2025-04-23T08:18:00 | 53.924251 | 6.209995 | 2.0 | 8.752 | 2 | 35.079 | 8.954 | 32.877 | 2 |
| 2025-04-23T08:19:00 | 53.924332 | 6.210031 | 2.0 | 8.741 | 2 | 35.076 | 8.954 | 32.874 | 2 |
| 2025-04-23T08:20:00 | 53.924348 | 6.210131 | 2.0 | 8.742 | 2 | 35.068 | 8.946 | 32.873 | 2 |
| 2025-04-23T08:21:00 | 53.924386 | 6.210242 | 2.0 | 8.720 | 2 | 35.068 | 8.946 | 32.873 | 2 |
| 2025-04-23T08:22:00 | 53.924506 | 6.210301 | 2.0 | 8.713 | 2 | 35.052 | 8.924 | 32.877 | 2 |
| 2025-04-23T08:23:00 | 53.924740 | 6.210912 | 2.0 | 8.713 | 2 | 34.901 | 8.918 | 32.725 | 2 |
| 2025-04-23T08:24:00 | 53.924672 | 6.212293 | 2.0 | 8.710 | 2 | 35.035 | 8.920 | 32.863 | 2 |
| 2025-04-23T08:25:00 | 53.923921 | 6.213153 | 2.0 | 8.714 | 2 | 34.962 | 8.918 | 32.789 | 2 |
| 2025-04-23T08:26:00 | 53.923213 | 6.214237 | 2.0 | 8.721 | 2 | 34.815 | 8.922 | 32.632 | 2 |
| 2025-04-23T08:27:00 | 53.922310 | 6.215280 | 2.0 | 8.717 | 2 | 34.731 | 8.927 | 32.540 | 2 |
| 2025-04-23T08:28:00 | 53.921192 | 6.216546 | 2.0 | 8.715 | 2 | 34.721 | 8.923 | 32.533 | 2 |
| 2025-04-23T08:29:00 | 53.919991 | 6.218105 | 2.0 | 8.689 | 2 | 35.029 | 8.913 | 32.863 | 2 |
| 2025-04-23T08:30:00 | 53.918810 | 6.219525 | 2.0 | 8.718 | 2 | 35.017 | 8.908 | 32.855 | 2 |
| 2025-04-23T08:31:00 | 53.917643 | 6.220805 | 2.0 | 8.705 | 2 | 34.994 | 8.919 | 32.821 | 2 |
| 2025-04-23T08:32:00 | 53.916571 | 6.222142 | 2.0 | 8.754 | 2 | 35.025 | 8.922 | 32.851 | 2 |
| 2025-04-23T08:33:00 | 53.915946 | 6.223333 | 2.0 | 8.802 | 2 | 35.091 | 8.969 | 32.876 | 2 |
| 2025-04-23T08:34:00 | 53.916215 | 6.223857 | 2.0 | 8.794 | 2 | 35.124 | 9.003 | 32.879 | 2 |
| 2025-04-23T08:35:00 | 53.916392 | 6.224273 | 2.0 | 8.777 | 2 | 35.117 | 8.994 | 32.880 | 2 |
| 2025-04-23T08:36:00 | 53.916457 | 6.224462 | 2.0 | 8.764 | 2 | 35.095 | 8.982 | 32.868 | 2 |
| 2025-04-23T08:37:00 | 53.916477 | 6.224540 | 2.0 | 8.782 | 2 | 35.060 | 8.974 | 32.839 | 2 |
| 2025-04-23T08:38:00 | 53.916523 | 6.224545 | 2.0 | 8.790 | 2 | 34.969 | 8.984 | 32.735 | 2 |
| 2025-04-23T08:39:00 | 53.916627 | 6.224551 | 2.0 | 8.759 | 2 | 34.965 | 8.990 | 32.725 | 2 |
| 2025-04-23T08:40:00 | 53.916842 | 6.224476 | 2.0 | 8.749 | 2 | 35.040 | 8.953 | 32.838 | 2 |
| 2025-04-23T08:41:00 | 53.917164 | 6.224593 | 2.0 | 8.732 | 2 | 34.973 | 8.954 | 32.767 | 2 |
| 2025-04-23T08:42:00 | 53.917139 | 6.225522 | 2.0 | 8.743 | 2 | 34.958 | 8.934 | 32.770 | 2 |
| 2025-04-23T08:43:00 | 53.916469 | 6.226319 | 2.0 | 8.758 | 2 | 35.050 | 8.953 | 32.848 | 2 |
| 2025-04-23T08:44:00 | 53.915431 | 6.227190 | 2.0 | 8.766 | 2 | 35.033 | 8.966 | 32.818 | 2 |
| 2025-04-23T08:45:00 | 53.914251 | 6.228539 | 2.0 | 8.790 | 2 | 35.066 | 8.980 | 32.840 | 2 |
| 2025-04-23T08:46:00 | 53.913070 | 6.230036 | 2.0 | 8.803 | 2 | 34.988 | 8.998 | 32.742 | 2 |
| 2025-04-23T08:47:00 | 53.912246 | 6.231452 | 2.0 | 8.803 | 2 | 35.106 | 9.011 | 32.853 | 2 |
| 2025-04-23T08:48:00 | 53.911948 | 6.232448 | 2.0 | 8.782 | 2 | 35.086 | 9.011 | 32.832 | 2 |
| 2025-04-23T08:49:00 | 53.912258 | 6.232676 | 2.0 | 8.759 | 2 | 35.040 | 8.986 | 32.807 | 2 |
| 2025-04-23T08:50:00 | 53.912508 | 6.232735 | 2.0 | 8.753 | 2 | 35.007 | 8.965 | 32.792 | 2 |
| 2025-04-23T08:51:00 | 53.912567 | 6.232646 | 2.0 | 8.751 | 2 | 35.033 | 8.962 | 32.822 | 2 |
| 2025-04-23T08:52:00 | 53.912625 | 6.232580 | 2.0 | 8.751 | 2 | 34.981 | 8.960 | 32.770 | 2 |
| 2025-04-23T08:53:00 | 53.912733 | 6.232544 | 2.0 | 8.748 | 2 | 34.954 | 8.957 | 32.744 | 2 |
| 2025-04-23T08:54:00 | 53.913000 | 6.232460 | 2.0 | 8.746 | 2 | 34.947 | 8.954 | 32.740 | 2 |
| 2025-04-23T08:55:00 | 53.913243 | 6.233088 | 2.0 | 8.746 | 2 | 34.933 | 8.956 | 32.723 | 2 |
| 2025-04-23T08:56:00 | 53.912751 | 6.233442 | 2.0 | 8.740 | 2 | 34.855 | 8.953 | 32.645 | 2 |
| 2025-04-23T08:57:00 | 53.911920 | 6.233906 | 2.0 | 8.719 | 2 | 34.978 | 8.949 | 32.777 | 2 |
| 2025-04-23T08:58:00 | 53.911245 | 6.234952 | 2.0 | 8.707 | 2 | 34.904 | 8.928 | 32.719 | 2 |
| 2025-04-23T08:59:00 | 53.910462 | 6.235581 | 2.0 | 8.702 | 2 | 34.871 | 8.916 | 32.696 | 2 |
| 2025-04-23T09:00:00 | 53.909692 | 6.236135 | 2.0 | 8.710 | 2 | 34.951 | 8.918 | 32.777 | 2 |
| 2025-04-23T09:01:00 | 53.909836 | 6.236377 | 2.0 | 8.707 | 2 | 34.913 | 8.922 | 32.734 | 2 |
| 2025-04-23T09:02:00 | 53.910046 | 6.236388 | 2.0 | 8.708 | 2 | 34.881 | 8.917 | 32.705 | 2 |
| 2025-04-23T09:03:00 | 53.910145 | 6.236324 | 2.0 | 8.711 | 2 | 34.893 | 8.918 | 32.717 | 2 |
| 2025-04-23T09:04:00 | 53.910098 | 6.236391 | 2.0 | 8.705 | 2 | 34.906 | 8.918 | 32.730 | 2 |
| 2025-04-23T09:05:00 | 53.909899 | 6.236682 | 2.0 | 8.712 | 2 | 34.913 | 8.917 | 32.739 | 2 |
| 2025-04-23T09:06:00 | 53.909688 | 6.237246 | 2.0 | 8.712 | 2 | 34.898 | 8.921 | 32.719 | 2 |
| 2025-04-23T09:07:00 | 53.909427 | 6.237866 | 2.0 | 8.709 | 2 | 34.883 | 8.921 | 32.704 | 2 |
| 2025-04-23T09:08:00 | 53.909666 | 6.238113 | 2.0 | 8.716 | 2 | 34.891 | 8.922 | 32.711 | 2 |
| 2025-04-23T09:09:00 | 53.909833 | 6.238117 | 2.0 | 8.723 | 2 | 34.895 | 8.927 | 32.711 | 2 |
| 2025-04-23T09:10:00 | 53.909828 | 6.238074 | 2.0 | 8.721 | 2 | 34.873 | 8.933 | 32.682 | 2 |
| 2025-04-23T09:11:00 | 53.909908 | 6.238051 | 2.0 | 8.715 | 2 | 34.918 | 8.933 | 32.729 | 2 |
| 2025-04-23T09:12:00 | 53.910175 | 6.237899 | 2.0 | 8.717 | 2 | 34.894 | 8.924 | 32.712 | 2 |
| 2025-04-23T09:13:00 | 53.910545 | 6.238321 | 2.0 | 8.705 | 2 | 34.885 | 8.924 | 32.703 | 2 |
| 2025-04-23T09:14:00 | 53.910858 | 6.240618 | 2.0 | 8.719 | 2 | 34.885 | 8.920 | 32.707 | 2 |
| 2025-04-23T09:15:00 | 53.911156 | 6.244427 | 2.0 | 8.752 | 2 | 34.911 | 8.941 | 32.714 | 2 |
| 2025-04-23T09:16:00 | 53.911446 | 6.248963 | 2.0 | 8.725 | 2 | 34.898 | 8.965 | 32.679 | 2 |
| 2025-04-23T09:17:00 | 53.911608 | 6.253688 | 2.0 | 8.649 | 2 | 34.888 | 8.928 | 32.702 | 2 |
| 2025-04-23T09:18:00 | 53.911749 | 6.258458 | 2.0 | 8.638 | 2 | 34.832 | 8.862 | 32.705 | 2 |
| 2025-04-23T09:19:00 | 53.911890 | 6.263232 | 2.0 | 8.680 | 2 | 34.789 | 8.854 | 32.667 | 2 |
| 2025-04-23T09:20:00 | 53.912025 | 6.268011 | 2.0 | 8.720 | 2 | 34.816 | 8.886 | 32.666 | 2 |
| 2025-04-23T09:21:00 | 53.912141 | 6.272801 | 2.0 | 8.720 | 2 | 34.843 | 8.915 | 32.668 | 2 |
| 2025-04-23T09:22:00 | 53.912249 | 6.277606 | 2.0 | 8.797 | 2 | 34.841 | 8.923 | 32.658 | 2 |
| 2025-04-23T09:23:00 | 53.912352 | 6.282435 | 2.0 | 8.925 | 2 | 34.925 | 9.004 | 32.671 | 2 |
| 2025-04-23T09:24:00 | 53.912454 | 6.287256 | 2.0 | 8.918 | 2 | 35.029 | 9.111 | 32.681 | 2 |
| 2025-04-23T09:25:00 | 53.912542 | 6.291921 | 2.0 | 8.829 | 2 | 35.035 | 9.101 | 32.696 | 2 |
| 2025-04-23T09:26:00 | 53.912688 | 6.295233 | 2.0 | 8.808 | 2 | 34.962 | 9.032 | 32.684 | 2 |
| 2025-04-23T09:27:00 | 53.913576 | 6.295896 | 2.0 | 8.791 | 2 | 34.934 | 9.012 | 32.673 | 2 |
| 2025-04-23T09:28:00 | 53.914603 | 6.296144 | 2.0 | 8.757 | 2 | 34.923 | 8.993 | 32.679 | 2 |
| 2025-04-23T09:29:00 | 53.914739 | 6.296665 | 2.0 | 8.758 | 2 | 34.898 | 8.958 | 32.685 | 2 |
| 2025-04-23T09:30:00 | 53.914663 | 6.297446 | 2.0 | 8.771 | 2 | 34.902 | 8.969 | 32.679 | 2 |
| 2025-04-23T09:31:00 | 53.914567 | 6.298225 | 2.0 | 8.764 | 2 | 34.906 | 8.976 | 32.677 | 2 |
| 2025-04-23T09:32:00 | 53.914523 | 6.298914 | 2.0 | 8.763 | 2 | 34.900 | 8.971 | 32.675 | 2 |
| 2025-04-23T09:33:00 | 53.914505 | 6.299476 | 2.0 | 8.777 | 2 | 34.900 | 8.974 | 32.673 | 2 |
| 2025-04-23T09:34:00 | 53.914437 | 6.299895 | 2.0 | 8.784 | 2 | 34.908 | 8.986 | 32.670 | 2 |
| 2025-04-23T09:35:00 | 53.914273 | 6.300051 | 2.0 | 8.780 | 2 | 34.911 | 8.990 | 32.669 | 2 |
| 2025-04-23T09:36:00 | 53.913528 | 6.300387 | 2.0 | 8.746 | 2 | 34.906 | 8.981 | 32.672 | 2 |
| 2025-04-23T09:37:00 | 53.912105 | 6.299679 | 2.0 | 8.696 | 2 | 34.872 | 8.946 | 32.669 | 2 |
| 2025-04-23T09:38:00 | 53.911393 | 6.296655 | 2.0 | 8.711 | 2 | 34.832 | 8.906 | 32.664 | 2 |
| 2025-04-23T09:39:00 | 53.911255 | 6.292182 | 2.0 | 8.768 | 2 | 34.824 | 8.935 | 32.629 | 2 |
| 2025-04-23T09:40:00 | 53.911010 | 6.286707 | 2.0 | 8.788 | 2 | 34.880 | 8.962 | 32.663 | 2 |
| 2025-04-23T09:41:00 | 53.910549 | 6.280955 | 2.0 | 8.918 | 2 | 34.951 | 9.037 | 32.668 | 2 |
| 2025-04-23T09:42:00 | 53.910083 | 6.275152 | 2.0 | 8.852 | 2 | 35.042 | 9.119 | 32.687 | 2 |
| 2025-04-23T09:43:00 | 53.909625 | 6.269339 | 2.0 | 8.842 | 2 | 35.004 | 9.066 | 32.696 | 2 |
| 2025-04-23T09:44:00 | 53.909250 | 6.263489 | 2.0 | 8.784 | 2 | 34.985 | 9.046 | 32.695 | 2 |
| 2025-04-23T09:45:00 | 53.908974 | 6.257613 | 2.0 | 8.746 | 2 | 34.644 | 8.998 | 32.385 | 2 |
| 2025-04-23T09:46:00 | 53.908913 | 6.251698 | 2.0 | 8.724 | 2 | 34.902 | 8.963 | 32.685 | 2 |
| 2025-04-23T09:47:00 | 53.908915 | 6.245775 | 2.0 | 8.692 | 2 | 34.887 | 8.940 | 32.690 | 2 |
| 2025-04-23T09:48:00 | 53.908961 | 6.240500 | 2.0 | 8.700 | 2 | 34.883 | 8.916 | 32.708 | 2 |
| 2025-04-23T09:49:00 | 53.909134 | 6.236562 | 2.0 | 8.650 | 2 | 34.875 | 8.902 | 32.713 | 2 |
| 2025-04-23T09:50:00 | 53.909543 | 6.234152 | 2.0 | 8.644 | 2 | 34.837 | 8.863 | 32.709 | 2 |
| 2025-04-23T09:51:00 | 53.910050 | 6.233671 | 2.0 | 8.654 | 2 | 34.836 | 8.854 | 32.716 | 2 |
| 2025-04-23T09:52:00 | 53.910476 | 6.233941 | 2.0 | 8.682 | 2 | 34.842 | 8.868 | 32.710 | 2 |
| 2025-04-23T09:53:00 | 53.910656 | 6.234824 | 2.0 | 8.738 | 2 | 34.872 | 8.905 | 32.707 | 2 |
| 2025-04-23T09:54:00 | 53.910693 | 6.235661 | 2.0 | 8.747 | 2 | 34.917 | 8.948 | 32.714 | 2 |
| 2025-04-23T09:55:00 | 53.910672 | 6.236407 | 2.0 | 8.732 | 2 | 34.924 | 8.953 | 32.717 | 2 |
| 2025-04-23T09:56:00 | 53.910683 | 6.236689 | 2.0 | 8.723 | 2 | 34.912 | 8.939 | 32.717 | 2 |
| 2025-04-23T09:57:00 | 53.910752 | 6.236727 | 2.0 | 8.717 | 2 | 34.904 | 8.930 | 32.717 | 2 |
| 2025-04-23T09:58:00 | 53.910981 | 6.236739 | 2.0 | 8.718 | 2 | 34.901 | 8.928 | 32.716 | 2 |
| 2025-04-23T09:59:00 | 53.911001 | 6.237367 | 2.0 | 8.700 | 2 | 34.899 | 8.927 | 32.715 | 2 |
| 2025-04-23T10:00:00 | 53.910700 | 6.238644 | 2.0 | 8.703 | 2 | 34.886 | 8.913 | 32.714 | 2 |
| 2025-04-23T10:01:00 | 53.910423 | 6.239764 | 2.0 | 8.719 | 2 | 34.649 | 8.921 | 32.460 | 2 |
| 2025-04-23T10:02:00 | 53.910181 | 6.240677 | 2.0 | 8.710 | 2 | 34.846 | 8.930 | 32.657 | 2 |
| 2025-04-23T10:03:00 | 53.909983 | 6.241321 | 2.0 | 8.633 | 2 | 34.878 | 8.922 | 32.698 | 2 |
| 2025-04-23T10:04:00 | 53.909899 | 6.241682 | 2.0 | 8.614 | 2 | 34.573 | 8.845 | 32.451 | 2 |
| 2025-04-23T10:05:00 | 53.909972 | 6.241831 | 2.0 | 8.655 | 2 | 34.437 | 8.829 | 32.323 | 2 |
| 2025-04-23T10:06:00 | 53.910019 | 6.242038 | 2.0 | 8.648 | 2 | 34.830 | 8.867 | 32.698 | 2 |
| 2025-04-23T10:07:00 | 53.909543 | 6.242296 | 2.0 | 8.712 | 2 | 34.818 | 8.847 | 32.704 | 2 |
| 2025-04-23T10:08:00 | 53.908668 | 6.242053 | 2.0 | 8.720 | 2 | 34.446 | 8.908 | 32.261 | 2 |
| 2025-04-23T10:09:00 | 53.907793 | 6.240736 | 2.0 | 8.716 | 2 | 34.829 | 8.910 | 32.658 | 2 |
| 2025-04-23T10:10:00 | 53.907535 | 6.238902 | 2.0 | 8.689 | 2 | 34.860 | 8.904 | 32.695 | 2 |
| 2025-04-23T10:11:00 | 53.907659 | 6.237245 | 2.0 | 8.675 | 2 | 34.656 | 8.877 | 32.508 | 2 |
| 2025-04-23T10:12:00 | 53.907772 | 6.235688 | 2.0 | 8.665 | 2 | 34.835 | 8.861 | 32.709 | 2 |
| 2025-04-23T10:13:00 | 53.907716 | 6.234126 | 2.0 | 8.643 | 2 | 34.831 | 8.855 | 32.710 | 2 |
| 2025-04-23T10:14:00 | 53.907448 | 6.232744 | 2.0 | 8.612 | 2 | 34.680 | 8.821 | 32.584 | 2 |
| 2025-04-23T10:15:00 | 53.907314 | 6.231415 | 2.0 | 8.607 | 2 | 34.772 | 8.800 | 32.699 | 2 |
| 2025-04-23T10:16:00 | 53.907538 | 6.230568 | 2.0 | 8.602 | 2 | 34.765 | 8.792 | 32.700 | 2 |
| 2025-04-23T10:17:00 | 53.907752 | 6.230002 | 2.0 | 8.615 | 2 | 34.763 | 8.791 | 32.698 | 2 |
| 2025-04-23T10:18:00 | 53.907947 | 6.229580 | 2.0 | 8.616 | 2 | 34.583 | 8.799 | 32.503 | 2 |
| 2025-04-23T10:19:00 | 53.908113 | 6.229363 | 2.0 | 8.613 | 2 | 34.772 | 8.801 | 32.699 | 2 |
| 2025-04-23T10:20:00 | 53.908253 | 6.229311 | 2.0 | 8.613 | 2 | 34.658 | 8.796 | 32.584 | 2 |
| 2025-04-23T10:21:00 | 53.908374 | 6.229280 | 2.0 | 8.616 | 2 | 34.672 | 8.797 | 32.598 | 2 |
| 2025-04-23T10:22:00 | 53.908495 | 6.229257 | 2.0 | 8.648 | 2 | 34.774 | 8.804 | 32.698 | 2 |
| 2025-04-23T10:23:00 | 53.908604 | 6.229247 | 2.0 | 8.652 | 2 | 34.803 | 8.832 | 32.702 | 2 |
| 2025-04-23T10:24:00 | 53.908706 | 6.229228 | 2.0 | 8.625 | 2 | 34.676 | 8.831 | 32.571 | 2 |
| 2025-04-23T10:25:00 | 53.908813 | 6.229209 | 2.0 | 8.676 | 2 | 34.650 | 8.816 | 32.557 | 2 |
| 2025-04-23T10:26:00 | 53.908913 | 6.229192 | 2.0 | 8.664 | 2 | 34.759 | 8.850 | 32.640 | 2 |
| 2025-04-23T10:27:00 | 53.908955 | 6.229156 | 2.0 | 8.653 | 2 | 34.807 | 8.841 | 32.698 | 2 |
| 2025-04-23T10:28:00 | 53.908962 | 6.229096 | 2.0 | 8.660 | 2 | 34.723 | 8.836 | 32.615 | 2 |
| 2025-04-23T10:29:00 | 53.909001 | 6.229216 | 2.0 | 8.673 | 2 | 34.793 | 8.840 | 32.684 | 2 |
| 2025-04-23T10:30:00 | 53.909002 | 6.229423 | 2.0 | 8.702 | 2 | 34.699 | 8.861 | 32.567 | 2 |
| 2025-04-23T10:31:00 | 53.908974 | 6.229584 | 2.0 | 8.691 | 2 | 34.776 | 8.882 | 32.628 | 2 |
| 2025-04-23T10:32:00 | 53.908966 | 6.229654 | 2.0 | 8.671 | 2 | 34.778 | 8.866 | 32.645 | 2 |
| 2025-04-23T10:33:00 | 53.908921 | 6.229636 | 2.0 | 8.662 | 2 | 34.763 | 8.849 | 32.645 | 2 |
| 2025-04-23T10:34:00 | 53.908872 | 6.229598 | 2.0 | 8.649 | 2 | 34.693 | 8.839 | 32.581 | 2 |
| 2025-04-23T10:35:00 | 53.908862 | 6.229609 | 2.0 | 8.698 | 2 | 34.703 | 8.842 | 32.589 | 2 |
| 2025-04-23T10:36:00 | 53.908812 | 6.229675 | 2.0 | 8.717 | 2 | 34.728 | 8.880 | 32.580 | 2 |
| 2025-04-23T10:37:00 | 53.908805 | 6.229784 | 2.0 | 8.721 | 2 | 34.767 | 8.894 | 32.608 | 2 |
| 2025-04-23T10:38:00 | 53.908870 | 6.229914 | 2.0 | 8.727 | 2 | 34.717 | 8.897 | 32.553 | 2 |
| 2025-04-23T10:39:00 | 53.908929 | 6.230035 | 2.0 | 8.721 | 2 | 34.772 | 8.904 | 32.604 | 2 |
| 2025-04-23T10:40:00 | 53.908937 | 6.230079 | 2.0 | 8.720 | 2 | 34.750 | 8.897 | 32.587 | 2 |
| 2025-04-23T10:41:00 | 53.908915 | 6.230065 | 2.0 | 8.716 | 2 | 34.775 | 8.898 | 32.612 | 2 |
| 2025-04-23T10:42:00 | 53.908915 | 6.230066 | 2.0 | 8.724 | 2 | 34.780 | 8.896 | 32.619 | 2 |
| 2025-04-23T10:43:00 | 53.908917 | 6.230086 | 2.0 | 8.718 | 2 | 34.748 | 8.899 | 32.583 | 2 |
| 2025-04-23T10:44:00 | 53.908881 | 6.230143 | 2.0 | 8.718 | 2 | 34.741 | 8.896 | 32.579 | 2 |
| 2025-04-23T10:45:00 | 53.908872 | 6.230220 | 2.0 | 8.719 | 2 | 34.762 | 8.900 | 32.597 | 2 |
| 2025-04-23T10:46:00 | 53.908834 | 6.230290 | 2.0 | 8.716 | 2 | 34.737 | 8.894 | 32.576 | 2 |
| 2025-04-23T10:47:00 | 53.908826 | 6.230330 | 2.0 | 8.711 | 2 | 34.752 | 8.892 | 32.594 | 2 |
| 2025-04-23T10:48:00 | 53.908809 | 6.230329 | 2.0 | 8.716 | 2 | 34.768 | 8.891 | 32.611 | 2 |
| 2025-04-23T10:49:00 | 53.908763 | 6.230307 | 2.0 | 8.715 | 2 | 34.753 | 8.893 | 32.594 | 2 |
| 2025-04-23T10:50:00 | 53.908749 | 6.230307 | 2.0 | 8.715 | 2 | 34.750 | 8.890 | 32.594 | 2 |
| 2025-04-23T10:51:00 | 53.908672 | 6.230342 | 2.0 | 8.711 | 2 | 34.745 | 8.892 | 32.587 | 2 |
| 2025-04-23T10:52:00 | 53.908532 | 6.230408 | 2.0 | 8.716 | 2 | 34.751 | 8.887 | 32.597 | 2 |
| 2025-04-23T10:53:00 | 53.908466 | 6.230402 | 2.0 | 8.715 | 2 | 34.786 | 8.894 | 32.627 | 2 |
| 2025-04-23T10:54:00 | 53.908442 | 6.230388 | 2.0 | 8.714 | 2 | 34.772 | 8.890 | 32.617 | 2 |
| 2025-04-23T10:55:00 | 53.908426 | 6.230404 | 2.0 | 8.720 | 2 | 34.804 | 8.891 | 32.649 | 2 |
| 2025-04-23T10:56:00 | 53.908432 | 6.230461 | 2.0 | 8.711 | 2 | 34.813 | 8.896 | 32.654 | 2 |
| 2025-04-23T10:57:00 | 53.908435 | 6.230530 | 2.0 | 8.718 | 2 | 34.789 | 8.888 | 32.636 | 2 |
| 2025-04-23T10:58:00 | 53.908404 | 6.230562 | 2.0 | 8.715 | 2 | 34.819 | 8.893 | 32.663 | 2 |
| 2025-04-23T10:59:00 | 53.908369 | 6.230615 | 2.0 | 8.713 | 2 | 34.820 | 8.891 | 32.666 | 2 |
| 2025-04-23T11:00:00 | 53.908342 | 6.230675 | 2.0 | 8.714 | 2 | 34.813 | 8.889 | 32.660 | 2 |
| 2025-04-23T11:01:00 | 53.908286 | 6.230687 | 2.0 | 8.715 | 2 | 34.826 | 8.889 | 32.674 | 2 |
| 2025-04-23T11:02:00 | 53.908239 | 6.230663 | 2.0 | 8.721 | 2 | 34.832 | 8.894 | 32.675 | 2 |
| 2025-04-23T11:03:00 | 53.908211 | 6.230701 | 2.0 | 8.725 | 2 | 34.826 | 8.894 | 32.669 | 2 |
| 2025-04-23T11:04:00 | 53.908184 | 6.230824 | 2.0 | 8.743 | 2 | 34.841 | 8.903 | 32.677 | 2 |
| 2025-04-23T11:05:00 | 53.908180 | 6.230946 | 2.0 | 8.753 | 2 | 34.856 | 8.920 | 32.676 | 2 |
| 2025-04-23T11:06:00 | 53.908163 | 6.231054 | 2.0 | 8.775 | 2 | 34.865 | 8.929 | 32.678 | 2 |
| 2025-04-23T11:07:00 | 53.908166 | 6.231159 | 2.0 | 8.785 | 2 | 34.886 | 8.951 | 32.679 | 2 |
| 2025-04-23T11:08:00 | 53.908123 | 6.231233 | 2.0 | 8.788 | 2 | 34.894 | 8.958 | 32.681 | 2 |
| 2025-04-23T11:09:00 | 53.908096 | 6.231264 | 2.0 | 8.798 | 2 | 34.895 | 8.963 | 32.677 | 2 |
| 2025-04-23T11:10:00 | 53.908093 | 6.231286 | 2.0 | 8.814 | 2 | 34.910 | 8.978 | 32.679 | 2 |
| 2025-04-23T11:11:00 | 53.908059 | 6.231332 | 2.0 | 8.828 | 2 | 34.923 | 8.990 | 32.682 | 2 |
| 2025-04-23T11:12:00 | 53.908043 | 6.231377 | 2.0 | 8.825 | 2 | 34.930 | 9.001 | 32.679 | 2 |
| 2025-04-23T11:13:00 | 53.908020 | 6.231429 | 2.0 | 8.826 | 2 | 34.930 | 8.999 | 32.681 | 2 |
| 2025-04-23T11:14:00 | 53.907975 | 6.231474 | 2.0 | 8.827 | 2 | 34.932 | 9.000 | 32.682 | 2 |
| 2025-04-23T11:15:00 | 53.907949 | 6.231518 | 2.0 | 8.846 | 2 | 34.937 | 9.005 | 32.683 | 2 |
| 2025-04-23T11:16:00 | 53.907897 | 6.231570 | 2.0 | 8.843 | 2 | 34.948 | 9.017 | 32.683 | 2 |
| 2025-04-23T11:17:00 | 53.907874 | 6.231624 | 2.0 | 8.848 | 2 | 34.950 | 9.018 | 32.684 | 2 |
| 2025-04-23T11:18:00 | 53.907902 | 6.231681 | 2.0 | 8.866 | 2 | 34.958 | 9.028 | 32.683 | 2 |
| 2025-04-23T11:19:00 | 53.907902 | 6.231757 | 2.0 | 8.868 | 2 | 34.969 | 9.038 | 32.685 | 2 |
| 2025-04-23T11:20:00 | 53.907919 | 6.231819 | 2.0 | 8.870 | 2 | 34.973 | 9.043 | 32.685 | 2 |
| 2025-04-23T11:21:00 | 53.907983 | 6.231903 | 2.0 | 8.867 | 2 | 34.974 | 9.043 | 32.686 | 2 |
| 2025-04-23T11:22:00 | 53.907977 | 6.232014 | 2.0 | 8.865 | 2 | 34.967 | 9.041 | 32.681 | 2 |
| 2025-04-23T11:23:00 | 53.907897 | 6.232057 | 2.0 | 8.866 | 2 | 34.957 | 9.040 | 32.671 | 2 |
| 2025-04-23T11:24:00 | 53.907844 | 6.232061 | 2.0 | 8.859 | 2 | 34.961 | 9.039 | 32.676 | 2 |
| 2025-04-23T11:25:00 | 53.907834 | 6.232047 | 2.0 | 8.857 | 2 | 34.956 | 9.034 | 32.676 | 2 |
| 2025-04-23T11:26:00 | 53.907826 | 6.232053 | 2.0 | 8.856 | 2 | 34.956 | 9.031 | 32.678 | 2 |
| 2025-04-23T11:27:00 | 53.907793 | 6.232052 | 2.0 | 8.853 | 2 | 34.957 | 9.029 | 32.681 | 2 |
| 2025-04-23T11:28:00 | 53.907761 | 6.232088 | 2.0 | 8.846 | 2 | 34.955 | 9.025 | 32.683 | 2 |
| 2025-04-23T11:29:00 | 53.907744 | 6.232169 | 2.0 | 8.842 | 2 | 34.950 | 9.018 | 32.684 | 2 |
| 2025-04-23T11:30:00 | 53.907763 | 6.232239 | 2.0 | 8.842 | 2 | 34.948 | 9.015 | 32.685 | 2 |
| 2025-04-23T11:31:00 | 53.907793 | 6.232335 | 2.0 | 8.848 | 2 | 34.949 | 9.016 | 32.685 | 2 |
| 2025-04-23T11:32:00 | 53.907788 | 6.232409 | 2.0 | 8.846 | 2 | 34.951 | 9.021 | 32.682 | 2 |
| 2025-04-23T11:33:00 | 53.907795 | 6.232435 | 2.0 | 8.845 | 2 | 34.949 | 9.018 | 32.683 | 2 |
| 2025-04-23T11:34:00 | 53.907805 | 6.232449 | 2.0 | 8.844 | 2 | 34.947 | 9.018 | 32.681 | 2 |
| 2025-04-23T11:35:00 | 53.907804 | 6.232456 | 2.0 | 8.843 | 2 | 34.946 | 9.018 | 32.680 | 2 |
| 2025-04-23T11:36:00 | 53.907810 | 6.232464 | 2.0 | 8.843 | 2 | 34.944 | 9.016 | 32.680 | 2 |
| 2025-04-23T11:37:00 | 53.907816 | 6.232480 | 2.0 | 8.838 | 2 | 34.942 | 9.016 | 32.678 | 2 |
| 2025-04-23T11:38:00 | 53.907810 | 6.232486 | 2.0 | 8.829 | 2 | 34.937 | 9.010 | 32.678 | 2 |
| 2025-04-23T11:39:00 | 53.907806 | 6.232501 | 2.0 | 8.832 | 2 | 34.929 | 9.004 | 32.675 | 2 |
| 2025-04-23T11:40:00 | 53.907811 | 6.232518 | 2.0 | 8.824 | 2 | 34.926 | 9.004 | 32.672 | 2 |
| 2025-04-23T11:41:00 | 53.907710 | 6.232615 | 2.0 | 8.821 | 2 | 34.919 | 8.998 | 32.670 | 2 |
| 2025-04-23T11:42:00 | 53.907506 | 6.232529 | 2.0 | 8.821 | 2 | 34.917 | 8.995 | 32.671 | 2 |
| 2025-04-23T11:43:00 | 53.907313 | 6.232431 | 2.0 | 8.822 | 2 | 34.917 | 8.995 | 32.671 | 2 |
| 2025-04-23T11:44:00 | 53.907105 | 6.232358 | 2.0 | 8.828 | 2 | 34.918 | 8.995 | 32.672 | 2 |
| 2025-04-23T11:45:00 | 53.906879 | 6.232315 | 2.0 | 8.828 | 2 | 34.923 | 9.000 | 32.673 | 2 |
| 2025-04-23T11:46:00 | 53.906637 | 6.232290 | 2.0 | 8.828 | 2 | 34.925 | 9.001 | 32.674 | 2 |
| 2025-04-23T11:47:00 | 53.906426 | 6.232209 | 2.0 | 8.835 | 2 | 34.928 | 9.002 | 32.676 | 2 |
| 2025-04-23T11:48:00 | 53.906279 | 6.232160 | 2.0 | 8.826 | 2 | 34.932 | 9.006 | 32.676 | 2 |
| 2025-04-23T11:49:00 | 53.906214 | 6.232270 | 2.0 | 8.825 | 2 | 34.928 | 8.999 | 32.679 | 2 |
| 2025-04-23T11:50:00 | 53.906203 | 6.232510 | 2.0 | 8.819 | 2 | 34.926 | 8.997 | 32.678 | 2 |
| 2025-04-23T11:51:00 | 53.906234 | 6.232800 | 2.0 | 8.820 | 2 | 34.921 | 8.992 | 32.678 | 2 |
| 2025-04-23T11:52:00 | 53.906304 | 6.233118 | 2.0 | 8.813 | 2 | 34.917 | 8.993 | 32.673 | 2 |
| 2025-04-23T11:53:00 | 53.906378 | 6.233424 | 2.0 | 8.806 | 2 | 34.909 | 8.985 | 32.672 | 2 |
| 2025-04-23T11:54:00 | 53.906439 | 6.233648 | 2.0 | 8.796 | 2 | 34.901 | 8.978 | 32.670 | 2 |
| 2025-04-23T11:55:00 | 53.906495 | 6.233815 | 2.0 | 8.788 | 2 | 34.593 | 8.968 | 32.359 | 2 |
| 2025-04-23T11:56:00 | 53.906512 | 6.233925 | 2.0 | 8.789 | 2 | 34.883 | 8.962 | 32.666 | 2 |
| 2025-04-23T11:57:00 | 53.906339 | 6.233903 | 2.0 | 8.789 | 2 | 34.882 | 8.961 | 32.666 | 2 |
| 2025-04-23T11:58:00 | 53.906062 | 6.233436 | 2.0 | 8.798 | 2 | 34.886 | 8.963 | 32.668 | 2 |
| 2025-04-23T11:59:00 | 53.906041 | 6.232109 | 2.0 | 8.807 | 2 | 34.895 | 8.970 | 32.671 | 2 |
| 2025-04-23T12:00:00 | 53.906461 | 6.229845 | 2.0 | 8.819 | 2 | 34.907 | 8.982 | 32.673 | 2 |
| 2025-04-23T12:01:00 | 53.907216 | 6.227159 | 2.0 | 8.829 | 2 | 34.923 | 8.997 | 32.675 | 2 |
| 2025-04-23T12:02:00 | 53.908111 | 6.224378 | 2.0 | 8.845 | 2 | 34.587 | 9.005 | 32.319 | 2 |
| 2025-04-23T12:03:00 | 53.909341 | 6.221985 | 2.0 | 8.840 | 2 | 34.947 | 9.015 | 32.684 | 2 |
| 2025-04-23T12:04:00 | 53.910665 | 6.219688 | 2.0 | 8.845 | 2 | 34.949 | 9.014 | 32.687 | 2 |
| 2025-04-23T12:05:00 | 53.912089 | 6.217538 | 2.0 | 8.848 | 2 | 34.946 | 9.020 | 32.678 | 2 |
| 2025-04-23T12:06:00 | 53.913553 | 6.215520 | 2.0 | 8.816 | 2 | 34.948 | 9.019 | 32.681 | 2 |
| 2025-04-23T12:07:00 | 53.914957 | 6.213649 | 2.0 | 8.781 | 2 | 34.928 | 8.986 | 32.691 | 2 |
| 2025-04-23T12:08:00 | 53.916283 | 6.211885 | 2.0 | 8.736 | 2 | 34.370 | 8.945 | 32.148 | 2 |
| 2025-04-23T12:09:00 | 53.917437 | 6.210415 | 2.0 | 8.757 | 2 | 34.864 | 8.916 | 32.688 | 2 |
| 2025-04-23T12:10:00 | 53.918442 | 6.209532 | 2.0 | 8.757 | 2 | 34.869 | 8.934 | 32.677 | 2 |
| 2025-04-23T12:11:00 | 53.919281 | 6.208695 | 2.0 | 8.739 | 2 | 34.725 | 8.927 | 32.534 | 2 |
| 2025-04-23T12:12:00 | 53.920024 | 6.208093 | 2.0 | 8.759 | 2 | 34.849 | 8.922 | 32.667 | 2 |
| 2025-04-23T12:13:00 | 53.920667 | 6.207611 | 2.0 | 8.751 | 2 | 34.890 | 8.930 | 32.703 | 2 |
| 2025-04-23T12:14:00 | 53.921227 | 6.207147 | 2.0 | 8.728 | 2 | 34.809 | 8.934 | 32.615 | 2 |
| 2025-04-23T12:15:00 | 53.921694 | 6.206920 | 2.0 | 8.669 | 2 | 34.858 | 8.907 | 32.691 | 2 |
| 2025-04-23T12:16:00 | 53.922180 | 6.206901 | 2.0 | 8.621 | 2 | 34.716 | 8.857 | 32.589 | 2 |
| 2025-04-23T12:17:00 | 53.922819 | 6.207184 | 2.0 | 8.635 | 2 | 34.802 | 8.822 | 32.710 | 2 |
| 2025-04-23T12:18:00 | 53.923547 | 6.207551 | 2.0 | 8.635 | 2 | 34.786 | 8.832 | 32.685 | 2 |
| 2025-04-23T12:19:00 | 53.924188 | 6.207805 | 2.0 | 8.654 | 2 | 34.812 | 8.836 | 32.708 | 2 |
| 2025-04-23T12:20:00 | 53.924534 | 6.208110 | 2.0 | 8.673 | 2 | 34.786 | 8.855 | 32.663 | 2 |
| 2025-04-23T12:21:00 | 53.924536 | 6.208448 | 2.0 | 8.688 | 2 | 34.843 | 8.875 | 32.704 | 2 |
| 2025-04-23T12:22:00 | 53.924410 | 6.208745 | 2.0 | 8.698 | 2 | 34.717 | 8.888 | 32.561 | 2 |
| 2025-04-23T12:23:00 | 53.924352 | 6.209076 | 2.0 | 8.701 | 2 | 34.640 | 8.896 | 32.474 | 2 |
| 2025-04-23T12:24:00 | 53.924369 | 6.209363 | 2.0 | 8.698 | 2 | 34.863 | 8.901 | 32.701 | 2 |
| 2025-04-23T12:25:00 | 53.924429 | 6.209417 | 2.0 | 8.693 | 2 | 34.855 | 8.900 | 32.694 | 2 |
| 2025-04-23T12:26:00 | 53.924495 | 6.209320 | 2.0 | 8.706 | 2 | 34.845 | 8.895 | 32.688 | 2 |
| 2025-04-23T12:27:00 | 53.924563 | 6.209194 | 2.0 | 8.716 | 2 | 34.749 | 8.912 | 32.572 | 2 |
| 2025-04-23T12:28:00 | 53.924709 | 6.209047 | 2.0 | 8.719 | 2 | 34.880 | 8.913 | 32.708 | 2 |
| 2025-04-23T12:29:00 | 53.924699 | 6.209144 | 2.0 | 8.722 | 2 | 34.794 | 8.924 | 32.608 | 2 |
| 2025-04-23T12:30:00 | 53.924301 | 6.209046 | 2.0 | 8.651 | 2 | 34.812 | 8.897 | 32.652 | 2 |
| 2025-04-23T12:31:00 | 53.923754 | 6.208908 | 2.0 | 8.668 | 2 | 34.789 | 8.869 | 32.654 | 2 |
| 2025-04-23T12:32:00 | 53.923236 | 6.208962 | 2.0 | 8.682 | 2 | 34.744 | 8.875 | 32.601 | 2 |
| 2025-04-23T12:33:00 | 53.922771 | 6.209168 | 2.0 | 8.699 | 2 | 34.830 | 8.889 | 32.678 | 2 |
| 2025-04-23T12:34:00 | 53.922393 | 6.209452 | 2.0 | 8.704 | 2 | 34.854 | 8.906 | 32.687 | 2 |
| 2025-04-23T12:35:00 | 53.922217 | 6.209584 | 2.0 | 8.648 | 2 | 34.752 | 8.901 | 32.586 | 2 |
| 2025-04-23T12:36:00 | 53.922202 | 6.209680 | 2.0 | 8.635 | 2 | 34.779 | 8.852 | 32.659 | 2 |
| 2025-04-23T12:37:00 | 53.922270 | 6.209867 | 2.0 | 8.701 | 2 | 34.759 | 8.856 | 32.634 | 2 |
| 2025-04-23T12:38:00 | 53.922293 | 6.209973 | 2.0 | 8.719 | 2 | 34.731 | 8.906 | 32.559 | 2 |
| 2025-04-23T12:39:00 | 53.922243 | 6.210043 | 2.0 | 8.713 | 2 | 34.781 | 8.923 | 32.596 | 2 |
| 2025-04-23T12:40:00 | 53.922197 | 6.210184 | 2.0 | 8.714 | 2 | 34.772 | 8.917 | 32.592 | 2 |
| 2025-04-23T12:41:00 | 53.922197 | 6.210384 | 2.0 | 8.723 | 2 | 34.796 | 8.923 | 32.611 | 2 |
| 2025-04-23T12:42:00 | 53.922257 | 6.210541 | 2.0 | 8.712 | 2 | 34.815 | 8.928 | 32.626 | 2 |
| 2025-04-23T12:43:00 | 53.922409 | 6.210668 | 2.0 | 8.678 | 2 | 34.784 | 8.916 | 32.605 | 2 |
| 2025-04-23T12:44:00 | 53.922626 | 6.210532 | 2.0 | 8.684 | 2 | 34.750 | 8.869 | 32.613 | 2 |
| 2025-04-23T12:45:00 | 53.922873 | 6.210519 | 2.0 | 8.700 | 2 | 34.748 | 8.892 | 32.590 | 2 |
| 2025-04-23T12:46:00 | 53.922603 | 6.211217 | 2.0 | 8.697 | 2 | 34.753 | 8.891 | 32.596 | 2 |
| 2025-04-23T12:47:00 | 53.922027 | 6.212954 | 2.0 | 8.735 | 2 | 34.793 | 8.908 | 32.622 | 2 |
| 2025-04-23T12:48:00 | 53.921325 | 6.214541 | 2.0 | 8.763 | 2 | 34.828 | 8.944 | 32.625 | 2 |
| 2025-04-23T12:49:00 | 53.920411 | 6.215433 | 2.0 | 8.761 | 2 | 34.855 | 8.974 | 32.626 | 2 |
| 2025-04-23T12:50:00 | 53.919529 | 6.216158 | 2.0 | 8.740 | 2 | 34.852 | 8.962 | 32.634 | 2 |
| 2025-04-23T12:51:00 | 53.918691 | 6.216942 | 2.0 | 8.727 | 2 | 34.859 | 8.942 | 32.659 | 2 |
| 2025-04-23T12:52:00 | 53.918053 | 6.217812 | 2.0 | 8.758 | 2 | 34.876 | 8.941 | 32.678 | 2 |
| 2025-04-23T12:53:00 | 53.917573 | 6.218719 | 2.0 | 8.767 | 2 | 34.890 | 8.964 | 32.671 | 2 |
| 2025-04-23T12:54:00 | 53.917178 | 6.219687 | 2.0 | 8.773 | 2 | 34.900 | 8.975 | 32.672 | 2 |
| 2025-04-23T12:55:00 | 53.916839 | 6.220698 | 2.0 | 8.806 | 2 | 34.911 | 8.985 | 32.674 | 2 |
| 2025-04-23T12:56:00 | 53.916590 | 6.221672 | 2.0 | 8.819 | 2 | 34.923 | 9.015 | 32.659 | 2 |
| 2025-04-23T12:57:00 | 53.916566 | 6.222320 | 2.0 | 8.809 | 2 | 34.976 | 9.025 | 32.705 | 2 |
| 2025-04-23T12:58:00 | 53.916607 | 6.222734 | 2.0 | 8.792 | 2 | 34.963 | 9.014 | 32.701 | 2 |
| 2025-04-23T12:59:00 | 53.916649 | 6.223057 | 2.0 | 8.778 | 2 | 34.950 | 8.997 | 32.703 | 2 |
| 2025-04-23T13:00:00 | 53.916660 | 6.223432 | 2.0 | 8.775 | 2 | 34.934 | 8.984 | 32.699 | 2 |
| 2025-04-23T13:01:00 | 53.916561 | 6.223702 | 2.0 | 8.758 | 2 | 34.920 | 8.986 | 32.682 | 2 |
| 2025-04-23T13:02:00 | 53.916486 | 6.223575 | 2.0 | 8.795 | 2 | 34.932 | 8.972 | 32.708 | 2 |
| 2025-04-23T13:03:00 | 53.916477 | 6.223667 | 2.0 | 8.796 | 2 | 34.925 | 9.001 | 32.674 | 2 |
| 2025-04-23T13:04:00 | 53.916597 | 6.223934 | 2.0 | 8.621 | 2 | 34.880 | 8.951 | 32.673 | 2 |
| 2025-04-23T13:05:00 | 53.916775 | 6.223930 | 2.0 | 8.727 | 2 | 34.818 | 8.879 | 32.675 | 2 |
| 2025-04-23T13:06:00 | 53.917098 | 6.224140 | 2.0 | 8.719 | 2 | 34.887 | 8.932 | 32.698 | 2 |
| 2025-04-23T13:07:00 | 53.916781 | 6.224885 | 2.0 | 8.737 | 2 | 34.896 | 8.930 | 32.709 | 2 |
| 2025-04-23T13:08:00 | 53.915918 | 6.225751 | 2.0 | 8.846 | 2 | 34.884 | 8.970 | 32.660 | 2 |
| 2025-04-23T13:09:00 | 53.914904 | 6.226635 | 2.0 | 8.856 | 2 | 34.997 | 9.056 | 32.698 | 2 |
| 2025-04-23T13:10:00 | 53.913950 | 6.227487 | 2.0 | 8.849 | 2 | 35.002 | 9.063 | 32.697 | 2 |
| 2025-04-23T13:11:00 | 53.913288 | 6.228382 | 2.0 | 8.795 | 2 | 34.994 | 9.052 | 32.699 | 2 |
| 2025-04-23T13:12:00 | 53.913107 | 6.229258 | 2.0 | 8.768 | 2 | 34.935 | 8.996 | 32.689 | 2 |
| 2025-04-23T13:13:00 | 53.912984 | 6.229950 | 2.0 | 8.762 | 2 | 34.911 | 8.979 | 32.679 | 2 |
| 2025-04-23T13:14:00 | 53.912823 | 6.230511 | 2.0 | 8.753 | 2 | 34.904 | 8.972 | 32.679 | 2 |
| 2025-04-23T13:15:00 | 53.912783 | 6.230945 | 2.0 | 8.740 | 2 | 34.891 | 8.961 | 32.675 | 2 |
| 2025-04-23T13:16:00 | 53.912829 | 6.231383 | 2.0 | 8.734 | 2 | 34.880 | 8.951 | 32.673 | 2 |
| 2025-04-23T13:17:00 | 53.912917 | 6.231751 | 2.0 | 8.734 | 2 | 34.866 | 8.945 | 32.664 | 2 |
| 2025-04-23T13:18:00 | 53.912916 | 6.231991 | 2.0 | 8.733 | 2 | 34.865 | 8.945 | 32.663 | 2 |
| 2025-04-23T13:19:00 | 53.912878 | 6.232513 | 2.0 | 8.728 | 2 | 34.868 | 8.945 | 32.666 | 2 |
| 2025-04-23T13:20:00 | 53.912813 | 6.232917 | 2.0 | 8.730 | 2 | 34.867 | 8.941 | 32.669 | 2 |
| 2025-04-23T13:21:00 | 53.912758 | 6.232846 | 2.0 | 8.730 | 2 | 34.866 | 8.941 | 32.668 | 2 |
| 2025-04-23T13:22:00 | 53.912754 | 6.232781 | 2.0 | 8.729 | 2 | 34.865 | 8.939 | 32.668 | 2 |
| 2025-04-23T13:23:00 | 53.912749 | 6.232758 | 2.0 | 8.724 | 2 | 34.866 | 8.937 | 32.671 | 2 |
| 2025-04-23T13:24:00 | 53.912700 | 6.232594 | 2.0 | 8.738 | 2 | 34.867 | 8.939 | 32.670 | 2 |
| 2025-04-23T13:25:00 | 53.912535 | 6.232599 | 2.0 | 8.732 | 2 | 34.874 | 8.949 | 32.669 | 2 |
| 2025-04-23T13:26:00 | 53.911821 | 6.233184 | 2.0 | 8.700 | 2 | 34.865 | 8.938 | 32.669 | 2 |
| 2025-04-23T13:27:00 | 53.910829 | 6.234105 | 2.0 | 8.685 | 2 | 34.841 | 8.913 | 32.667 | 2 |
| 2025-04-23T13:28:00 | 53.909910 | 6.234957 | 2.0 | 8.677 | 2 | 34.826 | 8.900 | 32.664 | 2 |
| 2025-04-23T13:29:00 | 53.909391 | 6.235733 | 2.0 | 8.676 | 2 | 34.817 | 8.889 | 32.664 | 2 |
| 2025-04-23T13:30:00 | 53.909354 | 6.236246 | 2.0 | 8.673 | 2 | 34.814 | 8.890 | 32.660 | 2 |
| 2025-04-23T13:31:00 | 53.909441 | 6.236570 | 2.0 | 8.665 | 2 | 34.810 | 8.885 | 32.661 | 2 |
| 2025-04-23T13:32:00 | 53.909634 | 6.236969 | 2.0 | 8.663 | 2 | 34.804 | 8.880 | 32.659 | 2 |
| 2025-04-23T13:33:00 | 53.909825 | 6.237455 | 2.0 | 8.670 | 2 | 34.793 | 8.878 | 32.650 | 2 |
| 2025-04-23T13:34:00 | 53.909915 | 6.237888 | 2.0 | 8.670 | 2 | 34.795 | 8.883 | 32.647 | 2 |
| 2025-04-23T13:35:00 | 53.909963 | 6.238256 | 2.0 | 8.664 | 2 | 34.797 | 8.882 | 32.650 | 2 |
| 2025-04-23T13:36:00 | 53.909926 | 6.238382 | 2.0 | 8.666 | 2 | 34.796 | 8.877 | 32.654 | 2 |
| 2025-04-23T13:37:00 | 53.909854 | 6.238375 | 2.0 | 8.663 | 2 | 34.797 | 8.876 | 32.656 | 2 |
| 2025-04-23T13:38:00 | 53.909802 | 6.238165 | 2.0 | 8.672 | 2 | 34.801 | 8.879 | 32.657 | 2 |
| 2025-04-23T13:39:00 | 53.909809 | 6.238103 | 2.0 | 8.647 | 2 | 34.803 | 8.882 | 32.656 | 2 |
| 2025-04-23T13:40:00 | 53.909748 | 6.238394 | 2.0 | 8.645 | 2 | 34.789 | 8.858 | 32.664 | 2 |
| 2025-04-23T13:41:00 | 53.909689 | 6.239079 | 2.0 | 8.658 | 2 | 34.785 | 8.857 | 32.660 | 2 |
| 2025-04-23T13:42:00 | 53.910299 | 6.239994 | 2.0 | 8.644 | 2 | 34.784 | 8.852 | 32.664 | 2 |
| 2025-04-23T13:43:00 | 53.911589 | 6.241333 | 2.0 | 8.687 | 2 | 34.783 | 8.873 | 32.644 | 2 |
| 2025-04-23T13:44:00 | 53.913597 | 6.243439 | 2.0 | 8.708 | 2 | 34.826 | 8.910 | 32.654 | 2 |
| 2025-04-23T13:45:00 | 53.915877 | 6.245861 | 2.0 | 8.706 | 2 | 34.851 | 8.926 | 32.666 | 2 |
| 2025-04-23T13:46:00 | 53.918231 | 6.248386 | 2.0 | 8.727 | 2 | 34.862 | 8.935 | 32.669 | 2 |
| 2025-04-23T13:47:00 | 53.920611 | 6.250957 | 2.0 | 8.658 | 2 | 34.863 | 8.933 | 32.672 | 2 |
| 2025-04-23T13:48:00 | 53.923069 | 6.253630 | 2.0 | 8.637 | 2 | 34.814 | 8.876 | 32.673 | 2 |
| 2025-04-23T13:49:00 | 53.925577 | 6.256363 | 2.0 | 8.523 | 2 | 34.785 | 8.816 | 32.698 | 2 |
| 2025-04-23T13:50:00 | 53.928084 | 6.259133 | 2.0 | 8.542 | 2 | 34.738 | 8.732 | 32.727 | 2 |
| 2025-04-23T13:51:00 | 53.930588 | 6.261900 | 2.0 | 8.717 | 2 | 34.763 | 8.770 | 32.718 | 2 |
| 2025-04-23T13:52:00 | 53.933097 | 6.264677 | 2.0 | 8.857 | 2 | 34.931 | 8.941 | 32.735 | 2 |
| 2025-04-23T13:53:00 | 53.935612 | 6.267468 | 2.0 | 9.021 | 2 | 35.078 | 9.066 | 32.773 | 2 |
| 2025-04-23T13:54:00 | 53.938143 | 6.270249 | 2.0 | 8.942 | 2 | 35.254 | 9.195 | 32.836 | 2 |
| 2025-04-23T13:55:00 | 53.940684 | 6.273024 | 2.0 | 8.752 | 2 | 35.221 | 9.113 | 32.878 | 2 |
| 2025-04-23T13:56:00 | 53.943209 | 6.275792 | 2.0 | 8.675 | 2 | 35.070 | 8.916 | 32.903 | 2 |
| 2025-04-23T13:57:00 | 53.945732 | 6.278575 | 2.0 | 8.729 | 2 | 35.053 | 8.902 | 32.898 | 2 |
| 2025-04-23T13:58:00 | 53.948252 | 6.281370 | 2.0 | 8.702 | 2 | 35.055 | 8.907 | 32.896 | 2 |
| 2025-04-23T13:59:00 | 53.950765 | 6.284164 | 2.0 | 8.631 | 2 | 35.013 | 8.885 | 32.872 | 2 |
| 2025-04-23T14:00:00 | 53.953271 | 6.286965 | 2.0 | 8.607 | 2 | 34.924 | 8.814 | 32.845 | 2 |
| 2025-04-23T14:01:00 | 53.955785 | 6.289765 | 2.0 | 8.717 | 2 | 34.902 | 8.823 | 32.814 | 2 |
| 2025-04-23T14:02:00 | 53.958304 | 6.292564 | 2.0 | 8.823 | 2 | 34.957 | 8.918 | 32.784 | 2 |
| 2025-04-23T14:03:00 | 53.960828 | 6.295362 | 2.0 | 8.983 | 2 | 35.051 | 9.039 | 32.770 | 2 |
| 2025-04-23T14:06:00 | 53.968425 | 6.303804 | 2.0 | 9.059 | 2 | 35.507 | 9.463 | 32.851 | 2 |
| 2025-04-23T14:07:00 | 53.970973 | 6.306554 | 2.0 | 8.358 | 2 | 35.327 | 9.052 | 33.044 | 2 |
| 2025-04-23T14:08:00 | 53.973514 | 6.309276 | 2.0 | 8.327 | 2 | 34.927 | 8.581 | 33.066 | 2 |
| 2025-04-23T14:09:00 | 53.976056 | 6.311977 | 2.0 | 8.348 | 2 | 34.855 | 8.535 | 33.033 | 2 |
| 2025-04-23T14:10:00 | 53.978605 | 6.314683 | 2.0 | 8.402 | 2 | 34.845 | 8.550 | 33.008 | 2 |
| 2025-04-23T14:11:00 | 53.981163 | 6.317359 | 2.0 | 8.386 | 2 | 34.864 | 8.597 | 32.984 | 2 |
| 2025-04-23T14:12:00 | 53.983690 | 6.320070 | 2.0 | 8.315 | 2 | 34.867 | 8.557 | 33.025 | 2 |
| 2025-04-23T14:13:00 | 53.986214 | 6.322795 | 2.0 | 8.419 | 2 | 34.882 | 8.537 | 33.059 | 2 |
| 2025-04-23T14:14:00 | 53.988748 | 6.325498 | 2.0 | 8.479 | 2 | 34.918 | 8.608 | 33.031 | 2 |
| 2025-04-23T14:15:00 | 53.991288 | 6.328194 | 2.0 | 8.530 | 2 | 34.953 | 8.673 | 33.007 | 2 |
| 2025-04-23T14:16:00 | 53.993830 | 6.330897 | 2.0 | 8.568 | 2 | 34.992 | 8.723 | 33.001 | 2 |
| 2025-04-23T14:17:00 | 53.996368 | 6.333604 | 2.0 | 8.631 | 2 | 35.014 | 8.757 | 32.992 | 2 |
| 2025-04-23T14:18:00 | 53.998920 | 6.336302 | 2.0 | 8.719 | 2 | 35.080 | 8.834 | 32.990 | 2 |
| 2025-04-23T14:19:00 | 54.001467 | 6.339025 | 2.0 | 8.688 | 2 | 35.157 | 8.886 | 33.022 | 2 |
| 2025-04-23T14:20:00 | 54.004007 | 6.341759 | 2.0 | 8.689 | 2 | 35.151 | 8.876 | 33.025 | 2 |
| 2025-04-23T14:21:00 | 54.006532 | 6.344534 | 2.0 | 8.713 | 2 | 35.163 | 8.867 | 33.046 | 2 |
| 2025-04-23T14:22:00 | 54.009060 | 6.347310 | 2.0 | 8.734 | 2 | 35.189 | 8.895 | 33.047 | 2 |
| 2025-04-23T14:23:00 | 54.011596 | 6.350116 | 2.0 | 8.787 | 2 | 35.232 | 8.931 | 33.058 | 2 |
| 2025-04-23T14:24:00 | 54.014128 | 6.352936 | 2.0 | 8.832 | 2 | 35.276 | 8.975 | 33.063 | 2 |
| 2025-04-23T14:25:00 | 54.016662 | 6.355774 | 2.0 | 8.841 | 2 | 35.321 | 9.011 | 33.076 | 2 |
| 2025-04-23T14:26:00 | 54.019202 | 6.358637 | 2.0 | 8.837 | 2 | 35.350 | 9.022 | 33.096 | 2 |
| 2025-04-23T14:27:00 | 54.021753 | 6.361520 | 2.0 | 8.823 | 2 | 35.361 | 9.015 | 33.114 | 2 |
| 2025-04-23T14:28:00 | 54.024299 | 6.364395 | 2.0 | 8.775 | 2 | 35.370 | 9.004 | 33.134 | 2 |
| 2025-04-23T14:29:00 | 54.026857 | 6.367297 | 2.0 | 8.825 | 2 | 35.363 | 8.962 | 33.166 | 2 |
| 2025-04-23T14:30:00 | 54.029430 | 6.370194 | 2.0 | 8.908 | 2 | 35.439 | 9.025 | 33.186 | 2 |
| 2025-04-23T14:31:00 | 54.031777 | 6.372814 | 2.0 | 8.948 | 2 | 35.526 | 9.090 | 33.216 | 2 |
| 2025-04-23T14:32:00 | 54.033730 | 6.375014 | 2.0 | 8.978 | 2 | 35.555 | 9.130 | 33.209 | 2 |
| 2025-04-23T14:33:00 | 54.035583 | 6.376168 | 2.0 | 8.985 | 2 | 35.559 | 9.161 | 33.184 | 2 |
| 2025-04-23T14:34:00 | 54.037332 | 6.376355 | 2.0 | 8.978 | 2 | 35.552 | 9.173 | 33.166 | 2 |
| 2025-04-23T14:35:00 | 54.039041 | 6.375840 | 2.0 | 8.970 | 2 | 35.541 | 9.172 | 33.155 | 2 |
| 2025-04-23T14:36:00 | 54.040463 | 6.374819 | 2.0 | 8.961 | 2 | 35.539 | 9.166 | 33.159 | 2 |
| 2025-04-23T14:37:00 | 54.041610 | 6.373721 | 2.0 | 8.952 | 2 | 35.543 | 9.158 | 33.170 | 2 |
| 2025-04-23T14:38:00 | 54.042524 | 6.372706 | 2.0 | 8.937 | 2 | 35.543 | 9.149 | 33.179 | 2 |
| 2025-04-23T14:39:00 | 54.043131 | 6.371867 | 2.0 | 8.889 | 2 | 35.536 | 9.128 | 33.191 | 2 |
| 2025-04-23T14:40:00 | 54.043374 | 6.371378 | 2.0 | 8.812 | 2 | 35.519 | 9.080 | 33.218 | 2 |
| 2025-04-23T14:41:00 | 54.043470 | 6.371247 | 2.0 | 8.797 | 2 | 35.481 | 8.993 | 33.260 | 2 |
| 2025-04-23T14:42:00 | 54.043522 | 6.371207 | 2.0 | 8.880 | 2 | 35.489 | 9.033 | 33.231 | 2 |
| 2025-04-23T14:43:00 | 54.043550 | 6.371117 | 2.0 | 8.883 | 2 | 35.528 | 9.081 | 33.226 | 2 |
| 2025-04-23T14:44:00 | 54.043545 | 6.371023 | 2.0 | 8.893 | 2 | 35.537 | 9.093 | 33.225 | 2 |
| 2025-04-23T14:45:00 | 54.043564 | 6.370997 | 2.0 | 8.885 | 2 | 35.545 | 9.100 | 33.226 | 2 |
| 2025-04-23T14:46:00 | 54.043534 | 6.371011 | 2.0 | 8.882 | 2 | 35.542 | 9.091 | 33.232 | 2 |
| 2025-04-23T14:47:00 | 54.043537 | 6.370926 | 2.0 | 8.866 | 2 | 35.541 | 9.083 | 33.238 | 2 |
| 2025-04-23T14:48:00 | 54.043454 | 6.370823 | 2.0 | 8.835 | 2 | 35.538 | 9.073 | 33.244 | 2 |
| 2025-04-23T14:49:00 | 54.043444 | 6.370774 | 2.0 | 8.835 | 2 | 35.529 | 9.046 | 33.260 | 2 |
| 2025-04-23T14:50:00 | 54.043448 | 6.370800 | 2.0 | 8.815 | 2 | 35.528 | 9.042 | 33.263 | 2 |
| 2025-04-23T14:51:00 | 54.043447 | 6.370740 | 2.0 | 8.818 | 2 | 35.524 | 9.028 | 33.272 | 2 |
| 2025-04-23T14:52:00 | 54.043472 | 6.370770 | 2.0 | 8.821 | 2 | 35.528 | 9.030 | 33.274 | 2 |
| 2025-04-23T14:53:00 | 54.043478 | 6.370827 | 2.0 | 8.812 | 2 | 35.532 | 9.033 | 33.275 | 2 |
| 2025-04-23T14:54:00 | 54.043500 | 6.370897 | 2.0 | 8.809 | 2 | 35.528 | 9.024 | 33.280 | 2 |
| 2025-04-23T14:55:00 | 54.043594 | 6.370957 | 2.0 | 8.803 | 2 | 35.527 | 9.020 | 33.282 | 2 |
| 2025-04-23T14:56:00 | 54.043619 | 6.370987 | 2.0 | 8.802 | 2 | 35.526 | 9.015 | 33.286 | 2 |
| 2025-04-23T14:57:00 | 54.043641 | 6.371051 | 2.0 | 8.781 | 2 | 35.526 | 9.010 | 33.291 | 2 |
| 2025-04-23T14:58:00 | 54.043677 | 6.371106 | 2.0 | 8.793 | 2 | 35.519 | 8.996 | 33.296 | 2 |
| 2025-04-23T14:59:00 | 54.043720 | 6.371171 | 2.0 | 8.785 | 2 | 35.527 | 9.007 | 33.295 | 2 |
| 2025-04-23T15:00:00 | 54.043769 | 6.371241 | 2.0 | 8.775 | 2 | 35.525 | 8.998 | 33.301 | 2 |
| 2025-04-23T15:01:00 | 54.043810 | 6.371313 | 2.0 | 8.773 | 2 | 35.520 | 8.988 | 33.305 | 2 |
| 2025-04-23T15:02:00 | 54.043862 | 6.371401 | 2.0 | 8.771 | 2 | 35.520 | 8.988 | 33.305 | 2 |
| 2025-04-23T15:03:00 | 54.043912 | 6.371491 | 2.0 | 8.761 | 2 | 35.518 | 8.982 | 33.309 | 2 |
| 2025-04-23T15:04:00 | 54.043955 | 6.371583 | 2.0 | 8.747 | 2 | 35.514 | 8.972 | 33.314 | 2 |
| 2025-04-23T15:05:00 | 54.043995 | 6.371675 | 2.0 | 8.762 | 2 | 35.508 | 8.964 | 33.315 | 2 |
| 2025-04-23T15:06:00 | 54.044031 | 6.371741 | 2.0 | 8.740 | 2 | 35.514 | 8.973 | 33.313 | 2 |
| 2025-04-23T15:07:00 | 54.044051 | 6.371795 | 2.0 | 8.727 | 2 | 35.505 | 8.953 | 33.322 | 2 |
| 2025-04-23T15:08:00 | 54.043872 | 6.371952 | 2.0 | 8.724 | 2 | 35.495 | 8.939 | 33.325 | 2 |
| 2025-04-23T15:09:00 | 54.043483 | 6.372302 | 2.0 | 8.713 | 2 | 35.496 | 8.937 | 33.328 | 2 |
| 2025-04-23T15:10:00 | 54.042937 | 6.372762 | 2.0 | 8.719 | 2 | 35.490 | 8.927 | 33.331 | 2 |
| 2025-04-23T15:11:00 | 54.042276 | 6.373302 | 2.0 | 8.727 | 2 | 35.494 | 8.931 | 33.331 | 2 |
| 2025-04-23T15:12:00 | 54.041519 | 6.373880 | 2.0 | 8.719 | 2 | 35.505 | 8.943 | 33.332 | 2 |
| 2025-04-23T15:13:00 | 54.040698 | 6.374502 | 2.0 | 8.745 | 2 | 35.505 | 8.937 | 33.337 | 2 |
| 2025-04-23T15:14:00 | 54.039816 | 6.375159 | 2.0 | 8.811 | 2 | 35.528 | 8.965 | 33.335 | 2 |
| 2025-04-23T15:15:00 | 54.038894 | 6.375840 | 2.0 | 8.897 | 2 | 35.578 | 9.032 | 33.324 | 2 |
| 2025-04-23T15:16:00 | 54.037928 | 6.376553 | 2.0 | 8.927 | 2 | 35.640 | 9.110 | 33.316 | 2 |
| 2025-04-23T15:17:00 | 54.036847 | 6.377355 | 2.0 | 8.911 | 2 | 35.651 | 9.135 | 33.304 | 2 |
| 2025-04-23T15:18:00 | 54.035598 | 6.378221 | 2.0 | 8.848 | 2 | 35.615 | 9.114 | 33.286 | 2 |
| 2025-04-23T15:19:00 | 54.034315 | 6.379482 | 2.0 | 8.773 | 2 | 35.532 | 9.053 | 33.257 | 2 |
| 2025-04-23T15:20:00 | 54.033313 | 6.381441 | 2.0 | 8.745 | 2 | 35.446 | 8.986 | 33.230 | 2 |
| 2025-04-23T15:21:00 | 54.032879 | 6.383771 | 2.0 | 8.735 | 2 | 35.409 | 8.954 | 33.221 | 2 |
| 2025-04-23T15:22:00 | 54.033021 | 6.386066 | 2.0 | 8.820 | 2 | 35.395 | 8.948 | 33.212 | 2 |
| 2025-04-23T15:23:00 | 54.033709 | 6.387967 | 2.0 | 8.855 | 2 | 35.455 | 9.015 | 33.212 | 2 |
| 2025-04-23T15:24:00 | 54.034780 | 6.389211 | 2.0 | 8.877 | 2 | 35.496 | 9.052 | 33.220 | 2 |
| 2025-04-23T15:25:00 | 54.036043 | 6.389789 | 2.0 | 8.890 | 2 | 35.530 | 9.069 | 33.240 | 2 |
| 2025-04-23T15:26:00 | 54.037360 | 6.389699 | 2.0 | 8.910 | 2 | 35.545 | 9.083 | 33.242 | 2 |
| 2025-04-23T15:27:00 | 54.038728 | 6.389400 | 2.0 | 8.910 | 2 | 35.591 | 9.099 | 33.275 | 2 |
| 2025-04-23T15:28:00 | 54.040148 | 6.388994 | 2.0 | 8.883 | 2 | 35.534 | 9.093 | 33.221 | 2 |
| 2025-04-23T15:29:00 | 54.041622 | 6.388569 | 2.0 | 8.850 | 2 | 35.538 | 9.065 | 33.252 | 2 |
| 2025-04-23T15:30:00 | 54.043116 | 6.388121 | 2.0 | 8.838 | 2 | 35.329 | 9.036 | 33.061 | 2 |
| 2025-04-23T15:31:00 | 54.044613 | 6.387654 | 2.0 | 8.788 | 2 | 35.407 | 9.014 | 33.163 | 2 |
| 2025-04-23T15:32:00 | 54.046118 | 6.387201 | 2.0 | 8.662 | 2 | 35.502 | 8.965 | 33.308 | 2 |
| 2025-04-23T15:33:00 | 54.047624 | 6.386777 | 2.0 | 8.722 | 2 | 35.224 | 8.857 | 33.119 | 2 |
| 2025-04-23T15:34:00 | 54.049137 | 6.386329 | 2.0 | 8.702 | 2 | 35.375 | 8.902 | 33.234 | 2 |
| 2025-04-23T15:35:00 | 54.050581 | 6.385638 | 2.0 | 8.661 | 2 | 35.349 | 8.879 | 33.229 | 2 |
| 2025-04-23T15:36:00 | 54.051712 | 6.384223 | 2.0 | 8.623 | 2 | 35.305 | 8.846 | 33.214 | 2 |
| 2025-04-23T15:37:00 | 54.052381 | 6.382235 | 2.0 | 8.561 | 2 | 35.271 | 8.800 | 33.221 | 2 |
| 2025-04-23T15:38:00 | 54.052524 | 6.379996 | 2.0 | 8.464 | 2 | 35.220 | 8.739 | 33.225 | 2 |
| 2025-04-23T15:39:00 | 54.052130 | 6.377812 | 2.0 | 8.420 | 2 | 35.223 | 8.637 | 33.324 | 2 |
| 2025-04-23T15:40:00 | 54.051216 | 6.376063 | 2.0 | 8.418 | 2 | 35.078 | 8.611 | 33.196 | 2 |
| 2025-04-23T15:41:00 | 54.049968 | 6.375143 | 2.0 | 8.407 | 2 | 35.293 | 8.607 | 33.426 | 2 |
| 2025-04-23T15:42:00 | 54.048737 | 6.374289 | 2.0 | 8.390 | 2 | 35.195 | 8.592 | 33.337 | 2 |
| 2025-04-23T15:43:00 | 54.047377 | 6.374102 | 2.0 | 8.498 | 2 | 35.222 | 8.579 | 33.378 | 2 |
| 2025-04-23T15:44:00 | 54.046011 | 6.374071 | 2.0 | 8.797 | 2 | 35.290 | 8.750 | 33.288 | 2 |
| 2025-04-23T15:45:00 | 54.044676 | 6.373949 | 2.0 | 8.881 | 2 | 35.543 | 8.986 | 33.331 | 2 |
| 2025-04-23T15:46:00 | 54.043333 | 6.374065 | 2.0 | 8.856 | 2 | 35.599 | 9.056 | 33.324 | 2 |
| 2025-04-23T15:47:00 | 54.042002 | 6.373985 | 2.0 | 8.777 | 2 | 35.589 | 9.020 | 33.347 | 2 |
| 2025-04-23T15:48:00 | 54.040641 | 6.373936 | 2.0 | 8.694 | 2 | 35.487 | 8.948 | 33.308 | 2 |
| 2025-04-23T15:49:00 | 54.039249 | 6.373965 | 2.0 | 8.582 | 2 | 35.264 | 8.858 | 33.160 | 2 |
| 2025-04-23T15:50:00 | 54.037864 | 6.373950 | 2.0 | 8.579 | 2 | 35.086 | 8.762 | 33.063 | 2 |
| 2025-04-23T15:51:00 | 54.036557 | 6.374499 | 2.0 | 8.613 | 2 | 35.147 | 8.778 | 33.112 | 2 |
| 2025-04-23T15:52:00 | 54.035376 | 6.375510 | 2.0 | 8.615 | 2 | 35.051 | 8.799 | 32.992 | 2 |
| 2025-04-23T15:53:00 | 54.034214 | 6.375512 | 2.0 | 8.603 | 2 | 35.031 | 8.791 | 32.979 | 2 |
| 2025-04-23T15:54:00 | 54.033643 | 6.374083 | 2.0 | 8.600 | 2 | 34.961 | 8.786 | 32.910 | 2 |
| 2025-04-23T15:55:00 | 54.033987 | 6.372273 | 2.0 | 8.568 | 2 | 34.946 | 8.772 | 32.907 | 2 |
| 2025-04-23T15:56:00 | 54.035028 | 6.371277 | 2.0 | 8.550 | 2 | 34.971 | 8.750 | 32.954 | 2 |
| 2025-04-23T15:57:00 | 54.036105 | 6.370414 | 2.0 | 8.596 | 2 | 34.989 | 8.746 | 32.976 | 2 |
| 2025-04-23T15:58:00 | 54.037242 | 6.369835 | 2.0 | 8.601 | 2 | 34.977 | 8.775 | 32.937 | 2 |
| 2025-04-23T15:59:00 | 54.038439 | 6.369427 | 2.0 | 8.609 | 2 | 35.005 | 8.784 | 32.958 | 2 |
| 2025-04-23T16:00:00 | 54.039682 | 6.369319 | 2.0 | 8.606 | 2 | 35.040 | 8.790 | 32.989 | 2 |
| 2025-04-23T16:01:00 | 54.040921 | 6.369286 | 2.0 | 8.604 | 2 | 34.785 | 8.785 | 32.727 | 2 |
| 2025-04-23T16:02:00 | 54.042162 | 6.369219 | 2.0 | 8.612 | 2 | 35.073 | 8.786 | 33.027 | 2 |
| 2025-04-23T16:03:00 | 54.043412 | 6.369150 | 2.0 | 8.617 | 2 | 35.062 | 8.793 | 33.009 | 2 |
| 2025-04-23T16:04:00 | 54.044662 | 6.369150 | 2.0 | 8.621 | 2 | 35.015 | 8.796 | 32.957 | 2 |
| 2025-04-23T16:05:00 | 54.045929 | 6.369149 | 2.0 | 8.629 | 2 | 35.005 | 8.804 | 32.939 | 2 |
| 2025-04-23T16:06:00 | 54.047204 | 6.369081 | 2.0 | 8.628 | 2 | 35.120 | 8.807 | 33.057 | 2 |
| 2025-04-23T16:07:00 | 54.048480 | 6.368955 | 2.0 | 8.643 | 2 | 35.124 | 8.810 | 33.058 | 2 |
| 2025-04-23T16:08:00 | 54.049595 | 6.368308 | 2.0 | 8.654 | 2 | 35.121 | 8.824 | 33.042 | 2 |
| 2025-04-23T16:09:00 | 54.050719 | 6.367658 | 2.0 | 8.633 | 2 | 35.175 | 8.835 | 33.088 | 2 |
| 2025-04-23T16:10:00 | 54.051985 | 6.368301 | 2.0 | 8.571 | 2 | 35.133 | 8.777 | 33.098 | 2 |
| 2025-04-23T16:11:00 | 54.052610 | 6.370317 | 2.0 | 8.603 | 2 | 35.117 | 8.771 | 33.087 | 2 |
| 2025-04-23T16:12:00 | 54.052131 | 6.372319 | 2.0 | 8.592 | 2 | 35.131 | 8.778 | 33.095 | 2 |
| 2025-04-23T16:13:00 | 54.051064 | 6.373049 | 2.0 | 8.634 | 2 | 35.166 | 8.778 | 33.132 | 2 |
| 2025-04-23T16:14:00 | 54.049838 | 6.372879 | 2.0 | 8.658 | 2 | 35.200 | 8.820 | 33.128 | 2 |
| 2025-04-23T16:15:00 | 54.048527 | 6.372890 | 2.0 | 8.648 | 2 | 35.223 | 8.830 | 33.143 | 2 |
| 2025-04-23T16:16:00 | 54.047245 | 6.372864 | 2.0 | 8.627 | 2 | 35.220 | 8.823 | 33.146 | 2 |
| 2025-04-23T16:17:00 | 54.045978 | 6.372958 | 2.0 | 8.582 | 2 | 35.188 | 8.796 | 33.138 | 2 |
| 2025-04-23T16:18:00 | 54.044722 | 6.372882 | 2.0 | 8.568 | 2 | 35.184 | 8.769 | 33.159 | 2 |
| 2025-04-23T16:19:00 | 54.043451 | 6.372966 | 2.0 | 8.552 | 2 | 35.160 | 8.732 | 33.169 | 2 |
| 2025-04-23T16:20:00 | 54.042210 | 6.372861 | 2.0 | 8.532 | 2 | 35.149 | 8.734 | 33.155 | 2 |
| 2025-04-23T16:21:00 | 54.040949 | 6.372922 | 2.0 | 8.600 | 2 | 34.775 | 8.724 | 32.773 | 2 |
| 2025-04-23T16:22:00 | 54.039705 | 6.372991 | 2.0 | 8.579 | 2 | 35.172 | 8.761 | 33.154 | 2 |
| 2025-04-23T16:23:00 | 54.038484 | 6.372859 | 2.0 | 8.530 | 2 | 35.174 | 8.765 | 33.152 | 2 |
| 2025-04-23T16:24:00 | 54.037257 | 6.372874 | 2.0 | 8.522 | 2 | 35.105 | 8.697 | 33.144 | 2 |
| 2025-04-23T16:25:00 | 54.036106 | 6.373464 | 2.0 | 8.577 | 2 | 35.111 | 8.721 | 33.128 | 2 |
| 2025-04-23T16:26:00 | 54.034937 | 6.373943 | 2.0 | 8.509 | 2 | 35.138 | 8.744 | 33.134 | 2 |
| 2025-04-23T16:27:00 | 54.033843 | 6.373185 | 2.0 | 8.525 | 2 | 35.072 | 8.695 | 33.111 | 2 |
| 2025-04-23T16:28:00 | 54.033625 | 6.371323 | 2.0 | 8.501 | 2 | 35.058 | 8.694 | 33.097 | 2 |
| 2025-04-23T16:29:00 | 54.034440 | 6.369842 | 2.0 | 8.509 | 2 | 35.032 | 8.678 | 33.085 | 2 |
| 2025-04-23T16:30:00 | 54.035671 | 6.369367 | 2.0 | 8.543 | 2 | 35.052 | 8.698 | 33.087 | 2 |
| 2025-04-23T16:31:00 | 54.036780 | 6.368765 | 2.0 | 8.529 | 2 | 34.835 | 8.716 | 32.843 | 2 |
| 2025-04-23T16:32:00 | 54.037898 | 6.368445 | 2.0 | 8.534 | 2 | 35.073 | 8.712 | 33.096 | 2 |
| 2025-04-23T16:33:00 | 54.039046 | 6.368302 | 2.0 | 8.527 | 2 | 34.848 | 8.709 | 32.863 | 2 |
| 2025-04-23T16:34:00 | 54.040213 | 6.368282 | 2.0 | 8.535 | 2 | 34.839 | 8.707 | 32.856 | 2 |
| 2025-04-23T16:35:00 | 54.041402 | 6.368256 | 2.0 | 8.544 | 2 | 34.889 | 8.711 | 32.904 | 2 |
| 2025-04-23T16:36:00 | 54.042604 | 6.368236 | 2.0 | 8.531 | 2 | 34.969 | 8.726 | 32.974 | 2 |
| 2025-04-23T16:37:00 | 54.043793 | 6.368209 | 2.0 | 8.560 | 2 | 35.056 | 8.710 | 33.080 | 2 |
| 2025-04-23T16:38:00 | 54.044980 | 6.368189 | 2.0 | 8.538 | 2 | 34.877 | 8.736 | 32.869 | 2 |
| 2025-04-23T16:39:00 | 54.046175 | 6.368189 | 2.0 | 8.567 | 2 | 35.073 | 8.719 | 33.090 | 2 |
| 2025-04-23T16:40:00 | 54.047381 | 6.368179 | 2.0 | 8.597 | 2 | 34.935 | 8.748 | 32.918 | 2 |
| 2025-04-23T16:41:00 | 54.048583 | 6.368073 | 2.0 | 8.560 | 2 | 34.909 | 8.772 | 32.869 | 2 |
| 2025-04-23T16:42:00 | 54.049633 | 6.367392 | 2.0 | 8.532 | 2 | 35.083 | 8.730 | 33.090 | 2 |
| 2025-04-23T16:43:00 | 54.050681 | 6.366650 | 2.0 | 8.521 | 2 | 35.074 | 8.709 | 33.100 | 2 |
| 2025-04-23T16:44:00 | 54.051838 | 6.366724 | 2.0 | 8.516 | 2 | 34.704 | 8.697 | 32.724 | 2 |
| 2025-04-23T16:45:00 | 54.052767 | 6.368072 | 2.0 | 8.547 | 2 | 34.876 | 8.696 | 32.905 | 2 |
| 2025-04-23T16:46:00 | 54.052885 | 6.370182 | 2.0 | 8.582 | 2 | 35.084 | 8.733 | 33.088 | 2 |
| 2025-04-23T16:47:00 | 54.052093 | 6.371709 | 2.0 | 8.580 | 2 | 34.917 | 8.754 | 32.894 | 2 |
| 2025-04-23T16:48:00 | 54.051006 | 6.371933 | 2.0 | 8.576 | 2 | 35.089 | 8.760 | 33.068 | 2 |
| 2025-04-23T16:49:00 | 54.049829 | 6.371772 | 2.0 | 8.624 | 2 | 35.108 | 8.756 | 33.092 | 2 |
| 2025-04-23T16:50:00 | 54.048544 | 6.371856 | 2.0 | 8.547 | 2 | 35.173 | 8.782 | 33.135 | 2 |
| 2025-04-23T16:51:00 | 54.047181 | 6.371895 | 2.0 | 8.584 | 2 | 35.082 | 8.741 | 33.079 | 2 |
| 2025-04-23T16:52:00 | 54.045808 | 6.371902 | 2.0 | 8.536 | 2 | 34.827 | 8.750 | 32.803 | 2 |
| 2025-04-23T16:53:00 | 54.044479 | 6.371908 | 2.0 | 8.563 | 2 | 35.074 | 8.723 | 33.087 | 2 |
| 2025-04-23T16:54:00 | 54.043176 | 6.371914 | 2.0 | 8.498 | 2 | 35.071 | 8.725 | 33.082 | 2 |
| 2025-04-23T16:55:00 | 54.041885 | 6.371904 | 2.0 | 8.473 | 2 | 34.842 | 8.667 | 32.896 | 2 |
| 2025-04-23T16:56:00 | 54.040601 | 6.371943 | 2.0 | 8.479 | 2 | 35.001 | 8.657 | 33.072 | 2 |
| 2025-04-23T16:57:00 | 54.039330 | 6.371946 | 2.0 | 8.481 | 2 | 34.852 | 8.658 | 32.915 | 2 |
| 2025-04-23T16:58:00 | 54.038057 | 6.371927 | 2.0 | 8.462 | 2 | 34.818 | 8.653 | 32.884 | 2 |
| 2025-04-23T16:59:00 | 54.036790 | 6.371904 | 2.0 | 8.457 | 2 | 34.816 | 8.636 | 32.898 | 2 |
| 2025-04-23T17:00:00 | 54.035517 | 6.371870 | 2.0 | 8.464 | 2 | 34.930 | 8.640 | 33.013 | 2 |
| 2025-04-23T17:01:00 | 54.034534 | 6.371096 | 2.0 | 8.466 | 2 | 34.863 | 8.637 | 32.946 | 2 |
| 2025-04-23T17:02:00 | 54.034326 | 6.369192 | 2.0 | 8.476 | 2 | 34.872 | 8.645 | 32.948 | 2 |
| 2025-04-23T17:03:00 | 54.035158 | 6.367827 | 2.0 | 8.455 | 2 | 34.792 | 8.645 | 32.864 | 2 |
| 2025-04-23T17:04:00 | 54.036438 | 6.367630 | 2.0 | 8.440 | 2 | 34.819 | 8.626 | 32.910 | 2 |
| 2025-04-23T17:05:00 | 54.037663 | 6.367592 | 2.0 | 8.430 | 2 | 34.828 | 8.619 | 32.926 | 2 |
| 2025-04-23T17:06:00 | 54.038813 | 6.367446 | 2.0 | 8.427 | 2 | 34.779 | 8.606 | 32.887 | 2 |
| 2025-04-23T17:07:00 | 54.039965 | 6.367340 | 2.0 | 8.408 | 2 | 34.789 | 8.598 | 32.905 | 2 |
| 2025-04-23T17:08:00 | 54.041120 | 6.367280 | 2.0 | 8.400 | 2 | 34.756 | 8.583 | 32.884 | 2 |
| 2025-04-23T17:09:00 | 54.042304 | 6.367269 | 2.0 | 8.355 | 2 | 34.760 | 8.573 | 32.897 | 2 |
| 2025-04-23T17:10:00 | 54.043500 | 6.367228 | 2.0 | 8.364 | 2 | 34.733 | 8.529 | 32.910 | 2 |
| 2025-04-23T17:11:00 | 54.044704 | 6.367191 | 2.0 | 8.372 | 2 | 34.730 | 8.545 | 32.892 | 2 |
| 2025-04-23T17:12:00 | 54.045927 | 6.367154 | 2.0 | 8.374 | 2 | 34.746 | 8.548 | 32.906 | 2 |
| 2025-04-23T17:13:00 | 54.047149 | 6.367096 | 2.0 | 8.419 | 2 | 34.780 | 8.561 | 32.930 | 2 |
| 2025-04-23T17:14:00 | 54.048355 | 6.367042 | 2.0 | 8.410 | 2 | 34.822 | 8.593 | 32.944 | 2 |
| 2025-04-23T17:15:00 | 54.049422 | 6.366501 | 2.0 | 8.401 | 2 | 34.812 | 8.582 | 32.944 | 2 |
| 2025-04-23T17:16:00 | 54.050497 | 6.365839 | 2.0 | 8.360 | 2 | 34.817 | 8.561 | 32.969 | 2 |
| 2025-04-23T17:17:00 | 54.051631 | 6.366214 | 2.0 | 8.438 | 2 | 34.809 | 8.558 | 32.963 | 2 |
| 2025-04-23T17:18:00 | 54.052302 | 6.367782 | 2.0 | 8.455 | 2 | 34.852 | 8.611 | 32.959 | 2 |
| 2025-04-23T17:19:00 | 54.051992 | 6.369668 | 2.0 | 8.452 | 2 | 34.879 | 8.627 | 32.972 | 2 |
| 2025-04-23T17:20:00 | 54.051022 | 6.370817 | 2.0 | 8.411 | 2 | 34.865 | 8.621 | 32.963 | 2 |
| 2025-04-23T17:21:00 | 54.049822 | 6.370895 | 2.0 | 8.416 | 2 | 34.843 | 8.583 | 32.975 | 2 |
| 2025-04-23T17:22:00 | 54.048477 | 6.370874 | 2.0 | 8.404 | 2 | 34.868 | 8.588 | 32.997 | 2 |
| 2025-04-23T17:23:00 | 54.047047 | 6.370751 | 2.0 | 8.390 | 2 | 34.860 | 8.567 | 33.008 | 2 |
| 2025-04-23T17:24:00 | 54.045560 | 6.370628 | 2.0 | 8.353 | 2 | 34.859 | 8.561 | 33.013 | 2 |
| 2025-04-23T17:25:00 | 54.044065 | 6.370638 | 2.0 | 8.337 | 2 | 34.827 | 8.527 | 33.011 | 2 |
| 2025-04-23T17:26:00 | 54.042727 | 6.370917 | 2.0 | 8.306 | 2 | 34.811 | 8.512 | 33.008 | 2 |
| 2025-04-23T17:27:00 | 54.041490 | 6.370902 | 2.0 | 8.365 | 2 | 34.806 | 8.485 | 33.028 | 2 |
| 2025-04-23T17:28:00 | 54.040249 | 6.370987 | 2.0 | 8.388 | 2 | 34.821 | 8.543 | 32.990 | 2 |
| 2025-04-23T17:29:00 | 54.038997 | 6.371018 | 2.0 | 8.394 | 2 | 34.871 | 8.565 | 33.022 | 2 |
| 2025-04-23T17:30:00 | 54.037740 | 6.371033 | 2.0 | 8.402 | 2 | 34.870 | 8.568 | 33.018 | 2 |
| 2025-04-23T17:31:00 | 54.036573 | 6.370648 | 2.0 | 8.404 | 2 | 34.877 | 8.576 | 33.018 | 2 |
| 2025-04-23T17:32:00 | 54.035724 | 6.369324 | 2.0 | 8.423 | 2 | 34.900 | 8.584 | 33.034 | 2 |
| 2025-04-23T17:33:00 | 54.035831 | 6.367346 | 2.0 | 8.418 | 2 | 34.909 | 8.594 | 33.034 | 2 |
| 2025-04-23T17:34:00 | 54.036819 | 6.366125 | 2.0 | 8.415 | 2 | 34.904 | 8.593 | 33.030 | 2 |
| 2025-04-23T17:35:00 | 54.038004 | 6.366331 | 2.0 | 8.372 | 2 | 34.897 | 8.581 | 33.034 | 2 |
| 2025-04-23T17:36:00 | 54.039214 | 6.366390 | 2.0 | 8.360 | 2 | 34.870 | 8.547 | 33.037 | 2 |
| 2025-04-23T17:37:00 | 54.040463 | 6.366368 | 2.0 | 8.370 | 2 | 34.861 | 8.539 | 33.035 | 2 |
| 2025-04-23T17:38:00 | 54.041652 | 6.366377 | 2.0 | 8.297 | 2 | 34.856 | 8.536 | 33.033 | 2 |
| 2025-04-23T17:39:00 | 54.042778 | 6.366319 | 2.0 | 8.253 | 2 | 34.799 | 8.463 | 33.041 | 2 |
| 2025-04-23T17:40:00 | 54.043903 | 6.366328 | 2.0 | 8.244 | 2 | 34.765 | 8.428 | 33.038 | 2 |
| 2025-04-23T17:41:00 | 54.045043 | 6.366334 | 2.0 | 8.239 | 2 | 34.758 | 8.420 | 33.038 | 2 |
| 2025-04-23T17:42:00 | 54.046257 | 6.366315 | 2.0 | 8.254 | 2 | 34.760 | 8.420 | 33.040 | 2 |
| 2025-04-23T17:43:00 | 54.047520 | 6.366264 | 2.0 | 8.257 | 2 | 34.769 | 8.433 | 33.038 | 2 |
| 2025-04-23T17:44:00 | 54.048796 | 6.366251 | 2.0 | 8.293 | 2 | 34.766 | 8.434 | 33.034 | 2 |
| 2025-04-23T17:45:00 | 54.049812 | 6.367337 | 2.0 | 8.286 | 2 | 34.795 | 8.464 | 33.036 | 2 |
| 2025-04-23T17:46:00 | 54.049790 | 6.369232 | 2.0 | 8.318 | 2 | 34.796 | 8.462 | 33.039 | 2 |
| 2025-04-23T17:47:00 | 54.048793 | 6.370102 | 2.0 | 8.309 | 2 | 34.824 | 8.497 | 33.036 | 2 |
| 2025-04-23T17:48:00 | 54.047502 | 6.370035 | 2.0 | 8.285 | 2 | 34.814 | 8.478 | 33.043 | 2 |
| 2025-04-23T17:49:00 | 54.045943 | 6.369962 | 2.0 | 8.266 | 2 | 34.796 | 8.457 | 33.044 | 2 |
| 2025-04-23T17:50:00 | 54.044342 | 6.370192 | 2.0 | 8.237 | 2 | 34.779 | 8.437 | 33.045 | 2 |
| 2025-04-23T17:51:00 | 54.042935 | 6.370024 | 2.0 | 8.245 | 2 | 34.754 | 8.415 | 33.039 | 2 |
| 2025-04-23T17:52:00 | 54.041531 | 6.370120 | 2.0 | 8.296 | 2 | 34.761 | 8.427 | 33.035 | 2 |
| 2025-04-23T17:53:00 | 54.040110 | 6.370294 | 2.0 | 8.359 | 2 | 34.806 | 8.482 | 33.031 | 2 |
| 2025-04-23T17:54:00 | 54.038674 | 6.370450 | 2.0 | 8.357 | 2 | 34.850 | 8.528 | 33.034 | 2 |
| 2025-04-23T17:55:00 | 54.037234 | 6.370520 | 2.0 | 8.389 | 2 | 34.855 | 8.535 | 33.033 | 2 |
| 2025-04-23T17:56:00 | 54.035785 | 6.370568 | 2.0 | 8.406 | 2 | 34.881 | 8.566 | 33.031 | 2 |
| 2025-04-23T17:57:00 | 54.034332 | 6.370597 | 2.0 | 8.417 | 2 | 34.891 | 8.577 | 33.031 | 2 |
| 2025-04-23T17:58:00 | 54.032873 | 6.370630 | 2.0 | 8.457 | 2 | 34.903 | 8.596 | 33.026 | 2 |
| 2025-04-23T17:59:00 | 54.031441 | 6.370539 | 2.0 | 8.430 | 2 | 34.926 | 8.624 | 33.024 | 2 |
| 2025-04-23T18:00:00 | 54.030097 | 6.369883 | 2.0 | 8.415 | 2 | 34.908 | 8.602 | 33.026 | 2 |
| 2025-04-23T18:01:00 | 54.028753 | 6.369179 | 2.0 | 8.436 | 2 | 34.890 | 8.590 | 33.018 | 2 |
| 2025-04-23T18:02:00 | 54.027387 | 6.368594 | 2.0 | 8.472 | 2 | 34.903 | 8.615 | 33.008 | 2 |
| 2025-04-23T18:03:00 | 54.026023 | 6.368011 | 2.0 | 8.699 | 2 | 34.934 | 8.667 | 32.992 | 2 |
| 2025-04-23T18:04:00 | 54.024679 | 6.367382 | 2.0 | 8.807 | 2 | 35.134 | 8.904 | 32.981 | 2 |
| 2025-04-23T18:05:00 | 54.023353 | 6.366674 | 2.0 | 8.845 | 2 | 35.209 | 8.976 | 32.992 | 2 |
| 2025-04-23T18:06:00 | 54.022014 | 6.365997 | 2.0 | 8.892 | 2 | 35.241 | 9.020 | 32.985 | 2 |
| 2025-04-23T18:07:00 | 54.020677 | 6.365301 | 2.0 | 8.909 | 2 | 35.284 | 9.060 | 32.992 | 2 |
| 2025-04-23T18:08:00 | 54.019340 | 6.364590 | 2.0 | 8.917 | 2 | 35.310 | 9.077 | 33.004 | 2 |
| 2025-04-23T18:09:00 | 54.017989 | 6.363900 | 2.0 | 8.941 | 2 | 35.320 | 9.089 | 33.003 | 2 |
| 2025-04-23T18:10:00 | 54.016623 | 6.363250 | 2.0 | 8.935 | 2 | 35.332 | 9.110 | 32.996 | 2 |
| 2025-04-23T18:11:00 | 54.015257 | 6.362560 | 2.0 | 8.953 | 2 | 35.330 | 9.106 | 32.997 | 2 |
| 2025-04-23T18:12:00 | 54.013885 | 6.361871 | 2.0 | 8.961 | 2 | 35.341 | 9.125 | 32.991 | 2 |
| 2025-04-23T18:13:00 | 54.012500 | 6.361196 | 2.0 | 8.949 | 2 | 35.339 | 9.129 | 32.985 | 2 |
| 2025-04-23T18:14:00 | 54.011116 | 6.360539 | 2.0 | 8.971 | 2 | 35.334 | 9.120 | 32.989 | 2 |
| 2025-04-23T18:15:00 | 54.009718 | 6.359936 | 2.0 | 9.028 | 2 | 35.359 | 9.157 | 32.980 | 2 |
| 2025-04-23T18:16:00 | 54.008327 | 6.359321 | 2.0 | 9.036 | 2 | 35.383 | 9.194 | 32.971 | 2 |
| 2025-04-23T18:17:00 | 54.006944 | 6.358603 | 2.0 | 9.038 | 2 | 35.385 | 9.206 | 32.962 | 2 |
| 2025-04-23T18:18:00 | 54.005555 | 6.357867 | 2.0 | 9.047 | 2 | 35.377 | 9.207 | 32.953 | 2 |
| 2025-04-23T18:19:00 | 54.004152 | 6.357155 | 2.0 | 9.042 | 2 | 35.354 | 9.216 | 32.921 | 2 |
| 2025-04-23T18:20:00 | 54.002741 | 6.356470 | 2.0 | 9.019 | 2 | 35.350 | 9.210 | 32.922 | 2 |
| 2025-04-23T18:21:00 | 54.001323 | 6.355805 | 2.0 | 9.016 | 2 | 35.319 | 9.187 | 32.911 | 2 |
| 2025-04-23T18:22:00 | 53.999908 | 6.355125 | 2.0 | 8.995 | 2 | 35.312 | 9.187 | 32.904 | 2 |
| 2025-04-23T18:23:00 | 53.998492 | 6.354431 | 2.0 | 8.948 | 2 | 35.282 | 9.159 | 32.899 | 2 |
| 2025-04-23T18:24:00 | 53.997158 | 6.353438 | 2.0 | 8.879 | 2 | 35.226 | 9.108 | 32.888 | 2 |
| 2025-04-23T18:25:00 | 53.995839 | 6.352349 | 2.0 | 8.854 | 2 | 35.158 | 9.043 | 32.877 | 2 |
| 2025-04-23T18:26:00 | 53.994467 | 6.351385 | 2.0 | 8.852 | 2 | 35.137 | 9.029 | 32.868 | 2 |
| 2025-04-23T18:27:00 | 53.993060 | 6.350514 | 2.0 | 8.868 | 2 | 35.132 | 9.024 | 32.868 | 2 |
| 2025-04-23T18:28:00 | 53.991683 | 6.349549 | 2.0 | 8.903 | 2 | 35.144 | 9.049 | 32.857 | 2 |
| 2025-04-23T18:29:00 | 53.990332 | 6.348500 | 2.0 | 8.876 | 2 | 35.151 | 9.068 | 32.847 | 2 |
| 2025-04-23T18:30:00 | 53.988964 | 6.347498 | 2.0 | 8.870 | 2 | 35.119 | 9.046 | 32.834 | 2 |
| 2025-04-23T18:31:00 | 53.987572 | 6.346575 | 2.0 | 8.888 | 2 | 35.112 | 9.045 | 32.828 | 2 |
| 2025-04-23T18:32:00 | 53.986176 | 6.345659 | 2.0 | 8.915 | 2 | 35.130 | 9.065 | 32.828 | 2 |
| 2025-04-23T18:33:00 | 53.984731 | 6.344926 | 2.0 | 8.941 | 2 | 35.150 | 9.089 | 32.826 | 2 |
| 2025-04-23T18:34:00 | 53.983276 | 6.344209 | 2.0 | 8.947 | 2 | 35.173 | 9.111 | 32.830 | 2 |
| 2025-04-23T18:35:00 | 53.981848 | 6.343403 | 2.0 | 8.928 | 2 | 35.176 | 9.115 | 32.829 | 2 |
| 2025-04-23T18:36:00 | 53.980432 | 6.342524 | 2.0 | 8.885 | 2 | 35.154 | 9.092 | 32.828 | 2 |
| 2025-04-23T18:37:00 | 53.979009 | 6.341666 | 2.0 | 8.830 | 2 | 35.116 | 9.050 | 32.827 | 2 |
| 2025-04-23T18:38:00 | 53.977575 | 6.340877 | 2.0 | 8.800 | 2 | 35.068 | 9.000 | 32.823 | 2 |
| 2025-04-23T18:39:00 | 53.976144 | 6.340140 | 2.0 | 8.707 | 2 | 35.025 | 8.959 | 32.816 | 2 |
| 2025-04-23T18:40:00 | 53.974713 | 6.339395 | 2.0 | 8.662 | 2 | 34.940 | 8.872 | 32.808 | 2 |
| 2025-04-23T18:41:00 | 53.973295 | 6.338606 | 2.0 | 8.642 | 2 | 34.903 | 8.838 | 32.801 | 2 |
| 2025-04-23T18:42:00 | 53.971875 | 6.337850 | 2.0 | 8.607 | 2 | 34.878 | 8.810 | 32.801 | 2 |
| 2025-04-23T18:43:00 | 53.970450 | 6.337068 | 2.0 | 8.579 | 2 | 34.848 | 8.778 | 32.799 | 2 |
| 2025-04-23T18:44:00 | 53.969038 | 6.336221 | 2.0 | 8.568 | 2 | 34.825 | 8.753 | 32.798 | 2 |
| 2025-04-23T18:45:00 | 53.967622 | 6.335379 | 2.0 | 8.572 | 2 | 34.526 | 8.743 | 32.495 | 2 |
| 2025-04-23T18:46:00 | 53.966197 | 6.334577 | 2.0 | 8.584 | 2 | 34.840 | 8.749 | 32.818 | 2 |
| 2025-04-23T18:47:00 | 53.964770 | 6.333778 | 2.0 | 8.577 | 2 | 34.244 | 8.755 | 32.190 | 2 |
| 2025-04-23T18:48:00 | 53.963343 | 6.332995 | 2.0 | 8.615 | 2 | 34.758 | 8.751 | 32.730 | 2 |
| 2025-04-23T18:49:00 | 53.961912 | 6.332272 | 2.0 | 8.746 | 2 | 34.902 | 8.811 | 32.825 | 2 |
| 2025-04-23T18:50:00 | 53.960470 | 6.331556 | 2.0 | 8.816 | 2 | 35.067 | 8.928 | 32.889 | 2 |
| 2025-04-23T18:51:00 | 53.959026 | 6.330762 | 2.0 | 8.802 | 2 | 35.058 | 8.979 | 32.832 | 2 |
| 2025-04-23T18:52:00 | 53.957589 | 6.329871 | 2.0 | 8.798 | 2 | 34.798 | 8.970 | 32.570 | 2 |
| 2025-04-23T18:53:00 | 53.956147 | 6.328994 | 2.0 | 8.769 | 2 | 34.816 | 8.962 | 32.596 | 2 |
| 2025-04-23T18:54:00 | 53.954682 | 6.328193 | 2.0 | 8.753 | 2 | 34.554 | 8.940 | 32.344 | 2 |
| 2025-04-23T18:55:00 | 53.953199 | 6.327462 | 2.0 | 8.728 | 2 | 34.866 | 8.920 | 32.687 | 2 |
| 2025-04-23T18:56:00 | 53.951724 | 6.326708 | 2.0 | 8.667 | 2 | 34.534 | 8.893 | 32.366 | 2 |
| 2025-04-23T18:57:00 | 53.950266 | 6.325926 | 2.0 | 8.640 | 2 | 34.827 | 8.833 | 32.726 | 2 |
| 2025-04-23T18:58:00 | 53.948842 | 6.325068 | 2.0 | 8.667 | 2 | 34.701 | 8.823 | 32.604 | 2 |
| 2025-04-23T18:59:00 | 53.947418 | 6.324270 | 2.0 | 8.683 | 2 | 34.471 | 8.838 | 32.351 | 2 |
| 2025-04-23T19:00:00 | 53.945987 | 6.323531 | 2.0 | 8.697 | 2 | 34.850 | 8.858 | 32.727 | 2 |
| 2025-04-23T19:01:00 | 53.944547 | 6.322787 | 2.0 | 8.707 | 2 | 34.854 | 8.867 | 32.723 | 2 |
| 2025-04-23T19:02:00 | 53.943115 | 6.321977 | 2.0 | 8.733 | 2 | 34.448 | 8.884 | 32.285 | 2 |
| 2025-04-23T19:03:00 | 53.941691 | 6.321093 | 2.0 | 8.748 | 2 | 34.609 | 8.906 | 32.432 | 2 |
| 2025-04-23T19:04:00 | 53.940258 | 6.320243 | 2.0 | 8.766 | 2 | 34.891 | 8.922 | 32.711 | 2 |
| 2025-04-23T19:05:00 | 53.938815 | 6.319459 | 2.0 | 8.781 | 2 | 34.854 | 8.939 | 32.657 | 2 |
| 2025-04-23T19:06:00 | 53.937383 | 6.318746 | 2.0 | 8.783 | 2 | 34.747 | 8.952 | 32.534 | 2 |
| 2025-04-23T19:07:00 | 53.935958 | 6.318005 | 2.0 | 8.760 | 2 | 34.727 | 8.951 | 32.514 | 2 |
| 2025-04-23T19:08:00 | 53.934562 | 6.317151 | 2.0 | 8.717 | 2 | 34.824 | 8.925 | 32.639 | 2 |
| 2025-04-23T19:09:00 | 53.933163 | 6.316363 | 2.0 | 8.679 | 2 | 34.833 | 8.882 | 32.688 | 2 |
| 2025-04-23T19:10:00 | 53.931780 | 6.315534 | 2.0 | 8.671 | 2 | 34.676 | 8.850 | 32.553 | 2 |
| 2025-04-23T19:11:00 | 53.930404 | 6.314694 | 2.0 | 8.665 | 2 | 34.763 | 8.843 | 32.650 | 2 |
| 2025-04-23T19:12:00 | 53.929033 | 6.313888 | 2.0 | 8.667 | 2 | 34.631 | 8.839 | 32.516 | 2 |
| 2025-04-23T19:13:00 | 53.927902 | 6.312485 | 2.0 | 8.648 | 2 | 34.594 | 8.835 | 32.482 | 2 |
| 2025-04-23T19:14:00 | 53.927562 | 6.310352 | 2.0 | 8.640 | 2 | 34.659 | 8.819 | 32.564 | 2 |
| 2025-04-23T19:15:00 | 53.927754 | 6.308090 | 2.0 | 8.639 | 2 | 34.332 | 8.812 | 32.229 | 2 |
| 2025-04-23T19:16:00 | 53.927755 | 6.305604 | 2.0 | 8.634 | 2 | 34.779 | 8.811 | 32.697 | 2 |
| 2025-04-23T19:17:00 | 53.927430 | 6.302996 | 2.0 | 8.618 | 2 | 34.599 | 8.802 | 32.517 | 2 |
| 2025-04-23T19:18:00 | 53.927325 | 6.300284 | 2.0 | 8.619 | 2 | 34.634 | 8.793 | 32.562 | 2 |
| 2025-04-23T19:19:00 | 53.927377 | 6.297699 | 2.0 | 8.621 | 2 | 34.595 | 8.792 | 32.522 | 2 |
| 2025-04-23T19:20:00 | 53.927336 | 6.295253 | 2.0 | 8.622 | 2 | 34.748 | 8.794 | 32.680 | 2 |
| 2025-04-23T19:21:00 | 53.927233 | 6.292896 | 2.0 | 8.622 | 2 | 34.764 | 8.794 | 32.697 | 2 |
| 2025-04-23T19:22:00 | 53.927202 | 6.290591 | 2.0 | 8.622 | 2 | 34.705 | 8.794 | 32.635 | 2 |
| 2025-04-23T19:23:00 | 53.927231 | 6.288311 | 2.0 | 8.621 | 2 | 34.722 | 8.793 | 32.654 | 2 |
| 2025-04-23T19:24:00 | 53.927271 | 6.286033 | 2.0 | 8.622 | 2 | 34.647 | 8.793 | 32.575 | 2 |
| 2025-04-23T19:25:00 | 53.927281 | 6.283753 | 2.0 | 8.622 | 2 | 34.788 | 8.793 | 32.723 | 2 |
| 2025-04-23T19:26:00 | 53.927278 | 6.281444 | 2.0 | 8.626 | 2 | 34.786 | 8.794 | 32.720 | 2 |
| 2025-04-23T19:27:00 | 53.927273 | 6.279110 | 2.0 | 8.629 | 2 | 34.676 | 8.798 | 32.601 | 2 |
| 2025-04-23T19:28:00 | 53.927265 | 6.276742 | 2.0 | 8.635 | 2 | 34.626 | 8.802 | 32.545 | 2 |
| 2025-04-23T19:29:00 | 53.927256 | 6.274357 | 2.0 | 8.643 | 2 | 34.692 | 8.807 | 32.609 | 2 |
| 2025-04-23T19:30:00 | 53.927255 | 6.271953 | 2.0 | 8.653 | 2 | 34.671 | 8.816 | 32.579 | 2 |
| 2025-04-23T19:31:00 | 53.927252 | 6.269519 | 2.0 | 8.656 | 2 | 34.892 | 8.825 | 32.802 | 2 |
| 2025-04-23T19:32:00 | 53.927245 | 6.267090 | 2.0 | 8.656 | 2 | 34.806 | 8.827 | 32.710 | 2 |
| 2025-04-23T19:33:00 | 53.927238 | 6.264694 | 2.0 | 8.655 | 2 | 34.827 | 8.826 | 32.733 | 2 |
| 2025-04-23T19:34:00 | 53.927247 | 6.262329 | 2.0 | 8.654 | 2 | 34.876 | 8.826 | 32.784 | 2 |
| 2025-04-23T19:35:00 | 53.927270 | 6.259981 | 2.0 | 8.652 | 2 | 34.875 | 8.825 | 32.784 | 2 |
| 2025-04-23T19:36:00 | 53.927311 | 6.257639 | 2.0 | 8.646 | 2 | 34.878 | 8.823 | 32.789 | 2 |
| 2025-04-23T19:37:00 | 53.927319 | 6.255285 | 2.0 | 8.631 | 2 | 34.898 | 8.813 | 32.819 | 2 |
| 2025-04-23T19:38:00 | 53.927328 | 6.252940 | 2.0 | 8.633 | 2 | 34.907 | 8.802 | 32.839 | 2 |
| 2025-04-23T19:39:00 | 53.927318 | 6.250598 | 2.0 | 8.630 | 2 | 34.854 | 8.803 | 32.782 | 2 |
| 2025-04-23T19:40:00 | 53.927300 | 6.248262 | 2.0 | 8.599 | 2 | 34.915 | 8.798 | 32.851 | 2 |
| 2025-04-23T19:41:00 | 53.927285 | 6.245943 | 2.0 | 8.577 | 2 | 34.877 | 8.767 | 32.840 | 2 |
| 2025-04-23T19:42:00 | 53.927274 | 6.243627 | 2.0 | 8.572 | 2 | 34.867 | 8.749 | 32.846 | 2 |
| 2025-04-23T19:43:00 | 53.927275 | 6.241323 | 2.0 | 8.577 | 2 | 34.920 | 8.745 | 32.905 | 2 |
| 2025-04-23T19:44:00 | 53.927304 | 6.239047 | 2.0 | 8.604 | 2 | 34.935 | 8.754 | 32.912 | 2 |
| 2025-04-23T19:45:00 | 53.927312 | 6.236774 | 2.0 | 8.622 | 2 | 34.958 | 8.779 | 32.913 | 2 |
| 2025-04-23T19:46:00 | 53.927310 | 6.234498 | 2.0 | 8.596 | 2 | 34.973 | 8.791 | 32.918 | 2 |
| 2025-04-23T19:47:00 | 53.927281 | 6.232213 | 2.0 | 8.596 | 2 | 34.951 | 8.765 | 32.919 | 2 |
| 2025-04-23T19:48:00 | 53.927267 | 6.229939 | 2.0 | 8.638 | 2 | 34.970 | 8.775 | 32.930 | 2 |
| 2025-04-23T19:49:00 | 53.927289 | 6.227672 | 2.0 | 8.685 | 2 | 35.014 | 8.818 | 32.936 | 2 |
| 2025-04-23T19:50:00 | 53.927318 | 6.225400 | 2.0 | 8.709 | 2 | 35.054 | 8.857 | 32.941 | 2 |
| 2025-04-23T19:51:00 | 53.927299 | 6.223106 | 2.0 | 8.719 | 2 | 35.069 | 8.880 | 32.935 | 2 |
| 2025-04-23T19:52:00 | 53.927242 | 6.220790 | 2.0 | 8.713 | 2 | 35.084 | 8.887 | 32.945 | 2 |
| 2025-04-23T19:53:00 | 53.927175 | 6.218457 | 2.0 | 8.707 | 2 | 35.074 | 8.881 | 32.940 | 2 |
| 2025-04-23T19:54:00 | 53.927124 | 6.216107 | 2.0 | 8.729 | 2 | 35.086 | 8.880 | 32.953 | 2 |
| 2025-04-23T19:55:00 | 53.927108 | 6.213762 | 2.0 | 8.746 | 2 | 35.094 | 8.899 | 32.944 | 2 |
| 2025-04-23T19:56:00 | 53.927122 | 6.211426 | 2.0 | 8.779 | 2 | 35.113 | 8.918 | 32.946 | 2 |
| 2025-04-23T19:57:00 | 53.927169 | 6.209108 | 2.0 | 8.836 | 2 | 35.153 | 8.958 | 32.951 | 2 |
| 2025-04-23T19:58:00 | 53.927228 | 6.206816 | 2.0 | 8.861 | 2 | 35.200 | 9.004 | 32.957 | 2 |
| 2025-04-23T19:59:00 | 53.927279 | 6.204515 | 2.0 | 8.849 | 2 | 35.232 | 9.028 | 32.968 | 2 |
| 2025-04-23T20:00:00 | 53.927316 | 6.202203 | 2.0 | 8.821 | 2 | 35.224 | 9.012 | 32.974 | 2 |
| 2025-04-23T20:01:00 | 53.927325 | 6.199899 | 2.0 | 8.824 | 2 | 35.204 | 8.990 | 32.974 | 2 |
| 2025-04-23T20:02:00 | 53.927324 | 6.197605 | 2.0 | 8.830 | 2 | 35.206 | 8.997 | 32.970 | 2 |
| 2025-04-23T20:03:00 | 53.927287 | 6.195362 | 2.0 | 8.787 | 2 | 35.203 | 8.996 | 32.967 | 2 |
| 2025-04-23T20:04:00 | 53.927018 | 6.193153 | 2.0 | 8.726 | 2 | 35.142 | 8.942 | 32.954 | 2 |
| 2025-04-23T20:05:00 | 53.927095 | 6.191006 | 2.0 | 8.681 | 2 | 35.082 | 8.897 | 32.933 | 2 |
| 2025-04-23T20:06:00 | 53.927372 | 6.188988 | 2.0 | 8.679 | 2 | 35.012 | 8.856 | 32.898 | 2 |
| 2025-04-23T20:07:00 | 53.927757 | 6.187059 | 2.0 | 8.691 | 2 | 34.997 | 8.852 | 32.886 | 2 |
| 2025-04-23T20:08:00 | 53.928186 | 6.185065 | 2.0 | 8.709 | 2 | 35.005 | 8.865 | 32.883 | 2 |
| 2025-04-23T20:09:00 | 53.927832 | 6.182879 | 2.0 | 8.685 | 2 | 35.007 | 8.875 | 32.875 | 2 |
| 2025-04-23T20:10:00 | 53.926766 | 6.182127 | 2.0 | 8.669 | 2 | 34.982 | 8.856 | 32.867 | 2 |
| 2025-04-23T20:11:00 | 53.925923 | 6.182887 | 2.0 | 8.679 | 2 | 34.960 | 8.835 | 32.863 | 2 |
| 2025-04-23T20:12:00 | 53.925624 | 6.184456 | 2.0 | 8.693 | 2 | 34.973 | 8.850 | 32.863 | 2 |
| 2025-04-23T20:13:00 | 53.925694 | 6.186493 | 2.0 | 8.688 | 2 | 34.993 | 8.863 | 32.872 | 2 |
| 2025-04-23T20:14:00 | 53.925498 | 6.188892 | 2.0 | 8.669 | 2 | 34.990 | 8.853 | 32.878 | 2 |
| 2025-04-23T20:15:00 | 53.925298 | 6.191342 | 2.0 | 8.757 | 2 | 35.012 | 8.854 | 32.900 | 2 |
| 2025-04-23T20:16:00 | 53.925023 | 6.193785 | 2.0 | 8.818 | 2 | 35.113 | 8.933 | 32.932 | 2 |
| 2025-04-23T20:17:00 | 53.924773 | 6.196227 | 2.0 | 8.829 | 2 | 35.185 | 8.987 | 32.957 | 2 |
| 2025-04-23T20:18:00 | 53.924747 | 6.198631 | 2.0 | 8.819 | 2 | 35.061 | 8.993 | 32.822 | 2 |
| 2025-04-23T20:19:00 | 53.924769 | 6.201045 | 2.0 | 8.838 | 2 | 35.205 | 8.992 | 32.973 | 2 |
| 2025-04-23T20:20:00 | 53.924781 | 6.203446 | 2.0 | 8.805 | 2 | 35.157 | 9.002 | 32.914 | 2 |
| 2025-04-23T20:21:00 | 53.924814 | 6.205839 | 2.0 | 8.755 | 2 | 35.174 | 8.966 | 32.965 | 2 |
| 2025-04-23T20:22:00 | 53.924838 | 6.208240 | 2.0 | 8.698 | 2 | 35.126 | 8.915 | 32.962 | 2 |
| 2025-04-23T20:23:00 | 53.924836 | 6.210661 | 2.0 | 8.686 | 2 | 35.088 | 8.871 | 32.964 | 2 |
| 2025-04-23T20:24:00 | 53.924829 | 6.213061 | 2.0 | 8.690 | 2 | 34.508 | 8.858 | 32.371 | 2 |
| 2025-04-23T20:25:00 | 53.924847 | 6.215428 | 2.0 | 8.682 | 2 | 34.642 | 8.860 | 32.509 | 2 |
| 2025-04-23T20:26:00 | 53.924853 | 6.217788 | 2.0 | 8.657 | 2 | 34.836 | 8.851 | 32.719 | 2 |
| 2025-04-23T20:27:00 | 53.924853 | 6.220136 | 2.0 | 8.611 | 2 | 35.063 | 8.817 | 32.988 | 2 |
| 2025-04-23T20:28:00 | 53.924860 | 6.222511 | 2.0 | 8.591 | 2 | 35.034 | 8.783 | 32.989 | 2 |
| 2025-04-23T20:29:00 | 53.924873 | 6.224907 | 2.0 | 8.577 | 2 | 35.013 | 8.759 | 32.989 | 2 |
| 2025-04-23T20:30:00 | 53.924865 | 6.227310 | 2.0 | 8.564 | 2 | 35.000 | 8.749 | 32.985 | 2 |
| 2025-04-23T20:31:00 | 53.924841 | 6.229715 | 2.0 | 8.554 | 2 | 34.982 | 8.734 | 32.980 | 2 |
| 2025-04-23T20:32:00 | 53.924824 | 6.232131 | 2.0 | 8.541 | 2 | 34.966 | 8.725 | 32.972 | 2 |
| 2025-04-23T20:33:00 | 53.924819 | 6.234555 | 2.0 | 8.528 | 2 | 34.949 | 8.710 | 32.968 | 2 |
| 2025-04-23T20:34:00 | 53.924834 | 6.236993 | 2.0 | 8.554 | 2 | 34.944 | 8.706 | 32.967 | 2 |
| 2025-04-23T20:35:00 | 53.924839 | 6.239394 | 2.0 | 8.588 | 2 | 34.965 | 8.725 | 32.971 | 2 |
| 2025-04-23T20:36:00 | 53.924850 | 6.241763 | 2.0 | 8.604 | 2 | 34.994 | 8.764 | 32.965 | 2 |
| 2025-04-23T20:37:00 | 53.924872 | 6.244099 | 2.0 | 8.631 | 2 | 34.999 | 8.775 | 32.960 | 2 |
| 2025-04-23T20:38:00 | 53.924890 | 6.246420 | 2.0 | 8.649 | 2 | 34.991 | 8.803 | 32.926 | 2 |
| 2025-04-23T20:39:00 | 53.924902 | 6.248702 | 2.0 | 8.660 | 2 | 34.978 | 8.819 | 32.897 | 2 |
| 2025-04-23T20:40:00 | 53.924914 | 6.250977 | 2.0 | 8.668 | 2 | 34.965 | 8.830 | 32.873 | 2 |
| 2025-04-23T20:41:00 | 53.924906 | 6.253253 | 2.0 | 8.676 | 2 | 34.948 | 8.839 | 32.847 | 2 |
| 2025-04-23T20:42:00 | 53.924870 | 6.255539 | 2.0 | 8.673 | 2 | 34.940 | 8.844 | 32.834 | 2 |
| 2025-04-23T20:43:00 | 53.924827 | 6.257833 | 2.0 | 8.665 | 2 | 34.923 | 8.841 | 32.819 | 2 |
| 2025-04-23T20:44:00 | 53.924815 | 6.260126 | 2.0 | 8.647 | 2 | 34.897 | 8.831 | 32.801 | 2 |
| 2025-04-23T20:45:00 | 53.924803 | 6.262425 | 2.0 | 8.628 | 2 | 34.858 | 8.812 | 32.778 | 2 |
| 2025-04-23T20:46:00 | 53.924794 | 6.264728 | 2.0 | 8.619 | 2 | 34.822 | 8.797 | 32.754 | 2 |
| 2025-04-23T20:47:00 | 53.924799 | 6.267036 | 2.0 | 8.617 | 2 | 34.801 | 8.790 | 32.739 | 2 |
| 2025-04-23T20:48:00 | 53.924816 | 6.269353 | 2.0 | 8.614 | 2 | 34.788 | 8.787 | 32.728 | 2 |
| 2025-04-23T20:49:00 | 53.924817 | 6.271686 | 2.0 | 8.616 | 2 | 34.778 | 8.784 | 32.721 | 2 |
| 2025-04-23T20:50:00 | 53.924820 | 6.274022 | 2.0 | 8.620 | 2 | 34.772 | 8.787 | 32.711 | 2 |
| 2025-04-23T20:51:00 | 53.924810 | 6.276352 | 2.0 | 8.627 | 2 | 34.762 | 8.792 | 32.696 | 2 |
| 2025-04-23T20:52:00 | 53.924807 | 6.278693 | 2.0 | 8.631 | 2 | 34.768 | 8.797 | 32.698 | 2 |
| 2025-04-23T20:53:00 | 53.924801 | 6.281049 | 2.0 | 8.633 | 2 | 34.771 | 8.801 | 32.698 | 2 |
| 2025-04-23T20:54:00 | 53.924791 | 6.283418 | 2.0 | 8.635 | 2 | 34.771 | 8.802 | 32.697 | 2 |
| 2025-04-23T20:55:00 | 53.924790 | 6.285787 | 2.0 | 8.638 | 2 | 34.771 | 8.805 | 32.694 | 2 |
| 2025-04-23T20:56:00 | 53.924797 | 6.288159 | 2.0 | 8.640 | 2 | 34.771 | 8.809 | 32.690 | 2 |
| 2025-04-23T20:57:00 | 53.924804 | 6.290537 | 2.0 | 8.640 | 2 | 34.769 | 8.810 | 32.687 | 2 |
| 2025-04-23T20:58:00 | 53.924790 | 6.292910 | 2.0 | 8.640 | 2 | 34.755 | 8.810 | 32.672 | 2 |
| 2025-04-23T20:59:00 | 53.924780 | 6.295278 | 2.0 | 8.644 | 2 | 34.754 | 8.810 | 32.671 | 2 |
| 2025-04-23T21:00:00 | 53.924802 | 6.297635 | 2.0 | 8.650 | 2 | 34.754 | 8.815 | 32.667 | 2 |
| 2025-04-23T21:01:00 | 53.924840 | 6.299992 | 2.0 | 8.650 | 2 | 34.751 | 8.819 | 32.660 | 2 |
| 2025-04-23T21:02:00 | 53.924841 | 6.302365 | 2.0 | 8.649 | 2 | 34.746 | 8.819 | 32.655 | 2 |
| 2025-04-23T21:03:00 | 53.924367 | 6.304629 | 2.0 | 8.647 | 2 | 34.744 | 8.819 | 32.653 | 2 |
| 2025-04-23T21:04:00 | 53.923557 | 6.306741 | 2.0 | 8.643 | 2 | 34.739 | 8.816 | 32.650 | 2 |
| 2025-04-23T21:05:00 | 53.922929 | 6.308887 | 2.0 | 8.636 | 2 | 34.734 | 8.810 | 32.651 | 2 |
| 2025-04-23T21:06:00 | 53.923333 | 6.310954 | 2.0 | 8.633 | 2 | 34.729 | 8.803 | 32.652 | 2 |
| 2025-04-23T21:07:00 | 53.924628 | 6.311808 | 2.0 | 8.626 | 2 | 34.734 | 8.800 | 32.660 | 2 |
| 2025-04-23T21:08:00 | 53.926018 | 6.310706 | 2.0 | 8.628 | 2 | 34.742 | 8.796 | 32.672 | 2 |
| 2025-04-23T21:09:00 | 53.926498 | 6.308293 | 2.0 | 8.628 | 2 | 34.750 | 8.799 | 32.677 | 2 |
| 2025-04-23T21:10:00 | 53.926576 | 6.305699 | 2.0 | 8.627 | 2 | 34.746 | 8.798 | 32.674 | 2 |
| 2025-04-23T21:11:00 | 53.926600 | 6.303122 | 2.0 | 8.630 | 2 | 34.744 | 8.798 | 32.672 | 2 |
| 2025-04-23T21:12:00 | 53.926538 | 6.300586 | 2.0 | 8.631 | 2 | 34.744 | 8.800 | 32.670 | 2 |
| 2025-04-23T21:13:00 | 53.926514 | 6.298065 | 2.0 | 8.633 | 2 | 34.746 | 8.802 | 32.670 | 2 |
| 2025-04-23T21:14:00 | 53.926501 | 6.295549 | 2.0 | 8.635 | 2 | 34.745 | 8.803 | 32.669 | 2 |
| 2025-04-23T21:15:00 | 53.926487 | 6.293036 | 2.0 | 8.638 | 2 | 34.746 | 8.806 | 32.667 | 2 |
| 2025-04-23T21:16:00 | 53.926491 | 6.290535 | 2.0 | 8.638 | 2 | 34.751 | 8.808 | 32.670 | 2 |
| 2025-04-23T21:17:00 | 53.926477 | 6.288043 | 2.0 | 8.639 | 2 | 34.754 | 8.809 | 32.672 | 2 |
| 2025-04-23T21:18:00 | 53.926440 | 6.285556 | 2.0 | 8.639 | 2 | 34.749 | 8.809 | 32.667 | 2 |
| 2025-04-23T21:19:00 | 53.926385 | 6.283072 | 2.0 | 8.638 | 2 | 34.754 | 8.808 | 32.673 | 2 |
| 2025-04-23T21:20:00 | 53.926361 | 6.280599 | 2.0 | 8.638 | 2 | 34.758 | 8.808 | 32.677 | 2 |
| 2025-04-23T21:21:00 | 53.926385 | 6.278129 | 2.0 | 8.637 | 2 | 34.760 | 8.807 | 32.680 | 2 |
| 2025-04-23T21:22:00 | 53.926426 | 6.275649 | 2.0 | 8.636 | 2 | 34.763 | 8.806 | 32.685 | 2 |
| 2025-04-23T21:23:00 | 53.926449 | 6.273156 | 2.0 | 8.636 | 2 | 34.766 | 8.806 | 32.688 | 2 |
| 2025-04-23T21:24:00 | 53.926443 | 6.270660 | 2.0 | 8.627 | 2 | 34.769 | 8.804 | 32.693 | 2 |
| 2025-04-23T21:25:00 | 53.926427 | 6.268168 | 2.0 | 8.625 | 2 | 34.769 | 8.797 | 32.699 | 2 |
| 2025-04-23T21:26:00 | 53.926393 | 6.265671 | 2.0 | 8.626 | 2 | 34.767 | 8.796 | 32.698 | 2 |
| 2025-04-23T21:27:00 | 53.926349 | 6.263169 | 2.0 | 8.624 | 2 | 34.767 | 8.795 | 32.699 | 2 |
| 2025-04-23T21:28:00 | 53.926303 | 6.260663 | 2.0 | 8.621 | 2 | 34.769 | 8.793 | 32.703 | 2 |
| 2025-04-23T21:29:00 | 53.926321 | 6.258181 | 2.0 | 8.617 | 2 | 34.770 | 8.791 | 32.706 | 2 |
| 2025-04-23T21:30:00 | 53.926368 | 6.255700 | 2.0 | 8.612 | 2 | 34.771 | 8.786 | 32.711 | 2 |
| 2025-04-23T21:31:00 | 53.926408 | 6.253252 | 2.0 | 8.611 | 2 | 34.773 | 8.782 | 32.717 | 2 |
| 2025-04-23T21:32:00 | 53.926444 | 6.250819 | 2.0 | 8.608 | 2 | 34.775 | 8.780 | 32.721 | 2 |
| 2025-04-23T21:33:00 | 53.926455 | 6.248396 | 2.0 | 8.609 | 2 | 34.778 | 8.777 | 32.727 | 2 |
| 2025-04-23T21:34:00 | 53.926426 | 6.245963 | 2.0 | 8.610 | 2 | 34.786 | 8.779 | 32.733 | 2 |
| 2025-04-23T21:35:00 | 53.926398 | 6.243537 | 2.0 | 8.614 | 2 | 34.793 | 8.780 | 32.740 | 2 |
| 2025-04-23T21:36:00 | 53.926391 | 6.241148 | 2.0 | 8.616 | 2 | 34.806 | 8.784 | 32.750 | 2 |
| 2025-04-23T21:37:00 | 53.926421 | 6.238812 | 2.0 | 8.619 | 2 | 34.818 | 8.787 | 32.760 | 2 |
| 2025-04-23T21:38:00 | 53.926457 | 6.236505 | 2.0 | 8.620 | 2 | 34.831 | 8.789 | 32.771 | 2 |
| 2025-04-23T21:39:00 | 53.926480 | 6.234195 | 2.0 | 8.623 | 2 | 34.840 | 8.790 | 32.780 | 2 |
| 2025-04-23T21:40:00 | 53.926467 | 6.231868 | 2.0 | 8.630 | 2 | 34.852 | 8.794 | 32.789 | 2 |
| 2025-04-23T21:41:00 | 53.926442 | 6.229525 | 2.0 | 8.632 | 2 | 34.873 | 8.800 | 32.805 | 2 |
| 2025-04-23T21:42:00 | 53.926438 | 6.227188 | 2.0 | 8.622 | 2 | 34.888 | 8.799 | 32.822 | 2 |
| 2025-04-23T21:43:00 | 53.926442 | 6.224850 | 2.0 | 8.613 | 2 | 34.892 | 8.789 | 32.835 | 2 |
| 2025-04-23T21:44:00 | 53.926459 | 6.222518 | 2.0 | 8.605 | 2 | 34.901 | 8.782 | 32.851 | 2 |
| 2025-04-23T21:45:00 | 53.926490 | 6.220190 | 2.0 | 8.589 | 2 | 34.908 | 8.772 | 32.868 | 2 |
| 2025-04-23T21:46:00 | 53.926508 | 6.217870 | 2.0 | 8.578 | 2 | 34.907 | 8.756 | 32.881 | 2 |
| 2025-04-23T21:47:00 | 53.926509 | 6.215579 | 2.0 | 8.599 | 2 | 34.909 | 8.750 | 32.889 | 2 |
| 2025-04-23T21:48:00 | 53.926488 | 6.213272 | 2.0 | 8.578 | 2 | 34.919 | 8.765 | 32.886 | 2 |
| 2025-04-23T21:49:00 | 53.926484 | 6.210948 | 2.0 | 8.582 | 2 | 34.932 | 8.747 | 32.916 | 2 |
| 2025-04-23T21:50:00 | 53.926449 | 6.208621 | 2.0 | 8.603 | 2 | 34.947 | 8.760 | 32.919 | 2 |
| 2025-04-23T21:51:00 | 53.926400 | 6.206264 | 2.0 | 8.581 | 2 | 34.952 | 8.770 | 32.915 | 2 |
| 2025-04-23T21:52:00 | 53.926345 | 6.203888 | 2.0 | 8.514 | 2 | 34.943 | 8.737 | 32.937 | 2 |
| 2025-04-23T21:53:00 | 53.926321 | 6.201531 | 2.0 | 8.512 | 2 | 34.918 | 8.684 | 32.960 | 2 |
| 2025-04-23T21:54:00 | 53.926336 | 6.199196 | 2.0 | 8.531 | 2 | 34.920 | 8.686 | 32.960 | 2 |
| 2025-04-23T21:55:00 | 53.926320 | 6.196935 | 2.0 | 8.540 | 2 | 34.931 | 8.701 | 32.958 | 2 |
| 2025-04-23T21:56:00 | 53.925732 | 6.195153 | 2.0 | 8.502 | 2 | 34.936 | 8.704 | 32.960 | 2 |
| 2025-04-23T21:57:00 | 53.924898 | 6.194803 | 2.0 | 8.482 | 2 | 34.917 | 8.666 | 32.976 | 2 |
| 2025-04-23T21:58:00 | 53.924392 | 6.195455 | 2.0 | 8.474 | 2 | 34.904 | 8.651 | 32.976 | 2 |
| 2025-04-23T21:59:00 | 53.924269 | 6.196548 | 2.0 | 8.444 | 2 | 34.894 | 8.638 | 32.978 | 2 |
| 2025-04-23T22:00:00 | 53.924380 | 6.197967 | 2.0 | 8.432 | 2 | 34.873 | 8.611 | 32.981 | 2 |
| 2025-04-23T22:01:00 | 53.924470 | 6.199802 | 2.0 | 8.533 | 2 | 34.869 | 8.611 | 32.976 | 2 |
| 2025-04-23T22:02:00 | 53.924586 | 6.201710 | 2.0 | 8.593 | 2 | 34.927 | 8.714 | 32.941 | 2 |
| 2025-04-23T22:03:00 | 53.924599 | 6.203650 | 2.0 | 8.594 | 2 | 34.965 | 8.757 | 32.941 | 2 |
| 2025-04-23T22:04:00 | 53.924583 | 6.205673 | 2.0 | 8.565 | 2 | 34.960 | 8.759 | 32.934 | 2 |
| 2025-04-23T22:05:00 | 53.924483 | 6.207772 | 2.0 | 8.570 | 2 | 34.942 | 8.735 | 32.937 | 2 |
| 2025-04-23T22:06:00 | 53.924388 | 6.209915 | 2.0 | 8.575 | 2 | 34.922 | 8.736 | 32.916 | 2 |
| 2025-04-23T22:07:00 | 53.924232 | 6.212098 | 2.0 | 8.614 | 2 | 34.913 | 8.752 | 32.891 | 2 |
| 2025-04-23T22:08:00 | 53.924085 | 6.214295 | 2.0 | 8.621 | 2 | 34.914 | 8.781 | 32.865 | 2 |
| 2025-04-23T22:09:00 | 53.924040 | 6.216518 | 2.0 | 8.644 | 2 | 34.907 | 8.792 | 32.848 | 2 |
| 2025-04-23T22:10:00 | 53.924062 | 6.218730 | 2.0 | 8.651 | 2 | 34.903 | 8.811 | 32.826 | 2 |
| 2025-04-23T22:11:00 | 53.924053 | 6.220941 | 2.0 | 8.646 | 2 | 34.893 | 8.817 | 32.810 | 2 |
| 2025-04-23T22:12:00 | 53.924017 | 6.223173 | 2.0 | 8.638 | 2 | 34.871 | 8.813 | 32.791 | 2 |
| 2025-04-23T22:13:00 | 53.924017 | 6.225419 | 2.0 | 8.622 | 2 | 34.847 | 8.804 | 32.774 | 2 |
| 2025-04-23T22:14:00 | 53.924013 | 6.227670 | 2.0 | 8.604 | 2 | 34.817 | 8.788 | 32.758 | 2 |
| 2025-04-23T22:15:00 | 53.924022 | 6.229913 | 2.0 | 8.595 | 2 | 34.788 | 8.773 | 32.741 | 2 |
| 2025-04-23T22:16:00 | 53.924034 | 6.232166 | 2.0 | 8.593 | 2 | 34.759 | 8.764 | 32.719 | 2 |
| 2025-04-23T22:17:00 | 53.924016 | 6.234437 | 2.0 | 8.593 | 2 | 34.749 | 8.762 | 32.711 | 2 |
| 2025-04-23T22:18:00 | 53.924002 | 6.236721 | 2.0 | 8.599 | 2 | 34.746 | 8.763 | 32.706 | 2 |
| 2025-04-23T22:19:00 | 53.924009 | 6.239002 | 2.0 | 8.609 | 2 | 34.749 | 8.769 | 32.704 | 2 |
| 2025-04-23T22:20:00 | 53.924007 | 6.241301 | 2.0 | 8.616 | 2 | 34.756 | 8.778 | 32.703 | 2 |
| 2025-04-23T22:21:00 | 53.923998 | 6.243620 | 2.0 | 8.620 | 2 | 34.760 | 8.785 | 32.701 | 2 |
| 2025-04-23T22:22:00 | 53.923983 | 6.245947 | 2.0 | 8.621 | 2 | 34.761 | 8.789 | 32.698 | 2 |
| 2025-04-23T22:23:00 | 53.923986 | 6.248187 | 2.0 | 8.623 | 2 | 34.759 | 8.789 | 32.696 | 2 |
| 2025-04-23T22:24:00 | 53.924002 | 6.250352 | 2.0 | 8.627 | 2 | 34.756 | 8.792 | 32.690 | 2 |
| 2025-04-23T22:25:00 | 53.923993 | 6.252504 | 2.0 | 8.630 | 2 | 34.751 | 8.796 | 32.681 | 2 |
| 2025-04-23T22:26:00 | 53.923982 | 6.254657 | 2.0 | 8.631 | 2 | 34.746 | 8.799 | 32.673 | 2 |
| 2025-04-23T22:27:00 | 53.923997 | 6.256803 | 2.0 | 8.632 | 2 | 34.734 | 8.799 | 32.661 | 2 |
| 2025-04-23T22:28:00 | 53.923992 | 6.259037 | 2.0 | 8.632 | 2 | 34.735 | 8.800 | 32.661 | 2 |
| 2025-04-23T22:29:00 | 53.923994 | 6.261352 | 2.0 | 8.630 | 2 | 34.735 | 8.800 | 32.661 | 2 |
| 2025-04-23T22:30:00 | 53.924023 | 6.263720 | 2.0 | 8.627 | 2 | 34.731 | 8.797 | 32.659 | 2 |
| 2025-04-23T22:31:00 | 53.924056 | 6.266127 | 2.0 | 8.620 | 2 | 34.728 | 8.794 | 32.659 | 2 |
| 2025-04-23T22:32:00 | 53.924043 | 6.268563 | 2.0 | 8.615 | 2 | 34.730 | 8.788 | 32.667 | 2 |
| 2025-04-23T22:33:00 | 53.924010 | 6.271017 | 2.0 | 8.609 | 2 | 34.731 | 8.783 | 32.672 | 2 |
| 2025-04-23T22:34:00 | 53.924019 | 6.273360 | 2.0 | 8.607 | 2 | 34.731 | 8.778 | 32.677 | 2 |
| 2025-04-23T22:35:00 | 53.924068 | 6.275599 | 2.0 | 8.602 | 2 | 34.731 | 8.775 | 32.680 | 2 |
| 2025-04-23T22:36:00 | 53.924082 | 6.277808 | 2.0 | 8.596 | 2 | 34.730 | 8.770 | 32.683 | 2 |
| 2025-04-23T22:37:00 | 53.924066 | 6.280013 | 2.0 | 8.598 | 2 | 34.731 | 8.767 | 32.687 | 2 |
| 2025-04-23T22:38:00 | 53.924069 | 6.282181 | 2.0 | 8.586 | 2 | 34.730 | 8.764 | 32.689 | 2 |
| 2025-04-23T22:39:00 | 53.924081 | 6.284358 | 2.0 | 8.580 | 2 | 34.719 | 8.755 | 32.686 | 2 |
| 2025-04-23T22:40:00 | 53.924076 | 6.286547 | 2.0 | 8.569 | 2 | 34.709 | 8.747 | 32.683 | 2 |
| 2025-04-23T22:41:00 | 53.924069 | 6.288718 | 2.0 | 8.564 | 2 | 34.696 | 8.737 | 32.678 | 2 |
| 2025-04-23T22:42:00 | 53.924089 | 6.290894 | 2.0 | 8.572 | 2 | 34.684 | 8.734 | 32.668 | 2 |
| 2025-04-23T22:43:00 | 53.924092 | 6.293069 | 2.0 | 8.587 | 2 | 34.684 | 8.743 | 32.660 | 2 |
| 2025-04-23T22:44:00 | 53.924074 | 6.295237 | 2.0 | 8.601 | 2 | 34.702 | 8.757 | 32.666 | 2 |
| 2025-04-23T22:45:00 | 53.924067 | 6.297411 | 2.0 | 8.597 | 2 | 34.716 | 8.767 | 32.671 | 2 |
| 2025-04-23T22:46:00 | 53.924073 | 6.299594 | 2.0 | 8.584 | 2 | 34.717 | 8.762 | 32.677 | 2 |
| 2025-04-23T22:47:00 | 53.923755 | 6.301716 | 2.0 | 8.580 | 2 | 34.703 | 8.752 | 32.672 | 2 |
| 2025-04-23T22:48:00 | 53.923319 | 6.303838 | 2.0 | 8.563 | 2 | 34.699 | 8.745 | 32.674 | 2 |
| 2025-04-23T22:49:00 | 53.922963 | 6.305994 | 2.0 | 8.547 | 2 | 34.690 | 8.731 | 32.677 | 2 |
| 2025-04-23T22:50:00 | 53.922834 | 6.308075 | 2.0 | 8.529 | 2 | 34.679 | 8.713 | 32.683 | 2 |
| 2025-04-23T22:51:00 | 53.923582 | 6.309606 | 2.0 | 8.525 | 2 | 34.671 | 8.698 | 32.688 | 2 |
| 2025-04-23T22:52:00 | 53.924853 | 6.309671 | 2.0 | 8.543 | 2 | 34.670 | 8.698 | 32.687 | 2 |
| 2025-04-23T22:53:00 | 53.925770 | 6.308128 | 2.0 | 8.552 | 2 | 34.673 | 8.713 | 32.676 | 2 |
| 2025-04-23T22:54:00 | 53.926095 | 6.305875 | 2.0 | 8.553 | 2 | 34.685 | 8.721 | 32.681 | 2 |
| 2025-04-23T22:55:00 | 53.926084 | 6.303477 | 2.0 | 8.552 | 2 | 34.686 | 8.722 | 32.682 | 2 |
| 2025-04-23T22:56:00 | 53.926015 | 6.301104 | 2.0 | 8.555 | 2 | 34.687 | 8.721 | 32.684 | 2 |
| 2025-04-23T22:57:00 | 53.925949 | 6.298767 | 2.0 | 8.568 | 2 | 34.694 | 8.726 | 32.686 | 2 |
| 2025-04-23T22:58:00 | 53.925753 | 6.296457 | 2.0 | 8.581 | 2 | 34.708 | 8.739 | 32.689 | 2 |
| 2025-04-23T22:59:00 | 53.925577 | 6.294164 | 2.0 | 8.589 | 2 | 34.716 | 8.750 | 32.687 | 2 |
| 2025-04-23T23:00:00 | 53.925617 | 6.291931 | 2.0 | 8.597 | 2 | 34.727 | 8.759 | 32.690 | 2 |
| 2025-04-23T23:01:00 | 53.925693 | 6.289735 | 2.0 | 8.605 | 2 | 34.736 | 8.766 | 32.693 | 2 |
| 2025-04-23T23:02:00 | 53.925730 | 6.287452 | 2.0 | 8.615 | 2 | 34.746 | 8.775 | 32.695 | 2 |
| 2025-04-23T23:03:00 | 53.925695 | 6.285111 | 2.0 | 8.622 | 2 | 34.757 | 8.784 | 32.699 | 2 |
| 2025-04-23T23:04:00 | 53.925647 | 6.282751 | 2.0 | 8.625 | 2 | 34.764 | 8.790 | 32.700 | 2 |
| 2025-04-23T23:05:00 | 53.925619 | 6.280378 | 2.0 | 8.626 | 2 | 34.765 | 8.794 | 32.698 | 2 |
| 2025-04-23T23:06:00 | 53.925596 | 6.278016 | 2.0 | 8.622 | 2 | 34.762 | 8.794 | 32.695 | 2 |
| 2025-04-23T23:07:00 | 53.925595 | 6.275677 | 2.0 | 8.613 | 2 | 34.756 | 8.788 | 32.694 | 2 |
| 2025-04-23T23:08:00 | 53.925601 | 6.273338 | 2.0 | 8.598 | 2 | 34.746 | 8.780 | 32.691 | 2 |
| 2025-04-23T23:09:00 | 53.925607 | 6.270994 | 2.0 | 8.588 | 2 | 34.731 | 8.766 | 32.688 | 2 |
| 2025-04-23T23:10:00 | 53.925606 | 6.268672 | 2.0 | 8.578 | 2 | 34.708 | 8.756 | 32.673 | 2 |
| 2025-04-23T23:11:00 | 53.925609 | 6.266389 | 2.0 | 8.575 | 2 | 34.703 | 8.747 | 32.676 | 2 |
| 2025-04-23T23:12:00 | 53.925621 | 6.264125 | 2.0 | 8.576 | 2 | 34.704 | 8.745 | 32.679 | 2 |
| 2025-04-23T23:13:00 | 53.925630 | 6.261871 | 2.0 | 8.576 | 2 | 34.706 | 8.745 | 32.681 | 2 |
| 2025-04-23T23:14:00 | 53.925630 | 6.259622 | 2.0 | 8.579 | 2 | 34.710 | 8.744 | 32.686 | 2 |
| 2025-04-23T23:15:00 | 53.925626 | 6.257378 | 2.0 | 8.587 | 2 | 34.717 | 8.749 | 32.689 | 2 |
| 2025-04-23T23:16:00 | 53.925607 | 6.255147 | 2.0 | 8.598 | 2 | 34.725 | 8.757 | 32.690 | 2 |
| 2025-04-23T23:17:00 | 53.925597 | 6.252934 | 2.0 | 8.622 | 2 | 34.738 | 8.770 | 32.692 | 2 |
| 2025-04-23T23:18:00 | 53.925598 | 6.250736 | 2.0 | 8.631 | 2 | 34.763 | 8.792 | 32.697 | 2 |
| 2025-04-23T23:19:00 | 53.925599 | 6.248547 | 2.0 | 8.631 | 2 | 34.769 | 8.798 | 32.698 | 2 |
| 2025-04-23T23:20:00 | 53.925603 | 6.246349 | 2.0 | 8.632 | 2 | 34.770 | 8.799 | 32.698 | 2 |
| 2025-04-23T23:21:00 | 53.925607 | 6.244134 | 2.0 | 8.629 | 2 | 34.772 | 8.799 | 32.700 | 2 |
| 2025-04-23T23:22:00 | 53.925609 | 6.241911 | 2.0 | 8.621 | 2 | 34.770 | 8.796 | 32.701 | 2 |
| 2025-04-23T23:23:00 | 53.925602 | 6.239689 | 2.0 | 8.615 | 2 | 34.764 | 8.789 | 32.701 | 2 |
| 2025-04-23T23:24:00 | 53.925607 | 6.237472 | 2.0 | 8.608 | 2 | 34.755 | 8.782 | 32.698 | 2 |
| 2025-04-23T23:25:00 | 53.925623 | 6.235258 | 2.0 | 8.602 | 2 | 34.750 | 8.776 | 32.699 | 2 |
| 2025-04-23T23:26:00 | 53.925645 | 6.233034 | 2.0 | 8.601 | 2 | 34.742 | 8.771 | 32.695 | 2 |
| 2025-04-23T23:27:00 | 53.925653 | 6.230804 | 2.0 | 8.602 | 2 | 34.731 | 8.770 | 32.684 | 2 |
| 2025-04-23T23:28:00 | 53.925645 | 6.228560 | 2.0 | 8.600 | 2 | 34.729 | 8.770 | 32.682 | 2 |
| 2025-04-23T23:29:00 | 53.925621 | 6.226298 | 2.0 | 8.601 | 2 | 34.729 | 8.769 | 32.683 | 2 |
| 2025-04-23T23:30:00 | 53.925615 | 6.224036 | 2.0 | 8.603 | 2 | 34.728 | 8.769 | 32.682 | 2 |
| 2025-04-23T23:31:00 | 53.925611 | 6.221762 | 2.0 | 8.608 | 2 | 34.730 | 8.772 | 32.681 | 2 |
| 2025-04-23T23:32:00 | 53.925606 | 6.219488 | 2.0 | 8.613 | 2 | 34.732 | 8.777 | 32.679 | 2 |
| 2025-04-23T23:33:00 | 53.925614 | 6.217212 | 2.0 | 8.617 | 2 | 34.734 | 8.781 | 32.677 | 2 |
| 2025-04-23T23:34:00 | 53.925630 | 6.214934 | 2.0 | 8.618 | 2 | 34.737 | 8.785 | 32.677 | 2 |
| 2025-04-23T23:35:00 | 53.925641 | 6.212649 | 2.0 | 8.619 | 2 | 34.741 | 8.786 | 32.680 | 2 |
| 2025-04-23T23:36:00 | 53.925628 | 6.210359 | 2.0 | 8.619 | 2 | 34.744 | 8.787 | 32.682 | 2 |
| 2025-04-23T23:37:00 | 53.925602 | 6.208061 | 2.0 | 8.618 | 2 | 34.740 | 8.787 | 32.678 | 2 |
| 2025-04-23T23:38:00 | 53.925590 | 6.205775 | 2.0 | 8.616 | 2 | 34.743 | 8.786 | 32.682 | 2 |
| 2025-04-23T23:39:00 | 53.925606 | 6.203506 | 2.0 | 8.613 | 2 | 34.747 | 8.784 | 32.688 | 2 |
| 2025-04-23T23:40:00 | 53.925638 | 6.201249 | 2.0 | 8.612 | 2 | 34.750 | 8.781 | 32.694 | 2 |
| 2025-04-23T23:41:00 | 53.925650 | 6.198977 | 2.0 | 8.611 | 2 | 34.752 | 8.779 | 32.698 | 2 |
| 2025-04-23T23:42:00 | 53.925655 | 6.196694 | 2.0 | 8.610 | 2 | 34.754 | 8.779 | 32.700 | 2 |
| 2025-04-23T23:43:00 | 53.925660 | 6.194405 | 2.0 | 8.608 | 2 | 34.757 | 8.778 | 32.704 | 2 |
| 2025-04-23T23:44:00 | 53.925710 | 6.192121 | 2.0 | 8.605 | 2 | 34.757 | 8.776 | 32.706 | 2 |
| 2025-04-23T23:45:00 | 53.925753 | 6.189873 | 2.0 | 8.602 | 2 | 34.757 | 8.772 | 32.710 | 2 |
| 2025-04-23T23:46:00 | 53.925192 | 6.187726 | 2.0 | 8.596 | 2 | 34.755 | 8.768 | 32.711 | 2 |
| 2025-04-23T23:47:00 | 53.924110 | 6.187315 | 2.0 | 8.594 | 2 | 34.750 | 8.762 | 32.712 | 2 |
| 2025-04-23T23:48:00 | 53.923576 | 6.188522 | 2.0 | 8.595 | 2 | 34.746 | 8.760 | 32.709 | 2 |
| 2025-04-23T23:49:00 | 53.923707 | 6.190189 | 2.0 | 8.602 | 2 | 34.747 | 8.763 | 32.708 | 2 |
| 2025-04-23T23:50:00 | 53.923777 | 6.192304 | 2.0 | 8.607 | 2 | 34.751 | 8.770 | 32.705 | 2 |
| 2025-04-23T23:51:00 | 53.923694 | 6.194537 | 2.0 | 8.609 | 2 | 34.753 | 8.775 | 32.703 | 2 |
| 2025-04-23T23:52:00 | 53.923614 | 6.196651 | 2.0 | 8.612 | 2 | 34.752 | 8.777 | 32.700 | 2 |
| 2025-04-23T23:53:00 | 53.923516 | 6.198804 | 2.0 | 8.618 | 2 | 34.749 | 8.781 | 32.693 | 2 |
| 2025-04-23T23:54:00 | 53.923336 | 6.201008 | 2.0 | 8.620 | 2 | 34.747 | 8.785 | 32.687 | 2 |
| 2025-04-23T23:55:00 | 53.923223 | 6.203287 | 2.0 | 8.623 | 2 | 34.742 | 8.788 | 32.679 | 2 |
| 2025-04-23T23:56:00 | 53.923167 | 6.205568 | 2.0 | 8.625 | 2 | 34.740 | 8.791 | 32.674 | 2 |
| 2025-04-23T23:57:00 | 53.923213 | 6.207882 | 2.0 | 8.625 | 2 | 34.737 | 8.793 | 32.669 | 2 |
| 2025-04-23T23:58:00 | 53.923216 | 6.210171 | 2.0 | 8.621 | 2 | 34.735 | 8.792 | 32.668 | 2 |
| 2025-04-23T23:59:00 | 53.923215 | 6.212373 | 2.0 | 8.610 | 2 | 34.732 | 8.787 | 32.670 | 2 |
| 2025-04-24T00:00:00 | 53.923211 | 6.214565 | 2.0 | 8.601 | 2 | 34.726 | 8.777 | 32.673 | 2 |
| 2025-04-24T00:01:00 | 53.923189 | 6.216835 | 2.0 | 8.595 | 2 | 34.725 | 8.769 | 32.679 | 2 |
| 2025-04-24T00:02:00 | 53.923163 | 6.219130 | 2.0 | 8.595 | 2 | 34.727 | 8.763 | 32.687 | 2 |
| 2025-04-24T00:03:00 | 53.923179 | 6.221459 | 2.0 | 8.598 | 2 | 34.734 | 8.764 | 32.693 | 2 |
| 2025-04-24T00:04:00 | 53.923171 | 6.223800 | 2.0 | 8.603 | 2 | 34.739 | 8.767 | 32.695 | 2 |
| 2025-04-24T00:05:00 | 53.923148 | 6.226141 | 2.0 | 8.604 | 2 | 34.746 | 8.772 | 32.698 | 2 |
| 2025-04-24T00:06:00 | 53.923137 | 6.228481 | 2.0 | 8.594 | 2 | 34.748 | 8.771 | 32.701 | 2 |
| 2025-04-24T00:07:00 | 53.923162 | 6.230822 | 2.0 | 8.577 | 2 | 34.737 | 8.760 | 32.700 | 2 |
| 2025-04-24T00:08:00 | 53.923227 | 6.233164 | 2.0 | 8.567 | 2 | 34.719 | 8.745 | 32.695 | 2 |
| 2025-04-24T00:09:00 | 53.923228 | 6.235526 | 2.0 | 8.569 | 2 | 34.707 | 8.736 | 32.691 | 2 |
| 2025-04-24T00:10:00 | 53.923183 | 6.237885 | 2.0 | 8.580 | 2 | 34.706 | 8.738 | 32.688 | 2 |
| 2025-04-24T00:11:00 | 53.923194 | 6.240222 | 2.0 | 8.607 | 2 | 34.720 | 8.752 | 32.689 | 2 |
| 2025-04-24T00:12:00 | 53.923229 | 6.242537 | 2.0 | 8.633 | 2 | 34.752 | 8.780 | 32.697 | 2 |
| 2025-04-24T00:13:00 | 53.923263 | 6.244890 | 2.0 | 8.631 | 2 | 34.777 | 8.799 | 32.706 | 2 |
| 2025-04-24T00:14:00 | 53.923248 | 6.247294 | 2.0 | 8.618 | 2 | 34.776 | 8.796 | 32.707 | 2 |
| 2025-04-24T00:15:00 | 53.923213 | 6.249698 | 2.0 | 8.605 | 2 | 34.765 | 8.784 | 32.707 | 2 |
| 2025-04-24T00:16:00 | 53.923197 | 6.252083 | 2.0 | 8.579 | 2 | 34.751 | 8.769 | 32.706 | 2 |
| 2025-04-24T00:17:00 | 53.923201 | 6.254417 | 2.0 | 8.559 | 2 | 34.729 | 8.745 | 32.705 | 2 |
| 2025-04-24T00:18:00 | 53.923218 | 6.256723 | 2.0 | 8.543 | 2 | 34.712 | 8.726 | 32.705 | 2 |
| 2025-04-24T00:19:00 | 53.923223 | 6.259022 | 2.0 | 8.527 | 2 | 34.702 | 8.710 | 32.709 | 2 |
| 2025-04-24T00:20:00 | 53.923219 | 6.261335 | 2.0 | 8.520 | 2 | 34.695 | 8.694 | 32.717 | 2 |
| 2025-04-24T00:21:00 | 53.923212 | 6.263641 | 2.0 | 8.511 | 2 | 34.694 | 8.688 | 32.721 | 2 |
| 2025-04-24T00:22:00 | 53.923229 | 6.265932 | 2.0 | 8.489 | 2 | 34.690 | 8.676 | 32.728 | 2 |
| 2025-04-24T00:23:00 | 53.923228 | 6.268229 | 2.0 | 8.460 | 2 | 34.678 | 8.654 | 32.736 | 2 |
| 2025-04-24T00:24:00 | 53.923223 | 6.270535 | 2.0 | 8.446 | 2 | 34.661 | 8.629 | 32.741 | 2 |
| 2025-04-24T00:25:00 | 53.923224 | 6.272849 | 2.0 | 8.439 | 2 | 34.652 | 8.615 | 32.745 | 2 |
| 2025-04-24T00:26:00 | 53.923212 | 6.275154 | 2.0 | 8.438 | 2 | 34.649 | 8.609 | 32.747 | 2 |
| 2025-04-24T00:27:00 | 53.923215 | 6.277457 | 2.0 | 8.454 | 2 | 34.653 | 8.610 | 32.751 | 2 |
| 2025-04-24T00:28:00 | 53.923216 | 6.279754 | 2.0 | 8.471 | 2 | 34.669 | 8.624 | 32.754 | 2 |
| 2025-04-24T00:29:00 | 53.923213 | 6.282044 | 2.0 | 8.516 | 2 | 34.692 | 8.646 | 32.758 | 2 |
| 2025-04-24T00:30:00 | 53.923213 | 6.284332 | 2.0 | 8.547 | 2 | 34.729 | 8.689 | 32.757 | 2 |
| 2025-04-24T00:31:00 | 53.923228 | 6.286618 | 2.0 | 8.580 | 2 | 34.755 | 8.719 | 32.757 | 2 |
| 2025-04-24T00:32:00 | 53.923241 | 6.288899 | 2.0 | 8.629 | 2 | 34.784 | 8.749 | 32.759 | 2 |
| 2025-04-24T00:33:00 | 53.923247 | 6.291216 | 2.0 | 8.780 | 2 | 34.849 | 8.816 | 32.765 | 2 |
| 2025-04-24T00:34:00 | 53.923222 | 6.293553 | 2.0 | 8.747 | 2 | 34.970 | 8.930 | 32.786 | 2 |
| 2025-04-24T00:35:00 | 53.923217 | 6.295890 | 2.0 | 8.709 | 2 | 34.949 | 8.905 | 32.787 | 2 |
| 2025-04-24T00:36:00 | 53.923222 | 6.298212 | 2.0 | 8.644 | 2 | 34.897 | 8.862 | 32.773 | 2 |
| 2025-04-24T00:37:00 | 53.923260 | 6.300537 | 2.0 | 8.593 | 2 | 34.608 | 8.803 | 32.525 | 2 |
| 2025-04-24T00:38:00 | 53.922995 | 6.302770 | 2.0 | 8.536 | 2 | 34.788 | 8.757 | 32.756 | 2 |
| 2025-04-24T00:39:00 | 53.922514 | 6.304964 | 2.0 | 8.496 | 2 | 34.741 | 8.699 | 32.760 | 2 |
| 2025-04-24T00:40:00 | 53.922173 | 6.307203 | 2.0 | 8.483 | 2 | 34.712 | 8.667 | 32.760 | 2 |
| 2025-04-24T00:41:00 | 53.922457 | 6.309200 | 2.0 | 8.458 | 2 | 34.674 | 8.648 | 32.737 | 2 |
| 2025-04-24T00:42:00 | 53.922809 | 6.311251 | 2.0 | 8.443 | 2 | 34.672 | 8.624 | 32.758 | 2 |
| 2025-04-24T00:43:00 | 53.922486 | 6.313430 | 2.0 | 8.433 | 2 | 34.659 | 8.613 | 32.754 | 2 |
| 2025-04-24T00:44:00 | 53.921098 | 6.314177 | 2.0 | 8.430 | 2 | 34.645 | 8.602 | 32.750 | 2 |
| 2025-04-24T00:45:00 | 53.920057 | 6.312423 | 2.0 | 8.431 | 2 | 34.643 | 8.601 | 32.748 | 2 |
| 2025-04-24T00:46:00 | 53.920091 | 6.310386 | 2.0 | 8.430 | 2 | 34.646 | 8.601 | 32.752 | 2 |
| 2025-04-24T00:47:00 | 53.920361 | 6.308570 | 2.0 | 8.429 | 2 | 34.625 | 8.598 | 32.732 | 2 |
| 2025-04-24T00:48:00 | 53.920594 | 6.306626 | 2.0 | 8.436 | 2 | 34.482 | 8.599 | 32.581 | 2 |
| 2025-04-24T00:49:00 | 53.920705 | 6.304479 | 2.0 | 8.449 | 2 | 34.376 | 8.605 | 32.465 | 2 |
| 2025-04-24T00:50:00 | 53.920798 | 6.302213 | 2.0 | 8.475 | 2 | 34.668 | 8.622 | 32.755 | 2 |
| 2025-04-24T00:51:00 | 53.920805 | 6.299899 | 2.0 | 8.488 | 2 | 34.687 | 8.644 | 32.755 | 2 |
| 2025-04-24T00:52:00 | 53.920863 | 6.297622 | 2.0 | 8.493 | 2 | 34.657 | 8.656 | 32.712 | 2 |
| 2025-04-24T00:53:00 | 53.920894 | 6.295374 | 2.0 | 8.523 | 2 | 34.698 | 8.665 | 32.747 | 2 |
| 2025-04-24T00:54:00 | 53.920854 | 6.293102 | 2.0 | 8.574 | 2 | 34.485 | 8.700 | 32.492 | 2 |
| 2025-04-24T00:55:00 | 53.920782 | 6.290810 | 2.0 | 8.612 | 2 | 34.626 | 8.746 | 32.597 | 2 |
| 2025-04-24T00:56:00 | 53.920740 | 6.288524 | 2.0 | 8.639 | 2 | 34.708 | 8.782 | 32.649 | 2 |
| 2025-04-24T00:57:00 | 53.920753 | 6.286283 | 2.0 | 8.675 | 2 | 34.807 | 8.810 | 32.727 | 2 |
| 2025-04-24T00:58:00 | 53.920772 | 6.284101 | 2.0 | 8.703 | 2 | 34.864 | 8.847 | 32.752 | 2 |
| 2025-04-24T00:59:00 | 53.920808 | 6.281964 | 2.0 | 8.716 | 2 | 34.905 | 8.867 | 32.776 | 2 |
| 2025-04-24T01:00:00 | 53.920819 | 6.279849 | 2.0 | 8.752 | 2 | 34.912 | 8.892 | 32.761 | 2 |
| 2025-04-24T01:01:00 | 53.920780 | 6.277747 | 2.0 | 8.634 | 2 | 34.904 | 8.903 | 32.742 | 2 |
| 2025-04-24T01:02:00 | 53.920750 | 6.275653 | 2.0 | 8.577 | 2 | 34.849 | 8.797 | 32.783 | 2 |
| 2025-04-24T01:03:00 | 53.920752 | 6.273520 | 2.0 | 8.545 | 2 | 34.781 | 8.743 | 32.762 | 2 |
| 2025-04-24T01:04:00 | 53.920761 | 6.271364 | 2.0 | 8.539 | 2 | 34.703 | 8.718 | 32.703 | 2 |
| 2025-04-24T01:05:00 | 53.920763 | 6.269182 | 2.0 | 8.526 | 2 | 34.645 | 8.703 | 32.656 | 2 |
| 2025-04-24T01:06:00 | 53.920779 | 6.266992 | 2.0 | 8.485 | 2 | 34.618 | 8.687 | 32.643 | 2 |
| 2025-04-24T01:07:00 | 53.920775 | 6.264786 | 2.0 | 8.463 | 2 | 34.589 | 8.651 | 32.646 | 2 |
| 2025-04-24T01:08:00 | 53.920767 | 6.262610 | 2.0 | 8.450 | 2 | 34.631 | 8.631 | 32.708 | 2 |
| 2025-04-24T01:09:00 | 53.920769 | 6.260489 | 2.0 | 8.448 | 2 | 34.635 | 8.620 | 32.722 | 2 |
| 2025-04-24T01:10:00 | 53.920798 | 6.258423 | 2.0 | 8.444 | 2 | 34.569 | 8.616 | 32.657 | 2 |
| 2025-04-24T01:11:00 | 53.920825 | 6.256399 | 2.0 | 8.440 | 2 | 34.583 | 8.612 | 32.675 | 2 |
| 2025-04-24T01:12:00 | 53.920832 | 6.254396 | 2.0 | 8.449 | 2 | 34.551 | 8.611 | 32.643 | 2 |
| 2025-04-24T01:13:00 | 53.920817 | 6.252405 | 2.0 | 8.452 | 2 | 34.634 | 8.618 | 32.723 | 2 |
| 2025-04-24T01:14:00 | 53.920788 | 6.250409 | 2.0 | 8.448 | 2 | 34.544 | 8.618 | 32.629 | 2 |
| 2025-04-24T01:15:00 | 53.920742 | 6.248418 | 2.0 | 8.459 | 2 | 34.566 | 8.619 | 32.651 | 2 |
| 2025-04-24T01:16:00 | 53.920687 | 6.246435 | 2.0 | 8.473 | 2 | 34.580 | 8.629 | 32.656 | 2 |
| 2025-04-24T01:17:00 | 53.920644 | 6.244444 | 2.0 | 8.474 | 2 | 34.617 | 8.640 | 32.685 | 2 |
| 2025-04-24T01:18:00 | 53.920662 | 6.242426 | 2.0 | 8.479 | 2 | 34.598 | 8.643 | 32.662 | 2 |
| 2025-04-24T01:19:00 | 53.920696 | 6.240371 | 2.0 | 8.479 | 2 | 34.562 | 8.645 | 32.623 | 2 |
| 2025-04-24T01:20:00 | 53.920719 | 6.238288 | 2.0 | 8.485 | 2 | 34.602 | 8.647 | 32.663 | 2 |
| 2025-04-24T01:21:00 | 53.920735 | 6.236187 | 2.0 | 8.501 | 2 | 34.606 | 8.655 | 32.660 | 2 |
| 2025-04-24T01:22:00 | 53.920721 | 6.234070 | 2.0 | 8.518 | 2 | 34.610 | 8.670 | 32.650 | 2 |
| 2025-04-24T01:23:00 | 53.920721 | 6.231947 | 2.0 | 8.533 | 2 | 34.610 | 8.687 | 32.634 | 2 |
| 2025-04-24T01:24:00 | 53.920721 | 6.229806 | 2.0 | 8.547 | 2 | 34.666 | 8.702 | 32.679 | 2 |
| 2025-04-24T01:25:00 | 53.920717 | 6.227672 | 2.0 | 8.565 | 2 | 34.661 | 8.715 | 32.662 | 2 |
| 2025-04-24T01:26:00 | 53.920735 | 6.225550 | 2.0 | 8.586 | 2 | 34.666 | 8.735 | 32.649 | 2 |
| 2025-04-24T01:27:00 | 53.920761 | 6.223435 | 2.0 | 8.601 | 2 | 34.667 | 8.755 | 32.631 | 2 |
| 2025-04-24T01:28:00 | 53.920768 | 6.221317 | 2.0 | 8.612 | 2 | 34.674 | 8.769 | 32.626 | 2 |
| 2025-04-24T01:29:00 | 53.920757 | 6.219202 | 2.0 | 8.620 | 2 | 34.738 | 8.779 | 32.683 | 2 |
| 2025-04-24T01:30:00 | 53.920736 | 6.217087 | 2.0 | 8.627 | 2 | 34.712 | 8.789 | 32.647 | 2 |
| 2025-04-24T01:31:00 | 53.920695 | 6.214963 | 2.0 | 8.625 | 2 | 34.765 | 8.794 | 32.698 | 2 |
| 2025-04-24T01:32:00 | 53.920655 | 6.212833 | 2.0 | 8.599 | 2 | 34.732 | 8.787 | 32.670 | 2 |
| 2025-04-24T01:33:00 | 53.920654 | 6.210717 | 2.0 | 8.578 | 2 | 34.724 | 8.764 | 32.683 | 2 |
| 2025-04-24T01:34:00 | 53.920691 | 6.208630 | 2.0 | 8.565 | 2 | 34.715 | 8.743 | 32.693 | 2 |
| 2025-04-24T01:35:00 | 53.920723 | 6.206552 | 2.0 | 8.559 | 2 | 34.682 | 8.731 | 32.669 | 2 |
| 2025-04-24T01:36:00 | 53.920736 | 6.204467 | 2.0 | 8.554 | 2 | 34.694 | 8.726 | 32.686 | 2 |
| 2025-04-24T01:37:00 | 53.920728 | 6.202387 | 2.0 | 8.552 | 2 | 34.699 | 8.723 | 32.694 | 2 |
| 2025-04-24T01:38:00 | 53.920711 | 6.200317 | 2.0 | 8.553 | 2 | 34.699 | 8.721 | 32.696 | 2 |
| 2025-04-24T01:39:00 | 53.920445 | 6.198359 | 2.0 | 8.556 | 2 | 34.698 | 8.721 | 32.695 | 2 |
| 2025-04-24T01:40:00 | 53.919802 | 6.196624 | 2.0 | 8.563 | 2 | 34.708 | 8.725 | 32.702 | 2 |
| 2025-04-24T01:41:00 | 53.919122 | 6.194862 | 2.0 | 8.562 | 2 | 34.713 | 8.731 | 32.702 | 2 |
| 2025-04-24T01:42:00 | 53.918943 | 6.192889 | 2.0 | 8.565 | 2 | 34.704 | 8.728 | 32.695 | 2 |
| 2025-04-24T01:43:00 | 53.919484 | 6.191156 | 2.0 | 8.570 | 2 | 34.696 | 8.732 | 32.683 | 2 |
| 2025-04-24T01:44:00 | 53.920538 | 6.190482 | 2.0 | 8.569 | 2 | 34.705 | 8.736 | 32.689 | 2 |
| 2025-04-24T01:45:00 | 53.921530 | 6.191272 | 2.0 | 8.567 | 2 | 34.715 | 8.735 | 32.700 | 2 |
| 2025-04-24T01:46:00 | 53.922000 | 6.193141 | 2.0 | 8.573 | 2 | 34.725 | 8.737 | 32.709 | 2 |
| 2025-04-24T01:47:00 | 53.922209 | 6.195231 | 2.0 | 8.564 | 2 | 34.725 | 8.738 | 32.708 | 2 |
| 2025-04-24T01:48:00 | 53.922292 | 6.197287 | 2.0 | 8.563 | 2 | 34.717 | 8.732 | 32.705 | 2 |
| 2025-04-24T01:49:00 | 53.922344 | 6.199325 | 2.0 | 8.564 | 2 | 34.715 | 8.730 | 32.705 | 2 |
| 2025-04-24T01:50:00 | 53.922376 | 6.201355 | 2.0 | 8.582 | 2 | 34.718 | 8.735 | 32.703 | 2 |
| 2025-04-24T01:51:00 | 53.922434 | 6.203365 | 2.0 | 8.594 | 2 | 34.731 | 8.749 | 32.704 | 2 |
| 2025-04-24T01:52:00 | 53.922428 | 6.205373 | 2.0 | 8.607 | 2 | 34.746 | 8.763 | 32.706 | 2 |
| 2025-04-24T01:53:00 | 53.922404 | 6.207397 | 2.0 | 8.627 | 2 | 34.764 | 8.777 | 32.712 | 2 |
| 2025-04-24T01:54:00 | 53.922384 | 6.209421 | 2.0 | 8.655 | 2 | 34.790 | 8.800 | 32.718 | 2 |
| 2025-04-24T01:55:00 | 53.922363 | 6.211471 | 2.0 | 8.655 | 2 | 34.811 | 8.820 | 32.722 | 2 |
| 2025-04-24T01:56:00 | 53.922341 | 6.213520 | 2.0 | 8.662 | 2 | 34.815 | 8.822 | 32.724 | 2 |
| 2025-04-24T01:57:00 | 53.922347 | 6.215582 | 2.0 | 8.665 | 2 | 34.820 | 8.829 | 32.723 | 2 |
| 2025-04-24T01:58:00 | 53.922362 | 6.217675 | 2.0 | 8.654 | 2 | 34.818 | 8.830 | 32.720 | 2 |
| 2025-04-24T01:59:00 | 53.922371 | 6.219786 | 2.0 | 8.636 | 2 | 34.806 | 8.818 | 32.718 | 2 |
| 2025-04-24T02:00:00 | 53.922375 | 6.221883 | 2.0 | 8.615 | 2 | 34.788 | 8.800 | 32.716 | 2 |
| 2025-04-24T02:01:00 | 53.922383 | 6.224008 | 2.0 | 8.591 | 2 | 34.769 | 8.779 | 32.716 | 2 |
| 2025-04-24T02:02:00 | 53.922368 | 6.226142 | 2.0 | 8.567 | 2 | 34.750 | 8.757 | 32.716 | 2 |
| 2025-04-24T02:03:00 | 53.922359 | 6.228247 | 2.0 | 8.545 | 2 | 34.731 | 8.732 | 32.719 | 2 |
| 2025-04-24T02:04:00 | 53.922346 | 6.230331 | 2.0 | 8.525 | 2 | 34.717 | 8.710 | 32.725 | 2 |
| 2025-04-24T02:05:00 | 53.922334 | 6.232379 | 2.0 | 8.504 | 2 | 34.706 | 8.689 | 32.733 | 2 |
| 2025-04-24T02:06:00 | 53.922341 | 6.234423 | 2.0 | 8.485 | 2 | 34.695 | 8.671 | 32.738 | 2 |
| 2025-04-24T02:07:00 | 53.922334 | 6.236451 | 2.0 | 8.466 | 2 | 34.687 | 8.651 | 32.748 | 2 |
| 2025-04-24T02:08:00 | 53.922319 | 6.238463 | 2.0 | 8.455 | 2 | 34.673 | 8.633 | 32.750 | 2 |
| 2025-04-24T02:09:00 | 53.922336 | 6.240463 | 2.0 | 8.447 | 2 | 34.663 | 8.623 | 32.749 | 2 |
| 2025-04-24T02:10:00 | 53.922376 | 6.242451 | 2.0 | 8.439 | 2 | 34.661 | 8.617 | 32.753 | 2 |
| 2025-04-24T02:11:00 | 53.922395 | 6.244441 | 2.0 | 8.428 | 2 | 34.655 | 8.604 | 32.758 | 2 |
| 2025-04-24T02:12:00 | 53.922394 | 6.246441 | 2.0 | 8.423 | 2 | 34.654 | 8.596 | 32.765 | 2 |
| 2025-04-24T02:13:00 | 53.922374 | 6.248447 | 2.0 | 8.417 | 2 | 34.653 | 8.590 | 32.769 | 2 |
| 2025-04-24T02:14:00 | 53.922363 | 6.250458 | 2.0 | 8.409 | 2 | 34.651 | 8.584 | 32.773 | 2 |
| 2025-04-24T02:15:00 | 53.922363 | 6.252479 | 2.0 | 8.400 | 2 | 34.649 | 8.576 | 32.778 | 2 |
| 2025-04-24T02:16:00 | 53.922361 | 6.254521 | 2.0 | 8.403 | 2 | 34.647 | 8.569 | 32.782 | 2 |
| 2025-04-24T02:17:00 | 53.922353 | 6.256580 | 2.0 | 8.401 | 2 | 34.647 | 8.570 | 32.781 | 2 |
| 2025-04-24T02:18:00 | 53.922362 | 6.258654 | 2.0 | 8.410 | 2 | 34.647 | 8.570 | 32.781 | 2 |
| 2025-04-24T02:19:00 | 53.922356 | 6.260737 | 2.0 | 8.446 | 2 | 34.660 | 8.587 | 32.779 | 2 |
| 2025-04-24T02:20:00 | 53.922379 | 6.262791 | 2.0 | 8.493 | 2 | 34.689 | 8.622 | 32.777 | 2 |
| 2025-04-24T02:21:00 | 53.922379 | 6.264836 | 2.0 | 8.529 | 2 | 34.726 | 8.666 | 32.775 | 2 |
| 2025-04-24T02:22:00 | 53.922381 | 6.266870 | 2.0 | 8.557 | 2 | 34.750 | 8.695 | 32.774 | 2 |
| 2025-04-24T02:23:00 | 53.922377 | 6.268923 | 2.0 | 8.590 | 2 | 34.773 | 8.726 | 32.769 | 2 |
| 2025-04-24T02:24:00 | 53.922367 | 6.270975 | 2.0 | 8.660 | 2 | 34.811 | 8.768 | 32.770 | 2 |
| 2025-04-24T02:25:00 | 53.922378 | 6.273027 | 2.0 | 8.739 | 2 | 34.894 | 8.851 | 32.780 | 2 |
| 2025-04-24T02:26:00 | 53.922394 | 6.275089 | 2.0 | 8.698 | 2 | 34.939 | 8.890 | 32.791 | 2 |
| 2025-04-24T02:27:00 | 53.922390 | 6.277171 | 2.0 | 8.684 | 2 | 34.911 | 8.861 | 32.788 | 2 |
| 2025-04-24T02:28:00 | 53.922379 | 6.279261 | 2.0 | 8.635 | 2 | 34.882 | 8.840 | 32.777 | 2 |
| 2025-04-24T02:29:00 | 53.922368 | 6.281353 | 2.0 | 8.593 | 2 | 34.827 | 8.796 | 32.761 | 2 |
| 2025-04-24T02:30:00 | 53.922362 | 6.283424 | 2.0 | 8.555 | 2 | 34.788 | 8.755 | 32.758 | 2 |
| 2025-04-24T02:31:00 | 53.922359 | 6.285514 | 2.0 | 8.519 | 2 | 34.759 | 8.718 | 32.762 | 2 |
| 2025-04-24T02:32:00 | 53.922362 | 6.287613 | 2.0 | 8.487 | 2 | 34.719 | 8.682 | 32.753 | 2 |
| 2025-04-24T02:33:00 | 53.922365 | 6.289711 | 2.0 | 8.479 | 2 | 34.700 | 8.656 | 32.757 | 2 |
| 2025-04-24T02:34:00 | 53.922403 | 6.291826 | 2.0 | 8.454 | 2 | 34.690 | 8.644 | 32.758 | 2 |
| 2025-04-24T02:35:00 | 53.922438 | 6.293954 | 2.0 | 8.435 | 2 | 34.672 | 8.618 | 32.763 | 2 |
| 2025-04-24T02:36:00 | 53.922446 | 6.296097 | 2.0 | 8.426 | 2 | 34.655 | 8.602 | 32.760 | 2 |
| 2025-04-24T02:37:00 | 53.922437 | 6.298235 | 2.0 | 8.418 | 2 | 34.640 | 8.594 | 32.752 | 2 |
| 2025-04-24T02:38:00 | 53.922448 | 6.300384 | 2.0 | 8.407 | 2 | 34.632 | 8.584 | 32.753 | 2 |
| 2025-04-24T02:39:00 | 53.922655 | 6.302446 | 2.0 | 8.404 | 2 | 34.620 | 8.574 | 32.749 | 2 |
| 2025-04-24T02:40:00 | 53.923222 | 6.304389 | 2.0 | 8.405 | 2 | 34.615 | 8.572 | 32.746 | 2 |
| 2025-04-24T02:41:00 | 53.923692 | 6.306501 | 2.0 | 8.408 | 2 | 34.610 | 8.573 | 32.740 | 2 |
| 2025-04-24T02:42:00 | 53.923335 | 6.308683 | 2.0 | 8.401 | 2 | 34.613 | 8.575 | 32.741 | 2 |
| 2025-04-24T02:43:00 | 53.922218 | 6.309788 | 2.0 | 8.381 | 2 | 34.611 | 8.566 | 32.747 | 2 |
| 2025-04-24T02:44:00 | 53.920957 | 6.309144 | 2.0 | 8.368 | 2 | 34.601 | 8.546 | 32.755 | 2 |
| 2025-04-24T02:45:00 | 53.920475 | 6.307157 | 2.0 | 8.377 | 2 | 34.600 | 8.538 | 32.762 | 2 |
| 2025-04-24T02:46:00 | 53.920284 | 6.304838 | 2.0 | 8.387 | 2 | 34.604 | 8.547 | 32.758 | 2 |
| 2025-04-24T02:47:00 | 53.920146 | 6.302466 | 2.0 | 8.389 | 2 | 34.609 | 8.556 | 32.755 | 2 |
| 2025-04-24T02:48:00 | 53.920028 | 6.300171 | 2.0 | 8.393 | 2 | 34.611 | 8.558 | 32.755 | 2 |
| 2025-04-24T02:49:00 | 53.920015 | 6.297929 | 2.0 | 8.400 | 2 | 34.625 | 8.562 | 32.766 | 2 |
| 2025-04-24T02:50:00 | 53.920062 | 6.295732 | 2.0 | 8.404 | 2 | 34.635 | 8.570 | 32.769 | 2 |
| 2025-04-24T02:51:00 | 53.919977 | 6.293558 | 2.0 | 8.407 | 2 | 34.639 | 8.573 | 32.770 | 2 |
| 2025-04-24T02:52:00 | 53.919956 | 6.291412 | 2.0 | 8.430 | 2 | 34.647 | 8.579 | 32.773 | 2 |
| 2025-04-24T02:53:00 | 53.919975 | 6.289302 | 2.0 | 8.453 | 2 | 34.665 | 8.601 | 32.772 | 2 |
| 2025-04-24T02:54:00 | 53.920001 | 6.287197 | 2.0 | 8.486 | 2 | 34.685 | 8.625 | 32.770 | 2 |
| 2025-04-24T02:55:00 | 53.919984 | 6.285080 | 2.0 | 8.521 | 2 | 34.715 | 8.659 | 32.770 | 2 |
| 2025-04-24T02:56:00 | 53.919958 | 6.282967 | 2.0 | 8.568 | 2 | 34.744 | 8.695 | 32.767 | 2 |
| 2025-04-24T02:57:00 | 53.919951 | 6.280844 | 2.0 | 8.599 | 2 | 34.774 | 8.736 | 32.761 | 2 |
| 2025-04-24T02:58:00 | 53.919969 | 6.278720 | 2.0 | 8.621 | 2 | 34.797 | 8.769 | 32.754 | 2 |
| 2025-04-24T02:59:00 | 53.919968 | 6.276604 | 2.0 | 8.587 | 2 | 34.828 | 8.777 | 32.779 | 2 |
| 2025-04-24T03:00:00 | 53.919965 | 6.274497 | 2.0 | 8.569 | 2 | 34.819 | 8.755 | 32.790 | 2 |
| 2025-04-24T03:01:00 | 53.919959 | 6.272396 | 2.0 | 8.504 | 2 | 34.786 | 8.719 | 32.789 | 2 |
| 2025-04-24T03:02:00 | 53.919986 | 6.270303 | 2.0 | 8.487 | 2 | 34.736 | 8.675 | 32.777 | 2 |
| 2025-04-24T03:03:00 | 53.920012 | 6.268214 | 2.0 | 8.464 | 2 | 34.713 | 8.651 | 32.776 | 2 |
| 2025-04-24T03:04:00 | 53.920003 | 6.266119 | 2.0 | 8.433 | 2 | 34.693 | 8.625 | 32.779 | 2 |
| 2025-04-24T03:05:00 | 53.919976 | 6.264025 | 2.0 | 8.440 | 2 | 34.672 | 8.605 | 32.775 | 2 |
| 2025-04-24T03:06:00 | 53.919980 | 6.261928 | 2.0 | 8.436 | 2 | 34.668 | 8.609 | 32.767 | 2 |
| 2025-04-24T03:07:00 | 53.919993 | 6.259822 | 2.0 | 8.436 | 2 | 34.660 | 8.604 | 32.764 | 2 |
| 2025-04-24T03:08:00 | 53.919984 | 6.257722 | 2.0 | 8.436 | 2 | 34.654 | 8.605 | 32.756 | 2 |
| 2025-04-24T03:09:00 | 53.919970 | 6.255629 | 2.0 | 8.436 | 2 | 34.652 | 8.605 | 32.754 | 2 |
| 2025-04-24T03:10:00 | 53.919982 | 6.253540 | 2.0 | 8.436 | 2 | 34.644 | 8.605 | 32.746 | 2 |
| 2025-04-24T03:11:00 | 53.919980 | 6.251444 | 2.0 | 8.430 | 2 | 34.649 | 8.601 | 32.755 | 2 |
| 2025-04-24T03:12:00 | 53.919972 | 6.249351 | 2.0 | 8.444 | 2 | 34.655 | 8.602 | 32.760 | 2 |
| 2025-04-24T03:13:00 | 53.919986 | 6.247271 | 2.0 | 8.459 | 2 | 34.661 | 8.613 | 32.756 | 2 |
| 2025-04-24T03:14:00 | 53.920027 | 6.245211 | 2.0 | 8.474 | 2 | 34.663 | 8.630 | 32.743 | 2 |
| 2025-04-24T03:15:00 | 53.920014 | 6.243154 | 2.0 | 8.482 | 2 | 34.666 | 8.642 | 32.735 | 2 |
| 2025-04-24T03:16:00 | 53.919986 | 6.241089 | 2.0 | 8.498 | 2 | 34.666 | 8.652 | 32.725 | 2 |
| 2025-04-24T03:17:00 | 53.919996 | 6.239029 | 2.0 | 8.515 | 2 | 34.673 | 8.668 | 32.718 | 2 |
| 2025-04-24T03:18:00 | 53.919984 | 6.236968 | 2.0 | 8.531 | 2 | 34.683 | 8.684 | 32.714 | 2 |
| 2025-04-24T03:19:00 | 53.919956 | 6.234897 | 2.0 | 8.546 | 2 | 34.693 | 8.700 | 32.709 | 2 |
| 2025-04-24T03:20:00 | 53.919942 | 6.232822 | 2.0 | 8.559 | 2 | 34.705 | 8.714 | 32.709 | 2 |
| 2025-04-24T03:21:00 | 53.919948 | 6.230766 | 2.0 | 8.566 | 2 | 34.714 | 8.727 | 32.706 | 2 |
| 2025-04-24T03:22:00 | 53.919961 | 6.228717 | 2.0 | 8.566 | 2 | 34.717 | 8.730 | 32.707 | 2 |
| 2025-04-24T03:23:00 | 53.919964 | 6.226670 | 2.0 | 8.561 | 2 | 34.714 | 8.733 | 32.701 | 2 |
| 2025-04-24T03:24:00 | 53.919976 | 6.224590 | 2.0 | 8.553 | 2 | 34.706 | 8.725 | 32.700 | 2 |
| 2025-04-24T03:25:00 | 53.919980 | 6.222464 | 2.0 | 8.559 | 2 | 34.699 | 8.721 | 32.696 | 2 |
| 2025-04-24T03:26:00 | 53.919990 | 6.220311 | 2.0 | 8.546 | 2 | 34.703 | 8.724 | 32.698 | 2 |
| 2025-04-24T03:27:00 | 53.919998 | 6.218152 | 2.0 | 8.543 | 2 | 34.692 | 8.714 | 32.695 | 2 |
| 2025-04-24T03:28:00 | 53.919969 | 6.215985 | 2.0 | 8.538 | 2 | 34.675 | 8.711 | 32.680 | 2 |
| 2025-04-24T03:29:00 | 53.919950 | 6.213803 | 2.0 | 8.537 | 2 | 34.676 | 8.705 | 32.687 | 2 |
| 2025-04-24T03:30:00 | 53.919956 | 6.211616 | 2.0 | 8.541 | 2 | 34.678 | 8.706 | 32.688 | 2 |
| 2025-04-24T03:31:00 | 53.919981 | 6.209433 | 2.0 | 8.545 | 2 | 34.680 | 8.709 | 32.687 | 2 |
| 2025-04-24T03:32:00 | 53.919982 | 6.207246 | 2.0 | 8.555 | 2 | 34.684 | 8.714 | 32.687 | 2 |
| 2025-04-24T03:33:00 | 53.919945 | 6.205047 | 2.0 | 8.568 | 2 | 34.689 | 8.725 | 32.682 | 2 |
| 2025-04-24T03:34:00 | 53.919904 | 6.202876 | 2.0 | 8.579 | 2 | 34.693 | 8.737 | 32.675 | 2 |
| 2025-04-24T03:35:00 | 53.919915 | 6.200731 | 2.0 | 8.592 | 2 | 34.693 | 8.749 | 32.664 | 2 |
| 2025-04-24T03:36:00 | 53.919665 | 6.198741 | 2.0 | 8.601 | 2 | 34.698 | 8.760 | 32.659 | 2 |
| 2025-04-24T03:37:00 | 53.918950 | 6.197043 | 2.0 | 8.611 | 2 | 34.704 | 8.768 | 32.658 | 2 |
| 2025-04-24T03:38:00 | 53.918334 | 6.195197 | 2.0 | 8.618 | 2 | 34.717 | 8.778 | 32.662 | 2 |
| 2025-04-24T03:39:00 | 53.918402 | 6.193182 | 2.0 | 8.620 | 2 | 34.729 | 8.784 | 32.669 | 2 |
| 2025-04-24T03:40:00 | 53.919248 | 6.191712 | 2.0 | 8.618 | 2 | 34.733 | 8.784 | 32.673 | 2 |
| 2025-04-24T03:41:00 | 53.920491 | 6.191613 | 2.0 | 8.618 | 2 | 34.737 | 8.783 | 32.679 | 2 |
| 2025-04-24T03:42:00 | 53.921387 | 6.193154 | 2.0 | 8.612 | 2 | 34.734 | 8.783 | 32.675 | 2 |
| 2025-04-24T03:43:00 | 53.921524 | 6.195430 | 2.0 | 8.608 | 2 | 34.723 | 8.779 | 32.668 | 2 |
| 2025-04-24T03:44:00 | 53.921588 | 6.197794 | 2.0 | 8.603 | 2 | 34.716 | 8.774 | 32.665 | 2 |
| 2025-04-24T03:45:00 | 53.921607 | 6.200128 | 2.0 | 8.595 | 2 | 34.711 | 8.769 | 32.664 | 2 |
| 2025-04-24T03:46:00 | 53.921645 | 6.202395 | 2.0 | 8.592 | 2 | 34.706 | 8.763 | 32.665 | 2 |
| 2025-04-24T03:47:00 | 53.921649 | 6.204631 | 2.0 | 8.579 | 2 | 34.705 | 8.757 | 32.669 | 2 |
| 2025-04-24T03:48:00 | 53.921584 | 6.206840 | 2.0 | 8.571 | 2 | 34.702 | 8.746 | 32.676 | 2 |
| 2025-04-24T03:49:00 | 53.921600 | 6.209022 | 2.0 | 8.561 | 2 | 34.700 | 8.737 | 32.682 | 2 |
| 2025-04-24T03:50:00 | 53.921624 | 6.211219 | 2.0 | 8.553 | 2 | 34.697 | 8.728 | 32.688 | 2 |
| 2025-04-24T03:51:00 | 53.921624 | 6.213435 | 2.0 | 8.547 | 2 | 34.695 | 8.721 | 32.692 | 2 |
| 2025-04-24T03:52:00 | 53.921579 | 6.215658 | 2.0 | 8.545 | 2 | 34.694 | 8.715 | 32.696 | 2 |
| 2025-04-24T03:53:00 | 53.921548 | 6.217871 | 2.0 | 8.541 | 2 | 34.690 | 8.711 | 32.696 | 2 |
| 2025-04-24T03:54:00 | 53.921554 | 6.220067 | 2.0 | 8.538 | 2 | 34.687 | 8.709 | 32.695 | 2 |
| 2025-04-24T03:55:00 | 53.921567 | 6.222274 | 2.0 | 8.536 | 2 | 34.684 | 8.705 | 32.695 | 2 |
| 2025-04-24T03:56:00 | 53.921571 | 6.224485 | 2.0 | 8.540 | 2 | 34.684 | 8.704 | 32.696 | 2 |
| 2025-04-24T03:57:00 | 53.921562 | 6.226712 | 2.0 | 8.557 | 2 | 34.689 | 8.708 | 32.698 | 2 |
| 2025-04-24T03:58:00 | 53.921542 | 6.228944 | 2.0 | 8.562 | 2 | 34.705 | 8.725 | 32.699 | 2 |
| 2025-04-24T03:59:00 | 53.921540 | 6.231180 | 2.0 | 8.545 | 2 | 34.706 | 8.723 | 32.702 | 2 |
| 2025-04-24T04:00:00 | 53.921533 | 6.233419 | 2.0 | 8.553 | 2 | 34.698 | 8.717 | 32.699 | 2 |
| 2025-04-24T04:01:00 | 53.921531 | 6.235666 | 2.0 | 8.547 | 2 | 34.700 | 8.717 | 32.701 | 2 |
| 2025-04-24T04:02:00 | 53.921525 | 6.237925 | 2.0 | 8.544 | 2 | 34.696 | 8.713 | 32.700 | 2 |
| 2025-04-24T04:03:00 | 53.921512 | 6.240158 | 2.0 | 8.547 | 2 | 34.699 | 8.712 | 32.704 | 2 |
| 2025-04-24T04:04:00 | 53.921522 | 6.242388 | 2.0 | 8.547 | 2 | 34.704 | 8.714 | 32.708 | 2 |
| 2025-04-24T04:05:00 | 53.921549 | 6.244623 | 2.0 | 8.548 | 2 | 34.705 | 8.714 | 32.709 | 2 |
| 2025-04-24T04:06:00 | 53.921569 | 6.246877 | 2.0 | 8.548 | 2 | 34.707 | 8.714 | 32.711 | 2 |
| 2025-04-24T04:07:00 | 53.921570 | 6.249139 | 2.0 | 8.543 | 2 | 34.706 | 8.714 | 32.710 | 2 |
| 2025-04-24T04:08:00 | 53.921561 | 6.251397 | 2.0 | 8.539 | 2 | 34.704 | 8.710 | 32.711 | 2 |
| 2025-04-24T04:09:00 | 53.921539 | 6.253623 | 2.0 | 8.535 | 2 | 34.698 | 8.706 | 32.709 | 2 |
| 2025-04-24T04:10:00 | 53.921519 | 6.255792 | 2.0 | 8.522 | 2 | 34.694 | 8.700 | 32.710 | 2 |
| 2025-04-24T04:11:00 | 53.921534 | 6.257935 | 2.0 | 8.510 | 2 | 34.687 | 8.688 | 32.714 | 2 |
| 2025-04-24T04:12:00 | 53.921544 | 6.260067 | 2.0 | 8.496 | 2 | 34.680 | 8.676 | 32.718 | 2 |
| 2025-04-24T04:13:00 | 53.921566 | 6.262196 | 2.0 | 8.486 | 2 | 34.675 | 8.662 | 32.726 | 2 |
| 2025-04-24T04:14:00 | 53.921593 | 6.264321 | 2.0 | 8.478 | 2 | 34.674 | 8.652 | 32.734 | 2 |
| 2025-04-24T04:15:00 | 53.921600 | 6.266458 | 2.0 | 8.470 | 2 | 34.667 | 8.644 | 32.734 | 2 |
| 2025-04-24T04:16:00 | 53.921612 | 6.268614 | 2.0 | 8.463 | 2 | 34.674 | 8.638 | 32.747 | 2 |
| 2025-04-24T04:17:00 | 53.921605 | 6.270784 | 2.0 | 8.447 | 2 | 34.673 | 8.628 | 32.755 | 2 |
| 2025-04-24T04:18:00 | 53.921600 | 6.272957 | 2.0 | 8.433 | 2 | 34.632 | 8.612 | 32.727 | 2 |
| 2025-04-24T04:19:00 | 53.921614 | 6.275136 | 2.0 | 8.424 | 2 | 34.435 | 8.600 | 32.531 | 2 |
| 2025-04-24T04:20:00 | 53.921627 | 6.277322 | 2.0 | 8.416 | 2 | 34.642 | 8.591 | 32.757 | 2 |
| 2025-04-24T04:21:00 | 53.921652 | 6.279527 | 2.0 | 8.411 | 2 | 34.637 | 8.583 | 32.759 | 2 |
| 2025-04-24T04:22:00 | 53.921657 | 6.281784 | 2.0 | 8.416 | 2 | 34.642 | 8.579 | 32.768 | 2 |
| 2025-04-24T04:23:00 | 53.921631 | 6.284068 | 2.0 | 8.421 | 2 | 34.564 | 8.585 | 32.680 | 2 |
| 2025-04-24T04:24:00 | 53.921595 | 6.286340 | 2.0 | 8.424 | 2 | 34.487 | 8.590 | 32.595 | 2 |
| 2025-04-24T04:25:00 | 53.921601 | 6.288574 | 2.0 | 8.436 | 2 | 34.434 | 8.592 | 32.537 | 2 |
| 2025-04-24T04:26:00 | 53.921603 | 6.290788 | 2.0 | 8.448 | 2 | 34.491 | 8.602 | 32.588 | 2 |
| 2025-04-24T04:27:00 | 53.921605 | 6.292999 | 2.0 | 8.475 | 2 | 34.635 | 8.620 | 32.722 | 2 |
| 2025-04-24T04:28:00 | 53.921606 | 6.295217 | 2.0 | 8.490 | 2 | 34.534 | 8.646 | 32.593 | 2 |
| 2025-04-24T04:29:00 | 53.921609 | 6.297427 | 2.0 | 8.494 | 2 | 34.651 | 8.656 | 32.706 | 2 |
| 2025-04-24T04:30:00 | 53.921604 | 6.299634 | 2.0 | 8.494 | 2 | 34.626 | 8.659 | 32.677 | 2 |
| 2025-04-24T04:31:00 | 53.921670 | 6.301828 | 2.0 | 8.495 | 2 | 34.607 | 8.660 | 32.656 | 2 |
| 2025-04-24T04:32:00 | 53.922070 | 6.303914 | 2.0 | 8.484 | 2 | 34.667 | 8.661 | 32.718 | 2 |
| 2025-04-24T04:33:00 | 53.922514 | 6.306075 | 2.0 | 8.500 | 2 | 34.534 | 8.650 | 32.589 | 2 |
| 2025-04-24T04:34:00 | 53.922269 | 6.308346 | 2.0 | 8.620 | 2 | 34.621 | 8.705 | 32.629 | 2 |
| 2025-04-24T04:35:00 | 53.921283 | 6.309641 | 2.0 | 8.601 | 2 | 34.718 | 8.774 | 32.667 | 2 |
| 2025-04-24T04:36:00 | 53.920175 | 6.309100 | 2.0 | 8.571 | 2 | 34.644 | 8.758 | 32.604 | 2 |
| 2025-04-24T04:37:00 | 53.919748 | 6.307156 | 2.0 | 8.567 | 2 | 34.675 | 8.734 | 32.659 | 2 |
| 2025-04-24T04:38:00 | 53.919493 | 6.304833 | 2.0 | 8.569 | 2 | 34.591 | 8.736 | 32.569 | 2 |
| 2025-04-24T04:39:00 | 53.919314 | 6.302600 | 2.0 | 8.570 | 2 | 34.615 | 8.734 | 32.596 | 2 |
| 2025-04-24T04:40:00 | 53.919252 | 6.300426 | 2.0 | 8.532 | 2 | 34.666 | 8.737 | 32.647 | 2 |
| 2025-04-24T04:41:00 | 53.919187 | 6.298285 | 2.0 | 8.481 | 2 | 34.557 | 8.687 | 32.579 | 2 |
| 2025-04-24T04:42:00 | 53.919179 | 6.296171 | 2.0 | 8.465 | 2 | 34.688 | 8.651 | 32.749 | 2 |
| 2025-04-24T04:43:00 | 53.919185 | 6.294062 | 2.0 | 8.449 | 2 | 34.636 | 8.631 | 32.713 | 2 |
| 2025-04-24T04:44:00 | 53.919159 | 6.291951 | 2.0 | 8.452 | 2 | 34.642 | 8.619 | 32.731 | 2 |
| 2025-04-24T04:45:00 | 53.919146 | 6.289841 | 2.0 | 8.452 | 2 | 34.484 | 8.620 | 32.564 | 2 |
| 2025-04-24T04:46:00 | 53.919156 | 6.287732 | 2.0 | 8.457 | 2 | 34.556 | 8.621 | 32.639 | 2 |
| 2025-04-24T04:47:00 | 53.919172 | 6.285629 | 2.0 | 8.461 | 2 | 34.517 | 8.625 | 32.594 | 2 |
| 2025-04-24T04:48:00 | 53.919161 | 6.283527 | 2.0 | 8.465 | 2 | 34.548 | 8.630 | 32.622 | 2 |
| 2025-04-24T04:49:00 | 53.919145 | 6.281421 | 2.0 | 8.465 | 2 | 34.563 | 8.633 | 32.635 | 2 |
| 2025-04-24T04:50:00 | 53.919138 | 6.279304 | 2.0 | 8.471 | 2 | 34.563 | 8.633 | 32.635 | 2 |
| 2025-04-24T04:51:00 | 53.919127 | 6.277172 | 2.0 | 8.494 | 2 | 34.584 | 8.644 | 32.647 | 2 |
| 2025-04-24T04:52:00 | 53.919117 | 6.275042 | 2.0 | 8.498 | 2 | 34.540 | 8.661 | 32.585 | 2 |
| 2025-04-24T04:53:00 | 53.919114 | 6.272916 | 2.0 | 8.495 | 2 | 34.567 | 8.664 | 32.611 | 2 |
| 2025-04-24T04:54:00 | 53.919121 | 6.270791 | 2.0 | 8.499 | 2 | 34.583 | 8.663 | 32.628 | 2 |
| 2025-04-24T04:55:00 | 53.919138 | 6.268667 | 2.0 | 8.511 | 2 | 34.588 | 8.668 | 32.629 | 2 |
| 2025-04-24T04:56:00 | 53.919163 | 6.266543 | 2.0 | 8.519 | 2 | 34.624 | 8.680 | 32.655 | 2 |
| 2025-04-24T04:57:00 | 53.919177 | 6.264417 | 2.0 | 8.513 | 2 | 34.622 | 8.685 | 32.649 | 2 |
| 2025-04-24T04:58:00 | 53.919187 | 6.262292 | 2.0 | 8.514 | 2 | 34.607 | 8.679 | 32.639 | 2 |
| 2025-04-24T04:59:00 | 53.919202 | 6.260162 | 2.0 | 8.511 | 2 | 34.629 | 8.680 | 32.661 | 2 |
| 2025-04-24T05:00:00 | 53.919182 | 6.258020 | 2.0 | 8.506 | 2 | 34.634 | 8.677 | 32.669 | 2 |
| 2025-04-24T05:01:00 | 53.919165 | 6.255874 | 2.0 | 8.506 | 2 | 34.615 | 8.674 | 32.652 | 2 |
| 2025-04-24T05:02:00 | 53.919175 | 6.253720 | 2.0 | 8.506 | 2 | 34.610 | 8.673 | 32.647 | 2 |
| 2025-04-24T05:03:00 | 53.919190 | 6.251560 | 2.0 | 8.511 | 2 | 34.610 | 8.674 | 32.646 | 2 |
| 2025-04-24T05:04:00 | 53.919184 | 6.249389 | 2.0 | 8.516 | 2 | 34.637 | 8.680 | 32.669 | 2 |
| 2025-04-24T05:05:00 | 53.919182 | 6.247214 | 2.0 | 8.524 | 2 | 34.641 | 8.684 | 32.670 | 2 |
| 2025-04-24T05:06:00 | 53.919183 | 6.245025 | 2.0 | 8.535 | 2 | 34.651 | 8.693 | 32.672 | 2 |
| 2025-04-24T05:07:00 | 53.919216 | 6.242830 | 2.0 | 8.547 | 2 | 34.629 | 8.704 | 32.639 | 2 |
| 2025-04-24T05:08:00 | 53.919207 | 6.240631 | 2.0 | 8.555 | 2 | 34.655 | 8.715 | 32.656 | 2 |
| 2025-04-24T05:09:00 | 53.919156 | 6.238431 | 2.0 | 8.573 | 2 | 34.656 | 8.722 | 32.650 | 2 |
| 2025-04-24T05:10:00 | 53.919148 | 6.236223 | 2.0 | 8.586 | 2 | 34.681 | 8.741 | 32.659 | 2 |
| 2025-04-24T05:11:00 | 53.919192 | 6.234016 | 2.0 | 8.587 | 2 | 34.685 | 8.753 | 32.652 | 2 |
| 2025-04-24T05:12:00 | 53.919202 | 6.231801 | 2.0 | 8.599 | 2 | 34.689 | 8.756 | 32.653 | 2 |
| 2025-04-24T05:13:00 | 53.919188 | 6.229581 | 2.0 | 8.610 | 2 | 34.698 | 8.766 | 32.654 | 2 |
| 2025-04-24T05:14:00 | 53.919154 | 6.227354 | 2.0 | 8.614 | 2 | 34.714 | 8.776 | 32.661 | 2 |
| 2025-04-24T05:15:00 | 53.919109 | 6.225128 | 2.0 | 8.604 | 2 | 34.724 | 8.778 | 32.670 | 2 |
| 2025-04-24T05:16:00 | 53.919093 | 6.222898 | 2.0 | 8.597 | 2 | 34.723 | 8.770 | 32.676 | 2 |
| 2025-04-24T05:17:00 | 53.919091 | 6.220675 | 2.0 | 8.581 | 2 | 34.721 | 8.762 | 32.681 | 2 |
| 2025-04-24T05:18:00 | 53.919083 | 6.218462 | 2.0 | 8.560 | 2 | 34.708 | 8.745 | 32.683 | 2 |
| 2025-04-24T05:19:00 | 53.919078 | 6.216250 | 2.0 | 8.549 | 2 | 34.689 | 8.728 | 32.679 | 2 |
| 2025-04-24T05:20:00 | 53.919046 | 6.214044 | 2.0 | 8.545 | 2 | 34.678 | 8.716 | 32.679 | 2 |
| 2025-04-24T05:21:00 | 53.918984 | 6.211839 | 2.0 | 8.550 | 2 | 34.675 | 8.714 | 32.677 | 2 |
| 2025-04-24T05:22:00 | 53.918968 | 6.209630 | 2.0 | 8.554 | 2 | 34.680 | 8.718 | 32.679 | 2 |
| 2025-04-24T05:23:00 | 53.919035 | 6.207419 | 2.0 | 8.559 | 2 | 34.685 | 8.722 | 32.681 | 2 |
| 2025-04-24T05:24:00 | 53.919115 | 6.205230 | 2.0 | 8.560 | 2 | 34.688 | 8.727 | 32.679 | 2 |
| 2025-04-24T05:25:00 | 53.919099 | 6.203044 | 2.0 | 8.562 | 2 | 34.695 | 8.727 | 32.686 | 2 |
| 2025-04-24T05:26:00 | 53.919067 | 6.200855 | 2.0 | 8.562 | 2 | 34.703 | 8.728 | 32.694 | 2 |
| 2025-04-24T05:27:00 | 53.919338 | 6.198771 | 2.0 | 8.560 | 2 | 34.707 | 8.728 | 32.698 | 2 |
| 2025-04-24T05:28:00 | 53.920158 | 6.197290 | 2.0 | 8.556 | 2 | 34.715 | 8.726 | 32.708 | 2 |
| 2025-04-24T05:29:00 | 53.921272 | 6.196653 | 2.0 | 8.553 | 2 | 34.720 | 8.722 | 32.717 | 2 |
| 2025-04-24T05:30:00 | 53.922450 | 6.196912 | 2.0 | 8.553 | 2 | 34.723 | 8.719 | 32.723 | 2 |
| 2025-04-24T05:31:00 | 53.923459 | 6.198073 | 2.0 | 8.554 | 2 | 34.724 | 8.720 | 32.723 | 2 |
| 2025-04-24T05:32:00 | 53.924098 | 6.199671 | 2.0 | 8.555 | 2 | 34.721 | 8.721 | 32.719 | 2 |
| 2025-04-24T05:33:00 | 53.924394 | 6.201446 | 2.0 | 8.556 | 2 | 34.716 | 8.722 | 32.713 | 2 |
| 2025-04-24T05:34:00 | 53.924507 | 6.203005 | 2.0 | 8.555 | 2 | 34.711 | 8.722 | 32.708 | 2 |
| 2025-04-24T05:35:00 | 53.924597 | 6.204087 | 2.0 | 8.554 | 2 | 34.708 | 8.721 | 32.706 | 2 |
| 2025-04-24T05:36:00 | 53.924754 | 6.204675 | 2.0 | 8.554 | 2 | 34.707 | 8.720 | 32.705 | 2 |
| 2025-04-24T05:37:00 | 53.924894 | 6.204976 | 2.0 | 8.554 | 2 | 34.707 | 8.720 | 32.705 | 2 |
| 2025-04-24T05:38:00 | 53.925007 | 6.205075 | 2.0 | 8.554 | 2 | 34.707 | 8.720 | 32.705 | 2 |
| 2025-04-24T05:39:00 | 53.925118 | 6.205077 | 2.0 | 8.554 | 2 | 34.707 | 8.720 | 32.705 | 2 |
| 2025-04-24T05:40:00 | 53.925292 | 6.205145 | 2.0 | 8.553 | 2 | 34.706 | 8.718 | 32.706 | 2 |
| 2025-04-24T05:41:00 | 53.925387 | 6.205925 | 2.0 | 8.553 | 2 | 34.704 | 8.718 | 32.704 | 2 |
| 2025-04-24T05:42:00 | 53.924654 | 6.207277 | 2.0 | 8.556 | 2 | 34.698 | 8.719 | 32.697 | 2 |
| 2025-04-24T05:43:00 | 53.923238 | 6.208782 | 2.0 | 8.559 | 2 | 34.701 | 8.724 | 32.695 | 2 |
| 2025-04-24T05:44:00 | 53.921517 | 6.210652 | 2.0 | 8.561 | 2 | 34.701 | 8.726 | 32.694 | 2 |
| 2025-04-24T05:45:00 | 53.919871 | 6.213191 | 2.0 | 8.562 | 2 | 34.699 | 8.729 | 32.689 | 2 |
| 2025-04-24T05:46:00 | 53.918161 | 6.215833 | 2.0 | 8.564 | 2 | 34.695 | 8.730 | 32.684 | 2 |
| 2025-04-24T05:47:00 | 53.916430 | 6.218524 | 2.0 | 8.562 | 2 | 34.690 | 8.732 | 32.677 | 2 |
| 2025-04-24T05:48:00 | 53.914690 | 6.221239 | 2.0 | 8.560 | 2 | 34.684 | 8.730 | 32.672 | 2 |
| 2025-04-24T05:49:00 | 53.912945 | 6.223961 | 2.0 | 8.555 | 2 | 34.678 | 8.728 | 32.668 | 2 |
| 2025-04-24T05:50:00 | 53.911215 | 6.226716 | 2.0 | 8.558 | 2 | 34.673 | 8.723 | 32.667 | 2 |
| 2025-04-24T05:51:00 | 53.909643 | 6.229726 | 2.0 | 8.572 | 2 | 34.667 | 8.729 | 32.655 | 2 |
| 2025-04-24T05:52:00 | 53.908376 | 6.232503 | 2.0 | 8.575 | 2 | 34.672 | 8.741 | 32.649 | 2 |
| 2025-04-24T05:53:00 | 53.907714 | 6.232585 | 2.0 | 8.562 | 2 | 34.675 | 8.739 | 32.654 | 2 |
| 2025-04-24T05:54:00 | 53.907623 | 6.232408 | 2.0 | 8.557 | 2 | 34.667 | 8.727 | 32.657 | 2 |
| 2025-04-24T05:55:00 | 53.907676 | 6.232366 | 2.0 | 8.554 | 2 | 34.664 | 8.722 | 32.659 | 2 |
| 2025-04-24T05:56:00 | 53.907727 | 6.232474 | 2.0 | 8.556 | 2 | 34.663 | 8.721 | 32.658 | 2 |
| 2025-04-24T05:57:00 | 53.907787 | 6.232540 | 2.0 | 8.556 | 2 | 34.665 | 8.723 | 32.659 | 2 |
| 2025-04-24T05:58:00 | 53.907843 | 6.232577 | 2.0 | 8.555 | 2 | 34.665 | 8.722 | 32.660 | 2 |
| 2025-04-24T05:59:00 | 53.907895 | 6.232602 | 2.0 | 8.551 | 2 | 34.664 | 8.721 | 32.659 | 2 |
| 2025-04-24T06:00:00 | 53.907951 | 6.232568 | 2.0 | 8.549 | 2 | 34.660 | 8.716 | 32.660 | 2 |
| 2025-04-24T06:01:00 | 53.908102 | 6.232570 | 2.0 | 8.548 | 2 | 34.659 | 8.715 | 32.660 | 2 |
| 2025-04-24T06:02:00 | 53.908188 | 6.232807 | 2.0 | 8.547 | 2 | 34.660 | 8.714 | 32.662 | 2 |
| 2025-04-24T06:03:00 | 53.908143 | 6.233022 | 2.0 | 8.548 | 2 | 34.659 | 8.713 | 32.662 | 2 |
| 2025-04-24T06:04:00 | 53.908040 | 6.233220 | 2.0 | 8.551 | 2 | 34.660 | 8.714 | 32.662 | 2 |
| 2025-04-24T06:05:00 | 53.907846 | 6.233635 | 2.0 | 8.551 | 2 | 34.661 | 8.715 | 32.662 | 2 |
| 2025-04-24T06:06:00 | 53.907509 | 6.233869 | 2.0 | 8.554 | 2 | 34.662 | 8.717 | 32.661 | 2 |
| 2025-04-24T06:07:00 | 53.907363 | 6.233842 | 2.0 | 8.556 | 2 | 34.663 | 8.720 | 32.659 | 2 |
| 2025-04-24T06:08:00 | 53.907325 | 6.233678 | 2.0 | 8.558 | 2 | 34.663 | 8.722 | 32.658 | 2 |
| 2025-04-24T06:09:00 | 53.907337 | 6.233370 | 2.0 | 8.563 | 2 | 34.664 | 8.725 | 32.656 | 2 |
| 2025-04-24T06:10:00 | 53.907370 | 6.232940 | 2.0 | 8.567 | 2 | 34.664 | 8.730 | 32.651 | 2 |
| 2025-04-24T06:11:00 | 53.907431 | 6.232449 | 2.0 | 8.567 | 2 | 34.667 | 8.733 | 32.652 | 2 |
| 2025-04-24T06:12:00 | 53.907503 | 6.231937 | 2.0 | 8.568 | 2 | 34.668 | 8.733 | 32.653 | 2 |
| 2025-04-24T06:13:00 | 53.907586 | 6.231630 | 2.0 | 8.571 | 2 | 34.669 | 8.734 | 32.653 | 2 |
| 2025-04-24T06:14:00 | 53.907640 | 6.231524 | 2.0 | 8.572 | 2 | 34.672 | 8.737 | 32.653 | 2 |
| 2025-04-24T06:15:00 | 53.907638 | 6.231490 | 2.0 | 8.573 | 2 | 34.673 | 8.739 | 32.652 | 2 |
| 2025-04-24T06:16:00 | 53.907580 | 6.231471 | 2.0 | 8.574 | 2 | 34.675 | 8.740 | 32.653 | 2 |
| 2025-04-24T06:17:00 | 53.907480 | 6.231491 | 2.0 | 8.575 | 2 | 34.675 | 8.740 | 32.653 | 2 |
| 2025-04-24T06:18:00 | 53.907354 | 6.231537 | 2.0 | 8.576 | 2 | 34.676 | 8.742 | 32.653 | 2 |
| 2025-04-24T06:19:00 | 53.907211 | 6.231625 | 2.0 | 8.577 | 2 | 34.676 | 8.742 | 32.653 | 2 |
| 2025-04-24T06:20:00 | 53.907055 | 6.231739 | 2.0 | 8.578 | 2 | 34.673 | 8.744 | 32.648 | 2 |
| 2025-04-24T06:21:00 | 53.906888 | 6.231863 | 2.0 | 8.578 | 2 | 34.670 | 8.744 | 32.645 | 2 |
| 2025-04-24T06:22:00 | 53.906719 | 6.231998 | 2.0 | 8.579 | 2 | 34.673 | 8.745 | 32.647 | 2 |
| 2025-04-24T06:23:00 | 53.906544 | 6.232134 | 2.0 | 8.579 | 2 | 34.675 | 8.746 | 32.648 | 2 |
| 2025-04-24T06:24:00 | 53.906357 | 6.232268 | 2.0 | 8.580 | 2 | 34.676 | 8.746 | 32.649 | 2 |
| 2025-04-24T06:25:00 | 53.906169 | 6.232417 | 2.0 | 8.581 | 2 | 34.676 | 8.746 | 32.649 | 2 |
| 2025-04-24T06:26:00 | 53.905990 | 6.232561 | 2.0 | 8.581 | 2 | 34.677 | 8.748 | 32.648 | 2 |
| 2025-04-24T06:27:00 | 53.905807 | 6.232697 | 2.0 | 8.581 | 2 | 34.677 | 8.747 | 32.649 | 2 |
| 2025-04-24T06:28:00 | 53.905625 | 6.232832 | 2.0 | 8.582 | 2 | 34.677 | 8.748 | 32.648 | 2 |
| 2025-04-24T06:29:00 | 53.905440 | 6.232971 | 2.0 | 8.582 | 2 | 34.677 | 8.749 | 32.647 | 2 |
| 2025-04-24T06:30:00 | 53.905256 | 6.233110 | 2.0 | 8.583 | 2 | 34.677 | 8.749 | 32.647 | 2 |
| 2025-04-24T06:31:00 | 53.905068 | 6.233251 | 2.0 | 8.584 | 2 | 34.677 | 8.749 | 32.647 | 2 |
| 2025-04-24T06:32:00 | 53.904877 | 6.233377 | 2.0 | 8.584 | 2 | 34.677 | 8.750 | 32.646 | 2 |
| 2025-04-24T06:33:00 | 53.904684 | 6.233499 | 2.0 | 8.584 | 2 | 34.676 | 8.750 | 32.645 | 2 |
| 2025-04-24T06:34:00 | 53.904500 | 6.233623 | 2.0 | 8.584 | 2 | 34.676 | 8.751 | 32.644 | 2 |
| 2025-04-24T06:35:00 | 53.904325 | 6.233746 | 2.0 | 8.585 | 2 | 34.676 | 8.751 | 32.644 | 2 |
| 2025-04-24T06:36:00 | 53.904152 | 6.233863 | 2.0 | 8.586 | 2 | 34.676 | 8.751 | 32.644 | 2 |
| 2025-04-24T06:37:00 | 53.903982 | 6.233977 | 2.0 | 8.586 | 2 | 34.676 | 8.752 | 32.643 | 2 |
| 2025-04-24T06:38:00 | 53.903814 | 6.233983 | 2.0 | 8.586 | 2 | 34.675 | 8.751 | 32.643 | 2 |
| 2025-04-24T06:39:00 | 53.903698 | 6.233895 | 2.0 | 8.586 | 2 | 34.675 | 8.752 | 32.642 | 2 |
| 2025-04-24T06:40:00 | 53.903643 | 6.233762 | 2.0 | 8.587 | 2 | 34.673 | 8.752 | 32.640 | 2 |
| 2025-04-24T06:41:00 | 53.903648 | 6.233627 | 2.0 | 8.589 | 2 | 34.671 | 8.753 | 32.637 | 2 |
| 2025-04-24T06:42:00 | 53.903672 | 6.233485 | 2.0 | 8.589 | 2 | 34.673 | 8.754 | 32.638 | 2 |
| 2025-04-24T06:43:00 | 53.903699 | 6.233317 | 2.0 | 8.590 | 2 | 34.674 | 8.755 | 32.639 | 2 |
| 2025-04-24T06:44:00 | 53.903737 | 6.233175 | 2.0 | 8.590 | 2 | 34.675 | 8.756 | 32.639 | 2 |
| 2025-04-24T06:45:00 | 53.903756 | 6.233014 | 2.0 | 8.591 | 2 | 34.676 | 8.756 | 32.640 | 2 |
| 2025-04-24T06:46:00 | 53.903796 | 6.232847 | 2.0 | 8.591 | 2 | 34.677 | 8.756 | 32.641 | 2 |
| 2025-04-24T06:47:00 | 53.903848 | 6.232703 | 2.0 | 8.592 | 2 | 34.678 | 8.757 | 32.641 | 2 |
| 2025-04-24T06:48:00 | 53.903922 | 6.232561 | 2.0 | 8.592 | 2 | 34.679 | 8.758 | 32.641 | 2 |
| 2025-04-24T06:49:00 | 53.904010 | 6.232443 | 2.0 | 8.594 | 2 | 34.680 | 8.759 | 32.641 | 2 |
| 2025-04-24T06:50:00 | 53.904045 | 6.232351 | 2.0 | 8.594 | 2 | 34.681 | 8.760 | 32.641 | 2 |
| 2025-04-24T06:51:00 | 53.904031 | 6.232247 | 2.0 | 8.594 | 2 | 34.682 | 8.761 | 32.641 | 2 |
| 2025-04-24T06:52:00 | 53.903993 | 6.232140 | 2.0 | 8.595 | 2 | 34.679 | 8.761 | 32.638 | 2 |
| 2025-04-24T06:53:00 | 53.903949 | 6.231991 | 2.0 | 8.595 | 2 | 34.677 | 8.760 | 32.637 | 2 |
| 2025-04-24T06:54:00 | 53.903940 | 6.231774 | 2.0 | 8.595 | 2 | 34.680 | 8.760 | 32.640 | 2 |
| 2025-04-24T06:55:00 | 53.903993 | 6.231561 | 2.0 | 8.596 | 2 | 34.682 | 8.761 | 32.641 | 2 |
| 2025-04-24T06:56:00 | 53.904081 | 6.231451 | 2.0 | 8.596 | 2 | 34.685 | 8.762 | 32.644 | 2 |
| 2025-04-24T06:57:00 | 53.904194 | 6.231456 | 2.0 | 8.597 | 2 | 34.686 | 8.762 | 32.645 | 2 |
| 2025-04-24T06:58:00 | 53.904311 | 6.231509 | 2.0 | 8.597 | 2 | 34.688 | 8.763 | 32.646 | 2 |
| 2025-04-24T06:59:00 | 53.904419 | 6.231575 | 2.0 | 8.597 | 2 | 34.685 | 8.763 | 32.643 | 2 |
| 2025-04-24T07:00:00 | 53.904508 | 6.231607 | 2.0 | 8.597 | 2 | 34.681 | 8.763 | 32.639 | 2 |
| 2025-04-24T07:01:00 | 53.904563 | 6.231614 | 2.0 | 8.598 | 2 | 34.683 | 8.763 | 32.641 | 2 |
| 2025-04-24T07:02:00 | 53.904593 | 6.231603 | 2.0 | 8.598 | 2 | 34.687 | 8.764 | 32.644 | 2 |
| 2025-04-24T07:03:00 | 53.904584 | 6.231561 | 2.0 | 8.599 | 2 | 34.690 | 8.765 | 32.646 | 2 |
| 2025-04-24T07:04:00 | 53.904552 | 6.231509 | 2.0 | 8.600 | 2 | 34.692 | 8.765 | 32.648 | 2 |
| 2025-04-24T07:05:00 | 53.904512 | 6.231372 | 2.0 | 8.599 | 2 | 34.694 | 8.766 | 32.649 | 2 |
| 2025-04-24T07:06:00 | 53.904484 | 6.231191 | 2.0 | 8.599 | 2 | 34.696 | 8.764 | 32.653 | 2 |
| 2025-04-24T07:07:00 | 53.904511 | 6.230960 | 2.0 | 8.599 | 2 | 34.697 | 8.764 | 32.654 | 2 |
| 2025-04-24T07:08:00 | 53.904547 | 6.230772 | 2.0 | 8.599 | 2 | 34.698 | 8.765 | 32.654 | 2 |
| 2025-04-24T07:09:00 | 53.904542 | 6.230616 | 2.0 | 8.598 | 2 | 34.699 | 8.765 | 32.655 | 2 |
| 2025-04-24T07:10:00 | 53.904525 | 6.230438 | 2.0 | 8.599 | 2 | 34.700 | 8.765 | 32.657 | 2 |
| 2025-04-24T07:11:00 | 53.904516 | 6.230241 | 2.0 | 8.599 | 2 | 34.697 | 8.766 | 32.652 | 2 |
| 2025-04-24T07:12:00 | 53.904514 | 6.230049 | 2.0 | 8.600 | 2 | 34.700 | 8.765 | 32.657 | 2 |
| 2025-04-24T07:13:00 | 53.904542 | 6.229853 | 2.0 | 8.600 | 2 | 34.702 | 8.765 | 32.659 | 2 |
| 2025-04-24T07:14:00 | 53.904576 | 6.229704 | 2.0 | 8.600 | 2 | 34.704 | 8.766 | 32.660 | 2 |
| 2025-04-24T07:15:00 | 53.904579 | 6.229601 | 2.0 | 8.600 | 2 | 34.706 | 8.766 | 32.662 | 2 |
| 2025-04-24T07:16:00 | 53.904573 | 6.229538 | 2.0 | 8.600 | 2 | 34.707 | 8.766 | 32.663 | 2 |
| 2025-04-24T07:17:00 | 53.904572 | 6.229533 | 2.0 | 8.601 | 2 | 34.707 | 8.767 | 32.662 | 2 |
| 2025-04-24T07:18:00 | 53.904590 | 6.229560 | 2.0 | 8.603 | 2 | 34.709 | 8.768 | 32.663 | 2 |
| 2025-04-24T07:19:00 | 53.904614 | 6.229608 | 2.0 | 8.605 | 2 | 34.712 | 8.769 | 32.665 | 2 |
| 2025-04-24T07:20:00 | 53.904651 | 6.229677 | 2.0 | 8.605 | 2 | 34.714 | 8.771 | 32.666 | 2 |
| 2025-04-24T07:21:00 | 53.904699 | 6.229762 | 2.0 | 8.604 | 2 | 34.715 | 8.770 | 32.668 | 2 |
| 2025-04-24T07:22:00 | 53.904756 | 6.229853 | 2.0 | 8.603 | 2 | 34.716 | 8.770 | 32.669 | 2 |
| 2025-04-24T07:23:00 | 53.904823 | 6.229945 | 2.0 | 8.603 | 2 | 34.715 | 8.769 | 32.669 | 2 |
| 2025-04-24T07:24:00 | 53.904897 | 6.230042 | 2.0 | 8.603 | 2 | 34.716 | 8.770 | 32.669 | 2 |
| 2025-04-24T07:25:00 | 53.904968 | 6.230108 | 2.0 | 8.604 | 2 | 34.710 | 8.769 | 32.663 | 2 |
| 2025-04-24T07:26:00 | 53.905058 | 6.230180 | 2.0 | 8.603 | 2 | 34.533 | 8.770 | 32.477 | 2 |
| 2025-04-24T07:27:00 | 53.905145 | 6.230230 | 2.0 | 8.603 | 2 | 34.595 | 8.769 | 32.543 | 2 |
| 2025-04-24T07:28:00 | 53.905215 | 6.230256 | 2.0 | 8.604 | 2 | 34.571 | 8.769 | 32.518 | 2 |
| 2025-04-24T07:29:00 | 53.905257 | 6.230270 | 2.0 | 8.606 | 2 | 34.568 | 8.769 | 32.515 | 2 |
| 2025-04-24T07:30:00 | 53.905284 | 6.230262 | 2.0 | 8.606 | 2 | 34.648 | 8.771 | 32.597 | 2 |
| 2025-04-24T07:31:00 | 53.905282 | 6.230258 | 2.0 | 8.607 | 2 | 34.586 | 8.772 | 32.531 | 2 |
| 2025-04-24T07:32:00 | 53.905261 | 6.230255 | 2.0 | 8.607 | 2 | 34.640 | 8.773 | 32.586 | 2 |
| 2025-04-24T07:33:00 | 53.905228 | 6.230219 | 2.0 | 8.610 | 2 | 34.672 | 8.774 | 32.619 | 2 |
| 2025-04-24T07:34:00 | 53.905177 | 6.230147 | 2.0 | 8.612 | 2 | 34.647 | 8.777 | 32.590 | 2 |
| 2025-04-24T07:35:00 | 53.905096 | 6.230061 | 2.0 | 8.615 | 2 | 34.661 | 8.779 | 32.603 | 2 |
| 2025-04-24T07:36:00 | 53.905028 | 6.229956 | 2.0 | 8.612 | 2 | 34.639 | 8.781 | 32.578 | 2 |
| 2025-04-24T07:37:00 | 53.905004 | 6.229860 | 2.0 | 8.600 | 2 | 34.674 | 8.778 | 32.617 | 2 |
| 2025-04-24T07:38:00 | 53.905009 | 6.229848 | 2.0 | 8.612 | 2 | 34.698 | 8.769 | 32.651 | 2 |
| 2025-04-24T07:39:00 | 53.905031 | 6.229912 | 2.0 | 8.612 | 2 | 34.649 | 8.778 | 32.591 | 2 |
| 2025-04-24T07:40:00 | 53.905061 | 6.229992 | 2.0 | 8.614 | 2 | 34.687 | 8.779 | 32.630 | 2 |
| 2025-04-24T07:41:00 | 53.905099 | 6.230025 | 2.0 | 8.613 | 2 | 34.667 | 8.780 | 32.608 | 2 |
| 2025-04-24T07:42:00 | 53.905136 | 6.230055 | 2.0 | 8.615 | 2 | 34.678 | 8.779 | 32.621 | 2 |
| 2025-04-24T07:43:00 | 53.905168 | 6.230059 | 2.0 | 8.614 | 2 | 34.725 | 8.781 | 32.668 | 2 |
| 2025-04-24T07:44:00 | 53.905196 | 6.230044 | 2.0 | 8.615 | 2 | 34.713 | 8.781 | 32.655 | 2 |
| 2025-04-24T07:45:00 | 53.905219 | 6.230033 | 2.0 | 8.615 | 2 | 34.702 | 8.781 | 32.644 | 2 |
| 2025-04-24T07:46:00 | 53.905238 | 6.230035 | 2.0 | 8.617 | 2 | 34.712 | 8.782 | 32.653 | 2 |
| 2025-04-24T07:47:00 | 53.905258 | 6.230027 | 2.0 | 8.618 | 2 | 34.715 | 8.783 | 32.656 | 2 |
| 2025-04-24T07:48:00 | 53.905282 | 6.230027 | 2.0 | 8.616 | 2 | 34.710 | 8.783 | 32.650 | 2 |
| 2025-04-24T07:49:00 | 53.905304 | 6.230038 | 2.0 | 8.615 | 2 | 34.720 | 8.783 | 32.661 | 2 |
| 2025-04-24T07:50:00 | 53.905294 | 6.230054 | 2.0 | 8.614 | 2 | 34.687 | 8.781 | 32.628 | 2 |
| 2025-04-24T07:51:00 | 53.905272 | 6.230039 | 2.0 | 8.615 | 2 | 34.693 | 8.780 | 32.635 | 2 |
| 2025-04-24T07:52:00 | 53.905241 | 6.229996 | 2.0 | 8.618 | 2 | 34.697 | 8.783 | 32.637 | 2 |
| 2025-04-24T07:53:00 | 53.905210 | 6.229921 | 2.0 | 8.615 | 2 | 34.658 | 8.783 | 32.596 | 2 |
| 2025-04-24T07:54:00 | 53.905186 | 6.229789 | 2.0 | 8.617 | 2 | 34.715 | 8.782 | 32.657 | 2 |
| 2025-04-24T07:55:00 | 53.905153 | 6.229644 | 2.0 | 8.619 | 2 | 34.727 | 8.792 | 32.660 | 2 |
| 2025-04-24T07:56:00 | 53.905141 | 6.229551 | 2.0 | 8.621 | 2 | 34.737 | 8.800 | 32.663 | 2 |
| 2025-04-24T07:57:00 | 53.905037 | 6.229591 | 2.0 | 8.616 | 2 | 34.726 | 8.803 | 32.649 | 2 |
| 2025-04-24T07:58:00 | 53.904885 | 6.229631 | 2.0 | 8.603 | 2 | 34.738 | 8.797 | 32.667 | 2 |
| 2025-04-24T07:59:00 | 53.904723 | 6.229736 | 2.0 | 8.614 | 2 | 34.761 | 8.793 | 32.694 | 2 |
| 2025-04-24T08:00:00 | 53.904564 | 6.229906 | 2.0 | 8.621 | 2 | 34.756 | 8.804 | 32.679 | 2 |
| 2025-04-24T08:01:00 | 53.904492 | 6.230095 | 2.0 | 8.622 | 2 | 34.753 | 8.811 | 32.669 | 2 |
| 2025-04-24T08:02:00 | 53.904524 | 6.230321 | 2.0 | 8.621 | 2 | 34.753 | 8.812 | 32.669 | 2 |
| 2025-04-24T08:03:00 | 53.904654 | 6.230581 | 2.0 | 8.620 | 2 | 34.753 | 8.812 | 32.669 | 2 |
| 2025-04-24T08:04:00 | 53.904847 | 6.230866 | 2.0 | 8.619 | 2 | 34.757 | 8.812 | 32.673 | 2 |
| 2025-04-24T08:05:00 | 53.905041 | 6.231080 | 2.0 | 8.620 | 2 | 34.759 | 8.811 | 32.676 | 2 |
| 2025-04-24T08:06:00 | 53.905191 | 6.231264 | 2.0 | 8.623 | 2 | 34.760 | 8.814 | 32.674 | 2 |
| 2025-04-24T08:07:00 | 53.905310 | 6.231398 | 2.0 | 8.620 | 2 | 34.755 | 8.815 | 32.668 | 2 |
| 2025-04-24T08:08:00 | 53.905418 | 6.231490 | 2.0 | 8.622 | 2 | 34.753 | 8.813 | 32.668 | 2 |
| 2025-04-24T08:09:00 | 53.905529 | 6.231555 | 2.0 | 8.623 | 2 | 34.752 | 8.814 | 32.666 | 2 |
| 2025-04-24T08:10:00 | 53.905930 | 6.231842 | 2.0 | 8.619 | 2 | 34.753 | 8.815 | 32.666 | 2 |
| 2025-04-24T08:11:00 | 53.907002 | 6.232413 | 2.0 | 8.613 | 2 | 34.751 | 8.811 | 32.667 | 2 |
| 2025-04-24T08:12:00 | 53.908601 | 6.233159 | 2.0 | 8.608 | 2 | 34.746 | 8.808 | 32.665 | 2 |
| 2025-04-24T08:13:00 | 53.910026 | 6.234044 | 2.0 | 8.609 | 2 | 34.743 | 8.805 | 32.665 | 2 |
| 2025-04-24T08:14:00 | 53.910785 | 6.235095 | 2.0 | 8.602 | 2 | 34.643 | 8.799 | 32.566 | 2 |
| 2025-04-24T08:15:00 | 53.910980 | 6.235866 | 2.0 | 8.608 | 2 | 34.736 | 8.798 | 32.664 | 2 |
| 2025-04-24T08:16:00 | 53.910885 | 6.235887 | 2.0 | 8.608 | 2 | 34.738 | 8.803 | 32.661 | 2 |
| 2025-04-24T08:17:00 | 53.910837 | 6.235807 | 2.0 | 8.607 | 2 | 34.739 | 8.805 | 32.660 | 2 |
| 2025-04-24T08:18:00 | 53.910894 | 6.236442 | 2.0 | 8.606 | 2 | 34.741 | 8.802 | 32.665 | 2 |
| 2025-04-24T08:19:00 | 53.910988 | 6.236812 | 2.0 | 8.610 | 2 | 34.739 | 8.805 | 32.660 | 2 |
| 2025-04-24T08:20:00 | 53.911002 | 6.237224 | 2.0 | 8.608 | 2 | 34.703 | 8.808 | 32.620 | 2 |
| 2025-04-24T08:21:00 | 53.910754 | 6.238147 | 2.0 | 8.610 | 2 | 34.738 | 8.807 | 32.658 | 2 |
| 2025-04-24T08:22:00 | 53.909718 | 6.237950 | 2.0 | 8.610 | 2 | 34.734 | 8.809 | 32.651 | 2 |
| 2025-04-24T08:23:00 | 53.909205 | 6.235733 | 2.0 | 8.613 | 2 | 34.735 | 8.812 | 32.650 | 2 |
| 2025-04-24T08:24:00 | 53.909797 | 6.233900 | 2.0 | 8.611 | 2 | 34.741 | 8.814 | 32.654 | 2 |
| 2025-04-24T08:25:00 | 53.910520 | 6.233640 | 2.0 | 8.607 | 2 | 34.517 | 8.811 | 32.423 | 2 |
| 2025-04-24T08:26:00 | 53.910684 | 6.234059 | 2.0 | 8.614 | 2 | 34.746 | 8.809 | 32.664 | 2 |
| 2025-04-24T08:27:00 | 53.910722 | 6.234807 | 2.0 | 8.608 | 2 | 34.709 | 8.814 | 32.621 | 2 |
| 2025-04-24T08:28:00 | 53.910794 | 6.235664 | 2.0 | 8.591 | 2 | 34.748 | 8.805 | 32.670 | 2 |
| 2025-04-24T08:29:00 | 53.910838 | 6.236101 | 2.0 | 8.618 | 2 | 34.726 | 8.798 | 32.653 | 2 |
| 2025-04-24T08:30:00 | 53.910791 | 6.236334 | 2.0 | 8.618 | 2 | 34.748 | 8.818 | 32.658 | 2 |
| 2025-04-24T08:31:00 | 53.910736 | 6.236558 | 2.0 | 8.618 | 2 | 34.615 | 8.819 | 32.518 | 2 |
| 2025-04-24T08:32:00 | 53.910672 | 6.236914 | 2.0 | 8.617 | 2 | 34.447 | 8.820 | 32.342 | 2 |
| 2025-04-24T08:33:00 | 53.910521 | 6.237386 | 2.0 | 8.607 | 2 | 34.738 | 8.817 | 32.648 | 2 |
| 2025-04-24T08:34:00 | 53.910425 | 6.237253 | 2.0 | 8.612 | 2 | 34.553 | 8.808 | 32.464 | 2 |
| 2025-04-24T08:35:00 | 53.910287 | 6.237337 | 2.0 | 8.623 | 2 | 34.432 | 8.820 | 32.326 | 2 |
| 2025-04-24T08:36:00 | 53.910213 | 6.237758 | 2.0 | 8.622 | 2 | 34.744 | 8.827 | 32.645 | 2 |
| 2025-04-24T08:37:00 | 53.910514 | 6.238536 | 2.0 | 8.616 | 2 | 34.751 | 8.828 | 32.652 | 2 |
| 2025-04-24T08:38:00 | 53.911058 | 6.239634 | 2.0 | 8.618 | 2 | 34.747 | 8.822 | 32.653 | 2 |
| 2025-04-24T08:39:00 | 53.911650 | 6.241011 | 2.0 | 8.610 | 2 | 34.629 | 8.821 | 32.531 | 2 |
| 2025-04-24T08:40:00 | 53.911270 | 6.242255 | 2.0 | 8.612 | 2 | 34.745 | 8.818 | 32.655 | 2 |
| 2025-04-24T08:41:00 | 53.910299 | 6.243002 | 2.0 | 8.614 | 2 | 34.652 | 8.820 | 32.556 | 2 |
| 2025-04-24T08:42:00 | 53.909140 | 6.243875 | 2.0 | 8.610 | 2 | 34.564 | 8.820 | 32.464 | 2 |
| 2025-04-24T08:43:00 | 53.907677 | 6.245050 | 2.0 | 8.615 | 2 | 34.732 | 8.820 | 32.639 | 2 |
| 2025-04-24T08:44:00 | 53.905490 | 6.246922 | 2.0 | 8.616 | 2 | 34.534 | 8.815 | 32.437 | 2 |
| 2025-04-24T08:45:00 | 53.902979 | 6.249040 | 2.0 | 8.615 | 2 | 34.503 | 8.811 | 32.409 | 2 |
| 2025-04-24T08:46:00 | 53.900446 | 6.251410 | 2.0 | 8.610 | 2 | 34.484 | 8.807 | 32.392 | 2 |
| 2025-04-24T08:47:00 | 53.897867 | 6.253740 | 2.0 | 8.603 | 2 | 34.640 | 8.798 | 32.563 | 2 |
| 2025-04-24T08:48:00 | 53.895279 | 6.256092 | 2.0 | 8.595 | 2 | 34.593 | 8.789 | 32.523 | 2 |
| 2025-04-24T08:49:00 | 53.892675 | 6.258425 | 2.0 | 8.592 | 2 | 34.470 | 8.779 | 32.403 | 2 |
| 2025-04-24T08:50:00 | 53.890092 | 6.260766 | 2.0 | 8.622 | 2 | 34.611 | 8.777 | 32.553 | 2 |
| 2025-04-24T08:51:00 | 53.887506 | 6.263115 | 2.0 | 8.644 | 2 | 34.677 | 8.810 | 32.591 | 2 |
| 2025-04-24T08:52:00 | 53.884908 | 6.265445 | 2.0 | 8.614 | 2 | 34.714 | 8.817 | 32.623 | 2 |
| 2025-04-24T08:53:00 | 53.882322 | 6.267774 | 2.0 | 8.628 | 2 | 34.551 | 8.799 | 32.470 | 2 |
| 2025-04-24T08:54:00 | 53.879734 | 6.270093 | 2.0 | 8.639 | 2 | 34.584 | 8.812 | 32.492 | 2 |
| 2025-04-24T08:55:00 | 53.877147 | 6.272436 | 2.0 | 8.650 | 2 | 34.631 | 8.822 | 32.532 | 2 |
| 2025-04-24T08:56:00 | 53.874541 | 6.274747 | 2.0 | 8.664 | 2 | 34.591 | 8.834 | 32.479 | 2 |
| 2025-04-24T08:57:00 | 53.871954 | 6.277120 | 2.0 | 8.678 | 2 | 34.657 | 8.844 | 32.539 | 2 |
| 2025-04-24T08:58:00 | 53.869354 | 6.279437 | 2.0 | 8.677 | 2 | 34.608 | 8.854 | 32.479 | 2 |
| 2025-04-24T08:59:00 | 53.866760 | 6.281768 | 2.0 | 8.683 | 2 | 34.641 | 8.859 | 32.509 | 2 |
| 2025-04-24T09:00:00 | 53.864178 | 6.284135 | 2.0 | 8.687 | 2 | 34.643 | 8.855 | 32.514 | 2 |
| 2025-04-24T09:01:00 | 53.861565 | 6.286382 | 2.0 | 8.749 | 2 | 34.582 | 8.887 | 32.421 | 2 |
| 2025-04-24T09:02:00 | 53.858980 | 6.288706 | 2.0 | 8.753 | 2 | 34.629 | 8.916 | 32.444 | 2 |
| 2025-04-24T09:03:00 | 53.856388 | 6.291023 | 2.0 | 8.765 | 2 | 34.688 | 8.935 | 32.488 | 2 |
| 2025-04-24T09:04:00 | 53.853804 | 6.293349 | 2.0 | 8.721 | 2 | 34.710 | 8.936 | 32.510 | 2 |
| 2025-04-24T09:05:00 | 53.851256 | 6.295728 | 2.0 | 8.643 | 2 | 34.646 | 8.883 | 32.492 | 2 |
| 2025-04-24T09:06:00 | 53.848650 | 6.298009 | 2.0 | 8.640 | 2 | 34.597 | 8.826 | 32.493 | 2 |
| 2025-04-24T09:07:00 | 53.846080 | 6.300369 | 2.0 | 8.669 | 2 | 34.599 | 8.828 | 32.493 | 2 |
| 2025-04-24T09:08:00 | 53.843511 | 6.302631 | 2.0 | 8.670 | 2 | 34.612 | 8.846 | 32.490 | 2 |
| 2025-04-24T09:09:00 | 53.840989 | 6.304880 | 2.0 | 8.669 | 2 | 34.622 | 8.848 | 32.499 | 2 |
| 2025-04-24T09:10:00 | 53.838490 | 6.307156 | 2.0 | 8.660 | 2 | 34.615 | 8.845 | 32.494 | 2 |
| 2025-04-24T09:11:00 | 53.835957 | 6.309366 | 2.0 | 8.659 | 2 | 34.639 | 8.838 | 32.526 | 2 |
| 2025-04-24T09:12:00 | 53.833447 | 6.311635 | 2.0 | 8.662 | 2 | 34.647 | 8.838 | 32.534 | 2 |
| 2025-04-24T09:13:00 | 53.830935 | 6.313890 | 2.0 | 8.662 | 2 | 34.670 | 8.839 | 32.557 | 2 |
| 2025-04-24T09:14:00 | 53.828412 | 6.316122 | 2.0 | 8.668 | 2 | 34.645 | 8.839 | 32.531 | 2 |
| 2025-04-24T09:15:00 | 53.825915 | 6.318423 | 2.0 | 8.673 | 2 | 34.624 | 8.845 | 32.504 | 2 |
| 2025-04-24T09:16:00 | 53.823393 | 6.320677 | 2.0 | 8.688 | 2 | 34.647 | 8.853 | 32.520 | 2 |
| 2025-04-24T09:17:00 | 53.820874 | 6.322905 | 2.0 | 8.680 | 2 | 34.665 | 8.866 | 32.527 | 2 |
| 2025-04-24T09:18:00 | 53.818344 | 6.325140 | 2.0 | 8.676 | 2 | 34.674 | 8.856 | 32.546 | 2 |
| 2025-04-24T09:19:00 | 53.815813 | 6.327367 | 2.0 | 8.669 | 2 | 34.676 | 8.851 | 32.552 | 2 |
| 2025-04-24T09:20:00 | 53.813330 | 6.329639 | 2.0 | 8.671 | 2 | 34.715 | 8.841 | 32.602 | 2 |
| 2025-04-24T09:21:00 | 53.810841 | 6.331882 | 2.0 | 8.706 | 2 | 34.715 | 8.855 | 32.589 | 2 |
| 2025-04-24T09:22:00 | 53.808365 | 6.334091 | 2.0 | 8.711 | 2 | 34.716 | 8.876 | 32.571 | 2 |
| 2025-04-24T09:23:00 | 53.805885 | 6.336299 | 2.0 | 8.722 | 2 | 34.718 | 8.887 | 32.563 | 2 |
| 2025-04-24T09:24:00 | 53.803389 | 6.338406 | 2.0 | 8.738 | 2 | 34.732 | 8.898 | 32.568 | 2 |
| 2025-04-24T09:25:00 | 53.800647 | 6.339511 | 2.0 | 8.759 | 2 | 34.747 | 8.916 | 32.567 | 2 |
| 2025-04-24T09:26:00 | 53.797928 | 6.340732 | 2.0 | 8.767 | 2 | 34.750 | 8.932 | 32.555 | 2 |
| 2025-04-24T09:27:00 | 53.795219 | 6.342022 | 2.0 | 8.765 | 2 | 34.756 | 8.941 | 32.553 | 2 |
| 2025-04-24T09:28:00 | 53.792488 | 6.343283 | 2.0 | 8.808 | 2 | 34.735 | 8.947 | 32.526 | 2 |
| 2025-04-24T09:29:00 | 53.789745 | 6.344465 | 2.0 | 8.804 | 2 | 34.711 | 8.973 | 32.477 | 2 |
| 2025-04-24T09:30:00 | 53.786989 | 6.345689 | 2.0 | 8.829 | 2 | 34.690 | 8.983 | 32.446 | 2 |
| 2025-04-24T09:31:00 | 53.784218 | 6.346961 | 2.0 | 8.856 | 2 | 34.672 | 9.004 | 32.408 | 2 |
| 2025-04-24T09:32:00 | 53.781445 | 6.348228 | 2.0 | 8.850 | 2 | 34.662 | 9.025 | 32.379 | 2 |
| 2025-04-24T09:33:00 | 53.778668 | 6.349475 | 2.0 | 8.816 | 2 | 34.680 | 9.019 | 32.403 | 2 |
| 2025-04-24T09:34:00 | 53.775911 | 6.350571 | 2.0 | 8.825 | 2 | 34.734 | 8.989 | 32.486 | 2 |
| 2025-04-24T09:35:00 | 53.773201 | 6.351723 | 2.0 | 8.836 | 2 | 34.735 | 9.000 | 32.477 | 2 |
| 2025-04-24T09:36:00 | 53.770469 | 6.352797 | 2.0 | 8.866 | 2 | 34.729 | 9.012 | 32.460 | 2 |
| 2025-04-24T09:37:00 | 53.767709 | 6.353712 | 2.0 | 8.880 | 2 | 34.719 | 9.045 | 32.420 | 2 |
| 2025-04-24T09:38:00 | 53.764933 | 6.354624 | 2.0 | 8.894 | 2 | 34.702 | 9.056 | 32.392 | 2 |
| 2025-04-24T09:39:00 | 53.762157 | 6.355511 | 2.0 | 8.896 | 2 | 34.705 | 9.066 | 32.386 | 2 |
| 2025-04-24T09:40:00 | 53.759373 | 6.356392 | 2.0 | 8.900 | 2 | 34.704 | 9.069 | 32.382 | 2 |
| 2025-04-24T09:41:00 | 53.756605 | 6.357316 | 2.0 | 8.904 | 2 | 34.684 | 9.075 | 32.356 | 2 |
| 2025-04-24T09:42:00 | 53.753834 | 6.358221 | 2.0 | 8.877 | 2 | 34.657 | 9.071 | 32.332 | 2 |
| 2025-04-24T09:43:00 | 53.751054 | 6.359156 | 2.0 | 8.872 | 2 | 34.531 | 9.050 | 32.220 | 2 |
| 2025-04-24T09:44:00 | 53.748361 | 6.360458 | 2.0 | 8.894 | 2 | 34.566 | 9.048 | 32.258 | 2 |
| 2025-04-24T09:45:00 | 53.745656 | 6.361778 | 2.0 | 8.912 | 2 | 34.604 | 9.070 | 32.278 | 2 |
| 2025-04-24T09:46:00 | 53.742945 | 6.363095 | 2.0 | 8.906 | 2 | 34.561 | 9.079 | 32.225 | 2 |
| 2025-04-24T09:47:00 | 53.740231 | 6.364393 | 2.0 | 8.936 | 2 | 34.571 | 9.083 | 32.232 | 2 |
| 2025-04-24T09:48:00 | 53.737522 | 6.365698 | 2.0 | 8.958 | 2 | 34.610 | 9.108 | 32.250 | 2 |
| 2025-04-24T09:49:00 | 53.734823 | 6.367021 | 2.0 | 8.991 | 2 | 34.558 | 9.135 | 32.171 | 2 |
| 2025-04-24T09:50:00 | 53.732110 | 6.368308 | 2.0 | 9.000 | 2 | 34.562 | 9.163 | 32.150 | 2 |
| 2025-04-24T09:51:00 | 53.729410 | 6.369567 | 2.0 | 9.026 | 2 | 34.599 | 9.178 | 32.175 | 2 |
| 2025-04-24T09:52:00 | 53.727136 | 6.370901 | 2.0 | 9.024 | 2 | 34.566 | 9.197 | 32.124 | 2 |
| 2025-04-24T09:53:00 | 53.725546 | 6.372755 | 2.0 | 9.019 | 2 | 34.579 | 9.192 | 32.142 | 2 |
| 2025-04-24T09:54:00 | 53.724128 | 6.374619 | 2.0 | 9.013 | 2 | 34.562 | 9.188 | 32.128 | 2 |
| 2025-04-24T09:55:00 | 53.722646 | 6.376494 | 2.0 | 9.009 | 2 | 34.552 | 9.180 | 32.125 | 2 |
| 2025-04-24T09:56:00 | 53.722014 | 6.379006 | 2.0 | 9.114 | 2 | 34.561 | 9.195 | 32.120 | 2 |
| 2025-04-24T09:57:00 | 53.722259 | 6.381916 | 2.0 | 9.152 | 2 | 34.566 | 9.285 | 32.045 | 2 |
| 2025-04-24T09:58:00 | 53.722414 | 6.385605 | 2.0 | 9.153 | 2 | 34.584 | 9.319 | 32.033 | 2 |
| 2025-04-24T09:59:00 | 53.722584 | 6.389838 | 2.0 | 9.159 | 2 | 34.558 | 9.322 | 32.003 | 2 |
| 2025-04-24T10:00:00 | 53.722882 | 6.394069 | 2.0 | 9.166 | 2 | 34.577 | 9.329 | 32.017 | 2 |
| 2025-04-24T10:01:00 | 53.723145 | 6.398269 | 2.0 | 9.173 | 2 | 34.576 | 9.335 | 32.010 | 2 |
| 2025-04-24T10:02:00 | 53.723397 | 6.402484 | 2.0 | 9.194 | 2 | 34.561 | 9.344 | 31.987 | 2 |
| 2025-04-24T10:03:00 | 53.723655 | 6.406721 | 2.0 | 9.197 | 2 | 34.550 | 9.362 | 31.959 | 2 |
| 2025-04-24T10:04:00 | 53.723918 | 6.410965 | 2.0 | 9.206 | 2 | 34.543 | 9.368 | 31.947 | 2 |
| 2025-04-24T10:05:00 | 53.724189 | 6.415189 | 2.0 | 9.177 | 2 | 34.541 | 9.372 | 31.941 | 2 |
| 2025-04-24T10:06:00 | 53.724434 | 6.419439 | 2.0 | 9.148 | 2 | 34.534 | 9.333 | 31.969 | 2 |
| 2025-04-24T10:07:00 | 53.724679 | 6.423675 | 2.0 | 9.102 | 2 | 34.531 | 9.320 | 31.977 | 2 |
| 2025-04-24T10:08:00 | 53.724850 | 6.427933 | 2.0 | 9.080 | 2 | 34.536 | 9.277 | 32.021 | 2 |
| 2025-04-24T10:09:00 | 53.725058 | 6.432227 | 2.0 | 9.082 | 2 | 34.539 | 9.242 | 32.055 | 2 |
| 2025-04-24T10:10:00 | 53.725222 | 6.436534 | 2.0 | 9.127 | 2 | 34.539 | 9.263 | 32.037 | 2 |
| 2025-04-24T10:11:00 | 53.725386 | 6.440895 | 2.0 | 9.171 | 2 | 34.529 | 9.304 | 31.990 | 2 |
| 2025-04-24T10:12:00 | 53.725590 | 6.445264 | 2.0 | 9.209 | 2 | 34.521 | 9.345 | 31.945 | 2 |
| 2025-04-24T10:13:00 | 53.725763 | 6.449629 | 2.0 | 9.220 | 2 | 34.513 | 9.376 | 31.909 | 2 |
| 2025-04-24T10:14:00 | 53.725935 | 6.454016 | 2.0 | 9.193 | 2 | 34.519 | 9.380 | 31.911 | 2 |
| 2025-04-24T10:15:00 | 53.726141 | 6.458397 | 2.0 | 9.173 | 2 | 34.530 | 9.355 | 31.945 | 2 |
| 2025-04-24T10:16:00 | 53.726347 | 6.462775 | 2.0 | 9.161 | 2 | 34.539 | 9.341 | 31.967 | 2 |
| 2025-04-24T10:17:00 | 53.726507 | 6.467143 | 2.0 | 9.125 | 2 | 34.541 | 9.327 | 31.981 | 2 |
| 2025-04-24T10:18:00 | 53.726669 | 6.471488 | 2.0 | 9.184 | 2 | 34.553 | 9.299 | 32.019 | 2 |
| 2025-04-24T10:19:00 | 53.727101 | 6.475709 | 2.0 | 9.282 | 2 | 34.545 | 9.376 | 31.942 | 2 |
| 2025-04-24T10:20:00 | 53.727591 | 6.479902 | 2.0 | 9.425 | 2 | 34.519 | 9.470 | 31.831 | 2 |
| 2025-04-24T10:21:00 | 53.728039 | 6.484081 | 2.0 | 9.475 | 2 | 34.475 | 9.593 | 31.677 | 2 |
| 2025-04-24T10:22:00 | 53.728470 | 6.488256 | 2.0 | 9.503 | 2 | 34.441 | 9.642 | 31.600 | 2 |
| 2025-04-24T10:23:00 | 53.729087 | 6.491835 | 2.0 | 9.514 | 2 | 34.418 | 9.668 | 31.553 | 2 |
| 2025-04-24T10:24:00 | 53.729573 | 6.494331 | 2.0 | 9.507 | 2 | 34.408 | 9.676 | 31.536 | 2 |
| 2025-04-24T10:25:00 | 53.729895 | 6.496170 | 2.0 | 9.494 | 2 | 34.409 | 9.669 | 31.543 | 2 |
| 2025-04-24T10:26:00 | 53.730085 | 6.498076 | 2.0 | 9.477 | 2 | 34.412 | 9.657 | 31.557 | 2 |
| 2025-04-24T10:27:00 | 53.730486 | 6.500105 | 2.0 | 9.471 | 2 | 34.411 | 9.642 | 31.569 | 2 |
| 2025-04-24T10:28:00 | 53.731120 | 6.502131 | 2.0 | 9.469 | 2 | 34.418 | 9.638 | 31.580 | 2 |
| 2025-04-24T10:29:00 | 53.731743 | 6.504185 | 2.0 | 9.463 | 2 | 34.423 | 9.635 | 31.587 | 2 |
| 2025-04-24T10:30:00 | 53.732293 | 6.505637 | 2.0 | 9.454 | 2 | 34.422 | 9.627 | 31.593 | 2 |
| 2025-04-24T10:31:00 | 53.732737 | 6.506588 | 2.0 | 9.457 | 2 | 34.420 | 9.621 | 31.597 | 2 |
| 2025-04-24T10:32:00 | 53.732990 | 6.507289 | 2.0 | 9.467 | 2 | 34.420 | 9.626 | 31.592 | 2 |
| 2025-04-24T10:33:00 | 53.733127 | 6.507758 | 2.0 | 9.476 | 2 | 34.420 | 9.643 | 31.577 | 2 |
| 2025-04-24T10:34:00 | 53.733182 | 6.508049 | 2.0 | 9.478 | 2 | 34.414 | 9.656 | 31.560 | 2 |
| 2025-04-24T10:35:00 | 53.733239 | 6.508257 | 2.0 | 9.478 | 2 | 34.410 | 9.659 | 31.553 | 2 |
| 2025-04-24T10:36:00 | 53.733452 | 6.508910 | 2.0 | 9.479 | 2 | 34.407 | 9.663 | 31.547 | 2 |
| 2025-04-24T10:37:00 | 53.733663 | 6.509509 | 2.0 | 9.508 | 2 | 34.401 | 9.671 | 31.533 | 2 |
| 2025-04-24T10:38:00 | 53.733806 | 6.509866 | 2.0 | 9.508 | 2 | 34.392 | 9.693 | 31.505 | 2 |
| 2025-04-24T10:39:00 | 53.734001 | 6.510430 | 2.0 | 9.511 | 2 | 34.383 | 9.696 | 31.493 | 2 |
| 2025-04-24T10:40:00 | 53.734241 | 6.511117 | 2.0 | 9.516 | 2 | 34.376 | 9.702 | 31.481 | 2 |
| 2025-04-24T10:41:00 | 53.734394 | 6.511576 | 2.0 | 9.521 | 2 | 34.370 | 9.707 | 31.470 | 2 |
| 2025-04-24T10:42:00 | 53.734440 | 6.511786 | 2.0 | 9.520 | 2 | 34.367 | 9.710 | 31.465 | 2 |
| 2025-04-24T10:43:00 | 53.734517 | 6.511977 | 2.0 | 9.522 | 2 | 34.366 | 9.711 | 31.463 | 2 |
| 2025-04-24T10:44:00 | 53.734607 | 6.512167 | 2.0 | 9.530 | 2 | 34.365 | 9.712 | 31.461 | 2 |
| 2025-04-24T10:45:00 | 53.734660 | 6.512199 | 2.0 | 9.530 | 2 | 34.364 | 9.719 | 31.454 | 2 |
| 2025-04-24T10:46:00 | 53.734730 | 6.512092 | 2.0 | 9.534 | 2 | 34.362 | 9.722 | 31.449 | 2 |
| 2025-04-24T10:47:00 | 53.734862 | 6.512150 | 2.0 | 9.533 | 2 | 34.362 | 9.724 | 31.447 | 2 |
| 2025-04-24T10:48:00 | 53.734998 | 6.512636 | 2.0 | 9.536 | 2 | 34.360 | 9.725 | 31.444 | 2 |
| 2025-04-24T10:49:00 | 53.735188 | 6.512806 | 2.0 | 9.537 | 2 | 34.358 | 9.731 | 31.437 | 2 |
| 2025-04-24T10:50:00 | 53.735433 | 6.512569 | 2.0 | 9.547 | 2 | 34.357 | 9.734 | 31.434 | 2 |
| 2025-04-24T10:51:00 | 53.735527 | 6.512533 | 2.0 | 9.548 | 2 | 34.355 | 9.738 | 31.428 | 2 |
| 2025-04-24T10:52:00 | 53.735655 | 6.512481 | 2.0 | 9.555 | 2 | 34.354 | 9.743 | 31.423 | 2 |
| 2025-04-24T10:53:00 | 53.736059 | 6.512547 | 2.0 | 9.555 | 2 | 34.354 | 9.748 | 31.418 | 2 |
| 2025-04-24T10:54:00 | 53.736752 | 6.512382 | 2.0 | 9.557 | 2 | 34.353 | 9.750 | 31.416 | 2 |
| 2025-04-24T10:55:00 | 53.737145 | 6.512217 | 2.0 | 9.561 | 2 | 34.353 | 9.754 | 31.412 | 2 |
| 2025-04-24T10:56:00 | 53.737124 | 6.512123 | 2.0 | 9.560 | 2 | 34.354 | 9.759 | 31.409 | 2 |
| 2025-04-24T10:57:00 | 53.737093 | 6.512120 | 2.0 | 9.559 | 2 | 34.335 | 9.758 | 31.390 | 2 |
| 2025-04-24T10:58:00 | 53.737109 | 6.512173 | 2.0 | 9.560 | 2 | 34.352 | 9.756 | 31.409 | 2 |
| 2025-04-24T10:59:00 | 53.737214 | 6.512087 | 2.0 | 9.555 | 2 | 34.352 | 9.758 | 31.408 | 2 |
| 2025-04-24T11:00:00 | 53.737360 | 6.511886 | 2.0 | 9.563 | 2 | 34.349 | 9.755 | 31.407 | 2 |
| 2025-04-24T11:01:00 | 53.737421 | 6.511951 | 2.0 | 9.568 | 2 | 34.351 | 9.762 | 31.403 | 2 |
| 2025-04-24T11:02:00 | 53.737519 | 6.512124 | 2.0 | 9.561 | 2 | 34.349 | 9.763 | 31.400 | 2 |
| 2025-04-24T11:03:00 | 53.737669 | 6.512123 | 2.0 | 9.568 | 2 | 34.344 | 9.761 | 31.397 | 2 |
| 2025-04-24T11:04:00 | 53.737190 | 6.512900 | 2.0 | 9.570 | 2 | 34.345 | 9.768 | 31.392 | 2 |
| 2025-04-24T11:05:00 | 53.736249 | 6.514420 | 2.0 | 9.569 | 2 | 34.347 | 9.771 | 31.391 | 2 |
| 2025-04-24T11:06:00 | 53.735033 | 6.514803 | 2.0 | 9.566 | 2 | 34.350 | 9.768 | 31.397 | 2 |
| 2025-04-24T11:07:00 | 53.734191 | 6.513277 | 2.0 | 9.565 | 2 | 34.325 | 9.767 | 31.372 | 2 |
| 2025-04-24T11:08:00 | 53.733518 | 6.511208 | 2.0 | 9.564 | 2 | 34.355 | 9.766 | 31.404 | 2 |
| 2025-04-24T11:09:00 | 53.733197 | 6.508608 | 2.0 | 9.565 | 2 | 34.360 | 9.765 | 31.410 | 2 |
| 2025-04-24T11:10:00 | 53.733006 | 6.505527 | 2.0 | 9.568 | 2 | 34.242 | 9.768 | 31.287 | 2 |
| 2025-04-24T11:11:00 | 53.732746 | 6.502205 | 2.0 | 9.574 | 2 | 34.331 | 9.772 | 31.374 | 2 |
| 2025-04-24T11:12:00 | 53.732522 | 6.499191 | 2.0 | 9.566 | 2 | 34.339 | 9.774 | 31.380 | 2 |
| 2025-04-24T11:13:00 | 53.732376 | 6.496506 | 2.0 | 9.562 | 2 | 34.379 | 9.768 | 31.426 | 2 |
| 2025-04-24T11:14:00 | 53.732280 | 6.494019 | 2.0 | 9.554 | 2 | 34.334 | 9.760 | 31.388 | 2 |
| 2025-04-24T11:15:00 | 53.732281 | 6.491841 | 2.0 | 9.552 | 2 | 34.273 | 9.754 | 31.331 | 2 |
| 2025-04-24T11:16:00 | 53.732497 | 6.490654 | 2.0 | 9.551 | 2 | 34.371 | 9.752 | 31.432 | 2 |
| 2025-04-24T11:17:00 | 53.732628 | 6.489955 | 2.0 | 9.559 | 2 | 34.352 | 9.751 | 31.414 | 2 |
| 2025-04-24T11:18:00 | 53.732681 | 6.489891 | 2.0 | 9.566 | 2 | 34.290 | 9.760 | 31.343 | 2 |
| 2025-04-24T11:19:00 | 53.732709 | 6.489950 | 2.0 | 9.563 | 2 | 34.346 | 9.765 | 31.395 | 2 |
| 2025-04-24T11:20:00 | 53.732816 | 6.489988 | 2.0 | 9.572 | 2 | 34.396 | 9.766 | 31.445 | 2 |
| 2025-04-24T11:21:00 | 53.732835 | 6.489560 | 2.0 | 9.580 | 2 | 34.352 | 9.774 | 31.394 | 2 |
| 2025-04-24T11:22:00 | 53.732788 | 6.489135 | 2.0 | 9.578 | 2 | 34.381 | 9.778 | 31.420 | 2 |
| 2025-04-24T11:23:00 | 53.732778 | 6.488583 | 2.0 | 9.573 | 2 | 34.341 | 9.778 | 31.379 | 2 |
| 2025-04-24T11:24:00 | 53.732801 | 6.487666 | 2.0 | 9.536 | 2 | 34.170 | 9.773 | 31.210 | 2 |
| 2025-04-24T11:25:00 | 53.732891 | 6.486341 | 2.0 | 9.535 | 2 | 34.276 | 9.725 | 31.359 | 2 |
| 2025-04-24T11:26:00 | 53.733383 | 6.484531 | 2.0 | 9.564 | 2 | 34.400 | 9.749 | 31.464 | 2 |
| 2025-04-24T11:27:00 | 53.733931 | 6.482500 | 2.0 | 9.568 | 2 | 34.404 | 9.772 | 31.448 | 2 |
| 2025-04-24T11:28:00 | 53.734372 | 6.480068 | 2.0 | 9.571 | 2 | 34.361 | 9.777 | 31.400 | 2 |
| 2025-04-24T11:29:00 | 53.734803 | 6.477829 | 2.0 | 9.562 | 2 | 34.417 | 9.773 | 31.460 | 2 |
| 2025-04-24T11:30:00 | 53.735193 | 6.476741 | 2.0 | 9.552 | 2 | 34.313 | 9.759 | 31.367 | 2 |
| 2025-04-24T11:31:00 | 53.735258 | 6.476154 | 2.0 | 9.571 | 2 | 34.312 | 9.759 | 31.366 | 2 |
| 2025-04-24T11:32:00 | 53.735147 | 6.475920 | 2.0 | 9.582 | 2 | 34.414 | 9.778 | 31.453 | 2 |
| 2025-04-24T11:33:00 | 53.735148 | 6.475871 | 2.0 | 9.582 | 2 | 34.266 | 9.786 | 31.296 | 2 |
| 2025-04-24T11:34:00 | 53.735203 | 6.475834 | 2.0 | 9.577 | 2 | 34.438 | 9.788 | 31.469 | 2 |
| 2025-04-24T11:35:00 | 53.735273 | 6.475780 | 2.0 | 9.585 | 2 | 34.397 | 9.783 | 31.431 | 2 |
| 2025-04-24T11:36:00 | 53.735261 | 6.475358 | 2.0 | 9.330 | 2 | 34.378 | 9.758 | 31.434 | 2 |
| 2025-04-24T11:37:00 | 53.735278 | 6.474566 | 2.0 | 9.404 | 2 | 34.411 | 9.535 | 31.663 | 2 |
| 2025-04-24T11:38:00 | 53.735164 | 6.473632 | 2.0 | 9.448 | 2 | 34.411 | 9.627 | 31.582 | 2 |
| 2025-04-24T11:39:00 | 53.734779 | 6.472843 | 2.0 | 9.507 | 2 | 34.283 | 9.670 | 31.414 | 2 |
| 2025-04-24T11:40:00 | 53.734426 | 6.472111 | 2.0 | 9.553 | 2 | 34.427 | 9.724 | 31.513 | 2 |
| 2025-04-24T11:41:00 | 53.734177 | 6.471304 | 2.0 | 9.569 | 2 | 34.353 | 9.767 | 31.401 | 2 |
| 2025-04-24T11:42:00 | 53.734189 | 6.470113 | 2.0 | 9.576 | 2 | 34.321 | 9.776 | 31.360 | 2 |
| 2025-04-24T11:43:00 | 53.734377 | 6.469365 | 2.0 | 9.504 | 2 | 34.348 | 9.773 | 31.390 | 2 |
| 2025-04-24T11:44:00 | 53.734390 | 6.469278 | 2.0 | 9.587 | 2 | 34.373 | 9.709 | 31.472 | 2 |
| 2025-04-24T11:45:00 | 53.734405 | 6.468994 | 2.0 | 9.476 | 2 | 34.356 | 9.782 | 31.391 | 2 |
| 2025-04-24T11:46:00 | 53.734431 | 6.468501 | 2.0 | 9.536 | 2 | 34.383 | 9.657 | 31.527 | 2 |
| 2025-04-24T11:47:00 | 53.734504 | 6.467835 | 2.0 | 9.583 | 2 | 34.358 | 9.756 | 31.415 | 2 |
| 2025-04-24T11:48:00 | 53.734546 | 6.466910 | 2.0 | 9.499 | 2 | 34.389 | 9.783 | 31.423 | 2 |
| 2025-04-24T11:49:00 | 53.734620 | 6.465781 | 2.0 | 9.438 | 2 | 34.413 | 9.704 | 31.517 | 2 |
| 2025-04-24T11:50:00 | 53.734815 | 6.464920 | 2.0 | 9.470 | 2 | 34.390 | 9.654 | 31.537 | 2 |
| 2025-04-24T11:51:00 | 53.734654 | 6.464701 | 2.0 | 9.101 | 2 | 34.422 | 9.630 | 31.591 | 2 |
| 2025-04-24T11:52:00 | 53.734133 | 6.464882 | 2.0 | 9.378 | 2 | 34.470 | 9.381 | 31.860 | 2 |
| 2025-04-24T11:53:00 | 53.733025 | 6.464579 | 2.0 | 9.604 | 2 | 34.379 | 9.693 | 31.492 | 2 |
| 2025-04-24T11:54:00 | 53.731615 | 6.463160 | 2.0 | 9.616 | 2 | 34.370 | 9.809 | 31.381 | 2 |
| 2025-04-24T11:55:00 | 53.730322 | 6.461523 | 2.0 | 9.619 | 2 | 34.426 | 9.828 | 31.422 | 2 |
| 2025-04-24T11:56:00 | 53.729311 | 6.460459 | 2.0 | 9.631 | 2 | 34.426 | 9.831 | 31.419 | 2 |
| 2025-04-24T11:57:00 | 53.728927 | 6.460269 | 2.0 | 9.635 | 2 | 34.428 | 9.841 | 31.412 | 2 |
| 2025-04-24T11:58:00 | 53.728762 | 6.460633 | 2.0 | 9.646 | 2 | 34.438 | 9.847 | 31.417 | 2 |
| 2025-04-24T11:59:00 | 53.728764 | 6.460893 | 2.0 | 9.647 | 2 | 34.432 | 9.855 | 31.404 | 2 |
| 2025-04-24T12:00:00 | 53.728814 | 6.461016 | 2.0 | 9.647 | 2 | 34.427 | 9.855 | 31.399 | 2 |
| 2025-04-24T12:01:00 | 53.728935 | 6.461253 | 2.0 | 9.646 | 2 | 34.440 | 9.856 | 31.411 | 2 |
| 2025-04-24T12:02:00 | 53.729022 | 6.461384 | 2.0 | 9.649 | 2 | 34.439 | 9.855 | 31.411 | 2 |
| 2025-04-24T12:03:00 | 53.729026 | 6.461403 | 2.0 | 9.655 | 2 | 34.439 | 9.858 | 31.409 | 2 |
| 2025-04-24T12:04:00 | 53.729073 | 6.461482 | 2.0 | 9.648 | 2 | 34.444 | 9.861 | 31.411 | 2 |
| 2025-04-24T12:05:00 | 53.729089 | 6.461677 | 2.0 | 9.643 | 2 | 34.446 | 9.856 | 31.417 | 2 |
| 2025-04-24T12:06:00 | 53.729011 | 6.461776 | 2.0 | 9.638 | 2 | 34.444 | 9.849 | 31.421 | 2 |
| 2025-04-24T12:07:00 | 53.728864 | 6.461868 | 2.0 | 9.635 | 2 | 34.443 | 9.846 | 31.423 | 2 |
| 2025-04-24T12:08:00 | 53.728695 | 6.461992 | 2.0 | 9.630 | 2 | 34.448 | 9.843 | 31.431 | 2 |
| 2025-04-24T12:09:00 | 53.728467 | 6.462124 | 2.0 | 9.627 | 2 | 34.450 | 9.839 | 31.436 | 2 |
| 2025-04-24T12:10:00 | 53.728218 | 6.462263 | 2.0 | 9.621 | 2 | 34.449 | 9.832 | 31.441 | 2 |
| 2025-04-24T12:11:00 | 53.727914 | 6.462228 | 2.0 | 9.617 | 2 | 34.451 | 9.829 | 31.446 | 2 |
| 2025-04-24T12:12:00 | 53.727516 | 6.462119 | 2.0 | 9.612 | 2 | 34.450 | 9.822 | 31.451 | 2 |
| 2025-04-24T12:13:00 | 53.727093 | 6.461933 | 2.0 | 9.615 | 2 | 34.454 | 9.821 | 31.456 | 2 |
| 2025-04-24T12:14:00 | 53.726659 | 6.461600 | 2.0 | 9.609 | 2 | 34.461 | 9.823 | 31.461 | 2 |
| 2025-04-24T12:15:00 | 53.726232 | 6.461157 | 2.0 | 9.608 | 2 | 34.458 | 9.817 | 31.464 | 2 |
| 2025-04-24T12:16:00 | 53.725828 | 6.460680 | 2.0 | 9.608 | 2 | 34.454 | 9.815 | 31.461 | 2 |
| 2025-04-24T12:17:00 | 53.725223 | 6.460055 | 2.0 | 9.610 | 2 | 34.449 | 9.815 | 31.456 | 2 |
| 2025-04-24T12:18:00 | 53.724633 | 6.458679 | 2.0 | 9.608 | 2 | 34.444 | 9.818 | 31.448 | 2 |
| 2025-04-24T12:19:00 | 53.724348 | 6.457147 | 2.0 | 9.612 | 2 | 34.436 | 9.817 | 31.441 | 2 |
| 2025-04-24T12:20:00 | 53.724268 | 6.455857 | 2.0 | 9.610 | 2 | 34.440 | 9.818 | 31.444 | 2 |
| 2025-04-24T12:21:00 | 53.724293 | 6.454750 | 2.0 | 9.610 | 2 | 34.444 | 9.816 | 31.450 | 2 |
| 2025-04-24T12:22:00 | 53.724380 | 6.454219 | 2.0 | 9.614 | 2 | 34.447 | 9.817 | 31.452 | 2 |
| 2025-04-24T12:23:00 | 53.724452 | 6.454400 | 2.0 | 9.589 | 2 | 34.452 | 9.823 | 31.452 | 2 |
| 2025-04-24T12:24:00 | 53.724440 | 6.454551 | 2.0 | 9.547 | 2 | 34.448 | 9.784 | 31.482 | 2 |
| 2025-04-24T12:25:00 | 53.724490 | 6.454679 | 2.0 | 9.608 | 2 | 34.446 | 9.756 | 31.505 | 2 |
| 2025-04-24T12:26:00 | 53.724564 | 6.454783 | 2.0 | 9.609 | 2 | 34.439 | 9.808 | 31.452 | 2 |
| 2025-04-24T12:27:00 | 53.724565 | 6.454819 | 2.0 | 9.615 | 2 | 34.440 | 9.818 | 31.444 | 2 |
| 2025-04-24T12:28:00 | 53.724533 | 6.454793 | 2.0 | 9.607 | 2 | 34.440 | 9.818 | 31.444 | 2 |
| 2025-04-24T12:29:00 | 53.724532 | 6.454816 | 2.0 | 9.606 | 2 | 34.437 | 9.814 | 31.445 | 2 |
| 2025-04-24T12:30:00 | 53.724650 | 6.455055 | 2.0 | 9.608 | 2 | 34.434 | 9.812 | 31.444 | 2 |
| 2025-04-24T12:31:00 | 53.724744 | 6.455232 | 2.0 | 9.606 | 2 | 34.435 | 9.814 | 31.443 | 2 |
| 2025-04-24T12:32:00 | 53.724809 | 6.455386 | 2.0 | 9.610 | 2 | 34.434 | 9.812 | 31.444 | 2 |
| 2025-04-24T12:33:00 | 53.724876 | 6.455526 | 2.0 | 9.610 | 2 | 34.432 | 9.812 | 31.442 | 2 |
| 2025-04-24T12:34:00 | 53.724939 | 6.455663 | 2.0 | 9.606 | 2 | 34.429 | 9.813 | 31.438 | 2 |
| 2025-04-24T12:35:00 | 53.724962 | 6.455781 | 2.0 | 9.603 | 2 | 34.426 | 9.810 | 31.437 | 2 |
| 2025-04-24T12:36:00 | 53.724984 | 6.455923 | 2.0 | 9.602 | 2 | 34.426 | 9.808 | 31.439 | 2 |
| 2025-04-24T12:37:00 | 53.725070 | 6.456179 | 2.0 | 9.599 | 2 | 34.426 | 9.805 | 31.442 | 2 |
| 2025-04-24T12:38:00 | 53.725139 | 6.456347 | 2.0 | 9.599 | 2 | 34.426 | 9.804 | 31.442 | 2 |
| 2025-04-24T12:39:00 | 53.725187 | 6.456466 | 2.0 | 9.598 | 2 | 34.427 | 9.804 | 31.443 | 2 |
| 2025-04-24T12:40:00 | 53.725218 | 6.456561 | 2.0 | 9.602 | 2 | 34.430 | 9.805 | 31.446 | 2 |
| 2025-04-24T12:41:00 | 53.725243 | 6.456658 | 2.0 | 9.600 | 2 | 34.431 | 9.806 | 31.446 | 2 |
| 2025-04-24T12:42:00 | 53.725324 | 6.456908 | 2.0 | 9.596 | 2 | 34.431 | 9.806 | 31.446 | 2 |
| 2025-04-24T12:43:00 | 53.725441 | 6.457154 | 2.0 | 9.598 | 2 | 34.430 | 9.802 | 31.448 | 2 |
| 2025-04-24T12:44:00 | 53.725524 | 6.457359 | 2.0 | 9.597 | 2 | 34.429 | 9.802 | 31.447 | 2 |
| 2025-04-24T12:45:00 | 53.725576 | 6.457543 | 2.0 | 9.598 | 2 | 34.431 | 9.803 | 31.448 | 2 |
| 2025-04-24T12:46:00 | 53.725626 | 6.457714 | 2.0 | 9.596 | 2 | 34.431 | 9.801 | 31.450 | 2 |
| 2025-04-24T12:47:00 | 53.725678 | 6.457910 | 2.0 | 9.596 | 2 | 34.434 | 9.802 | 31.452 | 2 |
| 2025-04-24T12:48:00 | 53.725730 | 6.458107 | 2.0 | 9.588 | 2 | 34.433 | 9.799 | 31.454 | 2 |
| 2025-04-24T12:49:00 | 53.725791 | 6.458269 | 2.0 | 9.587 | 2 | 34.428 | 9.791 | 31.456 | 2 |
| 2025-04-24T12:50:00 | 53.725916 | 6.458409 | 2.0 | 9.598 | 2 | 34.431 | 9.794 | 31.456 | 2 |
| 2025-04-24T12:51:00 | 53.726259 | 6.458913 | 2.0 | 9.592 | 2 | 34.439 | 9.801 | 31.458 | 2 |
| 2025-04-24T12:52:00 | 53.726822 | 6.459739 | 2.0 | 9.582 | 2 | 34.437 | 9.796 | 31.461 | 2 |
| 2025-04-24T12:53:00 | 53.727842 | 6.460680 | 2.0 | 9.574 | 2 | 34.428 | 9.785 | 31.461 | 2 |
| 2025-04-24T12:54:00 | 53.729181 | 6.461702 | 2.0 | 9.563 | 2 | 34.435 | 9.777 | 31.475 | 2 |
| 2025-04-24T12:55:00 | 53.730651 | 6.462830 | 2.0 | 9.543 | 2 | 34.446 | 9.765 | 31.497 | 2 |
| 2025-04-24T12:56:00 | 53.731721 | 6.463870 | 2.0 | 9.536 | 2 | 34.454 | 9.751 | 31.517 | 2 |
| 2025-04-24T12:57:00 | 53.732509 | 6.464281 | 2.0 | 9.532 | 2 | 34.462 | 9.743 | 31.532 | 2 |
| 2025-04-24T12:58:00 | 53.732942 | 6.464513 | 2.0 | 9.521 | 2 | 34.459 | 9.735 | 31.536 | 2 |
| 2025-04-24T12:59:00 | 53.733084 | 6.464684 | 2.0 | 9.521 | 2 | 34.464 | 9.727 | 31.548 | 2 |
| 2025-04-24T13:00:00 | 53.733236 | 6.464918 | 2.0 | 9.525 | 2 | 34.468 | 9.727 | 31.552 | 2 |
| 2025-04-24T13:01:00 | 53.733478 | 6.465345 | 2.0 | 9.518 | 2 | 34.469 | 9.728 | 31.553 | 2 |
| 2025-04-24T13:02:00 | 53.733824 | 6.465946 | 2.0 | 9.513 | 2 | 34.469 | 9.722 | 31.558 | 2 |
| 2025-04-24T13:03:00 | 53.734105 | 6.466443 | 2.0 | 9.506 | 2 | 34.471 | 9.716 | 31.565 | 2 |
| 2025-04-24T13:04:00 | 53.734275 | 6.466845 | 2.0 | 9.511 | 2 | 34.466 | 9.713 | 31.563 | 2 |
| 2025-04-24T13:05:00 | 53.734365 | 6.467121 | 2.0 | 9.506 | 2 | 34.470 | 9.717 | 31.563 | 2 |
| 2025-04-24T13:06:00 | 53.734494 | 6.467441 | 2.0 | 9.500 | 2 | 34.469 | 9.710 | 31.568 | 2 |
| 2025-04-24T13:07:00 | 53.734659 | 6.467848 | 2.0 | 9.499 | 2 | 34.465 | 9.705 | 31.569 | 2 |
| 2025-04-24T13:08:00 | 53.734755 | 6.468136 | 2.0 | 9.498 | 2 | 34.464 | 9.706 | 31.567 | 2 |
| 2025-04-24T13:09:00 | 53.734713 | 6.468182 | 2.0 | 9.507 | 2 | 34.463 | 9.705 | 31.567 | 2 |
| 2025-04-24T13:10:00 | 53.734709 | 6.468327 | 2.0 | 9.503 | 2 | 34.461 | 9.711 | 31.559 | 2 |
| 2025-04-24T13:11:00 | 53.734634 | 6.468294 | 2.0 | 9.506 | 2 | 34.464 | 9.710 | 31.563 | 2 |
| 2025-04-24T13:12:00 | 53.734557 | 6.468346 | 2.0 | 9.503 | 2 | 34.462 | 9.711 | 31.560 | 2 |
| 2025-04-24T13:13:00 | 53.734493 | 6.468427 | 2.0 | 9.512 | 2 | 34.460 | 9.710 | 31.559 | 2 |
| 2025-04-24T13:14:00 | 53.734364 | 6.468337 | 2.0 | 9.507 | 2 | 34.458 | 9.713 | 31.555 | 2 |
| 2025-04-24T13:15:00 | 53.734372 | 6.468424 | 2.0 | 9.512 | 2 | 34.456 | 9.714 | 31.552 | 2 |
| 2025-04-24T13:16:00 | 53.734424 | 6.468466 | 2.0 | 9.510 | 2 | 34.459 | 9.717 | 31.552 | 2 |
| 2025-04-24T13:17:00 | 53.734469 | 6.468511 | 2.0 | 9.514 | 2 | 34.459 | 9.716 | 31.553 | 2 |
| 2025-04-24T13:18:00 | 53.734359 | 6.468838 | 2.0 | 9.514 | 2 | 34.459 | 9.720 | 31.549 | 2 |
| 2025-04-24T13:19:00 | 53.733975 | 6.469647 | 2.0 | 9.512 | 2 | 34.458 | 9.721 | 31.548 | 2 |
| 2025-04-24T13:20:00 | 53.733570 | 6.470772 | 2.0 | 9.508 | 2 | 34.453 | 9.717 | 31.546 | 2 |
| 2025-04-24T13:21:00 | 53.733618 | 6.471910 | 2.0 | 9.499 | 2 | 34.446 | 9.712 | 31.543 | 2 |
| 2025-04-24T13:22:00 | 53.733947 | 6.472916 | 2.0 | 9.506 | 2 | 34.444 | 9.707 | 31.546 | 2 |
| 2025-04-24T13:23:00 | 53.734555 | 6.473431 | 2.0 | 9.515 | 2 | 34.456 | 9.715 | 31.551 | 2 |
| 2025-04-24T13:24:00 | 53.735017 | 6.473802 | 2.0 | 9.515 | 2 | 34.467 | 9.720 | 31.558 | 2 |
| 2025-04-24T13:25:00 | 53.735186 | 6.474081 | 2.0 | 9.504 | 2 | 34.472 | 9.718 | 31.564 | 2 |
| 2025-04-24T13:26:00 | 53.735287 | 6.474366 | 2.0 | 9.499 | 2 | 34.477 | 9.710 | 31.576 | 2 |
| 2025-04-24T13:27:00 | 53.735388 | 6.474609 | 2.0 | 9.494 | 2 | 34.486 | 9.707 | 31.588 | 2 |
| 2025-04-24T13:28:00 | 53.735361 | 6.474662 | 2.0 | 9.494 | 2 | 34.486 | 9.701 | 31.594 | 2 |
| 2025-04-24T13:29:00 | 53.735268 | 6.474706 | 2.0 | 9.496 | 2 | 34.487 | 9.701 | 31.595 | 2 |
| 2025-04-24T13:30:00 | 53.735274 | 6.474768 | 2.0 | 9.499 | 2 | 34.483 | 9.702 | 31.590 | 2 |
| 2025-04-24T13:31:00 | 53.735327 | 6.475003 | 2.0 | 9.501 | 2 | 34.484 | 9.704 | 31.589 | 2 |
| 2025-04-24T13:32:00 | 53.735364 | 6.475100 | 2.0 | 9.499 | 2 | 34.486 | 9.708 | 31.587 | 2 |
| 2025-04-24T13:33:00 | 53.735461 | 6.475494 | 2.0 | 9.496 | 2 | 34.484 | 9.706 | 31.587 | 2 |
| 2025-04-24T13:34:00 | 53.735351 | 6.476481 | 2.0 | 9.489 | 2 | 34.481 | 9.702 | 31.588 | 2 |
| 2025-04-24T13:35:00 | 53.734773 | 6.477966 | 2.0 | 9.497 | 2 | 34.475 | 9.699 | 31.584 | 2 |
| 2025-04-24T13:36:00 | 53.734011 | 6.479762 | 2.0 | 9.498 | 2 | 34.475 | 9.708 | 31.576 | 2 |
| 2025-04-24T13:37:00 | 53.733217 | 6.481497 | 2.0 | 9.463 | 2 | 34.474 | 9.702 | 31.580 | 2 |
| 2025-04-24T13:38:00 | 53.732392 | 6.483155 | 2.0 | 9.443 | 2 | 34.449 | 9.671 | 31.582 | 2 |
| 2025-04-24T13:39:00 | 53.731826 | 6.484777 | 2.0 | 9.431 | 2 | 34.432 | 9.652 | 31.582 | 2 |
| 2025-04-24T13:40:00 | 53.731760 | 6.485919 | 2.0 | 9.429 | 2 | 34.430 | 9.641 | 31.589 | 2 |
| 2025-04-24T13:41:00 | 53.731906 | 6.486699 | 2.0 | 9.432 | 2 | 34.428 | 9.637 | 31.591 | 2 |
| 2025-04-24T13:42:00 | 53.732175 | 6.487512 | 2.0 | 9.442 | 2 | 34.432 | 9.640 | 31.592 | 2 |
| 2025-04-24T13:43:00 | 53.732391 | 6.488135 | 2.0 | 9.450 | 2 | 34.443 | 9.650 | 31.595 | 2 |
| 2025-04-24T13:44:00 | 53.732428 | 6.488365 | 2.0 | 9.446 | 2 | 34.452 | 9.656 | 31.598 | 2 |
| 2025-04-24T13:45:00 | 53.732435 | 6.488414 | 2.0 | 9.444 | 2 | 34.453 | 9.654 | 31.601 | 2 |
| 2025-04-24T13:46:00 | 53.732538 | 6.488572 | 2.0 | 9.448 | 2 | 34.453 | 9.652 | 31.603 | 2 |
| 2025-04-24T13:47:00 | 53.732566 | 6.488659 | 2.0 | 9.450 | 2 | 34.458 | 9.657 | 31.604 | 2 |
| 2025-04-24T13:48:00 | 53.732583 | 6.488724 | 2.0 | 9.456 | 2 | 34.462 | 9.661 | 31.604 | 2 |
| 2025-04-24T13:49:00 | 53.732582 | 6.488800 | 2.0 | 9.454 | 2 | 34.464 | 9.664 | 31.604 | 2 |
| 2025-04-24T13:50:00 | 53.732653 | 6.488936 | 2.0 | 9.469 | 2 | 34.464 | 9.666 | 31.602 | 2 |
| 2025-04-24T13:51:00 | 53.732702 | 6.489020 | 2.0 | 9.468 | 2 | 34.468 | 9.677 | 31.596 | 2 |
| 2025-04-24T13:52:00 | 53.732826 | 6.489152 | 2.0 | 9.457 | 2 | 34.466 | 9.674 | 31.597 | 2 |
| 2025-04-24T13:53:00 | 53.732878 | 6.489268 | 2.0 | 9.447 | 2 | 34.459 | 9.665 | 31.598 | 2 |
| 2025-04-24T13:54:00 | 53.732988 | 6.489535 | 2.0 | 9.432 | 2 | 34.452 | 9.653 | 31.601 | 2 |
| 2025-04-24T13:55:00 | 53.733447 | 6.490542 | 2.0 | 9.415 | 2 | 34.447 | 9.638 | 31.609 | 2 |
| 2025-04-24T13:56:00 | 53.733905 | 6.492463 | 2.0 | 9.432 | 2 | 34.448 | 9.624 | 31.623 | 2 |
| 2025-04-24T13:57:00 | 53.734202 | 6.494980 | 2.0 | 9.467 | 2 | 34.191 | 9.651 | 31.337 | 2 |
| 2025-04-24T13:58:00 | 53.734455 | 6.497718 | 2.0 | 9.459 | 2 | 34.479 | 9.673 | 31.611 | 2 |
| 2025-04-24T13:59:00 | 53.734623 | 6.500549 | 2.0 | 9.478 | 2 | 34.460 | 9.678 | 31.587 | 2 |
| 2025-04-24T14:00:00 | 53.734862 | 6.503041 | 2.0 | 9.471 | 2 | 34.468 | 9.686 | 31.588 | 2 |
| 2025-04-24T14:01:00 | 53.735152 | 6.504971 | 2.0 | 9.458 | 2 | 34.314 | 9.679 | 31.438 | 2 |
| 2025-04-24T14:02:00 | 53.735494 | 6.506500 | 2.0 | 9.449 | 2 | 34.459 | 9.667 | 31.596 | 2 |
| 2025-04-24T14:03:00 | 53.735842 | 6.507779 | 2.0 | 9.451 | 2 | 34.222 | 9.658 | 31.363 | 2 |
| 2025-04-24T14:04:00 | 53.736201 | 6.509017 | 2.0 | 9.457 | 2 | 34.243 | 9.660 | 31.382 | 2 |
| 2025-04-24T14:05:00 | 53.736523 | 6.509955 | 2.0 | 9.469 | 2 | 34.301 | 9.670 | 31.433 | 2 |
| 2025-04-24T14:06:00 | 53.736752 | 6.510477 | 2.0 | 9.486 | 2 | 34.455 | 9.682 | 31.579 | 2 |
| 2025-04-24T14:07:00 | 53.736863 | 6.510726 | 2.0 | 9.485 | 2 | 34.361 | 9.694 | 31.473 | 2 |
| 2025-04-24T14:08:00 | 53.736967 | 6.510928 | 2.0 | 9.490 | 2 | 34.260 | 9.693 | 31.371 | 2 |
| 2025-04-24T14:09:00 | 53.737054 | 6.511092 | 2.0 | 9.489 | 2 | 34.349 | 9.697 | 31.458 | 2 |
| 2025-04-24T14:10:00 | 53.737049 | 6.511169 | 2.0 | 9.491 | 2 | 34.331 | 9.697 | 31.439 | 2 |
| 2025-04-24T14:11:00 | 53.737196 | 6.511371 | 2.0 | 9.494 | 2 | 34.471 | 9.700 | 31.579 | 2 |
| 2025-04-24T14:12:00 | 53.737286 | 6.511490 | 2.0 | 9.498 | 2 | 34.330 | 9.703 | 31.433 | 2 |
| 2025-04-24T14:13:00 | 53.737335 | 6.511849 | 2.0 | 9.495 | 2 | 34.231 | 9.703 | 31.333 | 2 |
| 2025-04-24T14:14:00 | 53.737062 | 6.513149 | 2.0 | 9.473 | 2 | 34.395 | 9.696 | 31.505 | 2 |
| 2025-04-24T14:15:00 | 53.736173 | 6.514593 | 2.0 | 9.441 | 2 | 34.419 | 9.675 | 31.548 | 2 |
| 2025-04-24T14:16:00 | 53.735125 | 6.515654 | 2.0 | 9.446 | 2 | 34.454 | 9.650 | 31.606 | 2 |
| 2025-04-24T14:17:00 | 53.733995 | 6.515667 | 2.0 | 9.534 | 2 | 34.458 | 9.669 | 31.593 | 2 |
| 2025-04-24T14:18:00 | 53.732979 | 6.514693 | 2.0 | 9.585 | 2 | 34.365 | 9.750 | 31.428 | 2 |
| 2025-04-24T14:19:00 | 53.732047 | 6.513337 | 2.0 | 9.584 | 2 | 34.301 | 9.790 | 31.328 | 2 |
| 2025-04-24T14:20:00 | 53.731576 | 6.511937 | 2.0 | 9.571 | 2 | 34.361 | 9.788 | 31.391 | 2 |
| 2025-04-24T14:21:00 | 53.731860 | 6.510925 | 2.0 | 9.550 | 2 | 34.368 | 9.774 | 31.410 | 2 |
| 2025-04-24T14:22:00 | 53.732629 | 6.510545 | 2.0 | 9.545 | 2 | 34.460 | 9.757 | 31.518 | 2 |
| 2025-04-24T14:23:00 | 53.733356 | 6.510675 | 2.0 | 9.554 | 2 | 34.355 | 9.754 | 31.414 | 2 |
| 2025-04-24T14:24:00 | 53.733778 | 6.510809 | 2.0 | 9.557 | 2 | 34.435 | 9.763 | 31.487 | 2 |
| 2025-04-24T14:25:00 | 53.734038 | 6.511039 | 2.0 | 9.555 | 2 | 34.418 | 9.765 | 31.468 | 2 |
| 2025-04-24T14:26:00 | 53.734246 | 6.511188 | 2.0 | 9.546 | 2 | 34.476 | 9.761 | 31.531 | 2 |
| 2025-04-24T14:27:00 | 53.734368 | 6.511246 | 2.0 | 9.541 | 2 | 34.376 | 9.753 | 31.436 | 2 |
| 2025-04-24T14:28:00 | 53.734406 | 6.511363 | 2.0 | 9.535 | 2 | 34.400 | 9.747 | 31.466 | 2 |
| 2025-04-24T14:29:00 | 53.734472 | 6.511528 | 2.0 | 9.528 | 2 | 34.394 | 9.741 | 31.465 | 2 |
| 2025-04-24T14:30:00 | 53.734634 | 6.511610 | 2.0 | 9.517 | 2 | 34.399 | 9.735 | 31.475 | 2 |
| 2025-04-24T14:31:00 | 53.734743 | 6.511627 | 2.0 | 9.489 | 2 | 34.363 | 9.721 | 31.451 | 2 |
| 2025-04-24T14:32:00 | 53.734839 | 6.511656 | 2.0 | 9.450 | 2 | 34.397 | 9.692 | 31.511 | 2 |
| 2025-04-24T14:33:00 | 53.735001 | 6.511722 | 2.0 | 9.434 | 2 | 34.442 | 9.656 | 31.588 | 2 |
| 2025-04-24T14:34:00 | 53.735207 | 6.511838 | 2.0 | 9.435 | 2 | 34.435 | 9.645 | 31.591 | 2 |
| 2025-04-24T14:35:00 | 53.735421 | 6.511993 | 2.0 | 9.439 | 2 | 34.446 | 9.647 | 31.600 | 2 |
| 2025-04-24T14:36:00 | 53.735635 | 6.512122 | 2.0 | 9.435 | 2 | 34.426 | 9.651 | 31.576 | 2 |
| 2025-04-24T14:37:00 | 53.735863 | 6.512277 | 2.0 | 9.413 | 2 | 34.369 | 9.644 | 31.525 | 2 |
| 2025-04-24T14:38:00 | 53.736203 | 6.512221 | 2.0 | 9.445 | 2 | 34.339 | 9.632 | 31.505 | 2 |
| 2025-04-24T14:39:00 | 53.736298 | 6.511158 | 2.0 | 9.445 | 2 | 34.459 | 9.651 | 31.610 | 2 |
| 2025-04-24T14:40:00 | 53.736137 | 6.509028 | 2.0 | 9.442 | 2 | 34.464 | 9.651 | 31.615 | 2 |
| 2025-04-24T14:41:00 | 53.735733 | 6.505878 | 2.0 | 9.498 | 2 | 34.387 | 9.642 | 31.545 | 2 |
| 2025-04-24T14:42:00 | 53.735133 | 6.501856 | 2.0 | 9.472 | 2 | 34.275 | 9.698 | 31.382 | 2 |
| 2025-04-24T14:43:00 | 53.734437 | 6.497349 | 2.0 | 9.447 | 2 | 34.347 | 9.654 | 31.493 | 2 |
| 2025-04-24T14:44:00 | 53.733720 | 6.492694 | 2.0 | 9.434 | 2 | 34.353 | 9.638 | 31.514 | 2 |
| 2025-04-24T14:45:00 | 53.733017 | 6.488096 | 2.0 | 9.420 | 2 | 34.378 | 9.623 | 31.552 | 2 |
| 2025-04-24T14:46:00 | 53.732331 | 6.483565 | 2.0 | 9.430 | 2 | 34.336 | 9.610 | 31.521 | 2 |
| 2025-04-24T14:47:00 | 53.731645 | 6.479080 | 2.0 | 9.429 | 2 | 34.371 | 9.621 | 31.547 | 2 |
| 2025-04-24T14:48:00 | 53.730951 | 6.474612 | 2.0 | 9.448 | 2 | 34.379 | 9.621 | 31.555 | 2 |
| 2025-04-24T14:49:00 | 53.730255 | 6.470124 | 2.0 | 9.464 | 2 | 34.360 | 9.638 | 31.521 | 2 |
| 2025-04-24T14:50:00 | 53.729577 | 6.465631 | 2.0 | 9.487 | 2 | 34.402 | 9.655 | 31.548 | 2 |
| 2025-04-24T14:51:00 | 53.728902 | 6.461148 | 2.0 | 9.507 | 2 | 34.424 | 9.676 | 31.552 | 2 |
| 2025-04-24T14:52:00 | 53.728224 | 6.456608 | 2.0 | 9.526 | 2 | 34.410 | 9.695 | 31.522 | 2 |
| 2025-04-24T14:53:00 | 53.727533 | 6.451925 | 2.0 | 9.538 | 2 | 34.414 | 9.712 | 31.511 | 2 |
| 2025-04-24T14:54:00 | 53.726840 | 6.447135 | 2.0 | 9.530 | 2 | 34.426 | 9.723 | 31.513 | 2 |
| 2025-04-24T14:55:00 | 53.726105 | 6.442346 | 2.0 | 9.528 | 2 | 34.431 | 9.715 | 31.525 | 2 |
| 2025-04-24T14:56:00 | 53.725642 | 6.437449 | 2.0 | 9.527 | 2 | 34.444 | 9.711 | 31.542 | 2 |
| 2025-04-24T14:57:00 | 53.725443 | 6.432526 | 2.0 | 9.553 | 2 | 34.442 | 9.715 | 31.537 | 2 |
| 2025-04-24T14:58:00 | 53.725522 | 6.427617 | 2.0 | 9.559 | 2 | 34.441 | 9.741 | 31.513 | 2 |
| 2025-04-24T14:59:00 | 53.725481 | 6.422686 | 2.0 | 9.566 | 2 | 34.406 | 9.743 | 31.475 | 2 |
| 2025-04-24T15:00:00 | 53.725482 | 6.417765 | 2.0 | 9.520 | 2 | 34.461 | 9.743 | 31.531 | 2 |
| 2025-04-24T15:01:00 | 53.725487 | 6.412841 | 2.0 | 9.509 | 2 | 34.471 | 9.702 | 31.577 | 2 |
| 2025-04-24T15:02:00 | 53.726246 | 6.408166 | 2.0 | 9.487 | 2 | 34.456 | 9.689 | 31.574 | 2 |
| 2025-04-24T15:03:00 | 53.727951 | 6.404286 | 2.0 | 9.494 | 2 | 34.467 | 9.672 | 31.600 | 2 |
| 2025-04-24T15:04:00 | 53.730284 | 6.401501 | 2.0 | 9.462 | 2 | 34.497 | 9.684 | 31.620 | 2 |
| 2025-04-24T15:05:00 | 53.733015 | 6.400181 | 2.0 | 9.415 | 2 | 34.521 | 9.635 | 31.687 | 2 |
| 2025-04-24T15:06:00 | 53.735788 | 6.399163 | 2.0 | 9.402 | 2 | 34.521 | 9.598 | 31.720 | 2 |
| 2025-04-24T15:07:00 | 53.738529 | 6.397930 | 2.0 | 9.464 | 2 | 34.530 | 9.591 | 31.735 | 2 |
| 2025-04-24T15:08:00 | 53.741262 | 6.396656 | 2.0 | 9.538 | 2 | 34.517 | 9.654 | 31.666 | 2 |
| 2025-04-24T15:09:00 | 53.744009 | 6.395646 | 2.0 | 9.498 | 2 | 34.486 | 9.718 | 31.579 | 2 |
| 2025-04-24T15:10:00 | 53.746761 | 6.394550 | 2.0 | 9.530 | 2 | 34.519 | 9.680 | 31.646 | 2 |
| 2025-04-24T15:11:00 | 53.749543 | 6.393642 | 2.0 | 9.593 | 2 | 34.531 | 9.723 | 31.620 | 2 |
| 2025-04-24T15:12:00 | 53.752341 | 6.392737 | 2.0 | 9.599 | 2 | 34.510 | 9.770 | 31.557 | 2 |
| 2025-04-24T15:13:00 | 53.755140 | 6.391792 | 2.0 | 9.439 | 2 | 34.543 | 9.758 | 31.601 | 2 |
| 2025-04-24T15:14:00 | 53.757956 | 6.390881 | 2.0 | 9.499 | 2 | 34.549 | 9.625 | 31.725 | 2 |
| 2025-04-24T15:15:00 | 53.760785 | 6.389974 | 2.0 | 9.569 | 2 | 34.515 | 9.695 | 31.628 | 2 |
| 2025-04-24T15:16:00 | 53.763617 | 6.389057 | 2.0 | 9.586 | 2 | 34.525 | 9.748 | 31.592 | 2 |
| 2025-04-24T15:17:00 | 53.766444 | 6.388171 | 2.0 | 9.599 | 2 | 34.540 | 9.770 | 31.588 | 2 |
| 2025-04-24T15:18:00 | 53.769260 | 6.387213 | 2.0 | 9.607 | 2 | 34.545 | 9.779 | 31.585 | 2 |
| 2025-04-24T15:19:00 | 53.772129 | 6.386263 | 2.0 | 9.596 | 2 | 34.540 | 9.785 | 31.575 | 2 |
| 2025-04-24T15:20:00 | 53.775002 | 6.385314 | 2.0 | 9.588 | 2 | 34.547 | 9.771 | 31.594 | 2 |
| 2025-04-24T15:21:00 | 53.777878 | 6.384400 | 2.0 | 9.612 | 2 | 34.549 | 9.769 | 31.598 | 2 |
| 2025-04-24T15:22:00 | 53.780722 | 6.383423 | 2.0 | 9.617 | 2 | 34.543 | 9.794 | 31.570 | 2 |
| 2025-04-24T15:23:00 | 53.783565 | 6.382501 | 2.0 | 9.589 | 2 | 34.551 | 9.794 | 31.578 | 2 |
| 2025-04-24T15:24:00 | 53.786412 | 6.381541 | 2.0 | 9.590 | 2 | 34.570 | 9.766 | 31.622 | 2 |
| 2025-04-24T15:25:00 | 53.789277 | 6.380643 | 2.0 | 9.621 | 2 | 34.569 | 9.770 | 31.617 | 2 |
| 2025-04-24T15:26:00 | 53.792170 | 6.379690 | 2.0 | 9.658 | 2 | 34.562 | 9.800 | 31.584 | 2 |
| 2025-04-24T15:27:00 | 53.794999 | 6.378364 | 2.0 | 9.641 | 2 | 34.560 | 9.837 | 31.549 | 2 |
| 2025-04-24T15:28:00 | 53.797547 | 6.375871 | 2.0 | 9.643 | 2 | 34.591 | 9.818 | 31.597 | 2 |
| 2025-04-24T15:29:00 | 53.800129 | 6.373435 | 2.0 | 9.521 | 2 | 34.604 | 9.807 | 31.620 | 2 |
| 2025-04-24T15:30:00 | 53.802668 | 6.370960 | 2.0 | 9.481 | 2 | 34.632 | 9.690 | 31.752 | 2 |
| 2025-04-24T15:31:00 | 53.805208 | 6.368490 | 2.0 | 9.495 | 2 | 34.631 | 9.668 | 31.770 | 2 |
| 2025-04-24T15:32:00 | 53.807722 | 6.365956 | 2.0 | 9.520 | 2 | 34.631 | 9.680 | 31.760 | 2 |
| 2025-04-24T15:33:00 | 53.810290 | 6.363557 | 2.0 | 9.532 | 2 | 34.642 | 9.702 | 31.751 | 2 |
| 2025-04-24T15:34:00 | 53.812823 | 6.361038 | 2.0 | 9.555 | 2 | 34.650 | 9.714 | 31.749 | 2 |
| 2025-04-24T15:35:00 | 53.815342 | 6.358529 | 2.0 | 9.577 | 2 | 34.646 | 9.736 | 31.725 | 2 |
| 2025-04-24T15:36:00 | 53.817890 | 6.356105 | 2.0 | 9.595 | 2 | 34.650 | 9.760 | 31.708 | 2 |
| 2025-04-24T15:37:00 | 53.820456 | 6.353625 | 2.0 | 9.495 | 2 | 34.678 | 9.760 | 31.737 | 2 |
| 2025-04-24T15:38:00 | 53.822988 | 6.351103 | 2.0 | 9.403 | 2 | 34.713 | 9.659 | 31.862 | 2 |
| 2025-04-24T15:39:00 | 53.825525 | 6.348624 | 2.0 | 9.414 | 2 | 34.719 | 9.596 | 31.924 | 2 |
| 2025-04-24T15:40:00 | 53.828053 | 6.346141 | 2.0 | 9.416 | 2 | 34.735 | 9.596 | 31.940 | 2 |
| 2025-04-24T15:41:00 | 53.830579 | 6.343770 | 2.0 | 9.190 | 2 | 34.758 | 9.576 | 31.981 | 2 |
| 2025-04-24T15:42:00 | 53.833072 | 6.341301 | 2.0 | 9.160 | 2 | 34.785 | 9.370 | 32.193 | 2 |
| 2025-04-24T15:43:00 | 53.835593 | 6.338814 | 2.0 | 9.145 | 2 | 34.784 | 9.342 | 32.218 | 2 |
| 2025-04-24T15:44:00 | 53.838132 | 6.336311 | 2.0 | 9.047 | 2 | 34.800 | 9.321 | 32.253 | 2 |
| 2025-04-24T15:45:00 | 53.840674 | 6.333881 | 2.0 | 9.024 | 2 | 34.809 | 9.233 | 32.342 | 2 |
| 2025-04-24T15:46:00 | 53.843167 | 6.331397 | 2.0 | 9.049 | 2 | 34.800 | 9.215 | 32.349 | 2 |
| 2025-04-24T15:47:00 | 53.845682 | 6.328976 | 2.0 | 9.057 | 2 | 34.806 | 9.234 | 32.338 | 2 |
| 2025-04-24T15:48:00 | 53.848174 | 6.326465 | 2.0 | 9.070 | 2 | 34.820 | 9.243 | 32.344 | 2 |
| 2025-04-24T15:49:00 | 53.850150 | 6.323020 | 2.0 | 9.059 | 2 | 34.835 | 9.251 | 32.352 | 2 |
| 2025-04-24T15:50:00 | 53.851926 | 6.319191 | 2.0 | 8.892 | 2 | 34.844 | 9.241 | 32.371 | 2 |
| 2025-04-24T15:51:00 | 53.853732 | 6.315470 | 2.0 | 8.548 | 2 | 34.880 | 9.002 | 32.626 | 2 |
| 2025-04-24T15:52:00 | 53.855527 | 6.311894 | 2.0 | 8.541 | 2 | 34.831 | 8.755 | 32.803 | 2 |
| 2025-04-24T15:53:00 | 53.857288 | 6.308377 | 2.0 | 8.542 | 2 | 34.801 | 8.734 | 32.791 | 2 |
| 2025-04-24T15:54:00 | 53.859026 | 6.304806 | 2.0 | 8.535 | 2 | 34.772 | 8.729 | 32.765 | 2 |
| 2025-04-24T15:55:00 | 53.860724 | 6.301197 | 2.0 | 8.538 | 2 | 34.772 | 8.724 | 32.770 | 2 |
| 2025-04-24T15:56:00 | 53.862366 | 6.297517 | 2.0 | 8.523 | 2 | 34.774 | 8.725 | 32.771 | 2 |
| 2025-04-24T15:57:00 | 53.864001 | 6.293808 | 2.0 | 8.522 | 2 | 34.754 | 8.711 | 32.763 | 2 |
| 2025-04-24T15:58:00 | 53.865659 | 6.290108 | 2.0 | 8.501 | 2 | 34.745 | 8.705 | 32.759 | 2 |
| 2025-04-24T15:59:00 | 53.867310 | 6.286401 | 2.0 | 8.500 | 2 | 34.727 | 8.686 | 32.758 | 2 |
| 2025-04-24T16:00:00 | 53.868968 | 6.282672 | 2.0 | 8.507 | 2 | 34.724 | 8.687 | 32.754 | 2 |
| 2025-04-24T16:01:00 | 53.870636 | 6.278960 | 2.0 | 8.500 | 2 | 34.728 | 8.689 | 32.756 | 2 |
| 2025-04-24T16:02:00 | 53.872305 | 6.275242 | 2.0 | 8.503 | 2 | 34.716 | 8.686 | 32.746 | 2 |
| 2025-04-24T16:03:00 | 53.873934 | 6.271484 | 2.0 | 8.502 | 2 | 34.719 | 8.687 | 32.748 | 2 |
| 2025-04-24T16:04:00 | 53.875622 | 6.267780 | 2.0 | 8.501 | 2 | 34.721 | 8.686 | 32.752 | 2 |
| 2025-04-24T16:05:00 | 53.877301 | 6.264040 | 2.0 | 8.493 | 2 | 34.720 | 8.683 | 32.753 | 2 |
| 2025-04-24T16:06:00 | 53.878959 | 6.260301 | 2.0 | 8.493 | 2 | 34.715 | 8.678 | 32.753 | 2 |
| 2025-04-24T16:07:00 | 53.880634 | 6.256584 | 2.0 | 8.499 | 2 | 34.707 | 8.678 | 32.744 | 2 |
| 2025-04-24T16:08:00 | 53.882303 | 6.252828 | 2.0 | 8.520 | 2 | 34.701 | 8.685 | 32.731 | 2 |
| 2025-04-24T16:09:00 | 53.883979 | 6.249029 | 2.0 | 8.528 | 2 | 34.718 | 8.705 | 32.731 | 2 |
| 2025-04-24T16:10:00 | 53.885661 | 6.245219 | 2.0 | 8.552 | 2 | 34.713 | 8.713 | 32.718 | 2 |
| 2025-04-24T16:11:00 | 53.887344 | 6.241445 | 2.0 | 8.581 | 2 | 34.735 | 8.740 | 32.716 | 2 |
| 2025-04-24T16:12:00 | 53.889034 | 6.237729 | 2.0 | 8.578 | 2 | 34.753 | 8.761 | 32.716 | 2 |
| 2025-04-24T16:13:00 | 53.890680 | 6.233902 | 2.0 | 8.579 | 2 | 34.746 | 8.759 | 32.710 | 2 |
| 2025-04-24T16:14:00 | 53.892405 | 6.230119 | 2.0 | 8.596 | 2 | 34.744 | 8.761 | 32.706 | 2 |
| 2025-04-24T16:15:00 | 53.894115 | 6.226332 | 2.0 | 8.626 | 2 | 34.752 | 8.781 | 32.696 | 2 |
| 2025-04-24T16:16:00 | 53.895775 | 6.222508 | 2.0 | 8.676 | 2 | 34.769 | 8.812 | 32.685 | 2 |
| 2025-04-24T16:17:00 | 53.897457 | 6.218709 | 2.0 | 8.696 | 2 | 34.794 | 8.860 | 32.667 | 2 |
| 2025-04-24T16:18:00 | 53.899180 | 6.214946 | 2.0 | 8.710 | 2 | 34.799 | 8.875 | 32.659 | 2 |
| 2025-04-24T16:19:00 | 53.900888 | 6.211148 | 2.0 | 8.724 | 2 | 34.802 | 8.891 | 32.647 | 2 |
| 2025-04-24T16:20:00 | 53.902558 | 6.207303 | 2.0 | 8.720 | 2 | 34.811 | 8.902 | 32.646 | 2 |
| 2025-04-24T16:21:00 | 53.904106 | 6.204027 | 2.0 | 8.714 | 2 | 34.814 | 8.900 | 32.651 | 2 |
| 2025-04-24T16:22:00 | 53.905339 | 6.201495 | 2.0 | 8.709 | 2 | 34.809 | 8.893 | 32.652 | 2 |
| 2025-04-24T16:23:00 | 53.906301 | 6.199244 | 2.0 | 8.709 | 2 | 34.808 | 8.888 | 32.656 | 2 |
| 2025-04-24T16:24:00 | 53.907163 | 6.197489 | 2.0 | 8.715 | 2 | 34.806 | 8.889 | 32.653 | 2 |
| 2025-04-24T16:25:00 | 53.908005 | 6.197166 | 2.0 | 8.707 | 2 | 34.810 | 8.892 | 32.654 | 2 |
| 2025-04-24T16:26:00 | 53.908627 | 6.197116 | 2.0 | 8.707 | 2 | 34.806 | 8.886 | 32.656 | 2 |
| 2025-04-24T16:27:00 | 53.909020 | 6.196945 | 2.0 | 8.700 | 2 | 34.807 | 8.882 | 32.660 | 2 |
| 2025-04-24T16:28:00 | 53.909197 | 6.196889 | 2.0 | 8.699 | 2 | 34.805 | 8.877 | 32.663 | 2 |
| 2025-04-24T16:29:00 | 53.909268 | 6.196863 | 2.0 | 8.702 | 2 | 34.804 | 8.876 | 32.663 | 2 |
| 2025-04-24T16:30:00 | 53.909280 | 6.196749 | 2.0 | 8.703 | 2 | 34.806 | 8.878 | 32.663 | 2 |
| 2025-04-24T16:31:00 | 53.909388 | 6.196529 | 2.0 | 8.705 | 2 | 34.807 | 8.879 | 32.663 | 2 |
| 2025-04-24T16:32:00 | 53.909785 | 6.196539 | 2.0 | 8.704 | 2 | 34.808 | 8.881 | 32.662 | 2 |
| 2025-04-24T16:33:00 | 53.910356 | 6.196733 | 2.0 | 8.696 | 2 | 34.808 | 8.880 | 32.663 | 2 |
| 2025-04-24T16:34:00 | 53.911191 | 6.196853 | 2.0 | 8.681 | 2 | 34.804 | 8.870 | 32.668 | 2 |
| 2025-04-24T16:35:00 | 53.912210 | 6.196632 | 2.0 | 8.683 | 2 | 34.800 | 8.859 | 32.674 | 2 |
| 2025-04-24T16:36:00 | 53.913186 | 6.196217 | 2.0 | 8.691 | 2 | 34.808 | 8.862 | 32.680 | 2 |
| 2025-04-24T16:37:00 | 53.914214 | 6.195796 | 2.0 | 8.695 | 2 | 34.813 | 8.868 | 32.680 | 2 |
| 2025-04-24T16:38:00 | 53.915235 | 6.195353 | 2.0 | 8.686 | 2 | 34.816 | 8.870 | 32.681 | 2 |
| 2025-04-24T16:39:00 | 53.916259 | 6.194893 | 2.0 | 8.675 | 2 | 34.812 | 8.862 | 32.684 | 2 |
| 2025-04-24T16:40:00 | 53.917297 | 6.194438 | 2.0 | 8.686 | 2 | 34.803 | 8.855 | 32.681 | 2 |
| 2025-04-24T16:41:00 | 53.918330 | 6.194003 | 2.0 | 8.686 | 2 | 34.815 | 8.863 | 32.686 | 2 |
| 2025-04-24T16:42:00 | 53.919209 | 6.193665 | 2.0 | 8.688 | 2 | 34.821 | 8.862 | 32.693 | 2 |
| 2025-04-24T16:43:00 | 53.920025 | 6.193345 | 2.0 | 8.687 | 2 | 34.825 | 8.864 | 32.696 | 2 |
| 2025-04-24T16:44:00 | 53.920988 | 6.192931 | 2.0 | 8.688 | 2 | 34.828 | 8.864 | 32.699 | 2 |
| 2025-04-24T16:45:00 | 53.922107 | 6.192458 | 2.0 | 8.686 | 2 | 34.834 | 8.863 | 32.706 | 2 |
| 2025-04-24T16:46:00 | 53.923280 | 6.191637 | 2.0 | 8.689 | 2 | 34.839 | 8.864 | 32.710 | 2 |
| 2025-04-24T16:47:00 | 53.924182 | 6.190049 | 2.0 | 8.690 | 2 | 34.846 | 8.865 | 32.717 | 2 |
| 2025-04-24T16:48:00 | 53.924582 | 6.188057 | 2.0 | 8.698 | 2 | 34.848 | 8.867 | 32.717 | 2 |
| 2025-04-24T16:49:00 | 53.924539 | 6.185986 | 2.0 | 8.709 | 2 | 34.851 | 8.877 | 32.711 | 2 |
| 2025-04-24T16:50:00 | 53.924073 | 6.184022 | 2.0 | 8.712 | 2 | 34.852 | 8.885 | 32.705 | 2 |
| 2025-04-24T16:51:00 | 53.923185 | 6.182425 | 2.0 | 8.724 | 2 | 34.849 | 8.890 | 32.697 | 2 |
| 2025-04-24T16:52:00 | 53.921916 | 6.181563 | 2.0 | 8.729 | 2 | 34.850 | 8.902 | 32.687 | 2 |
| 2025-04-24T16:53:00 | 53.920515 | 6.181850 | 2.0 | 8.732 | 2 | 34.700 | 8.904 | 32.529 | 2 |
| 2025-04-24T16:54:00 | 53.919385 | 6.183158 | 2.0 | 8.735 | 2 | 34.840 | 8.908 | 32.671 | 2 |
| 2025-04-24T16:55:00 | 53.918749 | 6.185003 | 2.0 | 8.731 | 2 | 34.800 | 8.909 | 32.628 | 2 |
| 2025-04-24T16:56:00 | 53.918290 | 6.187073 | 2.0 | 8.729 | 2 | 34.705 | 8.905 | 32.533 | 2 |
| 2025-04-24T16:57:00 | 53.917873 | 6.189174 | 2.0 | 8.734 | 2 | 34.813 | 8.905 | 32.645 | 2 |
| 2025-04-24T16:58:00 | 53.917486 | 6.191175 | 2.0 | 8.725 | 2 | 34.704 | 8.907 | 32.530 | 2 |
| 2025-04-24T16:59:00 | 53.917071 | 6.193169 | 2.0 | 8.720 | 2 | 34.830 | 8.902 | 32.666 | 2 |
| 2025-04-24T17:00:00 | 53.916832 | 6.195170 | 2.0 | 8.715 | 2 | 34.695 | 8.893 | 32.534 | 2 |
| 2025-04-24T17:01:00 | 53.916739 | 6.197241 | 2.0 | 8.704 | 2 | 34.656 | 8.888 | 32.498 | 2 |
| 2025-04-24T17:02:00 | 53.916701 | 6.199400 | 2.0 | 8.704 | 2 | 34.777 | 8.878 | 32.633 | 2 |
| 2025-04-24T17:03:00 | 53.916739 | 6.201629 | 2.0 | 8.696 | 2 | 34.815 | 8.878 | 32.672 | 2 |
| 2025-04-24T17:04:00 | 53.916686 | 6.203864 | 2.0 | 8.684 | 2 | 34.671 | 8.870 | 32.530 | 2 |
| 2025-04-24T17:05:00 | 53.916657 | 6.206008 | 2.0 | 8.683 | 2 | 34.763 | 8.858 | 32.637 | 2 |
| 2025-04-24T17:06:00 | 53.916671 | 6.208075 | 2.0 | 8.682 | 2 | 34.754 | 8.857 | 32.628 | 2 |
| 2025-04-24T17:07:00 | 53.916688 | 6.210138 | 2.0 | 8.674 | 2 | 34.729 | 8.855 | 32.604 | 2 |
| 2025-04-24T17:08:00 | 53.916704 | 6.212239 | 2.0 | 8.667 | 2 | 34.691 | 8.848 | 32.571 | 2 |
| 2025-04-24T17:09:00 | 53.916720 | 6.214370 | 2.0 | 8.655 | 2 | 34.646 | 8.839 | 32.532 | 2 |
| 2025-04-24T17:10:00 | 53.916744 | 6.216530 | 2.0 | 8.641 | 2 | 34.609 | 8.828 | 32.504 | 2 |
| 2025-04-24T17:11:00 | 53.916747 | 6.218730 | 2.0 | 8.626 | 2 | 34.787 | 8.813 | 32.703 | 2 |
| 2025-04-24T17:12:00 | 53.916733 | 6.220966 | 2.0 | 8.614 | 2 | 34.681 | 8.800 | 32.604 | 2 |
| 2025-04-24T17:13:00 | 53.916700 | 6.223243 | 2.0 | 8.611 | 2 | 34.651 | 8.788 | 32.584 | 2 |
| 2025-04-24T17:14:00 | 53.916665 | 6.225516 | 2.0 | 8.597 | 2 | 34.649 | 8.785 | 32.585 | 2 |
| 2025-04-24T17:15:00 | 53.916652 | 6.227766 | 2.0 | 8.590 | 2 | 34.619 | 8.771 | 32.566 | 2 |
| 2025-04-24T17:16:00 | 53.916648 | 6.230004 | 2.0 | 8.596 | 2 | 34.608 | 8.766 | 32.559 | 2 |
| 2025-04-24T17:17:00 | 53.916654 | 6.232189 | 2.0 | 8.585 | 2 | 34.710 | 8.766 | 32.666 | 2 |
| 2025-04-24T17:18:00 | 53.916660 | 6.234347 | 2.0 | 8.602 | 2 | 34.662 | 8.766 | 32.616 | 2 |
| 2025-04-24T17:19:00 | 53.916685 | 6.236514 | 2.0 | 8.611 | 2 | 34.718 | 8.776 | 32.665 | 2 |
| 2025-04-24T17:20:00 | 53.916703 | 6.238657 | 2.0 | 8.619 | 2 | 34.719 | 8.787 | 32.656 | 2 |
| 2025-04-24T17:21:00 | 53.916748 | 6.240777 | 2.0 | 8.623 | 2 | 34.757 | 8.792 | 32.691 | 2 |
| 2025-04-24T17:22:00 | 53.916758 | 6.242891 | 2.0 | 8.630 | 2 | 34.699 | 8.798 | 32.625 | 2 |
| 2025-04-24T17:23:00 | 53.916749 | 6.245025 | 2.0 | 8.622 | 2 | 34.732 | 8.801 | 32.657 | 2 |
| 2025-04-24T17:24:00 | 53.916728 | 6.247160 | 2.0 | 8.624 | 2 | 34.726 | 8.796 | 32.655 | 2 |
| 2025-04-24T17:25:00 | 53.916722 | 6.249284 | 2.0 | 8.625 | 2 | 34.763 | 8.799 | 32.691 | 2 |
| 2025-04-24T17:26:00 | 53.916728 | 6.251426 | 2.0 | 8.626 | 2 | 34.782 | 8.798 | 32.712 | 2 |
| 2025-04-24T17:27:00 | 53.916754 | 6.253597 | 2.0 | 8.634 | 2 | 34.745 | 8.802 | 32.669 | 2 |
| 2025-04-24T17:28:00 | 53.916794 | 6.255750 | 2.0 | 8.631 | 2 | 34.768 | 8.806 | 32.690 | 2 |
| 2025-04-24T17:29:00 | 53.916794 | 6.257911 | 2.0 | 8.623 | 2 | 34.795 | 8.805 | 32.719 | 2 |
| 2025-04-24T17:30:00 | 53.916757 | 6.260049 | 2.0 | 8.612 | 2 | 34.783 | 8.795 | 32.716 | 2 |
| 2025-04-24T17:31:00 | 53.916750 | 6.262208 | 2.0 | 8.607 | 2 | 34.788 | 8.785 | 32.730 | 2 |
| 2025-04-24T17:32:00 | 53.916745 | 6.264357 | 2.0 | 8.609 | 2 | 34.784 | 8.782 | 32.729 | 2 |
| 2025-04-24T17:33:00 | 53.916727 | 6.266533 | 2.0 | 8.610 | 2 | 34.796 | 8.782 | 32.741 | 2 |
| 2025-04-24T17:34:00 | 53.916719 | 6.268752 | 2.0 | 8.604 | 2 | 34.817 | 8.783 | 32.762 | 2 |
| 2025-04-24T17:35:00 | 53.916677 | 6.270963 | 2.0 | 8.598 | 2 | 34.839 | 8.777 | 32.791 | 2 |
| 2025-04-24T17:36:00 | 53.916681 | 6.273128 | 2.0 | 8.604 | 2 | 34.841 | 8.771 | 32.798 | 2 |
| 2025-04-24T17:37:00 | 53.916675 | 6.275289 | 2.0 | 8.613 | 2 | 34.862 | 8.780 | 32.812 | 2 |
| 2025-04-24T17:38:00 | 53.916680 | 6.277487 | 2.0 | 8.605 | 2 | 34.859 | 8.785 | 32.804 | 2 |
| 2025-04-24T17:39:00 | 53.916706 | 6.279753 | 2.0 | 8.607 | 2 | 34.872 | 8.778 | 32.824 | 2 |
| 2025-04-24T17:40:00 | 53.916718 | 6.282080 | 2.0 | 8.597 | 2 | 34.892 | 8.778 | 32.845 | 2 |
| 2025-04-24T17:41:00 | 53.916736 | 6.284423 | 2.0 | 8.599 | 2 | 34.906 | 8.771 | 32.866 | 2 |
| 2025-04-24T17:42:00 | 53.916717 | 6.286773 | 2.0 | 8.590 | 2 | 34.908 | 8.770 | 32.869 | 2 |
| 2025-04-24T17:43:00 | 53.916716 | 6.289120 | 2.0 | 8.656 | 2 | 34.920 | 8.778 | 32.874 | 2 |
| 2025-04-24T17:44:00 | 53.916741 | 6.291506 | 2.0 | 8.653 | 2 | 34.972 | 8.826 | 32.884 | 2 |
| 2025-04-24T17:45:00 | 53.916742 | 6.293912 | 2.0 | 8.644 | 2 | 34.966 | 8.823 | 32.881 | 2 |
| 2025-04-24T17:46:00 | 53.916737 | 6.296358 | 2.0 | 8.640 | 2 | 34.960 | 8.814 | 32.883 | 2 |
| 2025-04-24T17:47:00 | 53.916739 | 6.298799 | 2.0 | 8.638 | 2 | 34.969 | 8.813 | 32.893 | 2 |
| 2025-04-24T17:48:00 | 53.916705 | 6.301244 | 2.0 | 8.626 | 2 | 34.968 | 8.809 | 32.896 | 2 |
| 2025-04-24T17:49:00 | 53.916365 | 6.303696 | 2.0 | 8.701 | 2 | 34.974 | 8.816 | 32.896 | 2 |
| 2025-04-24T17:50:00 | 53.915767 | 6.306070 | 2.0 | 8.693 | 2 | 35.011 | 8.869 | 32.885 | 2 |
| 2025-04-24T17:51:00 | 53.914981 | 6.308318 | 2.0 | 8.666 | 2 | 34.996 | 8.858 | 32.880 | 2 |
| 2025-04-24T17:52:00 | 53.914667 | 6.310719 | 2.0 | 8.677 | 2 | 34.966 | 8.840 | 32.865 | 2 |
| 2025-04-24T17:53:00 | 53.914992 | 6.312698 | 2.0 | 8.701 | 2 | 34.967 | 8.851 | 32.856 | 2 |
| 2025-04-24T17:54:00 | 53.915779 | 6.313667 | 2.0 | 8.726 | 2 | 34.986 | 8.874 | 32.854 | 2 |
| 2025-04-24T17:55:00 | 53.916755 | 6.313364 | 2.0 | 8.753 | 2 | 35.011 | 8.901 | 32.855 | 2 |
| 2025-04-24T17:56:00 | 53.917809 | 6.312279 | 2.0 | 8.745 | 2 | 35.034 | 8.920 | 32.862 | 2 |
| 2025-04-24T17:57:00 | 53.918640 | 6.310493 | 2.0 | 8.712 | 2 | 35.036 | 8.912 | 32.871 | 2 |
| 2025-04-24T17:58:00 | 53.918848 | 6.308136 | 2.0 | 8.662 | 2 | 35.022 | 8.878 | 32.888 | 2 |
| 2025-04-24T17:59:00 | 53.918849 | 6.305578 | 2.0 | 8.647 | 2 | 34.990 | 8.832 | 32.898 | 2 |
| 2025-04-24T18:00:00 | 53.918516 | 6.303012 | 2.0 | 8.666 | 2 | 34.992 | 8.825 | 32.906 | 2 |
| 2025-04-24T18:01:00 | 53.918464 | 6.300392 | 2.0 | 8.666 | 2 | 35.003 | 8.839 | 32.905 | 2 |
| 2025-04-24T18:02:00 | 53.918499 | 6.297809 | 2.0 | 8.650 | 2 | 35.002 | 8.839 | 32.904 | 2 |
| 2025-04-24T18:03:00 | 53.918354 | 6.295305 | 2.0 | 8.618 | 2 | 34.991 | 8.819 | 32.911 | 2 |
| 2025-04-24T18:04:00 | 53.918318 | 6.292866 | 2.0 | 8.574 | 2 | 34.961 | 8.784 | 32.912 | 2 |
| 2025-04-24T18:05:00 | 53.918337 | 6.290530 | 2.0 | 8.578 | 2 | 34.923 | 8.752 | 32.902 | 2 |
| 2025-04-24T18:06:00 | 53.918338 | 6.288222 | 2.0 | 8.586 | 2 | 34.915 | 8.754 | 32.892 | 2 |
| 2025-04-24T18:07:00 | 53.918308 | 6.285874 | 2.0 | 8.595 | 2 | 34.917 | 8.762 | 32.886 | 2 |
| 2025-04-24T18:08:00 | 53.918259 | 6.283511 | 2.0 | 8.576 | 2 | 34.913 | 8.769 | 32.876 | 2 |
| 2025-04-24T18:09:00 | 53.918211 | 6.281159 | 2.0 | 8.578 | 2 | 34.864 | 8.745 | 32.847 | 2 |
| 2025-04-24T18:10:00 | 53.918246 | 6.278843 | 2.0 | 8.602 | 2 | 34.853 | 8.757 | 32.824 | 2 |
| 2025-04-24T18:11:00 | 53.918308 | 6.276541 | 2.0 | 8.612 | 2 | 34.856 | 8.777 | 32.809 | 2 |
| 2025-04-24T18:12:00 | 53.918339 | 6.274227 | 2.0 | 8.620 | 2 | 34.853 | 8.786 | 32.797 | 2 |
| 2025-04-24T18:13:00 | 53.918318 | 6.271869 | 2.0 | 8.629 | 2 | 34.851 | 8.794 | 32.788 | 2 |
| 2025-04-24T18:14:00 | 53.918294 | 6.269503 | 2.0 | 8.634 | 2 | 34.855 | 8.803 | 32.783 | 2 |
| 2025-04-24T18:15:00 | 53.918293 | 6.267131 | 2.0 | 8.632 | 2 | 34.852 | 8.806 | 32.777 | 2 |
| 2025-04-24T18:16:00 | 53.918300 | 6.264763 | 2.0 | 8.615 | 2 | 34.843 | 8.804 | 32.770 | 2 |
| 2025-04-24T18:17:00 | 53.918337 | 6.262395 | 2.0 | 8.608 | 2 | 34.819 | 8.787 | 32.761 | 2 |
| 2025-04-24T18:18:00 | 53.918361 | 6.260017 | 2.0 | 8.587 | 2 | 34.805 | 8.778 | 32.754 | 2 |
| 2025-04-24T18:19:00 | 53.918333 | 6.257612 | 2.0 | 8.585 | 2 | 34.784 | 8.762 | 32.747 | 2 |
| 2025-04-24T18:20:00 | 53.918303 | 6.255171 | 2.0 | 8.582 | 2 | 34.772 | 8.757 | 32.739 | 2 |
| 2025-04-24T18:21:00 | 53.918284 | 6.252725 | 2.0 | 8.595 | 2 | 34.763 | 8.759 | 32.728 | 2 |
| 2025-04-24T18:22:00 | 53.918287 | 6.250275 | 2.0 | 8.616 | 2 | 34.762 | 8.770 | 32.717 | 2 |
| 2025-04-24T18:23:00 | 53.918298 | 6.247839 | 2.0 | 8.634 | 2 | 34.769 | 8.793 | 32.703 | 2 |
| 2025-04-24T18:24:00 | 53.918308 | 6.245428 | 2.0 | 8.646 | 2 | 34.774 | 8.808 | 32.694 | 2 |
| 2025-04-24T18:25:00 | 53.918330 | 6.243013 | 2.0 | 8.656 | 2 | 34.782 | 8.820 | 32.691 | 2 |
| 2025-04-24T18:26:00 | 53.918336 | 6.240572 | 2.0 | 8.664 | 2 | 34.784 | 8.829 | 32.685 | 2 |
| 2025-04-24T18:27:00 | 53.918309 | 6.238102 | 2.0 | 8.672 | 2 | 34.798 | 8.838 | 32.692 | 2 |
| 2025-04-24T18:28:00 | 53.918286 | 6.235615 | 2.0 | 8.677 | 2 | 34.802 | 8.845 | 32.689 | 2 |
| 2025-04-24T18:29:00 | 53.918275 | 6.233136 | 2.0 | 8.685 | 2 | 34.805 | 8.850 | 32.688 | 2 |
| 2025-04-24T18:30:00 | 53.918289 | 6.230681 | 2.0 | 8.696 | 2 | 34.811 | 8.859 | 32.686 | 2 |
| 2025-04-24T18:31:00 | 53.918310 | 6.228238 | 2.0 | 8.706 | 2 | 34.816 | 8.871 | 32.680 | 2 |
| 2025-04-24T18:32:00 | 53.918340 | 6.225781 | 2.0 | 8.710 | 2 | 34.815 | 8.878 | 32.672 | 2 |
| 2025-04-24T18:33:00 | 53.918299 | 6.223303 | 2.0 | 8.716 | 2 | 34.815 | 8.883 | 32.668 | 2 |
| 2025-04-24T18:34:00 | 53.918239 | 6.220804 | 2.0 | 8.716 | 2 | 34.817 | 8.888 | 32.665 | 2 |
| 2025-04-24T18:35:00 | 53.918191 | 6.218311 | 2.0 | 8.719 | 2 | 34.818 | 8.889 | 32.665 | 2 |
| 2025-04-24T18:36:00 | 53.918218 | 6.215833 | 2.0 | 8.719 | 2 | 34.817 | 8.891 | 32.663 | 2 |
| 2025-04-24T18:37:00 | 53.918287 | 6.213380 | 2.0 | 8.717 | 2 | 34.822 | 8.891 | 32.668 | 2 |
| 2025-04-24T18:38:00 | 53.918336 | 6.210917 | 2.0 | 8.717 | 2 | 34.827 | 8.890 | 32.674 | 2 |
| 2025-04-24T18:39:00 | 53.918331 | 6.208438 | 2.0 | 8.716 | 2 | 34.831 | 8.889 | 32.679 | 2 |
| 2025-04-24T18:40:00 | 53.918326 | 6.205950 | 2.0 | 8.717 | 2 | 34.837 | 8.889 | 32.685 | 2 |
| 2025-04-24T18:41:00 | 53.918316 | 6.203457 | 2.0 | 8.717 | 2 | 34.845 | 8.889 | 32.694 | 2 |
| 2025-04-24T18:42:00 | 53.918278 | 6.200957 | 2.0 | 8.716 | 2 | 34.851 | 8.889 | 32.700 | 2 |
| 2025-04-24T18:43:00 | 53.918534 | 6.198583 | 2.0 | 8.715 | 2 | 34.851 | 8.889 | 32.700 | 2 |
| 2025-04-24T18:44:00 | 53.919186 | 6.196606 | 2.0 | 8.712 | 2 | 34.857 | 8.887 | 32.708 | 2 |
| 2025-04-24T18:45:00 | 53.919823 | 6.194494 | 2.0 | 8.705 | 2 | 34.859 | 8.882 | 32.715 | 2 |
| 2025-04-24T18:46:00 | 53.919946 | 6.191925 | 2.0 | 8.698 | 2 | 34.860 | 8.876 | 32.721 | 2 |
| 2025-04-24T18:47:00 | 53.918784 | 6.190024 | 2.0 | 8.687 | 2 | 34.862 | 8.866 | 32.732 | 2 |
| 2025-04-24T18:48:00 | 53.917153 | 6.190638 | 2.0 | 8.687 | 2 | 34.864 | 8.859 | 32.741 | 2 |
| 2025-04-24T18:49:00 | 53.916492 | 6.192895 | 2.0 | 8.688 | 2 | 34.863 | 8.859 | 32.740 | 2 |
| 2025-04-24T18:50:00 | 53.916276 | 6.195404 | 2.0 | 8.687 | 2 | 34.859 | 8.860 | 32.735 | 2 |
| 2025-04-24T18:51:00 | 53.916072 | 6.197894 | 2.0 | 8.688 | 2 | 34.854 | 8.860 | 32.730 | 2 |
| 2025-04-24T18:52:00 | 53.915923 | 6.200242 | 2.0 | 8.694 | 2 | 34.850 | 8.860 | 32.726 | 2 |
| 2025-04-24T18:53:00 | 53.915909 | 6.202488 | 2.0 | 8.703 | 2 | 34.852 | 8.867 | 32.721 | 2 |
| 2025-04-24T18:54:00 | 53.915905 | 6.204782 | 2.0 | 8.707 | 2 | 34.855 | 8.874 | 32.718 | 2 |
| 2025-04-24T18:55:00 | 53.915866 | 6.207116 | 2.0 | 8.712 | 2 | 34.854 | 8.879 | 32.712 | 2 |
| 2025-04-24T18:56:00 | 53.915839 | 6.209475 | 2.0 | 8.714 | 2 | 34.852 | 8.883 | 32.706 | 2 |
| 2025-04-24T18:57:00 | 53.915821 | 6.211833 | 2.0 | 8.716 | 2 | 34.849 | 8.885 | 32.701 | 2 |
| 2025-04-24T18:58:00 | 53.915814 | 6.214193 | 2.0 | 8.715 | 2 | 34.845 | 8.887 | 32.695 | 2 |
| 2025-04-24T18:59:00 | 53.915838 | 6.216522 | 2.0 | 8.715 | 2 | 34.841 | 8.886 | 32.692 | 2 |
| 2025-04-24T19:00:00 | 53.915894 | 6.218846 | 2.0 | 8.715 | 2 | 34.836 | 8.887 | 32.686 | 2 |
| 2025-04-24T19:01:00 | 53.915925 | 6.221212 | 2.0 | 8.715 | 2 | 34.833 | 8.886 | 32.684 | 2 |
| 2025-04-24T19:02:00 | 53.915896 | 6.223592 | 2.0 | 8.716 | 2 | 34.828 | 8.887 | 32.678 | 2 |
| 2025-04-24T19:03:00 | 53.915876 | 6.225978 | 2.0 | 8.714 | 2 | 34.825 | 8.887 | 32.675 | 2 |
| 2025-04-24T19:04:00 | 53.915860 | 6.228349 | 2.0 | 8.712 | 2 | 34.820 | 8.885 | 32.671 | 2 |
| 2025-04-24T19:05:00 | 53.915852 | 6.230675 | 2.0 | 8.704 | 2 | 34.818 | 8.881 | 32.673 | 2 |
| 2025-04-24T19:06:00 | 53.915873 | 6.232994 | 2.0 | 8.700 | 2 | 34.819 | 8.874 | 32.680 | 2 |
| 2025-04-24T19:07:00 | 53.915849 | 6.235311 | 2.0 | 8.704 | 2 | 34.819 | 8.871 | 32.683 | 2 |
| 2025-04-24T19:08:00 | 53.915853 | 6.237623 | 2.0 | 8.709 | 2 | 34.819 | 8.876 | 32.678 | 2 |
| 2025-04-24T19:09:00 | 53.915902 | 6.239922 | 2.0 | 8.706 | 2 | 34.535 | 8.879 | 32.380 | 2 |
| 2025-04-24T19:10:00 | 53.915923 | 6.242253 | 2.0 | 8.697 | 2 | 34.811 | 8.875 | 32.671 | 2 |
| 2025-04-24T19:11:00 | 53.915921 | 6.244568 | 2.0 | 8.701 | 2 | 34.806 | 8.869 | 32.671 | 2 |
| 2025-04-24T19:12:00 | 53.915914 | 6.246876 | 2.0 | 8.703 | 2 | 34.811 | 8.873 | 32.673 | 2 |
| 2025-04-24T19:13:00 | 53.915905 | 6.249196 | 2.0 | 8.694 | 2 | 34.808 | 8.873 | 32.670 | 2 |
| 2025-04-24T19:14:00 | 53.915892 | 6.251514 | 2.0 | 8.682 | 2 | 34.679 | 8.863 | 32.544 | 2 |
| 2025-04-24T19:15:00 | 53.915881 | 6.253841 | 2.0 | 8.674 | 2 | 34.575 | 8.851 | 32.447 | 2 |
| 2025-04-24T19:16:00 | 53.915876 | 6.256155 | 2.0 | 8.667 | 2 | 34.633 | 8.842 | 32.516 | 2 |
| 2025-04-24T19:17:00 | 53.915892 | 6.258462 | 2.0 | 8.674 | 2 | 34.551 | 8.842 | 32.430 | 2 |
| 2025-04-24T19:18:00 | 53.915918 | 6.260764 | 2.0 | 8.661 | 2 | 34.541 | 8.843 | 32.419 | 2 |
| 2025-04-24T19:19:00 | 53.915904 | 6.263050 | 2.0 | 8.641 | 2 | 34.778 | 8.827 | 32.681 | 2 |
| 2025-04-24T19:20:00 | 53.915917 | 6.265302 | 2.0 | 8.636 | 2 | 34.774 | 8.813 | 32.690 | 2 |
| 2025-04-24T19:21:00 | 53.915938 | 6.267566 | 2.0 | 8.631 | 2 | 34.538 | 8.806 | 32.450 | 2 |
| 2025-04-24T19:22:00 | 53.915951 | 6.269852 | 2.0 | 8.622 | 2 | 34.624 | 8.800 | 32.545 | 2 |
| 2025-04-24T19:23:00 | 53.915943 | 6.272165 | 2.0 | 8.607 | 2 | 34.487 | 8.791 | 32.410 | 2 |
| 2025-04-24T19:24:00 | 53.915909 | 6.274486 | 2.0 | 8.597 | 2 | 34.659 | 8.778 | 32.602 | 2 |
| 2025-04-24T19:25:00 | 53.915872 | 6.276796 | 2.0 | 8.583 | 2 | 34.595 | 8.766 | 32.546 | 2 |
| 2025-04-24T19:26:00 | 53.915862 | 6.279077 | 2.0 | 8.570 | 2 | 34.602 | 8.752 | 32.566 | 2 |
| 2025-04-24T19:27:00 | 53.915898 | 6.281323 | 2.0 | 8.559 | 2 | 34.743 | 8.741 | 32.724 | 2 |
| 2025-04-24T19:28:00 | 53.915926 | 6.283581 | 2.0 | 8.559 | 2 | 34.582 | 8.731 | 32.565 | 2 |
| 2025-04-24T19:29:00 | 53.915942 | 6.285833 | 2.0 | 8.567 | 2 | 34.640 | 8.733 | 32.623 | 2 |
| 2025-04-24T19:30:00 | 53.915954 | 6.288070 | 2.0 | 8.576 | 2 | 34.619 | 8.740 | 32.595 | 2 |
| 2025-04-24T19:31:00 | 53.915980 | 6.290303 | 2.0 | 8.576 | 2 | 34.746 | 8.748 | 32.720 | 2 |
| 2025-04-24T19:32:00 | 53.915979 | 6.292557 | 2.0 | 8.589 | 2 | 34.772 | 8.748 | 32.748 | 2 |
| 2025-04-24T19:33:00 | 53.915988 | 6.294844 | 2.0 | 8.599 | 2 | 34.770 | 8.762 | 32.732 | 2 |
| 2025-04-24T19:34:00 | 53.915981 | 6.297154 | 2.0 | 8.598 | 2 | 34.652 | 8.769 | 32.603 | 2 |
| 2025-04-24T19:35:00 | 53.915970 | 6.299493 | 2.0 | 8.594 | 2 | 34.764 | 8.768 | 32.721 | 2 |
| 2025-04-24T19:36:00 | 53.915971 | 6.301842 | 2.0 | 8.593 | 2 | 34.804 | 8.764 | 32.766 | 2 |
| 2025-04-24T19:37:00 | 53.915645 | 6.304147 | 2.0 | 8.594 | 2 | 34.739 | 8.764 | 32.698 | 2 |
| 2025-04-24T19:38:00 | 53.914737 | 6.306052 | 2.0 | 8.594 | 2 | 34.710 | 8.763 | 32.669 | 2 |
| 2025-04-24T19:39:00 | 53.913827 | 6.308011 | 2.0 | 8.593 | 2 | 34.700 | 8.764 | 32.657 | 2 |
| 2025-04-24T19:40:00 | 53.913552 | 6.310345 | 2.0 | 8.593 | 2 | 34.804 | 8.764 | 32.766 | 2 |
| 2025-04-24T19:41:00 | 53.914106 | 6.312224 | 2.0 | 8.592 | 2 | 34.710 | 8.764 | 32.668 | 2 |
| 2025-04-24T19:42:00 | 53.915190 | 6.312929 | 2.0 | 8.547 | 2 | 34.784 | 8.753 | 32.755 | 2 |
| 2025-04-24T19:43:00 | 53.916412 | 6.312200 | 2.0 | 8.543 | 2 | 34.673 | 8.715 | 32.674 | 2 |
| 2025-04-24T19:44:00 | 53.917357 | 6.310245 | 2.0 | 8.538 | 2 | 34.757 | 8.715 | 32.762 | 2 |
| 2025-04-24T19:45:00 | 53.917735 | 6.307614 | 2.0 | 8.549 | 2 | 34.658 | 8.714 | 32.660 | 2 |
| 2025-04-24T19:46:00 | 53.917822 | 6.305185 | 2.0 | 8.566 | 2 | 34.734 | 8.724 | 32.730 | 2 |
| 2025-04-24T19:47:00 | 53.917721 | 6.302940 | 2.0 | 8.587 | 2 | 34.720 | 8.742 | 32.699 | 2 |
| 2025-04-24T19:48:00 | 53.917677 | 6.300744 | 2.0 | 8.598 | 2 | 34.638 | 8.757 | 32.599 | 2 |
| 2025-04-24T19:49:00 | 53.917522 | 6.298473 | 2.0 | 8.600 | 2 | 34.719 | 8.769 | 32.673 | 2 |
| 2025-04-24T19:50:00 | 53.917484 | 6.296151 | 2.0 | 8.595 | 2 | 34.676 | 8.769 | 32.628 | 2 |
| 2025-04-24T19:51:00 | 53.917507 | 6.293795 | 2.0 | 8.592 | 2 | 34.675 | 8.765 | 32.630 | 2 |
| 2025-04-24T19:52:00 | 53.917555 | 6.291421 | 2.0 | 8.574 | 2 | 34.680 | 8.760 | 32.640 | 2 |
| 2025-04-24T19:53:00 | 53.917616 | 6.289027 | 2.0 | 8.561 | 2 | 34.686 | 8.741 | 32.664 | 2 |
| 2025-04-24T19:54:00 | 53.917639 | 6.286599 | 2.0 | 8.554 | 2 | 34.674 | 8.733 | 32.659 | 2 |
| 2025-04-24T19:55:00 | 53.917600 | 6.284153 | 2.0 | 8.553 | 2 | 34.645 | 8.725 | 32.636 | 2 |
| 2025-04-24T19:56:00 | 53.917580 | 6.281692 | 2.0 | 8.562 | 2 | 34.635 | 8.727 | 32.624 | 2 |
| 2025-04-24T19:57:00 | 53.917579 | 6.279211 | 2.0 | 8.569 | 2 | 34.678 | 8.734 | 32.662 | 2 |
| 2025-04-24T19:58:00 | 53.917579 | 6.276705 | 2.0 | 8.582 | 2 | 34.686 | 8.741 | 32.664 | 2 |
| 2025-04-24T19:59:00 | 53.917560 | 6.274195 | 2.0 | 8.596 | 2 | 34.688 | 8.755 | 32.653 | 2 |
| 2025-04-24T20:00:00 | 53.917549 | 6.271690 | 2.0 | 8.610 | 2 | 34.704 | 8.769 | 32.657 | 2 |
| 2025-04-24T20:01:00 | 53.917568 | 6.269246 | 2.0 | 8.620 | 2 | 34.685 | 8.781 | 32.626 | 2 |
| 2025-04-24T20:02:00 | 53.917586 | 6.266807 | 2.0 | 8.633 | 2 | 34.697 | 8.791 | 32.629 | 2 |
| 2025-04-24T20:03:00 | 53.917576 | 6.264370 | 2.0 | 8.645 | 2 | 34.700 | 8.805 | 32.620 | 2 |
| 2025-04-24T20:04:00 | 53.917523 | 6.261926 | 2.0 | 8.643 | 2 | 34.729 | 8.814 | 32.642 | 2 |
| 2025-04-24T20:05:00 | 53.917488 | 6.259486 | 2.0 | 8.651 | 2 | 34.724 | 8.814 | 32.636 | 2 |
| 2025-04-24T20:06:00 | 53.917503 | 6.257057 | 2.0 | 8.663 | 2 | 34.710 | 8.823 | 32.614 | 2 |
| 2025-04-24T20:07:00 | 53.917525 | 6.254639 | 2.0 | 8.674 | 2 | 34.757 | 8.835 | 32.652 | 2 |
| 2025-04-24T20:08:00 | 53.917534 | 6.252215 | 2.0 | 8.679 | 2 | 34.764 | 8.843 | 32.651 | 2 |
| 2025-04-24T20:09:00 | 53.917533 | 6.249793 | 2.0 | 8.677 | 2 | 34.775 | 8.849 | 32.657 | 2 |
| 2025-04-24T20:10:00 | 53.917546 | 6.247414 | 2.0 | 8.682 | 2 | 34.767 | 8.846 | 32.652 | 2 |
| 2025-04-24T20:11:00 | 53.917553 | 6.245016 | 2.0 | 8.689 | 2 | 34.780 | 8.852 | 32.660 | 2 |
| 2025-04-24T20:12:00 | 53.917542 | 6.242623 | 2.0 | 8.691 | 2 | 34.775 | 8.858 | 32.649 | 2 |
| 2025-04-24T20:13:00 | 53.917540 | 6.240239 | 2.0 | 8.681 | 2 | 34.798 | 8.859 | 32.672 | 2 |
| 2025-04-24T20:14:00 | 53.917540 | 6.237837 | 2.0 | 8.681 | 2 | 34.799 | 8.850 | 32.682 | 2 |
| 2025-04-24T20:15:00 | 53.917552 | 6.235433 | 2.0 | 8.685 | 2 | 34.806 | 8.852 | 32.687 | 2 |
| 2025-04-24T20:16:00 | 53.917557 | 6.233016 | 2.0 | 8.690 | 2 | 34.803 | 8.856 | 32.680 | 2 |
| 2025-04-24T20:17:00 | 53.917539 | 6.230609 | 2.0 | 8.691 | 2 | 34.802 | 8.861 | 32.675 | 2 |
| 2025-04-24T20:18:00 | 53.917549 | 6.228204 | 2.0 | 8.691 | 2 | 34.806 | 8.861 | 32.679 | 2 |
| 2025-04-24T20:19:00 | 53.917543 | 6.225785 | 2.0 | 8.689 | 2 | 34.810 | 8.860 | 32.684 | 2 |
| 2025-04-24T20:20:00 | 53.917521 | 6.223354 | 2.0 | 8.688 | 2 | 34.815 | 8.859 | 32.690 | 2 |
| 2025-04-24T20:21:00 | 53.917512 | 6.220912 | 2.0 | 8.687 | 2 | 34.820 | 8.858 | 32.696 | 2 |
| 2025-04-24T20:22:00 | 53.917510 | 6.218469 | 2.0 | 8.685 | 2 | 34.824 | 8.857 | 32.701 | 2 |
| 2025-04-24T20:23:00 | 53.917509 | 6.216034 | 2.0 | 8.682 | 2 | 34.828 | 8.855 | 32.707 | 2 |
| 2025-04-24T20:24:00 | 53.917520 | 6.213591 | 2.0 | 8.678 | 2 | 34.832 | 8.852 | 32.714 | 2 |
| 2025-04-24T20:25:00 | 53.917517 | 6.211133 | 2.0 | 8.671 | 2 | 34.832 | 8.847 | 32.719 | 2 |
| 2025-04-24T20:26:00 | 53.917502 | 6.208693 | 2.0 | 8.665 | 2 | 34.834 | 8.841 | 32.726 | 2 |
| 2025-04-24T20:27:00 | 53.917514 | 6.206253 | 2.0 | 8.658 | 2 | 34.833 | 8.834 | 32.732 | 2 |
| 2025-04-24T20:28:00 | 53.917526 | 6.203804 | 2.0 | 8.656 | 2 | 34.835 | 8.829 | 32.738 | 2 |
| 2025-04-24T20:29:00 | 53.917538 | 6.201346 | 2.0 | 8.655 | 2 | 34.838 | 8.827 | 32.743 | 2 |
| 2025-04-24T20:30:00 | 53.917575 | 6.198914 | 2.0 | 8.653 | 2 | 34.841 | 8.824 | 32.749 | 2 |
| 2025-04-24T20:31:00 | 53.917994 | 6.196797 | 2.0 | 8.652 | 2 | 34.826 | 8.822 | 32.736 | 2 |
| 2025-04-24T20:32:00 | 53.918622 | 6.194951 | 2.0 | 8.650 | 2 | 34.836 | 8.822 | 32.746 | 2 |
| 2025-04-24T20:33:00 | 53.919260 | 6.193001 | 2.0 | 8.647 | 2 | 34.855 | 8.819 | 32.769 | 2 |
| 2025-04-24T20:34:00 | 53.919443 | 6.190478 | 2.0 | 8.641 | 2 | 34.854 | 8.816 | 32.770 | 2 |
| 2025-04-24T20:35:00 | 53.918633 | 6.188320 | 2.0 | 8.636 | 2 | 34.836 | 8.809 | 32.758 | 2 |
| 2025-04-24T20:36:00 | 53.917283 | 6.187842 | 2.0 | 8.635 | 2 | 34.847 | 8.806 | 32.772 | 2 |
| 2025-04-24T20:37:00 | 53.916181 | 6.188960 | 2.0 | 8.634 | 2 | 34.881 | 8.804 | 32.810 | 2 |
| 2025-04-24T20:38:00 | 53.915690 | 6.190815 | 2.0 | 8.637 | 2 | 34.876 | 8.804 | 32.804 | 2 |
| 2025-04-24T20:39:00 | 53.915552 | 6.192863 | 2.0 | 8.643 | 2 | 34.874 | 8.807 | 32.800 | 2 |
| 2025-04-24T20:40:00 | 53.915332 | 6.195137 | 2.0 | 8.649 | 2 | 34.843 | 8.813 | 32.762 | 2 |
| 2025-04-24T20:41:00 | 53.915127 | 6.197604 | 2.0 | 8.655 | 2 | 34.721 | 8.819 | 32.629 | 2 |
| 2025-04-24T20:42:00 | 53.915054 | 6.200071 | 2.0 | 8.657 | 2 | 34.738 | 8.825 | 32.641 | 2 |
| 2025-04-24T20:43:00 | 53.915052 | 6.202387 | 2.0 | 8.657 | 2 | 34.725 | 8.826 | 32.626 | 2 |
| 2025-04-24T20:44:00 | 53.914999 | 6.204636 | 2.0 | 8.657 | 2 | 34.793 | 8.826 | 32.697 | 2 |
| 2025-04-24T20:45:00 | 53.914929 | 6.206900 | 2.0 | 8.656 | 2 | 34.738 | 8.826 | 32.640 | 2 |
| 2025-04-24T20:46:00 | 53.914933 | 6.209162 | 2.0 | 8.662 | 2 | 34.721 | 8.826 | 32.622 | 2 |
| 2025-04-24T20:47:00 | 53.914992 | 6.211425 | 2.0 | 8.669 | 2 | 34.713 | 8.832 | 32.608 | 2 |
| 2025-04-24T20:48:00 | 53.915043 | 6.213710 | 2.0 | 8.675 | 2 | 34.748 | 8.839 | 32.638 | 2 |
| 2025-04-24T20:49:00 | 53.915083 | 6.216037 | 2.0 | 8.680 | 2 | 34.755 | 8.845 | 32.640 | 2 |
| 2025-04-24T20:50:00 | 53.915069 | 6.218364 | 2.0 | 8.683 | 2 | 34.730 | 8.849 | 32.611 | 2 |
| 2025-04-24T20:51:00 | 53.915093 | 6.220678 | 2.0 | 8.689 | 2 | 34.765 | 8.853 | 32.643 | 2 |
| 2025-04-24T20:52:00 | 53.915107 | 6.222996 | 2.0 | 8.692 | 2 | 34.752 | 8.858 | 32.625 | 2 |
| 2025-04-24T20:53:00 | 53.915110 | 6.225300 | 2.0 | 8.693 | 2 | 34.763 | 8.861 | 32.634 | 2 |
| 2025-04-24T20:54:00 | 53.915104 | 6.227627 | 2.0 | 8.693 | 2 | 34.749 | 8.862 | 32.618 | 2 |
| 2025-04-24T20:55:00 | 53.915096 | 6.229963 | 2.0 | 8.688 | 2 | 34.748 | 8.861 | 32.618 | 2 |
| 2025-04-24T20:56:00 | 53.915101 | 6.232316 | 2.0 | 8.687 | 2 | 34.778 | 8.857 | 32.653 | 2 |
| 2025-04-24T20:57:00 | 53.915096 | 6.234675 | 2.0 | 8.687 | 2 | 34.774 | 8.857 | 32.649 | 2 |
| 2025-04-24T20:58:00 | 53.915099 | 6.237029 | 2.0 | 8.687 | 2 | 34.762 | 8.856 | 32.637 | 2 |
| 2025-04-24T20:59:00 | 53.915088 | 6.239363 | 2.0 | 8.687 | 2 | 34.790 | 8.856 | 32.667 | 2 |
| 2025-04-24T21:00:00 | 53.915085 | 6.241688 | 2.0 | 8.682 | 2 | 34.771 | 8.855 | 32.648 | 2 |
| 2025-04-24T21:01:00 | 53.915077 | 6.244016 | 2.0 | 8.677 | 2 | 34.780 | 8.851 | 32.661 | 2 |
| 2025-04-24T21:02:00 | 53.915092 | 6.246325 | 2.0 | 8.670 | 2 | 34.739 | 8.845 | 32.624 | 2 |
| 2025-04-24T21:03:00 | 53.915110 | 6.248620 | 2.0 | 8.664 | 2 | 34.754 | 8.838 | 32.646 | 2 |
| 2025-04-24T21:04:00 | 53.915110 | 6.250894 | 2.0 | 8.657 | 2 | 34.774 | 8.832 | 32.672 | 2 |
| 2025-04-24T21:05:00 | 53.915105 | 6.253180 | 2.0 | 8.653 | 2 | 34.766 | 8.827 | 32.668 | 2 |
| 2025-04-24T21:06:00 | 53.915099 | 6.255490 | 2.0 | 8.647 | 2 | 34.745 | 8.820 | 32.653 | 2 |
| 2025-04-24T21:07:00 | 53.915115 | 6.257808 | 2.0 | 8.634 | 2 | 34.763 | 8.816 | 32.675 | 2 |
| 2025-04-24T21:08:00 | 53.915099 | 6.260131 | 2.0 | 8.627 | 2 | 34.751 | 8.805 | 32.673 | 2 |
| 2025-04-24T21:09:00 | 53.915085 | 6.262445 | 2.0 | 8.612 | 2 | 34.742 | 8.793 | 32.675 | 2 |
| 2025-04-24T21:10:00 | 53.915092 | 6.264758 | 2.0 | 8.605 | 2 | 34.750 | 8.780 | 32.695 | 2 |
| 2025-04-24T21:11:00 | 53.915130 | 6.267087 | 2.0 | 8.595 | 2 | 34.747 | 8.774 | 32.697 | 2 |
| 2025-04-24T21:12:00 | 53.915133 | 6.269406 | 2.0 | 8.580 | 2 | 34.741 | 8.764 | 32.700 | 2 |
| 2025-04-24T21:13:00 | 53.915142 | 6.271727 | 2.0 | 8.566 | 2 | 34.735 | 8.749 | 32.708 | 2 |
| 2025-04-24T21:14:00 | 53.915131 | 6.274053 | 2.0 | 8.550 | 2 | 34.730 | 8.733 | 32.717 | 2 |
| 2025-04-24T21:15:00 | 53.915121 | 6.276382 | 2.0 | 8.543 | 2 | 34.727 | 8.719 | 32.727 | 2 |
| 2025-04-24T21:16:00 | 53.915108 | 6.278713 | 2.0 | 8.538 | 2 | 34.728 | 8.713 | 32.734 | 2 |
| 2025-04-24T21:17:00 | 53.915100 | 6.281036 | 2.0 | 8.540 | 2 | 34.730 | 8.709 | 32.740 | 2 |
| 2025-04-24T21:18:00 | 53.915091 | 6.283374 | 2.0 | 8.547 | 2 | 34.734 | 8.710 | 32.743 | 2 |
| 2025-04-24T21:19:00 | 53.915080 | 6.285713 | 2.0 | 8.567 | 2 | 34.748 | 8.720 | 32.748 | 2 |
| 2025-04-24T21:20:00 | 53.915095 | 6.288053 | 2.0 | 8.575 | 2 | 34.770 | 8.736 | 32.757 | 2 |
| 2025-04-24T21:21:00 | 53.915102 | 6.290402 | 2.0 | 8.575 | 2 | 34.785 | 8.744 | 32.765 | 2 |
| 2025-04-24T21:22:00 | 53.915121 | 6.292744 | 2.0 | 8.580 | 2 | 34.793 | 8.744 | 32.773 | 2 |
| 2025-04-24T21:23:00 | 53.915114 | 6.295089 | 2.0 | 8.575 | 2 | 34.809 | 8.749 | 32.785 | 2 |
| 2025-04-24T21:24:00 | 53.915131 | 6.297427 | 2.0 | 8.562 | 2 | 34.816 | 8.741 | 32.800 | 2 |
| 2025-04-24T21:25:00 | 53.915199 | 6.299771 | 2.0 | 8.540 | 2 | 34.816 | 8.729 | 32.811 | 2 |
| 2025-04-24T21:26:00 | 53.915503 | 6.301928 | 2.0 | 8.521 | 2 | 34.816 | 8.707 | 32.832 | 2 |
| 2025-04-24T21:27:00 | 53.916190 | 6.303983 | 2.0 | 8.523 | 2 | 34.835 | 8.693 | 32.864 | 2 |
| 2025-04-24T21:28:00 | 53.916889 | 6.306326 | 2.0 | 8.488 | 2 | 34.859 | 8.686 | 32.896 | 2 |
| 2025-04-24T21:29:00 | 53.916922 | 6.309026 | 2.0 | 8.461 | 2 | 34.845 | 8.653 | 32.912 | 2 |
| 2025-04-24T21:30:00 | 53.915711 | 6.310949 | 2.0 | 8.462 | 2 | 34.840 | 8.632 | 32.926 | 2 |
| 2025-04-24T21:31:00 | 53.914050 | 6.310731 | 2.0 | 8.491 | 2 | 34.840 | 8.635 | 32.924 | 2 |
| 2025-04-24T21:32:00 | 53.913002 | 6.308618 | 2.0 | 8.529 | 2 | 34.851 | 8.667 | 32.905 | 2 |
| 2025-04-24T21:33:00 | 53.912855 | 6.305968 | 2.0 | 8.533 | 2 | 34.864 | 8.698 | 32.890 | 2 |
| 2025-04-24T21:34:00 | 53.912814 | 6.303265 | 2.0 | 8.523 | 2 | 34.848 | 8.698 | 32.873 | 2 |
| 2025-04-24T21:35:00 | 53.912776 | 6.300709 | 2.0 | 8.548 | 2 | 34.819 | 8.699 | 32.842 | 2 |
| 2025-04-24T21:36:00 | 53.912677 | 6.298313 | 2.0 | 8.557 | 2 | 34.816 | 8.717 | 32.822 | 2 |
| 2025-04-24T21:37:00 | 53.912673 | 6.295954 | 2.0 | 8.564 | 2 | 34.814 | 8.727 | 32.811 | 2 |
| 2025-04-24T21:38:00 | 53.912697 | 6.293587 | 2.0 | 8.570 | 2 | 34.811 | 8.734 | 32.801 | 2 |
| 2025-04-24T21:39:00 | 53.912686 | 6.291201 | 2.0 | 8.574 | 2 | 34.806 | 8.740 | 32.790 | 2 |
| 2025-04-24T21:40:00 | 53.912637 | 6.288806 | 2.0 | 8.574 | 2 | 34.802 | 8.743 | 32.784 | 2 |
| 2025-04-24T21:41:00 | 53.912610 | 6.286404 | 2.0 | 8.572 | 2 | 34.796 | 8.743 | 32.777 | 2 |
| 2025-04-24T21:42:00 | 53.912587 | 6.283988 | 2.0 | 8.566 | 2 | 34.788 | 8.740 | 32.772 | 2 |
| 2025-04-24T21:43:00 | 53.912568 | 6.281576 | 2.0 | 8.556 | 2 | 34.778 | 8.734 | 32.767 | 2 |
| 2025-04-24T21:44:00 | 53.912584 | 6.279174 | 2.0 | 8.548 | 2 | 34.763 | 8.725 | 32.759 | 2 |
| 2025-04-24T21:45:00 | 53.912617 | 6.276775 | 2.0 | 8.542 | 2 | 34.750 | 8.717 | 32.753 | 2 |
| 2025-04-24T21:46:00 | 53.912631 | 6.274383 | 2.0 | 8.533 | 2 | 34.740 | 8.710 | 32.749 | 2 |
| 2025-04-24T21:47:00 | 53.912641 | 6.271981 | 2.0 | 8.531 | 2 | 34.728 | 8.703 | 32.743 | 2 |
| 2025-04-24T21:48:00 | 53.912640 | 6.269576 | 2.0 | 8.534 | 2 | 34.720 | 8.701 | 32.737 | 2 |
| 2025-04-24T21:49:00 | 53.912638 | 6.267175 | 2.0 | 8.539 | 2 | 34.717 | 8.705 | 32.730 | 2 |
| 2025-04-24T21:50:00 | 53.912642 | 6.264768 | 2.0 | 8.549 | 2 | 34.717 | 8.708 | 32.727 | 2 |
| 2025-04-24T21:51:00 | 53.912654 | 6.262340 | 2.0 | 8.564 | 2 | 34.720 | 8.721 | 32.718 | 2 |
| 2025-04-24T21:52:00 | 53.912637 | 6.259890 | 2.0 | 8.572 | 2 | 34.724 | 8.734 | 32.710 | 2 |
| 2025-04-24T21:53:00 | 53.912626 | 6.257459 | 2.0 | 8.587 | 2 | 34.726 | 8.743 | 32.704 | 2 |
| 2025-04-24T21:54:00 | 53.912639 | 6.255048 | 2.0 | 8.606 | 2 | 34.732 | 8.758 | 32.696 | 2 |
| 2025-04-24T21:55:00 | 53.912686 | 6.252633 | 2.0 | 8.598 | 2 | 34.740 | 8.774 | 32.690 | 2 |
| 2025-04-24T21:56:00 | 53.912700 | 6.250200 | 2.0 | 8.600 | 2 | 34.517 | 8.766 | 32.464 | 2 |
| 2025-04-24T21:57:00 | 53.912691 | 6.247760 | 2.0 | 8.616 | 2 | 34.739 | 8.773 | 32.690 | 2 |
| 2025-04-24T21:58:00 | 53.912680 | 6.245306 | 2.0 | 8.639 | 2 | 34.649 | 8.785 | 32.585 | 2 |
| 2025-04-24T21:59:00 | 53.912691 | 6.242864 | 2.0 | 8.635 | 2 | 34.757 | 8.810 | 32.675 | 2 |
| 2025-04-24T22:00:00 | 53.912694 | 6.240453 | 2.0 | 8.639 | 2 | 34.255 | 8.800 | 32.160 | 2 |
| 2025-04-24T22:01:00 | 53.912665 | 6.238078 | 2.0 | 8.651 | 2 | 34.758 | 8.812 | 32.674 | 2 |
| 2025-04-24T22:02:00 | 53.912671 | 6.235738 | 2.0 | 8.655 | 2 | 34.763 | 8.818 | 32.673 | 2 |
| 2025-04-24T22:03:00 | 53.912698 | 6.233430 | 2.0 | 8.664 | 2 | 34.767 | 8.825 | 32.671 | 2 |
| 2025-04-24T22:04:00 | 53.912723 | 6.231130 | 2.0 | 8.665 | 2 | 34.632 | 8.832 | 32.524 | 2 |
| 2025-04-24T22:05:00 | 53.912736 | 6.228817 | 2.0 | 8.676 | 2 | 34.773 | 8.836 | 32.667 | 2 |
| 2025-04-24T22:06:00 | 53.912716 | 6.226484 | 2.0 | 8.684 | 2 | 34.554 | 8.845 | 32.431 | 2 |
| 2025-04-24T22:07:00 | 53.912683 | 6.224128 | 2.0 | 8.684 | 2 | 34.786 | 8.852 | 32.666 | 2 |
| 2025-04-24T22:08:00 | 53.912640 | 6.221756 | 2.0 | 8.690 | 2 | 34.611 | 8.853 | 32.483 | 2 |
| 2025-04-24T22:09:00 | 53.912583 | 6.219396 | 2.0 | 8.687 | 2 | 34.646 | 8.859 | 32.514 | 2 |
| 2025-04-24T22:10:00 | 53.912565 | 6.217051 | 2.0 | 8.681 | 2 | 34.747 | 8.853 | 32.625 | 2 |
| 2025-04-24T22:11:00 | 53.912566 | 6.214734 | 2.0 | 8.698 | 2 | 34.610 | 8.854 | 32.481 | 2 |
| 2025-04-24T22:12:00 | 53.912603 | 6.212453 | 2.0 | 8.695 | 2 | 34.677 | 8.864 | 32.541 | 2 |
| 2025-04-24T22:13:00 | 53.912628 | 6.210174 | 2.0 | 8.693 | 2 | 34.643 | 8.863 | 32.507 | 2 |
| 2025-04-24T22:14:00 | 53.912605 | 6.207891 | 2.0 | 8.693 | 2 | 34.764 | 8.861 | 32.635 | 2 |
| 2025-04-24T22:15:00 | 53.912594 | 6.205568 | 2.0 | 8.694 | 2 | 34.494 | 8.860 | 32.355 | 2 |
| 2025-04-24T22:16:00 | 53.912577 | 6.202866 | 2.0 | 8.693 | 2 | 34.602 | 8.862 | 32.465 | 2 |
| 2025-04-24T22:17:00 | 53.912594 | 6.200151 | 2.0 | 8.691 | 2 | 34.679 | 8.861 | 32.546 | 2 |
| 2025-04-24T22:18:00 | 53.912517 | 6.197571 | 2.0 | 8.689 | 2 | 34.685 | 8.859 | 32.554 | 2 |
| 2025-04-24T22:19:00 | 53.912204 | 6.195073 | 2.0 | 8.687 | 2 | 34.607 | 8.857 | 32.475 | 2 |
| 2025-04-24T22:20:00 | 53.911725 | 6.192645 | 2.0 | 8.682 | 2 | 34.638 | 8.855 | 32.509 | 2 |
| 2025-04-24T22:21:00 | 53.911128 | 6.190200 | 2.0 | 8.673 | 2 | 34.816 | 8.850 | 32.699 | 2 |
| 2025-04-24T22:22:00 | 53.910600 | 6.187628 | 2.0 | 8.663 | 2 | 34.720 | 8.839 | 32.609 | 2 |
| 2025-04-24T22:23:00 | 53.910976 | 6.184945 | 2.0 | 8.658 | 2 | 34.784 | 8.830 | 32.684 | 2 |
| 2025-04-24T22:24:00 | 53.912245 | 6.183581 | 2.0 | 8.663 | 2 | 34.750 | 8.827 | 32.652 | 2 |
| 2025-04-24T22:25:00 | 53.913469 | 6.184440 | 2.0 | 8.672 | 2 | 34.753 | 8.833 | 32.649 | 2 |
| 2025-04-24T22:26:00 | 53.913912 | 6.186532 | 2.0 | 8.679 | 2 | 34.717 | 8.843 | 32.602 | 2 |
| 2025-04-24T22:27:00 | 53.914072 | 6.188529 | 2.0 | 8.681 | 2 | 34.809 | 8.847 | 32.695 | 2 |
| 2025-04-24T22:28:00 | 53.914266 | 6.190506 | 2.0 | 8.682 | 2 | 34.799 | 8.849 | 32.682 | 2 |
| 2025-04-24T22:29:00 | 53.914270 | 6.192559 | 2.0 | 8.681 | 2 | 34.802 | 8.849 | 32.686 | 2 |
| 2025-04-24T22:30:00 | 53.914318 | 6.194804 | 2.0 | 8.681 | 2 | 34.736 | 8.849 | 32.617 | 2 |
| 2025-04-24T22:31:00 | 53.914373 | 6.197179 | 2.0 | 8.680 | 2 | 34.684 | 8.849 | 32.563 | 2 |
| 2025-04-24T22:32:00 | 53.914370 | 6.199524 | 2.0 | 8.681 | 2 | 34.718 | 8.850 | 32.597 | 2 |
| 2025-04-24T22:33:00 | 53.914331 | 6.201853 | 2.0 | 8.681 | 2 | 34.663 | 8.851 | 32.539 | 2 |
| 2025-04-24T22:34:00 | 53.914286 | 6.204156 | 2.0 | 8.683 | 2 | 34.639 | 8.849 | 32.516 | 2 |
| 2025-04-24T22:35:00 | 53.914253 | 6.206408 | 2.0 | 8.677 | 2 | 34.691 | 8.851 | 32.568 | 2 |
| 2025-04-24T22:36:00 | 53.914249 | 6.208626 | 2.0 | 8.661 | 2 | 34.725 | 8.842 | 32.612 | 2 |
| 2025-04-24T22:37:00 | 53.914259 | 6.210834 | 2.0 | 8.668 | 2 | 34.643 | 8.831 | 32.536 | 2 |
| 2025-04-24T22:38:00 | 53.914297 | 6.213057 | 2.0 | 8.655 | 2 | 34.648 | 8.835 | 32.538 | 2 |
| 2025-04-24T22:39:00 | 53.914322 | 6.215292 | 2.0 | 8.652 | 2 | 34.582 | 8.825 | 32.478 | 2 |
| 2025-04-24T22:40:00 | 53.914352 | 6.217537 | 2.0 | 8.640 | 2 | 34.639 | 8.819 | 32.543 | 2 |
| 2025-04-24T22:41:00 | 53.914344 | 6.219818 | 2.0 | 8.620 | 2 | 34.668 | 8.807 | 32.584 | 2 |
| 2025-04-24T22:42:00 | 53.914302 | 6.222099 | 2.0 | 8.618 | 2 | 34.607 | 8.786 | 32.540 | 2 |
| 2025-04-24T22:43:00 | 53.914303 | 6.224371 | 2.0 | 8.608 | 2 | 34.623 | 8.789 | 32.554 | 2 |
| 2025-04-24T22:44:00 | 53.914295 | 6.226653 | 2.0 | 8.587 | 2 | 34.650 | 8.771 | 32.599 | 2 |
| 2025-04-24T22:45:00 | 53.914269 | 6.228958 | 2.0 | 8.573 | 2 | 34.577 | 8.755 | 32.537 | 2 |
| 2025-04-24T22:46:00 | 53.914279 | 6.231268 | 2.0 | 8.553 | 2 | 34.642 | 8.740 | 32.619 | 2 |
| 2025-04-24T22:47:00 | 53.914306 | 6.233583 | 2.0 | 8.536 | 2 | 34.633 | 8.721 | 32.627 | 2 |
| 2025-04-24T22:48:00 | 53.914304 | 6.235885 | 2.0 | 8.529 | 2 | 34.604 | 8.705 | 32.611 | 2 |
| 2025-04-24T22:49:00 | 53.914276 | 6.238179 | 2.0 | 8.529 | 2 | 34.634 | 8.699 | 32.648 | 2 |
| 2025-04-24T22:50:00 | 53.914291 | 6.240486 | 2.0 | 8.537 | 2 | 34.655 | 8.700 | 32.669 | 2 |
| 2025-04-24T22:51:00 | 53.914293 | 6.242797 | 2.0 | 8.542 | 2 | 34.681 | 8.706 | 32.691 | 2 |
| 2025-04-24T22:52:00 | 53.914272 | 6.245107 | 2.0 | 8.548 | 2 | 34.686 | 8.713 | 32.690 | 2 |
| 2025-04-24T22:53:00 | 53.914257 | 6.247402 | 2.0 | 8.550 | 2 | 34.708 | 8.717 | 32.709 | 2 |
| 2025-04-24T22:54:00 | 53.914261 | 6.249668 | 2.0 | 8.548 | 2 | 34.725 | 8.717 | 32.727 | 2 |
| 2025-04-24T22:55:00 | 53.914280 | 6.251918 | 2.0 | 8.543 | 2 | 34.729 | 8.717 | 32.731 | 2 |
| 2025-04-24T22:56:00 | 53.914325 | 6.254170 | 2.0 | 8.526 | 2 | 34.759 | 8.708 | 32.771 | 2 |
| 2025-04-24T22:57:00 | 53.914334 | 6.256440 | 2.0 | 8.511 | 2 | 34.729 | 8.692 | 32.754 | 2 |
| 2025-04-24T22:58:00 | 53.914318 | 6.258730 | 2.0 | 8.497 | 2 | 34.767 | 8.678 | 32.807 | 2 |
| 2025-04-24T22:59:00 | 53.914301 | 6.261049 | 2.0 | 8.480 | 2 | 34.769 | 8.665 | 32.821 | 2 |
| 2025-04-24T23:00:00 | 53.914307 | 6.263377 | 2.0 | 8.462 | 2 | 34.762 | 8.646 | 32.832 | 2 |
| 2025-04-24T23:01:00 | 53.914335 | 6.265708 | 2.0 | 8.470 | 2 | 34.750 | 8.630 | 32.834 | 2 |
| 2025-04-24T23:02:00 | 53.914341 | 6.268030 | 2.0 | 8.447 | 2 | 34.777 | 8.638 | 32.855 | 2 |
| 2025-04-24T23:03:00 | 53.914336 | 6.270347 | 2.0 | 8.431 | 2 | 34.776 | 8.613 | 32.877 | 2 |
| 2025-04-24T23:04:00 | 53.914314 | 6.272681 | 2.0 | 8.415 | 2 | 34.787 | 8.598 | 32.902 | 2 |
| 2025-04-24T23:05:00 | 53.914284 | 6.275032 | 2.0 | 8.404 | 2 | 34.769 | 8.584 | 32.897 | 2 |
| 2025-04-24T23:06:00 | 53.914303 | 6.277382 | 2.0 | 8.392 | 2 | 34.777 | 8.572 | 32.916 | 2 |
| 2025-04-24T23:07:00 | 53.914307 | 6.279711 | 2.0 | 8.382 | 2 | 34.780 | 8.561 | 32.930 | 2 |
| 2025-04-24T23:08:00 | 53.914308 | 6.282031 | 2.0 | 8.378 | 2 | 34.777 | 8.552 | 32.935 | 2 |
| 2025-04-24T23:09:00 | 53.914302 | 6.284363 | 2.0 | 8.383 | 2 | 34.780 | 8.549 | 32.941 | 2 |
| 2025-04-24T23:10:00 | 53.914304 | 6.286682 | 2.0 | 8.383 | 2 | 34.778 | 8.553 | 32.935 | 2 |
| 2025-04-24T23:11:00 | 53.914284 | 6.288979 | 2.0 | 8.386 | 2 | 34.783 | 8.553 | 32.940 | 2 |
| 2025-04-24T23:12:00 | 53.914334 | 6.291265 | 2.0 | 8.384 | 2 | 34.787 | 8.555 | 32.943 | 2 |
| 2025-04-24T23:13:00 | 53.914326 | 6.293584 | 2.0 | 8.389 | 2 | 34.783 | 8.554 | 32.939 | 2 |
| 2025-04-24T23:14:00 | 53.914271 | 6.295875 | 2.0 | 8.411 | 2 | 34.795 | 8.560 | 32.946 | 2 |
| 2025-04-24T23:15:00 | 53.914278 | 6.298142 | 2.0 | 8.433 | 2 | 34.810 | 8.584 | 32.940 | 2 |
| 2025-04-24T23:16:00 | 53.914348 | 6.300389 | 2.0 | 8.449 | 2 | 34.826 | 8.603 | 32.939 | 2 |
| 2025-04-24T23:17:00 | 53.914693 | 6.302489 | 2.0 | 8.539 | 2 | 34.840 | 8.625 | 32.933 | 2 |
| 2025-04-24T23:18:00 | 53.915178 | 6.304532 | 2.0 | 8.552 | 2 | 34.887 | 8.704 | 32.909 | 2 |
| 2025-04-24T23:19:00 | 53.915664 | 6.306573 | 2.0 | 8.553 | 2 | 34.888 | 8.719 | 32.896 | 2 |
| 2025-04-24T23:20:00 | 53.916103 | 6.308693 | 2.0 | 8.532 | 2 | 34.870 | 8.715 | 32.881 | 2 |
| 2025-04-24T23:21:00 | 53.915673 | 6.311118 | 2.0 | 8.506 | 2 | 34.842 | 8.695 | 32.870 | 2 |
| 2025-04-24T23:22:00 | 53.914201 | 6.312341 | 2.0 | 8.484 | 2 | 34.819 | 8.674 | 32.865 | 2 |
| 2025-04-24T23:23:00 | 53.912606 | 6.311151 | 2.0 | 8.491 | 2 | 34.793 | 8.655 | 32.856 | 2 |
| 2025-04-24T23:24:00 | 53.912017 | 6.308533 | 2.0 | 8.520 | 2 | 34.798 | 8.667 | 32.850 | 2 |
| 2025-04-24T23:25:00 | 53.911968 | 6.305870 | 2.0 | 8.525 | 2 | 34.823 | 8.689 | 32.856 | 2 |
| 2025-04-24T23:26:00 | 53.911993 | 6.303284 | 2.0 | 8.527 | 2 | 34.837 | 8.694 | 32.866 | 2 |
| 2025-04-24T23:27:00 | 53.911986 | 6.300772 | 2.0 | 8.520 | 2 | 34.843 | 8.693 | 32.873 | 2 |
| 2025-04-24T23:28:00 | 53.911947 | 6.298305 | 2.0 | 8.529 | 2 | 34.842 | 8.689 | 32.876 | 2 |
| 2025-04-24T23:29:00 | 53.911942 | 6.295879 | 2.0 | 8.517 | 2 | 34.854 | 8.695 | 32.883 | 2 |
| 2025-04-24T23:30:00 | 53.911980 | 6.293486 | 2.0 | 8.495 | 2 | 34.853 | 8.683 | 32.893 | 2 |
| 2025-04-24T23:31:00 | 53.911947 | 6.291120 | 2.0 | 8.499 | 2 | 34.845 | 8.666 | 32.900 | 2 |
| 2025-04-24T23:32:00 | 53.911865 | 6.288734 | 2.0 | 8.496 | 2 | 34.852 | 8.667 | 32.906 | 2 |
| 2025-04-24T23:33:00 | 53.911831 | 6.286351 | 2.0 | 8.468 | 2 | 34.855 | 8.660 | 32.916 | 2 |
| 2025-04-24T23:34:00 | 53.911851 | 6.284003 | 2.0 | 8.429 | 2 | 34.838 | 8.632 | 32.924 | 2 |
| 2025-04-24T23:35:00 | 53.911885 | 6.281686 | 2.0 | 8.408 | 2 | 34.812 | 8.598 | 32.929 | 2 |
| 2025-04-24T23:36:00 | 53.911897 | 6.279361 | 2.0 | 8.393 | 2 | 34.793 | 8.575 | 32.930 | 2 |
| 2025-04-24T23:37:00 | 53.911876 | 6.277047 | 2.0 | 8.388 | 2 | 34.781 | 8.565 | 32.927 | 2 |
| 2025-04-24T23:38:00 | 53.911872 | 6.274723 | 2.0 | 8.386 | 2 | 34.776 | 8.558 | 32.928 | 2 |
| 2025-04-24T23:39:00 | 53.911873 | 6.272399 | 2.0 | 8.390 | 2 | 34.774 | 8.556 | 32.928 | 2 |
| 2025-04-24T23:40:00 | 53.911856 | 6.270068 | 2.0 | 8.393 | 2 | 34.769 | 8.560 | 32.919 | 2 |
| 2025-04-24T23:41:00 | 53.911822 | 6.267736 | 2.0 | 8.397 | 2 | 34.774 | 8.563 | 32.921 | 2 |
| 2025-04-24T23:42:00 | 53.911820 | 6.265404 | 2.0 | 8.394 | 2 | 34.778 | 8.565 | 32.924 | 2 |
| 2025-04-24T23:43:00 | 53.911821 | 6.263084 | 2.0 | 8.394 | 2 | 34.776 | 8.562 | 32.924 | 2 |
| 2025-04-24T23:44:00 | 53.911837 | 6.260776 | 2.0 | 8.401 | 2 | 34.777 | 8.565 | 32.923 | 2 |
| 2025-04-24T23:45:00 | 53.911833 | 6.258461 | 2.0 | 8.398 | 2 | 34.775 | 8.569 | 32.917 | 2 |
| 2025-04-24T23:46:00 | 53.911831 | 6.256158 | 2.0 | 8.396 | 2 | 34.764 | 8.568 | 32.906 | 2 |
| 2025-04-24T23:47:00 | 53.911834 | 6.253867 | 2.0 | 8.388 | 2 | 34.754 | 8.562 | 32.901 | 2 |
| 2025-04-24T23:48:00 | 53.911816 | 6.251584 | 2.0 | 8.391 | 2 | 34.745 | 8.559 | 32.895 | 2 |
| 2025-04-24T23:49:00 | 53.911819 | 6.249316 | 2.0 | 8.390 | 2 | 34.742 | 8.559 | 32.892 | 2 |
| 2025-04-24T23:50:00 | 53.911842 | 6.247044 | 2.0 | 8.389 | 2 | 34.737 | 8.558 | 32.887 | 2 |
| 2025-04-24T23:51:00 | 53.911859 | 6.244754 | 2.0 | 8.398 | 2 | 34.736 | 8.560 | 32.884 | 2 |
| 2025-04-24T23:52:00 | 53.911853 | 6.242444 | 2.0 | 8.408 | 2 | 34.743 | 8.568 | 32.884 | 2 |
| 2025-04-24T23:53:00 | 53.911837 | 6.240118 | 2.0 | 8.411 | 2 | 34.750 | 8.577 | 32.883 | 2 |
| 2025-04-24T23:54:00 | 53.911841 | 6.237778 | 2.0 | 8.418 | 2 | 34.749 | 8.580 | 32.879 | 2 |
| 2025-04-24T23:55:00 | 53.911841 | 6.235407 | 2.0 | 8.418 | 2 | 34.750 | 8.584 | 32.877 | 2 |
| 2025-04-24T23:56:00 | 53.911830 | 6.233001 | 2.0 | 8.423 | 2 | 34.748 | 8.587 | 32.872 | 2 |
| 2025-04-24T23:57:00 | 53.911818 | 6.230575 | 2.0 | 8.430 | 2 | 34.748 | 8.592 | 32.867 | 2 |
| 2025-04-24T23:58:00 | 53.911814 | 6.228142 | 2.0 | 8.439 | 2 | 34.753 | 8.600 | 32.865 | 2 |
| 2025-04-24T23:59:00 | 53.911818 | 6.225692 | 2.0 | 8.445 | 2 | 34.755 | 8.608 | 32.860 | 2 |
| 2025-04-25T00:00:00 | 53.911819 | 6.223233 | 2.0 | 8.456 | 2 | 34.752 | 8.615 | 32.850 | 2 |
| 2025-04-25T00:01:00 | 53.911845 | 6.220793 | 2.0 | 8.455 | 2 | 34.752 | 8.624 | 32.842 | 2 |
| 2025-04-25T00:02:00 | 53.911841 | 6.218375 | 2.0 | 8.449 | 2 | 34.748 | 8.621 | 32.840 | 2 |
| 2025-04-25T00:03:00 | 53.911857 | 6.215987 | 2.0 | 8.462 | 2 | 34.743 | 8.619 | 32.837 | 2 |
| 2025-04-25T00:04:00 | 53.911879 | 6.213590 | 2.0 | 8.466 | 2 | 34.748 | 8.630 | 32.832 | 2 |
| 2025-04-25T00:05:00 | 53.911879 | 6.211175 | 2.0 | 8.474 | 2 | 34.751 | 8.636 | 32.829 | 2 |
| 2025-04-25T00:06:00 | 53.911871 | 6.208753 | 2.0 | 8.480 | 2 | 34.751 | 8.643 | 32.823 | 2 |
| 2025-04-25T00:07:00 | 53.911854 | 6.206334 | 2.0 | 8.490 | 2 | 34.751 | 8.648 | 32.818 | 2 |
| 2025-04-25T00:08:00 | 53.911850 | 6.203922 | 2.0 | 8.502 | 2 | 34.755 | 8.660 | 32.811 | 2 |
| 2025-04-25T00:09:00 | 53.911867 | 6.201501 | 2.0 | 8.513 | 2 | 34.754 | 8.671 | 32.800 | 2 |
| 2025-04-25T00:10:00 | 53.911756 | 6.199077 | 2.0 | 8.521 | 2 | 34.753 | 8.680 | 32.791 | 2 |
| 2025-04-25T00:11:00 | 53.911318 | 6.196632 | 2.0 | 8.524 | 2 | 34.749 | 8.688 | 32.779 | 2 |
| 2025-04-25T00:12:00 | 53.910779 | 6.194124 | 2.0 | 8.516 | 2 | 34.736 | 8.690 | 32.764 | 2 |
| 2025-04-25T00:13:00 | 53.910271 | 6.191564 | 2.0 | 8.516 | 2 | 34.718 | 8.683 | 32.751 | 2 |
| 2025-04-25T00:14:00 | 53.909851 | 6.188969 | 2.0 | 8.529 | 2 | 34.706 | 8.686 | 32.736 | 2 |
| 2025-04-25T00:15:00 | 53.910084 | 6.186459 | 2.0 | 8.535 | 2 | 34.695 | 8.697 | 32.714 | 2 |
| 2025-04-25T00:16:00 | 53.911205 | 6.185034 | 2.0 | 8.527 | 2 | 34.559 | 8.701 | 32.568 | 2 |
| 2025-04-25T00:17:00 | 53.912396 | 6.185764 | 2.0 | 8.516 | 2 | 34.613 | 8.692 | 32.633 | 2 |
| 2025-04-25T00:18:00 | 53.912996 | 6.187844 | 2.0 | 8.515 | 2 | 34.613 | 8.685 | 32.639 | 2 |
| 2025-04-25T00:19:00 | 53.913158 | 6.190030 | 2.0 | 8.519 | 2 | 34.593 | 8.685 | 32.618 | 2 |
| 2025-04-25T00:20:00 | 53.913341 | 6.192153 | 2.0 | 8.509 | 2 | 34.692 | 8.686 | 32.721 | 2 |
| 2025-04-25T00:21:00 | 53.913355 | 6.194441 | 2.0 | 8.494 | 2 | 34.614 | 8.675 | 32.650 | 2 |
| 2025-04-25T00:22:00 | 53.913430 | 6.196817 | 2.0 | 8.473 | 2 | 34.640 | 8.658 | 32.693 | 2 |
| 2025-04-25T00:23:00 | 53.913467 | 6.199259 | 2.0 | 8.461 | 2 | 34.711 | 8.641 | 32.783 | 2 |
| 2025-04-25T00:24:00 | 53.913462 | 6.201695 | 2.0 | 8.447 | 2 | 34.730 | 8.628 | 32.815 | 2 |
| 2025-04-25T00:25:00 | 53.913481 | 6.204063 | 2.0 | 8.439 | 2 | 34.591 | 8.615 | 32.681 | 2 |
| 2025-04-25T00:26:00 | 53.913472 | 6.206389 | 2.0 | 8.439 | 2 | 34.756 | 8.609 | 32.860 | 2 |
| 2025-04-25T00:27:00 | 53.913451 | 6.208684 | 2.0 | 8.422 | 2 | 34.730 | 8.606 | 32.835 | 2 |
| 2025-04-25T00:28:00 | 53.913435 | 6.210970 | 2.0 | 8.409 | 2 | 34.748 | 8.590 | 32.869 | 2 |
| 2025-04-25T00:29:00 | 53.913437 | 6.213275 | 2.0 | 8.398 | 2 | 34.736 | 8.577 | 32.868 | 2 |
| 2025-04-25T00:30:00 | 53.913445 | 6.215559 | 2.0 | 8.385 | 2 | 34.714 | 8.565 | 32.856 | 2 |
| 2025-04-25T00:31:00 | 53.913458 | 6.217839 | 2.0 | 8.381 | 2 | 34.578 | 8.554 | 32.724 | 2 |
| 2025-04-25T00:32:00 | 53.913441 | 6.220143 | 2.0 | 8.379 | 2 | 34.536 | 8.548 | 32.685 | 2 |
| 2025-04-25T00:33:00 | 53.913423 | 6.222468 | 2.0 | 8.388 | 2 | 34.558 | 8.549 | 32.707 | 2 |
| 2025-04-25T00:34:00 | 53.913453 | 6.224798 | 2.0 | 8.394 | 2 | 34.658 | 8.557 | 32.805 | 2 |
| 2025-04-25T00:35:00 | 53.913495 | 6.227107 | 2.0 | 8.400 | 2 | 34.635 | 8.564 | 32.774 | 2 |
| 2025-04-25T00:36:00 | 53.913546 | 6.229419 | 2.0 | 8.401 | 2 | 34.731 | 8.569 | 32.871 | 2 |
| 2025-04-25T00:37:00 | 53.913547 | 6.231762 | 2.0 | 8.398 | 2 | 34.776 | 8.569 | 32.918 | 2 |
| 2025-04-25T00:38:00 | 53.913536 | 6.234064 | 2.0 | 8.392 | 2 | 34.728 | 8.566 | 32.870 | 2 |
| 2025-04-25T00:39:00 | 53.913540 | 6.236259 | 2.0 | 8.379 | 2 | 34.791 | 8.558 | 32.944 | 2 |
| 2025-04-25T00:40:00 | 53.913533 | 6.238384 | 2.0 | 8.375 | 2 | 34.790 | 8.548 | 32.952 | 2 |
| 2025-04-25T00:41:00 | 53.913570 | 6.240452 | 2.0 | 8.370 | 2 | 34.736 | 8.543 | 32.900 | 2 |
| 2025-04-25T00:42:00 | 53.913585 | 6.242627 | 2.0 | 8.361 | 2 | 34.771 | 8.537 | 32.943 | 2 |
| 2025-04-25T00:43:00 | 53.913558 | 6.244890 | 2.0 | 8.363 | 2 | 34.758 | 8.530 | 32.935 | 2 |
| 2025-04-25T00:44:00 | 53.913573 | 6.247180 | 2.0 | 8.358 | 2 | 34.763 | 8.530 | 32.941 | 2 |
| 2025-04-25T00:45:00 | 53.913552 | 6.249469 | 2.0 | 8.440 | 2 | 34.747 | 8.528 | 32.926 | 2 |
| 2025-04-25T00:46:00 | 53.913515 | 6.251742 | 2.0 | 8.528 | 2 | 34.835 | 8.640 | 32.914 | 2 |
| 2025-04-25T00:47:00 | 53.913511 | 6.253976 | 2.0 | 8.520 | 2 | 34.859 | 8.690 | 32.892 | 2 |
| 2025-04-25T00:48:00 | 53.913559 | 6.256201 | 2.0 | 8.504 | 2 | 34.841 | 8.683 | 32.880 | 2 |
| 2025-04-25T00:49:00 | 53.913524 | 6.258455 | 2.0 | 8.488 | 2 | 34.820 | 8.670 | 32.870 | 2 |
| 2025-04-25T00:50:00 | 53.913481 | 6.260694 | 2.0 | 8.461 | 2 | 34.794 | 8.652 | 32.860 | 2 |
| 2025-04-25T00:51:00 | 53.913475 | 6.262923 | 2.0 | 8.461 | 2 | 34.765 | 8.630 | 32.850 | 2 |
| 2025-04-25T00:52:00 | 53.913511 | 6.265161 | 2.0 | 8.455 | 2 | 34.751 | 8.629 | 32.836 | 2 |
| 2025-04-25T00:53:00 | 53.913508 | 6.267427 | 2.0 | 8.441 | 2 | 34.740 | 8.621 | 32.832 | 2 |
| 2025-04-25T00:54:00 | 53.913500 | 6.269697 | 2.0 | 8.427 | 2 | 34.723 | 8.607 | 32.827 | 2 |
| 2025-04-25T00:55:00 | 53.913509 | 6.271974 | 2.0 | 8.428 | 2 | 34.710 | 8.596 | 32.823 | 2 |
| 2025-04-25T00:56:00 | 53.913492 | 6.274233 | 2.0 | 8.424 | 2 | 34.703 | 8.597 | 32.815 | 2 |
| 2025-04-25T00:57:00 | 53.913512 | 6.276456 | 2.0 | 8.419 | 2 | 34.701 | 8.592 | 32.818 | 2 |
| 2025-04-25T00:58:00 | 53.913528 | 6.278687 | 2.0 | 8.422 | 2 | 34.698 | 8.588 | 32.818 | 2 |
| 2025-04-25T00:59:00 | 53.913519 | 6.280913 | 2.0 | 8.421 | 2 | 34.699 | 8.590 | 32.817 | 2 |
| 2025-04-25T01:00:00 | 53.913521 | 6.283135 | 2.0 | 8.431 | 2 | 34.701 | 8.589 | 32.821 | 2 |
| 2025-04-25T01:01:00 | 53.913536 | 6.285359 | 2.0 | 8.511 | 2 | 34.705 | 8.622 | 32.794 | 2 |
| 2025-04-25T01:02:00 | 53.913547 | 6.287593 | 2.0 | 8.503 | 2 | 34.719 | 8.672 | 32.762 | 2 |
| 2025-04-25T01:03:00 | 53.913534 | 6.289842 | 2.0 | 8.543 | 2 | 34.716 | 8.674 | 32.757 | 2 |
| 2025-04-25T01:04:00 | 53.913516 | 6.292071 | 2.0 | 8.579 | 2 | 34.712 | 8.710 | 32.720 | 2 |
| 2025-04-25T01:05:00 | 53.913511 | 6.294274 | 2.0 | 8.593 | 2 | 34.719 | 8.749 | 32.691 | 2 |
| 2025-04-25T01:06:00 | 53.913500 | 6.296464 | 2.0 | 8.607 | 2 | 34.726 | 8.762 | 32.686 | 2 |
| 2025-04-25T01:07:00 | 53.913501 | 6.298655 | 2.0 | 8.616 | 2 | 34.723 | 8.776 | 32.670 | 2 |
| 2025-04-25T01:08:00 | 53.913615 | 6.300761 | 2.0 | 8.610 | 2 | 34.719 | 8.780 | 32.663 | 2 |
| 2025-04-25T01:09:00 | 53.914049 | 6.302843 | 2.0 | 8.583 | 2 | 34.720 | 8.770 | 32.673 | 2 |
| 2025-04-25T01:10:00 | 53.914455 | 6.305081 | 2.0 | 8.573 | 2 | 34.717 | 8.750 | 32.688 | 2 |
| 2025-04-25T01:11:00 | 53.914814 | 6.307378 | 2.0 | 8.567 | 2 | 34.716 | 8.739 | 32.697 | 2 |
| 2025-04-25T01:12:00 | 53.915125 | 6.309650 | 2.0 | 8.561 | 2 | 34.710 | 8.731 | 32.698 | 2 |
| 2025-04-25T01:13:00 | 53.914527 | 6.311887 | 2.0 | 8.556 | 2 | 34.706 | 8.730 | 32.695 | 2 |
| 2025-04-25T01:14:00 | 53.913014 | 6.312743 | 2.0 | 8.578 | 2 | 34.704 | 8.730 | 32.693 | 2 |
| 2025-04-25T01:15:00 | 53.911609 | 6.311318 | 2.0 | 8.583 | 2 | 34.701 | 8.743 | 32.678 | 2 |
| 2025-04-25T01:16:00 | 53.911225 | 6.308918 | 2.0 | 8.586 | 2 | 34.703 | 8.750 | 32.674 | 2 |
| 2025-04-25T01:17:00 | 53.911221 | 6.306589 | 2.0 | 8.569 | 2 | 34.708 | 8.751 | 32.678 | 2 |
| 2025-04-25T01:18:00 | 53.911204 | 6.304213 | 2.0 | 8.546 | 2 | 34.708 | 8.730 | 32.697 | 2 |
| 2025-04-25T01:19:00 | 53.911177 | 6.301812 | 2.0 | 8.558 | 2 | 34.705 | 8.715 | 32.708 | 2 |
| 2025-04-25T01:20:00 | 53.911154 | 6.299376 | 2.0 | 8.576 | 2 | 34.706 | 8.729 | 32.696 | 2 |
| 2025-04-25T01:21:00 | 53.911150 | 6.296929 | 2.0 | 8.583 | 2 | 34.710 | 8.742 | 32.688 | 2 |
| 2025-04-25T01:22:00 | 53.911152 | 6.294479 | 2.0 | 8.612 | 2 | 34.715 | 8.757 | 32.680 | 2 |
| 2025-04-25T01:23:00 | 53.911144 | 6.292023 | 2.0 | 8.617 | 2 | 34.723 | 8.780 | 32.667 | 2 |
| 2025-04-25T01:24:00 | 53.911122 | 6.289569 | 2.0 | 8.632 | 2 | 34.719 | 8.782 | 32.661 | 2 |
| 2025-04-25T01:25:00 | 53.911108 | 6.287159 | 2.0 | 8.629 | 2 | 34.725 | 8.800 | 32.650 | 2 |
| 2025-04-25T01:26:00 | 53.911112 | 6.284794 | 2.0 | 8.625 | 2 | 34.725 | 8.793 | 32.657 | 2 |
| 2025-04-25T01:27:00 | 53.911125 | 6.282465 | 2.0 | 8.625 | 2 | 34.727 | 8.792 | 32.660 | 2 |
| 2025-04-25T01:28:00 | 53.911120 | 6.280161 | 2.0 | 8.604 | 2 | 34.728 | 8.791 | 32.662 | 2 |
| 2025-04-25T01:29:00 | 53.911123 | 6.277897 | 2.0 | 8.566 | 2 | 34.723 | 8.764 | 32.681 | 2 |
| 2025-04-25T01:30:00 | 53.911132 | 6.275677 | 2.0 | 8.560 | 2 | 34.712 | 8.732 | 32.700 | 2 |
| 2025-04-25T01:31:00 | 53.911162 | 6.273499 | 2.0 | 8.564 | 2 | 34.713 | 8.730 | 32.702 | 2 |
| 2025-04-25T01:32:00 | 53.911178 | 6.271342 | 2.0 | 8.564 | 2 | 34.717 | 8.731 | 32.706 | 2 |
| 2025-04-25T01:33:00 | 53.911122 | 6.269170 | 2.0 | 8.564 | 2 | 34.713 | 8.732 | 32.701 | 2 |
| 2025-04-25T01:34:00 | 53.911036 | 6.267007 | 2.0 | 8.566 | 2 | 34.718 | 8.732 | 32.706 | 2 |
| 2025-04-25T01:35:00 | 53.910985 | 6.264857 | 2.0 | 8.565 | 2 | 34.725 | 8.734 | 32.711 | 2 |
| 2025-04-25T01:36:00 | 53.910992 | 6.262703 | 2.0 | 8.479 | 2 | 34.729 | 8.729 | 32.720 | 2 |
| 2025-04-25T01:37:00 | 53.911002 | 6.260558 | 2.0 | 8.424 | 2 | 34.710 | 8.629 | 32.793 | 2 |
| 2025-04-25T01:38:00 | 53.911011 | 6.258434 | 2.0 | 8.416 | 2 | 34.699 | 8.594 | 32.814 | 2 |
| 2025-04-25T01:39:00 | 53.911014 | 6.256319 | 2.0 | 8.413 | 2 | 34.694 | 8.587 | 32.815 | 2 |
| 2025-04-25T01:40:00 | 53.911037 | 6.254216 | 2.0 | 8.409 | 2 | 34.689 | 8.582 | 32.814 | 2 |
| 2025-04-25T01:41:00 | 53.911050 | 6.252120 | 2.0 | 8.407 | 2 | 34.694 | 8.578 | 32.823 | 2 |
| 2025-04-25T01:42:00 | 53.911074 | 6.250034 | 2.0 | 8.407 | 2 | 34.693 | 8.576 | 32.824 | 2 |
| 2025-04-25T01:43:00 | 53.911036 | 6.247934 | 2.0 | 8.408 | 2 | 34.693 | 8.576 | 32.824 | 2 |
| 2025-04-25T01:44:00 | 53.911001 | 6.245829 | 2.0 | 8.409 | 2 | 34.693 | 8.577 | 32.823 | 2 |
| 2025-04-25T01:45:00 | 53.910997 | 6.243714 | 2.0 | 8.409 | 2 | 34.693 | 8.577 | 32.823 | 2 |
| 2025-04-25T01:46:00 | 53.910991 | 6.241577 | 2.0 | 8.414 | 2 | 34.693 | 8.579 | 32.821 | 2 |
| 2025-04-25T01:47:00 | 53.910962 | 6.239432 | 2.0 | 8.420 | 2 | 34.696 | 8.583 | 32.821 | 2 |
| 2025-04-25T01:48:00 | 53.910952 | 6.237302 | 2.0 | 8.431 | 2 | 34.701 | 8.590 | 32.820 | 2 |
| 2025-04-25T01:49:00 | 53.910961 | 6.235182 | 2.0 | 8.441 | 2 | 34.712 | 8.600 | 32.822 | 2 |
| 2025-04-25T01:50:00 | 53.910972 | 6.233066 | 2.0 | 8.449 | 2 | 34.724 | 8.611 | 32.824 | 2 |
| 2025-04-25T01:51:00 | 53.910989 | 6.230957 | 2.0 | 8.454 | 2 | 34.736 | 8.617 | 32.831 | 2 |
| 2025-04-25T01:52:00 | 53.910999 | 6.228839 | 2.0 | 8.461 | 2 | 34.744 | 8.622 | 32.835 | 2 |
| 2025-04-25T01:53:00 | 53.911011 | 6.226734 | 2.0 | 8.484 | 2 | 34.760 | 8.633 | 32.842 | 2 |
| 2025-04-25T01:54:00 | 53.911010 | 6.224640 | 2.0 | 8.500 | 2 | 34.793 | 8.656 | 32.855 | 2 |
| 2025-04-25T01:55:00 | 53.910996 | 6.222553 | 2.0 | 8.498 | 2 | 34.812 | 8.665 | 32.866 | 2 |
| 2025-04-25T01:56:00 | 53.910971 | 6.220466 | 2.0 | 8.500 | 2 | 34.821 | 8.665 | 32.876 | 2 |
| 2025-04-25T01:57:00 | 53.910934 | 6.218371 | 2.0 | 8.495 | 2 | 34.830 | 8.667 | 32.883 | 2 |
| 2025-04-25T01:58:00 | 53.910908 | 6.216274 | 2.0 | 8.484 | 2 | 34.834 | 8.661 | 32.893 | 2 |
| 2025-04-25T01:59:00 | 53.910904 | 6.214178 | 2.0 | 8.476 | 2 | 34.837 | 8.652 | 32.905 | 2 |
| 2025-04-25T02:00:00 | 53.910912 | 6.212083 | 2.0 | 8.475 | 2 | 34.845 | 8.646 | 32.919 | 2 |
| 2025-04-25T02:01:00 | 53.910907 | 6.210001 | 2.0 | 8.453 | 2 | 34.847 | 8.639 | 32.927 | 2 |
| 2025-04-25T02:02:00 | 53.910887 | 6.207948 | 2.0 | 8.384 | 2 | 34.846 | 8.603 | 32.960 | 2 |
| 2025-04-25T02:03:00 | 53.910866 | 6.205947 | 2.0 | 8.380 | 2 | 34.822 | 8.557 | 32.978 | 2 |
| 2025-04-25T02:04:00 | 53.910946 | 6.204043 | 2.0 | 8.375 | 2 | 34.812 | 8.549 | 32.974 | 2 |
| 2025-04-25T02:05:00 | 53.910996 | 6.202139 | 2.0 | 8.368 | 2 | 34.805 | 8.543 | 32.973 | 2 |
| 2025-04-25T02:06:00 | 53.910982 | 6.200151 | 2.0 | 8.365 | 2 | 34.799 | 8.535 | 32.974 | 2 |
| 2025-04-25T02:07:00 | 53.911195 | 6.198286 | 2.0 | 8.362 | 2 | 34.795 | 8.533 | 32.972 | 2 |
| 2025-04-25T02:08:00 | 53.911664 | 6.196546 | 2.0 | 8.363 | 2 | 34.792 | 8.530 | 32.971 | 2 |
| 2025-04-25T02:09:00 | 53.912062 | 6.194682 | 2.0 | 8.363 | 2 | 34.793 | 8.530 | 32.972 | 2 |
| 2025-04-25T02:10:00 | 53.911855 | 6.192649 | 2.0 | 8.367 | 2 | 34.793 | 8.531 | 32.971 | 2 |
| 2025-04-25T02:11:00 | 53.911014 | 6.191331 | 2.0 | 8.391 | 2 | 34.791 | 8.540 | 32.961 | 2 |
| 2025-04-25T02:12:00 | 53.909918 | 6.191290 | 2.0 | 8.399 | 2 | 34.789 | 8.557 | 32.943 | 2 |
| 2025-04-25T02:13:00 | 53.909091 | 6.192512 | 2.0 | 8.396 | 2 | 34.791 | 8.564 | 32.938 | 2 |
| 2025-04-25T02:14:00 | 53.908777 | 6.194460 | 2.0 | 8.389 | 2 | 34.793 | 8.561 | 32.943 | 2 |
| 2025-04-25T02:15:00 | 53.908661 | 6.196698 | 2.0 | 8.379 | 2 | 34.794 | 8.555 | 32.950 | 2 |
| 2025-04-25T02:16:00 | 53.908667 | 6.198925 | 2.0 | 8.375 | 2 | 34.792 | 8.546 | 32.956 | 2 |
| 2025-04-25T02:17:00 | 53.908685 | 6.201146 | 2.0 | 8.378 | 2 | 34.797 | 8.543 | 32.964 | 2 |
| 2025-04-25T02:18:00 | 53.908687 | 6.203370 | 2.0 | 8.382 | 2 | 34.805 | 8.546 | 32.970 | 2 |
| 2025-04-25T02:19:00 | 53.908692 | 6.205621 | 2.0 | 8.422 | 2 | 34.819 | 8.561 | 32.971 | 2 |
| 2025-04-25T02:20:00 | 53.908671 | 6.207861 | 2.0 | 8.439 | 2 | 34.821 | 8.588 | 32.948 | 2 |
| 2025-04-25T02:21:00 | 53.908642 | 6.210065 | 2.0 | 8.463 | 2 | 34.817 | 8.606 | 32.927 | 2 |
| 2025-04-25T02:22:00 | 53.908639 | 6.212217 | 2.0 | 8.480 | 2 | 34.810 | 8.629 | 32.898 | 2 |
| 2025-04-25T02:23:00 | 53.908654 | 6.214348 | 2.0 | 8.497 | 2 | 34.806 | 8.649 | 32.875 | 2 |
| 2025-04-25T02:24:00 | 53.908653 | 6.216484 | 2.0 | 8.487 | 2 | 34.809 | 8.664 | 32.864 | 2 |
| 2025-04-25T02:25:00 | 53.908658 | 6.218641 | 2.0 | 8.460 | 2 | 34.782 | 8.649 | 32.850 | 2 |
| 2025-04-25T02:26:00 | 53.908640 | 6.220822 | 2.0 | 8.439 | 2 | 34.747 | 8.625 | 32.835 | 2 |
| 2025-04-25T02:27:00 | 53.908621 | 6.223008 | 2.0 | 8.421 | 2 | 34.722 | 8.603 | 32.830 | 2 |
| 2025-04-25T02:28:00 | 53.908621 | 6.225207 | 2.0 | 8.407 | 2 | 34.706 | 8.587 | 32.828 | 2 |
| 2025-04-25T02:29:00 | 53.908635 | 6.227404 | 2.0 | 8.399 | 2 | 34.697 | 8.573 | 32.831 | 2 |
| 2025-04-25T02:30:00 | 53.908684 | 6.229593 | 2.0 | 8.394 | 2 | 34.693 | 8.566 | 32.833 | 2 |
| 2025-04-25T02:31:00 | 53.908703 | 6.231815 | 2.0 | 8.392 | 2 | 34.689 | 8.562 | 32.833 | 2 |
| 2025-04-25T02:32:00 | 53.908674 | 6.234056 | 2.0 | 8.393 | 2 | 34.687 | 8.561 | 32.832 | 2 |
| 2025-04-25T02:33:00 | 53.908635 | 6.236303 | 2.0 | 8.396 | 2 | 34.686 | 8.561 | 32.831 | 2 |
| 2025-04-25T02:34:00 | 53.908606 | 6.238536 | 2.0 | 8.460 | 2 | 34.683 | 8.583 | 32.807 | 2 |
| 2025-04-25T02:35:00 | 53.908651 | 6.240770 | 2.0 | 8.579 | 2 | 34.686 | 8.639 | 32.758 | 2 |
| 2025-04-25T02:36:00 | 53.908682 | 6.242985 | 2.0 | 8.606 | 2 | 34.711 | 8.753 | 32.679 | 2 |
| 2025-04-25T02:37:00 | 53.908639 | 6.245175 | 2.0 | 8.577 | 2 | 34.485 | 8.763 | 32.434 | 2 |
| 2025-04-25T02:38:00 | 53.908609 | 6.247358 | 2.0 | 8.578 | 2 | 34.712 | 8.740 | 32.692 | 2 |
| 2025-04-25T02:39:00 | 53.908640 | 6.249543 | 2.0 | 8.590 | 2 | 34.704 | 8.746 | 32.678 | 2 |
| 2025-04-25T02:40:00 | 53.908679 | 6.251736 | 2.0 | 8.600 | 2 | 34.702 | 8.758 | 32.665 | 2 |
| 2025-04-25T02:41:00 | 53.908706 | 6.253928 | 2.0 | 8.605 | 2 | 34.702 | 8.767 | 32.657 | 2 |
| 2025-04-25T02:42:00 | 53.908701 | 6.256133 | 2.0 | 8.592 | 2 | 34.702 | 8.767 | 32.657 | 2 |
| 2025-04-25T02:43:00 | 53.908684 | 6.258348 | 2.0 | 8.594 | 2 | 34.698 | 8.759 | 32.660 | 2 |
| 2025-04-25T02:44:00 | 53.908670 | 6.260531 | 2.0 | 8.583 | 2 | 34.700 | 8.758 | 32.663 | 2 |
| 2025-04-25T02:45:00 | 53.908671 | 6.262734 | 2.0 | 8.581 | 2 | 34.490 | 8.750 | 32.451 | 2 |
| 2025-04-25T02:46:00 | 53.908657 | 6.264971 | 2.0 | 8.575 | 2 | 34.377 | 8.747 | 32.336 | 2 |
| 2025-04-25T02:47:00 | 53.908656 | 6.267227 | 2.0 | 8.569 | 2 | 34.592 | 8.741 | 32.566 | 2 |
| 2025-04-25T02:48:00 | 53.908660 | 6.269497 | 2.0 | 8.566 | 2 | 34.431 | 8.734 | 32.404 | 2 |
| 2025-04-25T02:49:00 | 53.908677 | 6.271771 | 2.0 | 8.564 | 2 | 34.442 | 8.734 | 32.415 | 2 |
| 2025-04-25T02:50:00 | 53.908668 | 6.273988 | 2.0 | 8.551 | 2 | 34.682 | 8.730 | 32.670 | 2 |
| 2025-04-25T02:51:00 | 53.908665 | 6.276166 | 2.0 | 8.885 | 2 | 34.669 | 8.757 | 32.632 | 2 |
| 2025-04-25T02:52:00 | 53.908693 | 6.278280 | 2.0 | 8.938 | 2 | 34.495 | 9.046 | 32.187 | 2 |
| 2025-04-25T02:53:00 | 53.908742 | 6.280358 | 2.0 | 8.928 | 2 | 34.415 | 9.092 | 32.062 | 2 |
| 2025-04-25T02:54:00 | 53.908764 | 6.282401 | 2.0 | 8.913 | 2 | 34.416 | 9.087 | 32.068 | 2 |
| 2025-04-25T02:55:00 | 53.908744 | 6.284420 | 2.0 | 8.882 | 2 | 34.414 | 9.070 | 32.081 | 2 |
| 2025-04-25T02:56:00 | 53.908704 | 6.286423 | 2.0 | 8.877 | 2 | 34.290 | 9.044 | 31.976 | 2 |
| 2025-04-25T02:57:00 | 53.908658 | 6.288457 | 2.0 | 8.890 | 2 | 34.547 | 9.047 | 32.240 | 2 |
| 2025-04-25T02:58:00 | 53.908634 | 6.290508 | 2.0 | 8.885 | 2 | 34.324 | 9.053 | 32.003 | 2 |
| 2025-04-25T02:59:00 | 53.908631 | 6.292577 | 2.0 | 8.863 | 2 | 34.479 | 9.044 | 32.172 | 2 |
| 2025-04-25T03:00:00 | 53.908657 | 6.294687 | 2.0 | 8.844 | 2 | 34.600 | 9.026 | 32.314 | 2 |
| 2025-04-25T03:01:00 | 53.908661 | 6.296830 | 2.0 | 8.834 | 2 | 34.423 | 9.009 | 32.145 | 2 |
| 2025-04-25T03:02:00 | 53.908636 | 6.298974 | 2.0 | 8.887 | 2 | 34.502 | 9.008 | 32.228 | 2 |
| 2025-04-25T03:03:00 | 53.908529 | 6.301097 | 2.0 | 8.922 | 2 | 34.360 | 9.054 | 32.040 | 2 |
| 2025-04-25T03:04:00 | 53.907847 | 6.302810 | 2.0 | 8.922 | 2 | 34.274 | 9.084 | 31.924 | 2 |
| 2025-04-25T03:05:00 | 53.906982 | 6.304326 | 2.0 | 8.938 | 2 | 34.413 | 9.089 | 32.063 | 2 |
| 2025-04-25T03:06:00 | 53.906566 | 6.306165 | 2.0 | 8.935 | 2 | 34.553 | 9.100 | 32.198 | 2 |
| 2025-04-25T03:07:00 | 53.906843 | 6.307982 | 2.0 | 8.949 | 2 | 34.440 | 9.102 | 32.079 | 2 |
| 2025-04-25T03:08:00 | 53.907724 | 6.309267 | 2.0 | 8.957 | 2 | 34.323 | 9.114 | 31.947 | 2 |
| 2025-04-25T03:09:00 | 53.908916 | 6.309497 | 2.0 | 8.963 | 2 | 34.341 | 9.122 | 31.959 | 2 |
| 2025-04-25T03:10:00 | 53.909931 | 6.308434 | 2.0 | 8.941 | 2 | 34.513 | 9.122 | 32.137 | 2 |
| 2025-04-25T03:11:00 | 53.910361 | 6.306489 | 2.0 | 8.941 | 2 | 34.496 | 9.104 | 32.135 | 2 |
| 2025-04-25T03:12:00 | 53.910295 | 6.304354 | 2.0 | 8.918 | 2 | 34.492 | 9.105 | 32.130 | 2 |
| 2025-04-25T03:13:00 | 53.910309 | 6.302126 | 2.0 | 8.901 | 2 | 34.471 | 9.081 | 32.130 | 2 |
| 2025-04-25T03:14:00 | 53.910379 | 6.299891 | 2.0 | 8.877 | 2 | 34.424 | 9.066 | 32.095 | 2 |
| 2025-04-25T03:15:00 | 53.910347 | 6.297670 | 2.0 | 8.830 | 2 | 34.430 | 9.034 | 32.130 | 2 |
| 2025-04-25T03:16:00 | 53.910351 | 6.295467 | 2.0 | 8.816 | 2 | 34.513 | 8.995 | 32.251 | 2 |
| 2025-04-25T03:17:00 | 53.910339 | 6.293295 | 2.0 | 8.795 | 2 | 34.541 | 8.981 | 32.293 | 2 |
| 2025-04-25T03:18:00 | 53.910301 | 6.291153 | 2.0 | 8.821 | 2 | 34.531 | 8.964 | 32.298 | 2 |
| 2025-04-25T03:19:00 | 53.910311 | 6.289011 | 2.0 | 8.840 | 2 | 34.533 | 8.989 | 32.278 | 2 |
| 2025-04-25T03:20:00 | 53.910350 | 6.286876 | 2.0 | 8.858 | 2 | 34.548 | 9.007 | 32.277 | 2 |
| 2025-04-25T03:21:00 | 53.910355 | 6.284761 | 2.0 | 8.864 | 2 | 34.516 | 9.025 | 32.227 | 2 |
| 2025-04-25T03:22:00 | 53.910360 | 6.282657 | 2.0 | 8.853 | 2 | 34.526 | 9.028 | 32.235 | 2 |
| 2025-04-25T03:23:00 | 53.910357 | 6.280570 | 2.0 | 8.868 | 2 | 34.496 | 9.022 | 32.209 | 2 |
| 2025-04-25T03:24:00 | 53.910365 | 6.278480 | 2.0 | 8.882 | 2 | 34.551 | 9.036 | 32.254 | 2 |
| 2025-04-25T03:25:00 | 53.910348 | 6.276381 | 2.0 | 8.885 | 2 | 34.564 | 9.048 | 32.256 | 2 |
| 2025-04-25T03:26:00 | 53.910340 | 6.274256 | 2.0 | 8.854 | 2 | 34.572 | 9.050 | 32.263 | 2 |
| 2025-04-25T03:27:00 | 53.910335 | 6.272114 | 2.0 | 8.646 | 2 | 34.602 | 8.973 | 32.364 | 2 |
| 2025-04-25T03:28:00 | 53.910304 | 6.269994 | 2.0 | 8.584 | 2 | 34.608 | 8.822 | 32.508 | 2 |
| 2025-04-25T03:29:00 | 53.910262 | 6.267891 | 2.0 | 8.555 | 2 | 34.659 | 8.742 | 32.635 | 2 |
| 2025-04-25T03:30:00 | 53.910258 | 6.265850 | 2.0 | 8.559 | 2 | 34.586 | 8.728 | 32.571 | 2 |
| 2025-04-25T03:31:00 | 53.910278 | 6.263859 | 2.0 | 8.565 | 2 | 34.604 | 8.729 | 32.589 | 2 |
| 2025-04-25T03:32:00 | 53.910306 | 6.261898 | 2.0 | 8.567 | 2 | 34.643 | 8.735 | 32.625 | 2 |
| 2025-04-25T03:33:00 | 53.910333 | 6.259932 | 2.0 | 8.567 | 2 | 34.656 | 8.735 | 32.638 | 2 |
| 2025-04-25T03:34:00 | 53.910328 | 6.257908 | 2.0 | 8.571 | 2 | 34.637 | 8.736 | 32.617 | 2 |
| 2025-04-25T03:35:00 | 53.910286 | 6.255845 | 2.0 | 8.573 | 2 | 34.648 | 8.738 | 32.627 | 2 |
| 2025-04-25T03:36:00 | 53.910248 | 6.253756 | 2.0 | 8.585 | 2 | 34.662 | 8.743 | 32.637 | 2 |
| 2025-04-25T03:37:00 | 53.910216 | 6.251681 | 2.0 | 8.580 | 2 | 34.669 | 8.752 | 32.636 | 2 |
| 2025-04-25T03:38:00 | 53.910207 | 6.249628 | 2.0 | 8.582 | 2 | 34.697 | 8.749 | 32.668 | 2 |
| 2025-04-25T03:39:00 | 53.910219 | 6.247581 | 2.0 | 8.563 | 2 | 34.663 | 8.745 | 32.636 | 2 |
| 2025-04-25T03:40:00 | 53.910227 | 6.245532 | 2.0 | 8.566 | 2 | 34.663 | 8.729 | 32.651 | 2 |
| 2025-04-25T03:41:00 | 53.910232 | 6.243477 | 2.0 | 8.583 | 2 | 34.686 | 8.736 | 32.669 | 2 |
| 2025-04-25T03:42:00 | 53.910275 | 6.241419 | 2.0 | 8.589 | 2 | 34.711 | 8.752 | 32.680 | 2 |
| 2025-04-25T03:43:00 | 53.910302 | 6.239344 | 2.0 | 8.475 | 2 | 34.711 | 8.747 | 32.685 | 2 |
| 2025-04-25T03:44:00 | 53.910256 | 6.237256 | 2.0 | 8.384 | 2 | 34.698 | 8.620 | 32.789 | 2 |
| 2025-04-25T03:45:00 | 53.910181 | 6.235171 | 2.0 | 8.385 | 2 | 34.679 | 8.558 | 32.826 | 2 |
| 2025-04-25T03:46:00 | 53.910170 | 6.233090 | 2.0 | 8.387 | 2 | 34.686 | 8.556 | 32.835 | 2 |
| 2025-04-25T03:47:00 | 53.910188 | 6.231020 | 2.0 | 8.391 | 2 | 34.686 | 8.558 | 32.834 | 2 |
| 2025-04-25T03:48:00 | 53.910213 | 6.228960 | 2.0 | 8.397 | 2 | 34.689 | 8.561 | 32.834 | 2 |
| 2025-04-25T03:49:00 | 53.910215 | 6.226911 | 2.0 | 8.410 | 2 | 34.693 | 8.568 | 32.832 | 2 |
| 2025-04-25T03:50:00 | 53.910213 | 6.224866 | 2.0 | 8.426 | 2 | 34.703 | 8.581 | 32.830 | 2 |
| 2025-04-25T03:51:00 | 53.910194 | 6.222811 | 2.0 | 8.434 | 2 | 34.717 | 8.594 | 32.833 | 2 |
| 2025-04-25T03:52:00 | 53.910168 | 6.220764 | 2.0 | 8.446 | 2 | 34.732 | 8.604 | 32.839 | 2 |
| 2025-04-25T03:53:00 | 53.910175 | 6.218716 | 2.0 | 8.449 | 2 | 34.751 | 8.615 | 32.849 | 2 |
| 2025-04-25T03:54:00 | 53.910207 | 6.216671 | 2.0 | 8.465 | 2 | 34.765 | 8.620 | 32.859 | 2 |
| 2025-04-25T03:55:00 | 53.910199 | 6.214616 | 2.0 | 8.466 | 2 | 34.798 | 8.632 | 32.882 | 2 |
| 2025-04-25T03:56:00 | 53.910180 | 6.212550 | 2.0 | 8.464 | 2 | 34.821 | 8.633 | 32.906 | 2 |
| 2025-04-25T03:57:00 | 53.910173 | 6.210479 | 2.0 | 8.463 | 2 | 34.826 | 8.633 | 32.911 | 2 |
| 2025-04-25T03:58:00 | 53.910169 | 6.208406 | 2.0 | 8.464 | 2 | 34.826 | 8.631 | 32.913 | 2 |
| 2025-04-25T03:59:00 | 53.910171 | 6.206335 | 2.0 | 8.458 | 2 | 34.838 | 8.631 | 32.925 | 2 |
| 2025-04-25T04:00:00 | 53.910139 | 6.204274 | 2.0 | 8.372 | 2 | 34.838 | 8.612 | 32.943 | 2 |
| 2025-04-25T04:01:00 | 53.910111 | 6.202222 | 2.0 | 8.369 | 2 | 34.834 | 8.549 | 32.998 | 2 |
| 2025-04-25T04:02:00 | 53.910145 | 6.200197 | 2.0 | 8.369 | 2 | 34.829 | 8.539 | 33.002 | 2 |
| 2025-04-25T04:03:00 | 53.910578 | 6.198487 | 2.0 | 8.374 | 2 | 34.829 | 8.539 | 33.002 | 2 |
| 2025-04-25T04:04:00 | 53.911150 | 6.196922 | 2.0 | 8.375 | 2 | 34.830 | 8.542 | 33.000 | 2 |
| 2025-04-25T04:05:00 | 53.911265 | 6.195043 | 2.0 | 8.363 | 2 | 34.829 | 8.543 | 32.998 | 2 |
| 2025-04-25T04:06:00 | 53.910567 | 6.193315 | 2.0 | 8.378 | 2 | 34.802 | 8.533 | 32.979 | 2 |
| 2025-04-25T04:07:00 | 53.909349 | 6.192849 | 2.0 | 8.384 | 2 | 34.800 | 8.548 | 32.963 | 2 |
| 2025-04-25T04:08:00 | 53.908259 | 6.193792 | 2.0 | 8.386 | 2 | 34.803 | 8.552 | 32.962 | 2 |
| 2025-04-25T04:09:00 | 53.907793 | 6.195504 | 2.0 | 8.384 | 2 | 34.792 | 8.555 | 32.948 | 2 |
| 2025-04-25T04:10:00 | 53.907749 | 6.197348 | 2.0 | 8.372 | 2 | 34.794 | 8.548 | 32.956 | 2 |
| 2025-04-25T04:11:00 | 53.907821 | 6.199379 | 2.0 | 8.367 | 2 | 34.797 | 8.539 | 32.968 | 2 |
| 2025-04-25T04:12:00 | 53.907833 | 6.201607 | 2.0 | 8.362 | 2 | 34.796 | 8.535 | 32.971 | 2 |
| 2025-04-25T04:13:00 | 53.907824 | 6.203904 | 2.0 | 8.358 | 2 | 34.800 | 8.529 | 32.981 | 2 |
| 2025-04-25T04:14:00 | 53.907842 | 6.206170 | 2.0 | 8.356 | 2 | 34.813 | 8.526 | 32.997 | 2 |
| 2025-04-25T04:15:00 | 53.907860 | 6.208405 | 2.0 | 8.386 | 2 | 34.815 | 8.526 | 32.999 | 2 |
| 2025-04-25T04:16:00 | 53.907885 | 6.210602 | 2.0 | 8.433 | 2 | 34.818 | 8.565 | 32.966 | 2 |
| 2025-04-25T04:17:00 | 53.907869 | 6.212764 | 2.0 | 8.447 | 2 | 34.825 | 8.602 | 32.939 | 2 |
| 2025-04-25T04:18:00 | 53.907799 | 6.214915 | 2.0 | 8.449 | 2 | 34.832 | 8.613 | 32.936 | 2 |
| 2025-04-25T04:19:00 | 53.907752 | 6.217054 | 2.0 | 8.453 | 2 | 34.818 | 8.616 | 32.918 | 2 |
| 2025-04-25T04:20:00 | 53.907733 | 6.219204 | 2.0 | 8.460 | 2 | 34.806 | 8.621 | 32.901 | 2 |
| 2025-04-25T04:21:00 | 53.907758 | 6.221357 | 2.0 | 8.465 | 2 | 34.799 | 8.628 | 32.887 | 2 |
| 2025-04-25T04:22:00 | 53.907805 | 6.223533 | 2.0 | 8.458 | 2 | 34.781 | 8.631 | 32.865 | 2 |
| 2025-04-25T04:23:00 | 53.907824 | 6.225694 | 2.0 | 8.453 | 2 | 34.763 | 8.624 | 32.853 | 2 |
| 2025-04-25T04:24:00 | 53.907821 | 6.227857 | 2.0 | 8.444 | 2 | 34.744 | 8.619 | 32.838 | 2 |
| 2025-04-25T04:25:00 | 53.907815 | 6.230024 | 2.0 | 8.434 | 2 | 34.731 | 8.610 | 32.833 | 2 |
| 2025-04-25T04:26:00 | 53.907821 | 6.232215 | 2.0 | 8.425 | 2 | 34.722 | 8.601 | 32.831 | 2 |
| 2025-04-25T04:27:00 | 53.907820 | 6.234403 | 2.0 | 8.416 | 2 | 34.716 | 8.592 | 32.833 | 2 |
| 2025-04-25T04:28:00 | 53.907834 | 6.236588 | 2.0 | 8.403 | 2 | 34.709 | 8.582 | 32.835 | 2 |
| 2025-04-25T04:29:00 | 53.907830 | 6.238771 | 2.0 | 8.393 | 2 | 34.701 | 8.569 | 32.839 | 2 |
| 2025-04-25T04:30:00 | 53.907835 | 6.240972 | 2.0 | 8.381 | 2 | 34.695 | 8.559 | 32.842 | 2 |
| 2025-04-25T04:31:00 | 53.907851 | 6.243203 | 2.0 | 8.450 | 2 | 34.671 | 8.562 | 32.814 | 2 |
| 2025-04-25T04:32:00 | 53.907877 | 6.245439 | 2.0 | 8.474 | 2 | 34.662 | 8.618 | 32.753 | 2 |
| 2025-04-25T04:33:00 | 53.907919 | 6.247683 | 2.0 | 8.492 | 2 | 34.671 | 8.643 | 32.739 | 2 |
| 2025-04-25T04:34:00 | 53.907922 | 6.249942 | 2.0 | 8.505 | 2 | 34.674 | 8.660 | 32.726 | 2 |
| 2025-04-25T04:35:00 | 53.907877 | 6.252190 | 2.0 | 8.503 | 2 | 34.677 | 8.671 | 32.719 | 2 |
| 2025-04-25T04:36:00 | 53.907852 | 6.254411 | 2.0 | 8.488 | 2 | 34.678 | 8.666 | 32.725 | 2 |
| 2025-04-25T04:37:00 | 53.907865 | 6.256610 | 2.0 | 8.478 | 2 | 34.679 | 8.653 | 32.738 | 2 |
| 2025-04-25T04:38:00 | 53.907865 | 6.258806 | 2.0 | 8.474 | 2 | 34.680 | 8.645 | 32.747 | 2 |
| 2025-04-25T04:39:00 | 53.907856 | 6.261016 | 2.0 | 8.472 | 2 | 34.681 | 8.641 | 32.751 | 2 |
| 2025-04-25T04:40:00 | 53.907840 | 6.263211 | 2.0 | 8.472 | 2 | 34.681 | 8.639 | 32.753 | 2 |
| 2025-04-25T04:41:00 | 53.907862 | 6.265414 | 2.0 | 8.471 | 2 | 34.682 | 8.639 | 32.754 | 2 |
| 2025-04-25T04:42:00 | 53.907857 | 6.267631 | 2.0 | 8.470 | 2 | 34.681 | 8.638 | 32.754 | 2 |
| 2025-04-25T04:43:00 | 53.907869 | 6.269876 | 2.0 | 8.466 | 2 | 34.681 | 8.636 | 32.756 | 2 |
| 2025-04-25T04:44:00 | 53.907865 | 6.272166 | 2.0 | 8.465 | 2 | 34.681 | 8.633 | 32.759 | 2 |
| 2025-04-25T04:45:00 | 53.907831 | 6.274483 | 2.0 | 8.463 | 2 | 34.681 | 8.632 | 32.760 | 2 |
| 2025-04-25T04:46:00 | 53.907801 | 6.276824 | 2.0 | 8.465 | 2 | 34.679 | 8.631 | 32.758 | 2 |
| 2025-04-25T04:47:00 | 53.907802 | 6.279150 | 2.0 | 8.466 | 2 | 34.676 | 8.632 | 32.754 | 2 |
| 2025-04-25T04:48:00 | 53.907841 | 6.281426 | 2.0 | 8.468 | 2 | 34.675 | 8.633 | 32.752 | 2 |
| 2025-04-25T04:49:00 | 53.907904 | 6.283642 | 2.0 | 8.470 | 2 | 34.676 | 8.636 | 32.751 | 2 |
| 2025-04-25T04:50:00 | 53.907941 | 6.285799 | 2.0 | 8.485 | 2 | 34.676 | 8.641 | 32.746 | 2 |
| 2025-04-25T04:51:00 | 53.907958 | 6.287908 | 2.0 | 8.494 | 2 | 34.679 | 8.653 | 32.738 | 2 |
| 2025-04-25T04:52:00 | 53.907963 | 6.289973 | 2.0 | 8.743 | 2 | 34.673 | 8.679 | 32.708 | 2 |
| 2025-04-25T04:53:00 | 53.908009 | 6.291977 | 2.0 | 8.758 | 2 | 34.620 | 8.875 | 32.472 | 2 |
| 2025-04-25T04:54:00 | 53.907996 | 6.294003 | 2.0 | 8.788 | 2 | 34.620 | 8.927 | 32.424 | 2 |
| 2025-04-25T04:55:00 | 53.907944 | 6.296096 | 2.0 | 8.787 | 2 | 34.614 | 8.948 | 32.399 | 2 |
| 2025-04-25T04:56:00 | 53.907929 | 6.298226 | 2.0 | 8.811 | 2 | 34.600 | 8.953 | 32.380 | 2 |
| 2025-04-25T04:57:00 | 53.907952 | 6.300339 | 2.0 | 8.812 | 2 | 34.588 | 8.972 | 32.350 | 2 |
| 2025-04-25T04:58:00 | 53.908028 | 6.302391 | 2.0 | 8.810 | 2 | 34.598 | 8.974 | 32.359 | 2 |
| 2025-04-25T04:59:00 | 53.908123 | 6.304287 | 2.0 | 8.811 | 2 | 34.601 | 8.974 | 32.362 | 2 |
| 2025-04-25T05:00:00 | 53.908197 | 6.306003 | 2.0 | 8.814 | 2 | 34.601 | 8.976 | 32.360 | 2 |
| 2025-04-25T05:01:00 | 53.908442 | 6.307444 | 2.0 | 8.820 | 2 | 34.598 | 8.980 | 32.353 | 2 |
| 2025-04-25T05:02:00 | 53.908790 | 6.308635 | 2.0 | 8.823 | 2 | 34.592 | 8.985 | 32.343 | 2 |
| 2025-04-25T05:03:00 | 53.909013 | 6.309813 | 2.0 | 8.825 | 2 | 34.592 | 8.987 | 32.341 | 2 |
| 2025-04-25T05:04:00 | 53.908945 | 6.310764 | 2.0 | 8.824 | 2 | 34.592 | 8.989 | 32.339 | 2 |
| 2025-04-25T05:05:00 | 53.908763 | 6.311310 | 2.0 | 8.793 | 2 | 34.599 | 8.986 | 32.349 | 2 |
| 2025-04-25T05:06:00 | 53.908592 | 6.311413 | 2.0 | 8.776 | 2 | 34.635 | 8.951 | 32.418 | 2 |
| 2025-04-25T05:07:00 | 53.908532 | 6.311288 | 2.0 | 8.768 | 2 | 34.643 | 8.938 | 32.438 | 2 |
| 2025-04-25T05:08:00 | 53.908518 | 6.311020 | 2.0 | 8.789 | 2 | 34.642 | 8.938 | 32.437 | 2 |
| 2025-04-25T05:09:00 | 53.908486 | 6.310698 | 2.0 | 8.796 | 2 | 34.626 | 8.955 | 32.405 | 2 |
| 2025-04-25T05:10:00 | 53.908454 | 6.310364 | 2.0 | 8.790 | 2 | 34.623 | 8.959 | 32.398 | 2 |
| 2025-04-25T05:11:00 | 53.908423 | 6.310011 | 2.0 | 8.782 | 2 | 34.627 | 8.953 | 32.408 | 2 |
| 2025-04-25T05:12:00 | 53.908407 | 6.309658 | 2.0 | 8.789 | 2 | 34.628 | 8.949 | 32.413 | 2 |
| 2025-04-25T05:13:00 | 53.908394 | 6.309303 | 2.0 | 8.795 | 2 | 34.470 | 8.954 | 32.244 | 2 |
| 2025-04-25T05:14:00 | 53.908382 | 6.308934 | 2.0 | 8.794 | 2 | 34.618 | 8.955 | 32.397 | 2 |
| 2025-04-25T05:15:00 | 53.908382 | 6.308556 | 2.0 | 8.794 | 2 | 34.610 | 8.957 | 32.387 | 2 |
| 2025-04-25T05:16:00 | 53.908379 | 6.308187 | 2.0 | 8.782 | 2 | 34.455 | 8.959 | 32.224 | 2 |
| 2025-04-25T05:17:00 | 53.908362 | 6.307816 | 2.0 | 8.766 | 2 | 34.601 | 8.945 | 32.388 | 2 |
| 2025-04-25T05:18:00 | 53.908341 | 6.307462 | 2.0 | 8.764 | 2 | 34.609 | 8.931 | 32.409 | 2 |
| 2025-04-25T05:19:00 | 53.908303 | 6.307125 | 2.0 | 8.757 | 2 | 34.610 | 8.929 | 32.412 | 2 |
| 2025-04-25T05:20:00 | 53.908274 | 6.306838 | 2.0 | 8.751 | 2 | 34.614 | 8.921 | 32.424 | 2 |
| 2025-04-25T05:21:00 | 53.908245 | 6.306600 | 2.0 | 8.751 | 2 | 34.396 | 8.917 | 32.201 | 2 |
| 2025-04-25T05:22:00 | 53.908202 | 6.306387 | 2.0 | 8.752 | 2 | 34.612 | 8.917 | 32.425 | 2 |
| 2025-04-25T05:23:00 | 53.908157 | 6.306199 | 2.0 | 8.751 | 2 | 34.442 | 8.917 | 32.249 | 2 |
| 2025-04-25T05:25:00 | 53.908202 | 6.306004 | 2.0 | 8.753 | 2 | 34.423 | 8.916 | 32.230 | 2 |
| 2025-04-25T05:26:00 | 53.908250 | 6.305725 | 2.0 | 8.759 | 2 | 34.623 | 8.916 | 32.438 | 2 |
| 2025-04-25T05:27:00 | 53.908037 | 6.304589 | 2.0 | 8.764 | 2 | 34.461 | 8.925 | 32.261 | 2 |
| 2025-04-25T05:28:00 | 53.907668 | 6.302792 | 2.0 | 8.758 | 2 | 34.463 | 8.928 | 32.260 | 2 |
| 2025-04-25T05:29:00 | 53.907209 | 6.300625 | 2.0 | 8.752 | 2 | 34.626 | 8.922 | 32.435 | 2 |
| 2025-04-25T05:30:00 | 53.906697 | 6.298263 | 2.0 | 8.741 | 2 | 34.459 | 8.918 | 32.265 | 2 |
| 2025-04-25T05:31:00 | 53.906164 | 6.295806 | 2.0 | 8.723 | 2 | 34.585 | 8.905 | 32.408 | 2 |
| 2025-04-25T05:32:00 | 53.905625 | 6.293310 | 2.0 | 8.685 | 2 | 34.635 | 8.885 | 32.478 | 2 |
| 2025-04-25T05:33:00 | 53.905073 | 6.290794 | 2.0 | 8.631 | 2 | 34.382 | 8.849 | 32.248 | 2 |
| 2025-04-25T05:34:00 | 53.904523 | 6.288269 | 2.0 | 8.529 | 2 | 34.458 | 8.779 | 32.391 | 2 |
| 2025-04-25T05:35:00 | 53.903947 | 6.285748 | 2.0 | 8.430 | 2 | 34.359 | 8.681 | 32.377 | 2 |
| 2025-04-25T05:36:00 | 53.903362 | 6.283238 | 2.0 | 8.422 | 2 | 34.539 | 8.606 | 32.635 | 2 |
| 2025-04-25T05:37:00 | 53.902766 | 6.280738 | 2.0 | 8.416 | 2 | 34.674 | 8.594 | 32.788 | 2 |
| 2025-04-25T05:38:00 | 53.902211 | 6.278213 | 2.0 | 8.409 | 2 | 34.590 | 8.587 | 32.706 | 2 |
| 2025-04-25T05:39:00 | 53.901749 | 6.275649 | 2.0 | 8.396 | 2 | 34.455 | 8.577 | 32.573 | 2 |
| 2025-04-25T05:40:00 | 53.901328 | 6.273262 | 2.0 | 8.383 | 2 | 34.401 | 8.564 | 32.529 | 2 |
| 2025-04-25T05:41:00 | 53.901581 | 6.271814 | 2.0 | 8.382 | 2 | 34.492 | 8.554 | 32.633 | 2 |
| 2025-04-25T05:42:00 | 53.901510 | 6.270951 | 2.0 | 8.384 | 2 | 34.513 | 8.552 | 32.657 | 2 |
| 2025-04-25T05:43:00 | 53.901354 | 6.270403 | 2.0 | 8.403 | 2 | 34.589 | 8.557 | 32.733 | 2 |
| 2025-04-25T05:44:00 | 53.901396 | 6.270045 | 2.0 | 8.414 | 2 | 34.513 | 8.573 | 32.638 | 2 |
| 2025-04-25T05:45:00 | 53.901383 | 6.269687 | 2.0 | 8.417 | 2 | 34.721 | 8.582 | 32.848 | 2 |
| 2025-04-25T05:46:00 | 53.901401 | 6.269301 | 2.0 | 8.416 | 2 | 34.717 | 8.584 | 32.842 | 2 |
| 2025-04-25T05:47:00 | 53.901419 | 6.268889 | 2.0 | 8.417 | 2 | 34.536 | 8.584 | 32.652 | 2 |
| 2025-04-25T05:48:00 | 53.901439 | 6.268489 | 2.0 | 8.418 | 2 | 34.726 | 8.585 | 32.850 | 2 |
| 2025-04-25T05:49:00 | 53.901460 | 6.268116 | 2.0 | 8.418 | 2 | 34.579 | 8.585 | 32.696 | 2 |
| 2025-04-25T05:50:00 | 53.901465 | 6.267769 | 2.0 | 8.418 | 2 | 34.497 | 8.585 | 32.610 | 2 |
| 2025-04-25T05:51:00 | 53.901467 | 6.267447 | 2.0 | 8.420 | 2 | 34.613 | 8.586 | 32.731 | 2 |
| 2025-04-25T05:52:00 | 53.901472 | 6.267142 | 2.0 | 8.421 | 2 | 34.522 | 8.589 | 32.633 | 2 |
| 2025-04-25T05:53:00 | 53.901470 | 6.266877 | 2.0 | 8.421 | 2 | 34.538 | 8.588 | 32.650 | 2 |
| 2025-04-25T05:54:00 | 53.901476 | 6.266713 | 2.0 | 8.419 | 2 | 34.732 | 8.589 | 32.853 | 2 |
| 2025-04-25T05:55:00 | 53.901498 | 6.266593 | 2.0 | 8.417 | 2 | 34.597 | 8.586 | 32.714 | 2 |
| 2025-04-25T05:56:00 | 53.901478 | 6.266581 | 2.0 | 8.415 | 2 | 34.623 | 8.584 | 32.743 | 2 |
| 2025-04-25T05:57:00 | 53.901479 | 6.266420 | 2.0 | 8.414 | 2 | 34.623 | 8.582 | 32.745 | 2 |
| 2025-04-25T05:58:00 | 53.901860 | 6.265830 | 2.0 | 8.413 | 2 | 34.527 | 8.580 | 32.646 | 2 |
| 2025-04-25T05:59:00 | 53.902799 | 6.266054 | 2.0 | 8.415 | 2 | 34.632 | 8.580 | 32.756 | 2 |
| 2025-04-25T06:00:00 | 53.903210 | 6.268056 | 2.0 | 8.418 | 2 | 34.623 | 8.582 | 32.745 | 2 |
| 2025-04-25T06:01:00 | 53.902598 | 6.270551 | 2.0 | 8.420 | 2 | 34.544 | 8.587 | 32.658 | 2 |
| 2025-04-25T06:02:00 | 53.901778 | 6.272973 | 2.0 | 8.421 | 2 | 34.629 | 8.589 | 32.745 | 2 |
| 2025-04-25T06:03:00 | 53.901055 | 6.273785 | 2.0 | 8.423 | 2 | 34.667 | 8.590 | 32.784 | 2 |
| 2025-04-25T06:04:00 | 53.900864 | 6.273856 | 2.0 | 8.420 | 2 | 34.644 | 8.590 | 32.760 | 2 |
| 2025-04-25T06:05:00 | 53.900790 | 6.273690 | 2.0 | 8.418 | 2 | 34.583 | 8.589 | 32.697 | 2 |
| 2025-04-25T06:06:00 | 53.900763 | 6.273630 | 2.0 | 8.422 | 2 | 34.594 | 8.585 | 32.712 | 2 |
| 2025-04-25T06:07:00 | 53.900717 | 6.273738 | 2.0 | 8.416 | 2 | 34.645 | 8.588 | 32.763 | 2 |
| 2025-04-25T06:08:00 | 53.900732 | 6.273426 | 2.0 | 8.414 | 2 | 34.638 | 8.582 | 32.761 | 2 |
| 2025-04-25T06:09:00 | 53.901108 | 6.272638 | 2.0 | 8.414 | 2 | 34.662 | 8.581 | 32.787 | 2 |
| 2025-04-25T06:10:00 | 53.902045 | 6.272440 | 2.0 | 8.416 | 2 | 34.722 | 8.583 | 32.848 | 2 |
| 2025-04-25T06:11:00 | 53.903587 | 6.272499 | 2.0 | 8.423 | 2 | 34.691 | 8.584 | 32.815 | 2 |
| 2025-04-25T06:12:00 | 53.905657 | 6.273026 | 2.0 | 8.425 | 2 | 34.717 | 8.592 | 32.835 | 2 |
| 2025-04-25T06:13:00 | 53.907933 | 6.273628 | 2.0 | 8.433 | 2 | 34.697 | 8.595 | 32.811 | 2 |
| 2025-04-25T06:14:00 | 53.910262 | 6.274267 | 2.0 | 8.445 | 2 | 34.710 | 8.604 | 32.816 | 2 |
| 2025-04-25T06:15:00 | 53.912481 | 6.274959 | 2.0 | 8.449 | 2 | 34.719 | 8.615 | 32.815 | 2 |
| 2025-04-25T06:16:00 | 53.914599 | 6.275761 | 2.0 | 8.447 | 2 | 34.743 | 8.618 | 32.838 | 2 |
| 2025-04-25T06:17:00 | 53.916373 | 6.276633 | 2.0 | 8.443 | 2 | 34.788 | 8.615 | 32.888 | 2 |
| 2025-04-25T06:18:00 | 53.917370 | 6.278210 | 2.0 | 8.445 | 2 | 34.772 | 8.611 | 32.875 | 2 |
| 2025-04-25T06:19:00 | 53.917210 | 6.279412 | 2.0 | 8.445 | 2 | 34.798 | 8.611 | 32.902 | 2 |
| 2025-04-25T06:20:00 | 53.916889 | 6.279887 | 2.0 | 8.443 | 2 | 34.803 | 8.612 | 32.906 | 2 |
| 2025-04-25T06:21:00 | 53.916734 | 6.280025 | 2.0 | 8.443 | 2 | 34.810 | 8.611 | 32.915 | 2 |
| 2025-04-25T06:22:00 | 53.916614 | 6.280119 | 2.0 | 8.443 | 2 | 34.798 | 8.610 | 32.903 | 2 |
| 2025-04-25T06:23:00 | 53.916524 | 6.280279 | 2.0 | 8.437 | 2 | 34.808 | 8.610 | 32.913 | 2 |
| 2025-04-25T06:24:00 | 53.916493 | 6.280239 | 2.0 | 8.446 | 2 | 34.819 | 8.604 | 32.931 | 2 |
| 2025-04-25T06:25:00 | 53.916626 | 6.279562 | 2.0 | 8.446 | 2 | 34.821 | 8.613 | 32.924 | 2 |
| 2025-04-25T06:26:00 | 53.917150 | 6.279374 | 2.0 | 8.443 | 2 | 34.821 | 8.613 | 32.924 | 2 |
| 2025-04-25T06:27:00 | 53.917688 | 6.280546 | 2.0 | 8.441 | 2 | 34.818 | 8.609 | 32.925 | 2 |
| 2025-04-25T06:28:00 | 53.918033 | 6.282605 | 2.0 | 8.440 | 2 | 34.818 | 8.607 | 32.927 | 2 |
| 2025-04-25T06:29:00 | 53.918043 | 6.285009 | 2.0 | 8.443 | 2 | 34.813 | 8.608 | 32.920 | 2 |
| 2025-04-25T06:30:00 | 53.917591 | 6.286029 | 2.0 | 8.445 | 2 | 34.816 | 8.610 | 32.922 | 2 |
| 2025-04-25T06:31:00 | 53.917340 | 6.286111 | 2.0 | 8.415 | 2 | 34.821 | 8.611 | 32.926 | 2 |
| 2025-04-25T06:32:00 | 53.917264 | 6.285457 | 2.0 | 8.398 | 2 | 34.829 | 8.573 | 32.970 | 2 |
| 2025-04-25T06:33:00 | 53.917322 | 6.284907 | 2.0 | 8.422 | 2 | 34.827 | 8.574 | 32.967 | 2 |
| 2025-04-25T06:34:00 | 53.917289 | 6.284540 | 2.0 | 8.445 | 2 | 34.827 | 8.594 | 32.948 | 2 |
| 2025-04-25T06:35:00 | 53.917230 | 6.284490 | 2.0 | 8.437 | 2 | 34.822 | 8.611 | 32.927 | 2 |
| 2025-04-25T06:36:00 | 53.917209 | 6.284526 | 2.0 | 8.408 | 2 | 34.829 | 8.593 | 32.951 | 2 |
| 2025-04-25T06:37:00 | 53.917281 | 6.284243 | 2.0 | 8.441 | 2 | 34.831 | 8.584 | 32.962 | 2 |
| 2025-04-25T06:38:00 | 53.917678 | 6.283694 | 2.0 | 8.424 | 2 | 34.826 | 8.603 | 32.939 | 2 |
| 2025-04-25T06:39:00 | 53.918330 | 6.284321 | 2.0 | 8.419 | 2 | 34.802 | 8.590 | 32.926 | 2 |
| 2025-04-25T06:40:00 | 53.918554 | 6.286208 | 2.0 | 8.422 | 2 | 34.818 | 8.587 | 32.945 | 2 |
| 2025-04-25T06:41:00 | 53.918519 | 6.288744 | 2.0 | 8.423 | 2 | 34.809 | 8.589 | 32.934 | 2 |
| 2025-04-25T06:42:00 | 53.918539 | 6.291474 | 2.0 | 8.417 | 2 | 34.809 | 8.591 | 32.932 | 2 |
| 2025-04-25T06:43:00 | 53.918032 | 6.292519 | 2.0 | 8.385 | 2 | 34.823 | 8.572 | 32.965 | 2 |
| 2025-04-25T06:44:00 | 53.917834 | 6.292644 | 2.0 | 8.420 | 2 | 34.816 | 8.560 | 32.968 | 2 |
| 2025-04-25T06:45:00 | 53.917710 | 6.292745 | 2.0 | 8.417 | 2 | 34.818 | 8.587 | 32.945 | 2 |
| 2025-04-25T06:46:00 | 53.917609 | 6.292838 | 2.0 | 8.410 | 2 | 34.832 | 8.587 | 32.960 | 2 |
| 2025-04-25T06:47:00 | 53.917500 | 6.292830 | 2.0 | 8.404 | 2 | 34.839 | 8.593 | 32.962 | 2 |
| 2025-04-25T06:48:00 | 53.917459 | 6.292904 | 2.0 | 8.383 | 2 | 34.842 | 8.583 | 32.974 | 2 |
| 2025-04-25T06:49:00 | 53.917336 | 6.292796 | 2.0 | 8.393 | 2 | 34.841 | 8.571 | 32.984 | 2 |
| 2025-04-25T06:50:00 | 53.917521 | 6.292220 | 2.0 | 8.410 | 2 | 34.843 | 8.588 | 32.971 | 2 |
| 2025-04-25T06:51:00 | 53.918096 | 6.290880 | 2.0 | 8.404 | 2 | 34.847 | 8.599 | 32.965 | 2 |
| 2025-04-25T06:52:00 | 53.918970 | 6.288869 | 2.0 | 8.420 | 2 | 34.854 | 8.597 | 32.974 | 2 |
| 2025-04-25T06:53:00 | 53.919369 | 6.285875 | 2.0 | 8.427 | 2 | 34.865 | 8.620 | 32.964 | 2 |
| 2025-04-25T06:54:00 | 53.918969 | 6.282235 | 2.0 | 8.423 | 2 | 34.874 | 8.623 | 32.971 | 2 |
| 2025-04-25T06:55:00 | 53.918515 | 6.278345 | 2.0 | 8.396 | 2 | 34.871 | 8.616 | 32.974 | 2 |
| 2025-04-25T06:56:00 | 53.917711 | 6.274600 | 2.0 | 8.393 | 2 | 34.865 | 8.592 | 32.990 | 2 |
| 2025-04-25T06:57:00 | 53.916017 | 6.271718 | 2.0 | 8.411 | 2 | 34.857 | 8.586 | 32.987 | 2 |
| 2025-04-25T06:58:00 | 53.913898 | 6.269369 | 2.0 | 8.403 | 2 | 34.862 | 8.593 | 32.986 | 2 |
| 2025-04-25T06:59:00 | 53.911715 | 6.267039 | 2.0 | 8.386 | 2 | 34.861 | 8.584 | 32.993 | 2 |
| 2025-04-25T07:00:00 | 53.909690 | 6.264406 | 2.0 | 8.376 | 2 | 34.835 | 8.561 | 32.987 | 2 |
| 2025-04-25T07:01:00 | 53.907641 | 6.261772 | 2.0 | 8.407 | 2 | 34.815 | 8.560 | 32.967 | 2 |
| 2025-04-25T07:02:00 | 53.905590 | 6.259117 | 2.0 | 8.409 | 2 | 34.820 | 8.582 | 32.952 | 2 |
| 2025-04-25T07:03:00 | 53.903550 | 6.256442 | 2.0 | 8.407 | 2 | 34.817 | 8.585 | 32.946 | 2 |
| 2025-04-25T07:04:00 | 53.901831 | 6.254223 | 2.0 | 8.412 | 2 | 34.810 | 8.583 | 32.941 | 2 |
| 2025-04-25T07:05:00 | 53.900498 | 6.252617 | 2.0 | 8.463 | 2 | 34.756 | 8.595 | 32.873 | 2 |
| 2025-04-25T07:06:00 | 53.899427 | 6.251978 | 2.0 | 8.467 | 2 | 34.706 | 8.633 | 32.785 | 2 |
| 2025-04-25T07:07:00 | 53.899361 | 6.251458 | 2.0 | 8.466 | 2 | 34.703 | 8.638 | 32.777 | 2 |
| 2025-04-25T07:08:00 | 53.899453 | 6.251193 | 2.0 | 8.468 | 2 | 34.701 | 8.637 | 32.776 | 2 |
| 2025-04-25T07:09:00 | 53.899553 | 6.251031 | 2.0 | 8.467 | 2 | 34.702 | 8.638 | 32.776 | 2 |
| 2025-04-25T07:10:00 | 53.899601 | 6.250896 | 2.0 | 8.467 | 2 | 34.700 | 8.638 | 32.774 | 2 |
| 2025-04-25T07:11:00 | 53.899606 | 6.250806 | 2.0 | 8.463 | 2 | 34.699 | 8.637 | 32.774 | 2 |
| 2025-04-25T07:12:00 | 53.899608 | 6.250763 | 2.0 | 8.467 | 2 | 34.696 | 8.636 | 32.772 | 2 |
| 2025-04-25T07:13:00 | 53.899596 | 6.250724 | 2.0 | 8.466 | 2 | 34.696 | 8.636 | 32.772 | 2 |
| 2025-04-25T07:14:00 | 53.899603 | 6.250682 | 2.0 | 8.466 | 2 | 34.696 | 8.636 | 32.772 | 2 |
| 2025-04-25T07:15:00 | 53.899601 | 6.250627 | 2.0 | 8.463 | 2 | 34.695 | 8.635 | 32.772 | 2 |
| 2025-04-25T07:16:00 | 53.899601 | 6.250610 | 2.0 | 8.458 | 2 | 34.692 | 8.633 | 32.770 | 2 |
| 2025-04-25T07:17:00 | 53.899597 | 6.250578 | 2.0 | 8.449 | 2 | 34.686 | 8.627 | 32.769 | 2 |
| 2025-04-25T07:18:00 | 53.899590 | 6.250565 | 2.0 | 8.450 | 2 | 34.678 | 8.620 | 32.768 | 2 |
| 2025-04-25T07:19:00 | 53.899582 | 6.250534 | 2.0 | 8.445 | 2 | 34.676 | 8.619 | 32.766 | 2 |
| 2025-04-25T07:20:00 | 53.899556 | 6.250520 | 2.0 | 8.448 | 2 | 34.672 | 8.616 | 32.765 | 2 |
| 2025-04-25T07:21:00 | 53.899544 | 6.250505 | 2.0 | 8.447 | 2 | 34.668 | 8.618 | 32.759 | 2 |
| 2025-04-25T07:22:00 | 53.899522 | 6.250497 | 2.0 | 8.449 | 2 | 34.670 | 8.617 | 32.762 | 2 |
| 2025-04-25T07:23:00 | 53.899515 | 6.250448 | 2.0 | 8.452 | 2 | 34.671 | 8.619 | 32.761 | 2 |
| 2025-04-25T07:24:00 | 53.899476 | 6.250415 | 2.0 | 8.453 | 2 | 34.674 | 8.622 | 32.762 | 2 |
| 2025-04-25T07:25:00 | 53.899461 | 6.250371 | 2.0 | 8.454 | 2 | 34.677 | 8.623 | 32.764 | 2 |
| 2025-04-25T07:26:00 | 53.899430 | 6.250341 | 2.0 | 8.452 | 2 | 34.678 | 8.623 | 32.765 | 2 |
| 2025-04-25T07:27:00 | 53.899400 | 6.250364 | 2.0 | 8.456 | 2 | 34.678 | 8.622 | 32.766 | 2 |
| 2025-04-25T07:28:00 | 53.899409 | 6.250357 | 2.0 | 8.459 | 2 | 34.682 | 8.626 | 32.766 | 2 |
| 2025-04-25T07:29:00 | 53.899387 | 6.250333 | 2.0 | 8.462 | 2 | 34.687 | 8.630 | 32.768 | 2 |
| 2025-04-25T07:30:00 | 53.899348 | 6.250343 | 2.0 | 8.456 | 2 | 34.689 | 8.631 | 32.769 | 2 |
| 2025-04-25T07:31:00 | 53.899325 | 6.250374 | 2.0 | 8.455 | 2 | 34.683 | 8.626 | 32.767 | 2 |
| 2025-04-25T07:32:00 | 53.899321 | 6.250270 | 2.0 | 8.454 | 2 | 34.680 | 8.624 | 32.766 | 2 |
| 2025-04-25T07:33:00 | 53.899305 | 6.250211 | 2.0 | 8.454 | 2 | 34.673 | 8.625 | 32.758 | 2 |
| 2025-04-25T07:34:00 | 53.899298 | 6.250208 | 2.0 | 8.455 | 2 | 34.671 | 8.623 | 32.757 | 2 |
| 2025-04-25T07:35:00 | 53.899302 | 6.250184 | 2.0 | 8.455 | 2 | 34.674 | 8.624 | 32.760 | 2 |
| 2025-04-25T07:36:00 | 53.899279 | 6.250176 | 2.0 | 8.456 | 2 | 34.676 | 8.624 | 32.762 | 2 |
| 2025-04-25T07:37:00 | 53.899283 | 6.250154 | 2.0 | 8.452 | 2 | 34.676 | 8.624 | 32.762 | 2 |
| 2025-04-25T07:38:00 | 53.899264 | 6.250103 | 2.0 | 8.454 | 2 | 34.675 | 8.623 | 32.762 | 2 |
| 2025-04-25T07:39:00 | 53.899232 | 6.250098 | 2.0 | 8.453 | 2 | 34.675 | 8.622 | 32.763 | 2 |
| 2025-04-25T07:40:00 | 53.899196 | 6.250140 | 2.0 | 8.457 | 2 | 34.676 | 8.625 | 32.761 | 2 |
| 2025-04-25T07:41:00 | 53.899172 | 6.250189 | 2.0 | 8.458 | 2 | 34.678 | 8.626 | 32.762 | 2 |
| 2025-04-25T07:42:00 | 53.899168 | 6.250113 | 2.0 | 8.461 | 2 | 34.679 | 8.628 | 32.761 | 2 |
| 2025-04-25T07:43:00 | 53.899163 | 6.250036 | 2.0 | 8.457 | 2 | 34.680 | 8.629 | 32.761 | 2 |
| 2025-04-25T07:44:00 | 53.899153 | 6.250014 | 2.0 | 8.463 | 2 | 34.678 | 8.627 | 32.761 | 2 |
| 2025-04-25T07:45:00 | 53.899127 | 6.250029 | 2.0 | 8.467 | 2 | 34.682 | 8.631 | 32.762 | 2 |
| 2025-04-25T07:46:00 | 53.899104 | 6.250077 | 2.0 | 8.470 | 2 | 34.686 | 8.636 | 32.761 | 2 |
| 2025-04-25T07:47:00 | 53.899131 | 6.250048 | 2.0 | 8.468 | 2 | 34.687 | 8.638 | 32.760 | 2 |
| 2025-04-25T07:48:00 | 53.899114 | 6.250002 | 2.0 | 8.468 | 2 | 34.686 | 8.637 | 32.760 | 2 |
| 2025-04-25T07:49:00 | 53.899080 | 6.249987 | 2.0 | 8.468 | 2 | 34.684 | 8.636 | 32.759 | 2 |
| 2025-04-25T07:50:00 | 53.899040 | 6.250020 | 2.0 | 8.473 | 2 | 34.684 | 8.637 | 32.758 | 2 |
| 2025-04-25T07:51:00 | 53.899010 | 6.250055 | 2.0 | 8.475 | 2 | 34.687 | 8.641 | 32.758 | 2 |
| 2025-04-25T07:52:00 | 53.899011 | 6.249979 | 2.0 | 8.474 | 2 | 34.687 | 8.642 | 32.757 | 2 |
| 2025-04-25T07:53:00 | 53.899024 | 6.249840 | 2.0 | 8.472 | 2 | 34.684 | 8.641 | 32.754 | 2 |
| 2025-04-25T07:54:00 | 53.899079 | 6.249682 | 2.0 | 8.472 | 2 | 34.686 | 8.643 | 32.755 | 2 |
| 2025-04-25T07:55:00 | 53.899152 | 6.249506 | 2.0 | 8.474 | 2 | 34.693 | 8.652 | 32.754 | 2 |
| 2025-04-25T07:56:00 | 53.899219 | 6.249338 | 2.0 | 8.478 | 2 | 34.698 | 8.657 | 32.754 | 2 |
| 2025-04-25T07:57:00 | 53.899256 | 6.249272 | 2.0 | 8.480 | 2 | 34.704 | 8.664 | 32.754 | 2 |
| 2025-04-25T07:58:00 | 53.899239 | 6.249260 | 2.0 | 8.481 | 2 | 34.707 | 8.666 | 32.755 | 2 |
| 2025-04-25T07:59:00 | 53.899246 | 6.249204 | 2.0 | 8.483 | 2 | 34.710 | 8.671 | 32.754 | 2 |
| 2025-04-25T08:00:00 | 53.899245 | 6.249169 | 2.0 | 8.472 | 2 | 34.709 | 8.668 | 32.756 | 2 |
| 2025-04-25T08:01:00 | 53.899230 | 6.249138 | 2.0 | 8.468 | 2 | 34.706 | 8.665 | 32.755 | 2 |
| 2025-04-25T08:02:00 | 53.899177 | 6.249187 | 2.0 | 8.475 | 2 | 34.704 | 8.663 | 32.755 | 2 |
| 2025-04-25T08:03:00 | 53.899303 | 6.248896 | 2.0 | 8.483 | 2 | 34.705 | 8.668 | 32.751 | 2 |
| 2025-04-25T08:04:00 | 53.900188 | 6.248813 | 2.0 | 8.488 | 2 | 34.513 | 8.676 | 32.543 | 2 |
| 2025-04-25T08:05:00 | 53.900624 | 6.251485 | 2.0 | 8.488 | 2 | 34.345 | 8.682 | 32.362 | 2 |
| 2025-04-25T08:06:00 | 53.900956 | 6.255526 | 2.0 | 8.490 | 2 | 34.518 | 8.685 | 32.540 | 2 |
| 2025-04-25T08:07:00 | 53.901089 | 6.259870 | 2.0 | 8.484 | 2 | 34.536 | 8.686 | 32.558 | 2 |
| 2025-04-25T08:08:00 | 53.901256 | 6.263515 | 2.0 | 8.485 | 2 | 34.640 | 8.681 | 32.671 | 2 |
| 2025-04-25T08:09:00 | 53.901235 | 6.265959 | 2.0 | 8.491 | 2 | 34.554 | 8.679 | 32.583 | 2 |
| 2025-04-25T08:10:00 | 53.901429 | 6.266520 | 2.0 | 8.489 | 2 | 34.482 | 8.686 | 32.501 | 2 |
| 2025-04-25T08:11:00 | 53.901362 | 6.266972 | 2.0 | 8.469 | 2 | 34.582 | 8.681 | 32.611 | 2 |
| 2025-04-25T08:12:00 | 53.901396 | 6.266803 | 2.0 | 8.471 | 2 | 34.530 | 8.662 | 32.574 | 2 |
| 2025-04-25T08:13:00 | 53.901417 | 6.267088 | 2.0 | 8.483 | 2 | 34.704 | 8.673 | 32.746 | 2 |
| 2025-04-25T08:14:00 | 53.901420 | 6.267270 | 2.0 | 8.441 | 2 | 34.731 | 8.677 | 32.770 | 2 |
| 2025-04-25T08:15:00 | 53.901422 | 6.266891 | 2.0 | 8.480 | 2 | 34.631 | 8.649 | 32.691 | 2 |
| 2025-04-25T08:16:00 | 53.901439 | 6.266513 | 2.0 | 8.483 | 2 | 34.636 | 8.684 | 32.664 | 2 |
| 2025-04-25T08:17:00 | 53.901529 | 6.266201 | 2.0 | 8.486 | 2 | 34.498 | 8.684 | 32.520 | 2 |
| 2025-04-25T08:18:00 | 53.901953 | 6.266317 | 2.0 | 8.485 | 2 | 34.414 | 8.680 | 32.436 | 2 |
| 2025-04-25T08:19:00 | 53.902066 | 6.268595 | 2.0 | 8.500 | 2 | 34.743 | 8.691 | 32.770 | 2 |
| 2025-04-25T08:20:00 | 53.901952 | 6.272188 | 2.0 | 8.504 | 2 | 34.449 | 8.704 | 32.450 | 2 |
| 2025-04-25T08:21:00 | 53.901695 | 6.275478 | 2.0 | 8.500 | 2 | 34.462 | 8.706 | 32.462 | 2 |
| 2025-04-25T08:22:00 | 53.900984 | 6.276383 | 2.0 | 8.493 | 2 | 34.627 | 8.697 | 32.643 | 2 |
| 2025-04-25T08:23:00 | 53.900573 | 6.276246 | 2.0 | 8.490 | 2 | 34.548 | 8.694 | 32.563 | 2 |
| 2025-04-25T08:24:00 | 53.900394 | 6.275914 | 2.0 | 8.493 | 2 | 34.455 | 8.695 | 32.465 | 2 |
| 2025-04-25T08:25:00 | 53.900449 | 6.275289 | 2.0 | 8.504 | 2 | 34.560 | 8.697 | 32.573 | 2 |
| 2025-04-25T08:26:00 | 53.900577 | 6.274590 | 2.0 | 8.499 | 2 | 34.520 | 8.703 | 32.525 | 2 |
| 2025-04-25T08:27:00 | 53.900598 | 6.274154 | 2.0 | 8.490 | 2 | 34.746 | 8.703 | 32.762 | 2 |
| 2025-04-25T08:28:00 | 53.900686 | 6.273703 | 2.0 | 8.503 | 2 | 34.578 | 8.696 | 32.593 | 2 |
| 2025-04-25T08:29:00 | 53.900839 | 6.273241 | 2.0 | 8.492 | 2 | 34.607 | 8.703 | 32.616 | 2 |
| 2025-04-25T08:30:00 | 53.901338 | 6.272296 | 2.0 | 8.465 | 2 | 34.541 | 8.690 | 32.559 | 2 |
| 2025-04-25T08:31:00 | 53.902720 | 6.271848 | 2.0 | 8.505 | 2 | 34.648 | 8.683 | 32.678 | 2 |
| 2025-04-25T08:32:00 | 53.903991 | 6.273896 | 2.0 | 8.497 | 2 | 34.559 | 8.708 | 32.562 | 2 |
| 2025-04-25T08:33:00 | 53.905444 | 6.276553 | 2.0 | 8.461 | 2 | 34.697 | 8.693 | 32.720 | 2 |
| 2025-04-25T08:34:00 | 53.907352 | 6.279096 | 2.0 | 8.462 | 2 | 34.697 | 8.671 | 32.740 | 2 |
| 2025-04-25T08:35:00 | 53.909360 | 6.281529 | 2.0 | 8.457 | 2 | 34.624 | 8.670 | 32.665 | 2 |
| 2025-04-25T08:36:00 | 53.910994 | 6.282671 | 2.0 | 8.458 | 2 | 34.742 | 8.664 | 32.794 | 2 |
| 2025-04-25T08:37:00 | 53.912323 | 6.282835 | 2.0 | 8.456 | 2 | 34.742 | 8.662 | 32.796 | 2 |
| 2025-04-25T08:38:00 | 53.913423 | 6.282518 | 2.0 | 8.458 | 2 | 34.797 | 8.667 | 32.849 | 2 |
| 2025-04-25T08:39:00 | 53.914431 | 6.281803 | 2.0 | 8.453 | 2 | 34.795 | 8.662 | 32.851 | 2 |
| 2025-04-25T08:40:00 | 53.915374 | 6.281215 | 2.0 | 8.445 | 2 | 34.823 | 8.655 | 32.887 | 2 |
| 2025-04-25T08:41:00 | 53.916105 | 6.280771 | 2.0 | 8.443 | 2 | 34.865 | 8.652 | 32.934 | 2 |
| 2025-04-25T08:42:00 | 53.916585 | 6.280410 | 2.0 | 8.443 | 2 | 34.870 | 8.647 | 32.944 | 2 |
| 2025-04-25T08:43:00 | 53.916656 | 6.280341 | 2.0 | 8.431 | 2 | 34.832 | 8.655 | 32.897 | 2 |
| 2025-04-25T08:44:00 | 53.916644 | 6.280156 | 2.0 | 8.413 | 2 | 34.861 | 8.635 | 32.946 | 2 |
| 2025-04-25T08:45:00 | 53.916877 | 6.280040 | 2.0 | 8.441 | 2 | 34.804 | 8.620 | 32.900 | 2 |
| 2025-04-25T08:46:00 | 53.916783 | 6.280511 | 2.0 | 8.452 | 2 | 34.825 | 8.649 | 32.895 | 2 |
| 2025-04-25T08:47:00 | 53.916003 | 6.281877 | 2.0 | 8.430 | 2 | 34.867 | 8.651 | 32.937 | 2 |
| 2025-04-25T08:48:00 | 53.915417 | 6.283608 | 2.0 | 8.424 | 2 | 34.844 | 8.639 | 32.924 | 2 |
| 2025-04-25T08:49:00 | 53.915701 | 6.284279 | 2.0 | 8.429 | 2 | 34.888 | 8.632 | 32.977 | 2 |
| 2025-04-25T08:50:00 | 53.915948 | 6.284647 | 2.0 | 8.426 | 2 | 34.890 | 8.635 | 32.976 | 2 |
| 2025-04-25T08:51:00 | 53.916330 | 6.284790 | 2.0 | 8.411 | 2 | 34.899 | 8.633 | 32.987 | 2 |
| 2025-04-25T08:52:00 | 53.916763 | 6.284694 | 2.0 | 8.379 | 2 | 34.875 | 8.612 | 32.982 | 2 |
| 2025-04-25T08:53:00 | 53.917156 | 6.284543 | 2.0 | 8.418 | 2 | 34.870 | 8.598 | 32.990 | 2 |
| 2025-04-25T08:54:00 | 53.917389 | 6.284438 | 2.0 | 8.417 | 2 | 34.888 | 8.622 | 32.986 | 2 |
| 2025-04-25T08:55:00 | 53.917460 | 6.284412 | 2.0 | 8.418 | 2 | 34.890 | 8.625 | 32.985 | 2 |
| 2025-04-25T08:56:00 | 53.917756 | 6.284927 | 2.0 | 8.416 | 2 | 34.892 | 8.635 | 32.978 | 2 |
| 2025-04-25T08:57:00 | 53.917070 | 6.286734 | 2.0 | 8.366 | 2 | 34.891 | 8.612 | 32.999 | 2 |
| 2025-04-25T08:58:00 | 53.915765 | 6.288548 | 2.0 | 8.381 | 2 | 34.871 | 8.583 | 33.005 | 2 |
| 2025-04-25T08:59:00 | 53.915540 | 6.290288 | 2.0 | 8.400 | 2 | 34.880 | 8.592 | 33.006 | 2 |
| 2025-04-25T09:00:00 | 53.915967 | 6.291737 | 2.0 | 8.402 | 2 | 34.897 | 8.612 | 33.005 | 2 |
| 2025-04-25T09:01:00 | 53.916543 | 6.292513 | 2.0 | 8.395 | 2 | 34.900 | 8.609 | 33.011 | 2 |
| 2025-04-25T09:02:00 | 53.916810 | 6.292855 | 2.0 | 8.393 | 2 | 34.899 | 8.605 | 33.014 | 2 |
| 2025-04-25T09:03:00 | 53.917068 | 6.292928 | 2.0 | 8.365 | 2 | 34.899 | 8.603 | 33.015 | 2 |
| 2025-04-25T09:04:00 | 53.917356 | 6.292795 | 2.0 | 8.384 | 2 | 34.881 | 8.581 | 33.017 | 2 |
| 2025-04-25T09:05:00 | 53.917403 | 6.292788 | 2.0 | 8.390 | 2 | 34.894 | 8.599 | 33.014 | 2 |
| 2025-04-25T09:06:00 | 53.917655 | 6.292662 | 2.0 | 8.351 | 2 | 34.893 | 8.593 | 33.019 | 2 |
| 2025-04-25T09:07:00 | 53.917775 | 6.292566 | 2.0 | 8.357 | 2 | 34.875 | 8.570 | 33.021 | 2 |
| 2025-04-25T09:08:00 | 53.917828 | 6.292484 | 2.0 | 8.357 | 2 | 34.876 | 8.574 | 33.018 | 2 |
| 2025-04-25T09:09:00 | 53.918006 | 6.292337 | 2.0 | 8.335 | 2 | 34.873 | 8.568 | 33.021 | 2 |
| 2025-04-25T09:10:00 | 53.918292 | 6.292136 | 2.0 | 8.345 | 2 | 34.860 | 8.556 | 33.018 | 2 |
| 2025-04-25T09:11:00 | 53.918671 | 6.291906 | 2.0 | 8.346 | 2 | 34.863 | 8.560 | 33.018 | 2 |
| 2025-04-25T09:12:00 | 53.919112 | 6.291652 | 2.0 | 8.347 | 2 | 34.867 | 8.562 | 33.020 | 2 |
| 2025-04-25T09:13:00 | 53.919692 | 6.291446 | 2.0 | 8.334 | 2 | 34.866 | 8.557 | 33.024 | 2 |
| 2025-04-25T09:14:00 | 53.920140 | 6.291983 | 2.0 | 8.349 | 2 | 34.858 | 8.551 | 33.021 | 2 |
| 2025-04-25T09:15:00 | 53.920108 | 6.292818 | 2.0 | 8.339 | 2 | 34.872 | 8.564 | 33.024 | 2 |
| 2025-04-25T09:16:00 | 53.919648 | 6.293264 | 2.0 | 8.348 | 2 | 34.867 | 8.557 | 33.025 | 2 |
| 2025-04-25T09:17:00 | 53.918952 | 6.293449 | 2.0 | 8.365 | 2 | 34.877 | 8.570 | 33.023 | 2 |
| 2025-04-25T09:18:00 | 53.917946 | 6.293730 | 2.0 | 8.382 | 2 | 34.876 | 8.571 | 33.021 | 2 |
| 2025-04-25T09:19:00 | 53.916709 | 6.294080 | 2.0 | 8.436 | 2 | 34.884 | 8.589 | 33.013 | 2 |
| 2025-04-25T09:20:00 | 53.915328 | 6.294482 | 2.0 | 8.468 | 2 | 34.914 | 8.633 | 33.003 | 2 |
| 2025-04-25T09:21:00 | 53.913869 | 6.294910 | 2.0 | 8.462 | 2 | 34.935 | 8.659 | 33.001 | 2 |
| 2025-04-25T09:22:00 | 53.912351 | 6.295352 | 2.0 | 8.436 | 2 | 34.930 | 8.647 | 33.007 | 2 |
| 2025-04-25T09:23:00 | 53.910805 | 6.295793 | 2.0 | 8.435 | 2 | 34.911 | 8.620 | 33.012 | 2 |
| 2025-04-25T09:24:00 | 53.909243 | 6.296237 | 2.0 | 8.451 | 2 | 34.921 | 8.634 | 33.010 | 2 |
| 2025-04-25T09:25:00 | 53.907670 | 6.296696 | 2.0 | 8.462 | 2 | 34.927 | 8.640 | 33.010 | 2 |
| 2025-04-25T09:26:00 | 53.906096 | 6.297160 | 2.0 | 8.449 | 2 | 34.929 | 8.653 | 33.000 | 2 |
| 2025-04-25T09:27:00 | 53.904517 | 6.297628 | 2.0 | 8.467 | 2 | 34.911 | 8.632 | 33.001 | 2 |
| 2025-04-25T09:28:00 | 53.903017 | 6.298089 | 2.0 | 8.508 | 2 | 34.931 | 8.664 | 32.992 | 2 |
| 2025-04-25T09:29:00 | 53.901645 | 6.298485 | 2.0 | 8.492 | 2 | 34.942 | 8.691 | 32.978 | 2 |
| 2025-04-25T09:30:00 | 53.900363 | 6.298826 | 2.0 | 8.470 | 2 | 34.925 | 8.674 | 32.976 | 2 |
| 2025-04-25T09:31:00 | 53.899157 | 6.299129 | 2.0 | 8.472 | 2 | 34.903 | 8.648 | 32.978 | 2 |
| 2025-04-25T09:32:00 | 53.898001 | 6.299404 | 2.0 | 8.457 | 2 | 34.905 | 8.657 | 32.971 | 2 |
| 2025-04-25T09:33:00 | 53.896917 | 6.299576 | 2.0 | 8.437 | 2 | 34.887 | 8.631 | 32.977 | 2 |
| 2025-04-25T09:34:00 | 53.895893 | 6.299770 | 2.0 | 8.494 | 2 | 34.870 | 8.630 | 32.960 | 2 |
| 2025-04-25T09:35:00 | 53.894913 | 6.299990 | 2.0 | 8.557 | 2 | 34.837 | 8.692 | 32.867 | 2 |
| 2025-04-25T09:36:00 | 53.893940 | 6.300215 | 2.0 | 8.549 | 2 | 34.811 | 8.729 | 32.806 | 2 |
| 2025-04-25T09:37:00 | 53.892971 | 6.300458 | 2.0 | 8.556 | 2 | 34.800 | 8.732 | 32.792 | 2 |
| 2025-04-25T09:38:00 | 53.892011 | 6.300704 | 2.0 | 8.577 | 2 | 34.799 | 8.739 | 32.784 | 2 |
| 2025-04-25T09:39:00 | 53.891047 | 6.300950 | 2.0 | 8.580 | 2 | 34.809 | 8.750 | 32.784 | 2 |
| 2025-04-25T09:40:00 | 53.890084 | 6.301171 | 2.0 | 8.581 | 2 | 34.817 | 8.758 | 32.785 | 2 |
| 2025-04-25T09:41:00 | 53.889109 | 6.301390 | 2.0 | 8.581 | 2 | 34.823 | 8.762 | 32.788 | 2 |
| 2025-04-25T09:42:00 | 53.888135 | 6.301607 | 2.0 | 8.573 | 2 | 34.819 | 8.760 | 32.786 | 2 |
| 2025-04-25T09:43:00 | 53.887167 | 6.301805 | 2.0 | 8.567 | 2 | 34.812 | 8.751 | 32.787 | 2 |
| 2025-04-25T09:44:00 | 53.886221 | 6.301989 | 2.0 | 8.563 | 2 | 34.813 | 8.750 | 32.789 | 2 |
| 2025-04-25T09:45:00 | 53.885325 | 6.302124 | 2.0 | 8.566 | 2 | 34.811 | 8.744 | 32.792 | 2 |
| 2025-04-25T09:46:00 | 53.884466 | 6.302265 | 2.0 | 8.567 | 2 | 34.811 | 8.743 | 32.793 | 2 |
| 2025-04-25T09:47:00 | 53.883629 | 6.302368 | 2.0 | 8.575 | 2 | 34.815 | 8.747 | 32.793 | 2 |
| 2025-04-25T09:48:00 | 53.882819 | 6.302441 | 2.0 | 8.557 | 2 | 34.813 | 8.748 | 32.790 | 2 |
| 2025-04-25T09:49:00 | 53.882030 | 6.302542 | 2.0 | 8.569 | 2 | 34.812 | 8.743 | 32.794 | 2 |
| 2025-04-25T09:50:00 | 53.881240 | 6.302565 | 2.0 | 8.563 | 2 | 34.819 | 8.747 | 32.798 | 2 |
| 2025-04-25T09:51:00 | 53.880464 | 6.302636 | 2.0 | 8.559 | 2 | 34.816 | 8.741 | 32.800 | 2 |
| 2025-04-25T09:52:00 | 53.879691 | 6.302624 | 2.0 | 8.552 | 2 | 34.810 | 8.733 | 32.801 | 2 |
| 2025-04-25T09:53:00 | 53.878958 | 6.302754 | 2.0 | 8.548 | 2 | 34.805 | 8.730 | 32.799 | 2 |
| 2025-04-25T09:54:00 | 53.878233 | 6.302915 | 2.0 | 8.532 | 2 | 34.800 | 8.725 | 32.798 | 2 |
| 2025-04-25T09:55:00 | 53.877522 | 6.303078 | 2.0 | 8.539 | 2 | 34.791 | 8.714 | 32.799 | 2 |
| 2025-04-25T09:56:00 | 53.876807 | 6.303216 | 2.0 | 8.522 | 2 | 34.792 | 8.709 | 32.805 | 2 |
| 2025-04-25T09:57:00 | 53.876114 | 6.303407 | 2.0 | 8.519 | 2 | 34.790 | 8.702 | 32.809 | 2 |
| 2025-04-25T09:58:00 | 53.875464 | 6.303672 | 2.0 | 8.491 | 2 | 34.785 | 8.687 | 32.818 | 2 |
| 2025-04-25T09:59:00 | 53.874815 | 6.303894 | 2.0 | 8.524 | 2 | 34.785 | 8.685 | 32.819 | 2 |
| 2025-04-25T10:00:00 | 53.874176 | 6.304124 | 2.0 | 8.525 | 2 | 34.798 | 8.699 | 32.820 | 2 |
| 2025-04-25T10:01:00 | 53.873549 | 6.304347 | 2.0 | 8.527 | 2 | 34.804 | 8.707 | 32.819 | 2 |
| 2025-04-25T10:02:00 | 53.872911 | 6.304531 | 2.0 | 8.500 | 2 | 34.790 | 8.691 | 32.819 | 2 |
| 2025-04-25T10:03:00 | 53.872295 | 6.304746 | 2.0 | 8.529 | 2 | 34.775 | 8.681 | 32.813 | 2 |
| 2025-04-25T10:04:00 | 53.871663 | 6.304926 | 2.0 | 8.527 | 2 | 34.792 | 8.707 | 32.806 | 2 |
| 2025-04-25T10:05:00 | 53.871040 | 6.305116 | 2.0 | 8.545 | 2 | 34.783 | 8.704 | 32.800 | 2 |
| 2025-04-25T10:06:00 | 53.870410 | 6.305286 | 2.0 | 8.534 | 2 | 34.786 | 8.716 | 32.792 | 2 |
| 2025-04-25T10:07:00 | 53.869771 | 6.305450 | 2.0 | 8.531 | 2 | 34.777 | 8.711 | 32.787 | 2 |
| 2025-04-25T10:08:00 | 53.869138 | 6.305625 | 2.0 | 8.502 | 2 | 34.771 | 8.711 | 32.781 | 2 |
| 2025-04-25T10:09:00 | 53.868494 | 6.305776 | 2.0 | 8.562 | 2 | 34.754 | 8.685 | 32.787 | 2 |
| 2025-04-25T10:10:00 | 53.867858 | 6.305950 | 2.0 | 8.548 | 2 | 34.785 | 8.744 | 32.765 | 2 |
| 2025-04-25T10:11:00 | 53.867245 | 6.306165 | 2.0 | 8.524 | 2 | 34.768 | 8.706 | 32.782 | 2 |
| 2025-04-25T10:12:00 | 53.866627 | 6.306354 | 2.0 | 8.578 | 2 | 34.761 | 8.706 | 32.775 | 2 |
| 2025-04-25T10:13:00 | 53.866018 | 6.306569 | 2.0 | 8.622 | 2 | 34.796 | 8.755 | 32.766 | 2 |
| 2025-04-25T10:14:00 | 53.865395 | 6.306758 | 2.0 | 8.634 | 2 | 34.820 | 8.787 | 32.762 | 2 |
| 2025-04-25T10:15:00 | 53.864811 | 6.307026 | 2.0 | 8.637 | 2 | 34.823 | 8.800 | 32.753 | 2 |
| 2025-04-25T10:16:00 | 53.864228 | 6.307285 | 2.0 | 8.509 | 2 | 34.820 | 8.778 | 32.770 | 2 |
| 2025-04-25T10:17:00 | 53.863658 | 6.307592 | 2.0 | 8.574 | 2 | 34.767 | 8.706 | 32.781 | 2 |
| 2025-04-25T10:18:00 | 53.863093 | 6.307868 | 2.0 | 8.595 | 2 | 34.797 | 8.746 | 32.776 | 2 |
| 2025-04-25T10:19:00 | 53.862519 | 6.308177 | 2.0 | 8.583 | 2 | 34.819 | 8.774 | 32.773 | 2 |
| 2025-04-25T10:20:00 | 53.861954 | 6.308490 | 2.0 | 8.645 | 2 | 34.811 | 8.769 | 32.769 | 2 |
| 2025-04-25T10:21:00 | 53.861382 | 6.308781 | 2.0 | 8.654 | 2 | 34.846 | 8.824 | 32.755 | 2 |
| 2025-04-25T10:22:00 | 53.860820 | 6.309107 | 2.0 | 8.637 | 2 | 34.850 | 8.822 | 32.761 | 2 |
| 2025-04-25T10:23:00 | 53.860226 | 6.309332 | 2.0 | 8.609 | 2 | 34.840 | 8.808 | 32.763 | 2 |
| 2025-04-25T10:24:00 | 53.859625 | 6.309530 | 2.0 | 8.626 | 2 | 34.821 | 8.786 | 32.764 | 2 |
| 2025-04-25T10:25:00 | 53.859060 | 6.309790 | 2.0 | 8.602 | 2 | 34.829 | 8.788 | 32.770 | 2 |
| 2025-04-25T10:26:00 | 53.858472 | 6.310016 | 2.0 | 8.608 | 2 | 34.818 | 8.779 | 32.767 | 2 |
| 2025-04-25T10:27:00 | 53.857877 | 6.310245 | 2.0 | 8.631 | 2 | 34.829 | 8.793 | 32.765 | 2 |
| 2025-04-25T10:28:00 | 53.857250 | 6.310369 | 2.0 | 8.623 | 2 | 34.833 | 8.793 | 32.770 | 2 |
| 2025-04-25T10:29:00 | 53.856628 | 6.310507 | 2.0 | 8.617 | 2 | 34.838 | 8.802 | 32.767 | 2 |
| 2025-04-25T10:30:00 | 53.855994 | 6.310637 | 2.0 | 8.649 | 2 | 34.831 | 8.800 | 32.761 | 2 |
| 2025-04-25T10:31:00 | 53.855371 | 6.310772 | 2.0 | 8.618 | 2 | 34.821 | 8.795 | 32.755 | 2 |
| 2025-04-25T10:32:00 | 53.854739 | 6.310906 | 2.0 | 8.655 | 2 | 34.811 | 8.802 | 32.738 | 2 |
| 2025-04-25T10:33:00 | 53.854112 | 6.311045 | 2.0 | 8.668 | 2 | 34.825 | 8.820 | 32.736 | 2 |
| 2025-04-25T10:34:00 | 53.853471 | 6.311168 | 2.0 | 8.709 | 2 | 34.544 | 8.844 | 32.421 | 2 |
| 2025-04-25T10:35:00 | 53.852826 | 6.310933 | 2.0 | 8.625 | 2 | 34.850 | 8.869 | 32.717 | 2 |
| 2025-04-25T10:36:00 | 53.852209 | 6.310401 | 2.0 | 8.580 | 2 | 34.796 | 8.795 | 32.729 | 2 |
| 2025-04-25T10:37:00 | 53.851643 | 6.309658 | 2.0 | 8.586 | 2 | 34.770 | 8.772 | 32.723 | 2 |
| 2025-04-25T10:38:00 | 53.851185 | 6.308783 | 2.0 | 8.585 | 2 | 34.770 | 8.777 | 32.719 | 2 |
| 2025-04-25T10:39:00 | 53.851195 | 6.307966 | 2.0 | 8.555 | 2 | 34.754 | 8.732 | 32.743 | 2 |
| 2025-04-25T10:40:00 | 53.851279 | 6.307232 | 2.0 | 8.547 | 2 | 34.574 | 8.755 | 32.534 | 2 |
| 2025-04-25T10:41:00 | 53.851373 | 6.306507 | 2.0 | 8.532 | 2 | 34.433 | 8.737 | 32.403 | 2 |
| 2025-04-25T10:42:00 | 53.851481 | 6.305982 | 2.0 | 8.617 | 2 | 34.541 | 8.745 | 32.509 | 2 |
| 2025-04-25T10:43:00 | 53.851648 | 6.305546 | 2.0 | 8.604 | 2 | 34.418 | 8.814 | 32.317 | 2 |
| 2025-04-25T10:44:00 | 53.851809 | 6.305149 | 2.0 | 8.529 | 2 | 34.670 | 8.776 | 32.615 | 2 |
| 2025-04-25T10:45:00 | 53.851934 | 6.304703 | 2.0 | 8.546 | 2 | 34.509 | 8.736 | 32.484 | 2 |
| 2025-04-25T10:46:00 | 53.852091 | 6.304251 | 2.0 | 8.746 | 2 | 34.790 | 8.798 | 32.720 | 2 |
| 2025-04-25T10:47:00 | 53.852260 | 6.304098 | 2.0 | 8.750 | 2 | 34.725 | 8.930 | 32.531 | 2 |
| 2025-04-25T10:48:00 | 53.852427 | 6.304452 | 2.0 | 8.748 | 2 | 34.705 | 8.945 | 32.496 | 2 |
| 2025-04-25T10:49:00 | 53.852579 | 6.305081 | 2.0 | 8.737 | 2 | 34.908 | 8.940 | 32.712 | 2 |
| 2025-04-25T10:50:00 | 53.852523 | 6.305836 | 2.0 | 8.595 | 2 | 34.581 | 8.912 | 32.398 | 2 |
| 2025-04-25T10:51:00 | 53.852381 | 6.306531 | 2.0 | 8.802 | 2 | 34.509 | 8.826 | 32.401 | 2 |
| 2025-04-25T10:52:00 | 53.852431 | 6.307031 | 2.0 | 8.833 | 2 | 34.869 | 8.993 | 32.623 | 2 |
| 2025-04-25T10:53:00 | 53.852443 | 6.307426 | 2.0 | 8.807 | 2 | 34.554 | 9.025 | 32.267 | 2 |
| 2025-04-25T10:54:00 | 53.852247 | 6.307607 | 2.0 | 8.739 | 2 | 34.665 | 8.996 | 32.408 | 2 |
| 2025-04-25T10:55:00 | 53.851969 | 6.307391 | 2.0 | 8.645 | 2 | 34.606 | 8.940 | 32.398 | 2 |
| 2025-04-25T10:56:00 | 53.851779 | 6.306949 | 2.0 | 8.598 | 2 | 34.599 | 8.828 | 32.493 | 2 |
| 2025-04-25T10:57:00 | 53.851673 | 6.306493 | 2.0 | 8.598 | 2 | 34.492 | 8.831 | 32.379 | 2 |
| 2025-04-25T10:58:00 | 53.851592 | 6.306201 | 2.0 | 8.728 | 2 | 34.790 | 8.788 | 32.729 | 2 |
| 2025-04-25T10:59:00 | 53.851481 | 6.305864 | 2.0 | 8.723 | 2 | 34.666 | 8.899 | 32.498 | 2 |
| 2025-04-25T11:00:00 | 53.851434 | 6.305162 | 2.0 | 8.633 | 2 | 34.540 | 8.911 | 32.356 | 2 |
| 2025-04-25T11:01:00 | 53.851583 | 6.304673 | 2.0 | 8.571 | 2 | 34.358 | 8.828 | 32.242 | 2 |
| 2025-04-25T11:02:00 | 53.851622 | 6.304813 | 2.0 | 8.567 | 2 | 34.569 | 8.774 | 32.511 | 2 |
| 2025-04-25T11:03:00 | 53.851638 | 6.305190 | 2.0 | 8.698 | 2 | 34.634 | 8.780 | 32.574 | 2 |
| 2025-04-25T11:04:00 | 53.851688 | 6.305546 | 2.0 | 8.848 | 2 | 34.687 | 8.946 | 32.477 | 2 |
| 2025-04-25T11:05:00 | 53.851762 | 6.305809 | 2.0 | 8.754 | 2 | 34.774 | 9.017 | 32.502 | 2 |
| 2025-04-25T11:06:00 | 53.851834 | 6.305976 | 2.0 | 8.713 | 2 | 34.898 | 8.970 | 32.674 | 2 |
| 2025-04-25T11:07:00 | 53.851936 | 6.305826 | 2.0 | 8.687 | 2 | 34.644 | 8.897 | 32.477 | 2 |
| 2025-04-25T11:08:00 | 53.852025 | 6.305362 | 2.0 | 8.811 | 2 | 34.742 | 8.924 | 32.554 | 2 |
| 2025-04-25T11:09:00 | 53.852190 | 6.304441 | 2.0 | 8.799 | 2 | 34.681 | 8.999 | 32.422 | 2 |
| 2025-04-25T11:10:00 | 53.852504 | 6.303512 | 2.0 | 8.762 | 2 | 34.919 | 9.000 | 32.668 | 2 |
| 2025-04-25T11:11:00 | 53.852806 | 6.303107 | 2.0 | 8.680 | 2 | 34.874 | 8.952 | 32.666 | 2 |
| 2025-04-25T11:12:00 | 53.853145 | 6.303023 | 2.0 | 8.737 | 2 | 34.794 | 8.907 | 32.624 | 2 |
| 2025-04-25T11:13:00 | 53.853468 | 6.302975 | 2.0 | 8.771 | 2 | 34.904 | 8.946 | 32.703 | 2 |
| 2025-04-25T11:14:00 | 53.853790 | 6.302930 | 2.0 | 8.767 | 2 | 34.902 | 8.975 | 32.674 | 2 |
| 2025-04-25T11:15:00 | 53.854109 | 6.302866 | 2.0 | 8.781 | 2 | 34.813 | 8.974 | 32.582 | 2 |
| 2025-04-25T11:16:00 | 53.854245 | 6.302912 | 2.0 | 8.718 | 2 | 34.743 | 8.966 | 32.517 | 2 |
| 2025-04-25T11:17:00 | 53.854255 | 6.303021 | 2.0 | 8.791 | 2 | 34.861 | 8.948 | 32.656 | 2 |
| 2025-04-25T11:18:00 | 53.854274 | 6.303222 | 2.0 | 8.780 | 2 | 34.924 | 8.999 | 32.675 | 2 |
| 2025-04-25T11:19:00 | 53.854422 | 6.303371 | 2.0 | 8.778 | 2 | 34.834 | 8.978 | 32.600 | 2 |
| 2025-04-25T11:20:00 | 53.854775 | 6.303681 | 2.0 | 8.777 | 2 | 34.840 | 8.983 | 32.602 | 2 |
| 2025-04-25T11:21:00 | 53.855057 | 6.303953 | 2.0 | 8.803 | 2 | 34.818 | 8.991 | 32.572 | 2 |
| 2025-04-25T11:22:00 | 53.855246 | 6.304187 | 2.0 | 8.803 | 2 | 34.867 | 9.007 | 32.608 | 2 |
| 2025-04-25T11:23:00 | 53.855376 | 6.304404 | 2.0 | 8.808 | 2 | 34.839 | 9.012 | 32.574 | 2 |
| 2025-04-25T11:24:00 | 53.855446 | 6.304680 | 2.0 | 8.803 | 2 | 34.781 | 9.015 | 32.511 | 2 |
| 2025-04-25T11:25:00 | 53.855481 | 6.304977 | 2.0 | 8.803 | 2 | 34.831 | 9.013 | 32.565 | 2 |
| 2025-04-25T11:26:00 | 53.855506 | 6.305202 | 2.0 | 8.800 | 2 | 34.893 | 9.016 | 32.627 | 2 |
| 2025-04-25T11:27:00 | 53.855519 | 6.305349 | 2.0 | 8.765 | 2 | 34.870 | 9.000 | 32.618 | 2 |
| 2025-04-25T11:28:00 | 53.855513 | 6.305456 | 2.0 | 8.735 | 2 | 34.846 | 8.975 | 32.616 | 2 |
| 2025-04-25T11:29:00 | 53.855503 | 6.305528 | 2.0 | 8.753 | 2 | 34.830 | 8.949 | 32.623 | 2 |
| 2025-04-25T11:30:00 | 53.855490 | 6.305583 | 2.0 | 8.782 | 2 | 34.810 | 8.970 | 32.583 | 2 |
| 2025-04-25T11:31:00 | 53.855484 | 6.305669 | 2.0 | 8.786 | 2 | 34.855 | 8.985 | 32.616 | 2 |
| 2025-04-25T11:32:00 | 53.855509 | 6.305727 | 2.0 | 8.800 | 2 | 34.858 | 8.994 | 32.611 | 2 |
| 2025-04-25T11:33:00 | 53.855561 | 6.305760 | 2.0 | 8.780 | 2 | 34.905 | 9.002 | 32.652 | 2 |
| 2025-04-25T11:34:00 | 53.855635 | 6.305868 | 2.0 | 8.779 | 2 | 34.886 | 8.995 | 32.639 | 2 |
| 2025-04-25T11:35:00 | 53.855719 | 6.306121 | 2.0 | 8.774 | 2 | 34.913 | 8.981 | 32.680 | 2 |
| 2025-04-25T11:36:00 | 53.855813 | 6.306395 | 2.0 | 8.763 | 2 | 34.878 | 8.977 | 32.647 | 2 |
| 2025-04-25T11:37:00 | 53.855919 | 6.306548 | 2.0 | 8.736 | 2 | 34.865 | 8.963 | 32.646 | 2 |
| 2025-04-25T11:38:00 | 53.856014 | 6.306634 | 2.0 | 8.745 | 2 | 34.831 | 8.943 | 32.629 | 2 |
| 2025-04-25T11:39:00 | 53.856096 | 6.306729 | 2.0 | 8.837 | 2 | 34.877 | 8.975 | 32.648 | 2 |
| 2025-04-25T11:40:00 | 53.856172 | 6.306838 | 2.0 | 8.804 | 2 | 34.932 | 9.037 | 32.648 | 2 |
| 2025-04-25T11:41:00 | 53.856256 | 6.306944 | 2.0 | 8.785 | 2 | 34.904 | 9.011 | 32.643 | 2 |
| 2025-04-25T11:42:00 | 53.856331 | 6.307063 | 2.0 | 8.751 | 2 | 34.894 | 8.982 | 32.659 | 2 |
| 2025-04-25T11:43:00 | 53.856420 | 6.307193 | 2.0 | 8.779 | 2 | 34.907 | 8.976 | 32.678 | 2 |
| 2025-04-25T11:44:00 | 53.856504 | 6.307349 | 2.0 | 8.790 | 2 | 34.918 | 8.999 | 32.668 | 2 |
| 2025-04-25T11:45:00 | 53.856599 | 6.307509 | 2.0 | 8.831 | 2 | 34.915 | 9.003 | 32.662 | 2 |
| 2025-04-25T11:46:00 | 53.856691 | 6.307680 | 2.0 | 8.784 | 2 | 34.933 | 9.031 | 32.655 | 2 |
| 2025-04-25T11:47:00 | 53.856782 | 6.307861 | 2.0 | 8.758 | 2 | 34.922 | 8.993 | 32.678 | 2 |
| 2025-04-25T11:48:00 | 53.856877 | 6.308040 | 2.0 | 8.833 | 2 | 34.919 | 8.996 | 32.672 | 2 |
| 2025-04-25T11:49:00 | 53.856974 | 6.308208 | 2.0 | 8.796 | 2 | 34.957 | 9.033 | 32.678 | 2 |
| 2025-04-25T11:50:00 | 53.857088 | 6.308344 | 2.0 | 8.850 | 2 | 34.943 | 9.019 | 32.676 | 2 |
| 2025-04-25T11:51:00 | 53.857183 | 6.308467 | 2.0 | 8.788 | 2 | 34.970 | 9.050 | 32.675 | 2 |
| 2025-04-25T11:52:00 | 53.857298 | 6.308567 | 2.0 | 8.878 | 2 | 34.882 | 9.019 | 32.613 | 2 |
| 2025-04-25T11:53:00 | 53.857337 | 6.308759 | 2.0 | 8.892 | 2 | 34.993 | 9.093 | 32.660 | 2 |
| 2025-04-25T11:54:00 | 53.857379 | 6.309017 | 2.0 | 8.843 | 2 | 34.996 | 9.090 | 32.666 | 2 |
| 2025-04-25T11:55:00 | 53.857468 | 6.309296 | 2.0 | 8.874 | 2 | 34.977 | 9.074 | 32.661 | 2 |
| 2025-04-25T11:56:00 | 53.857577 | 6.309577 | 2.0 | 8.873 | 2 | 34.991 | 9.094 | 32.657 | 2 |
| 2025-04-25T11:57:00 | 53.857682 | 6.309872 | 2.0 | 8.828 | 2 | 34.979 | 9.069 | 32.667 | 2 |
| 2025-04-25T11:58:00 | 53.857808 | 6.310155 | 2.0 | 8.843 | 2 | 34.960 | 9.049 | 32.666 | 2 |
| 2025-04-25T11:59:00 | 53.857897 | 6.310448 | 2.0 | 8.863 | 2 | 34.972 | 9.065 | 32.664 | 2 |
| 2025-04-25T12:00:00 | 53.857982 | 6.310666 | 2.0 | 8.896 | 2 | 34.483 | 9.085 | 32.139 | 2 |
| 2025-04-25T12:01:00 | 53.858054 | 6.310841 | 2.0 | 8.886 | 2 | 34.810 | 9.094 | 32.469 | 2 |
| 2025-04-25T12:02:00 | 53.858123 | 6.310961 | 2.0 | 8.905 | 2 | 34.997 | 9.098 | 32.659 | 2 |
| 2025-04-25T12:03:00 | 53.858164 | 6.311039 | 2.0 | 8.927 | 2 | 35.013 | 9.128 | 32.648 | 2 |
| 2025-04-25T12:04:00 | 53.858198 | 6.311123 | 2.0 | 8.925 | 2 | 34.627 | 9.136 | 32.242 | 2 |
| 2025-04-25T12:05:00 | 53.858237 | 6.311202 | 2.0 | 8.877 | 2 | 34.845 | 9.129 | 32.474 | 2 |
| 2025-04-25T12:06:00 | 53.858281 | 6.311289 | 2.0 | 8.866 | 2 | 34.974 | 9.084 | 32.648 | 2 |
| 2025-04-25T12:07:00 | 53.858336 | 6.311376 | 2.0 | 8.985 | 2 | 34.799 | 9.093 | 32.459 | 2 |
| 2025-04-25T12:08:00 | 53.858371 | 6.311488 | 2.0 | 8.926 | 2 | 34.717 | 9.181 | 32.294 | 2 |
| 2025-04-25T12:09:00 | 53.858431 | 6.311597 | 2.0 | 8.982 | 2 | 34.681 | 9.146 | 32.289 | 2 |
| 2025-04-25T12:10:00 | 53.858461 | 6.311727 | 2.0 | 8.940 | 2 | 35.011 | 9.179 | 32.600 | 2 |
| 2025-04-25T12:11:00 | 53.858500 | 6.311846 | 2.0 | 9.024 | 2 | 34.763 | 9.178 | 32.344 | 2 |
| 2025-04-25T12:12:00 | 53.858545 | 6.311969 | 2.0 | 8.990 | 2 | 34.768 | 9.232 | 32.301 | 2 |
| 2025-04-25T12:13:00 | 53.858586 | 6.312111 | 2.0 | 9.002 | 2 | 34.527 | 9.188 | 32.092 | 2 |
| 2025-04-25T12:14:00 | 53.858638 | 6.312245 | 2.0 | 9.064 | 2 | 34.919 | 9.232 | 32.456 | 2 |
| 2025-04-25T12:15:00 | 53.858671 | 6.312372 | 2.0 | 9.106 | 2 | 35.076 | 9.270 | 32.584 | 2 |
| 2025-04-25T12:16:00 | 53.858713 | 6.312469 | 2.0 | 9.124 | 2 | 35.092 | 9.336 | 32.540 | 2 |
| 2025-04-25T12:17:00 | 53.858724 | 6.312558 | 2.0 | 9.112 | 2 | 35.108 | 9.320 | 32.571 | 2 |
| 2025-04-25T12:18:00 | 53.858755 | 6.312600 | 2.0 | 9.094 | 2 | 35.034 | 9.317 | 32.498 | 2 |
| 2025-04-25T12:19:00 | 53.858775 | 6.312637 | 2.0 | 9.114 | 2 | 34.771 | 9.303 | 32.239 | 2 |
| 2025-04-25T12:20:00 | 53.858780 | 6.312707 | 2.0 | 9.119 | 2 | 34.850 | 9.318 | 32.307 | 2 |
| 2025-04-25T12:21:00 | 53.858792 | 6.312779 | 2.0 | 9.136 | 2 | 34.873 | 9.330 | 32.320 | 2 |
| 2025-04-25T12:22:00 | 53.858808 | 6.312877 | 2.0 | 9.145 | 2 | 34.930 | 9.337 | 32.372 | 2 |
| 2025-04-25T12:23:00 | 53.858840 | 6.312986 | 2.0 | 9.113 | 2 | 34.981 | 9.328 | 32.433 | 2 |
| 2025-04-25T12:24:00 | 53.858870 | 6.313112 | 2.0 | 9.091 | 2 | 34.946 | 9.307 | 32.416 | 2 |
| 2025-04-25T12:25:00 | 53.858896 | 6.313231 | 2.0 | 9.073 | 2 | 34.935 | 9.276 | 32.433 | 2 |
| 2025-04-25T12:26:00 | 53.858919 | 6.313317 | 2.0 | 9.089 | 2 | 34.899 | 9.266 | 32.405 | 2 |
| 2025-04-25T12:27:00 | 53.858898 | 6.313393 | 2.0 | 9.073 | 2 | 34.948 | 9.273 | 32.449 | 2 |
| 2025-04-25T12:28:00 | 53.858893 | 6.313415 | 2.0 | 9.110 | 2 | 34.982 | 9.267 | 32.490 | 2 |
| 2025-04-25T12:29:00 | 53.858883 | 6.313414 | 2.0 | 9.106 | 2 | 34.937 | 9.287 | 32.425 | 2 |
| 2025-04-25T12:30:00 | 53.858853 | 6.313429 | 2.0 | 9.149 | 2 | 34.894 | 9.293 | 32.375 | 2 |
| 2025-04-25T12:31:00 | 53.858842 | 6.313424 | 2.0 | 9.176 | 2 | 34.898 | 9.333 | 32.343 | 2 |
| 2025-04-25T12:32:00 | 53.858812 | 6.313426 | 2.0 | 9.153 | 2 | 35.039 | 9.347 | 32.476 | 2 |
| 2025-04-25T12:33:00 | 53.858794 | 6.313414 | 2.0 | 9.180 | 2 | 34.977 | 9.338 | 32.420 | 2 |
| 2025-04-25T12:34:00 | 53.858772 | 6.313415 | 2.0 | 9.122 | 2 | 34.892 | 9.354 | 32.318 | 2 |
| 2025-04-25T12:35:00 | 53.858739 | 6.313407 | 2.0 | 9.182 | 2 | 34.951 | 9.326 | 32.404 | 2 |
| 2025-04-25T12:36:00 | 53.858720 | 6.313370 | 2.0 | 9.135 | 2 | 34.942 | 9.351 | 32.372 | 2 |
| 2025-04-25T12:37:00 | 53.858693 | 6.313358 | 2.0 | 9.165 | 2 | 35.019 | 9.318 | 32.481 | 2 |
| 2025-04-25T12:38:00 | 53.858670 | 6.313328 | 2.0 | 9.175 | 2 | 34.916 | 9.349 | 32.347 | 2 |
| 2025-04-25T12:39:00 | 53.858660 | 6.313300 | 2.0 | 9.193 | 2 | 34.923 | 9.366 | 32.339 | 2 |
| 2025-04-25T12:40:00 | 53.858645 | 6.313288 | 2.0 | 9.184 | 2 | 34.964 | 9.367 | 32.380 | 2 |
| 2025-04-25T12:41:00 | 53.858645 | 6.313260 | 2.0 | 9.229 | 2 | 34.919 | 9.364 | 32.337 | 2 |
| 2025-04-25T12:42:00 | 53.858634 | 6.313241 | 2.0 | 9.245 | 2 | 34.914 | 9.406 | 32.294 | 2 |
| 2025-04-25T12:43:00 | 53.858618 | 6.313223 | 2.0 | 9.250 | 2 | 35.012 | 9.425 | 32.377 | 2 |
| 2025-04-25T12:44:00 | 53.858610 | 6.313195 | 2.0 | 9.234 | 2 | 35.022 | 9.423 | 32.389 | 2 |
| 2025-04-25T12:45:00 | 53.858598 | 6.313182 | 2.0 | 9.209 | 2 | 34.982 | 9.402 | 32.367 | 2 |
| 2025-04-25T12:46:00 | 53.858506 | 6.313270 | 2.0 | 9.139 | 2 | 34.998 | 9.390 | 32.394 | 2 |
| 2025-04-25T12:47:00 | 53.857862 | 6.312953 | 2.0 | 9.071 | 2 | 34.865 | 9.275 | 32.362 | 2 |
| 2025-04-25T12:48:00 | 53.856671 | 6.312555 | 2.0 | 9.019 | 2 | 34.869 | 9.270 | 32.370 | 2 |
| 2025-04-25T12:49:00 | 53.855424 | 6.311392 | 2.0 | 9.012 | 2 | 34.837 | 9.220 | 32.383 | 2 |
| 2025-04-25T12:50:00 | 53.854236 | 6.309722 | 2.0 | 8.961 | 2 | 34.804 | 9.143 | 32.418 | 2 |
| 2025-04-25T12:51:00 | 53.853097 | 6.308165 | 2.0 | 9.026 | 2 | 34.822 | 9.163 | 32.419 | 2 |
| 2025-04-25T12:52:00 | 53.852055 | 6.306735 | 2.0 | 9.231 | 2 | 34.889 | 9.253 | 32.406 | 2 |
| 2025-04-25T12:53:00 | 53.851147 | 6.305361 | 2.0 | 9.167 | 2 | 34.942 | 9.403 | 32.325 | 2 |
| 2025-04-25T12:54:00 | 53.850342 | 6.304549 | 2.0 | 9.152 | 2 | 34.973 | 9.353 | 32.402 | 2 |
| 2025-04-25T12:55:00 | 53.849733 | 6.304290 | 2.0 | 9.166 | 2 | 34.919 | 9.351 | 32.348 | 2 |
| 2025-04-25T12:56:00 | 53.849117 | 6.304224 | 2.0 | 9.214 | 2 | 34.939 | 9.364 | 32.357 | 2 |
| 2025-04-25T12:57:00 | 53.848499 | 6.303898 | 2.0 | 9.053 | 2 | 34.976 | 9.382 | 32.379 | 2 |
| 2025-04-25T12:58:00 | 53.848105 | 6.302903 | 2.0 | 9.061 | 2 | 34.948 | 9.246 | 32.474 | 2 |
| 2025-04-25T12:59:00 | 53.847912 | 6.301730 | 2.0 | 9.207 | 2 | 34.933 | 9.294 | 32.414 | 2 |
| 2025-04-25T13:00:00 | 53.847932 | 6.300351 | 2.0 | 9.166 | 2 | 35.020 | 9.416 | 32.393 | 2 |
| 2025-04-25T13:01:00 | 53.848247 | 6.299192 | 2.0 | 9.253 | 2 | 35.004 | 9.379 | 32.410 | 2 |
| 2025-04-25T13:02:00 | 53.848740 | 6.298565 | 2.0 | 9.305 | 2 | 35.044 | 9.452 | 32.385 | 2 |
| 2025-04-25T13:03:00 | 53.849384 | 6.298325 | 2.0 | 9.068 | 2 | 35.057 | 9.457 | 32.394 | 2 |
| 2025-04-25T13:04:00 | 53.850157 | 6.298282 | 2.0 | 8.955 | 2 | 34.965 | 9.263 | 32.476 | 2 |
| 2025-04-25T13:05:00 | 53.850886 | 6.298390 | 2.0 | 9.119 | 2 | 34.950 | 9.220 | 32.499 | 2 |
| 2025-04-25T13:06:00 | 53.851465 | 6.298454 | 2.0 | 9.037 | 2 | 34.984 | 9.313 | 32.450 | 2 |
| 2025-04-25T13:07:00 | 53.851825 | 6.298379 | 2.0 | 9.111 | 2 | 34.969 | 9.260 | 32.482 | 2 |
| 2025-04-25T13:08:00 | 53.852100 | 6.298313 | 2.0 | 9.182 | 2 | 34.986 | 9.329 | 32.437 | 2 |
| 2025-04-25T13:09:00 | 53.852347 | 6.298303 | 2.0 | 9.271 | 2 | 35.028 | 9.403 | 32.413 | 2 |
| 2025-04-25T13:10:00 | 53.852591 | 6.298343 | 2.0 | 9.208 | 2 | 35.066 | 9.455 | 32.405 | 2 |
| 2025-04-25T13:11:00 | 53.852840 | 6.298447 | 2.0 | 9.187 | 2 | 35.038 | 9.396 | 32.430 | 2 |
| 2025-04-25T13:12:00 | 53.853083 | 6.298621 | 2.0 | 9.212 | 2 | 35.030 | 9.381 | 32.435 | 2 |
| 2025-04-25T13:13:00 | 53.853299 | 6.298824 | 2.0 | 9.258 | 2 | 35.053 | 9.428 | 32.416 | 2 |
| 2025-04-25T13:14:00 | 53.853471 | 6.299037 | 2.0 | 9.285 | 2 | 35.075 | 9.456 | 32.414 | 2 |
| 2025-04-25T13:15:00 | 53.853663 | 6.299419 | 2.0 | 9.278 | 2 | 35.086 | 9.492 | 32.392 | 2 |
| 2025-04-25T13:16:00 | 53.853880 | 6.299973 | 2.0 | 9.256 | 2 | 35.065 | 9.477 | 32.384 | 2 |
| 2025-04-25T13:17:00 | 53.854054 | 6.300466 | 2.0 | 9.268 | 2 | 35.042 | 9.463 | 32.373 | 2 |
| 2025-04-25T13:18:00 | 53.854178 | 6.300890 | 2.0 | 9.275 | 2 | 35.040 | 9.471 | 32.364 | 2 |
| 2025-04-25T13:19:00 | 53.854245 | 6.301230 | 2.0 | 9.292 | 2 | 35.042 | 9.483 | 32.355 | 2 |
| 2025-04-25T13:20:00 | 53.854281 | 6.301515 | 2.0 | 9.311 | 2 | 35.049 | 9.497 | 32.350 | 2 |
| 2025-04-25T13:21:00 | 53.854341 | 6.301784 | 2.0 | 9.363 | 2 | 35.066 | 9.526 | 32.341 | 2 |
| 2025-04-25T13:22:00 | 53.854410 | 6.302005 | 2.0 | 9.369 | 2 | 35.082 | 9.552 | 32.334 | 2 |
| 2025-04-25T13:23:00 | 53.854286 | 6.302055 | 2.0 | 9.406 | 2 | 35.101 | 9.585 | 32.324 | 2 |
| 2025-04-25T13:24:00 | 53.854282 | 6.301888 | 2.0 | 9.431 | 2 | 35.121 | 9.608 | 32.324 | 2 |
| 2025-04-25T13:25:00 | 53.854383 | 6.302128 | 2.0 | 9.494 | 2 | 35.126 | 9.628 | 32.311 | 2 |
| 2025-04-25T13:26:00 | 53.854470 | 6.302386 | 2.0 | 9.573 | 2 | 35.151 | 9.708 | 32.264 | 2 |
| 2025-04-25T13:27:00 | 53.854516 | 6.302602 | 2.0 | 9.630 | 2 | 35.164 | 9.779 | 32.214 | 2 |
| 2025-04-25T13:28:00 | 53.854487 | 6.302719 | 2.0 | 9.617 | 2 | 35.182 | 9.831 | 32.186 | 2 |
| 2025-04-25T13:29:00 | 53.854492 | 6.302668 | 2.0 | 9.646 | 2 | 35.155 | 9.820 | 32.168 | 2 |
| 2025-04-25T13:30:00 | 53.854425 | 6.302724 | 2.0 | 9.528 | 2 | 35.184 | 9.856 | 32.166 | 2 |
| 2025-04-25T13:31:00 | 53.853856 | 6.302472 | 2.0 | 9.273 | 2 | 35.065 | 9.642 | 32.236 | 2 |
| 2025-04-25T13:32:00 | 53.853191 | 6.302092 | 2.0 | 9.395 | 2 | 34.956 | 9.514 | 32.239 | 2 |
| 2025-04-25T13:33:00 | 53.852723 | 6.301915 | 2.0 | 9.626 | 2 | 34.974 | 9.643 | 32.142 | 2 |
| 2025-04-25T13:34:00 | 53.852344 | 6.302265 | 2.0 | 9.555 | 2 | 35.053 | 9.809 | 32.074 | 2 |
| 2025-04-25T13:35:00 | 53.852013 | 6.302940 | 2.0 | 9.621 | 2 | 35.016 | 9.774 | 32.068 | 2 |
| 2025-04-25T13:36:00 | 53.851848 | 6.303574 | 2.0 | 9.686 | 2 | 35.031 | 9.835 | 32.029 | 2 |
| 2025-04-25T13:37:00 | 53.851813 | 6.304135 | 2.0 | 9.701 | 2 | 35.037 | 9.873 | 32.001 | 2 |
| 2025-04-25T13:38:00 | 53.851851 | 6.304429 | 2.0 | 9.741 | 2 | 35.051 | 9.913 | 31.980 | 2 |
| 2025-04-25T13:39:00 | 53.851847 | 6.304687 | 2.0 | 9.744 | 2 | 35.068 | 9.942 | 31.971 | 2 |
| 2025-04-25T13:40:00 | 53.851831 | 6.304902 | 2.0 | 9.751 | 2 | 35.062 | 9.940 | 31.967 | 2 |
| 2025-04-25T13:41:00 | 53.851860 | 6.305089 | 2.0 | 9.737 | 2 | 35.066 | 9.950 | 31.962 | 2 |
| 2025-04-25T13:42:00 | 53.851913 | 6.305185 | 2.0 | 9.743 | 2 | 35.056 | 9.942 | 31.959 | 2 |
| 2025-04-25T13:43:00 | 53.851959 | 6.305303 | 2.0 | 9.740 | 2 | 35.057 | 9.946 | 31.957 | 2 |
| 2025-04-25T13:44:00 | 53.851945 | 6.305133 | 2.0 | 9.750 | 2 | 35.047 | 9.944 | 31.948 | 2 |
| 2025-04-25T13:45:00 | 53.851934 | 6.304873 | 2.0 | 9.748 | 2 | 35.058 | 9.959 | 31.946 | 2 |
| 2025-04-25T13:46:00 | 53.851946 | 6.304500 | 2.0 | 9.743 | 2 | 35.056 | 9.954 | 31.949 | 2 |
| 2025-04-25T13:47:00 | 53.852108 | 6.304171 | 2.0 | 9.732 | 2 | 35.052 | 9.947 | 31.951 | 2 |
| 2025-04-25T13:48:00 | 53.852569 | 6.304008 | 2.0 | 9.595 | 2 | 35.036 | 9.917 | 31.961 | 2 |
| 2025-04-25T13:49:00 | 53.853618 | 6.303915 | 2.0 | 9.578 | 2 | 34.970 | 9.805 | 31.994 | 2 |
| 2025-04-25T13:50:00 | 53.855266 | 6.304460 | 2.0 | 9.496 | 2 | 34.989 | 9.750 | 32.062 | 2 |
| 2025-04-25T13:51:00 | 53.857521 | 6.305464 | 2.0 | 9.424 | 2 | 34.966 | 9.685 | 32.096 | 2 |
| 2025-04-25T13:52:00 | 53.860160 | 6.306398 | 2.0 | 9.388 | 2 | 34.932 | 9.626 | 32.114 | 2 |
| 2025-04-25T13:53:00 | 53.862935 | 6.307284 | 2.0 | 9.491 | 2 | 34.925 | 9.592 | 32.138 | 2 |
| 2025-04-25T13:54:00 | 53.865745 | 6.308133 | 2.0 | 9.508 | 2 | 34.998 | 9.674 | 32.139 | 2 |
| 2025-04-25T13:55:00 | 53.868554 | 6.308942 | 2.0 | 9.531 | 2 | 35.032 | 9.694 | 32.156 | 2 |
| 2025-04-25T13:56:00 | 53.871361 | 6.309774 | 2.0 | 9.598 | 2 | 35.058 | 9.720 | 32.159 | 2 |
| 2025-04-25T13:57:00 | 53.874159 | 6.310644 | 2.0 | 9.608 | 2 | 35.092 | 9.769 | 32.150 | 2 |
| 2025-04-25T13:58:00 | 53.876949 | 6.311451 | 2.0 | 9.641 | 2 | 35.113 | 9.815 | 32.130 | 2 |
| 2025-04-25T13:59:00 | 53.879736 | 6.312288 | 2.0 | 9.606 | 2 | 35.071 | 9.826 | 32.078 | 2 |
| 2025-04-25T14:00:00 | 53.882535 | 6.313113 | 2.0 | 9.537 | 2 | 34.961 | 9.770 | 32.016 | 2 |
| 2025-04-25T14:01:00 | 53.885319 | 6.313953 | 2.0 | 9.486 | 2 | 34.903 | 9.719 | 32.002 | 2 |
| 2025-04-25T14:02:00 | 53.888109 | 6.314812 | 2.0 | 9.434 | 2 | 34.918 | 9.643 | 32.085 | 2 |
| 2025-04-25T14:03:00 | 53.890935 | 6.315649 | 2.0 | 9.440 | 2 | 34.954 | 9.607 | 32.154 | 2 |
| 2025-04-25T14:04:00 | 53.893773 | 6.316540 | 2.0 | 9.496 | 2 | 34.968 | 9.626 | 32.151 | 2 |
| 2025-04-25T14:05:00 | 53.896595 | 6.317365 | 2.0 | 9.465 | 2 | 34.948 | 9.681 | 32.082 | 2 |
| 2025-04-25T14:06:00 | 53.899417 | 6.318197 | 2.0 | 9.519 | 2 | 35.032 | 9.681 | 32.167 | 2 |
| 2025-04-25T14:07:00 | 53.902225 | 6.318985 | 2.0 | 9.494 | 2 | 35.030 | 9.672 | 32.173 | 2 |
| 2025-04-25T14:08:00 | 53.905048 | 6.319837 | 2.0 | 9.509 | 2 | 35.073 | 9.683 | 32.207 | 2 |
| 2025-04-25T14:09:00 | 53.907868 | 6.320667 | 2.0 | 9.438 | 2 | 35.082 | 9.672 | 32.226 | 2 |
| 2025-04-25T14:10:00 | 53.910691 | 6.321511 | 2.0 | 9.373 | 2 | 35.055 | 9.621 | 32.244 | 2 |
| 2025-04-25T14:11:00 | 53.913516 | 6.322355 | 2.0 | 9.392 | 2 | 35.000 | 9.585 | 32.221 | 2 |
| 2025-04-25T14:12:00 | 53.916354 | 6.323249 | 2.0 | 9.320 | 2 | 34.998 | 9.574 | 32.228 | 2 |
| 2025-04-25T14:13:00 | 53.919201 | 6.324107 | 2.0 | 9.343 | 2 | 34.917 | 9.521 | 32.193 | 2 |
| 2025-04-25T14:14:00 | 53.922046 | 6.324956 | 2.0 | 9.389 | 2 | 34.908 | 9.537 | 32.170 | 2 |
| 2025-04-25T14:15:00 | 53.924869 | 6.325762 | 2.0 | 9.508 | 2 | 34.932 | 9.598 | 32.139 | 2 |
| 2025-04-25T14:16:00 | 53.927669 | 6.326610 | 2.0 | 9.521 | 2 | 35.003 | 9.688 | 32.131 | 2 |
| 2025-04-25T14:17:00 | 53.930502 | 6.327453 | 2.0 | 9.438 | 2 | 34.963 | 9.655 | 32.120 | 2 |
| 2025-04-25T14:18:00 | 53.933338 | 6.328273 | 2.0 | 9.528 | 2 | 34.943 | 9.642 | 32.111 | 2 |
| 2025-04-25T14:19:00 | 53.936191 | 6.329164 | 2.0 | 9.442 | 2 | 35.002 | 9.696 | 32.123 | 2 |
| 2025-04-25T14:20:00 | 53.939066 | 6.329984 | 2.0 | 9.226 | 2 | 34.942 | 9.579 | 32.167 | 2 |
| 2025-04-25T14:21:00 | 53.941916 | 6.330890 | 2.0 | 9.344 | 2 | 34.880 | 9.449 | 32.220 | 2 |
| 2025-04-25T14:22:00 | 53.944793 | 6.331732 | 2.0 | 9.396 | 2 | 34.914 | 9.543 | 32.170 | 2 |
| 2025-04-25T14:23:00 | 53.947645 | 6.332599 | 2.0 | 9.130 | 2 | 34.927 | 9.507 | 32.216 | 2 |
| 2025-04-25T14:24:00 | 53.950506 | 6.333425 | 2.0 | 9.289 | 2 | 34.879 | 9.383 | 32.278 | 2 |
| 2025-04-25T14:25:00 | 53.953357 | 6.334305 | 2.0 | 9.468 | 2 | 34.959 | 9.506 | 32.250 | 2 |
| 2025-04-25T14:26:00 | 53.956147 | 6.335166 | 2.0 | 9.400 | 2 | 35.037 | 9.614 | 32.232 | 2 |
| 2025-04-25T14:27:00 | 53.958985 | 6.336025 | 2.0 | 9.325 | 2 | 35.004 | 9.544 | 32.262 | 2 |
| 2025-04-25T14:28:00 | 53.961816 | 6.336831 | 2.0 | 9.321 | 2 | 35.001 | 9.527 | 32.274 | 2 |
| 2025-04-25T14:29:00 | 53.964674 | 6.337734 | 2.0 | 9.324 | 2 | 34.981 | 9.476 | 32.299 | 2 |
| 2025-04-25T14:30:00 | 53.967498 | 6.338605 | 2.0 | 9.237 | 2 | 35.032 | 9.525 | 32.307 | 2 |
| 2025-04-25T14:31:00 | 53.970285 | 6.339434 | 2.0 | 9.171 | 2 | 34.962 | 9.390 | 32.357 | 2 |
| 2025-04-25T14:32:00 | 53.973120 | 6.340275 | 2.0 | 9.276 | 2 | 34.937 | 9.380 | 32.341 | 2 |
| 2025-04-25T14:33:00 | 53.975946 | 6.341133 | 2.0 | 9.350 | 2 | 34.992 | 9.470 | 32.316 | 2 |
| 2025-04-25T14:34:00 | 53.978795 | 6.341990 | 2.0 | 9.224 | 2 | 35.006 | 9.490 | 32.312 | 2 |
| 2025-04-25T14:35:00 | 53.981641 | 6.342864 | 2.0 | 9.202 | 2 | 35.012 | 9.420 | 32.382 | 2 |
| 2025-04-25T14:36:00 | 53.984496 | 6.343677 | 2.0 | 9.159 | 2 | 35.021 | 9.398 | 32.411 | 2 |
| 2025-04-25T14:37:00 | 53.987350 | 6.344596 | 2.0 | 9.097 | 2 | 34.978 | 9.335 | 32.424 | 2 |
| 2025-04-25T14:38:00 | 53.990227 | 6.345428 | 2.0 | 9.146 | 2 | 34.959 | 9.279 | 32.455 | 2 |
| 2025-04-25T14:39:00 | 53.993114 | 6.346297 | 2.0 | 9.056 | 2 | 34.989 | 9.322 | 32.447 | 2 |
| 2025-04-25T14:40:00 | 53.995984 | 6.347235 | 2.0 | 9.000 | 2 | 34.951 | 9.231 | 32.490 | 2 |
| 2025-04-25T14:41:00 | 53.998845 | 6.348028 | 2.0 | 9.005 | 2 | 34.976 | 9.203 | 32.542 | 2 |
| 2025-04-25T14:42:00 | 54.001699 | 6.348884 | 2.0 | 9.060 | 2 | 34.983 | 9.191 | 32.560 | 2 |
| 2025-04-25T14:43:00 | 54.004551 | 6.349755 | 2.0 | 9.139 | 2 | 35.021 | 9.295 | 32.504 | 2 |
| 2025-04-25T14:44:00 | 54.007373 | 6.350597 | 2.0 | 9.110 | 2 | 35.011 | 9.306 | 32.484 | 2 |
| 2025-04-25T14:45:00 | 54.010195 | 6.351467 | 2.0 | 9.146 | 2 | 35.017 | 9.303 | 32.493 | 2 |
| 2025-04-25T14:46:00 | 54.012996 | 6.352302 | 2.0 | 9.090 | 2 | 35.033 | 9.319 | 32.495 | 2 |
| 2025-04-25T14:47:00 | 54.015799 | 6.353185 | 2.0 | 9.098 | 2 | 35.023 | 9.292 | 32.509 | 2 |
| 2025-04-25T14:48:00 | 54.018571 | 6.354009 | 2.0 | 8.993 | 2 | 34.974 | 9.249 | 32.498 | 2 |
| 2025-04-25T14:49:00 | 54.021372 | 6.354842 | 2.0 | 9.041 | 2 | 34.956 | 9.246 | 32.482 | 2 |
| 2025-04-25T14:50:00 | 54.024206 | 6.355765 | 2.0 | 9.040 | 2 | 34.934 | 9.216 | 32.486 | 2 |
| 2025-04-25T14:51:00 | 54.027031 | 6.356587 | 2.0 | 9.074 | 2 | 34.940 | 9.247 | 32.464 | 2 |
| 2025-04-25T14:52:00 | 54.029880 | 6.357435 | 2.0 | 9.056 | 2 | 34.980 | 9.289 | 32.467 | 2 |
| 2025-04-25T14:53:00 | 54.032708 | 6.358285 | 2.0 | 9.047 | 2 | 34.969 | 9.251 | 32.491 | 2 |
| 2025-04-25T14:54:00 | 54.035249 | 6.359081 | 2.0 | 9.267 | 2 | 34.978 | 9.263 | 32.489 | 2 |
| 2025-04-25T14:55:00 | 54.037220 | 6.359578 | 2.0 | 9.216 | 2 | 35.117 | 9.411 | 32.498 | 2 |
| 2025-04-25T14:56:00 | 54.038759 | 6.359757 | 2.0 | 9.202 | 2 | 35.083 | 9.342 | 32.525 | 2 |
| 2025-04-25T14:57:00 | 54.039775 | 6.359250 | 2.0 | 9.351 | 2 | 35.108 | 9.400 | 32.498 | 2 |
| 2025-04-25T14:58:00 | 54.040397 | 6.359063 | 2.0 | 9.313 | 2 | 35.217 | 9.506 | 32.514 | 2 |
| 2025-04-25T14:59:00 | 54.040550 | 6.359031 | 2.0 | 9.363 | 2 | 35.207 | 9.486 | 32.522 | 2 |
| 2025-04-25T15:00:00 | 54.040556 | 6.359025 | 2.0 | 9.381 | 2 | 35.258 | 9.554 | 32.513 | 2 |
| 2025-04-25T15:01:00 | 54.040590 | 6.359241 | 2.0 | 9.323 | 2 | 35.235 | 9.496 | 32.542 | 2 |
| 2025-04-25T15:02:00 | 54.040881 | 6.359244 | 2.0 | 9.428 | 2 | 35.267 | 9.570 | 32.507 | 2 |
| 2025-04-25T15:03:00 | 54.041317 | 6.359221 | 2.0 | 9.411 | 2 | 35.309 | 9.597 | 32.526 | 2 |
| 2025-04-25T15:04:00 | 54.041885 | 6.359204 | 2.0 | 9.362 | 2 | 35.293 | 9.575 | 32.529 | 2 |
| 2025-04-25T15:05:00 | 54.042597 | 6.359230 | 2.0 | 9.315 | 2 | 35.253 | 9.526 | 32.533 | 2 |
| 2025-04-25T15:06:00 | 54.043506 | 6.359354 | 2.0 | 9.300 | 2 | 35.215 | 9.491 | 32.526 | 2 |
| 2025-04-25T15:07:00 | 54.044536 | 6.359480 | 2.0 | 9.251 | 2 | 35.194 | 9.461 | 32.531 | 2 |
| 2025-04-25T15:08:00 | 54.045788 | 6.359624 | 2.0 | 9.265 | 2 | 35.151 | 9.418 | 32.526 | 2 |
| 2025-04-25T15:09:00 | 54.047207 | 6.359707 | 2.0 | 9.251 | 2 | 35.161 | 9.425 | 32.530 | 2 |
| 2025-04-25T15:10:00 | 54.048777 | 6.359714 | 2.0 | 9.304 | 2 | 35.177 | 9.446 | 32.527 | 2 |
| 2025-04-25T15:11:00 | 54.050410 | 6.359717 | 2.0 | 9.388 | 2 | 35.240 | 9.494 | 32.549 | 2 |
| 2025-04-25T15:12:00 | 54.051845 | 6.360265 | 2.0 | 9.292 | 2 | 35.313 | 9.552 | 32.571 | 2 |
| 2025-04-25T15:13:00 | 54.052900 | 6.361613 | 2.0 | 9.211 | 2 | 35.231 | 9.448 | 32.581 | 2 |
| 2025-04-25T15:14:00 | 54.053653 | 6.363452 | 2.0 | 9.357 | 2 | 35.199 | 9.437 | 32.558 | 2 |
| 2025-04-25T15:15:00 | 54.054061 | 6.365600 | 2.0 | 9.355 | 2 | 35.303 | 9.526 | 32.584 | 2 |
| 2025-04-25T15:16:00 | 54.054010 | 6.367872 | 2.0 | 9.365 | 2 | 35.324 | 9.544 | 32.589 | 2 |
| 2025-04-25T15:17:00 | 54.053553 | 6.370041 | 2.0 | 9.220 | 2 | 35.302 | 9.501 | 32.606 | 2 |
| 2025-04-25T15:18:00 | 54.052699 | 6.371816 | 2.0 | 9.241 | 2 | 35.206 | 9.412 | 32.588 | 2 |
| 2025-04-25T15:19:00 | 54.051547 | 6.372876 | 2.0 | 9.240 | 2 | 35.191 | 9.405 | 32.579 | 2 |
| 2025-04-25T15:20:00 | 54.050293 | 6.373337 | 2.0 | 9.189 | 2 | 35.194 | 9.417 | 32.571 | 2 |
| 2025-04-25T15:21:00 | 54.049025 | 6.373478 | 2.0 | 9.225 | 2 | 35.141 | 9.348 | 32.580 | 2 |
| 2025-04-25T15:22:00 | 54.047790 | 6.373485 | 2.0 | 9.284 | 2 | 35.191 | 9.429 | 32.557 | 2 |
| 2025-04-25T15:23:00 | 54.046594 | 6.373546 | 2.0 | 9.376 | 2 | 35.187 | 9.474 | 32.512 | 2 |
| 2025-04-25T15:24:00 | 54.045426 | 6.373668 | 2.0 | 9.282 | 2 | 35.283 | 9.535 | 32.555 | 2 |
| 2025-04-25T15:25:00 | 54.044267 | 6.373739 | 2.0 | 9.346 | 2 | 35.231 | 9.476 | 32.556 | 2 |
| 2025-04-25T15:26:00 | 54.043111 | 6.373698 | 2.0 | 9.406 | 2 | 34.898 | 9.527 | 32.168 | 2 |
| 2025-04-25T15:27:00 | 54.041938 | 6.373688 | 2.0 | 9.319 | 2 | 35.298 | 9.556 | 32.552 | 2 |
| 2025-04-25T15:28:00 | 54.040757 | 6.373774 | 2.0 | 9.290 | 2 | 35.242 | 9.493 | 32.552 | 2 |
| 2025-04-25T15:29:00 | 54.039562 | 6.373855 | 2.0 | 9.194 | 2 | 35.208 | 9.456 | 32.550 | 2 |
| 2025-04-25T15:30:00 | 54.038359 | 6.373827 | 2.0 | 9.231 | 2 | 35.122 | 9.375 | 32.535 | 2 |
| 2025-04-25T15:31:00 | 54.037199 | 6.374064 | 2.0 | 9.216 | 2 | 35.141 | 9.410 | 32.523 | 2 |
| 2025-04-25T15:32:00 | 54.036184 | 6.374929 | 2.0 | 9.242 | 2 | 35.136 | 9.399 | 32.528 | 2 |
| 2025-04-25T15:33:00 | 54.035108 | 6.375565 | 2.0 | 9.319 | 2 | 35.155 | 9.423 | 32.526 | 2 |
| 2025-04-25T15:34:00 | 54.034003 | 6.375113 | 2.0 | 9.229 | 2 | 34.641 | 9.466 | 31.960 | 2 |
| 2025-04-25T15:35:00 | 54.033336 | 6.373551 | 2.0 | 9.153 | 2 | 34.841 | 9.378 | 32.244 | 2 |
| 2025-04-25T15:36:00 | 54.033417 | 6.371588 | 2.0 | 9.259 | 2 | 34.641 | 9.353 | 32.061 | 2 |
| 2025-04-25T15:37:00 | 54.034164 | 6.370220 | 2.0 | 9.294 | 2 | 35.097 | 9.430 | 32.460 | 2 |
| 2025-04-25T15:38:00 | 54.035311 | 6.369724 | 2.0 | 9.261 | 2 | 34.965 | 9.456 | 32.301 | 2 |
| 2025-04-25T15:39:00 | 54.036586 | 6.369444 | 2.0 | 9.238 | 2 | 34.745 | 9.447 | 32.083 | 2 |
| 2025-04-25T15:40:00 | 54.037820 | 6.369351 | 2.0 | 9.339 | 2 | 34.801 | 9.413 | 32.171 | 2 |
| 2025-04-25T15:41:00 | 54.038947 | 6.369186 | 2.0 | 9.315 | 2 | 35.217 | 9.501 | 32.519 | 2 |
| 2025-04-25T15:42:00 | 54.040081 | 6.369123 | 2.0 | 9.309 | 2 | 35.156 | 9.479 | 32.476 | 2 |
| 2025-04-25T15:43:00 | 54.041215 | 6.369129 | 2.0 | 9.308 | 2 | 35.019 | 9.493 | 32.323 | 2 |
| 2025-04-25T15:44:00 | 54.042389 | 6.369087 | 2.0 | 9.430 | 2 | 35.046 | 9.498 | 32.346 | 2 |
| 2025-04-25T15:45:00 | 54.043606 | 6.369015 | 2.0 | 9.512 | 2 | 35.330 | 9.604 | 32.541 | 2 |
| 2025-04-25T15:46:00 | 54.044830 | 6.368976 | 2.0 | 9.379 | 2 | 35.375 | 9.660 | 32.536 | 2 |
| 2025-04-25T15:47:00 | 54.045975 | 6.369016 | 2.0 | 9.460 | 2 | 35.296 | 9.575 | 32.532 | 2 |
| 2025-04-25T15:48:00 | 54.047151 | 6.368998 | 2.0 | 9.392 | 2 | 35.224 | 9.636 | 32.404 | 2 |
| 2025-04-25T15:49:00 | 54.048355 | 6.368966 | 2.0 | 9.429 | 2 | 35.169 | 9.545 | 32.430 | 2 |
| 2025-04-25T15:50:00 | 54.049482 | 6.368444 | 2.0 | 9.428 | 2 | 35.132 | 9.614 | 32.329 | 2 |
| 2025-04-25T15:51:00 | 54.050581 | 6.367641 | 2.0 | 9.280 | 2 | 35.338 | 9.576 | 32.575 | 2 |
| 2025-04-25T15:52:00 | 54.051782 | 6.367650 | 2.0 | 9.175 | 2 | 35.181 | 9.428 | 32.548 | 2 |
| 2025-04-25T15:53:00 | 54.052632 | 6.368985 | 2.0 | 9.352 | 2 | 34.992 | 9.365 | 32.411 | 2 |
| 2025-04-25T15:54:00 | 54.052698 | 6.370935 | 2.0 | 9.344 | 2 | 35.154 | 9.513 | 32.443 | 2 |
| 2025-04-25T15:55:00 | 54.051963 | 6.372358 | 2.0 | 9.284 | 2 | 35.088 | 9.514 | 32.375 | 2 |
| 2025-04-25T15:56:00 | 54.050861 | 6.372679 | 2.0 | 9.198 | 2 | 35.073 | 9.425 | 32.440 | 2 |
| 2025-04-25T15:57:00 | 54.049638 | 6.372608 | 2.0 | 9.277 | 2 | 35.009 | 9.386 | 32.409 | 2 |
| 2025-04-25T15:58:00 | 54.048386 | 6.372715 | 2.0 | 9.295 | 2 | 35.077 | 9.448 | 32.423 | 2 |
| 2025-04-25T15:59:00 | 54.047184 | 6.372798 | 2.0 | 9.314 | 2 | 35.035 | 9.468 | 32.362 | 2 |
| 2025-04-25T16:00:00 | 54.046019 | 6.372785 | 2.0 | 9.368 | 2 | 35.104 | 9.488 | 32.414 | 2 |
| 2025-04-25T16:01:00 | 54.044866 | 6.372782 | 2.0 | 9.422 | 2 | 35.091 | 9.555 | 32.341 | 2 |
| 2025-04-25T16:02:00 | 54.043702 | 6.372821 | 2.0 | 9.405 | 2 | 35.166 | 9.609 | 32.369 | 2 |
| 2025-04-25T16:03:00 | 54.042519 | 6.372885 | 2.0 | 9.342 | 2 | 35.235 | 9.538 | 32.504 | 2 |
| 2025-04-25T16:04:00 | 54.041334 | 6.372899 | 2.0 | 9.358 | 2 | 35.075 | 9.539 | 32.339 | 2 |
| 2025-04-25T16:05:00 | 54.040139 | 6.372913 | 2.0 | 9.201 | 2 | 35.085 | 9.494 | 32.390 | 2 |
| 2025-04-25T16:06:00 | 54.038933 | 6.372988 | 2.0 | 9.424 | 2 | 35.084 | 9.432 | 32.445 | 2 |
| 2025-04-25T16:07:00 | 54.037736 | 6.373086 | 2.0 | 9.051 | 2 | 35.056 | 9.530 | 32.327 | 2 |
| 2025-04-25T16:08:00 | 54.036567 | 6.373556 | 2.0 | 9.308 | 2 | 34.927 | 9.305 | 32.398 | 2 |
| 2025-04-25T16:09:00 | 54.035427 | 6.374166 | 2.0 | 9.254 | 2 | 35.159 | 9.475 | 32.483 | 2 |
| 2025-04-25T16:10:00 | 54.034411 | 6.373717 | 2.0 | 9.187 | 2 | 35.009 | 9.381 | 32.414 | 2 |
| 2025-04-25T16:11:00 | 54.033893 | 6.372179 | 2.0 | 9.344 | 2 | 34.801 | 9.395 | 32.187 | 2 |
| 2025-04-25T16:12:00 | 54.034147 | 6.370361 | 2.0 | 9.366 | 2 | 35.218 | 9.518 | 32.504 | 2 |
| 2025-04-25T16:13:00 | 54.035021 | 6.369358 | 2.0 | 9.402 | 2 | 35.240 | 9.542 | 32.505 | 2 |
| 2025-04-25T16:14:00 | 54.036105 | 6.368927 | 2.0 | 9.340 | 2 | 35.254 | 9.554 | 32.508 | 2 |
| 2025-04-25T16:15:00 | 54.037288 | 6.368517 | 2.0 | 9.337 | 2 | 35.223 | 9.518 | 32.509 | 2 |
| 2025-04-25T16:16:00 | 54.038505 | 6.368484 | 2.0 | 9.242 | 2 | 35.186 | 9.465 | 32.519 | 2 |
| 2025-04-25T16:17:00 | 54.039676 | 6.368319 | 2.0 | 9.370 | 2 | 35.171 | 9.464 | 32.505 | 2 |
| 2025-04-25T16:18:00 | 54.040852 | 6.368178 | 2.0 | 9.249 | 2 | 35.237 | 9.521 | 32.521 | 2 |
| 2025-04-25T16:19:00 | 54.042014 | 6.368188 | 2.0 | 9.141 | 2 | 35.154 | 9.413 | 32.534 | 2 |
| 2025-04-25T16:20:00 | 54.043186 | 6.368209 | 2.0 | 9.156 | 2 | 35.062 | 9.316 | 32.527 | 2 |
| 2025-04-25T16:21:00 | 54.044355 | 6.368204 | 2.0 | 9.253 | 2 | 35.071 | 9.331 | 32.523 | 2 |
| 2025-04-25T16:22:00 | 54.045492 | 6.368121 | 2.0 | 9.228 | 2 | 35.131 | 9.401 | 32.521 | 2 |
| 2025-04-25T16:23:00 | 54.046646 | 6.367994 | 2.0 | 9.337 | 2 | 35.137 | 9.408 | 32.521 | 2 |
| 2025-04-25T16:24:00 | 54.047827 | 6.367947 | 2.0 | 9.339 | 2 | 35.229 | 9.517 | 32.516 | 2 |
| 2025-04-25T16:25:00 | 54.048970 | 6.367813 | 2.0 | 9.282 | 2 | 35.226 | 9.491 | 32.537 | 2 |
| 2025-04-25T16:26:00 | 54.049932 | 6.367084 | 2.0 | 9.251 | 2 | 35.198 | 9.467 | 32.530 | 2 |
| 2025-04-25T16:27:00 | 54.051015 | 6.366357 | 2.0 | 9.164 | 2 | 35.142 | 9.391 | 32.542 | 2 |
| 2025-04-25T16:28:00 | 54.052208 | 6.366870 | 2.0 | 9.425 | 2 | 35.126 | 9.397 | 32.520 | 2 |
| 2025-04-25T16:29:00 | 54.052859 | 6.368626 | 2.0 | 9.478 | 2 | 35.269 | 9.592 | 32.489 | 2 |
| 2025-04-25T16:30:00 | 54.052707 | 6.370594 | 2.0 | 9.385 | 2 | 35.379 | 9.624 | 32.573 | 2 |
| 2025-04-25T16:31:00 | 54.051919 | 6.371793 | 2.0 | 9.402 | 2 | 35.314 | 9.559 | 32.565 | 2 |
| 2025-04-25T16:32:00 | 54.050867 | 6.371832 | 2.0 | 9.409 | 2 | 35.318 | 9.571 | 32.559 | 2 |
| 2025-04-25T16:33:00 | 54.049602 | 6.371801 | 2.0 | 9.330 | 2 | 35.296 | 9.551 | 32.554 | 2 |
| 2025-04-25T16:34:00 | 54.048345 | 6.371880 | 2.0 | 9.367 | 2 | 35.243 | 9.508 | 32.539 | 2 |
| 2025-04-25T16:35:00 | 54.047175 | 6.371859 | 2.0 | 9.204 | 2 | 35.260 | 9.537 | 32.530 | 2 |
| 2025-04-25T16:36:00 | 54.046034 | 6.371839 | 2.0 | 9.109 | 2 | 35.104 | 9.337 | 32.552 | 2 |
| 2025-04-25T16:37:00 | 54.044901 | 6.371872 | 2.0 | 9.138 | 2 | 35.049 | 9.311 | 32.519 | 2 |
| 2025-04-25T16:38:00 | 54.043782 | 6.371945 | 2.0 | 9.293 | 2 | 34.769 | 9.334 | 32.209 | 2 |
| 2025-04-25T16:39:00 | 54.042664 | 6.372011 | 2.0 | 9.229 | 2 | 35.178 | 9.450 | 32.525 | 2 |
| 2025-04-25T16:40:00 | 54.041563 | 6.371992 | 2.0 | 9.056 | 2 | 35.096 | 9.334 | 32.546 | 2 |
| 2025-04-25T16:41:00 | 54.040464 | 6.371948 | 2.0 | 9.247 | 2 | 35.019 | 9.286 | 32.510 | 2 |
| 2025-04-25T16:42:00 | 54.039343 | 6.371975 | 2.0 | 9.348 | 2 | 35.141 | 9.436 | 32.500 | 2 |
| 2025-04-25T16:43:00 | 54.038210 | 6.372040 | 2.0 | 9.293 | 2 | 35.197 | 9.492 | 32.506 | 2 |
| 2025-04-25T16:44:00 | 54.037060 | 6.372264 | 2.0 | 9.310 | 2 | 35.180 | 9.477 | 32.502 | 2 |
| 2025-04-25T16:45:00 | 54.035912 | 6.372635 | 2.0 | 9.187 | 2 | 35.163 | 9.458 | 32.502 | 2 |
| 2025-04-25T16:46:00 | 54.034929 | 6.372098 | 2.0 | 8.817 | 2 | 35.014 | 9.274 | 32.516 | 2 |
| 2025-04-25T16:47:00 | 54.034531 | 6.370447 | 2.0 | 9.033 | 2 | 34.798 | 9.045 | 32.502 | 2 |
| 2025-04-25T16:48:00 | 54.035021 | 6.368659 | 2.0 | 9.159 | 2 | 34.854 | 9.210 | 32.409 | 2 |
| 2025-04-25T16:49:00 | 54.036095 | 6.367852 | 2.0 | 9.046 | 2 | 35.016 | 9.306 | 32.489 | 2 |
| 2025-04-25T16:50:00 | 54.037233 | 6.367665 | 2.0 | 8.825 | 2 | 34.441 | 9.211 | 31.982 | 2 |
| 2025-04-25T16:51:00 | 54.038350 | 6.367460 | 2.0 | 9.062 | 2 | 34.582 | 9.061 | 32.263 | 2 |
| 2025-04-25T16:52:00 | 54.039507 | 6.367330 | 2.0 | 9.092 | 2 | 34.555 | 9.228 | 32.084 | 2 |
| 2025-04-25T16:53:00 | 54.040703 | 6.367293 | 2.0 | 9.334 | 2 | 34.803 | 9.295 | 32.280 | 2 |
| 2025-04-25T16:54:00 | 54.041909 | 6.367267 | 2.0 | 9.397 | 2 | 34.992 | 9.496 | 32.292 | 2 |
| 2025-04-25T16:55:00 | 54.043130 | 6.367204 | 2.0 | 9.346 | 2 | 35.242 | 9.538 | 32.511 | 2 |
| 2025-04-25T16:56:00 | 54.044339 | 6.367176 | 2.0 | 9.345 | 2 | 35.227 | 9.522 | 32.510 | 2 |
| 2025-04-25T16:57:00 | 54.045546 | 6.367215 | 2.0 | 9.365 | 2 | 34.765 | 9.508 | 32.049 | 2 |
| 2025-04-25T16:58:00 | 54.046752 | 6.367206 | 2.0 | 9.316 | 2 | 35.226 | 9.518 | 32.512 | 2 |
| 2025-04-25T16:59:00 | 54.047960 | 6.367148 | 2.0 | 9.294 | 2 | 35.037 | 9.487 | 32.347 | 2 |
| 2025-04-25T17:00:00 | 54.049062 | 6.366948 | 2.0 | 9.304 | 2 | 35.083 | 9.465 | 32.414 | 2 |
| 2025-04-25T17:01:00 | 54.049979 | 6.366095 | 2.0 | 9.353 | 2 | 35.045 | 9.485 | 32.357 | 2 |
| 2025-04-25T17:02:00 | 54.050977 | 6.365089 | 2.0 | 9.367 | 2 | 35.106 | 9.531 | 32.378 | 2 |
| 2025-04-25T17:03:00 | 54.052224 | 6.365187 | 2.0 | 9.292 | 2 | 34.921 | 9.511 | 32.206 | 2 |
| 2025-04-25T17:04:00 | 54.053167 | 6.366645 | 2.0 | 9.348 | 2 | 34.947 | 9.482 | 32.259 | 2 |
| 2025-04-25T17:05:00 | 54.053343 | 6.368692 | 2.0 | 9.416 | 2 | 34.988 | 9.522 | 32.265 | 2 |
| 2025-04-25T17:06:00 | 54.052780 | 6.370149 | 2.0 | 9.368 | 2 | 35.144 | 9.582 | 32.371 | 2 |
| 2025-04-25T17:07:00 | 54.051766 | 6.370777 | 2.0 | 9.355 | 2 | 35.139 | 9.539 | 32.404 | 2 |
| 2025-04-25T17:08:00 | 54.050569 | 6.370811 | 2.0 | 9.300 | 2 | 35.065 | 9.520 | 32.346 | 2 |
| 2025-04-25T17:09:00 | 54.049323 | 6.370929 | 2.0 | 9.324 | 2 | 35.124 | 9.443 | 32.476 | 2 |
| 2025-04-25T17:10:00 | 54.048149 | 6.370942 | 2.0 | 9.363 | 2 | 35.116 | 9.492 | 32.423 | 2 |
| 2025-04-25T17:11:00 | 54.047013 | 6.370976 | 2.0 | 9.317 | 2 | 35.153 | 9.517 | 32.439 | 2 |
| 2025-04-25T17:12:00 | 54.045891 | 6.370998 | 2.0 | 9.340 | 2 | 35.179 | 9.484 | 32.495 | 2 |
| 2025-04-25T17:13:00 | 54.044766 | 6.370994 | 2.0 | 9.242 | 2 | 35.008 | 9.466 | 32.336 | 2 |
| 2025-04-25T17:14:00 | 54.043621 | 6.371001 | 2.0 | 9.195 | 2 | 34.980 | 9.373 | 32.391 | 2 |
| 2025-04-25T17:15:00 | 54.042452 | 6.371022 | 2.0 | 9.141 | 2 | 34.871 | 9.374 | 32.278 | 2 |
| 2025-04-25T17:16:00 | 54.041269 | 6.371092 | 2.0 | 9.239 | 2 | 35.010 | 9.345 | 32.447 | 2 |
| 2025-04-25T17:17:00 | 54.040087 | 6.371130 | 2.0 | 9.243 | 2 | 35.018 | 9.420 | 32.388 | 2 |
| 2025-04-25T17:18:00 | 54.038910 | 6.371120 | 2.0 | 9.285 | 2 | 35.044 | 9.409 | 32.424 | 2 |
| 2025-04-25T17:19:00 | 54.037739 | 6.371123 | 2.0 | 9.264 | 2 | 35.131 | 9.445 | 32.481 | 2 |
| 2025-04-25T17:20:00 | 54.036558 | 6.371271 | 2.0 | 9.312 | 2 | 35.108 | 9.443 | 32.459 | 2 |
| 2025-04-25T17:21:00 | 54.035609 | 6.370613 | 2.0 | 9.374 | 2 | 35.110 | 9.482 | 32.426 | 2 |
| 2025-04-25T17:22:00 | 54.035453 | 6.368833 | 2.0 | 9.425 | 2 | 35.135 | 9.514 | 32.423 | 2 |
| 2025-04-25T17:23:00 | 54.036225 | 6.367381 | 2.0 | 9.215 | 2 | 35.187 | 9.547 | 32.446 | 2 |
| 2025-04-25T17:24:00 | 54.037323 | 6.366912 | 2.0 | 9.309 | 2 | 34.884 | 9.421 | 32.249 | 2 |
| 2025-04-25T17:25:00 | 54.038424 | 6.366675 | 2.0 | 9.260 | 2 | 35.017 | 9.451 | 32.359 | 2 |
| 2025-04-25T17:26:00 | 54.039693 | 6.366639 | 2.0 | 9.322 | 2 | 35.017 | 9.470 | 32.342 | 2 |
| 2025-04-25T17:27:00 | 54.040952 | 6.366519 | 2.0 | 9.233 | 2 | 35.089 | 9.468 | 32.417 | 2 |
| 2025-04-25T17:28:00 | 54.042150 | 6.366417 | 2.0 | 9.264 | 2 | 35.078 | 9.430 | 32.440 | 2 |
| 2025-04-25T17:29:00 | 54.043329 | 6.366376 | 2.0 | 9.296 | 2 | 35.053 | 9.430 | 32.415 | 2 |
| 2025-04-25T17:30:00 | 54.044501 | 6.366361 | 2.0 | 9.321 | 2 | 34.936 | 9.466 | 32.262 | 2 |
| 2025-04-25T17:31:00 | 54.045657 | 6.366345 | 2.0 | 9.399 | 2 | 35.106 | 9.507 | 32.399 | 2 |
| 2025-04-25T17:32:00 | 54.046778 | 6.366334 | 2.0 | 9.340 | 2 | 35.079 | 9.543 | 32.339 | 2 |
| 2025-04-25T17:33:00 | 54.047885 | 6.366334 | 2.0 | 9.417 | 2 | 35.121 | 9.530 | 32.394 | 2 |
| 2025-04-25T17:34:00 | 54.048916 | 6.366115 | 2.0 | 9.396 | 2 | 35.172 | 9.575 | 32.406 | 2 |
| 2025-04-25T17:35:00 | 54.049701 | 6.365140 | 2.0 | 9.335 | 2 | 35.147 | 9.556 | 32.397 | 2 |
| 2025-04-25T17:36:00 | 54.050487 | 6.363621 | 2.0 | 9.345 | 2 | 35.074 | 9.511 | 32.363 | 2 |
| 2025-04-25T17:37:00 | 54.051775 | 6.362453 | 2.0 | 9.167 | 2 | 35.057 | 9.501 | 32.355 | 2 |
| 2025-04-25T17:38:00 | 54.053424 | 6.362993 | 2.0 | 9.199 | 2 | 35.000 | 9.369 | 32.415 | 2 |
| 2025-04-25T17:39:00 | 54.054555 | 6.365443 | 2.0 | 9.247 | 2 | 34.991 | 9.362 | 32.413 | 2 |
| 2025-04-25T17:40:00 | 54.054422 | 6.368240 | 2.0 | 9.338 | 2 | 35.032 | 9.439 | 32.385 | 2 |
| 2025-04-25T17:41:00 | 54.053519 | 6.369724 | 2.0 | 9.254 | 2 | 35.072 | 9.466 | 32.402 | 2 |
| 2025-04-25T17:42:00 | 54.052570 | 6.369888 | 2.0 | 9.310 | 2 | 35.047 | 9.428 | 32.410 | 2 |
| 2025-04-25T17:43:00 | 54.051516 | 6.369668 | 2.0 | 9.337 | 2 | 35.087 | 9.476 | 32.408 | 2 |
| 2025-04-25T17:44:00 | 54.050283 | 6.369926 | 2.0 | 9.381 | 2 | 35.121 | 9.497 | 32.424 | 2 |
| 2025-04-25T17:45:00 | 54.048993 | 6.370127 | 2.0 | 9.385 | 2 | 35.137 | 9.531 | 32.409 | 2 |
| 2025-04-25T17:46:00 | 54.047748 | 6.370014 | 2.0 | 9.455 | 2 | 35.195 | 9.558 | 32.444 | 2 |
| 2025-04-25T17:47:00 | 54.046510 | 6.370029 | 2.0 | 9.453 | 2 | 35.215 | 9.625 | 32.404 | 2 |
| 2025-04-25T17:48:00 | 54.045268 | 6.370129 | 2.0 | 9.386 | 2 | 35.234 | 9.606 | 32.441 | 2 |
| 2025-04-25T17:49:00 | 54.044060 | 6.370136 | 2.0 | 9.216 | 2 | 35.158 | 9.530 | 32.432 | 2 |
| 2025-04-25T17:50:00 | 54.042882 | 6.370025 | 2.0 | 9.215 | 2 | 35.078 | 9.385 | 32.481 | 2 |
| 2025-04-25T17:51:00 | 54.041688 | 6.369985 | 2.0 | 9.272 | 2 | 35.079 | 9.398 | 32.470 | 2 |
| 2025-04-25T17:52:00 | 54.040489 | 6.370086 | 2.0 | 9.298 | 2 | 35.112 | 9.441 | 32.465 | 2 |
| 2025-04-25T17:53:00 | 54.039284 | 6.370159 | 2.0 | 9.317 | 2 | 35.127 | 9.472 | 32.453 | 2 |
| 2025-04-25T17:54:00 | 54.038086 | 6.370195 | 2.0 | 9.360 | 2 | 35.144 | 9.492 | 32.452 | 2 |
| 2025-04-25T17:55:00 | 54.036896 | 6.370170 | 2.0 | 9.405 | 2 | 35.189 | 9.538 | 32.456 | 2 |
| 2025-04-25T17:56:00 | 54.035700 | 6.370185 | 2.0 | 9.424 | 2 | 35.236 | 9.571 | 32.475 | 2 |
| 2025-04-25T17:57:00 | 54.034494 | 6.370243 | 2.0 | 9.415 | 2 | 35.261 | 9.588 | 32.485 | 2 |
| 2025-04-25T17:58:00 | 54.033262 | 6.370282 | 2.0 | 9.417 | 2 | 35.258 | 9.582 | 32.487 | 2 |
| 2025-04-25T17:59:00 | 54.032071 | 6.369693 | 2.0 | 9.443 | 2 | 35.268 | 9.586 | 32.494 | 2 |
| 2025-04-25T18:00:00 | 54.030812 | 6.369011 | 2.0 | 9.440 | 2 | 35.293 | 9.610 | 32.498 | 2 |
| 2025-04-25T18:01:00 | 54.029384 | 6.368487 | 2.0 | 9.450 | 2 | 35.307 | 9.611 | 32.511 | 2 |
| 2025-04-25T18:02:00 | 54.027882 | 6.367978 | 2.0 | 9.393 | 2 | 35.329 | 9.609 | 32.535 | 2 |
| 2025-04-25T18:03:00 | 54.026359 | 6.367371 | 2.0 | 9.464 | 2 | 35.269 | 9.547 | 32.530 | 2 |
| 2025-04-25T18:04:00 | 54.024846 | 6.366683 | 2.0 | 9.537 | 2 | 35.290 | 9.637 | 32.470 | 2 |
| 2025-04-25T18:05:00 | 54.023301 | 6.365988 | 2.0 | 9.581 | 2 | 35.272 | 9.704 | 32.391 | 2 |
| 2025-04-25T18:06:00 | 54.021712 | 6.365318 | 2.0 | 9.495 | 2 | 35.294 | 9.741 | 32.380 | 2 |
| 2025-04-25T18:07:00 | 54.020075 | 6.364679 | 2.0 | 9.408 | 2 | 35.177 | 9.587 | 32.400 | 2 |
| 2025-04-25T18:08:00 | 54.018439 | 6.364009 | 2.0 | 9.652 | 2 | 35.188 | 9.648 | 32.356 | 2 |
| 2025-04-25T18:09:00 | 54.016818 | 6.363274 | 2.0 | 9.640 | 2 | 35.321 | 9.817 | 32.340 | 2 |
| 2025-04-25T18:10:00 | 54.015169 | 6.362583 | 2.0 | 9.651 | 2 | 35.286 | 9.801 | 32.318 | 2 |
| 2025-04-25T18:11:00 | 54.013507 | 6.361923 | 2.0 | 9.732 | 2 | 35.279 | 9.820 | 32.294 | 2 |
| 2025-04-25T18:12:00 | 54.011846 | 6.361256 | 2.0 | 9.719 | 2 | 35.319 | 9.907 | 32.257 | 2 |
| 2025-04-25T18:13:00 | 54.010191 | 6.360589 | 2.0 | 9.776 | 2 | 35.303 | 9.873 | 32.271 | 2 |
| 2025-04-25T18:14:00 | 54.008587 | 6.359835 | 2.0 | 9.742 | 2 | 35.309 | 9.925 | 32.231 | 2 |
| 2025-04-25T18:15:00 | 54.007004 | 6.359015 | 2.0 | 9.749 | 2 | 35.272 | 9.864 | 32.248 | 2 |
| 2025-04-25T18:16:00 | 54.005415 | 6.358223 | 2.0 | 9.488 | 2 | 35.283 | 9.843 | 32.278 | 2 |
| 2025-04-25T18:17:00 | 54.003810 | 6.357510 | 2.0 | 9.482 | 2 | 35.203 | 9.697 | 32.327 | 2 |
| 2025-04-25T18:18:00 | 54.002227 | 6.356717 | 2.0 | 9.544 | 2 | 35.205 | 9.661 | 32.362 | 2 |
| 2025-04-25T18:19:00 | 54.000646 | 6.355892 | 2.0 | 9.610 | 2 | 35.246 | 9.738 | 32.334 | 2 |
| 2025-04-25T18:20:00 | 53.999037 | 6.355140 | 2.0 | 9.715 | 2 | 35.300 | 9.792 | 32.341 | 2 |
| 2025-04-25T18:21:00 | 53.997424 | 6.354438 | 2.0 | 9.651 | 2 | 35.342 | 9.835 | 32.345 | 2 |
| 2025-04-25T18:22:00 | 53.995838 | 6.353624 | 2.0 | 9.744 | 2 | 35.346 | 9.839 | 32.345 | 2 |
| 2025-04-25T18:23:00 | 53.994252 | 6.352802 | 2.0 | 9.682 | 2 | 35.364 | 9.884 | 32.323 | 2 |
| 2025-04-25T18:24:00 | 53.992631 | 6.352090 | 2.0 | 9.602 | 2 | 35.376 | 9.845 | 32.370 | 2 |
| 2025-04-25T18:25:00 | 53.991007 | 6.351340 | 2.0 | 9.435 | 2 | 35.386 | 9.738 | 32.477 | 2 |
| 2025-04-25T18:26:00 | 53.989393 | 6.350530 | 2.0 | 9.361 | 2 | 35.366 | 9.597 | 32.584 | 2 |
| 2025-04-25T18:27:00 | 53.987783 | 6.349743 | 2.0 | 9.354 | 2 | 35.355 | 9.558 | 32.608 | 2 |
| 2025-04-25T18:28:00 | 53.986159 | 6.348957 | 2.0 | 9.327 | 2 | 35.336 | 9.549 | 32.597 | 2 |
| 2025-04-25T18:29:00 | 53.984526 | 6.348190 | 2.0 | 9.295 | 2 | 35.334 | 9.513 | 32.628 | 2 |
| 2025-04-25T18:30:00 | 53.982895 | 6.347425 | 2.0 | 9.147 | 2 | 35.332 | 9.422 | 32.709 | 2 |
| 2025-04-25T18:31:00 | 53.981264 | 6.346590 | 2.0 | 9.277 | 2 | 35.296 | 9.341 | 32.746 | 2 |
| 2025-04-25T18:32:00 | 53.979626 | 6.345822 | 2.0 | 9.249 | 2 | 35.312 | 9.420 | 32.690 | 2 |
| 2025-04-25T18:33:00 | 53.977971 | 6.345077 | 2.0 | 9.223 | 2 | 35.329 | 9.417 | 32.710 | 2 |
| 2025-04-25T18:34:00 | 53.976354 | 6.344234 | 2.0 | 9.215 | 2 | 35.334 | 9.386 | 32.744 | 2 |
| 2025-04-25T18:35:00 | 53.974739 | 6.343384 | 2.0 | 9.233 | 2 | 35.328 | 9.385 | 32.738 | 2 |
| 2025-04-25T18:36:00 | 53.973085 | 6.342561 | 2.0 | 9.239 | 2 | 35.335 | 9.414 | 32.719 | 2 |
| 2025-04-25T18:37:00 | 53.971417 | 6.341761 | 2.0 | 9.229 | 2 | 35.344 | 9.413 | 32.729 | 2 |
| 2025-04-25T18:38:00 | 53.969764 | 6.340972 | 2.0 | 9.274 | 2 | 35.348 | 9.420 | 32.727 | 2 |
| 2025-04-25T18:39:00 | 53.968134 | 6.340177 | 2.0 | 9.246 | 2 | 35.344 | 9.419 | 32.724 | 2 |
| 2025-04-25T18:40:00 | 53.966496 | 6.339336 | 2.0 | 9.257 | 2 | 35.325 | 9.434 | 32.691 | 2 |
| 2025-04-25T18:41:00 | 53.964844 | 6.338549 | 2.0 | 9.195 | 2 | 35.311 | 9.415 | 32.693 | 2 |
| 2025-04-25T18:42:00 | 53.963187 | 6.337764 | 2.0 | 9.193 | 2 | 35.297 | 9.370 | 32.720 | 2 |
| 2025-04-25T18:43:00 | 53.961536 | 6.336901 | 2.0 | 9.177 | 2 | 35.279 | 9.363 | 32.708 | 2 |
| 2025-04-25T18:44:00 | 53.959872 | 6.336080 | 2.0 | 9.114 | 2 | 35.277 | 9.340 | 32.727 | 2 |
| 2025-04-25T18:45:00 | 53.958212 | 6.335346 | 2.0 | 9.118 | 2 | 35.263 | 9.290 | 32.758 | 2 |
| 2025-04-25T18:46:00 | 53.956576 | 6.334551 | 2.0 | 9.135 | 2 | 35.259 | 9.288 | 32.756 | 2 |
| 2025-04-25T18:47:00 | 53.954937 | 6.333710 | 2.0 | 9.090 | 2 | 35.273 | 9.311 | 32.750 | 2 |
| 2025-04-25T18:48:00 | 53.953263 | 6.332914 | 2.0 | 9.069 | 2 | 35.269 | 9.260 | 32.792 | 2 |
| 2025-04-25T18:49:00 | 53.951599 | 6.332115 | 2.0 | 9.123 | 2 | 35.269 | 9.266 | 32.787 | 2 |
| 2025-04-25T18:50:00 | 53.949919 | 6.331339 | 2.0 | 9.109 | 2 | 35.295 | 9.280 | 32.801 | 2 |
| 2025-04-25T18:51:00 | 53.948195 | 6.330738 | 2.0 | 9.082 | 2 | 35.300 | 9.272 | 32.813 | 2 |
| 2025-04-25T18:52:00 | 53.946482 | 6.330063 | 2.0 | 9.044 | 2 | 35.295 | 9.243 | 32.835 | 2 |
| 2025-04-25T18:53:00 | 53.944778 | 6.329344 | 2.0 | 9.172 | 2 | 35.284 | 9.228 | 32.837 | 2 |
| 2025-04-25T18:54:00 | 53.943066 | 6.328670 | 2.0 | 9.223 | 2 | 35.382 | 9.400 | 32.780 | 2 |
| 2025-04-25T18:55:00 | 53.941344 | 6.328082 | 2.0 | 9.129 | 2 | 35.398 | 9.365 | 32.829 | 2 |
| 2025-04-25T18:56:00 | 53.939662 | 6.327377 | 2.0 | 9.090 | 2 | 35.337 | 9.309 | 32.817 | 2 |
| 2025-04-25T18:57:00 | 53.937968 | 6.326698 | 2.0 | 9.245 | 2 | 35.279 | 9.290 | 32.775 | 2 |
| 2025-04-25T18:58:00 | 53.936208 | 6.326357 | 2.0 | 9.449 | 2 | 34.674 | 9.434 | 32.022 | 2 |
| 2025-04-25T18:59:00 | 53.934455 | 6.326055 | 2.0 | 9.305 | 2 | 35.081 | 9.539 | 32.345 | 2 |
| 2025-04-25T19:00:00 | 53.932721 | 6.325626 | 2.0 | 9.315 | 2 | 35.371 | 9.484 | 32.692 | 2 |
| 2025-04-25T19:01:00 | 53.930995 | 6.325191 | 2.0 | 9.268 | 2 | 35.368 | 9.466 | 32.706 | 2 |
| 2025-04-25T19:02:00 | 53.929350 | 6.324931 | 2.0 | 9.244 | 2 | 35.325 | 9.437 | 32.688 | 2 |
| 2025-04-25T19:03:00 | 53.927776 | 6.324633 | 2.0 | 9.196 | 2 | 35.103 | 9.406 | 32.488 | 2 |
| 2025-04-25T19:04:00 | 53.926235 | 6.324261 | 2.0 | 9.201 | 2 | 35.280 | 9.358 | 32.714 | 2 |
| 2025-04-25T19:05:00 | 53.924711 | 6.323946 | 2.0 | 9.167 | 2 | 35.029 | 9.370 | 32.444 | 2 |
| 2025-04-25T19:06:00 | 53.923198 | 6.323618 | 2.0 | 9.141 | 2 | 34.828 | 9.337 | 32.267 | 2 |
| 2025-04-25T19:07:00 | 53.921686 | 6.323245 | 2.0 | 9.154 | 2 | 34.814 | 9.278 | 32.306 | 2 |
| 2025-04-25T19:08:00 | 53.920160 | 6.322941 | 2.0 | 9.020 | 2 | 35.025 | 9.293 | 32.510 | 2 |
| 2025-04-25T19:09:00 | 53.918609 | 6.322704 | 2.0 | 8.966 | 2 | 34.892 | 9.179 | 32.477 | 2 |
| 2025-04-25T19:10:00 | 53.917066 | 6.322401 | 2.0 | 8.901 | 2 | 34.922 | 9.098 | 32.582 | 2 |
| 2025-04-25T19:11:00 | 53.915528 | 6.322048 | 2.0 | 9.081 | 2 | 35.193 | 9.121 | 32.841 | 2 |
| 2025-04-25T19:12:00 | 53.913980 | 6.321690 | 2.0 | 8.878 | 2 | 35.267 | 9.218 | 32.829 | 2 |
| 2025-04-25T19:13:00 | 53.912608 | 6.320798 | 2.0 | 8.715 | 2 | 34.938 | 8.999 | 32.689 | 2 |
| 2025-04-25T19:14:00 | 53.911594 | 6.319235 | 2.0 | 8.643 | 2 | 34.915 | 8.880 | 32.775 | 2 |
| 2025-04-25T19:15:00 | 53.910856 | 6.317356 | 2.0 | 8.635 | 2 | 34.823 | 8.830 | 32.725 | 2 |
| 2025-04-25T19:16:00 | 53.910322 | 6.315310 | 2.0 | 8.634 | 2 | 34.767 | 8.805 | 32.690 | 2 |
| 2025-04-25T19:17:00 | 53.910047 | 6.313136 | 2.0 | 8.588 | 2 | 34.767 | 8.793 | 32.701 | 2 |
| 2025-04-25T19:18:00 | 53.910029 | 6.310926 | 2.0 | 8.618 | 2 | 35.003 | 8.773 | 32.966 | 2 |
| 2025-04-25T19:19:00 | 53.909923 | 6.308721 | 2.0 | 8.700 | 2 | 35.042 | 8.820 | 32.963 | 2 |
| 2025-04-25T19:20:00 | 53.909696 | 6.306578 | 2.0 | 8.684 | 2 | 34.968 | 8.878 | 32.832 | 2 |
| 2025-04-25T19:21:00 | 53.909552 | 6.304405 | 2.0 | 8.625 | 2 | 35.026 | 8.841 | 32.927 | 2 |
| 2025-04-25T19:22:00 | 53.909520 | 6.302179 | 2.0 | 8.646 | 2 | 35.064 | 8.803 | 33.002 | 2 |
| 2025-04-25T19:23:00 | 53.909469 | 6.299949 | 2.0 | 8.622 | 2 | 34.762 | 8.804 | 32.685 | 2 |
| 2025-04-25T19:24:00 | 53.909439 | 6.297707 | 2.0 | 8.557 | 2 | 34.906 | 8.777 | 32.861 | 2 |
| 2025-04-25T19:25:00 | 53.909430 | 6.295354 | 2.0 | 8.588 | 2 | 34.837 | 8.744 | 32.819 | 2 |
| 2025-04-25T19:26:00 | 53.909416 | 6.292928 | 2.0 | 8.696 | 2 | 34.836 | 8.801 | 32.765 | 2 |
| 2025-04-25T19:27:00 | 53.909408 | 6.290495 | 2.0 | 8.699 | 2 | 34.936 | 8.860 | 32.815 | 2 |
| 2025-04-25T19:28:00 | 53.909420 | 6.288034 | 2.0 | 8.739 | 2 | 34.756 | 8.873 | 32.616 | 2 |
| 2025-04-25T19:29:00 | 53.909434 | 6.285593 | 2.0 | 8.703 | 2 | 34.986 | 8.926 | 32.806 | 2 |
| 2025-04-25T19:30:00 | 53.909425 | 6.283172 | 2.0 | 8.551 | 2 | 34.891 | 8.833 | 32.793 | 2 |
| 2025-04-25T19:31:00 | 53.909430 | 6.280776 | 2.0 | 8.530 | 2 | 34.764 | 8.730 | 32.756 | 2 |
| 2025-04-25T19:32:00 | 53.909442 | 6.278372 | 2.0 | 8.506 | 2 | 34.733 | 8.698 | 32.753 | 2 |
| 2025-04-25T19:33:00 | 53.909443 | 6.275992 | 2.0 | 8.528 | 2 | 34.767 | 8.692 | 32.794 | 2 |
| 2025-04-25T19:34:00 | 53.909457 | 6.273630 | 2.0 | 8.482 | 2 | 34.693 | 8.690 | 32.718 | 2 |
| 2025-04-25T19:35:00 | 53.909480 | 6.271242 | 2.0 | 8.489 | 2 | 34.729 | 8.663 | 32.781 | 2 |
| 2025-04-25T19:36:00 | 53.909454 | 6.268835 | 2.0 | 8.513 | 2 | 34.723 | 8.657 | 32.780 | 2 |
| 2025-04-25T19:37:00 | 53.909436 | 6.266425 | 2.0 | 8.593 | 2 | 34.786 | 8.702 | 32.805 | 2 |
| 2025-04-25T19:38:00 | 53.909433 | 6.263994 | 2.0 | 8.604 | 2 | 34.724 | 8.767 | 32.680 | 2 |
| 2025-04-25T19:39:00 | 53.909434 | 6.261554 | 2.0 | 8.602 | 2 | 34.702 | 8.771 | 32.653 | 2 |
| 2025-04-25T19:40:00 | 53.909439 | 6.259119 | 2.0 | 8.595 | 2 | 34.793 | 8.768 | 32.751 | 2 |
| 2025-04-25T19:41:00 | 53.909451 | 6.256657 | 2.0 | 8.653 | 2 | 34.815 | 8.770 | 32.772 | 2 |
| 2025-04-25T19:42:00 | 53.909467 | 6.254180 | 2.0 | 8.739 | 2 | 34.819 | 8.836 | 32.715 | 2 |
| 2025-04-25T19:43:00 | 53.909459 | 6.251729 | 2.0 | 8.788 | 2 | 34.894 | 8.917 | 32.719 | 2 |
| 2025-04-25T19:44:00 | 53.909448 | 6.249274 | 2.0 | 8.809 | 2 | 34.866 | 8.954 | 32.656 | 2 |
| 2025-04-25T19:45:00 | 53.909438 | 6.246815 | 2.0 | 8.823 | 2 | 34.942 | 8.982 | 32.709 | 2 |
| 2025-04-25T19:46:00 | 53.909474 | 6.244380 | 2.0 | 8.813 | 2 | 34.938 | 8.987 | 32.700 | 2 |
| 2025-04-25T19:47:00 | 53.909502 | 6.241963 | 2.0 | 8.843 | 2 | 34.910 | 8.990 | 32.668 | 2 |
| 2025-04-25T19:48:00 | 53.909502 | 6.239540 | 2.0 | 8.872 | 2 | 34.945 | 9.017 | 32.680 | 2 |
| 2025-04-25T19:49:00 | 53.909477 | 6.237114 | 2.0 | 8.898 | 2 | 34.984 | 9.045 | 32.695 | 2 |
| 2025-04-25T19:50:00 | 53.909507 | 6.234665 | 2.0 | 8.930 | 2 | 34.991 | 9.071 | 32.678 | 2 |
| 2025-04-25T19:51:00 | 53.909512 | 6.232223 | 2.0 | 8.968 | 2 | 35.018 | 9.104 | 32.676 | 2 |
| 2025-04-25T19:52:00 | 53.909506 | 6.229783 | 2.0 | 9.019 | 2 | 35.088 | 9.143 | 32.712 | 2 |
| 2025-04-25T19:53:00 | 53.909490 | 6.227337 | 2.0 | 9.031 | 2 | 35.100 | 9.185 | 32.686 | 2 |
| 2025-04-25T19:54:00 | 53.909462 | 6.224868 | 2.0 | 9.020 | 2 | 35.112 | 9.198 | 32.687 | 2 |
| 2025-04-25T19:55:00 | 53.909441 | 6.222391 | 2.0 | 9.023 | 2 | 35.103 | 9.187 | 32.688 | 2 |
| 2025-04-25T19:56:00 | 53.909449 | 6.219906 | 2.0 | 9.032 | 2 | 35.096 | 9.196 | 32.672 | 2 |
| 2025-04-25T19:57:00 | 53.909474 | 6.217413 | 2.0 | 9.120 | 2 | 35.069 | 9.211 | 32.630 | 2 |
| 2025-04-25T19:58:00 | 53.909495 | 6.214913 | 2.0 | 9.198 | 2 | 35.136 | 9.298 | 32.620 | 2 |
| 2025-04-25T19:59:00 | 53.909469 | 6.212391 | 2.0 | 9.250 | 2 | 35.186 | 9.369 | 32.607 | 2 |
| 2025-04-25T20:00:00 | 53.909457 | 6.209868 | 2.0 | 9.284 | 2 | 35.255 | 9.419 | 32.632 | 2 |
| 2025-04-25T20:01:00 | 53.909464 | 6.207372 | 2.0 | 9.285 | 2 | 35.284 | 9.447 | 32.637 | 2 |
| 2025-04-25T20:02:00 | 53.909466 | 6.204915 | 2.0 | 9.261 | 2 | 35.302 | 9.444 | 32.658 | 2 |
| 2025-04-25T20:03:00 | 53.909474 | 6.202494 | 2.0 | 9.210 | 2 | 35.293 | 9.426 | 32.665 | 2 |
| 2025-04-25T20:04:00 | 53.909483 | 6.200111 | 2.0 | 9.135 | 2 | 35.243 | 9.360 | 32.674 | 2 |
| 2025-04-25T20:05:00 | 53.910082 | 6.198056 | 2.0 | 9.131 | 2 | 35.196 | 9.302 | 32.678 | 2 |
| 2025-04-25T20:06:00 | 53.910876 | 6.196211 | 2.0 | 9.089 | 2 | 35.185 | 9.291 | 32.677 | 2 |
| 2025-04-25T20:07:00 | 53.911316 | 6.194139 | 2.0 | 9.044 | 2 | 35.160 | 9.256 | 32.683 | 2 |
| 2025-04-25T20:08:00 | 53.910922 | 6.191977 | 2.0 | 9.054 | 2 | 35.122 | 9.214 | 32.682 | 2 |
| 2025-04-25T20:09:00 | 53.909693 | 6.190715 | 2.0 | 9.044 | 2 | 35.127 | 9.217 | 32.685 | 2 |
| 2025-04-25T20:10:00 | 53.908154 | 6.191195 | 2.0 | 8.989 | 2 | 35.112 | 9.210 | 32.676 | 2 |
| 2025-04-25T20:11:00 | 53.907217 | 6.193308 | 2.0 | 8.939 | 2 | 35.054 | 9.145 | 32.675 | 2 |
| 2025-04-25T20:12:00 | 53.907128 | 6.195842 | 2.0 | 8.951 | 2 | 35.011 | 9.122 | 32.652 | 2 |
| 2025-04-25T20:13:00 | 53.907092 | 6.198313 | 2.0 | 8.993 | 2 | 35.019 | 9.124 | 32.658 | 2 |
| 2025-04-25T20:14:00 | 53.907012 | 6.200774 | 2.0 | 8.992 | 2 | 35.031 | 9.166 | 32.632 | 2 |
| 2025-04-25T20:15:00 | 53.907044 | 6.203247 | 2.0 | 9.059 | 2 | 35.034 | 9.178 | 32.624 | 2 |
| 2025-04-25T20:16:00 | 53.907059 | 6.205737 | 2.0 | 9.123 | 2 | 35.089 | 9.238 | 32.626 | 2 |
| 2025-04-25T20:17:00 | 53.907021 | 6.208214 | 2.0 | 9.170 | 2 | 35.133 | 9.296 | 32.619 | 2 |
| 2025-04-25T20:18:00 | 53.906975 | 6.210689 | 2.0 | 9.226 | 2 | 35.163 | 9.345 | 32.605 | 2 |
| 2025-04-25T20:19:00 | 53.906946 | 6.213148 | 2.0 | 9.262 | 2 | 35.263 | 9.397 | 32.661 | 2 |
| 2025-04-25T20:20:00 | 53.906964 | 6.215603 | 2.0 | 9.266 | 2 | 35.282 | 9.427 | 32.653 | 2 |
| 2025-04-25T20:21:00 | 53.907009 | 6.218028 | 2.0 | 9.264 | 2 | 35.296 | 9.431 | 32.663 | 2 |
| 2025-04-25T20:22:00 | 53.907047 | 6.220449 | 2.0 | 9.249 | 2 | 35.298 | 9.428 | 32.668 | 2 |
| 2025-04-25T20:23:00 | 53.907040 | 6.222873 | 2.0 | 9.221 | 2 | 35.280 | 9.413 | 32.663 | 2 |
| 2025-04-25T20:24:00 | 53.906997 | 6.225297 | 2.0 | 9.148 | 2 | 35.254 | 9.378 | 32.669 | 2 |
| 2025-04-25T20:25:00 | 53.906964 | 6.227739 | 2.0 | 9.055 | 2 | 35.183 | 9.301 | 32.666 | 2 |
| 2025-04-25T20:26:00 | 53.906950 | 6.230183 | 2.0 | 9.033 | 2 | 35.117 | 9.220 | 32.672 | 2 |
| 2025-04-25T20:27:00 | 53.906954 | 6.232631 | 2.0 | 8.987 | 2 | 35.122 | 9.209 | 32.687 | 2 |
| 2025-04-25T20:28:00 | 53.906963 | 6.235055 | 2.0 | 9.007 | 2 | 35.088 | 9.152 | 32.704 | 2 |
| 2025-04-25T20:29:00 | 53.907011 | 6.237428 | 2.0 | 9.078 | 2 | 35.144 | 9.193 | 32.724 | 2 |
| 2025-04-25T20:30:00 | 53.907090 | 6.239807 | 2.0 | 9.073 | 2 | 35.199 | 9.241 | 32.737 | 2 |
| 2025-04-25T20:31:00 | 53.907104 | 6.242195 | 2.0 | 9.052 | 2 | 35.214 | 9.238 | 32.756 | 2 |
| 2025-04-25T20:32:00 | 53.907051 | 6.244585 | 2.0 | 9.013 | 2 | 35.205 | 9.217 | 32.766 | 2 |
| 2025-04-25T20:33:00 | 53.907040 | 6.246978 | 2.0 | 8.984 | 2 | 35.177 | 9.181 | 32.770 | 2 |
| 2025-04-25T20:34:00 | 53.907053 | 6.249371 | 2.0 | 8.992 | 2 | 35.154 | 9.162 | 32.763 | 2 |
| 2025-04-25T20:35:00 | 53.907062 | 6.251747 | 2.0 | 8.958 | 2 | 35.155 | 9.152 | 32.774 | 2 |
| 2025-04-25T20:36:00 | 53.907095 | 6.254107 | 2.0 | 8.940 | 2 | 35.137 | 9.126 | 32.779 | 2 |
| 2025-04-25T20:37:00 | 53.907091 | 6.256482 | 2.0 | 8.920 | 2 | 35.121 | 9.106 | 32.781 | 2 |
| 2025-04-25T20:38:00 | 53.907060 | 6.258868 | 2.0 | 8.899 | 2 | 35.106 | 9.087 | 32.783 | 2 |
| 2025-04-25T20:39:00 | 53.906998 | 6.261261 | 2.0 | 8.882 | 2 | 35.091 | 9.068 | 32.784 | 2 |
| 2025-04-25T20:40:00 | 53.906958 | 6.263653 | 2.0 | 8.864 | 2 | 35.079 | 9.052 | 32.787 | 2 |
| 2025-04-25T20:41:00 | 53.906966 | 6.266043 | 2.0 | 8.844 | 2 | 35.055 | 9.033 | 32.779 | 2 |
| 2025-04-25T20:42:00 | 53.906998 | 6.268436 | 2.0 | 8.820 | 2 | 35.042 | 9.011 | 32.786 | 2 |
| 2025-04-25T20:43:00 | 53.907026 | 6.270835 | 2.0 | 8.809 | 2 | 35.028 | 8.991 | 32.790 | 2 |
| 2025-04-25T20:44:00 | 53.907030 | 6.273245 | 2.0 | 8.787 | 2 | 35.015 | 8.976 | 32.790 | 2 |
| 2025-04-25T20:45:00 | 53.907013 | 6.275659 | 2.0 | 8.802 | 2 | 35.010 | 8.960 | 32.800 | 2 |
| 2025-04-25T20:46:00 | 53.907007 | 6.278083 | 2.0 | 8.782 | 2 | 35.030 | 8.969 | 32.812 | 2 |
| 2025-04-25T20:47:00 | 53.907001 | 6.280506 | 2.0 | 8.742 | 2 | 35.020 | 8.948 | 32.821 | 2 |
| 2025-04-25T20:48:00 | 53.906982 | 6.282934 | 2.0 | 8.684 | 2 | 34.988 | 8.904 | 32.829 | 2 |
| 2025-04-25T20:49:00 | 53.906969 | 6.285351 | 2.0 | 8.575 | 2 | 34.945 | 8.844 | 32.839 | 2 |
| 2025-04-25T20:50:00 | 53.906988 | 6.287752 | 2.0 | 8.509 | 2 | 34.877 | 8.735 | 32.869 | 2 |
| 2025-04-25T20:51:00 | 53.907038 | 6.290124 | 2.0 | 8.488 | 2 | 34.846 | 8.676 | 32.892 | 2 |
| 2025-04-25T20:52:00 | 53.907071 | 6.292481 | 2.0 | 8.524 | 2 | 34.842 | 8.675 | 32.889 | 2 |
| 2025-04-25T20:53:00 | 53.907087 | 6.294834 | 2.0 | 8.472 | 2 | 34.850 | 8.689 | 32.884 | 2 |
| 2025-04-25T20:54:00 | 53.907083 | 6.297195 | 2.0 | 8.458 | 2 | 34.819 | 8.644 | 32.893 | 2 |
| 2025-04-25T20:55:00 | 53.907087 | 6.299543 | 2.0 | 8.465 | 2 | 34.821 | 8.633 | 32.906 | 2 |
| 2025-04-25T20:56:00 | 53.907261 | 6.301771 | 2.0 | 8.487 | 2 | 34.841 | 8.642 | 32.918 | 2 |
| 2025-04-25T20:57:00 | 53.907695 | 6.303816 | 2.0 | 8.499 | 2 | 34.861 | 8.659 | 32.923 | 2 |
| 2025-04-25T20:58:00 | 53.908102 | 6.305889 | 2.0 | 8.510 | 2 | 34.869 | 8.669 | 32.922 | 2 |
| 2025-04-25T20:59:00 | 53.908068 | 6.308234 | 2.0 | 8.513 | 2 | 34.880 | 8.678 | 32.926 | 2 |
| 2025-04-25T21:00:00 | 53.907162 | 6.310215 | 2.0 | 8.514 | 2 | 34.893 | 8.683 | 32.935 | 2 |
| 2025-04-25T21:01:00 | 53.905728 | 6.310498 | 2.0 | 8.489 | 2 | 34.891 | 8.681 | 32.934 | 2 |
| 2025-04-25T21:02:00 | 53.904668 | 6.309000 | 2.0 | 8.483 | 2 | 34.875 | 8.660 | 32.937 | 2 |
| 2025-04-25T21:03:00 | 53.904486 | 6.306768 | 2.0 | 8.485 | 2 | 34.857 | 8.653 | 32.925 | 2 |
| 2025-04-25T21:04:00 | 53.904622 | 6.304411 | 2.0 | 8.476 | 2 | 34.847 | 8.655 | 32.912 | 2 |
| 2025-04-25T21:05:00 | 53.904519 | 6.301847 | 2.0 | 8.447 | 2 | 34.832 | 8.640 | 32.911 | 2 |
| 2025-04-25T21:06:00 | 53.904558 | 6.299237 | 2.0 | 8.477 | 2 | 34.811 | 8.624 | 32.903 | 2 |
| 2025-04-25T21:07:00 | 53.904599 | 6.296715 | 2.0 | 8.528 | 2 | 34.819 | 8.659 | 32.879 | 2 |
| 2025-04-25T21:08:00 | 53.904578 | 6.294295 | 2.0 | 8.516 | 2 | 34.842 | 8.693 | 32.872 | 2 |
| 2025-04-25T21:09:00 | 53.904562 | 6.291953 | 2.0 | 8.543 | 2 | 34.835 | 8.682 | 32.875 | 2 |
| 2025-04-25T21:10:00 | 53.904587 | 6.289672 | 2.0 | 8.693 | 2 | 34.860 | 8.743 | 32.844 | 2 |
| 2025-04-25T21:11:00 | 53.904604 | 6.287432 | 2.0 | 8.749 | 2 | 34.947 | 8.865 | 32.822 | 2 |
| 2025-04-25T21:12:00 | 53.904601 | 6.285211 | 2.0 | 8.772 | 2 | 34.983 | 8.915 | 32.813 | 2 |
| 2025-04-25T21:13:00 | 53.904575 | 6.282964 | 2.0 | 8.797 | 2 | 34.999 | 8.944 | 32.803 | 2 |
| 2025-04-25T21:14:00 | 53.904540 | 6.280669 | 2.0 | 8.812 | 2 | 35.013 | 8.966 | 32.797 | 2 |
| 2025-04-25T21:15:00 | 53.904553 | 6.278320 | 2.0 | 8.827 | 2 | 35.024 | 8.982 | 32.794 | 2 |
| 2025-04-25T21:16:00 | 53.904586 | 6.275947 | 2.0 | 8.842 | 2 | 35.036 | 8.997 | 32.793 | 2 |
| 2025-04-25T21:17:00 | 53.904603 | 6.273544 | 2.0 | 8.855 | 2 | 35.046 | 9.012 | 32.789 | 2 |
| 2025-04-25T21:18:00 | 53.904599 | 6.271116 | 2.0 | 8.870 | 2 | 35.057 | 9.025 | 32.789 | 2 |
| 2025-04-25T21:19:00 | 53.904604 | 6.268662 | 2.0 | 8.887 | 2 | 35.068 | 9.041 | 32.785 | 2 |
| 2025-04-25T21:20:00 | 53.904606 | 6.266184 | 2.0 | 8.893 | 2 | 35.081 | 9.056 | 32.785 | 2 |
| 2025-04-25T21:21:00 | 53.904598 | 6.263728 | 2.0 | 8.900 | 2 | 35.085 | 9.062 | 32.784 | 2 |
| 2025-04-25T21:22:00 | 53.904627 | 6.261320 | 2.0 | 8.925 | 2 | 35.092 | 9.073 | 32.781 | 2 |
| 2025-04-25T21:23:00 | 53.904647 | 6.258943 | 2.0 | 8.948 | 2 | 35.109 | 9.097 | 32.776 | 2 |
| 2025-04-25T21:24:00 | 53.904643 | 6.256576 | 2.0 | 8.979 | 2 | 35.123 | 9.115 | 32.774 | 2 |
| 2025-04-25T21:25:00 | 53.904622 | 6.254229 | 2.0 | 9.004 | 2 | 35.139 | 9.155 | 32.754 | 2 |
| 2025-04-25T21:26:00 | 53.904617 | 6.251896 | 2.0 | 9.005 | 2 | 35.134 | 9.169 | 32.736 | 2 |
| 2025-04-25T21:27:00 | 53.904625 | 6.249572 | 2.0 | 8.895 | 2 | 35.110 | 9.159 | 32.720 | 2 |
| 2025-04-25T21:28:00 | 53.904628 | 6.247249 | 2.0 | 8.856 | 2 | 34.988 | 9.056 | 32.689 | 2 |
| 2025-04-25T21:29:00 | 53.904615 | 6.244932 | 2.0 | 9.047 | 2 | 34.963 | 9.050 | 32.668 | 2 |
| 2025-04-25T21:30:00 | 53.904607 | 6.242596 | 2.0 | 9.033 | 2 | 35.116 | 9.207 | 32.683 | 2 |
| 2025-04-25T21:31:00 | 53.904579 | 6.240251 | 2.0 | 9.032 | 2 | 35.125 | 9.196 | 32.702 | 2 |
| 2025-04-25T21:32:00 | 53.904552 | 6.237908 | 2.0 | 9.031 | 2 | 35.126 | 9.194 | 32.705 | 2 |
| 2025-04-25T21:33:00 | 53.904550 | 6.235563 | 2.0 | 9.016 | 2 | 35.125 | 9.202 | 32.697 | 2 |
| 2025-04-25T21:34:00 | 53.904586 | 6.233210 | 2.0 | 9.041 | 2 | 35.094 | 9.183 | 32.682 | 2 |
| 2025-04-25T21:35:00 | 53.904584 | 6.230848 | 2.0 | 9.096 | 2 | 35.114 | 9.218 | 32.671 | 2 |
| 2025-04-25T21:36:00 | 53.904524 | 6.228489 | 2.0 | 9.146 | 2 | 35.158 | 9.269 | 32.669 | 2 |
| 2025-04-25T21:37:00 | 53.904514 | 6.226132 | 2.0 | 9.192 | 2 | 35.203 | 9.318 | 32.671 | 2 |
| 2025-04-25T21:38:00 | 53.904518 | 6.223795 | 2.0 | 9.203 | 2 | 35.242 | 9.359 | 32.674 | 2 |
| 2025-04-25T21:39:00 | 53.904522 | 6.221441 | 2.0 | 9.153 | 2 | 35.251 | 9.363 | 32.679 | 2 |
| 2025-04-25T21:40:00 | 53.904516 | 6.219078 | 2.0 | 9.074 | 2 | 35.206 | 9.304 | 32.687 | 2 |
| 2025-04-25T21:41:00 | 53.904505 | 6.216712 | 2.0 | 8.989 | 2 | 35.142 | 9.231 | 32.688 | 2 |
| 2025-04-25T21:42:00 | 53.904514 | 6.214347 | 2.0 | 8.966 | 2 | 35.076 | 9.164 | 32.681 | 2 |
| 2025-04-25T21:43:00 | 53.904513 | 6.211988 | 2.0 | 8.992 | 2 | 35.043 | 9.140 | 32.669 | 2 |
| 2025-04-25T21:44:00 | 53.904529 | 6.209643 | 2.0 | 9.074 | 2 | 34.644 | 9.167 | 32.231 | 2 |
| 2025-04-25T21:45:00 | 53.904535 | 6.207311 | 2.0 | 9.176 | 2 | 35.145 | 9.262 | 32.662 | 2 |
| 2025-04-25T21:46:00 | 53.904544 | 6.204986 | 2.0 | 9.201 | 2 | 35.221 | 9.341 | 32.668 | 2 |
| 2025-04-25T21:47:00 | 53.904561 | 6.202636 | 2.0 | 8.919 | 2 | 35.216 | 9.346 | 32.659 | 2 |
| 2025-04-25T21:48:00 | 53.904471 | 6.200334 | 2.0 | 8.950 | 2 | 34.944 | 9.104 | 32.599 | 2 |
| 2025-04-25T21:49:00 | 53.903896 | 6.198193 | 2.0 | 9.067 | 2 | 34.764 | 9.143 | 32.377 | 2 |
| 2025-04-25T21:50:00 | 53.903236 | 6.195705 | 2.0 | 9.058 | 2 | 35.032 | 9.230 | 32.575 | 2 |
| 2025-04-25T21:51:00 | 53.903344 | 6.193115 | 2.0 | 9.031 | 2 | 34.863 | 9.216 | 32.413 | 2 |
| 2025-04-25T21:52:00 | 53.904551 | 6.191967 | 2.0 | 9.032 | 2 | 34.985 | 9.201 | 32.553 | 2 |
| 2025-04-25T21:53:00 | 53.905730 | 6.193057 | 2.0 | 9.221 | 2 | 35.087 | 9.282 | 32.584 | 2 |
| 2025-04-25T21:54:00 | 53.905994 | 6.195273 | 2.0 | 9.206 | 2 | 34.862 | 9.366 | 32.276 | 2 |
| 2025-04-25T21:55:00 | 53.906088 | 6.197510 | 2.0 | 9.166 | 2 | 35.131 | 9.375 | 32.545 | 2 |
| 2025-04-25T21:56:00 | 53.906163 | 6.199782 | 2.0 | 9.081 | 2 | 35.109 | 9.314 | 32.578 | 2 |
| 2025-04-25T21:57:00 | 53.906153 | 6.202094 | 2.0 | 9.038 | 2 | 34.983 | 9.246 | 32.510 | 2 |
| 2025-04-25T21:58:00 | 53.906168 | 6.204427 | 2.0 | 8.984 | 2 | 35.062 | 9.202 | 32.631 | 2 |
| 2025-04-25T21:59:00 | 53.906163 | 6.206787 | 2.0 | 8.929 | 2 | 34.704 | 9.149 | 32.310 | 2 |
| 2025-04-25T22:00:00 | 53.906152 | 6.209124 | 2.0 | 8.912 | 2 | 34.722 | 9.096 | 32.376 | 2 |
| 2025-04-25T22:01:00 | 53.906199 | 6.211444 | 2.0 | 8.958 | 2 | 34.856 | 9.093 | 32.518 | 2 |
| 2025-04-25T22:02:00 | 53.906258 | 6.213737 | 2.0 | 8.998 | 2 | 34.888 | 9.128 | 32.519 | 2 |
| 2025-04-25T22:03:00 | 53.906302 | 6.216036 | 2.0 | 9.124 | 2 | 34.923 | 9.188 | 32.501 | 2 |
| 2025-04-25T22:04:00 | 53.906298 | 6.218327 | 2.0 | 9.177 | 2 | 35.171 | 9.298 | 32.656 | 2 |
| 2025-04-25T22:05:00 | 53.906302 | 6.220606 | 2.0 | 9.167 | 2 | 35.205 | 9.338 | 32.655 | 2 |
| 2025-04-25T22:06:00 | 53.906311 | 6.222901 | 2.0 | 9.131 | 2 | 35.063 | 9.327 | 32.518 | 2 |
| 2025-04-25T22:07:00 | 53.906306 | 6.225193 | 2.0 | 9.112 | 2 | 35.032 | 9.299 | 32.512 | 2 |
| 2025-04-25T22:08:00 | 53.906268 | 6.227467 | 2.0 | 9.061 | 2 | 35.079 | 9.272 | 32.585 | 2 |
| 2025-04-25T22:09:00 | 53.906250 | 6.229734 | 2.0 | 9.002 | 2 | 34.941 | 9.220 | 32.490 | 2 |
| 2025-04-25T22:10:00 | 53.906269 | 6.231998 | 2.0 | 8.955 | 2 | 34.923 | 9.158 | 32.528 | 2 |
| 2025-04-25T22:11:00 | 53.906284 | 6.234266 | 2.0 | 8.968 | 2 | 35.025 | 9.129 | 32.660 | 2 |
| 2025-04-25T22:12:00 | 53.906276 | 6.236510 | 2.0 | 8.991 | 2 | 35.097 | 9.146 | 32.719 | 2 |
| 2025-04-25T22:13:00 | 53.906278 | 6.238730 | 2.0 | 9.012 | 2 | 35.079 | 9.167 | 32.681 | 2 |
| 2025-04-25T22:14:00 | 53.906299 | 6.240954 | 2.0 | 8.998 | 2 | 35.090 | 9.176 | 32.684 | 2 |
| 2025-04-25T22:15:00 | 53.906289 | 6.243178 | 2.0 | 8.994 | 2 | 35.050 | 9.160 | 32.657 | 2 |
| 2025-04-25T22:16:00 | 53.906257 | 6.245402 | 2.0 | 8.970 | 2 | 35.027 | 9.162 | 32.632 | 2 |
| 2025-04-25T22:17:00 | 53.906250 | 6.247621 | 2.0 | 8.926 | 2 | 34.825 | 9.133 | 32.449 | 2 |
| 2025-04-25T22:18:00 | 53.906281 | 6.249828 | 2.0 | 8.916 | 2 | 34.954 | 9.097 | 32.616 | 2 |
| 2025-04-25T22:19:00 | 53.906273 | 6.252051 | 2.0 | 8.897 | 2 | 34.967 | 9.083 | 32.642 | 2 |
| 2025-04-25T22:20:00 | 53.906221 | 6.254281 | 2.0 | 8.883 | 2 | 35.082 | 9.065 | 32.778 | 2 |
| 2025-04-25T22:21:00 | 53.906168 | 6.256509 | 2.0 | 8.871 | 2 | 34.929 | 9.051 | 32.632 | 2 |
| 2025-04-25T22:22:00 | 53.906123 | 6.258729 | 2.0 | 8.861 | 2 | 34.929 | 9.040 | 32.642 | 2 |
| 2025-04-25T22:23:00 | 53.906116 | 6.260947 | 2.0 | 8.848 | 2 | 34.858 | 9.029 | 32.578 | 2 |
| 2025-04-25T22:24:00 | 53.906160 | 6.263168 | 2.0 | 8.833 | 2 | 34.896 | 9.015 | 32.631 | 2 |
| 2025-04-25T22:25:00 | 53.906208 | 6.265398 | 2.0 | 8.812 | 2 | 34.964 | 9.000 | 32.715 | 2 |
| 2025-04-25T22:26:00 | 53.906232 | 6.267622 | 2.0 | 8.796 | 2 | 34.831 | 8.980 | 32.595 | 2 |
| 2025-04-25T22:27:00 | 53.906240 | 6.269856 | 2.0 | 8.783 | 2 | 34.902 | 8.964 | 32.684 | 2 |
| 2025-04-25T22:28:00 | 53.906226 | 6.272113 | 2.0 | 8.774 | 2 | 34.898 | 8.952 | 32.691 | 2 |
| 2025-04-25T22:29:00 | 53.906211 | 6.274356 | 2.0 | 8.763 | 2 | 34.874 | 8.941 | 32.676 | 2 |
| 2025-04-25T22:30:00 | 53.906228 | 6.276607 | 2.0 | 8.757 | 2 | 34.904 | 8.933 | 32.714 | 2 |
| 2025-04-25T22:31:00 | 53.906235 | 6.278871 | 2.0 | 8.762 | 2 | 34.886 | 8.929 | 32.699 | 2 |
| 2025-04-25T22:32:00 | 53.906234 | 6.281148 | 2.0 | 8.726 | 2 | 34.876 | 8.924 | 32.694 | 2 |
| 2025-04-25T22:33:00 | 53.906215 | 6.283444 | 2.0 | 8.630 | 2 | 34.910 | 8.894 | 32.757 | 2 |
| 2025-04-25T22:34:00 | 53.906206 | 6.285730 | 2.0 | 8.467 | 2 | 34.837 | 8.761 | 32.803 | 2 |
| 2025-04-25T22:35:00 | 53.906233 | 6.287967 | 2.0 | 8.496 | 2 | 34.753 | 8.654 | 32.815 | 2 |
| 2025-04-25T22:36:00 | 53.906276 | 6.290151 | 2.0 | 8.507 | 2 | 34.788 | 8.668 | 32.838 | 2 |
| 2025-04-25T22:37:00 | 53.906300 | 6.292315 | 2.0 | 8.491 | 2 | 34.804 | 8.678 | 32.846 | 2 |
| 2025-04-25T22:38:00 | 53.906307 | 6.294536 | 2.0 | 8.473 | 2 | 34.777 | 8.658 | 32.836 | 2 |
| 2025-04-25T22:39:00 | 53.906301 | 6.296918 | 2.0 | 8.480 | 2 | 34.832 | 8.647 | 32.904 | 2 |
| 2025-04-25T22:40:00 | 53.906286 | 6.299380 | 2.0 | 8.479 | 2 | 34.856 | 8.650 | 32.926 | 2 |
| 2025-04-25T22:41:00 | 53.906444 | 6.301798 | 2.0 | 8.481 | 2 | 34.887 | 8.650 | 32.959 | 2 |
| 2025-04-25T22:42:00 | 53.906954 | 6.304097 | 2.0 | 8.443 | 2 | 34.858 | 8.647 | 32.931 | 2 |
| 2025-04-25T22:43:00 | 53.907326 | 6.306599 | 2.0 | 8.426 | 2 | 34.857 | 8.611 | 32.964 | 2 |
| 2025-04-25T22:44:00 | 53.906660 | 6.308780 | 2.0 | 8.433 | 2 | 34.844 | 8.600 | 32.960 | 2 |
| 2025-04-25T22:45:00 | 53.905182 | 6.309241 | 2.0 | 8.438 | 2 | 34.844 | 8.605 | 32.956 | 2 |
| 2025-04-25T22:46:00 | 53.903964 | 6.307631 | 2.0 | 8.436 | 2 | 34.855 | 8.608 | 32.965 | 2 |
| 2025-04-25T22:47:00 | 53.903667 | 6.305086 | 2.0 | 8.441 | 2 | 34.852 | 8.608 | 32.961 | 2 |
| 2025-04-25T22:48:00 | 53.903726 | 6.302555 | 2.0 | 8.440 | 2 | 34.879 | 8.612 | 32.986 | 2 |
| 2025-04-25T22:49:00 | 53.903817 | 6.300078 | 2.0 | 8.495 | 2 | 34.885 | 8.624 | 32.981 | 2 |
| 2025-04-25T22:50:00 | 53.903765 | 6.297664 | 2.0 | 8.489 | 2 | 34.925 | 8.660 | 32.990 | 2 |
| 2025-04-25T22:51:00 | 53.903767 | 6.295277 | 2.0 | 8.489 | 2 | 34.922 | 8.660 | 32.986 | 2 |
| 2025-04-25T22:52:00 | 53.903774 | 6.292913 | 2.0 | 8.485 | 2 | 34.911 | 8.660 | 32.975 | 2 |
| 2025-04-25T22:53:00 | 53.903738 | 6.290554 | 2.0 | 8.461 | 2 | 34.904 | 8.653 | 32.974 | 2 |
| 2025-04-25T22:54:00 | 53.903748 | 6.288197 | 2.0 | 8.473 | 2 | 34.871 | 8.633 | 32.958 | 2 |
| 2025-04-25T22:55:00 | 53.903748 | 6.285842 | 2.0 | 8.478 | 2 | 34.858 | 8.644 | 32.934 | 2 |
| 2025-04-25T22:56:00 | 53.903775 | 6.283505 | 2.0 | 8.490 | 2 | 34.856 | 8.652 | 32.925 | 2 |
| 2025-04-25T22:57:00 | 53.903803 | 6.281167 | 2.0 | 8.566 | 2 | 34.856 | 8.656 | 32.921 | 2 |
| 2025-04-25T22:58:00 | 53.903840 | 6.278858 | 2.0 | 8.700 | 2 | 34.891 | 8.769 | 32.853 | 2 |
| 2025-04-25T22:59:00 | 53.903855 | 6.276557 | 2.0 | 8.718 | 2 | 34.945 | 8.861 | 32.824 | 2 |
| 2025-04-25T23:00:00 | 53.903832 | 6.274281 | 2.0 | 8.733 | 2 | 34.958 | 8.885 | 32.815 | 2 |
| 2025-04-25T23:01:00 | 53.903851 | 6.272015 | 2.0 | 8.744 | 2 | 34.968 | 8.902 | 32.810 | 2 |
| 2025-04-25T23:02:00 | 53.903866 | 6.269746 | 2.0 | 8.748 | 2 | 34.973 | 8.910 | 32.808 | 2 |
| 2025-04-25T23:03:00 | 53.903864 | 6.267471 | 2.0 | 8.752 | 2 | 34.974 | 8.917 | 32.802 | 2 |
| 2025-04-25T23:04:00 | 53.903839 | 6.265174 | 2.0 | 8.759 | 2 | 34.975 | 8.919 | 32.801 | 2 |
| 2025-04-25T23:05:00 | 53.903818 | 6.262872 | 2.0 | 8.773 | 2 | 34.982 | 8.929 | 32.799 | 2 |
| 2025-04-25T23:06:00 | 53.903804 | 6.260549 | 2.0 | 8.781 | 2 | 34.991 | 8.940 | 32.799 | 2 |
| 2025-04-25T23:07:00 | 53.903768 | 6.258224 | 2.0 | 8.790 | 2 | 34.997 | 8.949 | 32.797 | 2 |
| 2025-04-25T23:08:00 | 53.903768 | 6.255901 | 2.0 | 8.818 | 2 | 35.006 | 8.965 | 32.791 | 2 |
| 2025-04-25T23:09:00 | 53.903789 | 6.253585 | 2.0 | 8.833 | 2 | 35.022 | 8.985 | 32.789 | 2 |
| 2025-04-25T23:10:00 | 53.903817 | 6.251250 | 2.0 | 8.840 | 2 | 35.035 | 9.000 | 32.789 | 2 |
| 2025-04-25T23:11:00 | 53.903837 | 6.248891 | 2.0 | 8.842 | 2 | 35.042 | 9.007 | 32.790 | 2 |
| 2025-04-25T23:12:00 | 53.903824 | 6.246509 | 2.0 | 8.847 | 2 | 35.041 | 9.010 | 32.786 | 2 |
| 2025-04-25T23:13:00 | 53.903817 | 6.244103 | 2.0 | 8.849 | 2 | 35.047 | 9.015 | 32.788 | 2 |
| 2025-04-25T23:14:00 | 53.903814 | 6.241686 | 2.0 | 8.844 | 2 | 35.049 | 9.016 | 32.789 | 2 |
| 2025-04-25T23:15:00 | 53.903821 | 6.239245 | 2.0 | 8.837 | 2 | 35.046 | 9.010 | 32.791 | 2 |
| 2025-04-25T23:16:00 | 53.903798 | 6.236794 | 2.0 | 8.842 | 2 | 35.042 | 9.007 | 32.790 | 2 |
| 2025-04-25T23:17:00 | 53.903770 | 6.234344 | 2.0 | 8.845 | 2 | 35.045 | 9.012 | 32.788 | 2 |
| 2025-04-25T23:18:00 | 53.903782 | 6.231898 | 2.0 | 8.848 | 2 | 35.045 | 9.012 | 32.788 | 2 |
| 2025-04-25T23:19:00 | 53.903810 | 6.229432 | 2.0 | 8.853 | 2 | 35.047 | 9.017 | 32.786 | 2 |
| 2025-04-25T23:20:00 | 53.903832 | 6.226960 | 2.0 | 8.857 | 2 | 35.049 | 9.020 | 32.785 | 2 |
| 2025-04-25T23:21:00 | 53.903839 | 6.224488 | 2.0 | 8.872 | 2 | 35.050 | 9.026 | 32.781 | 2 |
| 2025-04-25T23:22:00 | 53.903860 | 6.222013 | 2.0 | 8.903 | 2 | 35.056 | 9.044 | 32.770 | 2 |
| 2025-04-25T23:23:00 | 53.903867 | 6.219527 | 2.0 | 8.923 | 2 | 35.058 | 9.074 | 32.745 | 2 |
| 2025-04-25T23:24:00 | 53.903827 | 6.217034 | 2.0 | 8.891 | 2 | 35.060 | 9.086 | 32.736 | 2 |
| 2025-04-25T23:25:00 | 53.903809 | 6.214545 | 2.0 | 8.783 | 2 | 35.000 | 9.038 | 32.718 | 2 |
| 2025-04-25T23:26:00 | 53.903827 | 6.212069 | 2.0 | 8.761 | 2 | 34.895 | 8.952 | 32.688 | 2 |
| 2025-04-25T23:27:00 | 53.903816 | 6.209606 | 2.0 | 8.812 | 2 | 34.869 | 8.935 | 32.676 | 2 |
| 2025-04-25T23:28:00 | 53.903777 | 6.207143 | 2.0 | 8.911 | 2 | 34.929 | 9.002 | 32.677 | 2 |
| 2025-04-25T23:29:00 | 53.903742 | 6.204665 | 2.0 | 8.927 | 2 | 35.025 | 9.084 | 32.701 | 2 |
| 2025-04-25T23:30:00 | 53.903683 | 6.202173 | 2.0 | 8.925 | 2 | 35.041 | 9.085 | 32.717 | 2 |
| 2025-04-25T23:31:00 | 53.903595 | 6.199715 | 2.0 | 8.922 | 2 | 35.015 | 9.095 | 32.681 | 2 |
| 2025-04-25T23:32:00 | 53.903120 | 6.197499 | 2.0 | 8.918 | 2 | 35.001 | 9.088 | 32.673 | 2 |
| 2025-04-25T23:33:00 | 53.902521 | 6.195353 | 2.0 | 8.926 | 2 | 34.998 | 9.085 | 32.672 | 2 |
| 2025-04-25T23:34:00 | 53.902562 | 6.192848 | 2.0 | 8.950 | 2 | 35.007 | 9.092 | 32.675 | 2 |
| 2025-04-25T23:35:00 | 53.903513 | 6.191411 | 2.0 | 8.994 | 2 | 35.033 | 9.124 | 32.673 | 2 |
| 2025-04-25T23:36:00 | 53.904503 | 6.192019 | 2.0 | 8.991 | 2 | 35.062 | 9.156 | 32.674 | 2 |
| 2025-04-25T23:37:00 | 53.904817 | 6.193856 | 2.0 | 8.953 | 2 | 35.059 | 9.153 | 32.673 | 2 |
| 2025-04-25T23:38:00 | 53.905022 | 6.195848 | 2.0 | 8.944 | 2 | 35.031 | 9.118 | 32.676 | 2 |
| 2025-04-25T23:39:00 | 53.905173 | 6.198072 | 2.0 | 8.922 | 2 | 35.026 | 9.110 | 32.678 | 2 |
| 2025-04-25T23:40:00 | 53.905284 | 6.200267 | 2.0 | 8.916 | 2 | 35.048 | 9.089 | 32.721 | 2 |
| 2025-04-25T23:41:00 | 53.905372 | 6.202397 | 2.0 | 8.897 | 2 | 35.062 | 9.082 | 32.742 | 2 |
| 2025-04-25T23:42:00 | 53.905393 | 6.204694 | 2.0 | 8.884 | 2 | 35.031 | 9.057 | 32.732 | 2 |
| 2025-04-25T23:43:00 | 53.905425 | 6.207010 | 2.0 | 8.903 | 2 | 35.034 | 9.058 | 32.735 | 2 |
| 2025-04-25T23:44:00 | 53.905404 | 6.209325 | 2.0 | 8.884 | 2 | 35.066 | 9.068 | 32.759 | 2 |
| 2025-04-25T23:45:00 | 53.905370 | 6.211617 | 2.0 | 8.861 | 2 | 35.063 | 9.045 | 32.777 | 2 |
| 2025-04-25T23:46:00 | 53.905382 | 6.213900 | 2.0 | 8.856 | 2 | 35.056 | 9.030 | 32.783 | 2 |
| 2025-04-25T23:47:00 | 53.905379 | 6.216208 | 2.0 | 8.836 | 2 | 35.051 | 9.020 | 32.787 | 2 |
| 2025-04-25T23:48:00 | 53.905361 | 6.218530 | 2.0 | 8.815 | 2 | 35.038 | 9.002 | 32.790 | 2 |
| 2025-04-25T23:49:00 | 53.905378 | 6.220866 | 2.0 | 8.804 | 2 | 35.023 | 8.981 | 32.794 | 2 |
| 2025-04-25T23:50:00 | 53.905398 | 6.223206 | 2.0 | 8.798 | 2 | 35.015 | 8.972 | 32.794 | 2 |
| 2025-04-25T23:51:00 | 53.905412 | 6.225536 | 2.0 | 8.788 | 2 | 35.008 | 8.965 | 32.793 | 2 |
| 2025-04-25T23:52:00 | 53.905385 | 6.227879 | 2.0 | 8.777 | 2 | 34.997 | 8.955 | 32.791 | 2 |
| 2025-04-25T23:53:00 | 53.905353 | 6.230208 | 2.0 | 8.767 | 2 | 34.987 | 8.943 | 32.792 | 2 |
| 2025-04-25T23:54:00 | 53.905350 | 6.232550 | 2.0 | 8.763 | 2 | 34.982 | 8.937 | 32.792 | 2 |
| 2025-04-25T23:55:00 | 53.905383 | 6.234913 | 2.0 | 8.748 | 2 | 34.978 | 8.929 | 32.795 | 2 |
| 2025-04-25T23:56:00 | 53.905385 | 6.237296 | 2.0 | 8.733 | 2 | 34.966 | 8.915 | 32.796 | 2 |
| 2025-04-25T23:57:00 | 53.905372 | 6.239674 | 2.0 | 8.735 | 2 | 34.960 | 8.903 | 32.800 | 2 |
| 2025-04-25T23:58:00 | 53.905384 | 6.242059 | 2.0 | 8.738 | 2 | 34.963 | 8.905 | 32.802 | 2 |
| 2025-04-25T23:59:00 | 53.905406 | 6.244454 | 2.0 | 8.732 | 2 | 34.969 | 8.906 | 32.807 | 2 |
| 2025-04-26T00:00:00 | 53.905421 | 6.246850 | 2.0 | 8.722 | 2 | 34.965 | 8.899 | 32.809 | 2 |
| 2025-04-26T00:01:00 | 53.905392 | 6.249262 | 2.0 | 8.694 | 2 | 34.961 | 8.885 | 32.818 | 2 |
| 2025-04-26T00:02:00 | 53.905372 | 6.251666 | 2.0 | 8.639 | 2 | 34.945 | 8.862 | 32.823 | 2 |
| 2025-04-26T00:03:00 | 53.905454 | 6.254063 | 2.0 | 8.432 | 2 | 34.905 | 8.748 | 32.887 | 2 |
| 2025-04-26T00:04:00 | 53.905479 | 6.256433 | 2.0 | 8.442 | 2 | 34.869 | 8.616 | 32.972 | 2 |
| 2025-04-26T00:05:00 | 53.905410 | 6.258772 | 2.0 | 8.458 | 2 | 34.888 | 8.622 | 32.986 | 2 |
| 2025-04-26T00:06:00 | 53.905430 | 6.261100 | 2.0 | 8.463 | 2 | 34.907 | 8.629 | 33.000 | 2 |
| 2025-04-26T00:07:00 | 53.905440 | 6.263400 | 2.0 | 8.440 | 2 | 34.916 | 8.634 | 33.004 | 2 |
| 2025-04-26T00:08:00 | 53.905457 | 6.265697 | 2.0 | 8.434 | 2 | 34.896 | 8.610 | 33.006 | 2 |
| 2025-04-26T00:09:00 | 53.905456 | 6.267991 | 2.0 | 8.435 | 2 | 34.885 | 8.605 | 32.999 | 2 |
| 2025-04-26T00:10:00 | 53.905442 | 6.270269 | 2.0 | 8.424 | 2 | 34.883 | 8.604 | 32.998 | 2 |
| 2025-04-26T00:11:00 | 53.905470 | 6.272535 | 2.0 | 8.452 | 2 | 34.862 | 8.598 | 32.981 | 2 |
| 2025-04-26T00:12:00 | 53.905494 | 6.274794 | 2.0 | 8.448 | 2 | 34.847 | 8.619 | 32.946 | 2 |
| 2025-04-26T00:13:00 | 53.905499 | 6.277055 | 2.0 | 8.440 | 2 | 34.836 | 8.614 | 32.939 | 2 |
| 2025-04-26T00:14:00 | 53.905479 | 6.279313 | 2.0 | 8.468 | 2 | 34.816 | 8.612 | 32.920 | 2 |
| 2025-04-26T00:15:00 | 53.905471 | 6.281533 | 2.0 | 8.514 | 2 | 34.814 | 8.645 | 32.887 | 2 |
| 2025-04-26T00:16:00 | 53.905475 | 6.283723 | 2.0 | 8.511 | 2 | 34.824 | 8.679 | 32.866 | 2 |
| 2025-04-26T00:17:00 | 53.905486 | 6.285912 | 2.0 | 8.547 | 2 | 34.825 | 8.683 | 32.863 | 2 |
| 2025-04-26T00:18:00 | 53.905458 | 6.288104 | 2.0 | 8.562 | 2 | 34.829 | 8.719 | 32.834 | 2 |
| 2025-04-26T00:19:00 | 53.905455 | 6.290297 | 2.0 | 8.591 | 2 | 34.820 | 8.738 | 32.807 | 2 |
| 2025-04-26T00:20:00 | 53.905464 | 6.292489 | 2.0 | 8.615 | 2 | 34.828 | 8.769 | 32.787 | 2 |
| 2025-04-26T00:21:00 | 53.905476 | 6.294694 | 2.0 | 8.592 | 2 | 34.826 | 8.778 | 32.776 | 2 |
| 2025-04-26T00:22:00 | 53.905473 | 6.296907 | 2.0 | 8.587 | 2 | 34.815 | 8.760 | 32.781 | 2 |
| 2025-04-26T00:23:00 | 53.905465 | 6.299134 | 2.0 | 8.617 | 2 | 34.800 | 8.761 | 32.765 | 2 |
| 2025-04-26T00:24:00 | 53.905524 | 6.301430 | 2.0 | 8.659 | 2 | 34.788 | 8.788 | 32.727 | 2 |
| 2025-04-26T00:25:00 | 53.905994 | 6.303600 | 2.0 | 8.693 | 2 | 34.673 | 8.831 | 32.568 | 2 |
| 2025-04-26T00:26:00 | 53.906402 | 6.305909 | 2.0 | 8.682 | 2 | 34.722 | 8.854 | 32.598 | 2 |
| 2025-04-26T00:27:00 | 53.906218 | 6.308225 | 2.0 | 8.659 | 2 | 34.735 | 8.843 | 32.621 | 2 |
| 2025-04-26T00:28:00 | 53.904888 | 6.309323 | 2.0 | 8.647 | 2 | 34.782 | 8.825 | 32.687 | 2 |
| 2025-04-26T00:29:00 | 53.903405 | 6.308163 | 2.0 | 8.632 | 2 | 34.787 | 8.814 | 32.702 | 2 |
| 2025-04-26T00:30:00 | 53.902862 | 6.305494 | 2.0 | 8.603 | 2 | 34.799 | 8.795 | 32.732 | 2 |
| 2025-04-26T00:31:00 | 53.902942 | 6.302607 | 2.0 | 8.599 | 2 | 34.737 | 8.771 | 32.690 | 2 |
| 2025-04-26T00:32:00 | 53.902999 | 6.299798 | 2.0 | 8.601 | 2 | 34.765 | 8.769 | 32.721 | 2 |
| 2025-04-26T00:33:00 | 53.902979 | 6.297005 | 2.0 | 8.609 | 2 | 34.751 | 8.772 | 32.703 | 2 |
| 2025-04-26T00:34:00 | 53.903034 | 6.294269 | 2.0 | 8.608 | 2 | 34.810 | 8.776 | 32.761 | 2 |
| 2025-04-26T00:35:00 | 53.903079 | 6.291613 | 2.0 | 8.606 | 2 | 34.796 | 8.778 | 32.745 | 2 |
| 2025-04-26T00:36:00 | 53.903094 | 6.289040 | 2.0 | 8.603 | 2 | 34.761 | 8.774 | 32.712 | 2 |
| 2025-04-26T00:37:00 | 53.903094 | 6.286512 | 2.0 | 8.608 | 2 | 34.814 | 8.771 | 32.770 | 2 |
| 2025-04-26T00:38:00 | 53.903077 | 6.284022 | 2.0 | 8.622 | 2 | 34.816 | 8.780 | 32.764 | 2 |
| 2025-04-26T00:39:00 | 53.903054 | 6.281542 | 2.0 | 8.610 | 2 | 34.778 | 8.785 | 32.720 | 2 |
| 2025-04-26T00:40:00 | 53.903019 | 6.279095 | 2.0 | 8.605 | 2 | 34.831 | 8.780 | 32.780 | 2 |
| 2025-04-26T00:41:00 | 53.903059 | 6.276657 | 2.0 | 8.618 | 2 | 34.838 | 8.775 | 32.792 | 2 |
| 2025-04-26T00:42:00 | 53.903090 | 6.274229 | 2.0 | 8.625 | 2 | 34.853 | 8.785 | 32.798 | 2 |
| 2025-04-26T00:43:00 | 53.903077 | 6.271824 | 2.0 | 8.630 | 2 | 34.865 | 8.795 | 32.801 | 2 |
| 2025-04-26T00:44:00 | 53.903045 | 6.269420 | 2.0 | 8.605 | 2 | 34.872 | 8.794 | 32.809 | 2 |
| 2025-04-26T00:45:00 | 53.903019 | 6.267015 | 2.0 | 8.564 | 2 | 34.864 | 8.768 | 32.825 | 2 |
| 2025-04-26T00:46:00 | 53.903011 | 6.264606 | 2.0 | 8.552 | 2 | 34.847 | 8.731 | 32.842 | 2 |
| 2025-04-26T00:47:00 | 53.903018 | 6.262205 | 2.0 | 8.518 | 2 | 34.839 | 8.717 | 32.846 | 2 |
| 2025-04-26T00:48:00 | 53.903021 | 6.259809 | 2.0 | 8.495 | 2 | 34.821 | 8.686 | 32.856 | 2 |
| 2025-04-26T00:49:00 | 53.902986 | 6.257431 | 2.0 | 8.475 | 2 | 34.801 | 8.663 | 32.857 | 2 |
| 2025-04-26T00:50:00 | 53.902977 | 6.255051 | 2.0 | 8.428 | 2 | 34.786 | 8.634 | 32.868 | 2 |
| 2025-04-26T00:51:00 | 53.902989 | 6.252681 | 2.0 | 8.412 | 2 | 34.758 | 8.599 | 32.871 | 2 |
| 2025-04-26T00:52:00 | 53.903011 | 6.250318 | 2.0 | 8.412 | 2 | 34.753 | 8.582 | 32.882 | 2 |
| 2025-04-26T00:53:00 | 53.903007 | 6.247960 | 2.0 | 8.408 | 2 | 34.789 | 8.583 | 32.919 | 2 |
| 2025-04-26T00:54:00 | 53.902971 | 6.245610 | 2.0 | 8.420 | 2 | 34.807 | 8.580 | 32.940 | 2 |
| 2025-04-26T00:55:00 | 53.902923 | 6.243262 | 2.0 | 8.416 | 2 | 34.775 | 8.588 | 32.899 | 2 |
| 2025-04-26T00:56:00 | 53.902889 | 6.240906 | 2.0 | 8.430 | 2 | 34.728 | 8.589 | 32.849 | 2 |
| 2025-04-26T00:57:00 | 53.902851 | 6.238565 | 2.0 | 8.431 | 2 | 34.855 | 8.599 | 32.973 | 2 |
| 2025-04-26T00:58:00 | 53.902837 | 6.236243 | 2.0 | 8.430 | 2 | 34.882 | 8.600 | 33.000 | 2 |
| 2025-04-26T00:59:00 | 53.902899 | 6.233953 | 2.0 | 8.434 | 2 | 34.881 | 8.600 | 32.999 | 2 |
| 2025-04-26T01:00:00 | 53.902972 | 6.231694 | 2.0 | 8.426 | 2 | 34.880 | 8.601 | 32.997 | 2 |
| 2025-04-26T01:01:00 | 53.902999 | 6.229440 | 2.0 | 8.422 | 2 | 34.871 | 8.595 | 32.994 | 2 |
| 2025-04-26T01:02:00 | 53.902992 | 6.227202 | 2.0 | 8.420 | 2 | 34.863 | 8.591 | 32.989 | 2 |
| 2025-04-26T01:03:00 | 53.902969 | 6.224991 | 2.0 | 8.419 | 2 | 34.857 | 8.589 | 32.984 | 2 |
| 2025-04-26T01:04:00 | 53.902967 | 6.222759 | 2.0 | 8.451 | 2 | 34.851 | 8.590 | 32.977 | 2 |
| 2025-04-26T01:05:00 | 53.902921 | 6.220516 | 2.0 | 8.522 | 2 | 34.841 | 8.631 | 32.928 | 2 |
| 2025-04-26T01:06:00 | 53.902852 | 6.218242 | 2.0 | 8.588 | 2 | 34.852 | 8.695 | 32.880 | 2 |
| 2025-04-26T01:07:00 | 53.902828 | 6.215950 | 2.0 | 8.629 | 2 | 34.875 | 8.756 | 32.848 | 2 |
| 2025-04-26T01:08:00 | 53.902874 | 6.213653 | 2.0 | 8.655 | 2 | 34.897 | 8.797 | 32.833 | 2 |
| 2025-04-26T01:09:00 | 53.902941 | 6.211369 | 2.0 | 8.671 | 2 | 34.916 | 8.822 | 32.830 | 2 |
| 2025-04-26T01:10:00 | 53.902969 | 6.209077 | 2.0 | 8.685 | 2 | 34.928 | 8.839 | 32.826 | 2 |
| 2025-04-26T01:11:00 | 53.902966 | 6.206768 | 2.0 | 8.703 | 2 | 34.939 | 8.854 | 32.824 | 2 |
| 2025-04-26T01:12:00 | 53.902940 | 6.204434 | 2.0 | 8.708 | 2 | 34.951 | 8.869 | 32.823 | 2 |
| 2025-04-26T01:13:00 | 53.902925 | 6.202096 | 2.0 | 8.710 | 2 | 34.953 | 8.874 | 32.820 | 2 |
| 2025-04-26T01:14:00 | 53.902952 | 6.199729 | 2.0 | 8.712 | 2 | 34.953 | 8.877 | 32.817 | 2 |
| 2025-04-26T01:15:00 | 53.903231 | 6.197260 | 2.0 | 8.716 | 2 | 34.952 | 8.877 | 32.816 | 2 |
| 2025-04-26T01:16:00 | 53.903488 | 6.194620 | 2.0 | 8.707 | 2 | 34.952 | 8.878 | 32.815 | 2 |
| 2025-04-26T01:17:00 | 53.902767 | 6.192393 | 2.0 | 8.701 | 2 | 34.944 | 8.871 | 32.813 | 2 |
| 2025-04-26T01:18:00 | 53.901592 | 6.192290 | 2.0 | 8.703 | 2 | 34.940 | 8.868 | 32.812 | 2 |
| 2025-04-26T01:19:00 | 53.901156 | 6.193834 | 2.0 | 8.701 | 2 | 34.941 | 8.868 | 32.813 | 2 |
| 2025-04-26T01:20:00 | 53.901000 | 6.195962 | 2.0 | 8.696 | 2 | 34.941 | 8.867 | 32.814 | 2 |
| 2025-04-26T01:21:00 | 53.900817 | 6.198227 | 2.0 | 8.695 | 2 | 34.940 | 8.864 | 32.816 | 2 |
| 2025-04-26T01:22:00 | 53.900611 | 6.200469 | 2.0 | 8.684 | 2 | 34.943 | 8.861 | 32.822 | 2 |
| 2025-04-26T01:23:00 | 53.900602 | 6.202690 | 2.0 | 8.676 | 2 | 34.938 | 8.848 | 32.828 | 2 |
| 2025-04-26T01:24:00 | 53.900613 | 6.204936 | 2.0 | 8.636 | 2 | 34.930 | 8.832 | 32.835 | 2 |
| 2025-04-26T01:25:00 | 53.900550 | 6.207211 | 2.0 | 8.577 | 2 | 34.906 | 8.788 | 32.851 | 2 |
| 2025-04-26T01:26:00 | 53.900542 | 6.209493 | 2.0 | 8.500 | 2 | 34.880 | 8.732 | 32.875 | 2 |
| 2025-04-26T01:27:00 | 53.900567 | 6.211764 | 2.0 | 8.430 | 2 | 34.860 | 8.663 | 32.919 | 2 |
| 2025-04-26T01:28:00 | 53.900565 | 6.214056 | 2.0 | 8.419 | 2 | 34.853 | 8.603 | 32.967 | 2 |
| 2025-04-26T01:29:00 | 53.900500 | 6.216341 | 2.0 | 8.419 | 2 | 34.855 | 8.590 | 32.981 | 2 |
| 2025-04-26T01:30:00 | 53.900465 | 6.218649 | 2.0 | 8.431 | 2 | 34.861 | 8.593 | 32.985 | 2 |
| 2025-04-26T01:31:00 | 53.900430 | 6.220970 | 2.0 | 8.428 | 2 | 34.877 | 8.600 | 32.995 | 2 |
| 2025-04-26T01:32:00 | 53.900486 | 6.223240 | 2.0 | 8.414 | 2 | 34.872 | 8.594 | 32.996 | 2 |
| 2025-04-26T01:33:00 | 53.900576 | 6.225468 | 2.0 | 8.403 | 2 | 34.832 | 8.582 | 32.965 | 2 |
| 2025-04-26T01:34:00 | 53.900577 | 6.227625 | 2.0 | 8.424 | 2 | 34.778 | 8.578 | 32.912 | 2 |
| 2025-04-26T01:35:00 | 53.900546 | 6.229729 | 2.0 | 8.459 | 2 | 34.773 | 8.600 | 32.886 | 2 |
| 2025-04-26T01:36:00 | 53.900554 | 6.231801 | 2.0 | 8.491 | 2 | 34.779 | 8.633 | 32.862 | 2 |
| 2025-04-26T01:37:00 | 53.900577 | 6.233880 | 2.0 | 8.517 | 2 | 34.785 | 8.663 | 32.840 | 2 |
| 2025-04-26T01:38:00 | 53.900583 | 6.235993 | 2.0 | 8.541 | 2 | 34.795 | 8.686 | 32.829 | 2 |
| 2025-04-26T01:39:00 | 53.900591 | 6.238127 | 2.0 | 8.581 | 2 | 34.797 | 8.713 | 32.806 | 2 |
| 2025-04-26T01:40:00 | 53.900572 | 6.240278 | 2.0 | 8.589 | 2 | 34.814 | 8.747 | 32.792 | 2 |
| 2025-04-26T01:41:00 | 53.900542 | 6.242447 | 2.0 | 8.606 | 2 | 34.818 | 8.760 | 32.785 | 2 |
| 2025-04-26T01:42:00 | 53.900537 | 6.244619 | 2.0 | 8.596 | 2 | 34.820 | 8.770 | 32.777 | 2 |
| 2025-04-26T01:43:00 | 53.900554 | 6.246801 | 2.0 | 8.615 | 2 | 34.812 | 8.768 | 32.771 | 2 |
| 2025-04-26T01:44:00 | 53.900570 | 6.248997 | 2.0 | 8.648 | 2 | 34.819 | 8.785 | 32.762 | 2 |
| 2025-04-26T01:45:00 | 53.900574 | 6.251205 | 2.0 | 8.651 | 2 | 34.827 | 8.816 | 32.742 | 2 |
| 2025-04-26T01:46:00 | 53.900571 | 6.253420 | 2.0 | 8.648 | 2 | 34.605 | 8.816 | 32.510 | 2 |
| 2025-04-26T01:47:00 | 53.900548 | 6.255632 | 2.0 | 8.656 | 2 | 34.820 | 8.818 | 32.733 | 2 |
| 2025-04-26T01:48:00 | 53.900529 | 6.257850 | 2.0 | 8.669 | 2 | 34.821 | 8.823 | 32.729 | 2 |
| 2025-04-26T01:49:00 | 53.900510 | 6.260066 | 2.0 | 8.692 | 2 | 34.819 | 8.841 | 32.711 | 2 |
| 2025-04-26T01:50:00 | 53.900531 | 6.262273 | 2.0 | 8.696 | 2 | 34.823 | 8.858 | 32.699 | 2 |
| 2025-04-26T01:51:00 | 53.900546 | 6.264489 | 2.0 | 8.705 | 2 | 34.814 | 8.865 | 32.683 | 2 |
| 2025-04-26T01:52:00 | 53.900535 | 6.266704 | 2.0 | 8.700 | 2 | 34.445 | 8.870 | 32.294 | 2 |
| 2025-04-26T01:53:00 | 53.900509 | 6.268899 | 2.0 | 8.744 | 2 | 34.811 | 8.872 | 32.674 | 2 |
| 2025-04-26T01:54:00 | 53.900528 | 6.271080 | 2.0 | 8.790 | 2 | 34.650 | 8.915 | 32.467 | 2 |
| 2025-04-26T01:55:00 | 53.900560 | 6.273254 | 2.0 | 8.830 | 2 | 34.419 | 8.959 | 32.187 | 2 |
| 2025-04-26T01:56:00 | 53.900585 | 6.275432 | 2.0 | 8.888 | 2 | 34.840 | 9.004 | 32.583 | 2 |
| 2025-04-26T01:57:00 | 53.900574 | 6.277603 | 2.0 | 8.896 | 2 | 34.841 | 9.055 | 32.537 | 2 |
| 2025-04-26T01:58:00 | 53.900559 | 6.279764 | 2.0 | 8.901 | 2 | 34.861 | 9.057 | 32.556 | 2 |
| 2025-04-26T01:59:00 | 53.900523 | 6.281931 | 2.0 | 8.938 | 2 | 34.707 | 9.072 | 32.383 | 2 |
| 2025-04-26T02:00:00 | 53.900514 | 6.284098 | 2.0 | 8.966 | 2 | 34.805 | 9.106 | 32.453 | 2 |
| 2025-04-26T02:01:00 | 53.900528 | 6.286281 | 2.0 | 8.965 | 2 | 34.511 | 9.127 | 32.130 | 2 |
| 2025-04-26T02:02:00 | 53.900540 | 6.288481 | 2.0 | 8.903 | 2 | 34.876 | 9.122 | 32.512 | 2 |
| 2025-04-26T02:03:00 | 53.900546 | 6.290705 | 2.0 | 8.956 | 2 | 34.898 | 9.068 | 32.584 | 2 |
| 2025-04-26T02:04:00 | 53.900547 | 6.292929 | 2.0 | 8.974 | 2 | 34.800 | 9.116 | 32.439 | 2 |
| 2025-04-26T02:05:00 | 53.900540 | 6.295155 | 2.0 | 8.894 | 2 | 34.746 | 9.116 | 32.383 | 2 |
| 2025-04-26T02:06:00 | 53.900540 | 6.297388 | 2.0 | 8.932 | 2 | 34.626 | 9.077 | 32.294 | 2 |
| 2025-04-26T02:07:00 | 53.900534 | 6.299619 | 2.0 | 8.920 | 2 | 34.857 | 9.087 | 32.524 | 2 |
| 2025-04-26T02:08:00 | 53.900196 | 6.301710 | 2.0 | 8.923 | 2 | 34.649 | 9.094 | 32.303 | 2 |
| 2025-04-26T02:09:00 | 53.899455 | 6.303561 | 2.0 | 8.952 | 2 | 34.759 | 9.083 | 32.426 | 2 |
| 2025-04-26T02:10:00 | 53.899190 | 6.305542 | 2.0 | 8.988 | 2 | 34.720 | 9.126 | 32.347 | 2 |
| 2025-04-26T02:11:00 | 53.899865 | 6.307022 | 2.0 | 9.037 | 2 | 34.717 | 9.162 | 32.311 | 2 |
| 2025-04-26T02:12:00 | 53.901047 | 6.307241 | 2.0 | 9.067 | 2 | 34.847 | 9.204 | 32.407 | 2 |
| 2025-04-26T02:13:00 | 53.902126 | 6.305811 | 2.0 | 9.067 | 2 | 34.827 | 9.230 | 32.363 | 2 |
| 2025-04-26T02:14:00 | 53.902336 | 6.303549 | 2.0 | 9.060 | 2 | 34.795 | 9.228 | 32.332 | 2 |
| 2025-04-26T02:15:00 | 53.902226 | 6.301281 | 2.0 | 9.014 | 2 | 34.757 | 9.220 | 32.300 | 2 |
| 2025-04-26T02:16:00 | 53.902248 | 6.298916 | 2.0 | 9.003 | 2 | 34.774 | 9.172 | 32.361 | 2 |
| 2025-04-26T02:17:00 | 53.902246 | 6.296538 | 2.0 | 8.976 | 2 | 34.728 | 9.159 | 32.325 | 2 |
| 2025-04-26T02:18:00 | 53.902225 | 6.294176 | 2.0 | 8.935 | 2 | 34.798 | 9.130 | 32.424 | 2 |
| 2025-04-26T02:19:00 | 53.902204 | 6.291824 | 2.0 | 8.899 | 2 | 34.733 | 9.095 | 32.389 | 2 |
| 2025-04-26T02:20:00 | 53.902187 | 6.289483 | 2.0 | 8.864 | 2 | 34.706 | 9.057 | 32.395 | 2 |
| 2025-04-26T02:21:00 | 53.902161 | 6.287181 | 2.0 | 8.918 | 2 | 34.715 | 9.059 | 32.403 | 2 |
| 2025-04-26T02:22:00 | 53.902162 | 6.284885 | 2.0 | 8.919 | 2 | 34.646 | 9.074 | 32.318 | 2 |
| 2025-04-26T02:23:00 | 53.902168 | 6.282605 | 2.0 | 8.901 | 2 | 34.784 | 9.077 | 32.458 | 2 |
| 2025-04-26T02:24:00 | 53.902181 | 6.280339 | 2.0 | 8.884 | 2 | 34.804 | 9.065 | 32.490 | 2 |
| 2025-04-26T02:25:00 | 53.902183 | 6.278111 | 2.0 | 8.857 | 2 | 34.700 | 9.050 | 32.395 | 2 |
| 2025-04-26T02:26:00 | 53.902200 | 6.275892 | 2.0 | 8.856 | 2 | 34.775 | 9.035 | 32.487 | 2 |
| 2025-04-26T02:27:00 | 53.902214 | 6.273684 | 2.0 | 8.782 | 2 | 34.730 | 9.012 | 32.461 | 2 |
| 2025-04-26T02:28:00 | 53.902218 | 6.271478 | 2.0 | 8.813 | 2 | 34.779 | 8.951 | 32.568 | 2 |
| 2025-04-26T02:29:00 | 53.902211 | 6.269278 | 2.0 | 8.857 | 2 | 34.788 | 8.994 | 32.538 | 2 |
| 2025-04-26T02:30:00 | 53.902192 | 6.267074 | 2.0 | 8.876 | 2 | 34.803 | 9.025 | 32.525 | 2 |
| 2025-04-26T02:31:00 | 53.902173 | 6.264868 | 2.0 | 8.816 | 2 | 34.828 | 9.024 | 32.552 | 2 |
| 2025-04-26T02:32:00 | 53.902172 | 6.262668 | 2.0 | 8.822 | 2 | 34.757 | 8.992 | 32.507 | 2 |
| 2025-04-26T02:33:00 | 53.902189 | 6.260457 | 2.0 | 8.845 | 2 | 34.790 | 8.997 | 32.537 | 2 |
| 2025-04-26T02:34:00 | 53.902203 | 6.258237 | 2.0 | 8.874 | 2 | 34.795 | 9.021 | 32.520 | 2 |
| 2025-04-26T02:35:00 | 53.902230 | 6.256014 | 2.0 | 8.885 | 2 | 34.809 | 9.040 | 32.518 | 2 |
| 2025-04-26T02:36:00 | 53.902245 | 6.253797 | 2.0 | 8.879 | 2 | 34.794 | 9.049 | 32.494 | 2 |
| 2025-04-26T02:37:00 | 53.902256 | 6.251586 | 2.0 | 8.857 | 2 | 34.798 | 9.043 | 32.503 | 2 |
| 2025-04-26T02:38:00 | 53.902259 | 6.249384 | 2.0 | 8.863 | 2 | 34.811 | 9.025 | 32.533 | 2 |
| 2025-04-26T02:39:00 | 53.902247 | 6.247189 | 2.0 | 8.849 | 2 | 34.821 | 9.024 | 32.545 | 2 |
| 2025-04-26T02:40:00 | 53.902251 | 6.245003 | 2.0 | 8.817 | 2 | 34.836 | 9.011 | 32.572 | 2 |
| 2025-04-26T02:41:00 | 53.902254 | 6.242833 | 2.0 | 8.789 | 2 | 34.825 | 8.979 | 32.590 | 2 |
| 2025-04-26T02:42:00 | 53.902271 | 6.240663 | 2.0 | 8.745 | 2 | 34.811 | 8.951 | 32.601 | 2 |
| 2025-04-26T02:43:00 | 53.902273 | 6.238518 | 2.0 | 8.695 | 2 | 34.781 | 8.905 | 32.612 | 2 |
| 2025-04-26T02:44:00 | 53.902275 | 6.236375 | 2.0 | 8.672 | 2 | 34.781 | 8.859 | 32.654 | 2 |
| 2025-04-26T02:45:00 | 53.902246 | 6.234241 | 2.0 | 8.686 | 2 | 34.776 | 8.847 | 32.660 | 2 |
| 2025-04-26T02:46:00 | 53.902216 | 6.232126 | 2.0 | 8.692 | 2 | 34.803 | 8.854 | 32.682 | 2 |
| 2025-04-26T02:47:00 | 53.902206 | 6.230016 | 2.0 | 8.664 | 2 | 34.802 | 8.854 | 32.681 | 2 |
| 2025-04-26T02:48:00 | 53.902220 | 6.227935 | 2.0 | 8.670 | 2 | 34.802 | 8.837 | 32.697 | 2 |
| 2025-04-26T02:49:00 | 53.902218 | 6.225886 | 2.0 | 8.673 | 2 | 34.804 | 8.839 | 32.697 | 2 |
| 2025-04-26T02:50:00 | 53.902256 | 6.223840 | 2.0 | 8.638 | 2 | 34.800 | 8.831 | 32.700 | 2 |
| 2025-04-26T02:51:00 | 53.902285 | 6.221799 | 2.0 | 8.633 | 2 | 34.805 | 8.809 | 32.726 | 2 |
| 2025-04-26T02:52:00 | 53.902270 | 6.219792 | 2.0 | 8.631 | 2 | 34.800 | 8.801 | 32.728 | 2 |
| 2025-04-26T02:53:00 | 53.902241 | 6.217785 | 2.0 | 8.621 | 2 | 34.800 | 8.797 | 32.731 | 2 |
| 2025-04-26T02:54:00 | 53.902188 | 6.215803 | 2.0 | 8.613 | 2 | 34.801 | 8.790 | 32.739 | 2 |
| 2025-04-26T02:55:00 | 53.902153 | 6.213819 | 2.0 | 8.611 | 2 | 34.808 | 8.782 | 32.754 | 2 |
| 2025-04-26T02:56:00 | 53.902144 | 6.211850 | 2.0 | 8.605 | 2 | 34.805 | 8.777 | 32.755 | 2 |
| 2025-04-26T02:57:00 | 53.902184 | 6.209879 | 2.0 | 8.591 | 2 | 34.797 | 8.771 | 32.752 | 2 |
| 2025-04-26T02:58:00 | 53.902201 | 6.207914 | 2.0 | 8.571 | 2 | 34.789 | 8.757 | 32.757 | 2 |
| 2025-04-26T02:59:00 | 53.902193 | 6.205935 | 2.0 | 8.556 | 2 | 34.787 | 8.737 | 32.773 | 2 |
| 2025-04-26T03:00:00 | 53.902191 | 6.203883 | 2.0 | 8.532 | 2 | 34.778 | 8.719 | 32.781 | 2 |
| 2025-04-26T03:01:00 | 53.902180 | 6.201769 | 2.0 | 8.512 | 2 | 34.776 | 8.699 | 32.797 | 2 |
| 2025-04-26T03:02:00 | 53.902254 | 6.199618 | 2.0 | 8.500 | 2 | 34.774 | 8.681 | 32.812 | 2 |
| 2025-04-26T03:03:00 | 53.902657 | 6.197658 | 2.0 | 8.491 | 2 | 34.786 | 8.668 | 32.836 | 2 |
| 2025-04-26T03:04:00 | 53.902833 | 6.195703 | 2.0 | 8.483 | 2 | 34.783 | 8.657 | 32.843 | 2 |
| 2025-04-26T03:05:00 | 53.902410 | 6.194066 | 2.0 | 8.457 | 2 | 34.783 | 8.646 | 32.854 | 2 |
| 2025-04-26T03:06:00 | 53.901515 | 6.193317 | 2.0 | 8.434 | 2 | 34.790 | 8.620 | 32.885 | 2 |
| 2025-04-26T03:07:00 | 53.900595 | 6.193783 | 2.0 | 8.433 | 2 | 34.791 | 8.601 | 32.904 | 2 |
| 2025-04-26T03:08:00 | 53.900113 | 6.195209 | 2.0 | 8.446 | 2 | 34.795 | 8.604 | 32.905 | 2 |
| 2025-04-26T03:09:00 | 53.900036 | 6.197112 | 2.0 | 8.482 | 2 | 34.783 | 8.617 | 32.881 | 2 |
| 2025-04-26T03:10:00 | 53.899844 | 6.199227 | 2.0 | 8.488 | 2 | 34.779 | 8.651 | 32.845 | 2 |
| 2025-04-26T03:11:00 | 53.899856 | 6.201417 | 2.0 | 8.495 | 2 | 34.774 | 8.655 | 32.836 | 2 |
| 2025-04-26T03:12:00 | 53.899818 | 6.203649 | 2.0 | 8.516 | 2 | 34.763 | 8.667 | 32.813 | 2 |
| 2025-04-26T03:13:00 | 53.899727 | 6.205893 | 2.0 | 8.530 | 2 | 34.768 | 8.685 | 32.802 | 2 |
| 2025-04-26T03:14:00 | 53.899744 | 6.208142 | 2.0 | 8.582 | 2 | 34.733 | 8.702 | 32.749 | 2 |
| 2025-04-26T03:15:00 | 53.899781 | 6.210408 | 2.0 | 8.628 | 2 | 34.783 | 8.758 | 32.750 | 2 |
| 2025-04-26T03:16:00 | 53.899738 | 6.212666 | 2.0 | 8.624 | 2 | 34.781 | 8.790 | 32.718 | 2 |
| 2025-04-26T03:17:00 | 53.899724 | 6.214952 | 2.0 | 8.646 | 2 | 34.795 | 8.789 | 32.734 | 2 |
| 2025-04-26T03:18:00 | 53.899735 | 6.217259 | 2.0 | 8.695 | 2 | 34.777 | 8.825 | 32.682 | 2 |
| 2025-04-26T03:19:00 | 53.899748 | 6.219553 | 2.0 | 8.689 | 2 | 34.803 | 8.858 | 32.678 | 2 |
| 2025-04-26T03:20:00 | 53.899740 | 6.221811 | 2.0 | 8.704 | 2 | 34.803 | 8.859 | 32.677 | 2 |
| 2025-04-26T03:21:00 | 53.899727 | 6.224065 | 2.0 | 8.716 | 2 | 34.802 | 8.869 | 32.667 | 2 |
| 2025-04-26T03:22:00 | 53.899723 | 6.226319 | 2.0 | 8.768 | 2 | 34.795 | 8.889 | 32.641 | 2 |
| 2025-04-26T03:23:00 | 53.899739 | 6.228569 | 2.0 | 8.825 | 2 | 34.782 | 8.942 | 32.579 | 2 |
| 2025-04-26T03:24:00 | 53.899759 | 6.230798 | 2.0 | 8.857 | 2 | 34.785 | 8.992 | 32.537 | 2 |
| 2025-04-26T03:25:00 | 53.899757 | 6.233044 | 2.0 | 8.884 | 2 | 34.788 | 9.026 | 32.509 | 2 |
| 2025-04-26T03:26:00 | 53.899727 | 6.235297 | 2.0 | 8.892 | 2 | 34.794 | 9.048 | 32.495 | 2 |
| 2025-04-26T03:27:00 | 53.899707 | 6.237556 | 2.0 | 8.922 | 2 | 34.803 | 9.059 | 32.494 | 2 |
| 2025-04-26T03:28:00 | 53.899723 | 6.239808 | 2.0 | 8.948 | 2 | 34.817 | 9.090 | 32.480 | 2 |
| 2025-04-26T03:29:00 | 53.899765 | 6.242074 | 2.0 | 8.955 | 2 | 34.829 | 9.115 | 32.470 | 2 |
| 2025-04-26T03:30:00 | 53.899805 | 6.244352 | 2.0 | 8.958 | 2 | 34.823 | 9.116 | 32.463 | 2 |
| 2025-04-26T03:31:00 | 53.899818 | 6.246650 | 2.0 | 8.965 | 2 | 34.835 | 9.123 | 32.469 | 2 |
| 2025-04-26T03:32:00 | 53.899823 | 6.248950 | 2.0 | 8.954 | 2 | 34.838 | 9.129 | 32.466 | 2 |
| 2025-04-26T03:33:00 | 53.899835 | 6.251254 | 2.0 | 8.934 | 2 | 34.830 | 9.112 | 32.474 | 2 |
| 2025-04-26T03:34:00 | 53.899844 | 6.253573 | 2.0 | 8.917 | 2 | 34.819 | 9.096 | 32.477 | 2 |
| 2025-04-26T03:35:00 | 53.899831 | 6.255880 | 2.0 | 8.935 | 2 | 34.802 | 9.090 | 32.465 | 2 |
| 2025-04-26T03:36:00 | 53.899796 | 6.258155 | 2.0 | 8.922 | 2 | 34.811 | 9.097 | 32.468 | 2 |
| 2025-04-26T03:37:00 | 53.899780 | 6.260413 | 2.0 | 8.883 | 2 | 34.797 | 9.080 | 32.469 | 2 |
| 2025-04-26T03:38:00 | 53.899783 | 6.262646 | 2.0 | 8.875 | 2 | 34.774 | 9.051 | 32.471 | 2 |
| 2025-04-26T03:39:00 | 53.899798 | 6.264848 | 2.0 | 8.945 | 2 | 34.771 | 9.044 | 32.474 | 2 |
| 2025-04-26T03:40:00 | 53.899823 | 6.267051 | 2.0 | 8.997 | 2 | 34.776 | 9.121 | 32.410 | 2 |
| 2025-04-26T03:41:00 | 53.899831 | 6.269232 | 2.0 | 9.021 | 2 | 34.793 | 9.164 | 32.388 | 2 |
| 2025-04-26T03:42:00 | 53.899815 | 6.271410 | 2.0 | 9.060 | 2 | 34.800 | 9.191 | 32.371 | 2 |
| 2025-04-26T03:43:00 | 53.899786 | 6.273601 | 2.0 | 9.067 | 2 | 34.793 | 9.222 | 32.335 | 2 |
| 2025-04-26T03:44:00 | 53.899781 | 6.275783 | 2.0 | 9.085 | 2 | 34.787 | 9.233 | 32.319 | 2 |
| 2025-04-26T03:45:00 | 53.899797 | 6.277973 | 2.0 | 9.088 | 2 | 34.795 | 9.245 | 32.317 | 2 |
| 2025-04-26T03:46:00 | 53.899819 | 6.280172 | 2.0 | 9.099 | 2 | 34.781 | 9.250 | 32.298 | 2 |
| 2025-04-26T03:47:00 | 53.899836 | 6.282361 | 2.0 | 9.114 | 2 | 34.767 | 9.264 | 32.271 | 2 |
| 2025-04-26T03:48:00 | 53.899832 | 6.284548 | 2.0 | 9.098 | 2 | 34.747 | 9.275 | 32.240 | 2 |
| 2025-04-26T03:49:00 | 53.899826 | 6.286722 | 2.0 | 9.099 | 2 | 34.715 | 9.262 | 32.219 | 2 |
| 2025-04-26T03:50:00 | 53.899835 | 6.288900 | 2.0 | 9.086 | 2 | 34.717 | 9.262 | 32.221 | 2 |
| 2025-04-26T03:51:00 | 53.899832 | 6.291084 | 2.0 | 9.041 | 2 | 34.729 | 9.240 | 32.253 | 2 |
| 2025-04-26T03:52:00 | 53.899831 | 6.293248 | 2.0 | 9.000 | 2 | 34.722 | 9.200 | 32.282 | 2 |
| 2025-04-26T03:53:00 | 53.899845 | 6.295432 | 2.0 | 8.988 | 2 | 34.710 | 9.166 | 32.300 | 2 |
| 2025-04-26T03:54:00 | 53.899849 | 6.297633 | 2.0 | 8.969 | 2 | 34.717 | 9.150 | 32.322 | 2 |
| 2025-04-26T03:55:00 | 53.899848 | 6.299831 | 2.0 | 8.928 | 2 | 34.721 | 9.130 | 32.344 | 2 |
| 2025-04-26T03:56:00 | 53.899551 | 6.301913 | 2.0 | 8.921 | 2 | 34.707 | 9.096 | 32.361 | 2 |
| 2025-04-26T03:57:00 | 53.898849 | 6.303718 | 2.0 | 8.945 | 2 | 34.694 | 9.093 | 32.350 | 2 |
| 2025-04-26T03:58:00 | 53.898280 | 6.305627 | 2.0 | 8.931 | 2 | 34.697 | 9.103 | 32.344 | 2 |
| 2025-04-26T03:59:00 | 53.898459 | 6.307527 | 2.0 | 8.931 | 2 | 34.692 | 9.099 | 32.343 | 2 |
| 2025-04-26T04:00:00 | 53.899342 | 6.308704 | 2.0 | 8.915 | 2 | 34.679 | 9.094 | 32.334 | 2 |
| 2025-04-26T04:01:00 | 53.900502 | 6.308601 | 2.0 | 8.886 | 2 | 34.684 | 9.069 | 32.362 | 2 |
| 2025-04-26T04:02:00 | 53.901231 | 6.307283 | 2.0 | 8.907 | 2 | 34.695 | 9.057 | 32.384 | 2 |
| 2025-04-26T04:03:00 | 53.901371 | 6.305515 | 2.0 | 8.917 | 2 | 34.703 | 9.075 | 32.376 | 2 |
| 2025-04-26T04:04:00 | 53.901356 | 6.303442 | 2.0 | 8.919 | 2 | 34.696 | 9.084 | 32.360 | 2 |
| 2025-04-26T04:05:00 | 53.901390 | 6.301180 | 2.0 | 8.935 | 2 | 34.700 | 9.087 | 32.362 | 2 |
| 2025-04-26T04:06:00 | 53.901429 | 6.298905 | 2.0 | 8.937 | 2 | 34.711 | 9.100 | 32.361 | 2 |
| 2025-04-26T04:07:00 | 53.901414 | 6.296633 | 2.0 | 8.967 | 2 | 34.710 | 9.107 | 32.354 | 2 |
| 2025-04-26T04:08:00 | 53.901402 | 6.294403 | 2.0 | 8.994 | 2 | 34.732 | 9.140 | 32.347 | 2 |
| 2025-04-26T04:09:00 | 53.901409 | 6.292200 | 2.0 | 9.009 | 2 | 34.736 | 9.158 | 32.335 | 2 |
| 2025-04-26T04:10:00 | 53.901412 | 6.290002 | 2.0 | 9.037 | 2 | 34.730 | 9.179 | 32.309 | 2 |
| 2025-04-26T04:11:00 | 53.901427 | 6.287813 | 2.0 | 9.073 | 2 | 34.749 | 9.208 | 32.303 | 2 |
| 2025-04-26T04:12:00 | 53.901434 | 6.285633 | 2.0 | 9.084 | 2 | 34.745 | 9.237 | 32.272 | 2 |
| 2025-04-26T04:13:00 | 53.901419 | 6.283456 | 2.0 | 9.078 | 2 | 34.739 | 9.248 | 32.256 | 2 |
| 2025-04-26T04:14:00 | 53.901392 | 6.281285 | 2.0 | 9.086 | 2 | 34.728 | 9.242 | 32.250 | 2 |
| 2025-04-26T04:15:00 | 53.901373 | 6.279102 | 2.0 | 9.083 | 2 | 34.739 | 9.249 | 32.255 | 2 |
| 2025-04-26T04:16:00 | 53.901377 | 6.276926 | 2.0 | 9.079 | 2 | 34.759 | 9.247 | 32.278 | 2 |
| 2025-04-26T04:17:00 | 53.901388 | 6.274749 | 2.0 | 9.078 | 2 | 34.771 | 9.244 | 32.293 | 2 |
| 2025-04-26T04:18:00 | 53.901397 | 6.272572 | 2.0 | 9.064 | 2 | 34.777 | 9.240 | 32.303 | 2 |
| 2025-04-26T04:19:00 | 53.901394 | 6.270426 | 2.0 | 9.049 | 2 | 34.783 | 9.231 | 32.317 | 2 |
| 2025-04-26T04:20:00 | 53.901391 | 6.268283 | 2.0 | 9.012 | 2 | 34.779 | 9.207 | 32.335 | 2 |
| 2025-04-26T04:21:00 | 53.901409 | 6.266138 | 2.0 | 8.977 | 2 | 34.782 | 9.170 | 32.371 | 2 |
| 2025-04-26T04:22:00 | 53.901433 | 6.263992 | 2.0 | 8.956 | 2 | 34.782 | 9.142 | 32.397 | 2 |
| 2025-04-26T04:23:00 | 53.901429 | 6.261867 | 2.0 | 8.905 | 2 | 34.773 | 9.116 | 32.411 | 2 |
| 2025-04-26T04:24:00 | 53.901422 | 6.259739 | 2.0 | 8.870 | 2 | 34.753 | 9.065 | 32.437 | 2 |
| 2025-04-26T04:25:00 | 53.901386 | 6.257622 | 2.0 | 8.891 | 2 | 34.754 | 9.047 | 32.454 | 2 |
| 2025-04-26T04:26:00 | 53.901384 | 6.255508 | 2.0 | 8.893 | 2 | 34.755 | 9.059 | 32.444 | 2 |
| 2025-04-26T04:27:00 | 53.901395 | 6.253422 | 2.0 | 8.909 | 2 | 34.758 | 9.062 | 32.445 | 2 |
| 2025-04-26T04:28:00 | 53.901418 | 6.251355 | 2.0 | 8.911 | 2 | 34.783 | 9.075 | 32.459 | 2 |
| 2025-04-26T04:29:00 | 53.901417 | 6.249312 | 2.0 | 8.903 | 2 | 34.785 | 9.077 | 32.459 | 2 |
| 2025-04-26T04:30:00 | 53.901401 | 6.247287 | 2.0 | 8.901 | 2 | 34.790 | 9.070 | 32.470 | 2 |
| 2025-04-26T04:31:00 | 53.901387 | 6.245264 | 2.0 | 8.894 | 2 | 34.786 | 9.068 | 32.468 | 2 |
| 2025-04-26T04:32:00 | 53.901395 | 6.243249 | 2.0 | 8.891 | 2 | 34.777 | 9.060 | 32.466 | 2 |
| 2025-04-26T04:33:00 | 53.901392 | 6.241238 | 2.0 | 8.901 | 2 | 34.785 | 9.059 | 32.475 | 2 |
| 2025-04-26T04:34:00 | 53.901386 | 6.239236 | 2.0 | 8.902 | 2 | 34.802 | 9.067 | 32.486 | 2 |
| 2025-04-26T04:35:00 | 53.901396 | 6.237257 | 2.0 | 8.892 | 2 | 34.784 | 9.066 | 32.468 | 2 |
| 2025-04-26T04:36:00 | 53.901424 | 6.235275 | 2.0 | 8.863 | 2 | 34.781 | 9.054 | 32.476 | 2 |
| 2025-04-26T04:37:00 | 53.901456 | 6.233290 | 2.0 | 8.834 | 2 | 34.780 | 9.027 | 32.499 | 2 |
| 2025-04-26T04:38:00 | 53.901450 | 6.231312 | 2.0 | 8.788 | 2 | 34.767 | 8.996 | 32.514 | 2 |
| 2025-04-26T04:39:00 | 53.901428 | 6.229341 | 2.0 | 8.738 | 2 | 34.770 | 8.949 | 32.560 | 2 |
| 2025-04-26T04:40:00 | 53.901402 | 6.227371 | 2.0 | 8.709 | 2 | 34.775 | 8.902 | 32.609 | 2 |
| 2025-04-26T04:41:00 | 53.901406 | 6.225399 | 2.0 | 8.686 | 2 | 34.785 | 8.876 | 32.643 | 2 |
| 2025-04-26T04:42:00 | 53.901421 | 6.223432 | 2.0 | 8.665 | 2 | 34.779 | 8.852 | 32.659 | 2 |
| 2025-04-26T04:43:00 | 53.901416 | 6.221478 | 2.0 | 8.637 | 2 | 34.780 | 8.830 | 32.680 | 2 |
| 2025-04-26T04:44:00 | 53.901415 | 6.219532 | 2.0 | 8.581 | 2 | 34.773 | 8.800 | 32.701 | 2 |
| 2025-04-26T04:45:00 | 53.901394 | 6.217569 | 2.0 | 8.541 | 2 | 34.759 | 8.741 | 32.740 | 2 |
| 2025-04-26T04:46:00 | 53.901367 | 6.215642 | 2.0 | 8.533 | 2 | 34.763 | 8.710 | 32.773 | 2 |
| 2025-04-26T04:47:00 | 53.901347 | 6.213764 | 2.0 | 8.538 | 2 | 34.765 | 8.705 | 32.780 | 2 |
| 2025-04-26T04:48:00 | 53.901328 | 6.211876 | 2.0 | 8.531 | 2 | 34.770 | 8.705 | 32.785 | 2 |
| 2025-04-26T04:49:00 | 53.901323 | 6.209941 | 2.0 | 8.513 | 2 | 34.762 | 8.695 | 32.786 | 2 |
| 2025-04-26T04:50:00 | 53.901294 | 6.208002 | 2.0 | 8.483 | 2 | 34.752 | 8.680 | 32.790 | 2 |
| 2025-04-26T04:51:00 | 53.901258 | 6.206049 | 2.0 | 8.454 | 2 | 34.747 | 8.648 | 32.814 | 2 |
| 2025-04-26T04:52:00 | 53.901226 | 6.204087 | 2.0 | 8.425 | 2 | 34.773 | 8.621 | 32.866 | 2 |
| 2025-04-26T04:53:00 | 53.901240 | 6.202103 | 2.0 | 8.405 | 2 | 34.771 | 8.589 | 32.894 | 2 |
| 2025-04-26T04:54:00 | 53.901271 | 6.200144 | 2.0 | 8.412 | 2 | 34.794 | 8.579 | 32.928 | 2 |
| 2025-04-26T04:55:00 | 53.901592 | 6.198309 | 2.0 | 8.398 | 2 | 34.808 | 8.580 | 32.941 | 2 |
| 2025-04-26T04:56:00 | 53.902009 | 6.196791 | 2.0 | 8.384 | 2 | 34.806 | 8.568 | 32.950 | 2 |
| 2025-04-26T04:57:00 | 53.902496 | 6.195699 | 2.0 | 8.368 | 2 | 34.803 | 8.552 | 32.962 | 2 |
| 2025-04-26T04:58:00 | 53.903020 | 6.195126 | 2.0 | 8.359 | 2 | 34.805 | 8.537 | 32.978 | 2 |
| 2025-04-26T04:59:00 | 53.903504 | 6.194895 | 2.0 | 8.358 | 2 | 34.815 | 8.529 | 32.996 | 2 |
| 2025-04-26T05:00:00 | 53.903892 | 6.194806 | 2.0 | 8.352 | 2 | 34.825 | 8.527 | 33.009 | 2 |
| 2025-04-26T05:01:00 | 53.904192 | 6.194767 | 2.0 | 8.351 | 2 | 34.821 | 8.521 | 33.010 | 2 |
| 2025-04-26T05:02:00 | 53.904420 | 6.194776 | 2.0 | 8.350 | 2 | 34.821 | 8.520 | 33.011 | 2 |
| 2025-04-26T05:03:00 | 53.904614 | 6.194832 | 2.0 | 8.348 | 2 | 34.819 | 8.519 | 33.010 | 2 |
| 2025-04-26T05:04:00 | 53.904759 | 6.194865 | 2.0 | 8.354 | 2 | 34.816 | 8.518 | 33.008 | 2 |
| 2025-04-26T05:05:00 | 53.904826 | 6.194819 | 2.0 | 8.356 | 2 | 34.822 | 8.525 | 33.007 | 2 |
| 2025-04-26T05:06:00 | 53.904829 | 6.194719 | 2.0 | 8.348 | 2 | 34.818 | 8.522 | 33.006 | 2 |
| 2025-04-26T05:07:00 | 53.904840 | 6.194597 | 2.0 | 8.350 | 2 | 34.808 | 8.519 | 32.998 | 2 |
| 2025-04-26T05:08:00 | 53.904854 | 6.194480 | 2.0 | 8.352 | 2 | 34.800 | 8.519 | 32.990 | 2 |
| 2025-04-26T05:09:00 | 53.904871 | 6.194363 | 2.0 | 8.352 | 2 | 34.807 | 8.521 | 32.995 | 2 |
| 2025-04-26T05:10:00 | 53.904891 | 6.194240 | 2.0 | 8.352 | 2 | 34.810 | 8.522 | 32.998 | 2 |
| 2025-04-26T05:11:00 | 53.904914 | 6.194118 | 2.0 | 8.351 | 2 | 34.808 | 8.520 | 32.997 | 2 |
| 2025-04-26T05:12:00 | 53.904944 | 6.193986 | 2.0 | 8.351 | 2 | 34.807 | 8.521 | 32.995 | 2 |
| 2025-04-26T05:13:00 | 53.904972 | 6.193840 | 2.0 | 8.350 | 2 | 34.808 | 8.520 | 32.997 | 2 |
| 2025-04-26T05:14:00 | 53.904995 | 6.193688 | 2.0 | 8.351 | 2 | 34.808 | 8.518 | 32.999 | 2 |
| 2025-04-26T05:15:00 | 53.905027 | 6.193538 | 2.0 | 8.349 | 2 | 34.809 | 8.520 | 32.998 | 2 |
| 2025-04-26T05:16:00 | 53.905055 | 6.193401 | 2.0 | 8.347 | 2 | 34.805 | 8.518 | 32.996 | 2 |
| 2025-04-26T05:17:00 | 53.905084 | 6.193264 | 2.0 | 8.347 | 2 | 34.801 | 8.513 | 32.997 | 2 |
| 2025-04-26T05:18:00 | 53.905107 | 6.193128 | 2.0 | 8.353 | 2 | 34.804 | 8.516 | 32.997 | 2 |
| 2025-04-26T05:19:00 | 53.905139 | 6.192981 | 2.0 | 8.351 | 2 | 34.807 | 8.519 | 32.997 | 2 |
| 2025-04-26T05:20:00 | 53.905170 | 6.192833 | 2.0 | 8.352 | 2 | 34.801 | 8.518 | 32.992 | 2 |
| 2025-04-26T05:21:00 | 53.905195 | 6.192708 | 2.0 | 8.354 | 2 | 34.800 | 8.521 | 32.988 | 2 |
| 2025-04-26T05:22:00 | 53.905201 | 6.192651 | 2.0 | 8.353 | 2 | 34.801 | 8.523 | 32.987 | 2 |
| 2025-04-26T05:23:00 | 53.905214 | 6.192683 | 2.0 | 8.349 | 2 | 34.801 | 8.521 | 32.989 | 2 |
| 2025-04-26T05:24:00 | 53.905231 | 6.192807 | 2.0 | 8.352 | 2 | 34.799 | 8.518 | 32.990 | 2 |
| 2025-04-26T05:25:00 | 53.905409 | 6.192949 | 2.0 | 8.354 | 2 | 34.801 | 8.520 | 32.990 | 2 |
| 2025-04-26T05:26:00 | 53.905943 | 6.193715 | 2.0 | 8.352 | 2 | 34.804 | 8.521 | 32.992 | 2 |
| 2025-04-26T05:27:00 | 53.906988 | 6.195039 | 2.0 | 8.347 | 2 | 34.806 | 8.519 | 32.996 | 2 |
| 2025-04-26T05:28:00 | 53.908433 | 6.196725 | 2.0 | 8.345 | 2 | 34.808 | 8.516 | 33.001 | 2 |
| 2025-04-26T05:29:00 | 53.910438 | 6.199049 | 2.0 | 8.349 | 2 | 34.807 | 8.514 | 33.002 | 2 |
| 2025-04-26T05:30:00 | 53.912597 | 6.202045 | 2.0 | 8.358 | 2 | 34.820 | 8.521 | 33.009 | 2 |
| 2025-04-26T05:31:00 | 53.914733 | 6.205376 | 2.0 | 8.388 | 2 | 34.825 | 8.531 | 33.005 | 2 |
| 2025-04-26T05:32:00 | 53.916860 | 6.208849 | 2.0 | 8.429 | 2 | 34.781 | 8.565 | 32.927 | 2 |
| 2025-04-26T05:33:00 | 53.919033 | 6.212385 | 2.0 | 8.463 | 2 | 34.784 | 8.603 | 32.895 | 2 |
| 2025-04-26T05:34:00 | 53.921205 | 6.215924 | 2.0 | 8.516 | 2 | 34.782 | 8.639 | 32.859 | 2 |
| 2025-04-26T05:35:00 | 53.923250 | 6.219712 | 2.0 | 8.537 | 2 | 34.788 | 8.689 | 32.819 | 2 |
| 2025-04-26T05:36:00 | 53.925288 | 6.223584 | 2.0 | 8.511 | 2 | 34.784 | 8.698 | 32.806 | 2 |
| 2025-04-26T05:37:00 | 53.927269 | 6.227565 | 2.0 | 8.547 | 2 | 34.751 | 8.687 | 32.782 | 2 |
| 2025-04-26T05:38:00 | 53.929150 | 6.231728 | 2.0 | 8.560 | 2 | 34.750 | 8.715 | 32.755 | 2 |
| 2025-04-26T05:39:00 | 53.931018 | 6.235915 | 2.0 | 8.571 | 2 | 34.759 | 8.726 | 32.754 | 2 |
| 2025-04-26T05:40:00 | 53.932872 | 6.240094 | 2.0 | 8.589 | 2 | 34.790 | 8.749 | 32.765 | 2 |
| 2025-04-26T05:41:00 | 53.934736 | 6.244275 | 2.0 | 8.627 | 2 | 34.806 | 8.755 | 32.777 | 2 |
| 2025-04-26T05:42:00 | 53.936602 | 6.248446 | 2.0 | 8.772 | 2 | 34.857 | 8.826 | 32.764 | 2 |
| 2025-04-26T05:43:00 | 53.938475 | 6.252633 | 2.0 | 8.781 | 2 | 34.939 | 8.936 | 32.748 | 2 |
| 2025-04-26T05:44:00 | 53.940294 | 6.256859 | 2.0 | 8.769 | 2 | 34.957 | 8.941 | 32.762 | 2 |
| 2025-04-26T05:45:00 | 53.942038 | 6.261072 | 2.0 | 8.818 | 2 | 34.992 | 8.946 | 32.794 | 2 |
| 2025-04-26T05:46:00 | 53.943418 | 6.264675 | 2.0 | 8.873 | 2 | 35.036 | 8.996 | 32.794 | 2 |
| 2025-04-26T05:47:00 | 53.944536 | 6.267385 | 2.0 | 8.855 | 2 | 35.045 | 9.033 | 32.769 | 2 |
| 2025-04-26T05:48:00 | 53.945410 | 6.269621 | 2.0 | 8.793 | 2 | 35.030 | 9.005 | 32.779 | 2 |
| 2025-04-26T05:49:00 | 53.945392 | 6.271022 | 2.0 | 8.780 | 2 | 35.021 | 8.958 | 32.813 | 2 |
| 2025-04-26T05:50:00 | 53.945172 | 6.271486 | 2.0 | 8.802 | 2 | 35.017 | 8.947 | 32.819 | 2 |
| 2025-04-26T05:51:00 | 53.944930 | 6.271172 | 2.0 | 8.846 | 2 | 35.002 | 8.983 | 32.770 | 2 |
| 2025-04-26T05:52:00 | 53.945007 | 6.270900 | 2.0 | 8.797 | 2 | 35.024 | 8.997 | 32.780 | 2 |
| 2025-04-26T05:53:00 | 53.945152 | 6.270725 | 2.0 | 8.817 | 2 | 35.029 | 8.978 | 32.803 | 2 |
| 2025-04-26T05:54:00 | 53.945261 | 6.270532 | 2.0 | 8.767 | 2 | 35.038 | 8.969 | 32.821 | 2 |
| 2025-04-26T05:55:00 | 53.945325 | 6.270464 | 2.0 | 8.772 | 2 | 35.034 | 8.950 | 32.834 | 2 |
| 2025-04-26T05:56:00 | 53.945341 | 6.270606 | 2.0 | 8.827 | 2 | 35.037 | 8.967 | 32.822 | 2 |
| 2025-04-26T05:57:00 | 53.945228 | 6.270703 | 2.0 | 8.817 | 2 | 35.051 | 9.011 | 32.795 | 2 |
| 2025-04-26T05:58:00 | 53.945155 | 6.270133 | 2.0 | 8.817 | 2 | 35.059 | 9.005 | 32.809 | 2 |
| 2025-04-26T05:59:00 | 53.944720 | 6.269826 | 2.0 | 8.821 | 2 | 35.066 | 9.016 | 32.806 | 2 |
| 2025-04-26T06:00:00 | 53.943728 | 6.270139 | 2.0 | 8.837 | 2 | 35.070 | 9.014 | 32.812 | 2 |
| 2025-04-26T06:01:00 | 53.942501 | 6.270031 | 2.0 | 8.800 | 2 | 35.061 | 9.020 | 32.798 | 2 |
| 2025-04-26T06:02:00 | 53.942177 | 6.269162 | 2.0 | 8.789 | 2 | 35.046 | 8.991 | 32.809 | 2 |
| 2025-04-26T06:03:00 | 53.942173 | 6.268457 | 2.0 | 8.766 | 2 | 35.033 | 8.979 | 32.806 | 2 |
| 2025-04-26T06:04:00 | 53.942264 | 6.268034 | 2.0 | 8.739 | 2 | 35.024 | 8.948 | 32.826 | 2 |
| 2025-04-26T06:05:00 | 53.942311 | 6.268074 | 2.0 | 8.732 | 2 | 35.013 | 8.940 | 32.822 | 2 |
| 2025-04-26T06:06:00 | 53.942312 | 6.268252 | 2.0 | 8.732 | 2 | 35.010 | 8.915 | 32.842 | 2 |
| 2025-04-26T06:07:00 | 53.942195 | 6.268463 | 2.0 | 8.758 | 2 | 34.998 | 8.933 | 32.812 | 2 |
| 2025-04-26T06:08:00 | 53.942066 | 6.268296 | 2.0 | 8.752 | 2 | 34.994 | 8.955 | 32.788 | 2 |
| 2025-04-26T06:09:00 | 53.941930 | 6.267535 | 2.0 | 8.760 | 2 | 34.996 | 8.946 | 32.798 | 2 |
| 2025-04-26T06:10:00 | 53.941255 | 6.267394 | 2.0 | 8.805 | 2 | 34.990 | 8.970 | 32.770 | 2 |
| 2025-04-26T06:11:00 | 53.940294 | 6.267268 | 2.0 | 8.813 | 2 | 34.992 | 9.002 | 32.742 | 2 |
| 2025-04-26T06:12:00 | 53.939219 | 6.266719 | 2.0 | 8.824 | 2 | 34.995 | 9.013 | 32.735 | 2 |
| 2025-04-26T06:13:00 | 53.938711 | 6.266002 | 2.0 | 8.757 | 2 | 34.996 | 9.011 | 32.738 | 2 |
| 2025-04-26T06:14:00 | 53.938765 | 6.265403 | 2.0 | 8.787 | 2 | 34.976 | 8.965 | 32.760 | 2 |
| 2025-04-26T06:15:00 | 53.938754 | 6.265166 | 2.0 | 8.720 | 2 | 34.978 | 8.978 | 32.750 | 2 |
| 2025-04-26T06:16:00 | 53.938725 | 6.265319 | 2.0 | 8.723 | 2 | 34.763 | 8.916 | 32.583 | 2 |
| 2025-04-26T06:17:00 | 53.938635 | 6.265507 | 2.0 | 8.732 | 2 | 34.950 | 8.932 | 32.763 | 2 |
| 2025-04-26T06:18:00 | 53.938519 | 6.265533 | 2.0 | 8.678 | 2 | 34.947 | 8.930 | 32.762 | 2 |
| 2025-04-26T06:19:00 | 53.938351 | 6.265023 | 2.0 | 8.660 | 2 | 34.738 | 8.886 | 32.585 | 2 |
| 2025-04-26T06:20:00 | 53.938031 | 6.264076 | 2.0 | 8.616 | 2 | 34.429 | 8.848 | 32.298 | 2 |
| 2025-04-26T06:21:00 | 53.937347 | 6.262053 | 2.0 | 8.588 | 2 | 34.750 | 8.814 | 32.664 | 2 |
| 2025-04-26T06:22:00 | 53.936263 | 6.259586 | 2.0 | 8.600 | 2 | 34.679 | 8.795 | 32.607 | 2 |
| 2025-04-26T06:23:00 | 53.934956 | 6.257200 | 2.0 | 8.568 | 2 | 34.310 | 8.799 | 32.218 | 2 |
| 2025-04-26T06:24:00 | 53.933624 | 6.254771 | 2.0 | 8.573 | 2 | 34.788 | 8.775 | 32.739 | 2 |
| 2025-04-26T06:25:00 | 53.932291 | 6.252325 | 2.0 | 8.562 | 2 | 34.685 | 8.776 | 32.631 | 2 |
| 2025-04-26T06:26:00 | 53.930944 | 6.249879 | 2.0 | 8.525 | 2 | 34.459 | 8.762 | 32.408 | 2 |
| 2025-04-26T06:27:00 | 53.929590 | 6.247431 | 2.0 | 8.520 | 2 | 34.646 | 8.732 | 32.631 | 2 |
| 2025-04-26T06:28:00 | 53.928235 | 6.244983 | 2.0 | 8.530 | 2 | 34.711 | 8.730 | 32.700 | 2 |
| 2025-04-26T06:29:00 | 53.926906 | 6.242505 | 2.0 | 8.495 | 2 | 34.596 | 8.733 | 32.577 | 2 |
| 2025-04-26T06:30:00 | 53.925623 | 6.239945 | 2.0 | 8.474 | 2 | 34.686 | 8.701 | 32.701 | 2 |
| 2025-04-26T06:31:00 | 53.924332 | 6.237373 | 2.0 | 8.451 | 2 | 34.622 | 8.676 | 32.657 | 2 |
| 2025-04-26T06:32:00 | 53.923049 | 6.234789 | 2.0 | 8.433 | 2 | 34.459 | 8.656 | 32.505 | 2 |
| 2025-04-26T06:33:00 | 53.921751 | 6.232194 | 2.0 | 8.418 | 2 | 34.691 | 8.638 | 32.765 | 2 |
| 2025-04-26T06:34:00 | 53.920447 | 6.229591 | 2.0 | 8.405 | 2 | 34.748 | 8.623 | 32.838 | 2 |
| 2025-04-26T06:35:00 | 53.919325 | 6.226962 | 2.0 | 8.389 | 2 | 34.885 | 8.609 | 32.995 | 2 |
| 2025-04-26T06:36:00 | 53.919159 | 6.224898 | 2.0 | 8.378 | 2 | 34.779 | 8.593 | 32.899 | 2 |
| 2025-04-26T06:37:00 | 53.918987 | 6.223652 | 2.0 | 8.379 | 2 | 34.723 | 8.584 | 32.848 | 2 |
| 2025-04-26T06:38:00 | 53.918680 | 6.222769 | 2.0 | 8.390 | 2 | 34.749 | 8.586 | 32.874 | 2 |
| 2025-04-26T06:39:00 | 53.918475 | 6.222019 | 2.0 | 8.386 | 2 | 34.563 | 8.592 | 32.673 | 2 |
| 2025-04-26T06:40:00 | 53.918259 | 6.221428 | 2.0 | 8.406 | 2 | 34.658 | 8.595 | 32.770 | 2 |
| 2025-04-26T06:41:00 | 53.918119 | 6.221327 | 2.0 | 8.398 | 2 | 34.778 | 8.605 | 32.887 | 2 |
| 2025-04-26T06:42:00 | 53.917958 | 6.221427 | 2.0 | 8.400 | 2 | 34.833 | 8.602 | 32.947 | 2 |
| 2025-04-26T06:43:00 | 53.917826 | 6.221566 | 2.0 | 8.407 | 2 | 34.857 | 8.603 | 32.971 | 2 |
| 2025-04-26T06:44:00 | 53.917643 | 6.221790 | 2.0 | 8.402 | 2 | 34.900 | 8.610 | 33.010 | 2 |
| 2025-04-26T06:45:00 | 53.917464 | 6.221911 | 2.0 | 8.405 | 2 | 34.793 | 8.606 | 32.901 | 2 |
| 2025-04-26T06:46:00 | 53.917358 | 6.220872 | 2.0 | 8.404 | 2 | 34.876 | 8.607 | 32.988 | 2 |
| 2025-04-26T06:47:00 | 53.918039 | 6.219641 | 2.0 | 8.395 | 2 | 34.814 | 8.606 | 32.923 | 2 |
| 2025-04-26T06:48:00 | 53.919490 | 6.219912 | 2.0 | 8.407 | 2 | 34.850 | 8.608 | 32.959 | 2 |
| 2025-04-26T06:49:00 | 53.920885 | 6.219791 | 2.0 | 8.410 | 2 | 34.858 | 8.615 | 32.961 | 2 |
| 2025-04-26T06:50:00 | 53.920982 | 6.219128 | 2.0 | 8.420 | 2 | 34.886 | 8.619 | 32.987 | 2 |
| 2025-04-26T06:51:00 | 53.920852 | 6.218658 | 2.0 | 8.419 | 2 | 34.889 | 8.626 | 32.984 | 2 |
| 2025-04-26T06:52:00 | 53.920707 | 6.218530 | 2.0 | 8.411 | 2 | 34.790 | 8.620 | 32.885 | 2 |
| 2025-04-26T06:53:00 | 53.920578 | 6.218594 | 2.0 | 8.404 | 2 | 34.767 | 8.617 | 32.864 | 2 |
| 2025-04-26T06:54:00 | 53.920422 | 6.218708 | 2.0 | 8.405 | 2 | 34.855 | 8.608 | 32.965 | 2 |
| 2025-04-26T06:55:00 | 53.920179 | 6.218361 | 2.0 | 8.403 | 2 | 34.860 | 8.611 | 32.967 | 2 |
| 2025-04-26T06:56:00 | 53.920047 | 6.217480 | 2.0 | 8.402 | 2 | 34.848 | 8.611 | 32.954 | 2 |
| 2025-04-26T06:57:00 | 53.919971 | 6.216407 | 2.0 | 8.404 | 2 | 34.852 | 8.612 | 32.958 | 2 |
| 2025-04-26T06:58:00 | 53.920669 | 6.215582 | 2.0 | 8.400 | 2 | 34.841 | 8.611 | 32.947 | 2 |
| 2025-04-26T06:59:00 | 53.922140 | 6.216124 | 2.0 | 8.409 | 2 | 34.803 | 8.612 | 32.906 | 2 |
| 2025-04-26T07:00:00 | 53.922866 | 6.218478 | 2.0 | 8.419 | 2 | 34.824 | 8.620 | 32.921 | 2 |
| 2025-04-26T07:01:00 | 53.922787 | 6.221847 | 2.0 | 8.415 | 2 | 34.869 | 8.627 | 32.962 | 2 |
| 2025-04-26T07:02:00 | 53.922092 | 6.224897 | 2.0 | 8.418 | 2 | 34.900 | 8.623 | 32.998 | 2 |
| 2025-04-26T07:03:00 | 53.920386 | 6.226367 | 2.0 | 8.415 | 2 | 34.879 | 8.614 | 32.984 | 2 |
| 2025-04-26T07:04:00 | 53.918581 | 6.227561 | 2.0 | 8.413 | 2 | 34.834 | 8.608 | 32.943 | 2 |
| 2025-04-26T07:05:00 | 53.916809 | 6.228277 | 2.0 | 8.401 | 2 | 34.887 | 8.601 | 33.005 | 2 |
| 2025-04-26T07:06:00 | 53.915602 | 6.228470 | 2.0 | 8.403 | 2 | 34.829 | 8.592 | 32.952 | 2 |
| 2025-04-26T07:07:00 | 53.915471 | 6.228235 | 2.0 | 8.398 | 2 | 34.833 | 8.588 | 32.960 | 2 |
| 2025-04-26T07:08:00 | 53.915570 | 6.227851 | 2.0 | 8.410 | 2 | 34.858 | 8.595 | 32.980 | 2 |
| 2025-04-26T07:09:00 | 53.915712 | 6.227584 | 2.0 | 8.413 | 2 | 34.899 | 8.606 | 33.013 | 2 |
| 2025-04-26T07:10:00 | 53.915718 | 6.227334 | 2.0 | 8.412 | 2 | 34.902 | 8.615 | 33.007 | 2 |
| 2025-04-26T07:11:00 | 53.915710 | 6.227041 | 2.0 | 8.421 | 2 | 34.890 | 8.617 | 32.993 | 2 |
| 2025-04-26T07:12:00 | 53.915722 | 6.226717 | 2.0 | 8.404 | 2 | 34.907 | 8.616 | 33.012 | 2 |
| 2025-04-26T07:13:00 | 53.915732 | 6.226481 | 2.0 | 8.414 | 2 | 34.883 | 8.612 | 32.990 | 2 |
| 2025-04-26T07:14:00 | 53.915744 | 6.226403 | 2.0 | 8.406 | 2 | 34.897 | 8.619 | 32.998 | 2 |
| 2025-04-26T07:15:00 | 53.915652 | 6.226236 | 2.0 | 8.410 | 2 | 34.893 | 8.613 | 33.000 | 2 |
| 2025-04-26T07:16:00 | 53.915693 | 6.225782 | 2.0 | 8.421 | 2 | 34.903 | 8.622 | 33.002 | 2 |
| 2025-04-26T07:17:00 | 53.915866 | 6.225113 | 2.0 | 8.425 | 2 | 34.900 | 8.627 | 32.994 | 2 |
| 2025-04-26T07:18:00 | 53.915909 | 6.224511 | 2.0 | 8.427 | 2 | 34.895 | 8.630 | 32.986 | 2 |
| 2025-04-26T07:19:00 | 53.915881 | 6.224000 | 2.0 | 8.436 | 2 | 34.873 | 8.637 | 32.956 | 2 |
| 2025-04-26T07:20:00 | 53.915842 | 6.223562 | 2.0 | 8.451 | 2 | 34.874 | 8.646 | 32.949 | 2 |
| 2025-04-26T07:21:00 | 53.915811 | 6.223251 | 2.0 | 8.467 | 2 | 34.882 | 8.660 | 32.944 | 2 |
| 2025-04-26T07:22:00 | 53.915776 | 6.223130 | 2.0 | 8.465 | 2 | 34.886 | 8.675 | 32.935 | 2 |
| 2025-04-26T07:23:00 | 53.915805 | 6.223105 | 2.0 | 8.474 | 2 | 34.888 | 8.674 | 32.938 | 2 |
| 2025-04-26T07:24:00 | 53.915789 | 6.223014 | 2.0 | 8.481 | 2 | 34.893 | 8.680 | 32.937 | 2 |
| 2025-04-26T07:25:00 | 53.915631 | 6.222841 | 2.0 | 8.492 | 2 | 34.893 | 8.681 | 32.936 | 2 |
| 2025-04-26T07:26:00 | 53.915443 | 6.222685 | 2.0 | 8.500 | 2 | 34.893 | 8.684 | 32.934 | 2 |
| 2025-04-26T07:27:00 | 53.915260 | 6.222551 | 2.0 | 8.513 | 2 | 34.891 | 8.689 | 32.927 | 2 |
| 2025-04-26T07:28:00 | 53.915101 | 6.222444 | 2.0 | 8.516 | 2 | 34.895 | 8.700 | 32.921 | 2 |
| 2025-04-26T07:29:00 | 53.914943 | 6.222363 | 2.0 | 8.531 | 2 | 34.896 | 8.702 | 32.920 | 2 |
| 2025-04-26T07:30:00 | 53.914844 | 6.222304 | 2.0 | 8.537 | 2 | 34.901 | 8.714 | 32.914 | 2 |
| 2025-04-26T07:31:00 | 53.914811 | 6.222309 | 2.0 | 8.517 | 2 | 34.901 | 8.716 | 32.912 | 2 |
| 2025-04-26T07:32:00 | 53.914841 | 6.222357 | 2.0 | 8.524 | 2 | 34.888 | 8.695 | 32.918 | 2 |
| 2025-04-26T07:33:00 | 53.914834 | 6.222259 | 2.0 | 8.540 | 2 | 34.895 | 8.710 | 32.912 | 2 |
| 2025-04-26T07:34:00 | 53.914782 | 6.222040 | 2.0 | 8.548 | 2 | 34.902 | 8.718 | 32.911 | 2 |
| 2025-04-26T07:35:00 | 53.914736 | 6.221730 | 2.0 | 8.546 | 2 | 34.909 | 8.729 | 32.909 | 2 |
| 2025-04-26T07:36:00 | 53.914689 | 6.221353 | 2.0 | 8.513 | 2 | 34.900 | 8.714 | 32.913 | 2 |
| 2025-04-26T07:37:00 | 53.914653 | 6.220916 | 2.0 | 8.570 | 2 | 34.885 | 8.699 | 32.911 | 2 |
| 2025-04-26T07:38:00 | 53.914624 | 6.220440 | 2.0 | 8.569 | 2 | 34.913 | 8.743 | 32.900 | 2 |
| 2025-04-26T07:39:00 | 53.914591 | 6.219933 | 2.0 | 8.576 | 2 | 34.918 | 8.747 | 32.901 | 2 |
| 2025-04-26T07:40:00 | 53.914571 | 6.219480 | 2.0 | 8.544 | 2 | 34.915 | 8.745 | 32.900 | 2 |
| 2025-04-26T07:41:00 | 53.914546 | 6.219087 | 2.0 | 8.557 | 2 | 34.903 | 8.734 | 32.898 | 2 |
| 2025-04-26T07:42:00 | 53.914521 | 6.218757 | 2.0 | 8.537 | 2 | 34.899 | 8.729 | 32.898 | 2 |
| 2025-04-26T07:43:00 | 53.914507 | 6.218489 | 2.0 | 8.570 | 2 | 34.890 | 8.720 | 32.897 | 2 |
| 2025-04-26T07:44:00 | 53.914513 | 6.218262 | 2.0 | 8.587 | 2 | 34.903 | 8.744 | 32.888 | 2 |
| 2025-04-26T07:45:00 | 53.914474 | 6.218054 | 2.0 | 8.608 | 2 | 34.918 | 8.767 | 32.883 | 2 |
| 2025-04-26T07:46:00 | 53.914446 | 6.217874 | 2.0 | 8.597 | 2 | 34.926 | 8.775 | 32.884 | 2 |
| 2025-04-26T07:47:00 | 53.914465 | 6.217749 | 2.0 | 8.551 | 2 | 34.921 | 8.771 | 32.882 | 2 |
| 2025-04-26T07:48:00 | 53.914531 | 6.217724 | 2.0 | 8.579 | 2 | 34.893 | 8.732 | 32.889 | 2 |
| 2025-04-26T07:49:00 | 53.914620 | 6.217840 | 2.0 | 8.587 | 2 | 34.907 | 8.757 | 32.880 | 2 |
| 2025-04-26T07:50:00 | 53.914690 | 6.218092 | 2.0 | 8.613 | 2 | 34.913 | 8.766 | 32.878 | 2 |
| 2025-04-26T07:51:00 | 53.914601 | 6.218340 | 2.0 | 8.620 | 2 | 34.930 | 8.786 | 32.878 | 2 |
| 2025-04-26T07:52:00 | 53.914473 | 6.218608 | 2.0 | 8.619 | 2 | 34.937 | 8.794 | 32.877 | 2 |
| 2025-04-26T07:53:00 | 53.914342 | 6.218916 | 2.0 | 8.626 | 2 | 34.937 | 8.793 | 32.878 | 2 |
| 2025-04-26T07:54:00 | 53.914215 | 6.219258 | 2.0 | 8.627 | 2 | 34.943 | 8.802 | 32.876 | 2 |
| 2025-04-26T07:55:00 | 53.914099 | 6.219623 | 2.0 | 8.643 | 2 | 34.947 | 8.807 | 32.876 | 2 |
| 2025-04-26T07:56:00 | 53.913992 | 6.219998 | 2.0 | 8.646 | 2 | 34.951 | 8.814 | 32.874 | 2 |
| 2025-04-26T07:57:00 | 53.913882 | 6.220369 | 2.0 | 8.646 | 2 | 34.954 | 8.818 | 32.873 | 2 |
| 2025-04-26T07:58:00 | 53.913771 | 6.220744 | 2.0 | 8.658 | 2 | 34.958 | 8.824 | 32.872 | 2 |
| 2025-04-26T07:59:00 | 53.913657 | 6.221138 | 2.0 | 8.655 | 2 | 34.963 | 8.828 | 32.873 | 2 |
| 2025-04-26T08:00:00 | 53.913550 | 6.221525 | 2.0 | 8.656 | 2 | 34.962 | 8.829 | 32.871 | 2 |
| 2025-04-26T08:01:00 | 53.913447 | 6.221888 | 2.0 | 8.660 | 2 | 34.963 | 8.830 | 32.871 | 2 |
| 2025-04-26T08:02:00 | 53.913347 | 6.222236 | 2.0 | 8.665 | 2 | 34.967 | 8.836 | 32.870 | 2 |
| 2025-04-26T08:03:00 | 53.913245 | 6.222562 | 2.0 | 8.665 | 2 | 34.969 | 8.839 | 32.869 | 2 |
| 2025-04-26T08:04:00 | 53.913149 | 6.222870 | 2.0 | 8.666 | 2 | 34.968 | 8.838 | 32.869 | 2 |
| 2025-04-26T08:05:00 | 53.913060 | 6.223156 | 2.0 | 8.667 | 2 | 34.969 | 8.840 | 32.868 | 2 |
| 2025-04-26T08:06:00 | 53.912968 | 6.223434 | 2.0 | 8.670 | 2 | 34.911 | 8.840 | 32.808 | 2 |
| 2025-04-26T08:07:00 | 53.912878 | 6.223713 | 2.0 | 8.670 | 2 | 34.863 | 8.843 | 32.755 | 2 |
| 2025-04-26T08:08:00 | 53.912792 | 6.223980 | 2.0 | 8.670 | 2 | 34.915 | 8.844 | 32.808 | 2 |
| 2025-04-26T08:09:00 | 53.912707 | 6.224244 | 2.0 | 8.669 | 2 | 34.942 | 8.843 | 32.837 | 2 |
| 2025-04-26T08:10:00 | 53.912623 | 6.224505 | 2.0 | 8.671 | 2 | 34.917 | 8.842 | 32.812 | 2 |
| 2025-04-26T08:11:00 | 53.912539 | 6.224770 | 2.0 | 8.671 | 2 | 34.930 | 8.844 | 32.824 | 2 |
| 2025-04-26T08:12:00 | 53.912456 | 6.225029 | 2.0 | 8.674 | 2 | 34.969 | 8.845 | 32.864 | 2 |
| 2025-04-26T08:13:00 | 53.912369 | 6.225278 | 2.0 | 8.678 | 2 | 34.959 | 8.847 | 32.851 | 2 |
| 2025-04-26T08:14:00 | 53.912287 | 6.225525 | 2.0 | 8.678 | 2 | 34.967 | 8.851 | 32.856 | 2 |
| 2025-04-26T08:15:00 | 53.912207 | 6.225771 | 2.0 | 8.679 | 2 | 34.957 | 8.850 | 32.846 | 2 |
| 2025-04-26T08:16:00 | 53.912128 | 6.226010 | 2.0 | 8.682 | 2 | 34.969 | 8.853 | 32.856 | 2 |
| 2025-04-26T08:17:00 | 53.912054 | 6.226240 | 2.0 | 8.685 | 2 | 34.964 | 8.856 | 32.848 | 2 |
| 2025-04-26T08:18:00 | 53.912019 | 6.226411 | 2.0 | 8.690 | 2 | 34.975 | 8.858 | 32.858 | 2 |
| 2025-04-26T08:19:00 | 53.911998 | 6.226578 | 2.0 | 8.699 | 2 | 34.977 | 8.864 | 32.854 | 2 |
| 2025-04-26T08:20:00 | 53.911967 | 6.226771 | 2.0 | 8.726 | 2 | 34.981 | 8.873 | 32.850 | 2 |
| 2025-04-26T08:21:00 | 53.911930 | 6.226984 | 2.0 | 8.740 | 2 | 34.981 | 8.905 | 32.821 | 2 |
| 2025-04-26T08:22:00 | 53.911888 | 6.227207 | 2.0 | 8.739 | 2 | 34.979 | 8.915 | 32.809 | 2 |
| 2025-04-26T08:23:00 | 53.911833 | 6.227432 | 2.0 | 8.742 | 2 | 34.964 | 8.907 | 32.801 | 2 |
| 2025-04-26T08:24:00 | 53.911774 | 6.227655 | 2.0 | 8.774 | 2 | 34.957 | 8.925 | 32.777 | 2 |
| 2025-04-26T08:25:00 | 53.911704 | 6.227887 | 2.0 | 8.784 | 2 | 34.961 | 8.951 | 32.757 | 2 |
| 2025-04-26T08:26:00 | 53.911631 | 6.228124 | 2.0 | 8.777 | 2 | 34.956 | 8.949 | 32.754 | 2 |
| 2025-04-26T08:27:00 | 53.911556 | 6.228361 | 2.0 | 8.794 | 2 | 34.948 | 8.954 | 32.741 | 2 |
| 2025-04-26T08:28:00 | 53.911476 | 6.228606 | 2.0 | 8.805 | 2 | 34.951 | 8.966 | 32.733 | 2 |
| 2025-04-26T08:29:00 | 53.911398 | 6.228880 | 2.0 | 8.815 | 2 | 34.955 | 8.976 | 32.728 | 2 |
| 2025-04-26T08:30:00 | 53.911326 | 6.229150 | 2.0 | 8.809 | 2 | 34.956 | 8.984 | 32.722 | 2 |
| 2025-04-26T08:31:00 | 53.911264 | 6.229401 | 2.0 | 8.812 | 2 | 34.950 | 8.979 | 32.720 | 2 |
| 2025-04-26T08:32:00 | 53.911197 | 6.229640 | 2.0 | 8.838 | 2 | 34.950 | 8.988 | 32.712 | 2 |
| 2025-04-26T08:33:00 | 53.911111 | 6.229873 | 2.0 | 8.837 | 2 | 34.954 | 9.008 | 32.697 | 2 |
| 2025-04-26T08:34:00 | 53.911015 | 6.230106 | 2.0 | 8.850 | 2 | 34.948 | 9.009 | 32.690 | 2 |
| 2025-04-26T08:35:00 | 53.910920 | 6.230334 | 2.0 | 8.857 | 2 | 34.957 | 9.021 | 32.689 | 2 |
| 2025-04-26T08:36:00 | 53.910816 | 6.230567 | 2.0 | 8.856 | 2 | 34.963 | 9.030 | 32.687 | 2 |
| 2025-04-26T08:37:00 | 53.910713 | 6.230795 | 2.0 | 8.855 | 2 | 34.963 | 9.027 | 32.689 | 2 |
| 2025-04-26T08:38:00 | 53.910604 | 6.231026 | 2.0 | 8.871 | 2 | 34.933 | 9.031 | 32.655 | 2 |
| 2025-04-26T08:39:00 | 53.910497 | 6.231251 | 2.0 | 8.869 | 2 | 34.935 | 9.043 | 32.646 | 2 |
| 2025-04-26T08:40:00 | 53.910388 | 6.231473 | 2.0 | 8.884 | 2 | 34.945 | 9.041 | 32.658 | 2 |
| 2025-04-26T08:41:00 | 53.910266 | 6.231700 | 2.0 | 8.897 | 2 | 34.963 | 9.058 | 32.661 | 2 |
| 2025-04-26T08:42:00 | 53.910147 | 6.231919 | 2.0 | 8.895 | 2 | 34.988 | 9.066 | 32.679 | 2 |
| 2025-04-26T08:43:00 | 53.910030 | 6.232129 | 2.0 | 8.898 | 2 | 34.988 | 9.066 | 32.679 | 2 |
| 2025-04-26T08:44:00 | 53.909921 | 6.232328 | 2.0 | 8.900 | 2 | 34.989 | 9.069 | 32.678 | 2 |
| 2025-04-26T08:45:00 | 53.909859 | 6.232438 | 2.0 | 8.898 | 2 | 34.986 | 9.070 | 32.674 | 2 |
| 2025-04-26T08:46:00 | 53.909853 | 6.232460 | 2.0 | 8.928 | 2 | 34.993 | 9.077 | 32.675 | 2 |
| 2025-04-26T08:47:00 | 53.909911 | 6.232420 | 2.0 | 8.940 | 2 | 35.012 | 9.103 | 32.670 | 2 |
| 2025-04-26T08:48:00 | 53.910038 | 6.232380 | 2.0 | 8.921 | 2 | 35.015 | 9.102 | 32.674 | 2 |
| 2025-04-26T08:49:00 | 53.910202 | 6.232386 | 2.0 | 8.904 | 2 | 35.001 | 9.087 | 32.674 | 2 |
| 2025-04-26T08:50:00 | 53.910348 | 6.232462 | 2.0 | 8.933 | 2 | 34.991 | 9.074 | 32.675 | 2 |
| 2025-04-26T08:51:00 | 53.910465 | 6.232588 | 2.0 | 8.939 | 2 | 35.013 | 9.101 | 32.673 | 2 |
| 2025-04-26T08:52:00 | 53.910548 | 6.232741 | 2.0 | 8.964 | 2 | 35.020 | 9.109 | 32.673 | 2 |
| 2025-04-26T08:53:00 | 53.910600 | 6.232895 | 2.0 | 8.972 | 2 | 35.038 | 9.134 | 32.669 | 2 |
| 2025-04-26T08:54:00 | 53.910618 | 6.233037 | 2.0 | 8.973 | 2 | 35.043 | 9.142 | 32.667 | 2 |
| 2025-04-26T08:55:00 | 53.910615 | 6.233164 | 2.0 | 8.982 | 2 | 35.046 | 9.145 | 32.667 | 2 |
| 2025-04-26T08:56:00 | 53.910590 | 6.233278 | 2.0 | 8.992 | 2 | 35.054 | 9.153 | 32.668 | 2 |
| 2025-04-26T08:57:00 | 53.910547 | 6.233391 | 2.0 | 9.001 | 2 | 35.063 | 9.164 | 32.667 | 2 |
| 2025-04-26T08:58:00 | 53.910488 | 6.233506 | 2.0 | 9.004 | 2 | 35.070 | 9.170 | 32.669 | 2 |
| 2025-04-26T08:59:00 | 53.910410 | 6.233622 | 2.0 | 9.015 | 2 | 35.073 | 9.173 | 32.669 | 2 |
| 2025-04-26T09:00:00 | 53.910329 | 6.233741 | 2.0 | 9.033 | 2 | 35.083 | 9.187 | 32.667 | 2 |
| 2025-04-26T09:01:00 | 53.910236 | 6.233871 | 2.0 | 9.048 | 2 | 35.095 | 9.206 | 32.662 | 2 |
| 2025-04-26T09:02:00 | 53.910138 | 6.234001 | 2.0 | 9.059 | 2 | 35.105 | 9.217 | 32.662 | 2 |
| 2025-04-26T09:03:00 | 53.910030 | 6.234137 | 2.0 | 9.080 | 2 | 35.118 | 9.232 | 32.662 | 2 |
| 2025-04-26T09:04:00 | 53.909908 | 6.234289 | 2.0 | 9.073 | 2 | 35.132 | 9.246 | 32.664 | 2 |
| 2025-04-26T09:05:00 | 53.909793 | 6.234437 | 2.0 | 9.083 | 2 | 35.131 | 9.243 | 32.665 | 2 |
| 2025-04-26T09:06:00 | 53.909679 | 6.234586 | 2.0 | 9.081 | 2 | 35.139 | 9.251 | 32.666 | 2 |
| 2025-04-26T09:07:00 | 53.909564 | 6.234728 | 2.0 | 9.083 | 2 | 35.141 | 9.253 | 32.666 | 2 |
| 2025-04-26T09:08:00 | 53.909452 | 6.234859 | 2.0 | 9.090 | 2 | 35.142 | 9.253 | 32.667 | 2 |
| 2025-04-26T09:09:00 | 53.909336 | 6.234980 | 2.0 | 9.096 | 2 | 35.146 | 9.258 | 32.667 | 2 |
| 2025-04-26T09:10:00 | 53.909226 | 6.235094 | 2.0 | 9.092 | 2 | 35.148 | 9.264 | 32.664 | 2 |
| 2025-04-26T09:11:00 | 53.909116 | 6.235200 | 2.0 | 9.097 | 2 | 35.145 | 9.261 | 32.663 | 2 |
| 2025-04-26T09:12:00 | 53.909009 | 6.235296 | 2.0 | 9.093 | 2 | 35.151 | 9.265 | 32.666 | 2 |
| 2025-04-26T09:13:00 | 53.908897 | 6.235386 | 2.0 | 9.102 | 2 | 35.153 | 9.266 | 32.667 | 2 |
| 2025-04-26T09:14:00 | 53.908797 | 6.235447 | 2.0 | 9.104 | 2 | 35.158 | 9.271 | 32.667 | 2 |
| 2025-04-26T09:15:00 | 53.908746 | 6.235386 | 2.0 | 9.114 | 2 | 35.162 | 9.275 | 32.668 | 2 |
| 2025-04-26T09:16:00 | 53.908760 | 6.235215 | 2.0 | 9.099 | 2 | 35.169 | 9.283 | 32.668 | 2 |
| 2025-04-26T09:17:00 | 53.908854 | 6.235004 | 2.0 | 9.092 | 2 | 35.157 | 9.268 | 32.669 | 2 |
| 2025-04-26T09:18:00 | 53.909010 | 6.234832 | 2.0 | 9.078 | 2 | 35.142 | 9.250 | 32.670 | 2 |
| 2025-04-26T09:19:00 | 53.909149 | 6.234762 | 2.0 | 9.013 | 2 | 35.134 | 9.241 | 32.670 | 2 |
| 2025-04-26T09:20:00 | 53.909261 | 6.234751 | 2.0 | 9.043 | 2 | 35.096 | 9.183 | 32.684 | 2 |
| 2025-04-26T09:21:00 | 53.909339 | 6.234769 | 2.0 | 9.122 | 2 | 35.120 | 9.229 | 32.667 | 2 |
| 2025-04-26T09:22:00 | 53.909384 | 6.234800 | 2.0 | 9.142 | 2 | 35.177 | 9.296 | 32.664 | 2 |
| 2025-04-26T09:23:00 | 53.909415 | 6.234831 | 2.0 | 9.158 | 2 | 35.196 | 9.314 | 32.667 | 2 |
| 2025-04-26T09:24:00 | 53.909427 | 6.234862 | 2.0 | 9.160 | 2 | 35.205 | 9.324 | 32.667 | 2 |
| 2025-04-26T09:25:00 | 53.909422 | 6.234879 | 2.0 | 9.173 | 2 | 35.211 | 9.331 | 32.667 | 2 |
| 2025-04-26T09:26:00 | 53.909389 | 6.234874 | 2.0 | 9.178 | 2 | 35.219 | 9.339 | 32.668 | 2 |
| 2025-04-26T09:27:00 | 53.909348 | 6.234874 | 2.0 | 9.190 | 2 | 35.226 | 9.348 | 32.667 | 2 |
| 2025-04-26T09:28:00 | 53.909358 | 6.234873 | 2.0 | 9.192 | 2 | 35.235 | 9.358 | 32.667 | 2 |
| 2025-04-26T09:29:00 | 53.909443 | 6.234848 | 2.0 | 9.208 | 2 | 35.238 | 9.361 | 32.668 | 2 |
| 2025-04-26T09:30:00 | 53.909534 | 6.234816 | 2.0 | 9.182 | 2 | 35.243 | 9.370 | 32.665 | 2 |
| 2025-04-26T09:31:00 | 53.909591 | 6.234779 | 2.0 | 9.172 | 2 | 35.216 | 9.347 | 32.658 | 2 |
| 2025-04-26T09:32:00 | 53.909625 | 6.234738 | 2.0 | 9.175 | 2 | 35.216 | 9.343 | 32.661 | 2 |
| 2025-04-26T09:33:00 | 53.909644 | 6.234694 | 2.0 | 9.183 | 2 | 35.221 | 9.345 | 32.665 | 2 |
| 2025-04-26T09:34:00 | 53.909642 | 6.234643 | 2.0 | 9.183 | 2 | 35.228 | 9.351 | 32.667 | 2 |
| 2025-04-26T09:35:00 | 53.909627 | 6.234582 | 2.0 | 9.215 | 2 | 35.232 | 9.356 | 32.666 | 2 |
| 2025-04-26T09:36:00 | 53.909649 | 6.234492 | 2.0 | 9.211 | 2 | 35.255 | 9.381 | 32.667 | 2 |
| 2025-04-26T09:37:00 | 53.909724 | 6.234406 | 2.0 | 9.215 | 2 | 35.254 | 9.379 | 32.668 | 2 |
| 2025-04-26T09:38:00 | 53.909789 | 6.234336 | 2.0 | 9.224 | 2 | 35.261 | 9.387 | 32.668 | 2 |
| 2025-04-26T09:39:00 | 53.909835 | 6.234261 | 2.0 | 9.207 | 2 | 35.262 | 9.385 | 32.670 | 2 |
| 2025-04-26T09:40:00 | 53.909859 | 6.234170 | 2.0 | 9.194 | 2 | 35.253 | 9.375 | 32.670 | 2 |
| 2025-04-26T09:41:00 | 53.909872 | 6.234072 | 2.0 | 9.250 | 2 | 35.254 | 9.380 | 32.667 | 2 |
| 2025-04-26T09:42:00 | 53.909849 | 6.233963 | 2.0 | 9.257 | 2 | 35.285 | 9.414 | 32.668 | 2 |
| 2025-04-26T09:43:00 | 53.909819 | 6.233839 | 2.0 | 9.267 | 2 | 35.295 | 9.426 | 32.667 | 2 |
| 2025-04-26T09:44:00 | 53.909835 | 6.233705 | 2.0 | 9.264 | 2 | 35.302 | 9.433 | 32.668 | 2 |
| 2025-04-26T09:45:00 | 53.909915 | 6.233567 | 2.0 | 9.260 | 2 | 35.301 | 9.431 | 32.669 | 2 |
| 2025-04-26T09:46:00 | 53.910006 | 6.233458 | 2.0 | 9.244 | 2 | 35.296 | 9.426 | 32.668 | 2 |
| 2025-04-26T09:47:00 | 53.910072 | 6.233349 | 2.0 | 9.227 | 2 | 35.273 | 9.407 | 32.662 | 2 |
| 2025-04-26T09:48:00 | 53.910104 | 6.233225 | 2.0 | 9.242 | 2 | 35.271 | 9.403 | 32.663 | 2 |
| 2025-04-26T09:49:00 | 53.910118 | 6.233082 | 2.0 | 9.256 | 2 | 35.281 | 9.411 | 32.666 | 2 |
| 2025-04-26T09:50:00 | 53.910107 | 6.232925 | 2.0 | 9.287 | 2 | 35.293 | 9.426 | 32.665 | 2 |
| 2025-04-26T09:51:00 | 53.910064 | 6.232758 | 2.0 | 9.259 | 2 | 35.316 | 9.450 | 32.667 | 2 |
| 2025-04-26T09:52:00 | 53.910068 | 6.232587 | 2.0 | 9.257 | 2 | 35.295 | 9.423 | 32.670 | 2 |
| 2025-04-26T09:53:00 | 53.910114 | 6.232405 | 2.0 | 9.276 | 2 | 35.293 | 9.426 | 32.665 | 2 |
| 2025-04-26T09:54:00 | 53.910165 | 6.232219 | 2.0 | 9.276 | 2 | 35.310 | 9.443 | 32.667 | 2 |
| 2025-04-26T09:55:00 | 53.910240 | 6.232048 | 2.0 | 9.273 | 2 | 35.310 | 9.442 | 32.668 | 2 |
| 2025-04-26T09:56:00 | 53.910318 | 6.231890 | 2.0 | 9.274 | 2 | 35.309 | 9.440 | 32.669 | 2 |
| 2025-04-26T09:57:00 | 53.910396 | 6.231778 | 2.0 | 9.284 | 2 | 35.310 | 9.442 | 32.668 | 2 |
| 2025-04-26T09:58:00 | 53.910461 | 6.231740 | 2.0 | 9.307 | 2 | 35.321 | 9.455 | 32.667 | 2 |
| 2025-04-26T09:59:00 | 53.910517 | 6.231843 | 2.0 | 9.316 | 2 | 35.333 | 9.474 | 32.662 | 2 |
| 2025-04-26T10:00:00 | 53.910567 | 6.232028 | 2.0 | 9.290 | 2 | 35.343 | 9.481 | 32.666 | 2 |
| 2025-04-26T10:01:00 | 53.910597 | 6.232225 | 2.0 | 9.249 | 2 | 35.311 | 9.436 | 32.674 | 2 |
| 2025-04-26T10:02:00 | 53.910629 | 6.232431 | 2.0 | 9.278 | 2 | 35.307 | 9.442 | 32.665 | 2 |
| 2025-04-26T10:03:00 | 53.910682 | 6.232637 | 2.0 | 9.215 | 2 | 35.301 | 9.426 | 32.673 | 2 |
| 2025-04-26T10:04:00 | 53.910749 | 6.232832 | 2.0 | 9.182 | 2 | 35.252 | 9.367 | 32.677 | 2 |
| 2025-04-26T10:05:00 | 53.910816 | 6.232983 | 2.0 | 9.136 | 2 | 35.228 | 9.345 | 32.672 | 2 |
| 2025-04-26T10:06:00 | 53.910866 | 6.233049 | 2.0 | 8.836 | 2 | 35.163 | 9.231 | 32.709 | 2 |
| 2025-04-26T10:07:00 | 53.910929 | 6.233075 | 2.0 | 9.049 | 2 | 35.019 | 9.039 | 32.736 | 2 |
| 2025-04-26T10:08:00 | 53.911006 | 6.233103 | 2.0 | 9.033 | 2 | 35.113 | 9.212 | 32.675 | 2 |
| 2025-04-26T10:09:00 | 53.911084 | 6.233187 | 2.0 | 9.137 | 2 | 35.123 | 9.208 | 32.689 | 2 |
| 2025-04-26T10:10:00 | 53.911155 | 6.233314 | 2.0 | 9.235 | 2 | 35.188 | 9.309 | 32.664 | 2 |
| 2025-04-26T10:11:00 | 53.911195 | 6.233460 | 2.0 | 9.312 | 2 | 35.278 | 9.413 | 32.661 | 2 |
| 2025-04-26T10:12:00 | 53.911208 | 6.233560 | 2.0 | 9.367 | 2 | 35.342 | 9.485 | 32.661 | 2 |
| 2025-04-26T10:13:00 | 53.911217 | 6.233600 | 2.0 | 9.103 | 2 | 35.367 | 9.500 | 32.673 | 2 |
| 2025-04-26T10:14:00 | 53.911215 | 6.233578 | 2.0 | 8.813 | 2 | 35.162 | 9.193 | 32.743 | 2 |
| 2025-04-26T10:15:00 | 53.911246 | 6.233526 | 2.0 | 8.858 | 2 | 35.003 | 9.014 | 32.743 | 2 |
| 2025-04-26T10:16:00 | 53.911303 | 6.233471 | 2.0 | 8.850 | 2 | 34.999 | 9.018 | 32.735 | 2 |
| 2025-04-26T10:17:00 | 53.911350 | 6.233479 | 2.0 | 8.914 | 2 | 35.018 | 9.056 | 32.720 | 2 |
| 2025-04-26T10:18:00 | 53.911398 | 6.233566 | 2.0 | 9.153 | 2 | 35.046 | 9.094 | 32.714 | 2 |
| 2025-04-26T10:19:00 | 53.911461 | 6.233694 | 2.0 | 9.257 | 2 | 35.214 | 9.346 | 32.657 | 2 |
| 2025-04-26T10:20:00 | 53.911501 | 6.233811 | 2.0 | 9.219 | 2 | 35.280 | 9.407 | 32.669 | 2 |
| 2025-04-26T10:21:00 | 53.911539 | 6.233856 | 2.0 | 8.741 | 2 | 35.230 | 9.312 | 32.704 | 2 |
| 2025-04-26T10:22:00 | 53.911588 | 6.233847 | 2.0 | 8.677 | 2 | 34.972 | 8.920 | 32.797 | 2 |
| 2025-04-26T10:23:00 | 53.911649 | 6.233816 | 2.0 | 8.969 | 2 | 34.915 | 8.873 | 32.781 | 2 |
| 2025-04-26T10:24:00 | 53.911696 | 6.233817 | 2.0 | 9.267 | 2 | 35.127 | 9.238 | 32.666 | 2 |
| 2025-04-26T10:25:00 | 53.911717 | 6.233891 | 2.0 | 9.205 | 2 | 35.268 | 9.389 | 32.673 | 2 |
| 2025-04-26T10:26:00 | 53.911745 | 6.234013 | 2.0 | 9.312 | 2 | 35.278 | 9.410 | 32.664 | 2 |
| 2025-04-26T10:27:00 | 53.911795 | 6.234168 | 2.0 | 9.274 | 2 | 35.300 | 9.463 | 32.638 | 2 |
| 2025-04-26T10:28:00 | 53.911854 | 6.234344 | 2.0 | 9.284 | 2 | 35.308 | 9.434 | 32.673 | 2 |
| 2025-04-26T10:29:00 | 53.911894 | 6.234484 | 2.0 | 9.306 | 2 | 35.327 | 9.464 | 32.665 | 2 |
| 2025-04-26T10:30:00 | 53.911912 | 6.234572 | 2.0 | 9.331 | 2 | 35.010 | 9.472 | 32.333 | 2 |
| 2025-04-26T10:31:00 | 53.911920 | 6.234585 | 2.0 | 9.322 | 2 | 35.354 | 9.501 | 32.659 | 2 |
| 2025-04-26T10:32:00 | 53.911929 | 6.234564 | 2.0 | 9.324 | 2 | 35.352 | 9.485 | 32.672 | 2 |
| 2025-04-26T10:33:00 | 53.911946 | 6.234514 | 2.0 | 9.308 | 2 | 35.351 | 9.485 | 32.671 | 2 |
| 2025-04-26T10:34:00 | 53.911960 | 6.234519 | 2.0 | 9.317 | 2 | 35.341 | 9.474 | 32.670 | 2 |
| 2025-04-26T10:35:00 | 53.911969 | 6.234573 | 2.0 | 9.346 | 2 | 35.351 | 9.487 | 32.669 | 2 |
| 2025-04-26T10:36:00 | 53.911990 | 6.234658 | 2.0 | 9.366 | 2 | 35.351 | 9.514 | 32.644 | 2 |
| 2025-04-26T10:37:00 | 53.912010 | 6.234770 | 2.0 | 9.367 | 2 | 35.391 | 9.532 | 32.669 | 2 |
| 2025-04-26T10:38:00 | 53.912030 | 6.234896 | 2.0 | 9.367 | 2 | 35.392 | 9.534 | 32.668 | 2 |
| 2025-04-26T10:39:00 | 53.912047 | 6.235016 | 2.0 | 9.344 | 2 | 35.151 | 9.525 | 32.429 | 2 |
| 2025-04-26T10:40:00 | 53.912059 | 6.235074 | 2.0 | 9.355 | 2 | 35.372 | 9.508 | 32.671 | 2 |
| 2025-04-26T10:41:00 | 53.912070 | 6.235074 | 2.0 | 9.308 | 2 | 35.373 | 9.507 | 32.673 | 2 |
| 2025-04-26T10:42:00 | 53.912095 | 6.235032 | 2.0 | 9.332 | 2 | 35.183 | 9.470 | 32.512 | 2 |
| 2025-04-26T10:43:00 | 53.912130 | 6.234998 | 2.0 | 9.371 | 2 | 35.146 | 9.518 | 32.430 | 2 |
| 2025-04-26T10:44:00 | 53.912146 | 6.235033 | 2.0 | 9.243 | 2 | 35.190 | 9.512 | 32.481 | 2 |
| 2025-04-26T10:45:00 | 53.912178 | 6.235125 | 2.0 | 9.279 | 2 | 35.298 | 9.421 | 32.675 | 2 |
| 2025-04-26T10:46:00 | 53.912224 | 6.235250 | 2.0 | 9.293 | 2 | 35.234 | 9.457 | 32.576 | 2 |
| 2025-04-26T10:47:00 | 53.912270 | 6.235383 | 2.0 | 9.273 | 2 | 35.305 | 9.459 | 32.647 | 2 |
| 2025-04-26T10:48:00 | 53.912304 | 6.235442 | 2.0 | 9.224 | 2 | 35.243 | 9.426 | 32.614 | 2 |
| 2025-04-26T10:49:00 | 53.912332 | 6.235424 | 2.0 | 8.932 | 2 | 34.992 | 9.386 | 32.392 | 2 |
| 2025-04-26T10:50:00 | 53.912365 | 6.235333 | 2.0 | 8.668 | 2 | 34.862 | 9.013 | 32.597 | 2 |
| 2025-04-26T10:51:00 | 53.912509 | 6.235298 | 2.0 | 9.013 | 2 | 34.895 | 8.919 | 32.718 | 2 |
| 2025-04-26T10:52:00 | 53.912706 | 6.234650 | 2.0 | 9.021 | 2 | 34.989 | 9.196 | 32.561 | 2 |
| 2025-04-26T10:53:00 | 53.912795 | 6.233210 | 2.0 | 9.097 | 2 | 35.100 | 9.240 | 32.636 | 2 |
| 2025-04-26T10:54:00 | 53.912758 | 6.230918 | 2.0 | 9.146 | 2 | 35.112 | 9.285 | 32.607 | 2 |
| 2025-04-26T10:55:00 | 53.912290 | 6.228191 | 2.0 | 9.166 | 2 | 35.103 | 9.353 | 32.536 | 2 |
| 2025-04-26T10:56:00 | 53.911743 | 6.225500 | 2.0 | 8.972 | 2 | 35.016 | 9.328 | 32.469 | 2 |
| 2025-04-26T10:57:00 | 53.912117 | 6.224613 | 2.0 | 8.851 | 2 | 34.917 | 9.074 | 32.598 | 2 |
| 2025-04-26T10:58:00 | 53.912413 | 6.224325 | 2.0 | 8.774 | 2 | 34.495 | 9.058 | 32.176 | 2 |
| 2025-04-26T10:59:00 | 53.912628 | 6.224286 | 2.0 | 9.177 | 2 | 34.785 | 9.011 | 32.519 | 2 |
| 2025-04-26T11:00:00 | 53.913159 | 6.224179 | 2.0 | 9.061 | 2 | 34.824 | 9.338 | 32.262 | 2 |
| 2025-04-26T11:01:00 | 53.913610 | 6.223629 | 2.0 | 9.149 | 2 | 34.993 | 9.300 | 32.471 | 2 |
| 2025-04-26T11:02:00 | 53.913968 | 6.222995 | 2.0 | 9.094 | 2 | 34.823 | 9.278 | 32.316 | 2 |
| 2025-04-26T11:03:00 | 53.914277 | 6.222574 | 2.0 | 8.799 | 2 | 34.952 | 9.266 | 32.459 | 2 |
| 2025-04-26T11:04:00 | 53.914493 | 6.222490 | 2.0 | 8.673 | 2 | 34.807 | 8.934 | 32.613 | 2 |
| 2025-04-26T11:05:00 | 53.914705 | 6.222551 | 2.0 | 8.919 | 2 | 34.612 | 8.923 | 32.420 | 2 |
| 2025-04-26T11:06:00 | 53.914866 | 6.222552 | 2.0 | 8.691 | 2 | 34.885 | 9.109 | 32.533 | 2 |
| 2025-04-26T11:07:00 | 53.915022 | 6.222573 | 2.0 | 9.071 | 2 | 34.849 | 8.937 | 32.654 | 2 |
| 2025-04-26T11:08:00 | 53.915171 | 6.222636 | 2.0 | 9.084 | 2 | 34.786 | 9.240 | 32.312 | 2 |
| 2025-04-26T11:09:00 | 53.915340 | 6.222814 | 2.0 | 9.142 | 2 | 34.954 | 9.237 | 32.488 | 2 |
| 2025-04-26T11:10:00 | 53.915539 | 6.223084 | 2.0 | 9.124 | 2 | 35.005 | 9.318 | 32.467 | 2 |
| 2025-04-26T11:11:00 | 53.915733 | 6.223451 | 2.0 | 9.215 | 2 | 35.041 | 9.336 | 32.488 | 2 |
| 2025-04-26T11:12:00 | 53.915906 | 6.223880 | 2.0 | 9.181 | 2 | 35.029 | 9.397 | 32.420 | 2 |
| 2025-04-26T11:13:00 | 53.916083 | 6.224295 | 2.0 | 8.993 | 2 | 34.923 | 9.330 | 32.372 | 2 |
| 2025-04-26T11:14:00 | 53.916286 | 6.224616 | 2.0 | 8.755 | 2 | 35.134 | 9.166 | 32.739 | 2 |
| 2025-04-26T11:15:00 | 53.916484 | 6.224886 | 2.0 | 8.681 | 2 | 35.017 | 8.955 | 32.812 | 2 |
| 2025-04-26T11:16:00 | 53.916640 | 6.225168 | 2.0 | 8.825 | 2 | 34.978 | 8.922 | 32.802 | 2 |
| 2025-04-26T11:17:00 | 53.916765 | 6.225490 | 2.0 | 9.036 | 2 | 35.042 | 9.073 | 32.729 | 2 |
| 2025-04-26T11:18:00 | 53.916891 | 6.225837 | 2.0 | 9.054 | 2 | 35.138 | 9.223 | 32.691 | 2 |
| 2025-04-26T11:19:00 | 53.917027 | 6.226165 | 2.0 | 8.790 | 2 | 35.154 | 9.210 | 32.719 | 2 |
| 2025-04-26T11:20:00 | 53.917206 | 6.226397 | 2.0 | 9.044 | 2 | 35.032 | 9.015 | 32.772 | 2 |
| 2025-04-26T11:21:00 | 53.917223 | 6.227008 | 2.0 | 8.826 | 2 | 35.141 | 9.208 | 32.708 | 2 |
| 2025-04-26T11:22:00 | 53.916574 | 6.228294 | 2.0 | 8.787 | 2 | 35.089 | 9.108 | 32.746 | 2 |
| 2025-04-26T11:23:00 | 53.915452 | 6.228331 | 2.0 | 8.782 | 2 | 35.016 | 9.001 | 32.768 | 2 |
| 2025-04-26T11:24:00 | 53.914673 | 6.226909 | 2.0 | 8.942 | 2 | 35.002 | 9.015 | 32.741 | 2 |
| 2025-04-26T11:25:00 | 53.914448 | 6.225318 | 2.0 | 8.804 | 2 | 35.074 | 9.130 | 32.710 | 2 |
| 2025-04-26T11:26:00 | 53.914565 | 6.224010 | 2.0 | 8.949 | 2 | 34.998 | 9.027 | 32.726 | 2 |
| 2025-04-26T11:27:00 | 53.914795 | 6.222984 | 2.0 | 8.959 | 2 | 35.119 | 9.210 | 32.683 | 2 |
| 2025-04-26T11:28:00 | 53.914991 | 6.222561 | 2.0 | 8.666 | 2 | 35.102 | 9.064 | 32.800 | 2 |
| 2025-04-26T11:29:00 | 53.915148 | 6.222459 | 2.0 | 8.730 | 2 | 34.888 | 8.894 | 32.734 | 2 |
| 2025-04-26T11:30:00 | 53.915324 | 6.222629 | 2.0 | 8.788 | 2 | 34.561 | 8.941 | 32.350 | 2 |
| 2025-04-26T11:31:00 | 53.915476 | 6.222842 | 2.0 | 8.891 | 2 | 35.022 | 9.025 | 32.752 | 2 |
| 2025-04-26T11:32:00 | 53.915616 | 6.223075 | 2.0 | 9.017 | 2 | 35.077 | 9.117 | 32.725 | 2 |
| 2025-04-26T11:33:00 | 53.915744 | 6.223319 | 2.0 | 9.131 | 2 | 35.124 | 9.204 | 32.694 | 2 |
| 2025-04-26T11:34:00 | 53.915867 | 6.223545 | 2.0 | 9.060 | 2 | 35.241 | 9.352 | 32.679 | 2 |
| 2025-04-26T11:35:00 | 53.915984 | 6.223767 | 2.0 | 8.690 | 2 | 35.160 | 9.154 | 32.777 | 2 |
| 2025-04-26T11:36:00 | 53.916092 | 6.223989 | 2.0 | 8.819 | 2 | 34.969 | 8.918 | 32.796 | 2 |
| 2025-04-26T11:37:00 | 53.916196 | 6.224215 | 2.0 | 8.975 | 2 | 35.080 | 9.073 | 32.768 | 2 |
| 2025-04-26T11:38:00 | 53.916303 | 6.224413 | 2.0 | 8.786 | 2 | 35.109 | 9.105 | 32.769 | 2 |
| 2025-04-26T11:39:00 | 53.916412 | 6.224620 | 2.0 | 8.966 | 2 | 34.844 | 9.061 | 32.535 | 2 |
| 2025-04-26T11:40:00 | 53.916513 | 6.224832 | 2.0 | 9.066 | 2 | 35.004 | 9.205 | 32.569 | 2 |
| 2025-04-26T11:41:00 | 53.916618 | 6.225047 | 2.0 | 8.883 | 2 | 35.024 | 9.173 | 32.619 | 2 |
| 2025-04-26T11:42:00 | 53.916727 | 6.225265 | 2.0 | 8.993 | 2 | 35.083 | 9.095 | 32.751 | 2 |
| 2025-04-26T11:43:00 | 53.916820 | 6.225467 | 2.0 | 8.952 | 2 | 35.011 | 9.212 | 32.570 | 2 |
| 2025-04-26T11:44:00 | 53.916925 | 6.225665 | 2.0 | 9.089 | 2 | 35.170 | 9.176 | 32.767 | 2 |
| 2025-04-26T11:45:00 | 53.917027 | 6.225870 | 2.0 | 9.119 | 2 | 35.264 | 9.287 | 32.762 | 2 |
| 2025-04-26T11:46:00 | 53.917168 | 6.225981 | 2.0 | 8.753 | 2 | 35.110 | 9.201 | 32.682 | 2 |
| 2025-04-26T11:47:00 | 53.917344 | 6.226150 | 2.0 | 8.747 | 2 | 34.780 | 8.988 | 32.535 | 2 |
| 2025-04-26T11:48:00 | 53.917413 | 6.226765 | 2.0 | 8.760 | 2 | 34.852 | 8.975 | 32.622 | 2 |
| 2025-04-26T11:49:00 | 53.916969 | 6.227958 | 2.0 | 8.795 | 2 | 34.965 | 8.981 | 32.734 | 2 |
| 2025-04-26T11:50:00 | 53.916141 | 6.228997 | 2.0 | 8.824 | 2 | 34.983 | 9.014 | 32.722 | 2 |
| 2025-04-26T11:51:00 | 53.914954 | 6.228538 | 2.0 | 8.764 | 2 | 35.016 | 9.043 | 32.730 | 2 |
| 2025-04-26T11:52:00 | 53.913875 | 6.226989 | 2.0 | 8.800 | 2 | 34.962 | 8.975 | 32.736 | 2 |
| 2025-04-26T11:53:00 | 53.912668 | 6.226372 | 2.0 | 8.914 | 2 | 34.916 | 9.058 | 32.612 | 2 |
| 2025-04-26T11:54:00 | 53.911512 | 6.226657 | 2.0 | 8.886 | 2 | 34.904 | 9.123 | 32.540 | 2 |
| 2025-04-26T11:55:00 | 53.910330 | 6.227694 | 2.0 | 8.767 | 2 | 34.935 | 9.081 | 32.611 | 2 |
| 2025-04-26T11:56:00 | 53.908949 | 6.229140 | 2.0 | 8.803 | 2 | 34.853 | 8.989 | 32.610 | 2 |
| 2025-04-26T11:57:00 | 53.907469 | 6.230709 | 2.0 | 9.075 | 2 | 35.049 | 9.077 | 32.733 | 2 |
| 2025-04-26T11:58:00 | 53.906152 | 6.232076 | 2.0 | 9.233 | 2 | 34.972 | 9.298 | 32.451 | 2 |
| 2025-04-26T11:59:00 | 53.905106 | 6.233280 | 2.0 | 9.039 | 2 | 35.305 | 9.392 | 32.708 | 2 |
| 2025-04-26T12:00:00 | 53.904091 | 6.234408 | 2.0 | 8.790 | 2 | 35.077 | 9.186 | 32.662 | 2 |
| 2025-04-26T12:01:00 | 53.903100 | 6.235715 | 2.0 | 8.831 | 2 | 34.920 | 9.016 | 32.655 | 2 |
| 2025-04-26T12:02:00 | 53.902299 | 6.236946 | 2.0 | 8.816 | 2 | 34.834 | 9.068 | 32.518 | 2 |
| 2025-04-26T12:03:00 | 53.901636 | 6.238050 | 2.0 | 8.800 | 2 | 34.922 | 9.032 | 32.642 | 2 |
| 2025-04-26T12:04:00 | 53.900991 | 6.239001 | 2.0 | 8.770 | 2 | 34.855 | 9.034 | 32.571 | 2 |
| 2025-04-26T12:05:00 | 53.900215 | 6.239476 | 2.0 | 8.778 | 2 | 34.844 | 8.984 | 32.605 | 2 |
| 2025-04-26T12:06:00 | 53.899381 | 6.239679 | 2.0 | 8.809 | 2 | 34.880 | 9.004 | 32.624 | 2 |
| 2025-04-26T12:07:00 | 53.898827 | 6.239940 | 2.0 | 9.177 | 2 | 34.897 | 9.010 | 32.636 | 2 |
| 2025-04-26T12:08:00 | 53.898793 | 6.240188 | 2.0 | 9.217 | 2 | 35.268 | 9.480 | 32.590 | 2 |
| 2025-04-26T12:09:00 | 53.899013 | 6.240814 | 2.0 | 8.846 | 2 | 35.191 | 9.299 | 32.676 | 2 |
| 2025-04-26T12:10:00 | 53.899294 | 6.241541 | 2.0 | 8.777 | 2 | 34.898 | 9.072 | 32.581 | 2 |
| 2025-04-26T12:11:00 | 53.899539 | 6.242186 | 2.0 | 8.747 | 2 | 34.779 | 8.981 | 32.540 | 2 |
| 2025-04-26T12:12:00 | 53.899765 | 6.242832 | 2.0 | 8.701 | 2 | 34.781 | 8.953 | 32.568 | 2 |
| 2025-04-26T12:13:00 | 53.900045 | 6.243665 | 2.0 | 8.707 | 2 | 34.836 | 8.918 | 32.657 | 2 |
| 2025-04-26T12:14:00 | 53.900333 | 6.244507 | 2.0 | 8.693 | 2 | 34.837 | 8.930 | 32.647 | 2 |
| 2025-04-26T12:15:00 | 53.900585 | 6.245259 | 2.0 | 8.703 | 2 | 34.818 | 8.901 | 32.654 | 2 |
| 2025-04-26T12:16:00 | 53.900692 | 6.245584 | 2.0 | 8.763 | 2 | 34.870 | 8.928 | 32.684 | 2 |
| 2025-04-26T12:17:00 | 53.900718 | 6.245770 | 2.0 | 9.298 | 2 | 34.960 | 9.024 | 32.689 | 2 |
| 2025-04-26T12:18:00 | 53.900586 | 6.246178 | 2.0 | 9.334 | 2 | 35.324 | 9.563 | 32.572 | 2 |
| 2025-04-26T12:19:00 | 53.900520 | 6.246558 | 2.0 | 9.206 | 2 | 35.292 | 9.465 | 32.628 | 2 |
| 2025-04-26T12:20:00 | 53.900505 | 6.246880 | 2.0 | 9.102 | 2 | 35.234 | 9.368 | 32.657 | 2 |
| 2025-04-26T12:21:00 | 53.900369 | 6.247136 | 2.0 | 9.365 | 2 | 35.308 | 9.410 | 32.695 | 2 |
| 2025-04-26T12:22:00 | 53.900140 | 6.247554 | 2.0 | 9.146 | 2 | 35.441 | 9.460 | 32.786 | 2 |
| 2025-04-26T12:23:00 | 53.900111 | 6.247848 | 2.0 | 9.070 | 2 | 35.407 | 9.363 | 32.840 | 2 |
| 2025-04-26T12:24:00 | 53.900050 | 6.248058 | 2.0 | 9.054 | 2 | 35.428 | 9.263 | 32.954 | 2 |
| 2025-04-26T12:25:00 | 53.899982 | 6.248094 | 2.0 | 9.191 | 2 | 35.429 | 9.299 | 32.922 | 2 |
| 2025-04-26T12:26:00 | 53.899931 | 6.248154 | 2.0 | 9.238 | 2 | 35.517 | 9.401 | 32.918 | 2 |
| 2025-04-26T12:27:00 | 53.899831 | 6.248445 | 2.0 | 9.241 | 2 | 35.532 | 9.445 | 32.893 | 2 |
| 2025-04-26T12:28:00 | 53.899680 | 6.248597 | 2.0 | 9.274 | 2 | 35.555 | 9.469 | 32.895 | 2 |
| 2025-04-26T12:29:00 | 53.899473 | 6.248659 | 2.0 | 9.332 | 2 | 35.587 | 9.495 | 32.904 | 2 |
| 2025-04-26T12:30:00 | 53.899400 | 6.248652 | 2.0 | 9.253 | 2 | 35.620 | 9.515 | 32.920 | 2 |
| 2025-04-26T12:31:00 | 53.899456 | 6.248444 | 2.0 | 9.315 | 2 | 35.576 | 9.469 | 32.917 | 2 |
| 2025-04-26T12:32:00 | 53.899600 | 6.248518 | 2.0 | 9.267 | 2 | 35.620 | 9.538 | 32.898 | 2 |
| 2025-04-26T12:33:00 | 53.899738 | 6.248830 | 2.0 | 9.272 | 2 | 35.578 | 9.484 | 32.905 | 2 |
| 2025-04-26T12:34:00 | 53.899723 | 6.248892 | 2.0 | 9.276 | 2 | 35.571 | 9.497 | 32.886 | 2 |
| 2025-04-26T12:35:00 | 53.899642 | 6.248924 | 2.0 | 9.238 | 2 | 35.554 | 9.476 | 32.888 | 2 |
| 2025-04-26T12:36:00 | 53.899534 | 6.249073 | 2.0 | 9.265 | 2 | 35.544 | 9.461 | 32.891 | 2 |
| 2025-04-26T12:37:00 | 53.899527 | 6.249113 | 2.0 | 9.276 | 2 | 35.544 | 9.475 | 32.878 | 2 |
| 2025-04-26T12:38:00 | 53.899414 | 6.249277 | 2.0 | 9.223 | 2 | 35.555 | 9.485 | 32.880 | 2 |
| 2025-04-26T12:39:00 | 53.899405 | 6.249422 | 2.0 | 9.214 | 2 | 35.515 | 9.438 | 32.882 | 2 |
| 2025-04-26T12:40:00 | 53.899499 | 6.249338 | 2.0 | 9.243 | 2 | 35.492 | 9.426 | 32.870 | 2 |
| 2025-04-26T12:41:00 | 53.899625 | 6.249304 | 2.0 | 9.202 | 2 | 35.509 | 9.467 | 32.850 | 2 |
| 2025-04-26T12:42:00 | 53.899795 | 6.249739 | 2.0 | 9.100 | 2 | 35.472 | 9.400 | 32.873 | 2 |
| 2025-04-26T12:43:00 | 53.900318 | 6.249981 | 2.0 | 9.121 | 2 | 35.408 | 9.338 | 32.864 | 2 |
| 2025-04-26T12:44:00 | 53.901227 | 6.250367 | 2.0 | 9.038 | 2 | 35.376 | 9.298 | 32.868 | 2 |
| 2025-04-26T12:45:00 | 53.902363 | 6.251095 | 2.0 | 9.006 | 2 | 35.307 | 9.259 | 32.832 | 2 |
| 2025-04-26T12:46:00 | 53.903628 | 6.252005 | 2.0 | 9.068 | 2 | 35.313 | 9.230 | 32.865 | 2 |
| 2025-04-26T12:47:00 | 53.904992 | 6.252837 | 2.0 | 9.127 | 2 | 35.299 | 9.301 | 32.786 | 2 |
| 2025-04-26T12:48:00 | 53.906462 | 6.253599 | 2.0 | 9.130 | 2 | 35.382 | 9.347 | 32.829 | 2 |
| 2025-04-26T12:49:00 | 53.908005 | 6.254063 | 2.0 | 9.150 | 2 | 35.414 | 9.337 | 32.871 | 2 |
| 2025-04-26T12:50:00 | 53.909703 | 6.253711 | 2.0 | 9.315 | 2 | 35.441 | 9.395 | 32.846 | 2 |
| 2025-04-26T12:51:00 | 53.911633 | 6.253271 | 2.0 | 9.288 | 2 | 35.540 | 9.516 | 32.836 | 2 |
| 2025-04-26T12:52:00 | 53.913717 | 6.252847 | 2.0 | 9.270 | 2 | 35.507 | 9.475 | 32.840 | 2 |
| 2025-04-26T12:53:00 | 53.915840 | 6.252871 | 2.0 | 9.295 | 2 | 35.507 | 9.484 | 32.832 | 2 |
| 2025-04-26T12:54:00 | 53.917971 | 6.253118 | 2.0 | 9.064 | 2 | 35.475 | 9.428 | 32.850 | 2 |
| 2025-04-26T12:55:00 | 53.920110 | 6.253332 | 2.0 | 8.988 | 2 | 35.365 | 9.278 | 32.875 | 2 |
| 2025-04-26T12:56:00 | 53.922263 | 6.253567 | 2.0 | 8.955 | 2 | 35.315 | 9.237 | 32.861 | 2 |
| 2025-04-26T12:57:00 | 53.924289 | 6.253910 | 2.0 | 9.302 | 2 | 35.314 | 9.232 | 32.864 | 2 |
| 2025-04-26T12:58:00 | 53.926248 | 6.254333 | 2.0 | 9.316 | 2 | 35.506 | 9.466 | 32.847 | 2 |
| 2025-04-26T12:59:00 | 53.928159 | 6.254830 | 2.0 | 9.348 | 2 | 35.555 | 9.524 | 32.845 | 2 |
| 2025-04-26T13:00:00 | 53.930017 | 6.255405 | 2.0 | 9.192 | 2 | 35.571 | 9.522 | 32.863 | 2 |
| 2025-04-26T13:01:00 | 53.931851 | 6.255993 | 2.0 | 9.157 | 2 | 35.485 | 9.402 | 32.885 | 2 |
| 2025-04-26T13:02:00 | 53.933689 | 6.256590 | 2.0 | 9.283 | 2 | 35.458 | 9.391 | 32.867 | 2 |
| 2025-04-26T13:03:00 | 53.935519 | 6.257185 | 2.0 | 9.244 | 2 | 35.567 | 9.523 | 32.858 | 2 |
| 2025-04-26T13:04:00 | 53.937268 | 6.257999 | 2.0 | 8.928 | 2 | 35.533 | 9.411 | 32.926 | 2 |
| 2025-04-26T13:05:00 | 53.938909 | 6.259141 | 2.0 | 9.139 | 2 | 35.373 | 9.230 | 32.927 | 2 |
| 2025-04-26T13:06:00 | 53.940430 | 6.260585 | 2.0 | 9.474 | 2 | 35.486 | 9.405 | 32.883 | 2 |
| 2025-04-26T13:07:00 | 53.941852 | 6.262181 | 2.0 | 9.473 | 2 | 35.713 | 9.677 | 32.866 | 2 |
| 2025-04-26T13:08:00 | 53.943095 | 6.263527 | 2.0 | 9.463 | 2 | 35.712 | 9.644 | 32.896 | 2 |
| 2025-04-26T13:09:00 | 53.943735 | 6.264798 | 2.0 | 9.393 | 2 | 35.706 | 9.650 | 32.884 | 2 |
| 2025-04-26T13:10:00 | 53.944237 | 6.265728 | 2.0 | 9.513 | 2 | 35.681 | 9.624 | 32.882 | 2 |
| 2025-04-26T13:11:00 | 53.944609 | 6.266410 | 2.0 | 9.063 | 2 | 35.712 | 9.628 | 32.910 | 2 |
| 2025-04-26T13:12:00 | 53.944840 | 6.266904 | 2.0 | 9.006 | 2 | 35.415 | 9.199 | 32.999 | 2 |
| 2025-04-26T13:13:00 | 53.945032 | 6.267257 | 2.0 | 8.749 | 2 | 35.373 | 9.197 | 32.958 | 2 |
| 2025-04-26T13:14:00 | 53.945149 | 6.267542 | 2.0 | 8.823 | 2 | 34.753 | 9.004 | 32.492 | 2 |
| 2025-04-26T13:15:00 | 53.945241 | 6.267875 | 2.0 | 9.213 | 2 | 35.326 | 9.178 | 32.927 | 2 |
| 2025-04-26T13:16:00 | 53.945335 | 6.268392 | 2.0 | 9.479 | 2 | 35.567 | 9.465 | 32.911 | 2 |
| 2025-04-26T13:17:00 | 53.945438 | 6.268923 | 2.0 | 9.352 | 2 | 35.700 | 9.641 | 32.886 | 2 |
| 2025-04-26T13:18:00 | 53.945513 | 6.269327 | 2.0 | 9.359 | 2 | 35.650 | 9.609 | 32.864 | 2 |
| 2025-04-26T13:19:00 | 53.945555 | 6.269653 | 2.0 | 9.494 | 2 | 35.512 | 9.623 | 32.710 | 2 |
| 2025-04-26T13:20:00 | 53.945568 | 6.269901 | 2.0 | 9.493 | 2 | 35.697 | 9.593 | 32.927 | 2 |
| 2025-04-26T13:21:00 | 53.945586 | 6.270104 | 2.0 | 9.402 | 2 | 35.487 | 9.649 | 32.661 | 2 |
| 2025-04-26T13:22:00 | 53.945613 | 6.270324 | 2.0 | 9.606 | 2 | 35.721 | 9.669 | 32.882 | 2 |
| 2025-04-26T13:23:00 | 53.945642 | 6.270512 | 2.0 | 9.627 | 2 | 35.822 | 9.796 | 32.869 | 2 |
| 2025-04-26T13:24:00 | 53.945658 | 6.270610 | 2.0 | 9.639 | 2 | 35.833 | 9.799 | 32.877 | 2 |
| 2025-04-26T13:25:00 | 53.945658 | 6.270572 | 2.0 | 9.703 | 2 | 35.827 | 9.855 | 32.820 | 2 |
| 2025-04-26T13:26:00 | 53.945642 | 6.270584 | 2.0 | 9.706 | 2 | 35.623 | 9.901 | 32.571 | 2 |
| 2025-04-26T13:27:00 | 53.945289 | 6.270321 | 2.0 | 8.900 | 2 | 35.669 | 9.864 | 32.651 | 2 |
| 2025-04-26T13:28:00 | 53.944726 | 6.269245 | 2.0 | 8.736 | 2 | 35.266 | 9.094 | 32.942 | 2 |
| 2025-04-26T13:29:00 | 53.944130 | 6.268071 | 2.0 | 8.983 | 2 | 35.187 | 9.001 | 32.946 | 2 |
| 2025-04-26T13:30:00 | 53.943588 | 6.267369 | 2.0 | 9.120 | 2 | 35.130 | 9.211 | 32.693 | 2 |
| 2025-04-26T13:31:00 | 53.943136 | 6.266916 | 2.0 | 9.302 | 2 | 35.225 | 9.382 | 32.635 | 2 |
| 2025-04-26T13:32:00 | 53.942832 | 6.266628 | 2.0 | 9.628 | 2 | 35.590 | 9.594 | 32.816 | 2 |
| 2025-04-26T13:33:00 | 53.942658 | 6.266952 | 2.0 | 9.641 | 2 | 35.552 | 9.836 | 32.558 | 2 |
| 2025-04-26T13:34:00 | 53.942632 | 6.267364 | 2.0 | 9.702 | 2 | 35.647 | 9.853 | 32.639 | 2 |
| 2025-04-26T13:35:00 | 53.942599 | 6.267590 | 2.0 | 9.699 | 2 | 35.824 | 9.894 | 32.782 | 2 |
| 2025-04-26T13:36:00 | 53.942556 | 6.267762 | 2.0 | 9.659 | 2 | 35.869 | 9.899 | 32.823 | 2 |
| 2025-04-26T13:37:00 | 53.942594 | 6.267884 | 2.0 | 9.654 | 2 | 35.831 | 9.861 | 32.819 | 2 |
| 2025-04-26T13:38:00 | 53.942669 | 6.268068 | 2.0 | 9.578 | 2 | 35.557 | 9.812 | 32.584 | 2 |
| 2025-04-26T13:39:00 | 53.942704 | 6.268208 | 2.0 | 9.466 | 2 | 35.586 | 9.781 | 32.642 | 2 |
| 2025-04-26T13:40:00 | 53.942703 | 6.268183 | 2.0 | 9.658 | 2 | 35.634 | 9.663 | 32.798 | 2 |
| 2025-04-26T13:41:00 | 53.942478 | 6.268119 | 2.0 | 9.183 | 2 | 35.813 | 9.837 | 32.822 | 2 |
| 2025-04-26T13:42:00 | 53.941877 | 6.267170 | 2.0 | 8.676 | 2 | 35.449 | 9.254 | 32.984 | 2 |
| 2025-04-26T13:43:00 | 53.941217 | 6.265878 | 2.0 | 8.706 | 2 | 34.934 | 8.943 | 32.736 | 2 |
| 2025-04-26T13:44:00 | 53.940588 | 6.264570 | 2.0 | 8.768 | 2 | 35.157 | 8.965 | 32.948 | 2 |
| 2025-04-26T13:45:00 | 53.940054 | 6.263697 | 2.0 | 9.469 | 2 | 35.040 | 9.167 | 32.641 | 2 |
| 2025-04-26T13:46:00 | 53.939557 | 6.263578 | 2.0 | 9.518 | 2 | 35.431 | 9.651 | 32.602 | 2 |
| 2025-04-26T13:47:00 | 53.939182 | 6.263779 | 2.0 | 9.659 | 2 | 35.522 | 9.746 | 32.608 | 2 |
| 2025-04-26T13:48:00 | 53.939019 | 6.264013 | 2.0 | 9.652 | 2 | 35.768 | 9.864 | 32.752 | 2 |
| 2025-04-26T13:49:00 | 53.938999 | 6.264312 | 2.0 | 9.649 | 2 | 35.680 | 9.846 | 32.679 | 2 |
| 2025-04-26T13:50:00 | 53.938964 | 6.264458 | 2.0 | 9.660 | 2 | 35.720 | 9.852 | 32.714 | 2 |
| 2025-04-26T13:51:00 | 53.938954 | 6.264571 | 2.0 | 9.661 | 2 | 35.696 | 9.861 | 32.681 | 2 |
| 2025-04-26T13:52:00 | 53.939005 | 6.264796 | 2.0 | 9.638 | 2 | 35.546 | 9.866 | 32.524 | 2 |
| 2025-04-26T13:53:00 | 53.939076 | 6.265130 | 2.0 | 9.652 | 2 | 35.597 | 9.843 | 32.597 | 2 |
| 2025-04-26T13:54:00 | 53.939119 | 6.265283 | 2.0 | 9.682 | 2 | 35.671 | 9.853 | 32.663 | 2 |
| 2025-04-26T13:55:00 | 53.939055 | 6.264962 | 2.0 | 9.722 | 2 | 35.567 | 9.899 | 32.516 | 2 |
| 2025-04-26T13:56:00 | 53.938883 | 6.264775 | 2.0 | 9.679 | 2 | 35.729 | 9.931 | 32.652 | 2 |
| 2025-04-26T13:57:00 | 53.938357 | 6.264009 | 2.0 | 9.162 | 2 | 35.576 | 9.785 | 32.628 | 2 |
| 2025-04-26T13:58:00 | 53.937717 | 6.261801 | 2.0 | 9.373 | 2 | 35.360 | 9.412 | 32.747 | 2 |
| 2025-04-26T13:59:00 | 53.936685 | 6.258182 | 2.0 | 9.381 | 2 | 35.416 | 9.593 | 32.639 | 2 |
| 2025-04-26T14:00:00 | 53.935403 | 6.253787 | 2.0 | 9.311 | 2 | 35.374 | 9.539 | 32.645 | 2 |
| 2025-04-26T14:01:00 | 53.934049 | 6.249155 | 2.0 | 9.402 | 2 | 35.416 | 9.530 | 32.696 | 2 |
| 2025-04-26T14:02:00 | 53.932668 | 6.244455 | 2.0 | 9.058 | 2 | 35.427 | 9.513 | 32.723 | 2 |
| 2025-04-26T14:03:00 | 53.931297 | 6.239734 | 2.0 | 9.381 | 2 | 35.291 | 9.363 | 32.720 | 2 |
| 2025-04-26T14:04:00 | 53.929938 | 6.234998 | 2.0 | 9.353 | 2 | 35.437 | 9.535 | 32.713 | 2 |
| 2025-04-26T14:05:00 | 53.928738 | 6.230760 | 2.0 | 9.563 | 2 | 35.476 | 9.590 | 32.703 | 2 |
| 2025-04-26T14:06:00 | 53.927622 | 6.227044 | 2.0 | 9.455 | 2 | 35.634 | 9.743 | 32.725 | 2 |
| 2025-04-26T14:07:00 | 53.926468 | 6.223469 | 2.0 | 9.389 | 2 | 35.544 | 9.632 | 32.735 | 2 |
| 2025-04-26T14:08:00 | 53.925168 | 6.220136 | 2.0 | 9.409 | 2 | 35.495 | 9.600 | 32.714 | 2 |
| 2025-04-26T14:09:00 | 53.923723 | 6.217083 | 2.0 | 9.502 | 2 | 35.512 | 9.626 | 32.707 | 2 |
| 2025-04-26T14:10:00 | 53.922309 | 6.214129 | 2.0 | 9.492 | 2 | 35.595 | 9.693 | 32.731 | 2 |
| 2025-04-26T14:11:00 | 53.921039 | 6.212754 | 2.0 | 9.637 | 2 | 35.589 | 9.737 | 32.685 | 2 |
| 2025-04-26T14:12:00 | 53.920713 | 6.212913 | 2.0 | 9.673 | 2 | 35.701 | 9.844 | 32.702 | 2 |
| 2025-04-26T14:13:00 | 53.920775 | 6.213679 | 2.0 | 9.659 | 2 | 35.746 | 9.881 | 32.714 | 2 |
| 2025-04-26T14:14:00 | 53.920839 | 6.214534 | 2.0 | 9.648 | 2 | 35.718 | 9.865 | 32.700 | 2 |
| 2025-04-26T14:15:00 | 53.920870 | 6.215334 | 2.0 | 9.656 | 2 | 35.723 | 9.859 | 32.711 | 2 |
| 2025-04-26T14:16:00 | 53.920879 | 6.216272 | 2.0 | 9.664 | 2 | 35.734 | 9.866 | 32.716 | 2 |
| 2025-04-26T14:17:00 | 53.920880 | 6.217014 | 2.0 | 9.688 | 2 | 35.739 | 9.877 | 32.711 | 2 |
| 2025-04-26T14:18:00 | 53.920893 | 6.217502 | 2.0 | 9.710 | 2 | 35.732 | 9.904 | 32.679 | 2 |
| 2025-04-26T14:19:00 | 53.920888 | 6.217900 | 2.0 | 9.753 | 2 | 35.743 | 9.923 | 32.673 | 2 |
| 2025-04-26T14:20:00 | 53.920880 | 6.218277 | 2.0 | 9.783 | 2 | 35.775 | 9.966 | 32.667 | 2 |
| 2025-04-26T14:21:00 | 53.920873 | 6.218526 | 2.0 | 9.796 | 2 | 35.807 | 9.992 | 32.676 | 2 |
| 2025-04-26T14:22:00 | 53.920871 | 6.218593 | 2.0 | 9.797 | 2 | 35.821 | 10.000 | 32.683 | 2 |
| 2025-04-26T14:23:00 | 53.920871 | 6.218773 | 2.0 | 9.788 | 2 | 35.811 | 10.001 | 32.672 | 2 |
| 2025-04-26T14:24:00 | 53.920884 | 6.218988 | 2.0 | 9.772 | 2 | 35.790 | 9.988 | 32.662 | 2 |
| 2025-04-26T14:25:00 | 53.920876 | 6.218964 | 2.0 | 9.784 | 2 | 35.799 | 9.984 | 32.675 | 2 |
| 2025-04-26T14:26:00 | 53.920778 | 6.218949 | 2.0 | 9.678 | 2 | 35.806 | 9.996 | 32.671 | 2 |
| 2025-04-26T14:27:00 | 53.920195 | 6.218614 | 2.0 | 9.624 | 2 | 35.677 | 9.812 | 32.707 | 2 |
| 2025-04-26T14:28:00 | 53.919270 | 6.218339 | 2.0 | 9.648 | 2 | 35.667 | 9.838 | 32.673 | 2 |
| 2025-04-26T14:29:00 | 53.918533 | 6.218344 | 2.0 | 9.699 | 2 | 35.671 | 9.842 | 32.673 | 2 |
| 2025-04-26T14:30:00 | 53.918297 | 6.218727 | 2.0 | 9.720 | 2 | 35.714 | 9.909 | 32.656 | 2 |
| 2025-04-26T14:31:00 | 53.918218 | 6.219391 | 2.0 | 9.672 | 2 | 35.725 | 9.920 | 32.658 | 2 |
| 2025-04-26T14:32:00 | 53.918134 | 6.220236 | 2.0 | 9.656 | 2 | 35.692 | 9.876 | 32.664 | 2 |
| 2025-04-26T14:33:00 | 53.918076 | 6.220831 | 2.0 | 9.703 | 2 | 35.680 | 9.872 | 32.655 | 2 |
| 2025-04-26T14:34:00 | 53.918058 | 6.221163 | 2.0 | 9.731 | 2 | 35.700 | 9.915 | 32.637 | 2 |
| 2025-04-26T14:35:00 | 53.918074 | 6.221450 | 2.0 | 9.778 | 2 | 35.726 | 9.945 | 32.636 | 2 |
| 2025-04-26T14:36:00 | 53.918052 | 6.221605 | 2.0 | 9.800 | 2 | 35.759 | 9.989 | 32.630 | 2 |
| 2025-04-26T14:37:00 | 53.918048 | 6.221878 | 2.0 | 9.810 | 2 | 35.777 | 10.011 | 32.628 | 2 |
| 2025-04-26T14:38:00 | 53.918046 | 6.221991 | 2.0 | 9.851 | 2 | 35.777 | 10.016 | 32.624 | 2 |
| 2025-04-26T14:39:00 | 53.918028 | 6.221867 | 2.0 | 9.905 | 2 | 35.806 | 10.061 | 32.612 | 2 |
| 2025-04-26T14:40:00 | 53.917761 | 6.221951 | 2.0 | 9.662 | 2 | 35.800 | 10.038 | 32.627 | 2 |
| 2025-04-26T14:41:00 | 53.917190 | 6.222564 | 2.0 | 9.631 | 2 | 35.682 | 9.894 | 32.637 | 2 |
| 2025-04-26T14:42:00 | 53.916606 | 6.223558 | 2.0 | 9.632 | 2 | 35.630 | 9.838 | 32.635 | 2 |
| 2025-04-26T14:43:00 | 53.916162 | 6.224634 | 2.0 | 9.702 | 2 | 35.611 | 9.827 | 32.626 | 2 |
| 2025-04-26T14:44:00 | 53.916036 | 6.225529 | 2.0 | 9.770 | 2 | 35.670 | 9.919 | 32.603 | 2 |
| 2025-04-26T14:45:00 | 53.915999 | 6.225974 | 2.0 | 9.868 | 2 | 35.717 | 9.988 | 32.588 | 2 |
| 2025-04-26T14:46:00 | 53.916013 | 6.226165 | 2.0 | 9.898 | 2 | 35.777 | 10.071 | 32.574 | 2 |
| 2025-04-26T14:47:00 | 53.916048 | 6.226357 | 2.0 | 9.936 | 2 | 35.804 | 10.107 | 32.569 | 2 |
| 2025-04-26T14:48:00 | 53.916091 | 6.226441 | 2.0 | 9.957 | 2 | 35.821 | 10.140 | 32.556 | 2 |
| 2025-04-26T14:49:00 | 53.916148 | 6.226397 | 2.0 | 9.998 | 2 | 35.843 | 10.174 | 32.548 | 2 |
| 2025-04-26T14:50:00 | 53.916204 | 6.226243 | 2.0 | 9.988 | 2 | 35.857 | 10.201 | 32.538 | 2 |
| 2025-04-26T14:51:00 | 53.916302 | 6.226173 | 2.0 | 9.978 | 2 | 35.858 | 10.200 | 32.540 | 2 |
| 2025-04-26T14:52:00 | 53.916408 | 6.226470 | 2.0 | 9.882 | 2 | 35.838 | 10.164 | 32.552 | 2 |
| 2025-04-26T14:53:00 | 53.916455 | 6.227749 | 2.0 | 9.671 | 2 | 35.779 | 10.065 | 32.581 | 2 |
| 2025-04-26T14:54:00 | 53.916184 | 6.229854 | 2.0 | 9.657 | 2 | 35.658 | 9.894 | 32.613 | 2 |
| 2025-04-26T14:55:00 | 53.915783 | 6.232831 | 2.0 | 9.777 | 2 | 35.650 | 9.883 | 32.615 | 2 |
| 2025-04-26T14:56:00 | 53.915314 | 6.236316 | 2.0 | 9.727 | 2 | 35.700 | 9.970 | 32.587 | 2 |
| 2025-04-26T14:57:00 | 53.914719 | 6.240516 | 2.0 | 9.455 | 2 | 35.635 | 9.858 | 32.622 | 2 |
| 2025-04-26T14:58:00 | 53.914117 | 6.245048 | 2.0 | 9.493 | 2 | 35.484 | 9.653 | 32.654 | 2 |
| 2025-04-26T14:59:00 | 53.913098 | 6.249410 | 2.0 | 9.536 | 2 | 35.413 | 9.681 | 32.556 | 2 |
| 2025-04-26T15:00:00 | 53.912046 | 6.253807 | 2.0 | 9.787 | 2 | 35.438 | 9.752 | 32.517 | 2 |
| 2025-04-26T15:01:00 | 53.910996 | 6.258216 | 2.0 | 9.085 | 2 | 35.439 | 9.758 | 32.513 | 2 |
| 2025-04-26T15:02:00 | 53.909926 | 6.262629 | 2.0 | 9.557 | 2 | 35.224 | 9.415 | 32.604 | 2 |
| 2025-04-26T15:03:00 | 53.908892 | 6.267036 | 2.0 | 9.896 | 2 | 35.346 | 9.764 | 32.413 | 2 |
| 2025-04-26T15:04:00 | 53.907829 | 6.271436 | 2.0 | 9.950 | 2 | 35.508 | 10.026 | 32.342 | 2 |
| 2025-04-26T15:05:00 | 53.906783 | 6.275838 | 2.0 | 10.026 | 2 | 35.596 | 10.147 | 32.323 | 2 |
| 2025-04-26T15:06:00 | 53.905704 | 6.280230 | 2.0 | 10.059 | 2 | 35.629 | 10.208 | 32.302 | 2 |
| 2025-04-26T15:07:00 | 53.904679 | 6.284589 | 2.0 | 10.066 | 2 | 35.648 | 10.242 | 32.291 | 2 |
| 2025-04-26T15:08:00 | 53.903896 | 6.288098 | 2.0 | 10.068 | 2 | 35.657 | 10.246 | 32.296 | 2 |
| 2025-04-26T15:09:00 | 53.903267 | 6.290903 | 2.0 | 10.048 | 2 | 35.664 | 10.246 | 32.303 | 2 |
| 2025-04-26T15:10:00 | 53.902562 | 6.293607 | 2.0 | 10.058 | 2 | 35.663 | 10.244 | 32.304 | 2 |
| 2025-04-26T15:11:00 | 53.901907 | 6.296302 | 2.0 | 10.042 | 2 | 35.656 | 10.232 | 32.308 | 2 |
| 2025-04-26T15:12:00 | 53.901396 | 6.298888 | 2.0 | 10.078 | 2 | 35.631 | 10.235 | 32.280 | 2 |
| 2025-04-26T15:13:00 | 53.901277 | 6.300952 | 2.0 | 10.097 | 2 | 35.655 | 10.260 | 32.282 | 2 |
| 2025-04-26T15:14:00 | 53.901186 | 6.302578 | 2.0 | 10.083 | 2 | 35.664 | 10.271 | 32.281 | 2 |
| 2025-04-26T15:15:00 | 53.901377 | 6.303652 | 2.0 | 10.073 | 2 | 35.658 | 10.263 | 32.282 | 2 |
| 2025-04-26T15:16:00 | 53.901379 | 6.304390 | 2.0 | 10.087 | 2 | 35.641 | 10.250 | 32.276 | 2 |
| 2025-04-26T15:17:00 | 53.901332 | 6.304870 | 2.0 | 10.129 | 2 | 35.661 | 10.275 | 32.274 | 2 |
| 2025-04-26T15:18:00 | 53.901356 | 6.304995 | 2.0 | 10.122 | 2 | 35.688 | 10.301 | 32.278 | 2 |
| 2025-04-26T15:19:00 | 53.901431 | 6.304933 | 2.0 | 10.112 | 2 | 35.685 | 10.295 | 32.281 | 2 |
| 2025-04-26T15:20:00 | 53.901586 | 6.305060 | 2.0 | 10.076 | 2 | 35.674 | 10.284 | 32.279 | 2 |
| 2025-04-26T15:21:00 | 53.901855 | 6.305915 | 2.0 | 10.090 | 2 | 35.652 | 10.251 | 32.287 | 2 |
| 2025-04-26T15:22:00 | 53.902161 | 6.306970 | 2.0 | 10.068 | 2 | 35.688 | 10.272 | 32.304 | 2 |
| 2025-04-26T15:23:00 | 53.902497 | 6.308178 | 2.0 | 10.005 | 2 | 35.675 | 10.239 | 32.320 | 2 |
| 2025-04-26T15:24:00 | 53.902871 | 6.309576 | 2.0 | 9.944 | 2 | 35.583 | 10.171 | 32.288 | 2 |
| 2025-04-26T15:25:00 | 53.903222 | 6.311253 | 2.0 | 9.874 | 2 | 35.570 | 10.117 | 32.323 | 2 |
| 2025-04-26T15:26:00 | 53.903272 | 6.313154 | 2.0 | 9.856 | 2 | 35.464 | 10.050 | 32.276 | 2 |
| 2025-04-26T15:27:00 | 53.902702 | 6.314863 | 2.0 | 9.961 | 2 | 35.476 | 10.066 | 32.274 | 2 |
| 2025-04-26T15:28:00 | 53.901586 | 6.315829 | 2.0 | 9.816 | 2 | 35.560 | 10.104 | 32.325 | 2 |
| 2025-04-26T15:29:00 | 53.900331 | 6.315563 | 2.0 | 9.724 | 2 | 35.506 | 9.984 | 32.378 | 2 |
| 2025-04-26T15:30:00 | 53.899407 | 6.314070 | 2.0 | 9.682 | 2 | 35.416 | 9.899 | 32.363 | 2 |
| 2025-04-26T15:31:00 | 53.899093 | 6.311964 | 2.0 | 9.734 | 2 | 35.413 | 9.872 | 32.384 | 2 |
| 2025-04-26T15:32:00 | 53.899073 | 6.309758 | 2.0 | 9.843 | 2 | 35.414 | 9.941 | 32.323 | 2 |
| 2025-04-26T15:33:00 | 53.899045 | 6.307575 | 2.0 | 9.942 | 2 | 35.513 | 10.034 | 32.340 | 2 |
| 2025-04-26T15:34:00 | 53.898966 | 6.305441 | 2.0 | 9.867 | 2 | 35.555 | 10.103 | 32.321 | 2 |
| 2025-04-26T15:35:00 | 53.898931 | 6.303333 | 2.0 | 9.919 | 2 | 35.542 | 10.058 | 32.348 | 2 |
| 2025-04-26T15:36:00 | 53.898984 | 6.301250 | 2.0 | 9.981 | 2 | 35.566 | 10.103 | 32.332 | 2 |
| 2025-04-26T15:37:00 | 53.899022 | 6.299189 | 2.0 | 9.994 | 2 | 35.573 | 10.148 | 32.299 | 2 |
| 2025-04-26T15:38:00 | 53.898993 | 6.297123 | 2.0 | 9.998 | 2 | 35.592 | 10.178 | 32.291 | 2 |
| 2025-04-26T15:39:00 | 53.898959 | 6.295050 | 2.0 | 10.033 | 2 | 35.613 | 10.186 | 32.305 | 2 |
| 2025-04-26T15:40:00 | 53.898956 | 6.292988 | 2.0 | 10.040 | 2 | 35.616 | 10.212 | 32.285 | 2 |
| 2025-04-26T15:41:00 | 53.898969 | 6.290946 | 2.0 | 10.095 | 2 | 35.640 | 10.233 | 32.291 | 2 |
| 2025-04-26T15:42:00 | 53.898983 | 6.288903 | 2.0 | 10.090 | 2 | 35.676 | 10.266 | 32.297 | 2 |
| 2025-04-26T15:43:00 | 53.898968 | 6.286866 | 2.0 | 10.078 | 2 | 35.664 | 10.256 | 32.294 | 2 |
| 2025-04-26T15:44:00 | 53.898936 | 6.284830 | 2.0 | 10.056 | 2 | 35.658 | 10.249 | 32.294 | 2 |
| 2025-04-26T15:45:00 | 53.898930 | 6.282807 | 2.0 | 10.075 | 2 | 35.661 | 10.242 | 32.304 | 2 |
| 2025-04-26T15:46:00 | 53.898946 | 6.280753 | 2.0 | 10.070 | 2 | 35.667 | 10.248 | 32.304 | 2 |
| 2025-04-26T15:47:00 | 53.898951 | 6.278670 | 2.0 | 10.043 | 2 | 35.664 | 10.241 | 32.308 | 2 |
| 2025-04-26T15:48:00 | 53.898964 | 6.276577 | 2.0 | 10.072 | 2 | 35.651 | 10.223 | 32.311 | 2 |
| 2025-04-26T15:49:00 | 53.898970 | 6.274472 | 2.0 | 10.101 | 2 | 35.674 | 10.253 | 32.307 | 2 |
| 2025-04-26T15:50:00 | 53.898950 | 6.272365 | 2.0 | 10.077 | 2 | 35.691 | 10.267 | 32.312 | 2 |
| 2025-04-26T15:51:00 | 53.898918 | 6.270252 | 2.0 | 10.052 | 2 | 35.679 | 10.248 | 32.316 | 2 |
| 2025-04-26T15:52:00 | 53.898897 | 6.268156 | 2.0 | 10.060 | 2 | 35.663 | 10.228 | 32.318 | 2 |
| 2025-04-26T15:53:00 | 53.898885 | 6.266073 | 2.0 | 10.056 | 2 | 35.667 | 10.234 | 32.317 | 2 |
| 2025-04-26T15:54:00 | 53.898895 | 6.264001 | 2.0 | 10.066 | 2 | 35.669 | 10.231 | 32.322 | 2 |
| 2025-04-26T15:55:00 | 53.898918 | 6.261932 | 2.0 | 10.067 | 2 | 35.683 | 10.243 | 32.325 | 2 |
| 2025-04-26T15:56:00 | 53.898925 | 6.259862 | 2.0 | 10.052 | 2 | 35.685 | 10.238 | 32.331 | 2 |
| 2025-04-26T15:57:00 | 53.898910 | 6.257820 | 2.0 | 10.046 | 2 | 35.669 | 10.226 | 32.326 | 2 |
| 2025-04-26T15:58:00 | 53.898893 | 6.255769 | 2.0 | 10.053 | 2 | 35.662 | 10.221 | 32.323 | 2 |
| 2025-04-26T15:59:00 | 53.898894 | 6.253697 | 2.0 | 10.030 | 2 | 35.665 | 10.221 | 32.326 | 2 |
| 2025-04-26T16:00:00 | 53.898910 | 6.251617 | 2.0 | 9.941 | 2 | 35.653 | 10.192 | 32.340 | 2 |
| 2025-04-26T16:01:00 | 53.898932 | 6.249541 | 2.0 | 9.901 | 2 | 35.595 | 10.107 | 32.358 | 2 |
| 2025-04-26T16:02:00 | 53.898950 | 6.247457 | 2.0 | 9.980 | 2 | 35.590 | 10.104 | 32.355 | 2 |
| 2025-04-26T16:03:00 | 53.898948 | 6.245368 | 2.0 | 10.023 | 2 | 35.626 | 10.155 | 32.346 | 2 |
| 2025-04-26T16:04:00 | 53.898925 | 6.243290 | 2.0 | 10.012 | 2 | 35.659 | 10.189 | 32.349 | 2 |
| 2025-04-26T16:05:00 | 53.898911 | 6.241202 | 2.0 | 9.992 | 2 | 35.672 | 10.185 | 32.366 | 2 |
| 2025-04-26T16:06:00 | 53.898917 | 6.239119 | 2.0 | 9.977 | 2 | 35.670 | 10.159 | 32.387 | 2 |
| 2025-04-26T16:07:00 | 53.898935 | 6.237047 | 2.0 | 9.911 | 2 | 35.669 | 10.130 | 32.412 | 2 |
| 2025-04-26T16:08:00 | 53.898966 | 6.234983 | 2.0 | 9.896 | 2 | 35.645 | 10.084 | 32.429 | 2 |
| 2025-04-26T16:09:00 | 53.898981 | 6.232930 | 2.0 | 9.862 | 2 | 35.630 | 10.063 | 32.432 | 2 |
| 2025-04-26T16:10:00 | 53.898987 | 6.230880 | 2.0 | 9.812 | 2 | 35.615 | 10.014 | 32.461 | 2 |
| 2025-04-26T16:11:00 | 53.898983 | 6.228815 | 2.0 | 9.687 | 2 | 35.590 | 9.965 | 32.480 | 2 |
| 2025-04-26T16:12:00 | 53.898964 | 6.226747 | 2.0 | 9.687 | 2 | 35.544 | 9.903 | 32.489 | 2 |
| 2025-04-26T16:13:00 | 53.898957 | 6.224683 | 2.0 | 9.684 | 2 | 35.508 | 9.861 | 32.490 | 2 |
| 2025-04-26T16:14:00 | 53.898969 | 6.222625 | 2.0 | 9.771 | 2 | 35.509 | 9.868 | 32.485 | 2 |
| 2025-04-26T16:15:00 | 53.898990 | 6.220573 | 2.0 | 9.894 | 2 | 35.568 | 9.961 | 32.461 | 2 |
| 2025-04-26T16:16:00 | 53.899014 | 6.218511 | 2.0 | 9.880 | 2 | 35.636 | 10.064 | 32.438 | 2 |
| 2025-04-26T16:17:00 | 53.898992 | 6.216455 | 2.0 | 9.890 | 2 | 35.635 | 10.045 | 32.454 | 2 |
| 2025-04-26T16:18:00 | 53.898951 | 6.214408 | 2.0 | 9.872 | 2 | 35.639 | 10.049 | 32.454 | 2 |
| 2025-04-26T16:19:00 | 53.898931 | 6.212353 | 2.0 | 9.908 | 2 | 35.643 | 10.049 | 32.458 | 2 |
| 2025-04-26T16:20:00 | 53.898941 | 6.210298 | 2.0 | 9.888 | 2 | 35.669 | 10.076 | 32.460 | 2 |
| 2025-04-26T16:21:00 | 53.898950 | 6.208251 | 2.0 | 9.869 | 2 | 35.669 | 10.051 | 32.483 | 2 |
| 2025-04-26T16:22:00 | 53.898981 | 6.206210 | 2.0 | 9.848 | 2 | 35.668 | 10.040 | 32.491 | 2 |
| 2025-04-26T16:23:00 | 53.899011 | 6.204179 | 2.0 | 9.896 | 2 | 35.670 | 10.031 | 32.502 | 2 |
| 2025-04-26T16:24:00 | 53.899035 | 6.202153 | 2.0 | 9.902 | 2 | 35.704 | 10.079 | 32.493 | 2 |
| 2025-04-26T16:25:00 | 53.899338 | 6.200195 | 2.0 | 9.866 | 2 | 35.702 | 10.069 | 32.500 | 2 |
| 2025-04-26T16:26:00 | 53.899615 | 6.198316 | 2.0 | 9.891 | 2 | 35.685 | 10.035 | 32.513 | 2 |
| 2025-04-26T16:27:00 | 53.899209 | 6.196768 | 2.0 | 9.955 | 2 | 35.713 | 10.069 | 32.511 | 2 |
| 2025-04-26T16:28:00 | 53.898290 | 6.196280 | 2.0 | 9.846 | 2 | 35.747 | 10.115 | 32.504 | 2 |
| 2025-04-26T16:29:00 | 53.897337 | 6.197101 | 2.0 | 9.931 | 2 | 35.714 | 10.047 | 32.532 | 2 |
| 2025-04-26T16:30:00 | 53.896870 | 6.198929 | 2.0 | 9.940 | 2 | 35.733 | 10.097 | 32.506 | 2 |
| 2025-04-26T16:31:00 | 53.896649 | 6.201023 | 2.0 | 9.958 | 2 | 35.725 | 10.114 | 32.483 | 2 |
| 2025-04-26T16:32:00 | 53.896592 | 6.203098 | 2.0 | 9.986 | 2 | 35.727 | 10.134 | 32.467 | 2 |
| 2025-04-26T16:33:00 | 53.896541 | 6.205133 | 2.0 | 9.986 | 2 | 35.733 | 10.159 | 32.450 | 2 |
| 2025-04-26T16:34:00 | 53.896476 | 6.207141 | 2.0 | 10.001 | 2 | 35.724 | 10.158 | 32.442 | 2 |
| 2025-04-26T16:35:00 | 53.896465 | 6.209150 | 2.0 | 10.003 | 2 | 35.723 | 10.171 | 32.430 | 2 |
| 2025-04-26T16:36:00 | 53.896497 | 6.211228 | 2.0 | 9.990 | 2 | 35.715 | 10.170 | 32.422 | 2 |
| 2025-04-26T16:37:00 | 53.896496 | 6.213373 | 2.0 | 9.993 | 2 | 35.705 | 10.166 | 32.416 | 2 |
| 2025-04-26T16:38:00 | 53.896492 | 6.215552 | 2.0 | 9.977 | 2 | 35.711 | 10.166 | 32.422 | 2 |
| 2025-04-26T16:39:00 | 53.896485 | 6.217745 | 2.0 | 9.914 | 2 | 35.698 | 10.134 | 32.437 | 2 |
| 2025-04-26T16:40:00 | 53.896480 | 6.219919 | 2.0 | 9.910 | 2 | 35.665 | 10.090 | 32.444 | 2 |
| 2025-04-26T16:41:00 | 53.896479 | 6.222080 | 2.0 | 9.878 | 2 | 35.655 | 10.075 | 32.447 | 2 |
| 2025-04-26T16:42:00 | 53.896479 | 6.224237 | 2.0 | 9.870 | 2 | 35.640 | 10.054 | 32.451 | 2 |
| 2025-04-26T16:43:00 | 53.896476 | 6.226400 | 2.0 | 9.830 | 2 | 35.319 | 10.035 | 32.143 | 2 |
| 2025-04-26T16:44:00 | 53.896465 | 6.228557 | 2.0 | 9.863 | 2 | 35.600 | 10.002 | 32.457 | 2 |
| 2025-04-26T16:45:00 | 53.896474 | 6.230711 | 2.0 | 9.887 | 2 | 35.612 | 10.039 | 32.436 | 2 |
| 2025-04-26T16:46:00 | 53.896504 | 6.232873 | 2.0 | 9.903 | 2 | 35.624 | 10.067 | 32.423 | 2 |
| 2025-04-26T16:47:00 | 53.896513 | 6.235041 | 2.0 | 9.903 | 2 | 35.623 | 10.077 | 32.413 | 2 |
| 2025-04-26T16:48:00 | 53.896498 | 6.237210 | 2.0 | 9.886 | 2 | 35.615 | 10.075 | 32.406 | 2 |
| 2025-04-26T16:49:00 | 53.896486 | 6.239381 | 2.0 | 9.871 | 2 | 35.599 | 10.057 | 32.406 | 2 |
| 2025-04-26T16:50:00 | 53.896479 | 6.241555 | 2.0 | 9.867 | 2 | 35.590 | 10.047 | 32.406 | 2 |
| 2025-04-26T16:51:00 | 53.896468 | 6.243737 | 2.0 | 9.894 | 2 | 35.583 | 10.041 | 32.405 | 2 |
| 2025-04-26T16:52:00 | 53.896474 | 6.245932 | 2.0 | 9.904 | 2 | 35.596 | 10.066 | 32.395 | 2 |
| 2025-04-26T16:53:00 | 53.896473 | 6.248123 | 2.0 | 9.925 | 2 | 35.603 | 10.080 | 32.390 | 2 |
| 2025-04-26T16:54:00 | 53.896469 | 6.250312 | 2.0 | 9.938 | 2 | 35.608 | 10.095 | 32.381 | 2 |
| 2025-04-26T16:55:00 | 53.896460 | 6.252496 | 2.0 | 9.939 | 2 | 35.615 | 10.111 | 32.374 | 2 |
| 2025-04-26T16:56:00 | 53.896458 | 6.254671 | 2.0 | 9.912 | 2 | 35.607 | 10.098 | 32.378 | 2 |
| 2025-04-26T16:57:00 | 53.896469 | 6.256843 | 2.0 | 9.958 | 2 | 35.597 | 10.092 | 32.373 | 2 |
| 2025-04-26T16:58:00 | 53.896475 | 6.259009 | 2.0 | 9.934 | 2 | 35.621 | 10.123 | 32.370 | 2 |
| 2025-04-26T16:59:00 | 53.896462 | 6.261176 | 2.0 | 9.913 | 2 | 35.610 | 10.110 | 32.370 | 2 |
| 2025-04-26T17:00:00 | 53.896459 | 6.263347 | 2.0 | 9.905 | 2 | 35.589 | 10.080 | 32.376 | 2 |
| 2025-04-26T17:01:00 | 53.896475 | 6.265530 | 2.0 | 9.920 | 2 | 35.588 | 10.081 | 32.374 | 2 |
| 2025-04-26T17:02:00 | 53.896510 | 6.267704 | 2.0 | 9.878 | 2 | 35.596 | 10.086 | 32.377 | 2 |
| 2025-04-26T17:03:00 | 53.896552 | 6.269883 | 2.0 | 9.854 | 2 | 35.571 | 10.040 | 32.393 | 2 |
| 2025-04-26T17:04:00 | 53.896571 | 6.272082 | 2.0 | 9.902 | 2 | 35.560 | 10.036 | 32.386 | 2 |
| 2025-04-26T17:05:00 | 53.896562 | 6.274301 | 2.0 | 9.934 | 2 | 35.586 | 10.077 | 32.375 | 2 |
| 2025-04-26T17:06:00 | 53.896557 | 6.276524 | 2.0 | 10.087 | 2 | 35.608 | 10.114 | 32.364 | 2 |
| 2025-04-26T17:07:00 | 53.896579 | 6.278743 | 2.0 | 10.103 | 2 | 35.702 | 10.249 | 32.339 | 2 |
| 2025-04-26T17:08:00 | 53.896597 | 6.280971 | 2.0 | 10.065 | 2 | 35.706 | 10.267 | 32.327 | 2 |
| 2025-04-26T17:09:00 | 53.896596 | 6.283208 | 2.0 | 10.004 | 2 | 35.676 | 10.221 | 32.338 | 2 |
| 2025-04-26T17:10:00 | 53.896566 | 6.285463 | 2.0 | 9.953 | 2 | 35.637 | 10.169 | 32.345 | 2 |
| 2025-04-26T17:11:00 | 53.896536 | 6.287741 | 2.0 | 9.872 | 2 | 35.601 | 10.118 | 32.354 | 2 |
| 2025-04-26T17:12:00 | 53.896528 | 6.290031 | 2.0 | 9.768 | 2 | 35.547 | 10.029 | 32.379 | 2 |
| 2025-04-26T17:13:00 | 53.896526 | 6.292299 | 2.0 | 9.677 | 2 | 35.485 | 9.932 | 32.403 | 2 |
| 2025-04-26T17:14:00 | 53.896531 | 6.294551 | 2.0 | 9.595 | 2 | 35.418 | 9.829 | 32.428 | 2 |
| 2025-04-26T17:15:00 | 53.896533 | 6.296782 | 2.0 | 9.563 | 2 | 35.375 | 9.769 | 32.438 | 2 |
| 2025-04-26T17:16:00 | 53.896557 | 6.298997 | 2.0 | 9.564 | 2 | 35.361 | 9.742 | 32.448 | 2 |
| 2025-04-26T17:17:00 | 53.896524 | 6.301201 | 2.0 | 9.512 | 2 | 35.364 | 9.739 | 32.454 | 2 |
| 2025-04-26T17:18:00 | 53.896084 | 6.303187 | 2.0 | 9.422 | 2 | 35.325 | 9.672 | 32.474 | 2 |
| 2025-04-26T17:19:00 | 53.895439 | 6.304983 | 2.0 | 9.343 | 2 | 35.271 | 9.589 | 32.494 | 2 |
| 2025-04-26T17:20:00 | 53.895038 | 6.306969 | 2.0 | 9.337 | 2 | 35.225 | 9.519 | 32.511 | 2 |
| 2025-04-26T17:21:00 | 53.895274 | 6.308826 | 2.0 | 9.358 | 2 | 35.219 | 9.516 | 32.507 | 2 |
| 2025-04-26T17:22:00 | 53.896059 | 6.309981 | 2.0 | 9.358 | 2 | 35.227 | 9.526 | 32.506 | 2 |
| 2025-04-26T17:23:00 | 53.897083 | 6.309926 | 2.0 | 9.392 | 2 | 35.226 | 9.538 | 32.494 | 2 |
| 2025-04-26T17:24:00 | 53.897815 | 6.308700 | 2.0 | 9.429 | 2 | 35.236 | 9.553 | 32.491 | 2 |
| 2025-04-26T17:25:00 | 53.898044 | 6.306845 | 2.0 | 9.466 | 2 | 35.266 | 9.601 | 32.478 | 2 |
| 2025-04-26T17:26:00 | 53.898145 | 6.304688 | 2.0 | 9.447 | 2 | 35.281 | 9.620 | 32.476 | 2 |
| 2025-04-26T17:27:00 | 53.898127 | 6.302437 | 2.0 | 9.476 | 2 | 35.275 | 9.620 | 32.470 | 2 |
| 2025-04-26T17:28:00 | 53.898153 | 6.300292 | 2.0 | 9.432 | 2 | 35.279 | 9.628 | 32.467 | 2 |
| 2025-04-26T17:29:00 | 53.898162 | 6.298232 | 2.0 | 9.650 | 2 | 35.276 | 9.631 | 32.461 | 2 |
| 2025-04-26T17:30:00 | 53.898180 | 6.296218 | 2.0 | 9.811 | 2 | 35.389 | 9.833 | 32.394 | 2 |
| 2025-04-26T17:31:00 | 53.898181 | 6.294192 | 2.0 | 9.892 | 2 | 35.490 | 9.984 | 32.361 | 2 |
| 2025-04-26T17:32:00 | 53.898162 | 6.292111 | 2.0 | 9.957 | 2 | 35.540 | 10.068 | 32.337 | 2 |
| 2025-04-26T17:33:00 | 53.898162 | 6.289981 | 2.0 | 9.982 | 2 | 35.572 | 10.127 | 32.317 | 2 |
| 2025-04-26T17:34:00 | 53.898184 | 6.287815 | 2.0 | 9.973 | 2 | 35.582 | 10.149 | 32.307 | 2 |
| 2025-04-26T17:35:00 | 53.898184 | 6.285632 | 2.0 | 9.982 | 2 | 35.196 | 10.128 | 31.936 | 2 |
| 2025-04-26T17:36:00 | 53.898182 | 6.283441 | 2.0 | 10.047 | 2 | 35.512 | 10.165 | 32.222 | 2 |
| 2025-04-26T17:37:00 | 53.898190 | 6.281243 | 2.0 | 10.066 | 2 | 35.112 | 10.211 | 31.779 | 2 |
| 2025-04-26T17:38:00 | 53.898192 | 6.279042 | 2.0 | 10.049 | 2 | 35.654 | 10.231 | 32.306 | 2 |
| 2025-04-26T17:39:00 | 53.898174 | 6.276840 | 2.0 | 9.907 | 2 | 35.339 | 10.201 | 32.016 | 2 |
| 2025-04-26T17:40:00 | 53.898133 | 6.274626 | 2.0 | 9.945 | 2 | 35.596 | 10.099 | 32.366 | 2 |
| 2025-04-26T17:41:00 | 53.898128 | 6.272399 | 2.0 | 9.961 | 2 | 35.602 | 10.119 | 32.354 | 2 |
| 2025-04-26T17:42:00 | 53.898185 | 6.270174 | 2.0 | 9.909 | 2 | 35.471 | 10.125 | 32.216 | 2 |
| 2025-04-26T17:43:00 | 53.898203 | 6.267957 | 2.0 | 9.908 | 2 | 35.329 | 10.077 | 32.116 | 2 |
| 2025-04-26T17:44:00 | 53.898147 | 6.265758 | 2.0 | 9.917 | 2 | 35.527 | 10.079 | 32.314 | 2 |
| 2025-04-26T17:45:00 | 53.898077 | 6.263555 | 2.0 | 9.902 | 2 | 35.584 | 10.084 | 32.367 | 2 |
| 2025-04-26T17:46:00 | 53.898057 | 6.261334 | 2.0 | 9.896 | 2 | 35.311 | 10.068 | 32.105 | 2 |
| 2025-04-26T17:47:00 | 53.898069 | 6.259107 | 2.0 | 9.851 | 2 | 35.433 | 10.060 | 32.236 | 2 |
| 2025-04-26T17:48:00 | 53.898057 | 6.256882 | 2.0 | 9.866 | 2 | 35.502 | 10.026 | 32.336 | 2 |
| 2025-04-26T17:49:00 | 53.898044 | 6.254662 | 2.0 | 9.894 | 2 | 35.564 | 10.048 | 32.379 | 2 |
| 2025-04-26T17:50:00 | 53.898026 | 6.252450 | 2.0 | 9.905 | 2 | 35.568 | 10.070 | 32.363 | 2 |
| 2025-04-26T17:51:00 | 53.898075 | 6.250247 | 2.0 | 9.839 | 2 | 35.371 | 10.065 | 32.169 | 2 |
| 2025-04-26T17:52:00 | 53.898125 | 6.248054 | 2.0 | 9.818 | 2 | 35.392 | 10.007 | 32.242 | 2 |
| 2025-04-26T17:53:00 | 53.898113 | 6.245880 | 2.0 | 9.850 | 2 | 35.575 | 9.996 | 32.437 | 2 |
| 2025-04-26T17:54:00 | 53.898082 | 6.243721 | 2.0 | 9.888 | 2 | 35.490 | 10.028 | 32.322 | 2 |
| 2025-04-26T17:55:00 | 53.898064 | 6.241562 | 2.0 | 9.877 | 2 | 35.595 | 10.054 | 32.405 | 2 |
| 2025-04-26T17:56:00 | 53.898061 | 6.239407 | 2.0 | 9.847 | 2 | 35.642 | 10.045 | 32.461 | 2 |
| 2025-04-26T17:57:00 | 53.898088 | 6.237262 | 2.0 | 9.804 | 2 | 35.649 | 10.010 | 32.499 | 2 |
| 2025-04-26T17:58:00 | 53.898116 | 6.235111 | 2.0 | 9.734 | 2 | 35.491 | 9.961 | 32.383 | 2 |
| 2025-04-26T17:59:00 | 53.898102 | 6.232982 | 2.0 | 9.708 | 2 | 35.486 | 9.905 | 32.428 | 2 |
| 2025-04-26T18:00:00 | 53.898061 | 6.230867 | 2.0 | 9.622 | 2 | 35.652 | 9.862 | 32.636 | 2 |
| 2025-04-26T18:01:00 | 53.898040 | 6.228761 | 2.0 | 9.451 | 2 | 35.452 | 9.776 | 32.510 | 2 |
| 2025-04-26T18:02:00 | 53.898063 | 6.226670 | 2.0 | 9.314 | 2 | 35.353 | 9.608 | 32.561 | 2 |
| 2025-04-26T18:03:00 | 53.898102 | 6.224600 | 2.0 | 9.171 | 2 | 35.395 | 9.470 | 32.730 | 2 |
| 2025-04-26T18:04:00 | 53.898082 | 6.222533 | 2.0 | 9.108 | 2 | 35.350 | 9.354 | 32.789 | 2 |
| 2025-04-26T18:05:00 | 53.898041 | 6.220436 | 2.0 | 9.026 | 2 | 35.317 | 9.271 | 32.832 | 2 |
| 2025-04-26T18:06:00 | 53.898025 | 6.218273 | 2.0 | 8.907 | 2 | 35.322 | 9.195 | 32.907 | 2 |
| 2025-04-26T18:07:00 | 53.898054 | 6.216078 | 2.0 | 8.864 | 2 | 35.148 | 9.065 | 32.846 | 2 |
| 2025-04-26T18:08:00 | 53.898102 | 6.213878 | 2.0 | 8.945 | 2 | 35.108 | 9.054 | 32.815 | 2 |
| 2025-04-26T18:09:00 | 53.898103 | 6.211679 | 2.0 | 9.088 | 2 | 35.319 | 9.132 | 32.962 | 2 |
| 2025-04-26T18:10:00 | 53.898092 | 6.209479 | 2.0 | 9.072 | 2 | 35.235 | 9.219 | 32.795 | 2 |
| 2025-04-26T18:11:00 | 53.898083 | 6.207281 | 2.0 | 9.145 | 2 | 35.284 | 9.294 | 32.776 | 2 |
| 2025-04-26T18:12:00 | 53.898081 | 6.205091 | 2.0 | 9.141 | 2 | 35.246 | 9.294 | 32.737 | 2 |
| 2025-04-26T18:13:00 | 53.898201 | 6.202931 | 2.0 | 9.073 | 2 | 35.221 | 9.286 | 32.719 | 2 |
| 2025-04-26T18:14:00 | 53.898854 | 6.201104 | 2.0 | 9.133 | 2 | 35.251 | 9.254 | 32.779 | 2 |
| 2025-04-26T18:15:00 | 53.898975 | 6.199020 | 2.0 | 9.190 | 2 | 35.261 | 9.308 | 32.740 | 2 |
| 2025-04-26T18:16:00 | 53.898008 | 6.197392 | 2.0 | 9.206 | 2 | 35.249 | 9.350 | 32.689 | 2 |
| 2025-04-26T18:17:00 | 53.896461 | 6.197449 | 2.0 | 9.256 | 2 | 35.249 | 9.385 | 32.657 | 2 |
| 2025-04-26T18:18:00 | 53.895534 | 6.199232 | 2.0 | 9.278 | 2 | 35.365 | 9.415 | 32.749 | 2 |
| 2025-04-26T18:19:00 | 53.895437 | 6.201375 | 2.0 | 9.301 | 2 | 35.411 | 9.454 | 32.761 | 2 |
| 2025-04-26T18:20:00 | 53.895590 | 6.203685 | 2.0 | 9.282 | 2 | 35.423 | 9.465 | 32.763 | 2 |
| 2025-04-26T18:21:00 | 53.895566 | 6.206210 | 2.0 | 9.273 | 2 | 35.435 | 9.453 | 32.786 | 2 |
| 2025-04-26T18:22:00 | 53.895609 | 6.208783 | 2.0 | 9.238 | 2 | 35.405 | 9.440 | 32.767 | 2 |
| 2025-04-26T18:23:00 | 53.895697 | 6.211310 | 2.0 | 9.223 | 2 | 35.405 | 9.403 | 32.801 | 2 |
| 2025-04-26T18:24:00 | 53.895710 | 6.213818 | 2.0 | 9.199 | 2 | 35.377 | 9.385 | 32.789 | 2 |
| 2025-04-26T18:25:00 | 53.895681 | 6.216313 | 2.0 | 9.194 | 2 | 35.377 | 9.360 | 32.812 | 2 |
| 2025-04-26T18:26:00 | 53.895639 | 6.218801 | 2.0 | 9.238 | 2 | 35.394 | 9.365 | 32.825 | 2 |
| 2025-04-26T18:27:00 | 53.895611 | 6.221290 | 2.0 | 9.120 | 2 | 35.372 | 9.338 | 32.827 | 2 |
| 2025-04-26T18:28:00 | 53.895593 | 6.223778 | 2.0 | 9.044 | 2 | 35.390 | 9.333 | 32.850 | 2 |
| 2025-04-26T18:29:00 | 53.895608 | 6.226256 | 2.0 | 8.968 | 2 | 35.310 | 9.157 | 32.930 | 2 |
| 2025-04-26T18:30:00 | 53.895682 | 6.228719 | 2.0 | 8.787 | 2 | 35.229 | 9.091 | 32.906 | 2 |
| 2025-04-26T18:31:00 | 53.895750 | 6.231183 | 2.0 | 8.724 | 2 | 35.168 | 8.955 | 32.969 | 2 |
| 2025-04-26T18:32:00 | 53.895798 | 6.233646 | 2.0 | 8.747 | 2 | 35.172 | 8.938 | 32.989 | 2 |
| 2025-04-26T18:33:00 | 53.895814 | 6.236110 | 2.0 | 8.762 | 2 | 35.153 | 8.923 | 32.983 | 2 |
| 2025-04-26T18:34:00 | 53.895815 | 6.238558 | 2.0 | 8.848 | 2 | 35.186 | 8.957 | 32.986 | 2 |
| 2025-04-26T18:35:00 | 53.895787 | 6.241002 | 2.0 | 8.908 | 2 | 35.148 | 9.031 | 32.878 | 2 |
| 2025-04-26T18:36:00 | 53.895738 | 6.243432 | 2.0 | 8.927 | 2 | 35.212 | 9.081 | 32.898 | 2 |
| 2025-04-26T18:37:00 | 53.895702 | 6.245851 | 2.0 | 8.944 | 2 | 35.248 | 9.093 | 32.924 | 2 |
| 2025-04-26T18:38:00 | 53.895693 | 6.248264 | 2.0 | 9.050 | 2 | 35.208 | 9.124 | 32.854 | 2 |
| 2025-04-26T18:39:00 | 53.895704 | 6.250673 | 2.0 | 9.178 | 2 | 35.263 | 9.216 | 32.826 | 2 |
| 2025-04-26T18:40:00 | 53.895719 | 6.253088 | 2.0 | 9.270 | 2 | 35.360 | 9.364 | 32.791 | 2 |
| 2025-04-26T18:41:00 | 53.895716 | 6.255517 | 2.0 | 9.377 | 2 | 35.445 | 9.451 | 32.798 | 2 |
| 2025-04-26T18:42:00 | 53.895694 | 6.257945 | 2.0 | 9.486 | 2 | 35.496 | 9.557 | 32.754 | 2 |
| 2025-04-26T18:43:00 | 53.895675 | 6.260374 | 2.0 | 9.555 | 2 | 35.537 | 9.652 | 32.709 | 2 |
| 2025-04-26T18:44:00 | 53.895679 | 6.262805 | 2.0 | 9.590 | 2 | 35.563 | 9.722 | 32.672 | 2 |
| 2025-04-26T18:45:00 | 53.895709 | 6.265254 | 2.0 | 9.675 | 2 | 35.594 | 9.778 | 32.653 | 2 |
| 2025-04-26T18:46:00 | 53.895775 | 6.267696 | 2.0 | 9.722 | 2 | 35.606 | 9.838 | 32.611 | 2 |
| 2025-04-26T18:47:00 | 53.895832 | 6.270123 | 2.0 | 9.737 | 2 | 35.611 | 9.883 | 32.575 | 2 |
| 2025-04-26T18:48:00 | 53.895846 | 6.272539 | 2.0 | 9.728 | 2 | 35.604 | 9.900 | 32.553 | 2 |
| 2025-04-26T18:49:00 | 53.895823 | 6.274950 | 2.0 | 9.720 | 2 | 35.582 | 9.893 | 32.537 | 2 |
| 2025-04-26T18:50:00 | 53.895792 | 6.277352 | 2.0 | 9.706 | 2 | 35.557 | 9.884 | 32.519 | 2 |
| 2025-04-26T18:51:00 | 53.895792 | 6.279760 | 2.0 | 9.738 | 2 | 35.532 | 9.878 | 32.499 | 2 |
| 2025-04-26T18:52:00 | 53.895806 | 6.282164 | 2.0 | 9.760 | 2 | 35.528 | 9.907 | 32.469 | 2 |
| 2025-04-26T18:53:00 | 53.895820 | 6.284568 | 2.0 | 9.766 | 2 | 35.529 | 9.928 | 32.451 | 2 |
| 2025-04-26T18:54:00 | 53.895821 | 6.286981 | 2.0 | 9.760 | 2 | 35.518 | 9.932 | 32.437 | 2 |
| 2025-04-26T18:55:00 | 53.895824 | 6.289387 | 2.0 | 9.755 | 2 | 35.502 | 9.925 | 32.427 | 2 |
| 2025-04-26T18:56:00 | 53.895831 | 6.291802 | 2.0 | 9.762 | 2 | 35.489 | 9.924 | 32.414 | 2 |
| 2025-04-26T18:57:00 | 53.895821 | 6.294216 | 2.0 | 9.759 | 2 | 35.483 | 9.929 | 32.404 | 2 |
| 2025-04-26T18:58:00 | 53.895787 | 6.296637 | 2.0 | 9.762 | 2 | 35.475 | 9.929 | 32.396 | 2 |
| 2025-04-26T18:59:00 | 53.895749 | 6.299063 | 2.0 | 9.767 | 2 | 35.470 | 9.928 | 32.391 | 2 |
| 2025-04-26T19:00:00 | 53.895678 | 6.301478 | 2.0 | 9.771 | 2 | 35.468 | 9.936 | 32.382 | 2 |
| 2025-04-26T19:01:00 | 53.895248 | 6.303646 | 2.0 | 9.765 | 2 | 35.465 | 9.934 | 32.381 | 2 |
| 2025-04-26T19:02:00 | 53.894613 | 6.305618 | 2.0 | 9.749 | 2 | 35.460 | 9.930 | 32.379 | 2 |
| 2025-04-26T19:03:00 | 53.894207 | 6.308006 | 2.0 | 9.733 | 2 | 35.447 | 9.913 | 32.382 | 2 |
| 2025-04-26T19:04:00 | 53.894730 | 6.310278 | 2.0 | 9.741 | 2 | 35.367 | 9.901 | 32.311 | 2 |
| 2025-04-26T19:05:00 | 53.895796 | 6.311068 | 2.0 | 9.748 | 2 | 35.338 | 9.904 | 32.279 | 2 |
| 2025-04-26T19:06:00 | 53.896679 | 6.310214 | 2.0 | 9.769 | 2 | 35.341 | 9.913 | 32.274 | 2 |
| 2025-04-26T19:07:00 | 53.896898 | 6.308382 | 2.0 | 9.767 | 2 | 35.351 | 9.934 | 32.265 | 2 |
| 2025-04-26T19:08:00 | 53.897132 | 6.306158 | 2.0 | 9.699 | 2 | 35.353 | 9.926 | 32.275 | 2 |
| 2025-04-26T19:09:00 | 53.897253 | 6.303779 | 2.0 | 9.727 | 2 | 35.364 | 9.872 | 32.334 | 2 |
| 2025-04-26T19:10:00 | 53.897278 | 6.301297 | 2.0 | 9.735 | 2 | 35.439 | 9.900 | 32.385 | 2 |
| 2025-04-26T19:11:00 | 53.897378 | 6.298836 | 2.0 | 9.721 | 2 | 35.409 | 9.902 | 32.353 | 2 |
| 2025-04-26T19:12:00 | 53.897424 | 6.296398 | 2.0 | 9.712 | 2 | 35.444 | 9.889 | 32.400 | 2 |
| 2025-04-26T19:13:00 | 53.897380 | 6.294003 | 2.0 | 9.696 | 2 | 35.485 | 9.881 | 32.449 | 2 |
| 2025-04-26T19:14:00 | 53.897345 | 6.291632 | 2.0 | 9.666 | 2 | 35.491 | 9.857 | 32.477 | 2 |
| 2025-04-26T19:15:00 | 53.897367 | 6.289269 | 2.0 | 9.618 | 2 | 35.508 | 9.828 | 32.520 | 2 |
| 2025-04-26T19:16:00 | 53.897390 | 6.286910 | 2.0 | 9.530 | 2 | 35.488 | 9.774 | 32.548 | 2 |
| 2025-04-26T19:17:00 | 53.897378 | 6.284558 | 2.0 | 9.373 | 2 | 35.504 | 9.672 | 32.657 | 2 |
| 2025-04-26T19:18:00 | 53.897330 | 6.282194 | 2.0 | 9.065 | 2 | 35.443 | 9.471 | 32.778 | 2 |
| 2025-04-26T19:19:00 | 53.897328 | 6.279828 | 2.0 | 8.999 | 2 | 35.327 | 9.248 | 32.863 | 2 |
| 2025-04-26T19:20:00 | 53.897361 | 6.277463 | 2.0 | 8.857 | 2 | 35.253 | 9.118 | 32.906 | 2 |
| 2025-04-26T19:21:00 | 53.897380 | 6.275081 | 2.0 | 8.797 | 2 | 35.178 | 9.028 | 32.912 | 2 |
| 2025-04-26T19:22:00 | 53.897364 | 6.272691 | 2.0 | 8.743 | 2 | 35.153 | 8.956 | 32.952 | 2 |
| 2025-04-26T19:23:00 | 53.897321 | 6.270288 | 2.0 | 8.656 | 2 | 35.116 | 8.903 | 32.963 | 2 |
| 2025-04-26T19:24:00 | 53.897281 | 6.267844 | 2.0 | 8.613 | 2 | 35.094 | 8.833 | 33.005 | 2 |
| 2025-04-26T19:25:00 | 53.897295 | 6.265414 | 2.0 | 8.648 | 2 | 35.070 | 8.802 | 33.009 | 2 |
| 2025-04-26T19:26:00 | 53.897344 | 6.262994 | 2.0 | 8.706 | 2 | 35.096 | 8.818 | 33.021 | 2 |
| 2025-04-26T19:27:00 | 53.897331 | 6.260586 | 2.0 | 9.038 | 2 | 35.140 | 8.969 | 32.927 | 2 |
| 2025-04-26T19:28:00 | 53.897300 | 6.258185 | 2.0 | 9.121 | 2 | 35.322 | 9.192 | 32.910 | 2 |
| 2025-04-26T19:29:00 | 53.897345 | 6.255808 | 2.0 | 9.085 | 2 | 35.359 | 9.269 | 32.877 | 2 |
| 2025-04-26T19:30:00 | 53.897374 | 6.253433 | 2.0 | 9.052 | 2 | 35.289 | 9.245 | 32.827 | 2 |
| 2025-04-26T19:31:00 | 53.897355 | 6.251065 | 2.0 | 9.107 | 2 | 35.321 | 9.221 | 32.882 | 2 |
| 2025-04-26T19:32:00 | 53.897321 | 6.248697 | 2.0 | 9.097 | 2 | 35.353 | 9.272 | 32.868 | 2 |
| 2025-04-26T19:33:00 | 53.897316 | 6.246325 | 2.0 | 9.026 | 2 | 35.336 | 9.242 | 32.878 | 2 |
| 2025-04-26T19:34:00 | 53.897365 | 6.243943 | 2.0 | 9.071 | 2 | 35.257 | 9.200 | 32.835 | 2 |
| 2025-04-26T19:35:00 | 53.897386 | 6.241554 | 2.0 | 9.082 | 2 | 35.321 | 9.247 | 32.858 | 2 |
| 2025-04-26T19:36:00 | 53.897348 | 6.239156 | 2.0 | 9.049 | 2 | 35.321 | 9.245 | 32.860 | 2 |
| 2025-04-26T19:37:00 | 53.897311 | 6.236751 | 2.0 | 9.031 | 2 | 35.299 | 9.218 | 32.862 | 2 |
| 2025-04-26T19:38:00 | 53.897342 | 6.234340 | 2.0 | 8.955 | 2 | 35.284 | 9.192 | 32.870 | 2 |
| 2025-04-26T19:39:00 | 53.897375 | 6.231920 | 2.0 | 8.894 | 2 | 35.219 | 9.116 | 32.873 | 2 |
| 2025-04-26T19:40:00 | 53.897344 | 6.229505 | 2.0 | 8.907 | 2 | 35.163 | 9.075 | 32.853 | 2 |
| 2025-04-26T19:41:00 | 53.897280 | 6.227074 | 2.0 | 8.898 | 2 | 35.142 | 9.080 | 32.826 | 2 |
| 2025-04-26T19:42:00 | 53.897247 | 6.224648 | 2.0 | 9.028 | 2 | 35.106 | 9.078 | 32.791 | 2 |
| 2025-04-26T19:43:00 | 53.897273 | 6.222231 | 2.0 | 9.221 | 2 | 35.235 | 9.233 | 32.782 | 2 |
| 2025-04-26T19:44:00 | 53.897290 | 6.219831 | 2.0 | 9.323 | 2 | 35.309 | 9.402 | 32.703 | 2 |
| 2025-04-26T19:45:00 | 53.897242 | 6.217432 | 2.0 | 9.493 | 2 | 35.443 | 9.515 | 32.738 | 2 |
| 2025-04-26T19:46:00 | 53.897201 | 6.215040 | 2.0 | 9.595 | 2 | 35.520 | 9.674 | 32.672 | 2 |
| 2025-04-26T19:47:00 | 53.897259 | 6.212652 | 2.0 | 9.599 | 2 | 35.553 | 9.743 | 32.643 | 2 |
| 2025-04-26T19:48:00 | 53.897287 | 6.210255 | 2.0 | 9.644 | 2 | 35.377 | 9.769 | 32.440 | 2 |
| 2025-04-26T19:49:00 | 53.897254 | 6.207851 | 2.0 | 9.646 | 2 | 35.433 | 9.808 | 32.462 | 2 |
| 2025-04-26T19:50:00 | 53.897284 | 6.205455 | 2.0 | 9.647 | 2 | 35.531 | 9.810 | 32.560 | 2 |
| 2025-04-26T19:51:00 | 53.897489 | 6.203102 | 2.0 | 9.668 | 2 | 35.495 | 9.818 | 32.516 | 2 |
| 2025-04-26T19:52:00 | 53.898197 | 6.201004 | 2.0 | 9.664 | 2 | 35.427 | 9.831 | 32.435 | 2 |
| 2025-04-26T19:53:00 | 53.898497 | 6.198748 | 2.0 | 9.676 | 2 | 35.517 | 9.829 | 32.528 | 2 |
| 2025-04-26T19:54:00 | 53.897587 | 6.196862 | 2.0 | 9.676 | 2 | 35.432 | 9.845 | 32.427 | 2 |
| 2025-04-26T19:55:00 | 53.895960 | 6.196901 | 2.0 | 9.669 | 2 | 35.497 | 9.837 | 32.501 | 2 |
| 2025-04-26T19:56:00 | 53.894999 | 6.199004 | 2.0 | 9.671 | 2 | 35.409 | 9.835 | 32.413 | 2 |
| 2025-04-26T19:57:00 | 53.894898 | 6.201565 | 2.0 | 9.667 | 2 | 35.594 | 9.835 | 32.601 | 2 |
| 2025-04-26T19:58:00 | 53.894876 | 6.204216 | 2.0 | 9.668 | 2 | 35.585 | 9.834 | 32.593 | 2 |
| 2025-04-26T19:59:00 | 53.894842 | 6.206843 | 2.0 | 9.667 | 2 | 35.585 | 9.836 | 32.591 | 2 |
| 2025-04-26T20:00:00 | 53.894841 | 6.209338 | 2.0 | 9.671 | 2 | 35.539 | 9.834 | 32.546 | 2 |
| 2025-04-26T20:01:00 | 53.894861 | 6.211738 | 2.0 | 9.684 | 2 | 35.528 | 9.844 | 32.526 | 2 |
| 2025-04-26T20:02:00 | 53.894887 | 6.214071 | 2.0 | 9.658 | 2 | 35.573 | 9.844 | 32.572 | 2 |
| 2025-04-26T20:03:00 | 53.894905 | 6.216355 | 2.0 | 9.631 | 2 | 35.528 | 9.819 | 32.549 | 2 |
| 2025-04-26T20:04:00 | 53.894934 | 6.218662 | 2.0 | 9.612 | 2 | 35.519 | 9.794 | 32.562 | 2 |
| 2025-04-26T20:05:00 | 53.894941 | 6.221002 | 2.0 | 9.609 | 2 | 35.581 | 9.779 | 32.639 | 2 |
| 2025-04-26T20:06:00 | 53.894914 | 6.223370 | 2.0 | 9.606 | 2 | 35.548 | 9.778 | 32.606 | 2 |
| 2025-04-26T20:07:00 | 53.894869 | 6.225745 | 2.0 | 9.586 | 2 | 35.556 | 9.772 | 32.620 | 2 |
| 2025-04-26T20:08:00 | 53.894849 | 6.228123 | 2.0 | 9.565 | 2 | 35.548 | 9.752 | 32.630 | 2 |
| 2025-04-26T20:09:00 | 53.894848 | 6.230505 | 2.0 | 9.530 | 2 | 35.515 | 9.728 | 32.618 | 2 |
| 2025-04-26T20:10:00 | 53.894869 | 6.232890 | 2.0 | 9.504 | 2 | 35.505 | 9.695 | 32.637 | 2 |
| 2025-04-26T20:11:00 | 53.894878 | 6.235278 | 2.0 | 9.536 | 2 | 35.493 | 9.686 | 32.633 | 2 |
| 2025-04-26T20:12:00 | 53.894880 | 6.237666 | 2.0 | 9.418 | 2 | 35.540 | 9.678 | 32.689 | 2 |
| 2025-04-26T20:13:00 | 53.894893 | 6.240038 | 2.0 | 9.359 | 2 | 35.484 | 9.581 | 32.720 | 2 |
| 2025-04-26T20:14:00 | 53.894909 | 6.242410 | 2.0 | 9.304 | 2 | 35.456 | 9.521 | 32.746 | 2 |
| 2025-04-26T20:15:00 | 53.894905 | 6.244778 | 2.0 | 9.271 | 2 | 35.418 | 9.474 | 32.750 | 2 |
| 2025-04-26T20:16:00 | 53.894892 | 6.247135 | 2.0 | 9.227 | 2 | 35.402 | 9.438 | 32.766 | 2 |
| 2025-04-26T20:17:00 | 53.894891 | 6.249477 | 2.0 | 9.179 | 2 | 35.381 | 9.391 | 32.787 | 2 |
| 2025-04-26T20:18:00 | 53.894892 | 6.251812 | 2.0 | 9.121 | 2 | 35.346 | 9.342 | 32.796 | 2 |
| 2025-04-26T20:19:00 | 53.894869 | 6.254143 | 2.0 | 9.031 | 2 | 35.307 | 9.282 | 32.811 | 2 |
| 2025-04-26T20:20:00 | 53.894849 | 6.256460 | 2.0 | 8.918 | 2 | 35.246 | 9.185 | 32.837 | 2 |
| 2025-04-26T20:21:00 | 53.894827 | 6.258770 | 2.0 | 8.887 | 2 | 35.181 | 9.085 | 32.862 | 2 |
| 2025-04-26T20:22:00 | 53.894827 | 6.261067 | 2.0 | 8.897 | 2 | 35.170 | 9.069 | 32.866 | 2 |
| 2025-04-26T20:23:00 | 53.894849 | 6.263344 | 2.0 | 8.904 | 2 | 35.176 | 9.071 | 32.870 | 2 |
| 2025-04-26T20:24:00 | 53.894890 | 6.265600 | 2.0 | 8.952 | 2 | 35.190 | 9.090 | 32.867 | 2 |
| 2025-04-26T20:25:00 | 53.894923 | 6.267848 | 2.0 | 8.980 | 2 | 35.222 | 9.126 | 32.867 | 2 |
| 2025-04-26T20:26:00 | 53.894936 | 6.270093 | 2.0 | 9.003 | 2 | 35.245 | 9.150 | 32.869 | 2 |
| 2025-04-26T20:27:00 | 53.894942 | 6.272338 | 2.0 | 9.065 | 2 | 35.276 | 9.186 | 32.868 | 2 |
| 2025-04-26T20:28:00 | 53.894953 | 6.274571 | 2.0 | 9.085 | 2 | 35.318 | 9.237 | 32.864 | 2 |
| 2025-04-26T20:29:00 | 53.894977 | 6.276788 | 2.0 | 9.085 | 2 | 35.336 | 9.251 | 32.870 | 2 |
| 2025-04-26T20:30:00 | 53.895012 | 6.278990 | 2.0 | 9.050 | 2 | 35.340 | 9.253 | 32.872 | 2 |
| 2025-04-26T20:31:00 | 53.895029 | 6.281184 | 2.0 | 9.045 | 2 | 35.311 | 9.211 | 32.881 | 2 |
| 2025-04-26T20:32:00 | 53.895023 | 6.283387 | 2.0 | 9.030 | 2 | 35.307 | 9.208 | 32.879 | 2 |
| 2025-04-26T20:33:00 | 53.895015 | 6.285587 | 2.0 | 9.031 | 2 | 35.306 | 9.205 | 32.881 | 2 |
| 2025-04-26T20:34:00 | 53.895001 | 6.287790 | 2.0 | 9.042 | 2 | 35.305 | 9.201 | 32.884 | 2 |
| 2025-04-26T20:35:00 | 53.894977 | 6.289996 | 2.0 | 9.069 | 2 | 35.316 | 9.217 | 32.880 | 2 |
| 2025-04-26T20:36:00 | 53.894955 | 6.292208 | 2.0 | 9.060 | 2 | 35.329 | 9.234 | 32.878 | 2 |
| 2025-04-26T20:37:00 | 53.894932 | 6.294425 | 2.0 | 8.983 | 2 | 35.311 | 9.210 | 32.882 | 2 |
| 2025-04-26T20:38:00 | 53.894894 | 6.296628 | 2.0 | 8.974 | 2 | 35.263 | 9.148 | 32.889 | 2 |
| 2025-04-26T20:39:00 | 53.894885 | 6.298819 | 2.0 | 9.024 | 2 | 35.273 | 9.156 | 32.892 | 2 |
| 2025-04-26T20:40:00 | 53.894919 | 6.300987 | 2.0 | 9.010 | 2 | 35.323 | 9.195 | 32.908 | 2 |
| 2025-04-26T20:41:00 | 53.895193 | 6.302982 | 2.0 | 8.775 | 2 | 35.320 | 9.139 | 32.957 | 2 |
| 2025-04-26T20:42:00 | 53.895636 | 6.304840 | 2.0 | 8.573 | 2 | 35.169 | 8.909 | 33.013 | 2 |
| 2025-04-26T20:43:00 | 53.896020 | 6.306764 | 2.0 | 8.491 | 2 | 35.026 | 8.740 | 33.021 | 2 |
| 2025-04-26T20:44:00 | 53.895794 | 6.308794 | 2.0 | 8.489 | 2 | 34.951 | 8.672 | 33.006 | 2 |
| 2025-04-26T20:45:00 | 53.894894 | 6.310120 | 2.0 | 8.489 | 2 | 34.942 | 8.669 | 32.999 | 2 |
| 2025-04-26T20:46:00 | 53.893798 | 6.310088 | 2.0 | 8.491 | 2 | 34.933 | 8.666 | 32.992 | 2 |
| 2025-04-26T20:47:00 | 53.892997 | 6.308689 | 2.0 | 8.646 | 2 | 34.941 | 8.675 | 32.992 | 2 |
| 2025-04-26T20:48:00 | 53.892792 | 6.306502 | 2.0 | 8.909 | 2 | 35.085 | 8.866 | 32.965 | 2 |
| 2025-04-26T20:49:00 | 53.892628 | 6.304021 | 2.0 | 9.019 | 2 | 35.242 | 9.099 | 32.913 | 2 |
| 2025-04-26T20:50:00 | 53.892417 | 6.301358 | 2.0 | 9.048 | 2 | 35.293 | 9.175 | 32.895 | 2 |
| 2025-04-26T20:51:00 | 53.892546 | 6.298788 | 2.0 | 9.061 | 2 | 35.327 | 9.224 | 32.885 | 2 |
| 2025-04-26T20:52:00 | 53.892556 | 6.296420 | 2.0 | 9.035 | 2 | 35.323 | 9.210 | 32.894 | 2 |
| 2025-04-26T20:53:00 | 53.892498 | 6.294140 | 2.0 | 9.017 | 2 | 35.306 | 9.195 | 32.890 | 2 |
| 2025-04-26T20:54:00 | 53.892515 | 6.291936 | 2.0 | 9.040 | 2 | 35.302 | 9.197 | 32.884 | 2 |
| 2025-04-26T20:55:00 | 53.892547 | 6.289759 | 2.0 | 9.018 | 2 | 35.305 | 9.203 | 32.882 | 2 |
| 2025-04-26T20:56:00 | 53.892537 | 6.287594 | 2.0 | 8.980 | 2 | 35.290 | 9.181 | 32.887 | 2 |
| 2025-04-26T20:57:00 | 53.892514 | 6.285433 | 2.0 | 8.905 | 2 | 35.254 | 9.134 | 32.893 | 2 |
| 2025-04-26T20:58:00 | 53.892511 | 6.283270 | 2.0 | 8.850 | 2 | 35.174 | 9.065 | 32.873 | 2 |
| 2025-04-26T20:59:00 | 53.892542 | 6.281113 | 2.0 | 8.888 | 2 | 35.129 | 9.026 | 32.863 | 2 |
| 2025-04-26T21:00:00 | 53.892558 | 6.278961 | 2.0 | 9.004 | 2 | 35.150 | 9.077 | 32.837 | 2 |
| 2025-04-26T21:01:00 | 53.892530 | 6.276807 | 2.0 | 9.098 | 2 | 35.215 | 9.182 | 32.808 | 2 |
| 2025-04-26T21:02:00 | 53.892477 | 6.274655 | 2.0 | 9.271 | 2 | 35.294 | 9.302 | 32.779 | 2 |
| 2025-04-26T21:03:00 | 53.892456 | 6.272514 | 2.0 | 9.374 | 2 | 35.412 | 9.451 | 32.764 | 2 |
| 2025-04-26T21:04:00 | 53.892478 | 6.270372 | 2.0 | 9.385 | 2 | 35.461 | 9.534 | 32.739 | 2 |
| 2025-04-26T21:05:00 | 53.892469 | 6.268219 | 2.0 | 9.413 | 2 | 35.415 | 9.546 | 32.681 | 2 |
| 2025-04-26T21:06:00 | 53.892429 | 6.266060 | 2.0 | 9.484 | 2 | 35.425 | 9.594 | 32.647 | 2 |
| 2025-04-26T21:07:00 | 53.892426 | 6.263895 | 2.0 | 9.523 | 2 | 35.478 | 9.650 | 32.651 | 2 |
| 2025-04-26T21:08:00 | 53.892468 | 6.261717 | 2.0 | 9.601 | 2 | 35.541 | 9.706 | 32.664 | 2 |
| 2025-04-26T21:09:00 | 53.892488 | 6.259526 | 2.0 | 9.557 | 2 | 35.586 | 9.751 | 32.669 | 2 |
| 2025-04-26T21:10:00 | 53.892490 | 6.257324 | 2.0 | 9.542 | 2 | 35.541 | 9.724 | 32.648 | 2 |
| 2025-04-26T21:11:00 | 53.892481 | 6.255112 | 2.0 | 9.587 | 2 | 35.526 | 9.719 | 32.637 | 2 |
| 2025-04-26T21:12:00 | 53.892488 | 6.252893 | 2.0 | 9.583 | 2 | 35.551 | 9.748 | 32.636 | 2 |
| 2025-04-26T21:13:00 | 53.892517 | 6.250664 | 2.0 | 9.605 | 2 | 35.550 | 9.751 | 32.632 | 2 |
| 2025-04-26T21:14:00 | 53.892528 | 6.248424 | 2.0 | 9.612 | 2 | 35.567 | 9.763 | 32.639 | 2 |
| 2025-04-26T21:15:00 | 53.892503 | 6.246177 | 2.0 | 9.624 | 2 | 35.572 | 9.781 | 32.628 | 2 |
| 2025-04-26T21:16:00 | 53.892474 | 6.243926 | 2.0 | 9.638 | 2 | 35.587 | 9.793 | 32.632 | 2 |
| 2025-04-26T21:17:00 | 53.892467 | 6.241661 | 2.0 | 9.603 | 2 | 35.601 | 9.803 | 32.637 | 2 |
| 2025-04-26T21:18:00 | 53.892471 | 6.239382 | 2.0 | 9.556 | 2 | 35.574 | 9.752 | 32.656 | 2 |
| 2025-04-26T21:19:00 | 53.892471 | 6.237089 | 2.0 | 9.266 | 2 | 35.505 | 9.633 | 32.694 | 2 |
| 2025-04-26T21:20:00 | 53.892471 | 6.234789 | 2.0 | 9.299 | 2 | 35.387 | 9.457 | 32.733 | 2 |
| 2025-04-26T21:21:00 | 53.892462 | 6.232485 | 2.0 | 9.473 | 2 | 35.404 | 9.518 | 32.695 | 2 |
| 2025-04-26T21:22:00 | 53.892470 | 6.230171 | 2.0 | 9.413 | 2 | 35.474 | 9.630 | 32.665 | 2 |
| 2025-04-26T21:23:00 | 53.892476 | 6.227855 | 2.0 | 9.415 | 2 | 35.421 | 9.558 | 32.676 | 2 |
| 2025-04-26T21:24:00 | 53.892472 | 6.225543 | 2.0 | 9.368 | 2 | 35.396 | 9.570 | 32.639 | 2 |
| 2025-04-26T21:25:00 | 53.892464 | 6.223243 | 2.0 | 9.285 | 2 | 35.346 | 9.523 | 32.631 | 2 |
| 2025-04-26T21:26:00 | 53.892456 | 6.220957 | 2.0 | 9.284 | 2 | 35.263 | 9.455 | 32.608 | 2 |
| 2025-04-26T21:27:00 | 53.892468 | 6.218675 | 2.0 | 9.324 | 2 | 35.232 | 9.462 | 32.569 | 2 |
| 2025-04-26T21:28:00 | 53.892484 | 6.216383 | 2.0 | 9.333 | 2 | 35.252 | 9.493 | 32.562 | 2 |
| 2025-04-26T21:29:00 | 53.892495 | 6.214091 | 2.0 | 9.343 | 2 | 35.266 | 9.502 | 32.568 | 2 |
| 2025-04-26T21:30:00 | 53.892491 | 6.211803 | 2.0 | 9.379 | 2 | 35.293 | 9.516 | 32.583 | 2 |
| 2025-04-26T21:31:00 | 53.892482 | 6.209513 | 2.0 | 9.408 | 2 | 35.341 | 9.555 | 32.597 | 2 |
| 2025-04-26T21:32:00 | 53.892330 | 6.207248 | 2.0 | 9.407 | 2 | 35.373 | 9.572 | 32.614 | 2 |
| 2025-04-26T21:33:00 | 53.891730 | 6.204956 | 2.0 | 9.407 | 2 | 35.384 | 9.574 | 32.624 | 2 |
| 2025-04-26T21:34:00 | 53.891390 | 6.202446 | 2.0 | 9.388 | 2 | 35.390 | 9.572 | 32.631 | 2 |
| 2025-04-26T21:35:00 | 53.892291 | 6.200721 | 2.0 | 9.375 | 2 | 35.368 | 9.552 | 32.627 | 2 |
| 2025-04-26T21:36:00 | 53.893655 | 6.201174 | 2.0 | 9.397 | 2 | 35.374 | 9.546 | 32.639 | 2 |
| 2025-04-26T21:37:00 | 53.894204 | 6.203175 | 2.0 | 9.416 | 2 | 35.389 | 9.570 | 32.632 | 2 |
| 2025-04-26T21:38:00 | 53.894176 | 6.205546 | 2.0 | 9.410 | 2 | 35.396 | 9.582 | 32.629 | 2 |
| 2025-04-26T21:39:00 | 53.894092 | 6.207956 | 2.0 | 9.400 | 2 | 35.389 | 9.577 | 32.626 | 2 |
| 2025-04-26T21:40:00 | 53.894157 | 6.210215 | 2.0 | 9.372 | 2 | 35.375 | 9.564 | 32.623 | 2 |
| 2025-04-26T21:41:00 | 53.894155 | 6.212367 | 2.0 | 9.354 | 2 | 35.339 | 9.538 | 32.610 | 2 |
| 2025-04-26T21:42:00 | 53.894147 | 6.214465 | 2.0 | 9.358 | 2 | 35.310 | 9.522 | 32.595 | 2 |
| 2025-04-26T21:43:00 | 53.894153 | 6.216629 | 2.0 | 9.370 | 2 | 35.300 | 9.528 | 32.579 | 2 |
| 2025-04-26T21:44:00 | 53.894125 | 6.218856 | 2.0 | 9.369 | 2 | 35.299 | 9.539 | 32.568 | 2 |
| 2025-04-26T21:45:00 | 53.894081 | 6.221119 | 2.0 | 9.345 | 2 | 35.287 | 9.535 | 32.560 | 2 |
| 2025-04-26T21:46:00 | 53.894052 | 6.223392 | 2.0 | 9.278 | 2 | 35.259 | 9.503 | 32.560 | 2 |
| 2025-04-26T21:47:00 | 53.894051 | 6.225657 | 2.0 | 9.339 | 2 | 35.239 | 9.450 | 32.588 | 2 |
| 2025-04-26T21:48:00 | 53.894065 | 6.227921 | 2.0 | 9.404 | 2 | 35.348 | 9.522 | 32.634 | 2 |
| 2025-04-26T21:49:00 | 53.894097 | 6.230194 | 2.0 | 9.400 | 2 | 35.417 | 9.566 | 32.665 | 2 |
| 2025-04-26T21:50:00 | 53.894078 | 6.232459 | 2.0 | 9.377 | 2 | 35.433 | 9.564 | 32.683 | 2 |
| 2025-04-26T21:51:00 | 53.894068 | 6.234692 | 2.0 | 9.422 | 2 | 35.429 | 9.544 | 32.697 | 2 |
| 2025-04-26T21:52:00 | 53.894084 | 6.236906 | 2.0 | 9.435 | 2 | 35.453 | 9.584 | 32.685 | 2 |
| 2025-04-26T21:53:00 | 53.894101 | 6.239105 | 2.0 | 9.434 | 2 | 35.458 | 9.588 | 32.687 | 2 |
| 2025-04-26T21:54:00 | 53.894105 | 6.241295 | 2.0 | 9.511 | 2 | 35.471 | 9.618 | 32.673 | 2 |
| 2025-04-26T21:55:00 | 53.894101 | 6.243477 | 2.0 | 9.470 | 2 | 35.498 | 9.648 | 32.673 | 2 |
| 2025-04-26T21:56:00 | 53.894087 | 6.245655 | 2.0 | 9.545 | 2 | 35.497 | 9.660 | 32.661 | 2 |
| 2025-04-26T21:57:00 | 53.894076 | 6.247836 | 2.0 | 9.569 | 2 | 35.526 | 9.704 | 32.651 | 2 |
| 2025-04-26T21:58:00 | 53.894073 | 6.250029 | 2.0 | 9.564 | 2 | 35.540 | 9.728 | 32.643 | 2 |
| 2025-04-26T21:59:00 | 53.894079 | 6.252230 | 2.0 | 9.569 | 2 | 35.540 | 9.727 | 32.644 | 2 |
| 2025-04-26T22:00:00 | 53.894088 | 6.254426 | 2.0 | 9.568 | 2 | 35.538 | 9.733 | 32.637 | 2 |
| 2025-04-26T22:01:00 | 53.894115 | 6.256619 | 2.0 | 9.568 | 2 | 35.539 | 9.734 | 32.637 | 2 |
| 2025-04-26T22:02:00 | 53.894106 | 6.258825 | 2.0 | 9.552 | 2 | 35.535 | 9.733 | 32.634 | 2 |
| 2025-04-26T22:03:00 | 53.894077 | 6.261015 | 2.0 | 9.532 | 2 | 35.522 | 9.715 | 32.637 | 2 |
| 2025-04-26T22:04:00 | 53.894082 | 6.263199 | 2.0 | 9.534 | 2 | 35.506 | 9.694 | 32.639 | 2 |
| 2025-04-26T22:05:00 | 53.894095 | 6.265384 | 2.0 | 9.528 | 2 | 35.515 | 9.693 | 32.649 | 2 |
| 2025-04-26T22:06:00 | 53.894089 | 6.267581 | 2.0 | 9.536 | 2 | 35.529 | 9.700 | 32.657 | 2 |
| 2025-04-26T22:07:00 | 53.894075 | 6.269774 | 2.0 | 9.496 | 2 | 35.532 | 9.694 | 32.666 | 2 |
| 2025-04-26T22:08:00 | 53.894083 | 6.271964 | 2.0 | 9.479 | 2 | 35.497 | 9.662 | 32.659 | 2 |
| 2025-04-26T22:09:00 | 53.894103 | 6.274152 | 2.0 | 9.457 | 2 | 35.477 | 9.644 | 32.655 | 2 |
| 2025-04-26T22:10:00 | 53.894114 | 6.276351 | 2.0 | 9.423 | 2 | 35.446 | 9.618 | 32.647 | 2 |
| 2025-04-26T22:11:00 | 53.894097 | 6.278552 | 2.0 | 9.443 | 2 | 35.424 | 9.593 | 32.647 | 2 |
| 2025-04-26T22:12:00 | 53.894082 | 6.280755 | 2.0 | 9.417 | 2 | 35.466 | 9.608 | 32.677 | 2 |
| 2025-04-26T22:13:00 | 53.894079 | 6.282952 | 2.0 | 9.365 | 2 | 35.470 | 9.573 | 32.713 | 2 |
| 2025-04-26T22:14:00 | 53.894095 | 6.285136 | 2.0 | 9.381 | 2 | 35.465 | 9.536 | 32.741 | 2 |
| 2025-04-26T22:15:00 | 53.894112 | 6.287319 | 2.0 | 9.373 | 2 | 35.491 | 9.546 | 32.759 | 2 |
| 2025-04-26T22:16:00 | 53.894120 | 6.289516 | 2.0 | 9.345 | 2 | 35.486 | 9.536 | 32.763 | 2 |
| 2025-04-26T22:17:00 | 53.894117 | 6.291724 | 2.0 | 9.320 | 2 | 35.465 | 9.510 | 32.765 | 2 |
| 2025-04-26T22:18:00 | 53.894103 | 6.293941 | 2.0 | 9.250 | 2 | 35.447 | 9.484 | 32.770 | 2 |
| 2025-04-26T22:19:00 | 53.894105 | 6.296170 | 2.0 | 9.177 | 2 | 35.384 | 9.405 | 32.778 | 2 |
| 2025-04-26T22:20:00 | 53.894125 | 6.298419 | 2.0 | 9.000 | 2 | 35.317 | 9.310 | 32.796 | 2 |
| 2025-04-26T22:21:00 | 53.894151 | 6.300663 | 2.0 | 8.947 | 2 | 35.232 | 9.159 | 32.847 | 2 |
| 2025-04-26T22:22:00 | 53.894412 | 6.302896 | 2.0 | 8.958 | 2 | 35.226 | 9.126 | 32.871 | 2 |
| 2025-04-26T22:23:00 | 53.894867 | 6.305317 | 2.0 | 8.966 | 2 | 35.219 | 9.136 | 32.855 | 2 |
| 2025-04-26T22:24:00 | 53.895275 | 6.307913 | 2.0 | 8.991 | 2 | 35.228 | 9.137 | 32.863 | 2 |
| 2025-04-26T22:25:00 | 53.894756 | 6.310339 | 2.0 | 9.021 | 2 | 35.272 | 9.168 | 32.880 | 2 |
| 2025-04-26T22:26:00 | 53.893333 | 6.311089 | 2.0 | 8.963 | 2 | 35.284 | 9.173 | 32.888 | 2 |
| 2025-04-26T22:27:00 | 53.892130 | 6.309666 | 2.0 | 8.938 | 2 | 35.240 | 9.131 | 32.881 | 2 |
| 2025-04-26T22:28:00 | 53.891855 | 6.307406 | 2.0 | 8.962 | 2 | 35.216 | 9.109 | 32.876 | 2 |
| 2025-04-26T22:29:00 | 53.891786 | 6.304982 | 2.0 | 8.976 | 2 | 35.241 | 9.139 | 32.875 | 2 |
| 2025-04-26T22:30:00 | 53.891757 | 6.302451 | 2.0 | 8.935 | 2 | 35.239 | 9.132 | 32.879 | 2 |
| 2025-04-26T22:31:00 | 53.891728 | 6.299917 | 2.0 | 9.058 | 2 | 35.200 | 9.122 | 32.848 | 2 |
| 2025-04-26T22:32:00 | 53.891650 | 6.297450 | 2.0 | 9.181 | 2 | 35.258 | 9.249 | 32.791 | 2 |
| 2025-04-26T22:33:00 | 53.891689 | 6.295078 | 2.0 | 9.256 | 2 | 35.329 | 9.354 | 32.768 | 2 |
| 2025-04-26T22:34:00 | 53.891700 | 6.292765 | 2.0 | 9.337 | 2 | 35.400 | 9.435 | 32.767 | 2 |
| 2025-04-26T22:35:00 | 53.891678 | 6.290472 | 2.0 | 9.394 | 2 | 35.471 | 9.513 | 32.768 | 2 |
| 2025-04-26T22:36:00 | 53.891684 | 6.288192 | 2.0 | 9.378 | 2 | 35.508 | 9.551 | 32.772 | 2 |
| 2025-04-26T22:37:00 | 53.891693 | 6.285902 | 2.0 | 9.358 | 2 | 35.483 | 9.541 | 32.755 | 2 |
| 2025-04-26T22:38:00 | 53.891698 | 6.283607 | 2.0 | 9.336 | 2 | 35.440 | 9.521 | 32.729 | 2 |
| 2025-04-26T22:39:00 | 53.891678 | 6.281299 | 2.0 | 9.365 | 2 | 35.402 | 9.510 | 32.700 | 2 |
| 2025-04-26T22:40:00 | 53.891667 | 6.278996 | 2.0 | 9.362 | 2 | 35.388 | 9.526 | 32.671 | 2 |
| 2025-04-26T22:41:00 | 53.891674 | 6.276682 | 2.0 | 9.389 | 2 | 35.375 | 9.533 | 32.652 | 2 |
| 2025-04-26T22:42:00 | 53.891677 | 6.274358 | 2.0 | 9.422 | 2 | 35.398 | 9.560 | 32.651 | 2 |
| 2025-04-26T22:43:00 | 53.891680 | 6.272018 | 2.0 | 9.440 | 2 | 35.426 | 9.589 | 32.653 | 2 |
| 2025-04-26T22:44:00 | 53.891691 | 6.269667 | 2.0 | 9.464 | 2 | 35.450 | 9.609 | 32.659 | 2 |
| 2025-04-26T22:45:00 | 53.891705 | 6.267304 | 2.0 | 9.502 | 2 | 35.481 | 9.636 | 32.666 | 2 |
| 2025-04-26T22:46:00 | 53.891699 | 6.264926 | 2.0 | 9.504 | 2 | 35.514 | 9.667 | 32.672 | 2 |
| 2025-04-26T22:47:00 | 53.891680 | 6.262531 | 2.0 | 9.462 | 2 | 35.505 | 9.660 | 32.669 | 2 |
| 2025-04-26T22:48:00 | 53.891698 | 6.260126 | 2.0 | 9.462 | 2 | 35.464 | 9.633 | 32.652 | 2 |
| 2025-04-26T22:49:00 | 53.891714 | 6.257713 | 2.0 | 9.476 | 2 | 35.448 | 9.620 | 32.647 | 2 |
| 2025-04-26T22:50:00 | 53.891701 | 6.255294 | 2.0 | 9.490 | 2 | 35.469 | 9.640 | 32.651 | 2 |
| 2025-04-26T22:51:00 | 53.891684 | 6.252866 | 2.0 | 9.460 | 2 | 35.470 | 9.637 | 32.654 | 2 |
| 2025-04-26T22:52:00 | 53.891697 | 6.250433 | 2.0 | 9.500 | 2 | 35.454 | 9.610 | 32.662 | 2 |
| 2025-04-26T22:53:00 | 53.891717 | 6.248007 | 2.0 | 9.506 | 2 | 35.486 | 9.663 | 32.647 | 2 |
| 2025-04-26T22:54:00 | 53.891725 | 6.245586 | 2.0 | 9.485 | 2 | 35.488 | 9.658 | 32.654 | 2 |
| 2025-04-26T22:55:00 | 53.891721 | 6.243178 | 2.0 | 9.493 | 2 | 35.486 | 9.645 | 32.663 | 2 |
| 2025-04-26T22:56:00 | 53.891707 | 6.240792 | 2.0 | 9.489 | 2 | 35.487 | 9.643 | 32.666 | 2 |
| 2025-04-26T22:57:00 | 53.891691 | 6.238421 | 2.0 | 9.503 | 2 | 35.489 | 9.656 | 32.656 | 2 |
| 2025-04-26T22:58:00 | 53.891703 | 6.236061 | 2.0 | 9.472 | 2 | 35.498 | 9.663 | 32.659 | 2 |
| 2025-04-26T22:59:00 | 53.891697 | 6.233704 | 2.0 | 9.443 | 2 | 35.479 | 9.633 | 32.667 | 2 |
| 2025-04-26T23:00:00 | 53.891671 | 6.231356 | 2.0 | 9.423 | 2 | 35.443 | 9.611 | 32.650 | 2 |
| 2025-04-26T23:01:00 | 53.891664 | 6.229017 | 2.0 | 9.359 | 2 | 35.408 | 9.585 | 32.638 | 2 |
| 2025-04-26T23:02:00 | 53.891663 | 6.226689 | 2.0 | 9.300 | 2 | 35.351 | 9.518 | 32.641 | 2 |
| 2025-04-26T23:03:00 | 53.891660 | 6.224375 | 2.0 | 9.270 | 2 | 35.297 | 9.463 | 32.635 | 2 |
| 2025-04-26T23:04:00 | 53.891647 | 6.222066 | 2.0 | 9.232 | 2 | 35.262 | 9.430 | 32.629 | 2 |
| 2025-04-26T23:05:00 | 53.891650 | 6.219751 | 2.0 | 9.268 | 2 | 35.202 | 9.411 | 32.585 | 2 |
| 2025-04-26T23:06:00 | 53.891668 | 6.217442 | 2.0 | 9.328 | 2 | 35.220 | 9.448 | 32.570 | 2 |
| 2025-04-26T23:07:00 | 53.891676 | 6.215146 | 2.0 | 9.367 | 2 | 35.287 | 9.500 | 32.591 | 2 |
| 2025-04-26T23:08:00 | 53.891652 | 6.212863 | 2.0 | 9.390 | 2 | 35.341 | 9.540 | 32.610 | 2 |
| 2025-04-26T23:09:00 | 53.891586 | 6.210483 | 2.0 | 9.313 | 2 | 35.360 | 9.541 | 32.629 | 2 |
| 2025-04-26T23:10:00 | 53.891366 | 6.208084 | 2.0 | 9.364 | 2 | 35.317 | 9.484 | 32.637 | 2 |
| 2025-04-26T23:11:00 | 53.890630 | 6.206007 | 2.0 | 9.497 | 2 | 35.370 | 9.559 | 32.623 | 2 |
| 2025-04-26T23:12:00 | 53.890019 | 6.203618 | 2.0 | 9.517 | 2 | 35.442 | 9.659 | 32.606 | 2 |
| 2025-04-26T23:13:00 | 53.890427 | 6.201459 | 2.0 | 9.531 | 2 | 35.461 | 9.683 | 32.603 | 2 |
| 2025-04-26T23:14:00 | 53.891435 | 6.200685 | 2.0 | 9.501 | 2 | 35.472 | 9.687 | 32.611 | 2 |
| 2025-04-26T23:15:00 | 53.892408 | 6.201332 | 2.0 | 9.463 | 2 | 35.464 | 9.654 | 32.633 | 2 |
| 2025-04-26T23:16:00 | 53.892900 | 6.202995 | 2.0 | 9.439 | 2 | 35.444 | 9.625 | 32.639 | 2 |
| 2025-04-26T23:17:00 | 53.893026 | 6.205044 | 2.0 | 9.310 | 2 | 35.412 | 9.579 | 32.648 | 2 |
| 2025-04-26T23:18:00 | 53.893204 | 6.207192 | 2.0 | 9.363 | 2 | 35.329 | 9.492 | 32.642 | 2 |
| 2025-04-26T23:19:00 | 53.893189 | 6.209411 | 2.0 | 9.353 | 2 | 35.349 | 9.529 | 32.629 | 2 |
| 2025-04-26T23:20:00 | 53.893276 | 6.211672 | 2.0 | 9.284 | 2 | 35.308 | 9.496 | 32.617 | 2 |
| 2025-04-26T23:21:00 | 53.893273 | 6.213971 | 2.0 | 9.244 | 2 | 35.236 | 9.456 | 32.579 | 2 |
| 2025-04-26T23:22:00 | 53.893262 | 6.216263 | 2.0 | 9.338 | 2 | 35.218 | 9.421 | 32.592 | 2 |
| 2025-04-26T23:23:00 | 53.893293 | 6.218541 | 2.0 | 9.375 | 2 | 35.346 | 9.507 | 32.646 | 2 |
| 2025-04-26T23:24:00 | 53.893293 | 6.220809 | 2.0 | 9.405 | 2 | 35.405 | 9.547 | 32.670 | 2 |
| 2025-04-26T23:25:00 | 53.893296 | 6.223058 | 2.0 | 9.442 | 2 | 35.436 | 9.577 | 32.674 | 2 |
| 2025-04-26T23:26:00 | 53.893310 | 6.225288 | 2.0 | 9.452 | 2 | 35.458 | 9.608 | 32.668 | 2 |
| 2025-04-26T23:27:00 | 53.893309 | 6.227503 | 2.0 | 9.390 | 2 | 35.461 | 9.604 | 32.675 | 2 |
| 2025-04-26T23:28:00 | 53.893267 | 6.229715 | 2.0 | 9.277 | 2 | 35.412 | 9.530 | 32.692 | 2 |
| 2025-04-26T23:29:00 | 53.893262 | 6.231911 | 2.0 | 9.298 | 2 | 35.349 | 9.435 | 32.714 | 2 |
| 2025-04-26T23:30:00 | 53.893298 | 6.234113 | 2.0 | 9.266 | 2 | 35.358 | 9.469 | 32.692 | 2 |
| 2025-04-26T23:31:00 | 53.893304 | 6.236324 | 2.0 | 9.246 | 2 | 35.330 | 9.410 | 32.718 | 2 |
| 2025-04-26T23:32:00 | 53.893281 | 6.238543 | 2.0 | 9.224 | 2 | 35.313 | 9.400 | 32.709 | 2 |
| 2025-04-26T23:33:00 | 53.893278 | 6.240762 | 2.0 | 9.221 | 2 | 35.308 | 9.388 | 32.715 | 2 |
| 2025-04-26T23:34:00 | 53.893304 | 6.242994 | 2.0 | 9.312 | 2 | 35.322 | 9.428 | 32.693 | 2 |
| 2025-04-26T23:35:00 | 53.893322 | 6.245228 | 2.0 | 9.299 | 2 | 35.352 | 9.457 | 32.697 | 2 |
| 2025-04-26T23:36:00 | 53.893299 | 6.247464 | 2.0 | 9.348 | 2 | 35.359 | 9.465 | 32.697 | 2 |
| 2025-04-26T23:37:00 | 53.893278 | 6.249697 | 2.0 | 9.375 | 2 | 35.386 | 9.510 | 32.684 | 2 |
| 2025-04-26T23:38:00 | 53.893266 | 6.251932 | 2.0 | 9.376 | 2 | 35.402 | 9.539 | 32.674 | 2 |
| 2025-04-26T23:39:00 | 53.893267 | 6.254186 | 2.0 | 9.338 | 2 | 35.395 | 9.534 | 32.671 | 2 |
| 2025-04-26T23:40:00 | 53.893284 | 6.256452 | 2.0 | 9.323 | 2 | 35.087 | 9.503 | 32.384 | 2 |
| 2025-04-26T23:42:00 | 53.893281 | 6.261026 | 2.0 | 9.252 | 2 | 35.394 | 9.470 | 32.729 | 2 |
| 2025-04-26T23:43:00 | 53.893273 | 6.263324 | 2.0 | 9.261 | 2 | 35.374 | 9.423 | 32.751 | 2 |
| 2025-04-26T23:44:00 | 53.893280 | 6.265624 | 2.0 | 9.227 | 2 | 35.050 | 9.423 | 32.418 | 2 |
| 2025-04-26T23:45:00 | 53.893281 | 6.267920 | 2.0 | 9.183 | 2 | 35.360 | 9.387 | 32.770 | 2 |
| 2025-04-26T23:46:00 | 53.893270 | 6.270210 | 2.0 | 9.196 | 2 | 35.335 | 9.352 | 32.776 | 2 |
| 2025-04-26T23:47:00 | 53.893254 | 6.272491 | 2.0 | 9.223 | 2 | 35.343 | 9.367 | 32.770 | 2 |
| 2025-04-26T23:48:00 | 53.893243 | 6.274766 | 2.0 | 9.232 | 2 | 35.361 | 9.390 | 32.768 | 2 |
| 2025-04-26T23:49:00 | 53.893245 | 6.277042 | 2.0 | 9.227 | 2 | 35.313 | 9.400 | 32.709 | 2 |
| 2025-04-26T23:50:00 | 53.893255 | 6.279324 | 2.0 | 9.192 | 2 | 35.229 | 9.389 | 32.633 | 2 |
| 2025-04-26T23:51:00 | 53.893274 | 6.281615 | 2.0 | 9.148 | 2 | 34.913 | 9.354 | 32.340 | 2 |
| 2025-04-26T23:52:00 | 53.893282 | 6.283911 | 2.0 | 9.079 | 2 | 35.310 | 9.308 | 32.790 | 2 |
| 2025-04-26T23:53:00 | 53.893261 | 6.286224 | 2.0 | 8.984 | 2 | 35.074 | 9.238 | 32.611 | 2 |
| 2025-04-26T23:54:00 | 53.893313 | 6.288531 | 2.0 | 8.935 | 2 | 35.125 | 9.144 | 32.750 | 2 |
| 2025-04-26T23:55:00 | 53.893377 | 6.290834 | 2.0 | 8.781 | 2 | 35.128 | 9.090 | 32.803 | 2 |
| 2025-04-26T23:56:00 | 53.893350 | 6.293098 | 2.0 | 8.668 | 2 | 35.144 | 8.931 | 32.966 | 2 |
| 2025-04-26T23:57:00 | 53.893366 | 6.295324 | 2.0 | 8.624 | 2 | 34.939 | 8.841 | 32.836 | 2 |
| 2025-04-26T23:58:00 | 53.893429 | 6.297528 | 2.0 | 8.539 | 2 | 35.034 | 8.789 | 32.984 | 2 |
| 2025-04-26T23:59:00 | 53.893528 | 6.299713 | 2.0 | 8.511 | 2 | 34.782 | 8.705 | 32.798 | 2 |
| 2025-04-27T00:00:00 | 53.893656 | 6.301870 | 2.0 | 8.542 | 2 | 34.709 | 8.694 | 32.732 | 2 |
| 2025-04-27T00:01:00 | 53.893932 | 6.304036 | 2.0 | 8.581 | 2 | 34.848 | 8.718 | 32.855 | 2 |
| 2025-04-27T00:02:00 | 53.894262 | 6.306386 | 2.0 | 8.608 | 2 | 34.739 | 8.760 | 32.702 | 2 |
| 2025-04-27T00:03:00 | 53.893881 | 6.308554 | 2.0 | 8.627 | 2 | 34.908 | 8.784 | 32.856 | 2 |
| 2025-04-27T00:04:00 | 53.892561 | 6.309271 | 2.0 | 8.637 | 2 | 34.788 | 8.798 | 32.718 | 2 |
| 2025-04-27T00:05:00 | 53.891101 | 6.307841 | 2.0 | 8.629 | 2 | 34.814 | 8.806 | 32.738 | 2 |
| 2025-04-27T00:06:00 | 53.890711 | 6.304751 | 2.0 | 8.623 | 2 | 34.821 | 8.799 | 32.752 | 2 |
| 2025-04-27T00:07:00 | 53.890861 | 6.301719 | 2.0 | 8.619 | 2 | 34.576 | 8.794 | 32.500 | 2 |
| 2025-04-27T00:08:00 | 53.890858 | 6.298824 | 2.0 | 8.597 | 2 | 34.786 | 8.788 | 32.725 | 2 |
| 2025-04-27T00:09:00 | 53.890890 | 6.296045 | 2.0 | 8.545 | 2 | 34.785 | 8.760 | 32.750 | 2 |
| 2025-04-27T00:10:00 | 53.890820 | 6.293404 | 2.0 | 8.563 | 2 | 34.774 | 8.715 | 32.780 | 2 |
| 2025-04-27T00:11:00 | 53.890766 | 6.290857 | 2.0 | 8.596 | 2 | 34.928 | 8.736 | 32.922 | 2 |
| 2025-04-27T00:12:00 | 53.890797 | 6.288364 | 2.0 | 8.640 | 2 | 34.873 | 8.771 | 32.832 | 2 |
| 2025-04-27T00:13:00 | 53.890807 | 6.285903 | 2.0 | 8.794 | 2 | 34.909 | 8.827 | 32.818 | 2 |
| 2025-04-27T00:14:00 | 53.890801 | 6.283481 | 2.0 | 8.928 | 2 | 35.036 | 8.987 | 32.802 | 2 |
| 2025-04-27T00:15:00 | 53.890779 | 6.281082 | 2.0 | 8.937 | 2 | 35.138 | 9.089 | 32.814 | 2 |
| 2025-04-27T00:16:00 | 53.890803 | 6.278701 | 2.0 | 8.961 | 2 | 35.180 | 9.101 | 32.846 | 2 |
| 2025-04-27T00:17:00 | 53.890848 | 6.276334 | 2.0 | 9.065 | 2 | 35.078 | 9.138 | 32.707 | 2 |
| 2025-04-27T00:18:00 | 53.890841 | 6.273974 | 2.0 | 9.102 | 2 | 35.047 | 9.227 | 32.593 | 2 |
| 2025-04-27T00:19:00 | 53.890828 | 6.271610 | 2.0 | 9.119 | 2 | 35.113 | 9.267 | 32.625 | 2 |
| 2025-04-27T00:20:00 | 53.890858 | 6.269249 | 2.0 | 9.160 | 2 | 35.135 | 9.290 | 32.626 | 2 |
| 2025-04-27T00:21:00 | 53.890885 | 6.266883 | 2.0 | 9.199 | 2 | 35.177 | 9.330 | 32.633 | 2 |
| 2025-04-27T00:22:00 | 53.890870 | 6.264513 | 2.0 | 9.203 | 2 | 35.078 | 9.364 | 32.500 | 2 |
| 2025-04-27T00:23:00 | 53.890845 | 6.262138 | 2.0 | 9.213 | 2 | 34.911 | 9.369 | 32.324 | 2 |
| 2025-04-27T00:24:00 | 53.890845 | 6.259758 | 2.0 | 9.224 | 2 | 35.089 | 9.380 | 32.497 | 2 |
| 2025-04-27T00:25:00 | 53.890874 | 6.257373 | 2.0 | 9.230 | 2 | 35.020 | 9.390 | 32.417 | 2 |
| 2025-04-27T00:26:00 | 53.890900 | 6.254984 | 2.0 | 9.216 | 2 | 35.349 | 9.393 | 32.753 | 2 |
| 2025-04-27T00:27:00 | 53.890911 | 6.252585 | 2.0 | 9.198 | 2 | 35.360 | 9.380 | 32.776 | 2 |
| 2025-04-27T00:28:00 | 53.890903 | 6.250168 | 2.0 | 9.181 | 2 | 35.351 | 9.363 | 32.782 | 2 |
| 2025-04-27T00:29:00 | 53.890886 | 6.247747 | 2.0 | 9.171 | 2 | 35.337 | 9.346 | 32.783 | 2 |
| 2025-04-27T00:30:00 | 53.890876 | 6.245319 | 2.0 | 9.167 | 2 | 35.324 | 9.338 | 32.777 | 2 |
| 2025-04-27T00:31:00 | 53.890892 | 6.242873 | 2.0 | 9.134 | 2 | 35.315 | 9.328 | 32.777 | 2 |
| 2025-04-27T00:32:00 | 53.890917 | 6.240423 | 2.0 | 9.090 | 2 | 35.290 | 9.291 | 32.785 | 2 |
| 2025-04-27T00:33:00 | 53.890924 | 6.237979 | 2.0 | 9.045 | 2 | 35.256 | 9.246 | 32.792 | 2 |
| 2025-04-27T00:34:00 | 53.890898 | 6.235513 | 2.0 | 9.000 | 2 | 35.224 | 9.209 | 32.793 | 2 |
| 2025-04-27T00:35:00 | 53.890871 | 6.233057 | 2.0 | 8.852 | 2 | 35.185 | 9.150 | 32.806 | 2 |
| 2025-04-27T00:36:00 | 53.890858 | 6.230584 | 2.0 | 8.860 | 2 | 35.094 | 9.025 | 32.827 | 2 |
| 2025-04-27T00:37:00 | 53.890852 | 6.228104 | 2.0 | 9.160 | 2 | 35.097 | 9.077 | 32.782 | 2 |
| 2025-04-27T00:38:00 | 53.890854 | 6.225614 | 2.0 | 9.206 | 2 | 35.224 | 9.307 | 32.703 | 2 |
| 2025-04-27T00:39:00 | 53.890859 | 6.223115 | 2.0 | 9.247 | 2 | 35.270 | 9.366 | 32.696 | 2 |
| 2025-04-27T00:40:00 | 53.890872 | 6.220609 | 2.0 | 9.270 | 2 | 35.300 | 9.411 | 32.686 | 2 |
| 2025-04-27T00:41:00 | 53.890898 | 6.218095 | 2.0 | 9.181 | 2 | 35.315 | 9.426 | 32.688 | 2 |
| 2025-04-27T00:42:00 | 53.890929 | 6.215570 | 2.0 | 9.120 | 2 | 35.266 | 9.318 | 32.736 | 2 |
| 2025-04-27T00:43:00 | 53.890938 | 6.213036 | 2.0 | 9.156 | 2 | 35.237 | 9.284 | 32.737 | 2 |
| 2025-04-27T00:44:00 | 53.890915 | 6.210501 | 2.0 | 9.127 | 2 | 35.241 | 9.292 | 32.734 | 2 |
| 2025-04-27T00:45:00 | 53.890985 | 6.207981 | 2.0 | 9.050 | 2 | 35.235 | 9.272 | 32.746 | 2 |
| 2025-04-27T00:46:00 | 53.891242 | 6.205444 | 2.0 | 9.101 | 2 | 34.876 | 9.234 | 32.410 | 2 |
| 2025-04-27T00:47:00 | 53.891130 | 6.202929 | 2.0 | 9.117 | 2 | 35.204 | 9.240 | 32.743 | 2 |
| 2025-04-27T00:48:00 | 53.890377 | 6.201419 | 2.0 | 9.146 | 2 | 35.174 | 9.289 | 32.668 | 2 |
| 2025-04-27T00:49:00 | 53.889490 | 6.201358 | 2.0 | 9.163 | 2 | 35.249 | 9.318 | 32.718 | 2 |
| 2025-04-27T00:50:00 | 53.888863 | 6.202563 | 2.0 | 9.127 | 2 | 35.152 | 9.320 | 32.617 | 2 |
| 2025-04-27T00:51:00 | 53.888753 | 6.204464 | 2.0 | 9.130 | 2 | 35.239 | 9.298 | 32.726 | 2 |
| 2025-04-27T00:52:00 | 53.888648 | 6.206604 | 2.0 | 9.154 | 2 | 34.773 | 9.295 | 32.249 | 2 |
| 2025-04-27T00:53:00 | 53.888590 | 6.208869 | 2.0 | 9.195 | 2 | 35.261 | 9.322 | 32.727 | 2 |
| 2025-04-27T00:54:00 | 53.888494 | 6.211202 | 2.0 | 9.180 | 2 | 35.165 | 9.354 | 32.599 | 2 |
| 2025-04-27T00:55:00 | 53.888468 | 6.213546 | 2.0 | 9.145 | 2 | 35.215 | 9.349 | 32.655 | 2 |
| 2025-04-27T00:56:00 | 53.888478 | 6.215738 | 2.0 | 9.081 | 2 | 35.237 | 9.290 | 32.732 | 2 |
| 2025-04-27T00:57:00 | 53.888422 | 6.217773 | 2.0 | 9.070 | 2 | 35.206 | 9.255 | 32.732 | 2 |
| 2025-04-27T00:58:00 | 53.888382 | 6.219794 | 2.0 | 9.070 | 2 | 35.218 | 9.248 | 32.751 | 2 |
| 2025-04-27T00:59:00 | 53.888394 | 6.221819 | 2.0 | 9.049 | 2 | 35.013 | 9.221 | 32.563 | 2 |
| 2025-04-27T01:00:00 | 53.888403 | 6.223854 | 2.0 | 9.026 | 2 | 35.217 | 9.205 | 32.789 | 2 |
| 2025-04-27T01:01:00 | 53.888398 | 6.225810 | 2.0 | 9.014 | 2 | 35.198 | 9.183 | 32.790 | 2 |
| 2025-04-27T01:02:00 | 53.888402 | 6.227755 | 2.0 | 9.074 | 2 | 34.858 | 9.181 | 32.440 | 2 |
| 2025-04-27T01:03:00 | 53.888416 | 6.229824 | 2.0 | 9.109 | 2 | 35.002 | 9.250 | 32.526 | 2 |
| 2025-04-27T01:04:00 | 53.888422 | 6.231970 | 2.0 | 9.113 | 2 | 35.028 | 9.269 | 32.535 | 2 |
| 2025-04-27T01:05:00 | 53.888420 | 6.234163 | 2.0 | 9.142 | 2 | 35.142 | 9.283 | 32.640 | 2 |
| 2025-04-27T01:06:00 | 53.888417 | 6.236379 | 2.0 | 9.136 | 2 | 35.010 | 9.302 | 32.487 | 2 |
| 2025-04-27T01:07:00 | 53.888409 | 6.238606 | 2.0 | 9.182 | 2 | 35.037 | 9.314 | 32.503 | 2 |
| 2025-04-27T01:08:00 | 53.888394 | 6.240841 | 2.0 | 9.158 | 2 | 35.219 | 9.343 | 32.665 | 2 |
| 2025-04-27T01:09:00 | 53.888412 | 6.243090 | 2.0 | 9.144 | 2 | 35.129 | 9.323 | 32.590 | 2 |
| 2025-04-27T01:10:00 | 53.888430 | 6.245359 | 2.0 | 9.105 | 2 | 35.225 | 9.310 | 32.701 | 2 |
| 2025-04-27T01:11:00 | 53.888450 | 6.247632 | 2.0 | 9.038 | 2 | 35.093 | 9.262 | 32.609 | 2 |
| 2025-04-27T01:12:00 | 53.888491 | 6.249912 | 2.0 | 8.983 | 2 | 35.026 | 9.198 | 32.598 | 2 |
| 2025-04-27T01:13:00 | 53.888527 | 6.252193 | 2.0 | 8.935 | 2 | 35.217 | 9.144 | 32.845 | 2 |
| 2025-04-27T01:14:00 | 53.888529 | 6.254478 | 2.0 | 8.918 | 2 | 35.211 | 9.104 | 32.876 | 2 |
| 2025-04-27T01:15:00 | 53.888497 | 6.256767 | 2.0 | 8.880 | 2 | 35.175 | 9.087 | 32.854 | 2 |
| 2025-04-27T01:16:00 | 53.888508 | 6.259072 | 2.0 | 8.767 | 2 | 35.094 | 9.031 | 32.822 | 2 |
| 2025-04-27T01:17:00 | 53.888571 | 6.261388 | 2.0 | 8.605 | 2 | 34.864 | 8.922 | 32.683 | 2 |
| 2025-04-27T01:18:00 | 53.888592 | 6.263699 | 2.0 | 8.585 | 2 | 34.873 | 8.765 | 32.837 | 2 |
| 2025-04-27T01:19:00 | 53.888594 | 6.265973 | 2.0 | 8.612 | 2 | 34.818 | 8.767 | 32.778 | 2 |
| 2025-04-27T01:20:00 | 53.888566 | 6.268208 | 2.0 | 8.619 | 2 | 34.837 | 8.785 | 32.781 | 2 |
| 2025-04-27T01:21:00 | 53.888529 | 6.270413 | 2.0 | 8.630 | 2 | 34.817 | 8.793 | 32.753 | 2 |
| 2025-04-27T01:22:00 | 53.888559 | 6.272596 | 2.0 | 8.654 | 2 | 34.820 | 8.805 | 32.745 | 2 |
| 2025-04-27T01:23:00 | 53.888592 | 6.274769 | 2.0 | 8.664 | 2 | 34.897 | 8.825 | 32.807 | 2 |
| 2025-04-27T01:24:00 | 53.888548 | 6.276920 | 2.0 | 8.673 | 2 | 34.807 | 8.836 | 32.703 | 2 |
| 2025-04-27T01:25:00 | 53.888537 | 6.279066 | 2.0 | 8.683 | 2 | 34.717 | 8.842 | 32.603 | 2 |
| 2025-04-27T01:26:00 | 53.888569 | 6.281209 | 2.0 | 8.837 | 2 | 34.754 | 8.876 | 32.611 | 2 |
| 2025-04-27T01:27:00 | 53.888584 | 6.283331 | 2.0 | 8.867 | 2 | 34.856 | 8.998 | 32.605 | 2 |
| 2025-04-27T01:28:00 | 53.888539 | 6.285425 | 2.0 | 8.887 | 2 | 34.872 | 9.039 | 32.584 | 2 |
| 2025-04-27T01:29:00 | 53.888479 | 6.287509 | 2.0 | 8.912 | 2 | 34.852 | 9.053 | 32.550 | 2 |
| 2025-04-27T01:30:00 | 53.888471 | 6.289596 | 2.0 | 8.965 | 2 | 34.823 | 9.091 | 32.486 | 2 |
| 2025-04-27T01:31:00 | 53.888503 | 6.291688 | 2.0 | 8.999 | 2 | 34.843 | 9.142 | 32.460 | 2 |
| 2025-04-27T01:32:00 | 53.888512 | 6.293773 | 2.0 | 8.988 | 2 | 34.884 | 9.159 | 32.487 | 2 |
| 2025-04-27T01:33:00 | 53.888516 | 6.295846 | 2.0 | 9.010 | 2 | 34.872 | 9.163 | 32.471 | 2 |
| 2025-04-27T01:34:00 | 53.888519 | 6.297908 | 2.0 | 9.029 | 2 | 34.880 | 9.181 | 32.462 | 2 |
| 2025-04-27T01:35:00 | 53.888497 | 6.299964 | 2.0 | 9.026 | 2 | 34.902 | 9.190 | 32.477 | 2 |
| 2025-04-27T01:36:00 | 53.888287 | 6.301927 | 2.0 | 9.042 | 2 | 34.876 | 9.194 | 32.446 | 2 |
| 2025-04-27T01:37:00 | 53.887586 | 6.303548 | 2.0 | 9.046 | 2 | 34.899 | 9.206 | 32.459 | 2 |
| 2025-04-27T01:38:00 | 53.887163 | 6.305311 | 2.0 | 9.027 | 2 | 34.890 | 9.207 | 32.449 | 2 |
| 2025-04-27T01:39:00 | 53.887674 | 6.306994 | 2.0 | 9.012 | 2 | 34.905 | 9.194 | 32.476 | 2 |
| 2025-04-27T01:40:00 | 53.888844 | 6.307683 | 2.0 | 8.982 | 2 | 34.908 | 9.174 | 32.498 | 2 |
| 2025-04-27T01:41:00 | 53.889954 | 6.306686 | 2.0 | 8.956 | 2 | 34.895 | 9.148 | 32.508 | 2 |
| 2025-04-27T01:42:00 | 53.890377 | 6.304849 | 2.0 | 8.931 | 2 | 34.885 | 9.125 | 32.519 | 2 |
| 2025-04-27T01:43:00 | 53.890341 | 6.302989 | 2.0 | 8.952 | 2 | 34.877 | 9.103 | 32.530 | 2 |
| 2025-04-27T01:44:00 | 53.890054 | 6.300729 | 2.0 | 8.947 | 2 | 34.884 | 9.116 | 32.526 | 2 |
| 2025-04-27T01:45:00 | 53.890025 | 6.298018 | 2.0 | 8.953 | 2 | 34.884 | 9.118 | 32.524 | 2 |
| 2025-04-27T01:46:00 | 53.890070 | 6.295359 | 2.0 | 8.961 | 2 | 34.923 | 9.123 | 32.560 | 2 |
| 2025-04-27T01:47:00 | 53.890010 | 6.292810 | 2.0 | 8.976 | 2 | 34.930 | 9.124 | 32.566 | 2 |
| 2025-04-27T01:48:00 | 53.890011 | 6.290314 | 2.0 | 8.993 | 2 | 34.953 | 9.144 | 32.572 | 2 |
| 2025-04-27T01:49:00 | 53.890083 | 6.287835 | 2.0 | 8.994 | 2 | 34.972 | 9.161 | 32.576 | 2 |
| 2025-04-27T01:50:00 | 53.890138 | 6.285388 | 2.0 | 8.961 | 2 | 34.945 | 9.157 | 32.552 | 2 |
| 2025-04-27T01:51:00 | 53.890118 | 6.282985 | 2.0 | 8.946 | 2 | 34.969 | 9.118 | 32.612 | 2 |
| 2025-04-27T01:52:00 | 53.890077 | 6.280615 | 2.0 | 8.954 | 2 | 34.987 | 9.118 | 32.631 | 2 |
| 2025-04-27T01:53:00 | 53.890071 | 6.278251 | 2.0 | 8.955 | 2 | 35.000 | 9.122 | 32.641 | 2 |
| 2025-04-27T01:54:00 | 53.890089 | 6.275890 | 2.0 | 8.971 | 2 | 34.988 | 9.128 | 32.623 | 2 |
| 2025-04-27T01:55:00 | 53.890118 | 6.273530 | 2.0 | 8.961 | 2 | 34.995 | 9.132 | 32.626 | 2 |
| 2025-04-27T01:56:00 | 53.890132 | 6.271172 | 2.0 | 8.946 | 2 | 34.981 | 9.126 | 32.617 | 2 |
| 2025-04-27T01:57:00 | 53.890121 | 6.268825 | 2.0 | 8.938 | 2 | 34.996 | 9.113 | 32.645 | 2 |
| 2025-04-27T01:58:00 | 53.890100 | 6.266485 | 2.0 | 8.918 | 2 | 34.987 | 9.101 | 32.646 | 2 |
| 2025-04-27T01:59:00 | 53.890074 | 6.264165 | 2.0 | 8.883 | 2 | 34.976 | 9.082 | 32.652 | 2 |
| 2025-04-27T02:00:00 | 53.890061 | 6.261843 | 2.0 | 8.830 | 2 | 34.968 | 9.043 | 32.680 | 2 |
| 2025-04-27T02:01:00 | 53.890065 | 6.259516 | 2.0 | 8.798 | 2 | 34.951 | 8.995 | 32.706 | 2 |
| 2025-04-27T02:02:00 | 53.890087 | 6.257191 | 2.0 | 8.767 | 2 | 34.942 | 8.965 | 32.725 | 2 |
| 2025-04-27T02:03:00 | 53.890115 | 6.254862 | 2.0 | 8.723 | 2 | 34.940 | 8.937 | 32.748 | 2 |
| 2025-04-27T02:04:00 | 53.890118 | 6.252540 | 2.0 | 8.692 | 2 | 34.927 | 8.886 | 32.782 | 2 |
| 2025-04-27T02:05:00 | 53.890086 | 6.250235 | 2.0 | 8.690 | 2 | 34.929 | 8.865 | 32.803 | 2 |
| 2025-04-27T02:06:00 | 53.890043 | 6.247935 | 2.0 | 8.676 | 2 | 34.929 | 8.860 | 32.808 | 2 |
| 2025-04-27T02:07:00 | 53.890004 | 6.245642 | 2.0 | 8.669 | 2 | 34.931 | 8.847 | 32.822 | 2 |
| 2025-04-27T02:08:00 | 53.889993 | 6.243355 | 2.0 | 8.659 | 2 | 34.931 | 8.839 | 32.829 | 2 |
| 2025-04-27T02:09:00 | 53.890012 | 6.241061 | 2.0 | 8.636 | 2 | 34.934 | 8.826 | 32.845 | 2 |
| 2025-04-27T02:10:00 | 53.890023 | 6.238773 | 2.0 | 8.616 | 2 | 34.939 | 8.804 | 32.870 | 2 |
| 2025-04-27T02:11:00 | 53.889999 | 6.236500 | 2.0 | 8.583 | 2 | 34.944 | 8.781 | 32.897 | 2 |
| 2025-04-27T02:12:00 | 53.889940 | 6.234248 | 2.0 | 8.552 | 2 | 34.955 | 8.749 | 32.938 | 2 |
| 2025-04-27T02:13:00 | 53.889866 | 6.232012 | 2.0 | 8.534 | 2 | 34.955 | 8.718 | 32.967 | 2 |
| 2025-04-27T02:14:00 | 53.889882 | 6.229760 | 2.0 | 8.595 | 2 | 34.959 | 8.719 | 32.970 | 2 |
| 2025-04-27T02:15:00 | 53.890016 | 6.227501 | 2.0 | 8.618 | 2 | 34.993 | 8.765 | 32.963 | 2 |
| 2025-04-27T02:16:00 | 53.890023 | 6.225228 | 2.0 | 8.716 | 2 | 35.024 | 8.808 | 32.955 | 2 |
| 2025-04-27T02:17:00 | 53.889945 | 6.222955 | 2.0 | 8.721 | 2 | 35.069 | 8.870 | 32.945 | 2 |
| 2025-04-27T02:18:00 | 53.889939 | 6.220653 | 2.0 | 8.745 | 2 | 35.087 | 8.896 | 32.939 | 2 |
| 2025-04-27T02:19:00 | 53.890000 | 6.218340 | 2.0 | 8.769 | 2 | 35.093 | 8.902 | 32.940 | 2 |
| 2025-04-27T02:20:00 | 53.890036 | 6.216016 | 2.0 | 8.794 | 2 | 35.116 | 8.939 | 32.930 | 2 |
| 2025-04-27T02:21:00 | 53.890035 | 6.213681 | 2.0 | 8.843 | 2 | 35.120 | 8.947 | 32.926 | 2 |
| 2025-04-27T02:22:00 | 53.890006 | 6.211340 | 2.0 | 8.890 | 2 | 35.156 | 9.024 | 32.893 | 2 |
| 2025-04-27T02:23:00 | 53.889976 | 6.208989 | 2.0 | 8.901 | 2 | 35.169 | 9.052 | 32.880 | 2 |
| 2025-04-27T02:24:00 | 53.890092 | 6.206683 | 2.0 | 8.856 | 2 | 35.163 | 9.044 | 32.881 | 2 |
| 2025-04-27T02:25:00 | 53.890428 | 6.204541 | 2.0 | 8.884 | 2 | 35.146 | 9.029 | 32.878 | 2 |
| 2025-04-27T02:26:00 | 53.890288 | 6.202525 | 2.0 | 8.929 | 2 | 35.153 | 9.052 | 32.864 | 2 |
| 2025-04-27T02:27:00 | 53.889533 | 6.201183 | 2.0 | 8.925 | 2 | 35.174 | 9.087 | 32.853 | 2 |
| 2025-04-27T02:28:00 | 53.888575 | 6.201277 | 2.0 | 8.916 | 2 | 35.171 | 9.084 | 32.853 | 2 |
| 2025-04-27T02:29:00 | 53.888151 | 6.202766 | 2.0 | 8.884 | 2 | 35.171 | 9.080 | 32.856 | 2 |
| 2025-04-27T02:30:00 | 53.887916 | 6.204919 | 2.0 | 8.838 | 2 | 35.148 | 9.042 | 32.868 | 2 |
| 2025-04-27T02:31:00 | 53.887711 | 6.207221 | 2.0 | 8.774 | 2 | 35.128 | 8.995 | 32.890 | 2 |
| 2025-04-27T02:32:00 | 53.887649 | 6.209436 | 2.0 | 8.741 | 2 | 35.099 | 8.937 | 32.914 | 2 |
| 2025-04-27T02:33:00 | 53.887628 | 6.211618 | 2.0 | 8.742 | 2 | 35.081 | 8.908 | 32.922 | 2 |
| 2025-04-27T02:34:00 | 53.887611 | 6.213784 | 2.0 | 8.668 | 2 | 35.082 | 8.896 | 32.934 | 2 |
| 2025-04-27T02:35:00 | 53.887619 | 6.215982 | 2.0 | 8.622 | 2 | 35.043 | 8.831 | 32.954 | 2 |
| 2025-04-27T02:36:00 | 53.887641 | 6.218233 | 2.0 | 8.591 | 2 | 35.009 | 8.790 | 32.956 | 2 |
| 2025-04-27T02:37:00 | 53.887674 | 6.220524 | 2.0 | 8.548 | 2 | 34.992 | 8.758 | 32.968 | 2 |
| 2025-04-27T02:38:00 | 53.887722 | 6.222838 | 2.0 | 8.582 | 2 | 34.962 | 8.728 | 32.965 | 2 |
| 2025-04-27T02:39:00 | 53.887785 | 6.225149 | 2.0 | 8.603 | 2 | 34.956 | 8.756 | 32.933 | 2 |
| 2025-04-27T02:40:00 | 53.887684 | 6.227420 | 2.0 | 8.619 | 2 | 34.952 | 8.775 | 32.911 | 2 |
| 2025-04-27T02:41:00 | 53.887639 | 6.229673 | 2.0 | 8.650 | 2 | 34.950 | 8.791 | 32.894 | 2 |
| 2025-04-27T02:42:00 | 53.887689 | 6.231936 | 2.0 | 8.703 | 2 | 34.940 | 8.830 | 32.847 | 2 |
| 2025-04-27T02:43:00 | 53.887674 | 6.234179 | 2.0 | 8.770 | 2 | 34.946 | 8.883 | 32.804 | 2 |
| 2025-04-27T02:44:00 | 53.887614 | 6.236395 | 2.0 | 8.809 | 2 | 34.960 | 8.940 | 32.766 | 2 |
| 2025-04-27T02:45:00 | 53.887612 | 6.238614 | 2.0 | 8.838 | 2 | 34.961 | 8.980 | 32.730 | 2 |
| 2025-04-27T02:46:00 | 53.887635 | 6.240848 | 2.0 | 8.857 | 2 | 34.965 | 9.005 | 32.712 | 2 |
| 2025-04-27T02:47:00 | 53.887653 | 6.243099 | 2.0 | 8.879 | 2 | 34.964 | 9.028 | 32.689 | 2 |
| 2025-04-27T02:48:00 | 53.887649 | 6.245357 | 2.0 | 8.898 | 2 | 34.964 | 9.047 | 32.672 | 2 |
| 2025-04-27T02:49:00 | 53.887643 | 6.247616 | 2.0 | 8.926 | 2 | 34.963 | 9.071 | 32.649 | 2 |
| 2025-04-27T02:50:00 | 53.887629 | 6.249876 | 2.0 | 8.939 | 2 | 34.966 | 9.093 | 32.632 | 2 |
| 2025-04-27T02:51:00 | 53.887617 | 6.252130 | 2.0 | 8.946 | 2 | 34.965 | 9.107 | 32.618 | 2 |
| 2025-04-27T02:52:00 | 53.887613 | 6.254387 | 2.0 | 8.970 | 2 | 34.959 | 9.115 | 32.604 | 2 |
| 2025-04-27T02:53:00 | 53.887622 | 6.256646 | 2.0 | 8.994 | 2 | 34.962 | 9.138 | 32.587 | 2 |
| 2025-04-27T02:54:00 | 53.887628 | 6.258911 | 2.0 | 8.999 | 2 | 34.969 | 9.160 | 32.574 | 2 |
| 2025-04-27T02:55:00 | 53.887631 | 6.261188 | 2.0 | 9.000 | 2 | 34.968 | 9.165 | 32.568 | 2 |
| 2025-04-27T02:56:00 | 53.887632 | 6.263474 | 2.0 | 8.991 | 2 | 34.965 | 9.163 | 32.567 | 2 |
| 2025-04-27T02:57:00 | 53.887631 | 6.265758 | 2.0 | 9.000 | 2 | 34.959 | 9.159 | 32.564 | 2 |
| 2025-04-27T02:58:00 | 53.887629 | 6.268041 | 2.0 | 8.985 | 2 | 34.959 | 9.165 | 32.559 | 2 |
| 2025-04-27T02:59:00 | 53.887613 | 6.270323 | 2.0 | 8.967 | 2 | 34.949 | 9.148 | 32.564 | 2 |
| 2025-04-27T03:00:00 | 53.887596 | 6.272602 | 2.0 | 8.960 | 2 | 34.937 | 9.133 | 32.565 | 2 |
| 2025-04-27T03:01:00 | 53.887598 | 6.274894 | 2.0 | 8.939 | 2 | 34.932 | 9.122 | 32.570 | 2 |
| 2025-04-27T03:02:00 | 53.887622 | 6.277205 | 2.0 | 8.925 | 2 | 34.916 | 9.102 | 32.572 | 2 |
| 2025-04-27T03:03:00 | 53.887611 | 6.279533 | 2.0 | 8.908 | 2 | 34.911 | 9.089 | 32.579 | 2 |
| 2025-04-27T03:04:00 | 53.887601 | 6.281864 | 2.0 | 8.906 | 2 | 34.904 | 9.075 | 32.584 | 2 |
| 2025-04-27T03:05:00 | 53.887631 | 6.284215 | 2.0 | 8.897 | 2 | 34.864 | 9.071 | 32.546 | 2 |
| 2025-04-27T03:06:00 | 53.887667 | 6.286583 | 2.0 | 8.884 | 2 | 34.863 | 9.062 | 32.553 | 2 |
| 2025-04-27T03:07:00 | 53.887680 | 6.288960 | 2.0 | 8.881 | 2 | 34.842 | 9.051 | 32.542 | 2 |
| 2025-04-27T03:08:00 | 53.887657 | 6.291342 | 2.0 | 8.874 | 2 | 34.856 | 9.043 | 32.564 | 2 |
| 2025-04-27T03:09:00 | 53.887670 | 6.293744 | 2.0 | 8.895 | 2 | 34.862 | 9.049 | 32.564 | 2 |
| 2025-04-27T03:10:00 | 53.887711 | 6.296160 | 2.0 | 8.894 | 2 | 34.859 | 9.060 | 32.551 | 2 |
| 2025-04-27T03:11:00 | 53.887718 | 6.298540 | 2.0 | 8.890 | 2 | 34.873 | 9.061 | 32.565 | 2 |
| 2025-04-27T03:12:00 | 53.887671 | 6.300806 | 2.0 | 8.886 | 2 | 34.867 | 9.057 | 32.562 | 2 |
| 2025-04-27T03:13:00 | 53.887076 | 6.302675 | 2.0 | 8.885 | 2 | 34.860 | 9.052 | 32.559 | 2 |
| 2025-04-27T03:14:00 | 53.886361 | 6.304423 | 2.0 | 8.886 | 2 | 34.854 | 9.053 | 32.552 | 2 |
| 2025-04-27T03:15:00 | 53.886178 | 6.306320 | 2.0 | 8.872 | 2 | 34.850 | 9.050 | 32.551 | 2 |
| 2025-04-27T03:16:00 | 53.886865 | 6.307910 | 2.0 | 8.851 | 2 | 34.840 | 9.035 | 32.554 | 2 |
| 2025-04-27T03:17:00 | 53.888143 | 6.308458 | 2.0 | 8.830 | 2 | 34.833 | 9.016 | 32.564 | 2 |
| 2025-04-27T03:18:00 | 53.889257 | 6.307218 | 2.0 | 8.837 | 2 | 34.833 | 9.002 | 32.577 | 2 |
| 2025-04-27T03:19:00 | 53.889411 | 6.305105 | 2.0 | 8.843 | 2 | 34.837 | 9.006 | 32.578 | 2 |
| 2025-04-27T03:20:00 | 53.889260 | 6.302835 | 2.0 | 8.851 | 2 | 34.841 | 9.010 | 32.578 | 2 |
| 2025-04-27T03:21:00 | 53.889279 | 6.300335 | 2.0 | 8.867 | 2 | 34.848 | 9.021 | 32.575 | 2 |
| 2025-04-27T03:22:00 | 53.889278 | 6.297783 | 2.0 | 8.871 | 2 | 34.856 | 9.034 | 32.572 | 2 |
| 2025-04-27T03:23:00 | 53.889173 | 6.295359 | 2.0 | 8.876 | 2 | 34.860 | 9.040 | 32.570 | 2 |
| 2025-04-27T03:24:00 | 53.889176 | 6.292997 | 2.0 | 8.879 | 2 | 34.864 | 9.043 | 32.572 | 2 |
| 2025-04-27T03:25:00 | 53.889250 | 6.290667 | 2.0 | 8.888 | 2 | 34.867 | 9.048 | 32.570 | 2 |
| 2025-04-27T03:26:00 | 53.889287 | 6.288362 | 2.0 | 8.888 | 2 | 34.870 | 9.055 | 32.567 | 2 |
| 2025-04-27T03:27:00 | 53.889260 | 6.286081 | 2.0 | 8.889 | 2 | 34.875 | 9.054 | 32.573 | 2 |
| 2025-04-27T03:28:00 | 53.889228 | 6.283815 | 2.0 | 8.889 | 2 | 34.877 | 9.058 | 32.572 | 2 |
| 2025-04-27T03:29:00 | 53.889217 | 6.281552 | 2.0 | 8.874 | 2 | 34.879 | 9.054 | 32.577 | 2 |
| 2025-04-27T03:30:00 | 53.889226 | 6.279292 | 2.0 | 8.865 | 2 | 34.876 | 9.041 | 32.586 | 2 |
| 2025-04-27T03:31:00 | 53.889266 | 6.277033 | 2.0 | 8.858 | 2 | 34.873 | 9.030 | 32.593 | 2 |
| 2025-04-27T03:32:00 | 53.889316 | 6.274777 | 2.0 | 8.864 | 2 | 34.873 | 9.027 | 32.596 | 2 |
| 2025-04-27T03:33:00 | 53.889349 | 6.272529 | 2.0 | 8.866 | 2 | 34.877 | 9.034 | 32.594 | 2 |
| 2025-04-27T03:34:00 | 53.889359 | 6.270295 | 2.0 | 8.873 | 2 | 34.878 | 9.034 | 32.595 | 2 |
| 2025-04-27T03:35:00 | 53.889341 | 6.268072 | 2.0 | 8.883 | 2 | 34.883 | 9.042 | 32.593 | 2 |
| 2025-04-27T03:36:00 | 53.889314 | 6.265867 | 2.0 | 8.888 | 2 | 34.890 | 9.052 | 32.591 | 2 |
| 2025-04-27T03:37:00 | 53.889302 | 6.263673 | 2.0 | 8.883 | 2 | 34.894 | 9.055 | 32.592 | 2 |
| 2025-04-27T03:38:00 | 53.889303 | 6.261484 | 2.0 | 8.887 | 2 | 34.894 | 9.052 | 32.595 | 2 |
| 2025-04-27T03:39:00 | 53.889315 | 6.259303 | 2.0 | 8.881 | 2 | 34.894 | 9.053 | 32.594 | 2 |
| 2025-04-27T03:40:00 | 53.889329 | 6.257133 | 2.0 | 8.885 | 2 | 34.894 | 9.048 | 32.598 | 2 |
| 2025-04-27T03:41:00 | 53.889338 | 6.254976 | 2.0 | 8.910 | 2 | 34.896 | 9.058 | 32.591 | 2 |
| 2025-04-27T03:42:00 | 53.889362 | 6.252823 | 2.0 | 8.921 | 2 | 34.900 | 9.079 | 32.576 | 2 |
| 2025-04-27T03:43:00 | 53.889379 | 6.250676 | 2.0 | 8.923 | 2 | 34.908 | 9.088 | 32.576 | 2 |
| 2025-04-27T03:44:00 | 53.889370 | 6.248543 | 2.0 | 8.916 | 2 | 34.911 | 9.088 | 32.579 | 2 |
| 2025-04-27T03:45:00 | 53.889326 | 6.246432 | 2.0 | 8.925 | 2 | 34.913 | 9.085 | 32.584 | 2 |
| 2025-04-27T03:46:00 | 53.889276 | 6.244340 | 2.0 | 8.928 | 2 | 34.915 | 9.093 | 32.579 | 2 |
| 2025-04-27T03:47:00 | 53.889261 | 6.242247 | 2.0 | 8.947 | 2 | 34.913 | 9.099 | 32.571 | 2 |
| 2025-04-27T03:48:00 | 53.889291 | 6.240143 | 2.0 | 8.950 | 2 | 34.919 | 9.115 | 32.563 | 2 |
| 2025-04-27T03:49:00 | 53.889321 | 6.238035 | 2.0 | 8.958 | 2 | 34.924 | 9.117 | 32.566 | 2 |
| 2025-04-27T03:50:00 | 53.889330 | 6.235937 | 2.0 | 8.966 | 2 | 34.931 | 9.127 | 32.564 | 2 |
| 2025-04-27T03:51:00 | 53.889299 | 6.233858 | 2.0 | 8.954 | 2 | 34.937 | 9.130 | 32.568 | 2 |
| 2025-04-27T03:52:00 | 53.889240 | 6.231801 | 2.0 | 8.952 | 2 | 34.939 | 9.120 | 32.579 | 2 |
| 2025-04-27T03:53:00 | 53.889190 | 6.229749 | 2.0 | 8.947 | 2 | 34.941 | 9.118 | 32.583 | 2 |
| 2025-04-27T03:54:00 | 53.889170 | 6.227699 | 2.0 | 8.945 | 2 | 34.943 | 9.113 | 32.590 | 2 |
| 2025-04-27T03:55:00 | 53.889177 | 6.225655 | 2.0 | 8.949 | 2 | 34.945 | 9.112 | 32.593 | 2 |
| 2025-04-27T03:56:00 | 53.889197 | 6.223616 | 2.0 | 8.953 | 2 | 34.955 | 9.116 | 32.599 | 2 |
| 2025-04-27T03:57:00 | 53.889227 | 6.221584 | 2.0 | 8.956 | 2 | 34.961 | 9.119 | 32.603 | 2 |
| 2025-04-27T03:58:00 | 53.889246 | 6.219568 | 2.0 | 8.966 | 2 | 34.968 | 9.125 | 32.605 | 2 |
| 2025-04-27T03:59:00 | 53.889248 | 6.217569 | 2.0 | 8.950 | 2 | 34.977 | 9.129 | 32.610 | 2 |
| 2025-04-27T04:00:00 | 53.889226 | 6.215587 | 2.0 | 8.940 | 2 | 34.981 | 9.114 | 32.628 | 2 |
| 2025-04-27T04:01:00 | 53.889188 | 6.213629 | 2.0 | 8.931 | 2 | 34.981 | 9.106 | 32.635 | 2 |
| 2025-04-27T04:02:00 | 53.889182 | 6.211672 | 2.0 | 8.893 | 2 | 34.963 | 9.095 | 32.627 | 2 |
| 2025-04-27T04:03:00 | 53.889305 | 6.209737 | 2.0 | 8.882 | 2 | 34.962 | 9.061 | 32.657 | 2 |
| 2025-04-27T04:04:00 | 53.889770 | 6.207943 | 2.0 | 8.865 | 2 | 34.961 | 9.047 | 32.669 | 2 |
| 2025-04-27T04:05:00 | 53.890224 | 6.206179 | 2.0 | 8.843 | 2 | 34.959 | 9.031 | 32.681 | 2 |
| 2025-04-27T04:06:00 | 53.890161 | 6.204476 | 2.0 | 8.827 | 2 | 34.951 | 9.005 | 32.697 | 2 |
| 2025-04-27T04:07:00 | 53.889572 | 6.203308 | 2.0 | 8.821 | 2 | 34.949 | 8.993 | 32.706 | 2 |
| 2025-04-27T04:08:00 | 53.888575 | 6.203094 | 2.0 | 8.816 | 2 | 34.953 | 8.987 | 32.716 | 2 |
| 2025-04-27T04:09:00 | 53.887663 | 6.204197 | 2.0 | 8.817 | 2 | 34.954 | 8.983 | 32.720 | 2 |
| 2025-04-27T04:10:00 | 53.887267 | 6.206288 | 2.0 | 8.814 | 2 | 34.955 | 8.985 | 32.720 | 2 |
| 2025-04-27T04:11:00 | 53.886941 | 6.208617 | 2.0 | 8.811 | 2 | 34.951 | 8.979 | 32.721 | 2 |
| 2025-04-27T04:12:00 | 53.886904 | 6.211008 | 2.0 | 8.855 | 2 | 34.934 | 8.987 | 32.696 | 2 |
| 2025-04-27T04:13:00 | 53.886846 | 6.213382 | 2.0 | 8.868 | 2 | 34.940 | 9.024 | 32.668 | 2 |
| 2025-04-27T04:14:00 | 53.886782 | 6.215752 | 2.0 | 8.864 | 2 | 34.945 | 9.032 | 32.666 | 2 |
| 2025-04-27T04:15:00 | 53.886849 | 6.218150 | 2.0 | 8.899 | 2 | 34.930 | 9.037 | 32.646 | 2 |
| 2025-04-27T04:16:00 | 53.886824 | 6.220547 | 2.0 | 8.926 | 2 | 34.939 | 9.072 | 32.623 | 2 |
| 2025-04-27T04:17:00 | 53.886803 | 6.222953 | 2.0 | 8.940 | 2 | 34.953 | 9.093 | 32.618 | 2 |
| 2025-04-27T04:18:00 | 53.886803 | 6.225369 | 2.0 | 8.944 | 2 | 34.954 | 9.106 | 32.608 | 2 |
| 2025-04-27T04:19:00 | 53.886809 | 6.227785 | 2.0 | 8.947 | 2 | 34.947 | 9.111 | 32.596 | 2 |
| 2025-04-27T04:20:00 | 53.886808 | 6.230197 | 2.0 | 8.936 | 2 | 34.943 | 9.111 | 32.592 | 2 |
| 2025-04-27T04:21:00 | 53.886815 | 6.232606 | 2.0 | 8.930 | 2 | 34.933 | 9.102 | 32.589 | 2 |
| 2025-04-27T04:22:00 | 53.886833 | 6.234939 | 2.0 | 8.949 | 2 | 34.920 | 9.097 | 32.581 | 2 |
| 2025-04-27T04:23:00 | 53.886833 | 6.237198 | 2.0 | 8.973 | 2 | 34.920 | 9.122 | 32.558 | 2 |
| 2025-04-27T04:24:00 | 53.886828 | 6.239407 | 2.0 | 8.976 | 2 | 34.926 | 9.138 | 32.549 | 2 |
| 2025-04-27T04:25:00 | 53.886817 | 6.241602 | 2.0 | 8.991 | 2 | 34.928 | 9.144 | 32.546 | 2 |
| 2025-04-27T04:26:00 | 53.886818 | 6.243810 | 2.0 | 8.999 | 2 | 34.933 | 9.158 | 32.538 | 2 |
| 2025-04-27T04:27:00 | 53.886820 | 6.246014 | 2.0 | 8.993 | 2 | 34.930 | 9.165 | 32.529 | 2 |
| 2025-04-27T04:28:00 | 53.886809 | 6.248220 | 2.0 | 8.979 | 2 | 34.926 | 9.157 | 32.532 | 2 |
| 2025-04-27T04:29:00 | 53.886791 | 6.250429 | 2.0 | 8.957 | 2 | 34.919 | 9.143 | 32.537 | 2 |
| 2025-04-27T04:30:00 | 53.886782 | 6.252641 | 2.0 | 8.937 | 2 | 34.907 | 9.121 | 32.545 | 2 |
| 2025-04-27T04:31:00 | 53.886800 | 6.254862 | 2.0 | 8.909 | 2 | 34.896 | 9.102 | 32.551 | 2 |
| 2025-04-27T04:32:00 | 53.886803 | 6.257093 | 2.0 | 8.844 | 2 | 34.881 | 9.063 | 32.571 | 2 |
| 2025-04-27T04:33:00 | 53.886778 | 6.259329 | 2.0 | 8.840 | 2 | 34.864 | 9.015 | 32.598 | 2 |
| 2025-04-27T04:34:00 | 53.886815 | 6.261584 | 2.0 | 8.835 | 2 | 34.861 | 9.009 | 32.600 | 2 |
| 2025-04-27T04:35:00 | 53.886850 | 6.263848 | 2.0 | 8.832 | 2 | 34.861 | 9.004 | 32.605 | 2 |
| 2025-04-27T04:36:00 | 53.886833 | 6.266121 | 2.0 | 8.825 | 2 | 34.862 | 9.000 | 32.609 | 2 |
| 2025-04-27T04:37:00 | 53.886786 | 6.268407 | 2.0 | 8.824 | 2 | 34.859 | 8.993 | 32.613 | 2 |
| 2025-04-27T04:38:00 | 53.886780 | 6.270700 | 2.0 | 8.830 | 2 | 34.854 | 8.994 | 32.606 | 2 |
| 2025-04-27T04:39:00 | 53.886799 | 6.273011 | 2.0 | 8.828 | 2 | 34.845 | 8.998 | 32.593 | 2 |
| 2025-04-27T04:40:00 | 53.886810 | 6.275336 | 2.0 | 8.825 | 2 | 34.848 | 8.995 | 32.599 | 2 |
| 2025-04-27T04:41:00 | 53.886837 | 6.277670 | 2.0 | 8.821 | 2 | 34.847 | 8.993 | 32.600 | 2 |
| 2025-04-27T04:42:00 | 53.886868 | 6.280019 | 2.0 | 8.819 | 2 | 34.845 | 8.989 | 32.602 | 2 |
| 2025-04-27T04:43:00 | 53.886890 | 6.282381 | 2.0 | 8.819 | 2 | 34.842 | 8.986 | 32.601 | 2 |
| 2025-04-27T04:44:00 | 53.886913 | 6.284744 | 2.0 | 8.821 | 2 | 34.837 | 8.988 | 32.594 | 2 |
| 2025-04-27T04:45:00 | 53.886944 | 6.287095 | 2.0 | 8.816 | 2 | 34.834 | 8.988 | 32.591 | 2 |
| 2025-04-27T04:46:00 | 53.886987 | 6.289465 | 2.0 | 8.806 | 2 | 34.831 | 8.982 | 32.594 | 2 |
| 2025-04-27T04:47:00 | 53.886971 | 6.291839 | 2.0 | 8.798 | 2 | 34.821 | 8.973 | 32.591 | 2 |
| 2025-04-27T04:48:00 | 53.886921 | 6.294188 | 2.0 | 8.795 | 2 | 34.812 | 8.965 | 32.589 | 2 |
| 2025-04-27T04:49:00 | 53.886922 | 6.296495 | 2.0 | 8.791 | 2 | 34.811 | 8.962 | 32.591 | 2 |
| 2025-04-27T04:50:00 | 53.886942 | 6.298782 | 2.0 | 8.789 | 2 | 34.808 | 8.960 | 32.590 | 2 |
| 2025-04-27T04:51:00 | 53.886970 | 6.301054 | 2.0 | 8.784 | 2 | 34.805 | 8.956 | 32.590 | 2 |
| 2025-04-27T04:52:00 | 53.886999 | 6.303322 | 2.0 | 8.781 | 2 | 34.801 | 8.951 | 32.591 | 2 |
| 2025-04-27T04:53:00 | 53.887033 | 6.305481 | 2.0 | 8.775 | 2 | 34.798 | 8.948 | 32.590 | 2 |
| 2025-04-27T04:54:00 | 53.887082 | 6.307318 | 2.0 | 8.775 | 2 | 34.797 | 8.943 | 32.594 | 2 |
| 2025-04-27T04:55:00 | 53.886995 | 6.308713 | 2.0 | 8.775 | 2 | 34.790 | 8.942 | 32.588 | 2 |
| 2025-04-27T04:56:00 | 53.886768 | 6.309610 | 2.0 | 8.777 | 2 | 34.787 | 8.943 | 32.584 | 2 |
| 2025-04-27T04:57:00 | 53.886573 | 6.310250 | 2.0 | 8.778 | 2 | 34.784 | 8.944 | 32.579 | 2 |
| 2025-04-27T04:58:00 | 53.886436 | 6.310741 | 2.0 | 8.778 | 2 | 34.787 | 8.946 | 32.581 | 2 |
| 2025-04-27T04:59:00 | 53.886383 | 6.311092 | 2.0 | 8.778 | 2 | 34.786 | 8.945 | 32.581 | 2 |
| 2025-04-27T05:00:00 | 53.886428 | 6.311298 | 2.0 | 8.778 | 2 | 34.787 | 8.946 | 32.581 | 2 |
| 2025-04-27T05:01:00 | 53.886544 | 6.311483 | 2.0 | 8.779 | 2 | 34.786 | 8.946 | 32.580 | 2 |
| 2025-04-27T05:02:00 | 53.886728 | 6.311663 | 2.0 | 8.779 | 2 | 34.782 | 8.946 | 32.576 | 2 |
| 2025-04-27T05:03:00 | 53.886940 | 6.311811 | 2.0 | 8.779 | 2 | 34.784 | 8.947 | 32.577 | 2 |
| 2025-04-27T05:04:00 | 53.887164 | 6.311976 | 2.0 | 8.776 | 2 | 34.784 | 8.944 | 32.579 | 2 |
| 2025-04-27T05:05:00 | 53.887673 | 6.312474 | 2.0 | 8.773 | 2 | 34.769 | 8.942 | 32.566 | 2 |
| 2025-04-27T05:06:00 | 53.888486 | 6.312175 | 2.0 | 8.772 | 2 | 34.764 | 8.940 | 32.562 | 2 |
| 2025-04-27T05:07:00 | 53.889385 | 6.310838 | 2.0 | 8.770 | 2 | 34.722 | 8.937 | 32.521 | 2 |
| 2025-04-27T05:08:00 | 53.890549 | 6.308912 | 2.0 | 8.772 | 2 | 34.744 | 8.937 | 32.544 | 2 |
| 2025-04-27T05:09:00 | 53.891909 | 6.306618 | 2.0 | 8.775 | 2 | 34.746 | 8.939 | 32.545 | 2 |
| 2025-04-27T05:10:00 | 53.893380 | 6.304167 | 2.0 | 8.777 | 2 | 34.749 | 8.942 | 32.545 | 2 |
| 2025-04-27T05:11:00 | 53.894906 | 6.301643 | 2.0 | 8.778 | 2 | 34.762 | 8.945 | 32.556 | 2 |
| 2025-04-27T05:12:00 | 53.896453 | 6.299081 | 2.0 | 8.777 | 2 | 34.782 | 8.946 | 32.576 | 2 |
| 2025-04-27T05:13:00 | 53.898012 | 6.296511 | 2.0 | 8.775 | 2 | 34.760 | 8.945 | 32.554 | 2 |
| 2025-04-27T05:14:00 | 53.899600 | 6.293951 | 2.0 | 8.778 | 2 | 34.786 | 8.943 | 32.582 | 2 |
| 2025-04-27T05:15:00 | 53.901196 | 6.291384 | 2.0 | 8.781 | 2 | 34.785 | 8.946 | 32.579 | 2 |
| 2025-04-27T05:16:00 | 53.902791 | 6.288832 | 2.0 | 8.792 | 2 | 34.847 | 8.950 | 32.640 | 2 |
| 2025-04-27T05:17:00 | 53.904378 | 6.286285 | 2.0 | 8.803 | 2 | 34.857 | 8.961 | 32.640 | 2 |
| 2025-04-27T05:18:00 | 53.905970 | 6.283766 | 2.0 | 8.817 | 2 | 34.860 | 8.972 | 32.633 | 2 |
| 2025-04-27T05:19:00 | 53.907558 | 6.281247 | 2.0 | 8.826 | 2 | 34.872 | 8.985 | 32.633 | 2 |
| 2025-04-27T05:20:00 | 53.909140 | 6.278715 | 2.0 | 8.838 | 2 | 34.884 | 8.993 | 32.638 | 2 |
| 2025-04-27T05:21:00 | 53.910731 | 6.276196 | 2.0 | 8.873 | 2 | 34.910 | 9.010 | 32.650 | 2 |
| 2025-04-27T05:22:00 | 53.912317 | 6.273664 | 2.0 | 8.902 | 2 | 34.917 | 9.045 | 32.625 | 2 |
| 2025-04-27T05:23:00 | 53.913923 | 6.271155 | 2.0 | 8.907 | 2 | 34.937 | 9.068 | 32.625 | 2 |
| 2025-04-27T05:24:00 | 53.915527 | 6.268630 | 2.0 | 8.973 | 2 | 34.960 | 9.084 | 32.634 | 2 |
| 2025-04-27T05:25:00 | 53.917134 | 6.266117 | 2.0 | 9.010 | 2 | 34.999 | 9.139 | 32.624 | 2 |
| 2025-04-27T05:26:00 | 53.918751 | 6.263625 | 2.0 | 9.038 | 2 | 35.013 | 9.177 | 32.604 | 2 |
| 2025-04-27T05:27:00 | 53.920369 | 6.261127 | 2.0 | 9.058 | 2 | 35.028 | 9.206 | 32.593 | 2 |
| 2025-04-27T05:28:00 | 53.922000 | 6.258640 | 2.0 | 9.060 | 2 | 35.037 | 9.223 | 32.586 | 2 |
| 2025-04-27T05:29:00 | 53.923634 | 6.256145 | 2.0 | 9.080 | 2 | 35.050 | 9.229 | 32.594 | 2 |
| 2025-04-27T05:30:00 | 53.925277 | 6.253649 | 2.0 | 9.082 | 2 | 35.065 | 9.242 | 32.598 | 2 |
| 2025-04-27T05:31:00 | 53.926930 | 6.251162 | 2.0 | 9.095 | 2 | 35.077 | 9.248 | 32.605 | 2 |
| 2025-04-27T05:32:00 | 53.928569 | 6.248668 | 2.0 | 9.100 | 2 | 35.093 | 9.261 | 32.610 | 2 |
| 2025-04-27T05:33:00 | 53.930104 | 6.246042 | 2.0 | 9.094 | 2 | 35.107 | 9.263 | 32.622 | 2 |
| 2025-04-27T05:34:00 | 53.931543 | 6.243288 | 2.0 | 9.077 | 2 | 35.111 | 9.258 | 32.631 | 2 |
| 2025-04-27T05:35:00 | 53.932972 | 6.240525 | 2.0 | 9.057 | 2 | 35.113 | 9.238 | 32.651 | 2 |
| 2025-04-27T05:36:00 | 53.934390 | 6.237760 | 2.0 | 9.033 | 2 | 35.110 | 9.218 | 32.666 | 2 |
| 2025-04-27T05:37:00 | 53.935806 | 6.234996 | 2.0 | 9.003 | 2 | 35.100 | 9.195 | 32.677 | 2 |
| 2025-04-27T05:38:00 | 53.937231 | 6.232230 | 2.0 | 8.964 | 2 | 35.087 | 9.166 | 32.690 | 2 |
| 2025-04-27T05:39:00 | 53.938648 | 6.229449 | 2.0 | 8.893 | 2 | 35.062 | 9.121 | 32.706 | 2 |
| 2025-04-27T05:40:00 | 53.940055 | 6.226660 | 2.0 | 8.669 | 2 | 35.029 | 9.013 | 32.771 | 2 |
| 2025-04-27T05:41:00 | 53.941441 | 6.223859 | 2.0 | 8.626 | 2 | 34.966 | 8.847 | 32.859 | 2 |
| 2025-04-27T05:42:00 | 53.942819 | 6.221088 | 2.0 | 8.610 | 2 | 34.946 | 8.798 | 32.883 | 2 |
| 2025-04-27T05:43:00 | 53.944180 | 6.218328 | 2.0 | 8.601 | 2 | 34.944 | 8.781 | 32.897 | 2 |
| 2025-04-27T05:44:00 | 53.945486 | 6.215688 | 2.0 | 8.595 | 2 | 34.948 | 8.773 | 32.908 | 2 |
| 2025-04-27T05:45:00 | 53.946509 | 6.213256 | 2.0 | 8.590 | 2 | 34.949 | 8.766 | 32.916 | 2 |
| 2025-04-27T05:46:00 | 53.947386 | 6.211003 | 2.0 | 8.593 | 2 | 34.949 | 8.762 | 32.920 | 2 |
| 2025-04-27T05:47:00 | 53.948211 | 6.208876 | 2.0 | 8.594 | 2 | 34.957 | 8.764 | 32.926 | 2 |
| 2025-04-27T05:48:00 | 53.948808 | 6.206774 | 2.0 | 8.595 | 2 | 34.959 | 8.764 | 32.928 | 2 |
| 2025-04-27T05:49:00 | 53.949435 | 6.204921 | 2.0 | 8.596 | 2 | 34.962 | 8.764 | 32.931 | 2 |
| 2025-04-27T05:50:00 | 53.950090 | 6.205019 | 2.0 | 8.597 | 2 | 34.965 | 8.763 | 32.936 | 2 |
| 2025-04-27T05:51:00 | 53.950316 | 6.205752 | 2.0 | 8.598 | 2 | 34.968 | 8.766 | 32.936 | 2 |
| 2025-04-27T05:52:00 | 53.950336 | 6.206383 | 2.0 | 8.595 | 2 | 34.968 | 8.765 | 32.937 | 2 |
| 2025-04-27T05:53:00 | 53.950249 | 6.206808 | 2.0 | 8.596 | 2 | 34.964 | 8.764 | 32.934 | 2 |
| 2025-04-27T05:54:00 | 53.950184 | 6.206964 | 2.0 | 8.596 | 2 | 34.963 | 8.763 | 32.933 | 2 |
| 2025-04-27T05:55:00 | 53.950125 | 6.207046 | 2.0 | 8.602 | 2 | 34.966 | 8.764 | 32.936 | 2 |
| 2025-04-27T05:56:00 | 53.950072 | 6.207119 | 2.0 | 8.611 | 2 | 34.977 | 8.770 | 32.942 | 2 |
| 2025-04-27T05:57:00 | 53.950002 | 6.207172 | 2.0 | 8.611 | 2 | 34.993 | 8.780 | 32.949 | 2 |
| 2025-04-27T05:58:00 | 53.949936 | 6.207179 | 2.0 | 8.598 | 2 | 34.987 | 8.774 | 32.948 | 2 |
| 2025-04-27T05:59:00 | 53.949874 | 6.207193 | 2.0 | 8.597 | 2 | 34.969 | 8.765 | 32.938 | 2 |
| 2025-04-27T06:00:00 | 53.949802 | 6.207205 | 2.0 | 8.598 | 2 | 34.969 | 8.765 | 32.938 | 2 |
| 2025-04-27T06:01:00 | 53.949726 | 6.207220 | 2.0 | 8.596 | 2 | 34.970 | 8.765 | 32.939 | 2 |
| 2025-04-27T06:02:00 | 53.949667 | 6.207242 | 2.0 | 8.593 | 2 | 34.969 | 8.764 | 32.939 | 2 |
| 2025-04-27T06:03:00 | 53.949639 | 6.207244 | 2.0 | 8.591 | 2 | 34.966 | 8.761 | 32.938 | 2 |
| 2025-04-27T06:04:00 | 53.949628 | 6.207247 | 2.0 | 8.591 | 2 | 34.961 | 8.758 | 32.936 | 2 |
| 2025-04-27T06:05:00 | 53.949569 | 6.207226 | 2.0 | 8.592 | 2 | 34.942 | 8.759 | 32.915 | 2 |
| 2025-04-27T06:06:00 | 53.949556 | 6.207055 | 2.0 | 8.596 | 2 | 34.933 | 8.760 | 32.905 | 2 |
| 2025-04-27T06:07:00 | 53.949637 | 6.206562 | 2.0 | 8.599 | 2 | 34.925 | 8.766 | 32.891 | 2 |
| 2025-04-27T06:08:00 | 53.949696 | 6.206111 | 2.0 | 8.599 | 2 | 34.924 | 8.767 | 32.889 | 2 |
| 2025-04-27T06:09:00 | 53.949657 | 6.206027 | 2.0 | 8.606 | 2 | 34.922 | 8.770 | 32.884 | 2 |
| 2025-04-27T06:10:00 | 53.949593 | 6.206045 | 2.0 | 8.624 | 2 | 34.922 | 8.775 | 32.879 | 2 |
| 2025-04-27T06:11:00 | 53.949577 | 6.206046 | 2.0 | 8.631 | 2 | 34.913 | 8.791 | 32.855 | 2 |
| 2025-04-27T06:12:00 | 53.949501 | 6.206043 | 2.0 | 8.630 | 2 | 34.909 | 8.797 | 32.845 | 2 |
| 2025-04-27T06:13:00 | 53.949426 | 6.205990 | 2.0 | 8.628 | 2 | 34.909 | 8.797 | 32.845 | 2 |
| 2025-04-27T06:14:00 | 53.949405 | 6.205928 | 2.0 | 8.625 | 2 | 34.880 | 8.794 | 32.818 | 2 |
| 2025-04-27T06:15:00 | 53.949395 | 6.205854 | 2.0 | 8.623 | 2 | 34.908 | 8.793 | 32.848 | 2 |
| 2025-04-27T06:16:00 | 53.949404 | 6.205838 | 2.0 | 8.621 | 2 | 34.679 | 8.798 | 32.604 | 2 |
| 2025-04-27T06:17:00 | 53.949485 | 6.205768 | 2.0 | 8.617 | 2 | 34.922 | 8.802 | 32.854 | 2 |
| 2025-04-27T06:18:00 | 53.949548 | 6.205735 | 2.0 | 8.616 | 2 | 34.926 | 8.804 | 32.857 | 2 |
| 2025-04-27T06:19:00 | 53.949603 | 6.205741 | 2.0 | 8.613 | 2 | 34.557 | 8.803 | 32.472 | 2 |
| 2025-04-27T06:20:00 | 53.949663 | 6.205773 | 2.0 | 8.615 | 2 | 34.665 | 8.804 | 32.584 | 2 |
| 2025-04-27T06:21:00 | 53.949722 | 6.205781 | 2.0 | 8.612 | 2 | 34.934 | 8.805 | 32.864 | 2 |
| 2025-04-27T06:22:00 | 53.949764 | 6.205758 | 2.0 | 8.612 | 2 | 34.934 | 8.804 | 32.865 | 2 |
| 2025-04-27T06:23:00 | 53.949796 | 6.205766 | 2.0 | 8.611 | 2 | 34.771 | 8.804 | 32.695 | 2 |
| 2025-04-27T06:24:00 | 53.949828 | 6.205781 | 2.0 | 8.610 | 2 | 34.576 | 8.803 | 32.492 | 2 |
| 2025-04-27T06:25:00 | 53.949853 | 6.205800 | 2.0 | 8.608 | 2 | 34.544 | 8.803 | 32.459 | 2 |
| 2025-04-27T06:26:00 | 53.949878 | 6.205805 | 2.0 | 8.608 | 2 | 34.623 | 8.802 | 32.542 | 2 |
| 2025-04-27T06:27:00 | 53.949892 | 6.205811 | 2.0 | 8.605 | 2 | 34.815 | 8.802 | 32.743 | 2 |
| 2025-04-27T06:28:00 | 53.949893 | 6.205819 | 2.0 | 8.607 | 2 | 34.709 | 8.801 | 32.633 | 2 |
| 2025-04-27T06:29:00 | 53.949896 | 6.205850 | 2.0 | 8.605 | 2 | 34.649 | 8.801 | 32.570 | 2 |
| 2025-04-27T06:30:00 | 53.949888 | 6.205851 | 2.0 | 8.606 | 2 | 34.934 | 8.802 | 32.867 | 2 |
| 2025-04-27T06:31:00 | 53.949878 | 6.205845 | 2.0 | 8.607 | 2 | 34.507 | 8.801 | 32.422 | 2 |
| 2025-04-27T06:32:00 | 53.949860 | 6.205840 | 2.0 | 8.602 | 2 | 34.721 | 8.801 | 32.645 | 2 |
| 2025-04-27T06:33:00 | 53.949829 | 6.205830 | 2.0 | 8.604 | 2 | 34.686 | 8.799 | 32.611 | 2 |
| 2025-04-27T06:34:00 | 53.949824 | 6.205823 | 2.0 | 8.602 | 2 | 34.642 | 8.799 | 32.565 | 2 |
| 2025-04-27T06:35:00 | 53.949827 | 6.205817 | 2.0 | 8.604 | 2 | 34.794 | 8.799 | 32.723 | 2 |
| 2025-04-27T06:36:00 | 53.949811 | 6.205803 | 2.0 | 8.598 | 2 | 34.771 | 8.799 | 32.699 | 2 |
| 2025-04-27T06:37:00 | 53.949801 | 6.205808 | 2.0 | 8.598 | 2 | 34.743 | 8.795 | 32.674 | 2 |
| 2025-04-27T06:38:00 | 53.949798 | 6.205816 | 2.0 | 8.597 | 2 | 34.710 | 8.796 | 32.638 | 2 |
| 2025-04-27T06:39:00 | 53.949798 | 6.205817 | 2.0 | 8.598 | 2 | 34.831 | 8.795 | 32.766 | 2 |
| 2025-04-27T06:40:00 | 53.949817 | 6.205803 | 2.0 | 8.596 | 2 | 34.910 | 8.796 | 32.847 | 2 |
| 2025-04-27T06:41:00 | 53.949821 | 6.205773 | 2.0 | 8.592 | 2 | 34.941 | 8.793 | 32.883 | 2 |
| 2025-04-27T06:42:00 | 53.949808 | 6.205741 | 2.0 | 8.591 | 2 | 34.768 | 8.790 | 32.705 | 2 |
| 2025-04-27T06:43:00 | 53.949797 | 6.205738 | 2.0 | 8.589 | 2 | 34.798 | 8.789 | 32.737 | 2 |
| 2025-04-27T06:44:00 | 53.949799 | 6.205774 | 2.0 | 8.588 | 2 | 34.634 | 8.786 | 32.568 | 2 |
| 2025-04-27T06:45:00 | 53.949808 | 6.205826 | 2.0 | 8.585 | 2 | 34.797 | 8.785 | 32.739 | 2 |
| 2025-04-27T06:46:00 | 53.949826 | 6.205806 | 2.0 | 8.587 | 2 | 34.772 | 8.784 | 32.714 | 2 |
| 2025-04-27T06:47:00 | 53.949828 | 6.205750 | 2.0 | 8.585 | 2 | 34.898 | 8.786 | 32.844 | 2 |
| 2025-04-27T06:48:00 | 53.949816 | 6.205734 | 2.0 | 8.583 | 2 | 34.944 | 8.783 | 32.895 | 2 |
| 2025-04-27T06:49:00 | 53.949815 | 6.205767 | 2.0 | 8.580 | 2 | 34.774 | 8.781 | 32.719 | 2 |
| 2025-04-27T06:50:00 | 53.949825 | 6.205809 | 2.0 | 8.583 | 2 | 34.852 | 8.780 | 32.802 | 2 |
| 2025-04-27T06:51:00 | 53.949831 | 6.205830 | 2.0 | 8.583 | 2 | 34.716 | 8.779 | 32.660 | 2 |
| 2025-04-27T06:52:00 | 53.949826 | 6.205805 | 2.0 | 8.584 | 2 | 34.859 | 8.782 | 32.807 | 2 |
| 2025-04-27T06:53:00 | 53.949807 | 6.205623 | 2.0 | 8.582 | 2 | 34.782 | 8.780 | 32.728 | 2 |
| 2025-04-27T06:54:00 | 53.950367 | 6.205584 | 2.0 | 8.580 | 2 | 34.769 | 8.780 | 32.715 | 2 |
| 2025-04-27T06:55:00 | 53.951606 | 6.207285 | 2.0 | 8.575 | 2 | 34.876 | 8.779 | 32.828 | 2 |
| 2025-04-27T06:56:00 | 53.953444 | 6.210650 | 2.0 | 8.585 | 2 | 34.908 | 8.780 | 32.860 | 2 |
| 2025-04-27T06:57:00 | 53.955823 | 6.214427 | 2.0 | 8.596 | 2 | 34.871 | 8.790 | 32.812 | 2 |
| 2025-04-27T06:58:00 | 53.958377 | 6.218219 | 2.0 | 8.636 | 2 | 34.876 | 8.808 | 32.801 | 2 |
| 2025-04-27T06:59:00 | 53.960923 | 6.222105 | 2.0 | 8.672 | 2 | 34.914 | 8.839 | 32.812 | 2 |
| 2025-04-27T07:00:00 | 53.963470 | 6.226019 | 2.0 | 8.704 | 2 | 34.946 | 8.867 | 32.819 | 2 |
| 2025-04-27T07:01:00 | 53.966030 | 6.229909 | 2.0 | 8.699 | 2 | 35.039 | 8.897 | 32.888 | 2 |
| 2025-04-27T07:02:00 | 53.968553 | 6.233822 | 2.0 | 8.665 | 2 | 35.030 | 8.874 | 32.900 | 2 |
| 2025-04-27T07:03:00 | 53.971076 | 6.237672 | 2.0 | 8.670 | 2 | 35.025 | 8.852 | 32.916 | 2 |
| 2025-04-27T07:04:00 | 53.973590 | 6.241556 | 2.0 | 8.664 | 2 | 35.130 | 8.853 | 33.024 | 2 |
| 2025-04-27T07:05:00 | 53.976118 | 6.245457 | 2.0 | 8.656 | 2 | 35.085 | 8.843 | 32.987 | 2 |
| 2025-04-27T07:06:00 | 53.978674 | 6.249327 | 2.0 | 8.691 | 2 | 35.068 | 8.846 | 32.966 | 2 |
| 2025-04-27T07:07:00 | 53.981219 | 6.253251 | 2.0 | 8.681 | 2 | 35.156 | 8.870 | 33.036 | 2 |
| 2025-04-27T07:08:00 | 53.983796 | 6.257127 | 2.0 | 8.669 | 2 | 35.157 | 8.866 | 33.040 | 2 |
| 2025-04-27T07:09:00 | 53.986330 | 6.261087 | 2.0 | 8.556 | 2 | 35.096 | 8.822 | 33.018 | 2 |
| 2025-04-27T07:10:00 | 53.988891 | 6.264941 | 2.0 | 8.530 | 2 | 35.156 | 8.741 | 33.156 | 2 |
| 2025-04-27T07:11:00 | 53.991461 | 6.268752 | 2.0 | 8.597 | 2 | 35.153 | 8.726 | 33.167 | 2 |
| 2025-04-27T07:12:00 | 53.993975 | 6.272668 | 2.0 | 8.632 | 2 | 35.250 | 8.784 | 33.214 | 2 |
| 2025-04-27T07:13:00 | 53.996487 | 6.276601 | 2.0 | 8.642 | 2 | 35.260 | 8.812 | 33.198 | 2 |
| 2025-04-27T07:14:00 | 53.999057 | 6.280418 | 2.0 | 8.640 | 2 | 35.302 | 8.820 | 33.235 | 2 |
| 2025-04-27T07:15:00 | 54.001589 | 6.284312 | 2.0 | 8.635 | 2 | 35.320 | 8.818 | 33.256 | 2 |
| 2025-04-27T07:16:00 | 54.004136 | 6.288184 | 2.0 | 8.632 | 2 | 35.291 | 8.814 | 33.229 | 2 |
| 2025-04-27T07:17:00 | 54.006679 | 6.292085 | 2.0 | 8.615 | 2 | 35.296 | 8.808 | 33.240 | 2 |
| 2025-04-27T07:18:00 | 54.009233 | 6.295954 | 2.0 | 8.590 | 2 | 35.319 | 8.791 | 33.280 | 2 |
| 2025-04-27T07:19:00 | 54.011778 | 6.299837 | 2.0 | 8.563 | 2 | 35.273 | 8.764 | 33.257 | 2 |
| 2025-04-27T07:20:00 | 54.014312 | 6.303739 | 2.0 | 8.551 | 2 | 35.290 | 8.741 | 33.297 | 2 |
| 2025-04-27T07:21:00 | 54.016842 | 6.307669 | 2.0 | 8.539 | 2 | 35.306 | 8.728 | 33.326 | 2 |
| 2025-04-27T07:22:00 | 54.019462 | 6.311354 | 2.0 | 8.528 | 2 | 35.306 | 8.718 | 33.335 | 2 |
| 2025-04-27T07:23:00 | 54.022067 | 6.315066 | 2.0 | 8.518 | 2 | 35.312 | 8.704 | 33.354 | 2 |
| 2025-04-27T07:24:00 | 54.024651 | 6.318821 | 2.0 | 8.527 | 2 | 35.313 | 8.702 | 33.357 | 2 |
| 2025-04-27T07:25:00 | 54.027250 | 6.322546 | 2.0 | 8.513 | 2 | 35.313 | 8.705 | 33.355 | 2 |
| 2025-04-27T07:26:00 | 54.029883 | 6.326210 | 2.0 | 8.489 | 2 | 35.310 | 8.688 | 33.367 | 2 |
| 2025-04-27T07:27:00 | 54.032472 | 6.329985 | 2.0 | 8.479 | 2 | 35.289 | 8.669 | 33.363 | 2 |
| 2025-04-27T07:28:00 | 54.035118 | 6.333653 | 2.0 | 8.484 | 2 | 35.267 | 8.660 | 33.349 | 2 |
| 2025-04-27T07:29:00 | 54.037733 | 6.337457 | 2.0 | 8.485 | 2 | 35.248 | 8.663 | 33.326 | 2 |
| 2025-04-27T07:30:00 | 54.040425 | 6.341133 | 2.0 | 8.481 | 2 | 35.230 | 8.665 | 33.305 | 2 |
| 2025-04-27T07:31:00 | 54.043058 | 6.345007 | 2.0 | 8.469 | 2 | 35.205 | 8.657 | 33.286 | 2 |
| 2025-04-27T07:32:00 | 54.045732 | 6.348782 | 2.0 | 8.469 | 2 | 35.193 | 8.647 | 33.283 | 2 |
| 2025-04-27T07:33:00 | 54.048400 | 6.352574 | 2.0 | 8.474 | 2 | 35.192 | 8.649 | 33.280 | 2 |
| 2025-04-27T07:34:00 | 54.051060 | 6.356410 | 2.0 | 8.489 | 2 | 35.195 | 8.652 | 33.281 | 2 |
| 2025-04-27T07:35:00 | 54.053751 | 6.360230 | 2.0 | 8.488 | 2 | 35.192 | 8.663 | 33.267 | 2 |
| 2025-04-27T07:36:00 | 54.056437 | 6.364041 | 2.0 | 8.482 | 2 | 35.184 | 8.663 | 33.259 | 2 |
| 2025-04-27T07:37:00 | 54.059091 | 6.367935 | 2.0 | 8.476 | 2 | 35.181 | 8.663 | 33.256 | 2 |
| 2025-04-27T07:38:00 | 54.061791 | 6.371731 | 2.0 | 8.465 | 2 | 35.183 | 8.653 | 33.267 | 2 |
| 2025-04-27T07:39:00 | 54.064459 | 6.375602 | 2.0 | 8.474 | 2 | 35.176 | 8.644 | 33.268 | 2 |
| 2025-04-27T07:40:00 | 54.067165 | 6.379406 | 2.0 | 8.473 | 2 | 35.163 | 8.652 | 33.247 | 2 |
| 2025-04-27T07:41:00 | 54.069758 | 6.383457 | 2.0 | 8.465 | 2 | 35.140 | 8.649 | 33.226 | 2 |
| 2025-04-27T07:42:00 | 54.072380 | 6.387444 | 2.0 | 8.473 | 2 | 35.146 | 8.643 | 33.238 | 2 |
| 2025-04-27T07:43:00 | 54.074946 | 6.391422 | 2.0 | 8.483 | 2 | 35.139 | 8.652 | 33.222 | 2 |
| 2025-04-27T07:44:00 | 54.077384 | 6.395234 | 2.0 | 8.514 | 2 | 35.122 | 8.667 | 33.190 | 2 |
| 2025-04-27T07:45:00 | 54.079578 | 6.398682 | 2.0 | 8.515 | 2 | 35.119 | 8.687 | 33.168 | 2 |
| 2025-04-27T07:46:00 | 54.081175 | 6.401565 | 2.0 | 8.535 | 2 | 35.145 | 8.692 | 33.190 | 2 |
| 2025-04-27T07:47:00 | 54.082129 | 6.403786 | 2.0 | 8.520 | 2 | 35.155 | 8.704 | 33.190 | 2 |
| 2025-04-27T07:48:00 | 54.082045 | 6.405116 | 2.0 | 8.577 | 2 | 35.162 | 8.703 | 33.198 | 2 |
| 2025-04-27T07:49:00 | 54.081974 | 6.405605 | 2.0 | 8.551 | 2 | 35.158 | 8.744 | 33.155 | 2 |
| 2025-04-27T07:50:00 | 54.081948 | 6.405810 | 2.0 | 8.548 | 2 | 35.151 | 8.724 | 33.167 | 2 |
| 2025-04-27T07:51:00 | 54.081920 | 6.405847 | 2.0 | 8.509 | 2 | 35.164 | 8.709 | 33.194 | 2 |
| 2025-04-27T07:52:00 | 54.081900 | 6.405839 | 2.0 | 8.539 | 2 | 35.182 | 8.704 | 33.218 | 2 |
| 2025-04-27T07:53:00 | 54.081824 | 6.405944 | 2.0 | 8.531 | 2 | 35.198 | 8.722 | 33.218 | 2 |
| 2025-04-27T07:54:00 | 54.081719 | 6.406124 | 2.0 | 8.515 | 2 | 35.212 | 8.719 | 33.235 | 2 |
| 2025-04-27T07:55:00 | 54.081711 | 6.405757 | 2.0 | 8.524 | 2 | 35.218 | 8.708 | 33.252 | 2 |
| 2025-04-27T07:56:00 | 54.082503 | 6.405025 | 2.0 | 8.524 | 2 | 35.233 | 8.714 | 33.262 | 2 |
| 2025-04-27T07:57:00 | 54.083771 | 6.406014 | 2.0 | 8.520 | 2 | 35.240 | 8.717 | 33.267 | 2 |
| 2025-04-27T07:58:00 | 54.084699 | 6.407021 | 2.0 | 8.538 | 2 | 35.239 | 8.717 | 33.266 | 2 |
| 2025-04-27T07:59:00 | 54.084908 | 6.407146 | 2.0 | 8.552 | 2 | 35.251 | 8.740 | 33.257 | 2 |
| 2025-04-27T08:00:00 | 54.084788 | 6.406807 | 2.0 | 8.527 | 2 | 35.261 | 8.741 | 33.266 | 2 |
| 2025-04-27T08:01:00 | 54.084708 | 6.406477 | 2.0 | 8.513 | 2 | 35.258 | 8.723 | 33.280 | 2 |
| 2025-04-27T08:02:00 | 54.084620 | 6.406174 | 2.0 | 8.518 | 2 | 35.259 | 8.709 | 33.294 | 2 |
| 2025-04-27T08:03:00 | 54.084554 | 6.406065 | 2.0 | 8.514 | 2 | 35.270 | 8.719 | 33.296 | 2 |
| 2025-04-27T08:04:00 | 54.084533 | 6.406080 | 2.0 | 8.518 | 2 | 35.273 | 8.710 | 33.308 | 2 |
| 2025-04-27T08:05:00 | 54.084516 | 6.406110 | 2.0 | 8.518 | 2 | 35.277 | 8.716 | 33.306 | 2 |
| 2025-04-27T08:06:00 | 54.084670 | 6.405486 | 2.0 | 8.507 | 2 | 35.281 | 8.711 | 33.315 | 2 |
| 2025-04-27T08:07:00 | 54.085707 | 6.404285 | 2.0 | 8.512 | 2 | 35.284 | 8.707 | 33.322 | 2 |
| 2025-04-27T08:08:00 | 54.087216 | 6.402971 | 2.0 | 8.523 | 2 | 35.291 | 8.714 | 33.323 | 2 |
| 2025-04-27T08:09:00 | 54.088966 | 6.401400 | 2.0 | 8.550 | 2 | 35.314 | 8.724 | 33.338 | 2 |
| 2025-04-27T08:10:00 | 54.090709 | 6.399839 | 2.0 | 8.567 | 2 | 35.352 | 8.755 | 33.348 | 2 |
| 2025-04-27T08:11:00 | 54.092261 | 6.398527 | 2.0 | 8.576 | 2 | 35.376 | 8.768 | 33.361 | 2 |
| 2025-04-27T08:12:00 | 54.093702 | 6.397362 | 2.0 | 8.595 | 2 | 35.397 | 8.777 | 33.375 | 2 |
| 2025-04-27T08:13:00 | 54.095152 | 6.396177 | 2.0 | 8.613 | 2 | 35.420 | 8.796 | 33.381 | 2 |
| 2025-04-27T08:14:00 | 54.096593 | 6.394992 | 2.0 | 8.603 | 2 | 35.446 | 8.810 | 33.395 | 2 |
| 2025-04-27T08:15:00 | 54.098031 | 6.393808 | 2.0 | 8.601 | 2 | 35.454 | 8.805 | 33.408 | 2 |
| 2025-04-27T08:16:00 | 54.099459 | 6.392620 | 2.0 | 8.606 | 2 | 35.467 | 8.797 | 33.429 | 2 |
| 2025-04-27T08:17:00 | 54.100326 | 6.391496 | 2.0 | 8.630 | 2 | 35.482 | 8.807 | 33.436 | 2 |
| 2025-04-27T08:18:00 | 54.100142 | 6.390954 | 2.0 | 8.638 | 2 | 35.502 | 8.829 | 33.436 | 2 |
| 2025-04-27T08:19:00 | 54.099959 | 6.390575 | 2.0 | 8.651 | 2 | 35.512 | 8.837 | 33.439 | 2 |
| 2025-04-27T08:20:00 | 54.099773 | 6.390348 | 2.0 | 8.662 | 2 | 35.521 | 8.851 | 33.435 | 2 |
| 2025-04-27T08:21:00 | 54.099661 | 6.390302 | 2.0 | 8.658 | 2 | 35.526 | 8.859 | 33.433 | 2 |
| 2025-04-27T08:22:00 | 54.099618 | 6.390471 | 2.0 | 8.663 | 2 | 35.524 | 8.854 | 33.435 | 2 |
| 2025-04-27T08:23:00 | 54.099582 | 6.390569 | 2.0 | 8.666 | 2 | 35.535 | 8.863 | 33.438 | 2 |
| 2025-04-27T08:24:00 | 54.099518 | 6.390652 | 2.0 | 8.635 | 2 | 35.541 | 8.859 | 33.448 | 2 |
| 2025-04-27T08:25:00 | 54.099456 | 6.390794 | 2.0 | 8.633 | 2 | 35.527 | 8.836 | 33.455 | 2 |
| 2025-04-27T08:26:00 | 54.099354 | 6.390753 | 2.0 | 8.640 | 2 | 35.525 | 8.838 | 33.451 | 2 |
| 2025-04-27T08:27:00 | 54.099643 | 6.390072 | 2.0 | 8.630 | 2 | 35.530 | 8.839 | 33.456 | 2 |
| 2025-04-27T08:28:00 | 54.100328 | 6.388595 | 2.0 | 8.653 | 2 | 35.534 | 8.838 | 33.461 | 2 |
| 2025-04-27T08:29:00 | 54.101083 | 6.386554 | 2.0 | 8.688 | 2 | 35.542 | 8.863 | 33.446 | 2 |
| 2025-04-27T08:30:00 | 54.101913 | 6.384238 | 2.0 | 8.716 | 2 | 35.565 | 8.896 | 33.438 | 2 |
| 2025-04-27T08:31:00 | 54.102777 | 6.381787 | 2.0 | 8.730 | 2 | 35.581 | 8.920 | 33.433 | 2 |
| 2025-04-27T08:32:00 | 54.103656 | 6.379272 | 2.0 | 8.729 | 2 | 35.589 | 8.931 | 33.431 | 2 |
| 2025-04-27T08:33:00 | 54.104630 | 6.376813 | 2.0 | 8.716 | 2 | 35.581 | 8.929 | 33.424 | 2 |
| 2025-04-27T08:34:00 | 54.105727 | 6.374464 | 2.0 | 8.726 | 2 | 35.587 | 8.923 | 33.436 | 2 |
| 2025-04-27T08:35:00 | 54.106925 | 6.372215 | 2.0 | 8.737 | 2 | 35.596 | 8.928 | 33.441 | 2 |
| 2025-04-27T08:36:00 | 54.108134 | 6.369963 | 2.0 | 8.739 | 2 | 35.608 | 8.944 | 33.438 | 2 |
| 2025-04-27T08:37:00 | 54.109225 | 6.368093 | 2.0 | 8.712 | 2 | 35.605 | 8.941 | 33.438 | 2 |
| 2025-04-27T08:38:00 | 54.110306 | 6.367903 | 2.0 | 8.715 | 2 | 35.586 | 8.911 | 33.446 | 2 |
| 2025-04-27T08:39:00 | 54.110497 | 6.367746 | 2.0 | 8.759 | 2 | 35.598 | 8.926 | 33.445 | 2 |
| 2025-04-27T08:40:00 | 54.110408 | 6.367593 | 2.0 | 8.730 | 2 | 35.628 | 8.957 | 33.447 | 2 |
| 2025-04-27T08:41:00 | 54.110192 | 6.366952 | 2.0 | 8.708 | 2 | 35.548 | 8.924 | 33.394 | 2 |
| 2025-04-27T08:42:00 | 54.110079 | 6.366382 | 2.0 | 8.715 | 2 | 35.536 | 8.904 | 33.401 | 2 |
| 2025-04-27T08:43:00 | 54.109879 | 6.366086 | 2.0 | 8.731 | 2 | 35.588 | 8.922 | 33.438 | 2 |
| 2025-04-27T08:44:00 | 54.109694 | 6.365988 | 2.0 | 8.742 | 2 | 35.589 | 8.929 | 33.432 | 2 |
| 2025-04-27T08:45:00 | 54.109643 | 6.365972 | 2.0 | 8.729 | 2 | 35.564 | 8.943 | 33.393 | 2 |
| 2025-04-27T08:46:00 | 54.109597 | 6.366017 | 2.0 | 8.714 | 2 | 35.616 | 8.929 | 33.461 | 2 |
| 2025-04-27T08:47:00 | 54.109533 | 6.366070 | 2.0 | 8.711 | 2 | 35.572 | 8.919 | 33.424 | 2 |
| 2025-04-27T08:48:00 | 54.109440 | 6.365970 | 2.0 | 8.658 | 2 | 35.581 | 8.905 | 33.447 | 2 |
| 2025-04-27T08:49:00 | 54.109662 | 6.364913 | 2.0 | 8.607 | 2 | 35.536 | 8.856 | 33.446 | 2 |
| 2025-04-27T08:50:00 | 54.110822 | 6.364736 | 2.0 | 8.596 | 2 | 35.506 | 8.806 | 33.462 | 2 |
| 2025-04-27T08:51:00 | 54.112234 | 6.365994 | 2.0 | 8.606 | 2 | 35.457 | 8.803 | 33.413 | 2 |
| 2025-04-27T08:52:00 | 54.112932 | 6.366004 | 2.0 | 8.658 | 2 | 35.547 | 8.830 | 33.482 | 2 |
| 2025-04-27T08:53:00 | 54.112980 | 6.365930 | 2.0 | 8.636 | 2 | 35.564 | 8.854 | 33.477 | 2 |
| 2025-04-27T08:54:00 | 54.112942 | 6.365981 | 2.0 | 8.630 | 2 | 35.548 | 8.839 | 33.474 | 2 |
| 2025-04-27T08:55:00 | 54.112857 | 6.366070 | 2.0 | 8.620 | 2 | 35.551 | 8.832 | 33.484 | 2 |
| 2025-04-27T08:56:00 | 54.112789 | 6.365877 | 2.0 | 8.584 | 2 | 35.548 | 8.823 | 33.490 | 2 |
| 2025-04-27T08:57:00 | 54.113128 | 6.364934 | 2.0 | 8.543 | 2 | 35.542 | 8.785 | 33.519 | 2 |
| 2025-04-27T08:58:00 | 54.113634 | 6.363524 | 2.0 | 8.548 | 2 | 35.522 | 8.753 | 33.529 | 2 |
| 2025-04-27T08:59:00 | 54.113968 | 6.361938 | 2.0 | 8.543 | 2 | 35.520 | 8.750 | 33.529 | 2 |
| 2025-04-27T09:00:00 | 54.113389 | 6.361541 | 2.0 | 8.568 | 2 | 35.534 | 8.756 | 33.538 | 2 |
| 2025-04-27T09:01:00 | 54.112735 | 6.361815 | 2.0 | 8.555 | 2 | 35.548 | 8.773 | 33.537 | 2 |
| 2025-04-27T09:02:00 | 54.111959 | 6.361806 | 2.0 | 8.546 | 2 | 35.539 | 8.756 | 33.544 | 2 |
| 2025-04-27T09:03:00 | 54.111048 | 6.361750 | 2.0 | 8.523 | 2 | 35.529 | 8.741 | 33.547 | 2 |
| 2025-04-27T09:04:00 | 54.110044 | 6.361662 | 2.0 | 8.528 | 2 | 35.504 | 8.711 | 33.549 | 2 |
| 2025-04-27T09:05:00 | 54.108974 | 6.361540 | 2.0 | 8.543 | 2 | 35.501 | 8.709 | 33.548 | 2 |
| 2025-04-27T09:06:00 | 54.107859 | 6.361407 | 2.0 | 8.550 | 2 | 35.512 | 8.727 | 33.543 | 2 |
| 2025-04-27T09:07:00 | 54.106717 | 6.361258 | 2.0 | 8.515 | 2 | 35.509 | 8.729 | 33.538 | 2 |
| 2025-04-27T09:08:00 | 54.105562 | 6.361103 | 2.0 | 8.521 | 2 | 35.484 | 8.702 | 33.537 | 2 |
| 2025-04-27T09:09:00 | 54.104404 | 6.361075 | 2.0 | 8.536 | 2 | 35.484 | 8.708 | 33.531 | 2 |
| 2025-04-27T09:10:00 | 54.103252 | 6.361382 | 2.0 | 8.545 | 2 | 35.484 | 8.713 | 33.527 | 2 |
| 2025-04-27T09:11:00 | 54.102089 | 6.361716 | 2.0 | 8.550 | 2 | 35.488 | 8.730 | 33.515 | 2 |
| 2025-04-27T09:12:00 | 54.100916 | 6.362060 | 2.0 | 8.567 | 2 | 35.490 | 8.738 | 33.509 | 2 |
| 2025-04-27T09:13:00 | 54.099730 | 6.362425 | 2.0 | 8.564 | 2 | 35.496 | 8.746 | 33.508 | 2 |
| 2025-04-27T09:14:00 | 54.098537 | 6.362777 | 2.0 | 8.554 | 2 | 35.488 | 8.736 | 33.509 | 2 |
| 2025-04-27T09:15:00 | 54.097339 | 6.363119 | 2.0 | 8.573 | 2 | 35.490 | 8.743 | 33.504 | 2 |
| 2025-04-27T09:16:00 | 54.096142 | 6.363453 | 2.0 | 8.587 | 2 | 35.493 | 8.745 | 33.506 | 2 |
| 2025-04-27T09:17:00 | 54.094946 | 6.363774 | 2.0 | 8.570 | 2 | 35.502 | 8.757 | 33.504 | 2 |
| 2025-04-27T09:18:00 | 54.093758 | 6.364099 | 2.0 | 8.593 | 2 | 35.498 | 8.755 | 33.501 | 2 |
| 2025-04-27T09:19:00 | 54.092568 | 6.364424 | 2.0 | 8.590 | 2 | 35.504 | 8.764 | 33.499 | 2 |
| 2025-04-27T09:20:00 | 54.091387 | 6.364729 | 2.0 | 8.570 | 2 | 35.502 | 8.760 | 33.501 | 2 |
| 2025-04-27T09:21:00 | 54.090197 | 6.365028 | 2.0 | 8.604 | 2 | 35.501 | 8.762 | 33.498 | 2 |
| 2025-04-27T09:22:00 | 54.089007 | 6.365317 | 2.0 | 8.604 | 2 | 35.517 | 8.784 | 33.494 | 2 |
| 2025-04-27T09:23:00 | 54.087803 | 6.365609 | 2.0 | 8.622 | 2 | 35.519 | 8.782 | 33.498 | 2 |
| 2025-04-27T09:24:00 | 54.086692 | 6.365510 | 2.0 | 8.607 | 2 | 35.528 | 8.795 | 33.495 | 2 |
| 2025-04-27T09:25:00 | 54.085665 | 6.365015 | 2.0 | 8.640 | 2 | 35.532 | 8.805 | 33.490 | 2 |
| 2025-04-27T09:26:00 | 54.084615 | 6.364477 | 2.0 | 8.641 | 2 | 35.545 | 8.819 | 33.490 | 2 |
| 2025-04-27T09:27:00 | 54.083549 | 6.363919 | 2.0 | 8.595 | 2 | 35.524 | 8.793 | 33.493 | 2 |
| 2025-04-27T09:28:00 | 54.082472 | 6.363332 | 2.0 | 8.619 | 2 | 35.507 | 8.776 | 33.491 | 2 |
| 2025-04-27T09:29:00 | 54.081385 | 6.362737 | 2.0 | 8.632 | 2 | 35.523 | 8.796 | 33.489 | 2 |
| 2025-04-27T09:30:00 | 54.080280 | 6.362145 | 2.0 | 8.629 | 2 | 35.531 | 8.810 | 33.484 | 2 |
| 2025-04-27T09:31:00 | 54.079181 | 6.361543 | 2.0 | 8.583 | 2 | 35.520 | 8.796 | 33.486 | 2 |
| 2025-04-27T09:32:00 | 54.078075 | 6.360942 | 2.0 | 8.605 | 2 | 35.486 | 8.757 | 33.487 | 2 |
| 2025-04-27T09:33:00 | 54.076972 | 6.360315 | 2.0 | 8.617 | 2 | 35.502 | 8.782 | 33.480 | 2 |
| 2025-04-27T09:34:00 | 54.075862 | 6.359689 | 2.0 | 8.585 | 2 | 35.508 | 8.786 | 33.483 | 2 |
| 2025-04-27T09:35:00 | 54.074771 | 6.359237 | 2.0 | 8.579 | 2 | 35.488 | 8.765 | 33.482 | 2 |
| 2025-04-27T09:36:00 | 54.073723 | 6.359078 | 2.0 | 8.579 | 2 | 35.469 | 8.752 | 33.474 | 2 |
| 2025-04-27T09:37:00 | 54.072741 | 6.359216 | 2.0 | 8.585 | 2 | 35.479 | 8.775 | 33.463 | 2 |
| 2025-04-27T09:38:00 | 54.071816 | 6.359649 | 2.0 | 8.571 | 2 | 35.468 | 8.752 | 33.473 | 2 |
| 2025-04-27T09:39:00 | 54.070914 | 6.360131 | 2.0 | 8.628 | 2 | 35.467 | 8.768 | 33.457 | 2 |
| 2025-04-27T09:40:00 | 54.070028 | 6.360595 | 2.0 | 8.611 | 2 | 35.491 | 8.796 | 33.455 | 2 |
| 2025-04-27T09:41:00 | 54.069140 | 6.361053 | 2.0 | 8.602 | 2 | 35.482 | 8.782 | 33.459 | 2 |
| 2025-04-27T09:42:00 | 54.068253 | 6.361490 | 2.0 | 8.618 | 2 | 35.481 | 8.783 | 33.457 | 2 |
| 2025-04-27T09:43:00 | 54.067370 | 6.361911 | 2.0 | 8.582 | 2 | 35.489 | 8.785 | 33.464 | 2 |
| 2025-04-27T09:44:00 | 54.066498 | 6.362333 | 2.0 | 8.618 | 2 | 35.463 | 8.760 | 33.460 | 2 |
| 2025-04-27T09:45:00 | 54.065631 | 6.362772 | 2.0 | 8.613 | 2 | 35.477 | 8.785 | 33.451 | 2 |
| 2025-04-27T09:46:00 | 54.064759 | 6.363225 | 2.0 | 8.621 | 2 | 35.477 | 8.789 | 33.447 | 2 |
| 2025-04-27T09:47:00 | 54.063883 | 6.363651 | 2.0 | 8.603 | 2 | 35.474 | 8.788 | 33.445 | 2 |
| 2025-04-27T09:48:00 | 54.063003 | 6.364073 | 2.0 | 8.619 | 2 | 35.469 | 8.784 | 33.444 | 2 |
| 2025-04-27T09:49:00 | 54.062117 | 6.364496 | 2.0 | 8.570 | 2 | 35.471 | 8.780 | 33.450 | 2 |
| 2025-04-27T09:50:00 | 54.061221 | 6.364909 | 2.0 | 8.554 | 2 | 35.442 | 8.750 | 33.447 | 2 |
| 2025-04-27T09:51:00 | 54.060323 | 6.365295 | 2.0 | 8.516 | 2 | 35.415 | 8.720 | 33.447 | 2 |
| 2025-04-27T09:52:00 | 54.059424 | 6.365678 | 2.0 | 8.636 | 2 | 35.414 | 8.726 | 33.441 | 2 |
| 2025-04-27T09:53:00 | 54.058520 | 6.366056 | 2.0 | 8.638 | 2 | 35.476 | 8.803 | 33.433 | 2 |
| 2025-04-27T09:54:00 | 54.057640 | 6.366549 | 2.0 | 8.615 | 2 | 35.479 | 8.801 | 33.438 | 2 |
| 2025-04-27T09:55:00 | 54.056775 | 6.367089 | 2.0 | 8.619 | 2 | 35.461 | 8.781 | 33.438 | 2 |
| 2025-04-27T09:56:00 | 54.055908 | 6.367636 | 2.0 | 8.641 | 2 | 35.459 | 8.790 | 33.428 | 2 |
| 2025-04-27T09:57:00 | 54.055043 | 6.368190 | 2.0 | 8.709 | 2 | 35.493 | 8.837 | 33.419 | 2 |
| 2025-04-27T09:58:00 | 54.054235 | 6.368751 | 2.0 | 8.696 | 2 | 35.529 | 8.877 | 33.419 | 2 |
| 2025-04-27T09:59:00 | 54.053530 | 6.369226 | 2.0 | 8.691 | 2 | 35.515 | 8.867 | 33.414 | 2 |
| 2025-04-27T10:00:00 | 54.052909 | 6.369639 | 2.0 | 8.676 | 2 | 35.497 | 8.850 | 33.411 | 2 |
| 2025-04-27T10:01:00 | 54.052349 | 6.369982 | 2.0 | 8.714 | 2 | 35.505 | 8.855 | 33.414 | 2 |
| 2025-04-27T10:02:00 | 54.051829 | 6.370204 | 2.0 | 8.730 | 2 | 35.532 | 8.892 | 33.408 | 2 |
| 2025-04-27T10:03:00 | 54.051353 | 6.370411 | 2.0 | 8.717 | 2 | 35.542 | 8.901 | 33.410 | 2 |
| 2025-04-27T10:04:00 | 54.050946 | 6.370571 | 2.0 | 8.727 | 2 | 35.530 | 8.886 | 33.411 | 2 |
| 2025-04-27T10:05:00 | 54.050615 | 6.370698 | 2.0 | 8.772 | 2 | 35.546 | 8.906 | 33.409 | 2 |
| 2025-04-27T10:06:00 | 54.050349 | 6.370800 | 2.0 | 8.778 | 2 | 35.577 | 8.942 | 33.408 | 2 |
| 2025-04-27T10:07:00 | 54.050128 | 6.370874 | 2.0 | 8.784 | 2 | 35.587 | 8.949 | 33.412 | 2 |
| 2025-04-27T10:08:00 | 54.049763 | 6.370921 | 2.0 | 8.791 | 2 | 35.595 | 8.956 | 33.413 | 2 |
| 2025-04-27T10:09:00 | 54.049277 | 6.370577 | 2.0 | 8.761 | 2 | 35.594 | 8.954 | 33.414 | 2 |
| 2025-04-27T10:10:00 | 54.048724 | 6.370088 | 2.0 | 8.778 | 2 | 35.572 | 8.935 | 33.409 | 2 |
| 2025-04-27T10:11:00 | 54.048204 | 6.369647 | 2.0 | 8.763 | 2 | 35.565 | 8.938 | 33.399 | 2 |
| 2025-04-27T10:12:00 | 54.047729 | 6.369199 | 2.0 | 8.807 | 2 | 35.580 | 8.953 | 33.400 | 2 |
| 2025-04-27T10:13:00 | 54.047275 | 6.368807 | 2.0 | 8.774 | 2 | 35.600 | 8.972 | 33.403 | 2 |
| 2025-04-27T10:14:00 | 54.046857 | 6.368490 | 2.0 | 8.768 | 2 | 35.568 | 8.928 | 33.411 | 2 |
| 2025-04-27T10:15:00 | 54.046477 | 6.368448 | 2.0 | 8.762 | 2 | 35.559 | 8.939 | 33.392 | 2 |
| 2025-04-27T10:16:00 | 54.046128 | 6.368488 | 2.0 | 8.774 | 2 | 35.562 | 8.935 | 33.399 | 2 |
| 2025-04-27T10:17:00 | 54.045794 | 6.368584 | 2.0 | 8.761 | 2 | 35.572 | 8.939 | 33.405 | 2 |
| 2025-04-27T10:18:00 | 54.045472 | 6.368702 | 2.0 | 8.760 | 2 | 35.569 | 8.936 | 33.405 | 2 |
| 2025-04-27T10:19:00 | 54.045194 | 6.368790 | 2.0 | 8.746 | 2 | 35.566 | 8.932 | 33.406 | 2 |
| 2025-04-27T10:20:00 | 54.044982 | 6.368828 | 2.0 | 8.746 | 2 | 35.557 | 8.920 | 33.408 | 2 |
| 2025-04-27T10:21:00 | 54.044813 | 6.368828 | 2.0 | 8.769 | 2 | 35.555 | 8.921 | 33.404 | 2 |
| 2025-04-27T10:22:00 | 54.044684 | 6.368762 | 2.0 | 8.786 | 2 | 35.566 | 8.934 | 33.404 | 2 |
| 2025-04-27T10:23:00 | 54.044551 | 6.368684 | 2.0 | 8.821 | 2 | 35.590 | 8.966 | 33.399 | 2 |
| 2025-04-27T10:24:00 | 54.044281 | 6.368726 | 2.0 | 8.809 | 2 | 35.611 | 8.985 | 33.403 | 2 |
| 2025-04-27T10:25:00 | 54.044041 | 6.368856 | 2.0 | 8.830 | 2 | 35.611 | 8.985 | 33.403 | 2 |
| 2025-04-27T10:26:00 | 54.043885 | 6.368976 | 2.0 | 8.840 | 2 | 35.624 | 9.002 | 33.400 | 2 |
| 2025-04-27T10:27:00 | 54.043787 | 6.369049 | 2.0 | 8.831 | 2 | 35.626 | 9.008 | 33.397 | 2 |
| 2025-04-27T10:28:00 | 54.043725 | 6.369074 | 2.0 | 8.837 | 2 | 35.617 | 8.999 | 33.396 | 2 |
| 2025-04-27T10:29:00 | 54.043692 | 6.369049 | 2.0 | 8.845 | 2 | 35.626 | 9.011 | 33.394 | 2 |
| 2025-04-27T10:30:00 | 54.043590 | 6.369071 | 2.0 | 8.843 | 2 | 35.630 | 9.013 | 33.396 | 2 |
| 2025-04-27T10:31:00 | 54.043504 | 6.369093 | 2.0 | 8.820 | 2 | 35.627 | 9.010 | 33.396 | 2 |
| 2025-04-27T10:32:00 | 54.043479 | 6.369088 | 2.0 | 8.847 | 2 | 35.615 | 8.997 | 33.396 | 2 |
| 2025-04-27T10:33:00 | 54.043468 | 6.369096 | 2.0 | 8.871 | 2 | 35.631 | 9.022 | 33.389 | 2 |
| 2025-04-27T10:34:00 | 54.043442 | 6.369099 | 2.0 | 8.864 | 2 | 35.651 | 9.041 | 33.392 | 2 |
| 2025-04-27T10:35:00 | 54.043451 | 6.369064 | 2.0 | 8.766 | 2 | 35.628 | 9.006 | 33.401 | 2 |
| 2025-04-27T10:36:00 | 54.043497 | 6.369102 | 2.0 | 8.789 | 2 | 35.581 | 8.957 | 33.398 | 2 |
| 2025-04-27T10:37:00 | 54.043560 | 6.369211 | 2.0 | 8.757 | 2 | 35.583 | 8.960 | 33.397 | 2 |
| 2025-04-27T10:38:00 | 54.043633 | 6.369335 | 2.0 | 8.713 | 2 | 35.558 | 8.927 | 33.402 | 2 |
| 2025-04-27T10:39:00 | 54.043700 | 6.369441 | 2.0 | 8.663 | 2 | 35.515 | 8.875 | 33.406 | 2 |
| 2025-04-27T10:40:00 | 54.043776 | 6.369500 | 2.0 | 8.655 | 2 | 35.481 | 8.839 | 33.404 | 2 |
| 2025-04-27T10:41:00 | 54.043842 | 6.369706 | 2.0 | 8.640 | 2 | 35.470 | 8.825 | 33.406 | 2 |
| 2025-04-27T10:42:00 | 54.043889 | 6.369835 | 2.0 | 8.565 | 2 | 35.452 | 8.800 | 33.411 | 2 |
| 2025-04-27T10:43:00 | 54.043933 | 6.369876 | 2.0 | 8.576 | 2 | 35.405 | 8.748 | 33.411 | 2 |
| 2025-04-27T10:44:00 | 54.043977 | 6.369831 | 2.0 | 8.581 | 2 | 35.405 | 8.751 | 33.408 | 2 |
| 2025-04-27T10:45:00 | 54.043996 | 6.369751 | 2.0 | 8.582 | 2 | 35.408 | 8.754 | 33.408 | 2 |
| 2025-04-27T10:46:00 | 54.044013 | 6.369617 | 2.0 | 8.619 | 2 | 35.414 | 8.763 | 33.406 | 2 |
| 2025-04-27T10:47:00 | 54.044035 | 6.369432 | 2.0 | 8.692 | 2 | 35.443 | 8.796 | 33.405 | 2 |
| 2025-04-27T10:48:00 | 54.043944 | 6.369262 | 2.0 | 8.711 | 2 | 35.505 | 8.876 | 33.395 | 2 |
| 2025-04-27T10:49:00 | 54.043757 | 6.369218 | 2.0 | 8.674 | 2 | 35.509 | 8.869 | 33.405 | 2 |
| 2025-04-27T10:50:00 | 54.043610 | 6.369256 | 2.0 | 8.838 | 2 | 35.505 | 8.872 | 33.398 | 2 |
| 2025-04-27T10:51:00 | 54.043510 | 6.369371 | 2.0 | 8.889 | 2 | 35.609 | 8.998 | 33.388 | 2 |
| 2025-04-27T10:52:00 | 54.043461 | 6.369550 | 2.0 | 8.876 | 2 | 35.650 | 9.047 | 33.385 | 2 |
| 2025-04-27T10:53:00 | 54.043436 | 6.369767 | 2.0 | 8.831 | 2 | 35.649 | 9.043 | 33.388 | 2 |
| 2025-04-27T10:54:00 | 54.043430 | 6.369941 | 2.0 | 8.713 | 2 | 35.601 | 8.979 | 33.398 | 2 |
| 2025-04-27T10:55:00 | 54.043440 | 6.370056 | 2.0 | 8.563 | 2 | 35.500 | 8.854 | 33.410 | 2 |
| 2025-04-27T10:56:00 | 54.043464 | 6.370123 | 2.0 | 8.594 | 2 | 35.397 | 8.743 | 33.407 | 2 |
| 2025-04-27T10:57:00 | 54.043499 | 6.370137 | 2.0 | 8.607 | 2 | 35.415 | 8.769 | 33.401 | 2 |
| 2025-04-27T10:58:00 | 54.043551 | 6.370102 | 2.0 | 8.662 | 2 | 35.435 | 8.792 | 33.400 | 2 |
| 2025-04-27T10:59:00 | 54.043619 | 6.369996 | 2.0 | 8.746 | 2 | 35.473 | 8.843 | 33.392 | 2 |
| 2025-04-27T11:00:00 | 54.043704 | 6.369858 | 2.0 | 8.752 | 2 | 35.545 | 8.930 | 33.386 | 2 |
| 2025-04-27T11:01:00 | 54.043819 | 6.369855 | 2.0 | 8.733 | 2 | 35.544 | 8.914 | 33.400 | 2 |
| 2025-04-27T11:02:00 | 54.043888 | 6.369906 | 2.0 | 8.750 | 2 | 35.538 | 8.912 | 33.395 | 2 |
| 2025-04-27T11:03:00 | 54.043921 | 6.369995 | 2.0 | 8.762 | 2 | 35.552 | 8.926 | 33.397 | 2 |
| 2025-04-27T11:04:00 | 54.043928 | 6.370132 | 2.0 | 8.695 | 2 | 35.554 | 8.921 | 33.403 | 2 |
| 2025-04-27T11:05:00 | 54.043918 | 6.370310 | 2.0 | 8.794 | 2 | 35.501 | 8.861 | 33.405 | 2 |
| 2025-04-27T11:06:00 | 54.043819 | 6.370555 | 2.0 | 8.938 | 2 | 35.625 | 9.031 | 33.374 | 2 |
| 2025-04-27T11:07:00 | 54.043619 | 6.370178 | 2.0 | 8.821 | 2 | 35.697 | 9.088 | 33.396 | 2 |
| 2025-04-27T11:08:00 | 54.043591 | 6.369025 | 2.0 | 8.792 | 2 | 35.620 | 8.993 | 33.405 | 2 |
| 2025-04-27T11:09:00 | 54.043704 | 6.367601 | 2.0 | 8.797 | 2 | 35.565 | 8.933 | 33.404 | 2 |
| 2025-04-27T11:10:00 | 54.043843 | 6.366216 | 2.0 | 8.767 | 2 | 35.570 | 8.947 | 33.396 | 2 |
| 2025-04-27T11:11:00 | 54.044193 | 6.365788 | 2.0 | 8.640 | 2 | 35.558 | 8.925 | 33.404 | 2 |
| 2025-04-27T11:12:00 | 54.044414 | 6.365763 | 2.0 | 8.647 | 2 | 35.464 | 8.815 | 33.409 | 2 |
| 2025-04-27T11:13:00 | 54.044519 | 6.365779 | 2.0 | 8.678 | 2 | 35.472 | 8.832 | 33.402 | 2 |
| 2025-04-27T11:14:00 | 54.044554 | 6.365844 | 2.0 | 8.699 | 2 | 35.492 | 8.855 | 33.401 | 2 |
| 2025-04-27T11:15:00 | 54.044572 | 6.365891 | 2.0 | 8.695 | 2 | 35.501 | 8.861 | 33.405 | 2 |
| 2025-04-27T11:16:00 | 54.044565 | 6.366059 | 2.0 | 8.688 | 2 | 35.513 | 8.878 | 33.401 | 2 |
| 2025-04-27T11:17:00 | 54.044206 | 6.366212 | 2.0 | 8.632 | 2 | 35.478 | 8.828 | 33.412 | 2 |
| 2025-04-27T11:18:00 | 54.043207 | 6.366373 | 2.0 | 8.866 | 2 | 35.497 | 8.894 | 33.369 | 2 |
| 2025-04-27T11:19:00 | 54.041996 | 6.366542 | 2.0 | 8.772 | 2 | 35.621 | 9.014 | 33.386 | 2 |
| 2025-04-27T11:20:00 | 54.040706 | 6.366646 | 2.0 | 8.748 | 2 | 35.558 | 8.933 | 33.396 | 2 |
| 2025-04-27T11:21:00 | 54.039349 | 6.366425 | 2.0 | 8.842 | 2 | 35.548 | 8.934 | 33.385 | 2 |
| 2025-04-27T11:22:00 | 54.037995 | 6.366276 | 2.0 | 8.852 | 2 | 35.594 | 8.990 | 33.380 | 2 |
| 2025-04-27T11:23:00 | 54.036781 | 6.366185 | 2.0 | 8.933 | 2 | 35.636 | 9.050 | 33.368 | 2 |
| 2025-04-27T11:24:00 | 54.035658 | 6.366088 | 2.0 | 8.865 | 2 | 35.684 | 9.093 | 33.377 | 2 |
| 2025-04-27T11:25:00 | 54.034564 | 6.365753 | 2.0 | 8.817 | 2 | 35.621 | 9.015 | 33.385 | 2 |
| 2025-04-27T11:26:00 | 54.034157 | 6.364644 | 2.0 | 8.682 | 2 | 35.595 | 8.983 | 33.388 | 2 |
| 2025-04-27T11:27:00 | 54.034360 | 6.364035 | 2.0 | 8.635 | 2 | 35.480 | 8.846 | 33.397 | 2 |
| 2025-04-27T11:28:00 | 54.034584 | 6.363891 | 2.0 | 8.732 | 2 | 35.454 | 8.842 | 33.373 | 2 |
| 2025-04-27T11:29:00 | 54.034685 | 6.363914 | 2.0 | 8.665 | 2 | 35.493 | 8.872 | 33.386 | 2 |
| 2025-04-27T11:30:00 | 54.034703 | 6.364017 | 2.0 | 8.781 | 2 | 35.471 | 8.855 | 33.379 | 2 |
| 2025-04-27T11:31:00 | 54.034663 | 6.364226 | 2.0 | 8.733 | 2 | 35.552 | 8.954 | 33.370 | 2 |
| 2025-04-27T11:32:00 | 54.034483 | 6.364566 | 2.0 | 8.665 | 2 | 35.518 | 8.895 | 33.390 | 2 |
| 2025-04-27T11:33:00 | 54.033633 | 6.364498 | 2.0 | 8.861 | 2 | 35.501 | 8.897 | 33.371 | 2 |
| 2025-04-27T11:34:00 | 54.032308 | 6.364259 | 2.0 | 8.896 | 2 | 35.620 | 9.038 | 33.362 | 2 |
| 2025-04-27T11:35:00 | 54.030737 | 6.364218 | 2.0 | 8.753 | 2 | 35.637 | 9.038 | 33.380 | 2 |
| 2025-04-27T11:36:00 | 54.029024 | 6.364239 | 2.0 | 8.936 | 2 | 35.550 | 8.952 | 33.370 | 2 |
| 2025-04-27T11:37:00 | 54.027297 | 6.364278 | 2.0 | 8.978 | 2 | 35.708 | 9.161 | 33.339 | 2 |
| 2025-04-27T11:38:00 | 54.025706 | 6.364103 | 2.0 | 8.903 | 2 | 35.697 | 9.118 | 33.367 | 2 |
| 2025-04-27T11:39:00 | 54.024203 | 6.363701 | 2.0 | 8.832 | 2 | 35.655 | 9.092 | 33.348 | 2 |
| 2025-04-27T11:40:00 | 54.023280 | 6.362796 | 2.0 | 8.679 | 2 | 35.566 | 8.981 | 33.360 | 2 |
| 2025-04-27T11:41:00 | 54.023395 | 6.361980 | 2.0 | 8.635 | 2 | 35.459 | 8.859 | 33.362 | 2 |
| 2025-04-27T11:42:00 | 54.023649 | 6.361698 | 2.0 | 8.705 | 2 | 35.412 | 8.814 | 33.356 | 2 |
| 2025-04-27T11:43:00 | 54.023760 | 6.361701 | 2.0 | 8.656 | 2 | 35.466 | 8.885 | 33.345 | 2 |
| 2025-04-27T11:44:00 | 54.023761 | 6.361843 | 2.0 | 8.711 | 2 | 35.432 | 8.840 | 33.352 | 2 |
| 2025-04-27T11:45:00 | 54.023731 | 6.362064 | 2.0 | 8.694 | 2 | 35.471 | 8.889 | 33.347 | 2 |
| 2025-04-27T11:46:00 | 54.023744 | 6.362197 | 2.0 | 8.634 | 2 | 35.465 | 8.877 | 33.352 | 2 |
| 2025-04-27T11:47:00 | 54.023795 | 6.362250 | 2.0 | 8.604 | 2 | 35.407 | 8.802 | 33.362 | 2 |
| 2025-04-27T11:48:00 | 54.023865 | 6.362666 | 2.0 | 8.913 | 2 | 35.393 | 8.803 | 33.346 | 2 |
| 2025-04-27T11:49:00 | 54.023493 | 6.363170 | 2.0 | 8.968 | 2 | 35.637 | 9.110 | 33.313 | 2 |
| 2025-04-27T11:50:00 | 54.022886 | 6.362591 | 2.0 | 8.832 | 2 | 35.670 | 9.117 | 33.340 | 2 |
| 2025-04-27T11:51:00 | 54.022532 | 6.361053 | 2.0 | 8.844 | 2 | 35.578 | 9.016 | 33.339 | 2 |
| 2025-04-27T11:52:00 | 54.022069 | 6.359251 | 2.0 | 8.878 | 2 | 35.568 | 9.006 | 33.338 | 2 |
| 2025-04-27T11:53:00 | 54.021562 | 6.357233 | 2.0 | 8.767 | 2 | 35.586 | 9.025 | 33.339 | 2 |
| 2025-04-27T11:54:00 | 54.021074 | 6.355112 | 2.0 | 8.792 | 2 | 35.505 | 8.955 | 33.320 | 2 |
| 2025-04-27T11:55:00 | 54.020559 | 6.352950 | 2.0 | 8.752 | 2 | 35.541 | 8.985 | 33.330 | 2 |
| 2025-04-27T11:56:00 | 54.019969 | 6.351345 | 2.0 | 9.108 | 2 | 35.217 | 8.978 | 32.999 | 2 |
| 2025-04-27T11:57:00 | 54.019562 | 6.351217 | 2.0 | 9.254 | 2 | 35.825 | 9.347 | 33.286 | 2 |
| 2025-04-27T11:58:00 | 54.019549 | 6.351360 | 2.0 | 9.003 | 2 | 35.381 | 9.295 | 32.876 | 2 |
| 2025-04-27T11:59:00 | 54.020170 | 6.351754 | 2.0 | 8.970 | 2 | 35.549 | 9.242 | 33.098 | 2 |
| 2025-04-27T12:00:00 | 54.021380 | 6.352346 | 2.0 | 8.743 | 2 | 35.445 | 9.099 | 33.123 | 2 |
| 2025-04-27T12:01:00 | 54.023411 | 6.353298 | 2.0 | 8.789 | 2 | 35.172 | 8.945 | 32.982 | 2 |
| 2025-04-27T12:02:00 | 54.025866 | 6.354101 | 2.0 | 8.901 | 2 | 35.328 | 9.005 | 33.089 | 2 |
| 2025-04-27T12:03:00 | 54.028555 | 6.353957 | 2.0 | 8.989 | 2 | 35.645 | 9.081 | 33.348 | 2 |
| 2025-04-27T12:04:00 | 54.031430 | 6.353785 | 2.0 | 8.958 | 2 | 35.735 | 9.178 | 33.351 | 2 |
| 2025-04-27T12:05:00 | 54.034366 | 6.353589 | 2.0 | 8.929 | 2 | 35.519 | 9.128 | 33.173 | 2 |
| 2025-04-27T12:06:00 | 54.037307 | 6.353413 | 2.0 | 8.806 | 2 | 35.635 | 9.039 | 33.377 | 2 |
| 2025-04-27T12:07:00 | 54.040247 | 6.353239 | 2.0 | 8.943 | 2 | 35.270 | 9.034 | 33.002 | 2 |
| 2025-04-27T12:08:00 | 54.043188 | 6.353055 | 2.0 | 8.838 | 2 | 35.132 | 9.096 | 32.801 | 2 |
| 2025-04-27T12:09:00 | 54.046130 | 6.352890 | 2.0 | 8.778 | 2 | 35.191 | 8.977 | 32.973 | 2 |
| 2025-04-27T12:10:00 | 54.049077 | 6.352733 | 2.0 | 8.911 | 2 | 35.585 | 8.965 | 33.394 | 2 |
| 2025-04-27T12:11:00 | 54.052023 | 6.352701 | 2.0 | 8.934 | 2 | 35.728 | 9.120 | 33.398 | 2 |
| 2025-04-27T12:12:00 | 54.054960 | 6.352776 | 2.0 | 8.970 | 2 | 35.714 | 9.088 | 33.413 | 2 |
| 2025-04-27T12:13:00 | 54.057897 | 6.352868 | 2.0 | 8.857 | 2 | 35.561 | 9.134 | 33.211 | 2 |
| 2025-04-27T12:14:00 | 54.060825 | 6.352963 | 2.0 | 8.810 | 2 | 35.369 | 9.019 | 33.119 | 2 |
| 2025-04-27T12:15:00 | 54.063756 | 6.353047 | 2.0 | 8.957 | 2 | 35.313 | 9.017 | 33.062 | 2 |
| 2025-04-27T12:16:00 | 54.066696 | 6.353122 | 2.0 | 8.900 | 2 | 35.249 | 9.096 | 32.923 | 2 |
| 2025-04-27T12:17:00 | 54.069628 | 6.353194 | 2.0 | 8.837 | 2 | 35.349 | 9.034 | 33.084 | 2 |
| 2025-04-27T12:18:00 | 54.072558 | 6.353274 | 2.0 | 8.910 | 2 | 35.463 | 9.042 | 33.195 | 2 |
| 2025-04-27T12:19:00 | 54.075486 | 6.353341 | 2.0 | 8.953 | 2 | 35.440 | 9.076 | 33.140 | 2 |
| 2025-04-27T12:20:00 | 54.078408 | 6.353412 | 2.0 | 8.980 | 2 | 35.498 | 9.128 | 33.151 | 2 |
| 2025-04-27T12:21:00 | 54.081332 | 6.353466 | 2.0 | 8.864 | 2 | 35.554 | 9.095 | 33.240 | 2 |
| 2025-04-27T12:22:00 | 54.084246 | 6.353513 | 2.0 | 8.923 | 2 | 35.436 | 9.062 | 33.148 | 2 |
| 2025-04-27T12:23:00 | 54.087165 | 6.353561 | 2.0 | 8.978 | 2 | 35.412 | 9.118 | 33.071 | 2 |
| 2025-04-27T12:24:00 | 54.090082 | 6.353658 | 2.0 | 8.977 | 2 | 35.510 | 9.134 | 33.158 | 2 |
| 2025-04-27T12:25:00 | 54.092969 | 6.354073 | 2.0 | 8.954 | 2 | 35.462 | 9.139 | 33.104 | 2 |
| 2025-04-27T12:26:00 | 54.095852 | 6.354594 | 2.0 | 8.918 | 2 | 35.588 | 9.119 | 33.253 | 2 |
| 2025-04-27T12:27:00 | 54.098728 | 6.355198 | 2.0 | 8.844 | 2 | 35.604 | 9.075 | 33.311 | 2 |
| 2025-04-27T12:28:00 | 54.101588 | 6.355888 | 2.0 | 8.781 | 2 | 35.622 | 8.998 | 33.402 | 2 |
| 2025-04-27T12:29:00 | 54.104371 | 6.356964 | 2.0 | 8.746 | 2 | 35.535 | 8.921 | 33.384 | 2 |
| 2025-04-27T12:30:00 | 54.106924 | 6.358088 | 2.0 | 8.930 | 2 | 35.517 | 8.973 | 33.316 | 2 |
| 2025-04-27T12:31:00 | 54.108839 | 6.359005 | 2.0 | 8.985 | 2 | 35.581 | 9.094 | 33.269 | 2 |
| 2025-04-27T12:32:00 | 54.110387 | 6.359361 | 2.0 | 8.990 | 2 | 35.761 | 9.154 | 33.400 | 2 |
| 2025-04-27T12:33:00 | 54.111483 | 6.359973 | 2.0 | 9.004 | 2 | 35.695 | 9.163 | 33.323 | 2 |
| 2025-04-27T12:34:00 | 54.112107 | 6.360878 | 2.0 | 9.033 | 2 | 35.635 | 9.181 | 33.244 | 2 |
| 2025-04-27T12:35:00 | 54.112755 | 6.361877 | 2.0 | 9.039 | 2 | 35.764 | 9.221 | 33.341 | 2 |
| 2025-04-27T12:36:00 | 54.113200 | 6.362963 | 2.0 | 9.001 | 2 | 35.861 | 9.216 | 33.446 | 2 |
| 2025-04-27T12:37:00 | 54.113375 | 6.363744 | 2.0 | 9.013 | 2 | 35.855 | 9.190 | 33.464 | 2 |
| 2025-04-27T12:38:00 | 54.113415 | 6.364389 | 2.0 | 9.030 | 2 | 35.824 | 9.208 | 33.415 | 2 |
| 2025-04-27T12:39:00 | 54.113392 | 6.364916 | 2.0 | 9.048 | 2 | 35.861 | 9.225 | 33.437 | 2 |
| 2025-04-27T12:40:00 | 54.113333 | 6.365356 | 2.0 | 9.040 | 2 | 35.891 | 9.236 | 33.458 | 2 |
| 2025-04-27T12:41:00 | 54.113279 | 6.365737 | 2.0 | 9.024 | 2 | 35.860 | 9.231 | 33.431 | 2 |
| 2025-04-27T12:42:00 | 54.113331 | 6.365979 | 2.0 | 8.996 | 2 | 35.873 | 9.206 | 33.468 | 2 |
| 2025-04-27T12:43:00 | 54.113403 | 6.366055 | 2.0 | 9.037 | 2 | 35.844 | 9.179 | 33.463 | 2 |
| 2025-04-27T12:44:00 | 54.113370 | 6.366035 | 2.0 | 9.031 | 2 | 35.854 | 9.243 | 33.413 | 2 |
| 2025-04-27T12:45:00 | 54.113338 | 6.366020 | 2.0 | 9.010 | 2 | 35.872 | 9.199 | 33.473 | 2 |
| 2025-04-27T12:46:00 | 54.113323 | 6.366259 | 2.0 | 9.062 | 2 | 35.804 | 9.216 | 33.387 | 2 |
| 2025-04-27T12:47:00 | 54.113292 | 6.366505 | 2.0 | 9.147 | 2 | 35.958 | 9.260 | 33.505 | 2 |
| 2025-04-27T12:48:00 | 54.113037 | 6.366257 | 2.0 | 9.056 | 2 | 35.918 | 9.327 | 33.401 | 2 |
| 2025-04-27T12:49:00 | 54.112710 | 6.365422 | 2.0 | 9.083 | 2 | 35.984 | 9.244 | 33.547 | 2 |
| 2025-04-27T12:50:00 | 54.111995 | 6.363841 | 2.0 | 9.059 | 2 | 35.940 | 9.265 | 33.482 | 2 |
| 2025-04-27T12:51:00 | 54.111042 | 6.361633 | 2.0 | 9.064 | 2 | 35.916 | 9.253 | 33.468 | 2 |
| 2025-04-27T12:52:00 | 54.110347 | 6.361135 | 2.0 | 9.166 | 2 | 35.892 | 9.283 | 33.415 | 2 |
| 2025-04-27T12:53:00 | 54.110150 | 6.361256 | 2.0 | 9.158 | 2 | 36.082 | 9.357 | 33.542 | 2 |
| 2025-04-27T12:54:00 | 54.110116 | 6.361749 | 2.0 | 9.090 | 2 | 36.027 | 9.345 | 33.497 | 2 |
| 2025-04-27T12:55:00 | 54.110100 | 6.362550 | 2.0 | 9.024 | 2 | 35.946 | 9.292 | 33.463 | 2 |
| 2025-04-27T12:56:00 | 54.110048 | 6.363538 | 2.0 | 9.033 | 2 | 35.916 | 9.224 | 33.495 | 2 |
| 2025-04-27T12:57:00 | 54.109984 | 6.364573 | 2.0 | 9.067 | 2 | 35.902 | 9.240 | 33.466 | 2 |
| 2025-04-27T12:58:00 | 54.109947 | 6.365220 | 2.0 | 8.959 | 2 | 35.941 | 9.242 | 33.504 | 2 |
| 2025-04-27T12:59:00 | 54.109927 | 6.365521 | 2.0 | 9.034 | 2 | 35.919 | 9.173 | 33.546 | 2 |
| 2025-04-27T13:00:00 | 54.109933 | 6.365811 | 2.0 | 9.086 | 2 | 35.910 | 9.226 | 33.487 | 2 |
| 2025-04-27T13:01:00 | 54.109952 | 6.365849 | 2.0 | 8.907 | 2 | 35.970 | 9.285 | 33.494 | 2 |
| 2025-04-27T13:02:00 | 54.109966 | 6.365878 | 2.0 | 9.081 | 2 | 35.821 | 9.068 | 33.543 | 2 |
| 2025-04-27T13:03:00 | 54.109983 | 6.366210 | 2.0 | 9.058 | 2 | 35.967 | 9.247 | 33.527 | 2 |
| 2025-04-27T13:04:00 | 54.109975 | 6.366504 | 2.0 | 9.087 | 2 | 35.962 | 9.253 | 33.516 | 2 |
| 2025-04-27T13:05:00 | 54.109744 | 6.366894 | 2.0 | 9.045 | 2 | 36.014 | 9.281 | 33.543 | 2 |
| 2025-04-27T13:06:00 | 54.109042 | 6.367807 | 2.0 | 9.104 | 2 | 35.981 | 9.263 | 33.526 | 2 |
| 2025-04-27T13:07:00 | 54.108036 | 6.369095 | 2.0 | 9.059 | 2 | 36.001 | 9.290 | 33.521 | 2 |
| 2025-04-27T13:08:00 | 54.106855 | 6.370479 | 2.0 | 9.121 | 2 | 35.969 | 9.243 | 33.532 | 2 |
| 2025-04-27T13:09:00 | 54.105655 | 6.371848 | 2.0 | 9.127 | 2 | 36.002 | 9.305 | 33.508 | 2 |
| 2025-04-27T13:10:00 | 54.104281 | 6.373221 | 2.0 | 9.088 | 2 | 35.831 | 9.303 | 33.333 | 2 |
| 2025-04-27T13:11:00 | 54.102883 | 6.374595 | 2.0 | 9.059 | 2 | 35.734 | 9.293 | 33.242 | 2 |
| 2025-04-27T13:12:00 | 54.101557 | 6.375799 | 2.0 | 9.146 | 2 | 35.790 | 9.266 | 33.325 | 2 |
| 2025-04-27T13:13:00 | 54.101248 | 6.377084 | 2.0 | 9.192 | 2 | 35.890 | 9.365 | 33.336 | 2 |
| 2025-04-27T13:14:00 | 54.100923 | 6.378139 | 2.0 | 9.025 | 2 | 35.689 | 9.333 | 33.159 | 2 |
| 2025-04-27T13:15:00 | 54.100488 | 6.379555 | 2.0 | 9.138 | 2 | 35.683 | 9.276 | 33.205 | 2 |
| 2025-04-27T13:16:00 | 54.100319 | 6.381282 | 2.0 | 9.074 | 2 | 35.769 | 9.269 | 33.301 | 2 |
| 2025-04-27T13:17:00 | 54.100220 | 6.383150 | 2.0 | 9.271 | 2 | 35.661 | 9.336 | 33.127 | 2 |
| 2025-04-27T13:18:00 | 54.100117 | 6.384775 | 2.0 | 9.316 | 2 | 35.805 | 9.453 | 33.167 | 2 |
| 2025-04-27T13:19:00 | 54.100030 | 6.386059 | 2.0 | 9.329 | 2 | 35.932 | 9.508 | 33.247 | 2 |
| 2025-04-27T13:20:00 | 54.099953 | 6.387073 | 2.0 | 9.329 | 2 | 35.969 | 9.530 | 33.264 | 2 |
| 2025-04-27T13:21:00 | 54.099907 | 6.387908 | 2.0 | 9.285 | 2 | 36.008 | 9.518 | 33.316 | 2 |
| 2025-04-27T13:22:00 | 54.099865 | 6.388682 | 2.0 | 9.396 | 2 | 35.928 | 9.513 | 33.238 | 2 |
| 2025-04-27T13:23:00 | 54.099840 | 6.389368 | 2.0 | 9.398 | 2 | 36.017 | 9.583 | 33.265 | 2 |
| 2025-04-27T13:24:00 | 54.099829 | 6.389797 | 2.0 | 9.233 | 2 | 36.079 | 9.574 | 33.337 | 2 |
| 2025-04-27T13:25:00 | 54.099855 | 6.389971 | 2.0 | 9.139 | 2 | 35.998 | 9.415 | 33.401 | 2 |
| 2025-04-27T13:26:00 | 54.099912 | 6.390034 | 2.0 | 9.168 | 2 | 35.861 | 9.377 | 33.295 | 2 |
| 2025-04-27T13:27:00 | 54.099935 | 6.390106 | 2.0 | 9.455 | 2 | 35.845 | 9.437 | 33.223 | 2 |
| 2025-04-27T13:28:00 | 54.099997 | 6.390183 | 2.0 | 9.338 | 2 | 36.044 | 9.591 | 33.285 | 2 |
| 2025-04-27T13:29:00 | 54.100000 | 6.390454 | 2.0 | 9.411 | 2 | 36.041 | 9.556 | 33.314 | 2 |
| 2025-04-27T13:30:00 | 54.099959 | 6.390646 | 2.0 | 9.523 | 2 | 36.079 | 9.603 | 33.310 | 2 |
| 2025-04-27T13:31:00 | 54.099565 | 6.391020 | 2.0 | 9.409 | 2 | 36.187 | 9.702 | 33.329 | 2 |
| 2025-04-27T13:32:00 | 54.098355 | 6.391612 | 2.0 | 9.395 | 2 | 36.027 | 9.614 | 33.246 | 2 |
| 2025-04-27T13:33:00 | 54.096358 | 6.392645 | 2.0 | 9.379 | 2 | 35.980 | 9.582 | 33.227 | 2 |
| 2025-04-27T13:34:00 | 54.094001 | 6.393844 | 2.0 | 9.283 | 2 | 36.136 | 9.571 | 33.398 | 2 |
| 2025-04-27T13:35:00 | 54.091543 | 6.395120 | 2.0 | 9.273 | 2 | 36.020 | 9.494 | 33.350 | 2 |
| 2025-04-27T13:36:00 | 54.089261 | 6.396291 | 2.0 | 9.282 | 2 | 35.978 | 9.478 | 33.322 | 2 |
| 2025-04-27T13:37:00 | 54.087576 | 6.397276 | 2.0 | 9.247 | 2 | 36.091 | 9.503 | 33.415 | 2 |
| 2025-04-27T13:38:00 | 54.086300 | 6.398364 | 2.0 | 9.392 | 2 | 36.100 | 9.477 | 33.449 | 2 |
| 2025-04-27T13:39:00 | 54.085382 | 6.399756 | 2.0 | 9.368 | 2 | 36.141 | 9.575 | 33.399 | 2 |
| 2025-04-27T13:40:00 | 54.085126 | 6.401137 | 2.0 | 9.348 | 2 | 36.153 | 9.558 | 33.428 | 2 |
| 2025-04-27T13:41:00 | 54.085029 | 6.402455 | 2.0 | 9.285 | 2 | 36.120 | 9.548 | 33.403 | 2 |
| 2025-04-27T13:42:00 | 54.084943 | 6.403664 | 2.0 | 9.399 | 2 | 36.055 | 9.502 | 33.379 | 2 |
| 2025-04-27T13:43:00 | 54.084877 | 6.404666 | 2.0 | 9.536 | 2 | 36.201 | 9.629 | 33.411 | 2 |
| 2025-04-27T13:44:00 | 54.084832 | 6.405439 | 2.0 | 9.291 | 2 | 36.269 | 9.674 | 33.439 | 2 |
| 2025-04-27T13:45:00 | 54.084803 | 6.405905 | 2.0 | 9.254 | 2 | 36.102 | 9.516 | 33.414 | 2 |
| 2025-04-27T13:46:00 | 54.084812 | 6.406111 | 2.0 | 9.279 | 2 | 36.063 | 9.450 | 33.436 | 2 |
| 2025-04-27T13:47:00 | 54.084830 | 6.406297 | 2.0 | 9.266 | 2 | 36.096 | 9.476 | 33.445 | 2 |
| 2025-04-27T13:48:00 | 54.084821 | 6.406354 | 2.0 | 9.478 | 2 | 36.153 | 9.550 | 33.435 | 2 |
| 2025-04-27T13:49:00 | 54.084816 | 6.406034 | 2.0 | 9.612 | 2 | 36.273 | 9.678 | 33.439 | 2 |
| 2025-04-27T13:50:00 | 54.084716 | 6.405710 | 2.0 | 9.647 | 2 | 36.372 | 9.801 | 33.426 | 2 |
| 2025-04-27T13:51:00 | 54.084246 | 6.404974 | 2.0 | 9.432 | 2 | 36.387 | 9.792 | 33.450 | 2 |
| 2025-04-27T13:52:00 | 54.083565 | 6.404135 | 2.0 | 9.361 | 2 | 36.262 | 9.643 | 33.460 | 2 |
| 2025-04-27T13:53:00 | 54.083048 | 6.403543 | 2.0 | 9.523 | 2 | 36.162 | 9.534 | 33.459 | 2 |
| 2025-04-27T13:54:00 | 54.082700 | 6.403627 | 2.0 | 9.301 | 2 | 36.316 | 9.724 | 33.440 | 2 |
| 2025-04-27T13:55:00 | 54.082512 | 6.404252 | 2.0 | 9.158 | 2 | 36.111 | 9.469 | 33.467 | 2 |
| 2025-04-27T13:56:00 | 54.082377 | 6.404943 | 2.0 | 9.096 | 2 | 36.000 | 9.358 | 33.457 | 2 |
| 2025-04-27T13:57:00 | 54.082247 | 6.405326 | 2.0 | 9.050 | 2 | 35.969 | 9.323 | 33.457 | 2 |
| 2025-04-27T13:58:00 | 54.082206 | 6.405511 | 2.0 | 9.215 | 2 | 35.948 | 9.321 | 33.438 | 2 |
| 2025-04-27T13:59:00 | 54.082216 | 6.405777 | 2.0 | 8.960 | 2 | 35.979 | 9.322 | 33.469 | 2 |
| 2025-04-27T14:00:00 | 54.082230 | 6.406038 | 2.0 | 8.864 | 2 | 35.847 | 9.178 | 33.467 | 2 |
| 2025-04-27T14:01:00 | 54.082234 | 6.406070 | 2.0 | 8.899 | 2 | 35.735 | 9.055 | 33.466 | 2 |
| 2025-04-27T14:02:00 | 54.082245 | 6.405877 | 2.0 | 8.708 | 2 | 35.743 | 9.071 | 33.459 | 2 |
| 2025-04-27T14:03:00 | 54.082282 | 6.405464 | 2.0 | 8.864 | 2 | 35.647 | 8.953 | 33.470 | 2 |
| 2025-04-27T14:04:00 | 54.082322 | 6.405000 | 2.0 | 9.092 | 2 | 35.769 | 9.119 | 33.441 | 2 |
| 2025-04-27T14:05:00 | 54.082379 | 6.404724 | 2.0 | 9.563 | 2 | 35.960 | 9.345 | 33.427 | 2 |
| 2025-04-27T14:06:00 | 54.082205 | 6.404308 | 2.0 | 9.485 | 2 | 36.317 | 9.762 | 33.406 | 2 |
| 2025-04-27T14:07:00 | 54.081537 | 6.403065 | 2.0 | 9.444 | 2 | 36.277 | 9.661 | 33.459 | 2 |
| 2025-04-27T14:08:00 | 54.080310 | 6.401174 | 2.0 | 9.214 | 2 | 36.203 | 9.597 | 33.443 | 2 |
| 2025-04-27T14:09:00 | 54.078776 | 6.398988 | 2.0 | 9.208 | 2 | 36.034 | 9.400 | 33.452 | 2 |
| 2025-04-27T14:10:00 | 54.077095 | 6.396630 | 2.0 | 9.001 | 2 | 35.995 | 9.370 | 33.440 | 2 |
| 2025-04-27T14:11:00 | 54.075342 | 6.394188 | 2.0 | 9.307 | 2 | 35.871 | 9.243 | 33.431 | 2 |
| 2025-04-27T14:12:00 | 54.073569 | 6.391676 | 2.0 | 9.132 | 2 | 36.015 | 9.421 | 33.413 | 2 |
| 2025-04-27T14:13:00 | 54.071867 | 6.388925 | 2.0 | 8.988 | 2 | 35.909 | 9.300 | 33.417 | 2 |
| 2025-04-27T14:14:00 | 54.070173 | 6.386149 | 2.0 | 9.335 | 2 | 35.866 | 9.296 | 33.376 | 2 |
| 2025-04-27T14:15:00 | 54.068476 | 6.383374 | 2.0 | 8.951 | 2 | 36.001 | 9.450 | 33.372 | 2 |
| 2025-04-27T14:16:00 | 54.066776 | 6.380601 | 2.0 | 8.674 | 2 | 35.685 | 9.065 | 33.405 | 2 |
| 2025-04-27T14:17:00 | 54.065057 | 6.377836 | 2.0 | 8.956 | 2 | 35.557 | 8.948 | 33.381 | 2 |
| 2025-04-27T14:18:00 | 54.063356 | 6.375036 | 2.0 | 8.878 | 2 | 35.674 | 9.088 | 33.372 | 2 |
| 2025-04-27T14:19:00 | 54.061652 | 6.372247 | 2.0 | 9.094 | 2 | 35.748 | 9.183 | 33.359 | 2 |
| 2025-04-27T14:20:00 | 54.059946 | 6.369467 | 2.0 | 8.958 | 2 | 35.848 | 9.242 | 33.408 | 2 |
| 2025-04-27T14:21:00 | 54.058251 | 6.366651 | 2.0 | 9.055 | 2 | 35.732 | 9.161 | 33.363 | 2 |
| 2025-04-27T14:22:00 | 54.056558 | 6.363862 | 2.0 | 9.101 | 2 | 35.780 | 9.234 | 33.345 | 2 |
| 2025-04-27T14:23:00 | 54.054972 | 6.361210 | 2.0 | 9.206 | 2 | 35.862 | 9.316 | 33.353 | 2 |
| 2025-04-27T14:24:00 | 54.053662 | 6.358860 | 2.0 | 9.101 | 2 | 35.884 | 9.367 | 33.328 | 2 |
| 2025-04-27T14:25:00 | 54.052902 | 6.356624 | 2.0 | 9.094 | 2 | 35.764 | 9.284 | 33.282 | 2 |
| 2025-04-27T14:26:00 | 54.053235 | 6.355340 | 2.0 | 9.048 | 2 | 35.779 | 9.258 | 33.322 | 2 |
| 2025-04-27T14:27:00 | 54.053572 | 6.354838 | 2.0 | 9.145 | 2 | 35.760 | 9.243 | 33.316 | 2 |
| 2025-04-27T14:28:00 | 54.053736 | 6.354931 | 2.0 | 9.168 | 2 | 35.806 | 9.319 | 33.293 | 2 |
| 2025-04-27T14:29:00 | 54.053798 | 6.354916 | 2.0 | 9.063 | 2 | 35.804 | 9.329 | 33.281 | 2 |
| 2025-04-27T14:30:00 | 54.053843 | 6.354866 | 2.0 | 8.857 | 2 | 35.676 | 9.156 | 33.310 | 2 |
| 2025-04-27T14:31:00 | 54.053914 | 6.354779 | 2.0 | 9.079 | 2 | 35.601 | 9.110 | 33.275 | 2 |
| 2025-04-27T14:32:00 | 54.053976 | 6.354780 | 2.0 | 9.074 | 2 | 35.709 | 9.251 | 33.256 | 2 |
| 2025-04-27T14:33:00 | 54.054056 | 6.355069 | 2.0 | 9.087 | 2 | 35.710 | 9.257 | 33.251 | 2 |
| 2025-04-27T14:34:00 | 54.054130 | 6.355834 | 2.0 | 9.109 | 2 | 35.695 | 9.259 | 33.234 | 2 |
| 2025-04-27T14:35:00 | 54.054195 | 6.356881 | 2.0 | 9.299 | 2 | 35.766 | 9.329 | 33.242 | 2 |
| 2025-04-27T14:36:00 | 54.054253 | 6.358050 | 2.0 | 9.308 | 2 | 35.926 | 9.469 | 33.277 | 2 |
| 2025-04-27T14:37:00 | 54.054310 | 6.359290 | 2.0 | 9.174 | 2 | 35.910 | 9.433 | 33.294 | 2 |
| 2025-04-27T14:38:00 | 54.054360 | 6.360488 | 2.0 | 9.136 | 2 | 35.839 | 9.355 | 33.293 | 2 |
| 2025-04-27T14:39:00 | 54.054425 | 6.361509 | 2.0 | 9.068 | 2 | 35.767 | 9.307 | 33.263 | 2 |
| 2025-04-27T14:40:00 | 54.054495 | 6.362483 | 2.0 | 8.984 | 2 | 35.679 | 9.221 | 33.252 | 2 |
| 2025-04-27T14:41:00 | 54.054563 | 6.363913 | 2.0 | 8.959 | 2 | 35.618 | 9.167 | 33.240 | 2 |
| 2025-04-27T14:42:00 | 54.054616 | 6.365620 | 2.0 | 8.923 | 2 | 35.593 | 9.143 | 33.236 | 2 |
| 2025-04-27T14:43:00 | 54.054587 | 6.367398 | 2.0 | 9.025 | 2 | 35.543 | 9.144 | 33.183 | 2 |
| 2025-04-27T14:44:00 | 54.054211 | 6.369228 | 2.0 | 8.977 | 2 | 35.555 | 9.183 | 33.159 | 2 |
| 2025-04-27T14:45:00 | 54.053468 | 6.370821 | 2.0 | 8.915 | 2 | 35.469 | 9.128 | 33.121 | 2 |
| 2025-04-27T14:46:00 | 54.052511 | 6.372095 | 2.0 | 8.956 | 2 | 35.441 | 9.087 | 33.130 | 2 |
| 2025-04-27T14:47:00 | 54.051358 | 6.372878 | 2.0 | 9.244 | 2 | 35.514 | 9.179 | 33.121 | 2 |
| 2025-04-27T14:48:00 | 54.050125 | 6.373313 | 2.0 | 9.312 | 2 | 35.702 | 9.424 | 33.088 | 2 |
| 2025-04-27T14:49:00 | 54.048838 | 6.373358 | 2.0 | 9.186 | 2 | 35.715 | 9.448 | 33.079 | 2 |
| 2025-04-27T14:50:00 | 54.047626 | 6.373492 | 2.0 | 9.121 | 2 | 35.613 | 9.359 | 33.056 | 2 |
| 2025-04-27T14:51:00 | 54.046391 | 6.373468 | 2.0 | 9.098 | 2 | 35.548 | 9.286 | 33.057 | 2 |
| 2025-04-27T14:52:00 | 54.045167 | 6.373519 | 2.0 | 8.890 | 2 | 35.474 | 9.204 | 33.056 | 2 |
| 2025-04-27T14:53:00 | 54.043951 | 6.373611 | 2.0 | 9.299 | 2 | 35.448 | 9.207 | 33.026 | 2 |
| 2025-04-27T14:54:00 | 54.042741 | 6.373714 | 2.0 | 9.168 | 2 | 35.647 | 9.434 | 33.022 | 2 |
| 2025-04-27T14:55:00 | 54.041508 | 6.373744 | 2.0 | 9.221 | 2 | 35.562 | 9.353 | 33.009 | 2 |
| 2025-04-27T14:56:00 | 54.040260 | 6.373702 | 2.0 | 9.292 | 2 | 35.551 | 9.382 | 32.971 | 2 |
| 2025-04-27T14:57:00 | 54.039002 | 6.373638 | 2.0 | 9.268 | 2 | 35.611 | 9.461 | 32.960 | 2 |
| 2025-04-27T14:58:00 | 54.037750 | 6.373634 | 2.0 | 9.197 | 2 | 35.578 | 9.400 | 32.982 | 2 |
| 2025-04-27T14:59:00 | 54.036674 | 6.374284 | 2.0 | 9.321 | 2 | 35.565 | 9.382 | 32.985 | 2 |
| 2025-04-27T15:00:00 | 54.035765 | 6.375631 | 2.0 | 9.280 | 2 | 35.607 | 9.480 | 32.938 | 2 |
| 2025-04-27T15:01:00 | 54.034567 | 6.376687 | 2.0 | 9.240 | 2 | 35.547 | 9.451 | 32.903 | 2 |
| 2025-04-27T15:02:00 | 54.032988 | 6.376174 | 2.0 | 9.190 | 2 | 35.494 | 9.413 | 32.884 | 2 |
| 2025-04-27T15:03:00 | 54.031835 | 6.373774 | 2.0 | 9.132 | 2 | 35.443 | 9.377 | 32.864 | 2 |
| 2025-04-27T15:04:00 | 54.031927 | 6.370780 | 2.0 | 9.029 | 2 | 35.372 | 9.276 | 32.884 | 2 |
| 2025-04-27T15:05:00 | 54.032969 | 6.368967 | 2.0 | 8.996 | 2 | 35.325 | 9.219 | 32.888 | 2 |
| 2025-04-27T15:06:00 | 54.034145 | 6.368568 | 2.0 | 9.127 | 2 | 35.320 | 9.203 | 32.897 | 2 |
| 2025-04-27T15:07:00 | 54.035304 | 6.368875 | 2.0 | 9.283 | 2 | 35.429 | 9.325 | 32.898 | 2 |
| 2025-04-27T15:08:00 | 54.036677 | 6.369042 | 2.0 | 9.418 | 2 | 35.581 | 9.494 | 32.899 | 2 |
| 2025-04-27T15:09:00 | 54.038105 | 6.368899 | 2.0 | 9.223 | 2 | 35.641 | 9.519 | 32.937 | 2 |
| 2025-04-27T15:10:00 | 54.039447 | 6.368941 | 2.0 | 9.180 | 2 | 35.559 | 9.392 | 32.970 | 2 |
| 2025-04-27T15:11:00 | 54.040714 | 6.369030 | 2.0 | 9.194 | 2 | 35.525 | 9.372 | 32.953 | 2 |
| 2025-04-27T15:12:00 | 54.041954 | 6.369045 | 2.0 | 9.183 | 2 | 35.533 | 9.373 | 32.961 | 2 |
| 2025-04-27T15:13:00 | 54.043182 | 6.369003 | 2.0 | 9.065 | 2 | 35.505 | 9.333 | 32.969 | 2 |
| 2025-04-27T15:14:00 | 54.044394 | 6.368958 | 2.0 | 9.030 | 2 | 35.430 | 9.236 | 32.981 | 2 |
| 2025-04-27T15:15:00 | 54.045589 | 6.368955 | 2.0 | 9.058 | 2 | 35.417 | 9.217 | 32.985 | 2 |
| 2025-04-27T15:16:00 | 54.046770 | 6.368978 | 2.0 | 8.989 | 2 | 35.418 | 9.233 | 32.971 | 2 |
| 2025-04-27T15:17:00 | 54.047957 | 6.368985 | 2.0 | 8.748 | 2 | 35.335 | 9.115 | 32.994 | 2 |
| 2025-04-27T15:18:00 | 54.049169 | 6.368691 | 2.0 | 8.824 | 2 | 35.188 | 8.950 | 32.995 | 2 |
| 2025-04-27T15:19:00 | 54.050314 | 6.367526 | 2.0 | 9.057 | 2 | 35.267 | 9.049 | 32.985 | 2 |
| 2025-04-27T15:20:00 | 54.051394 | 6.366216 | 2.0 | 9.166 | 2 | 35.460 | 9.261 | 32.989 | 2 |
| 2025-04-27T15:21:00 | 54.052455 | 6.365744 | 2.0 | 9.339 | 2 | 35.581 | 9.371 | 33.012 | 2 |
| 2025-04-27T15:22:00 | 54.053342 | 6.366494 | 2.0 | 9.256 | 2 | 35.691 | 9.504 | 33.003 | 2 |
| 2025-04-27T15:23:00 | 54.053634 | 6.368096 | 2.0 | 9.112 | 2 | 35.600 | 9.403 | 33.002 | 2 |
| 2025-04-27T15:24:00 | 54.053153 | 6.369631 | 2.0 | 8.958 | 2 | 35.488 | 9.303 | 32.979 | 2 |
| 2025-04-27T15:25:00 | 54.052073 | 6.370417 | 2.0 | 9.050 | 2 | 35.384 | 9.185 | 32.980 | 2 |
| 2025-04-27T15:26:00 | 54.050979 | 6.371220 | 2.0 | 9.035 | 2 | 35.407 | 9.236 | 32.957 | 2 |
| 2025-04-27T15:27:00 | 54.049859 | 6.371942 | 2.0 | 8.907 | 2 | 35.387 | 9.186 | 32.982 | 2 |
| 2025-04-27T15:28:00 | 54.048629 | 6.372295 | 2.0 | 9.003 | 2 | 35.327 | 9.137 | 32.966 | 2 |
| 2025-04-27T15:29:00 | 54.047411 | 6.372523 | 2.0 | 8.855 | 2 | 35.341 | 9.150 | 32.968 | 2 |
| 2025-04-27T15:30:00 | 54.046162 | 6.372581 | 2.0 | 8.775 | 2 | 35.219 | 9.022 | 32.960 | 2 |
| 2025-04-27T15:31:00 | 54.044921 | 6.372686 | 2.0 | 8.981 | 2 | 35.170 | 9.005 | 32.925 | 2 |
| 2025-04-27T15:32:00 | 54.043671 | 6.372772 | 2.0 | 9.240 | 2 | 35.345 | 9.231 | 32.897 | 2 |
| 2025-04-27T15:33:00 | 54.042411 | 6.372753 | 2.0 | 9.180 | 2 | 35.477 | 9.354 | 32.920 | 2 |
| 2025-04-27T15:34:00 | 54.041150 | 6.372677 | 2.0 | 9.303 | 2 | 35.484 | 9.375 | 32.908 | 2 |
| 2025-04-27T15:35:00 | 54.039909 | 6.372692 | 2.0 | 9.242 | 2 | 35.547 | 9.471 | 32.885 | 2 |
| 2025-04-27T15:36:00 | 54.038680 | 6.372744 | 2.0 | 9.173 | 2 | 35.474 | 9.402 | 32.873 | 2 |
| 2025-04-27T15:37:00 | 54.037470 | 6.372848 | 2.0 | 9.133 | 2 | 35.416 | 9.362 | 32.850 | 2 |
| 2025-04-27T15:38:00 | 54.036525 | 6.373694 | 2.0 | 8.968 | 2 | 35.333 | 9.267 | 32.852 | 2 |
| 2025-04-27T15:39:00 | 54.035499 | 6.374712 | 2.0 | 8.934 | 2 | 35.201 | 9.135 | 32.837 | 2 |
| 2025-04-27T15:40:00 | 54.034194 | 6.374438 | 2.0 | 9.267 | 2 | 35.272 | 9.231 | 32.822 | 2 |
| 2025-04-27T15:41:00 | 54.033272 | 6.372789 | 2.0 | 9.069 | 2 | 35.418 | 9.387 | 32.829 | 2 |
| 2025-04-27T15:42:00 | 54.033119 | 6.370565 | 2.0 | 9.103 | 2 | 35.289 | 9.209 | 32.860 | 2 |
| 2025-04-27T15:43:00 | 54.033704 | 6.368753 | 2.0 | 9.065 | 2 | 35.312 | 9.262 | 32.835 | 2 |
| 2025-04-27T15:44:00 | 54.034655 | 6.367990 | 2.0 | 9.101 | 2 | 35.285 | 9.224 | 32.842 | 2 |
| 2025-04-27T15:45:00 | 54.035736 | 6.368135 | 2.0 | 9.170 | 2 | 35.325 | 9.304 | 32.810 | 2 |
| 2025-04-27T15:46:00 | 54.037024 | 6.368187 | 2.0 | 8.998 | 2 | 35.336 | 9.282 | 32.841 | 2 |
| 2025-04-27T15:47:00 | 54.038346 | 6.368155 | 2.0 | 9.029 | 2 | 35.268 | 9.198 | 32.848 | 2 |
| 2025-04-27T15:48:00 | 54.039586 | 6.368237 | 2.0 | 9.355 | 2 | 35.292 | 9.267 | 32.810 | 2 |
| 2025-04-27T15:49:00 | 54.040799 | 6.368264 | 2.0 | 9.312 | 2 | 35.488 | 9.469 | 32.826 | 2 |
| 2025-04-27T15:50:00 | 54.041987 | 6.368213 | 2.0 | 9.165 | 2 | 35.513 | 9.459 | 32.861 | 2 |
| 2025-04-27T15:51:00 | 54.043158 | 6.368136 | 2.0 | 8.992 | 2 | 35.421 | 9.292 | 32.920 | 2 |
| 2025-04-27T15:52:00 | 54.044312 | 6.368061 | 2.0 | 8.830 | 2 | 35.335 | 9.195 | 32.920 | 2 |
| 2025-04-27T15:53:00 | 54.045465 | 6.368003 | 2.0 | 8.912 | 2 | 35.194 | 9.039 | 32.918 | 2 |
| 2025-04-27T15:54:00 | 54.046605 | 6.367990 | 2.0 | 8.841 | 2 | 35.235 | 9.104 | 32.901 | 2 |
| 2025-04-27T15:55:00 | 54.047743 | 6.367995 | 2.0 | 8.778 | 2 | 35.187 | 9.011 | 32.937 | 2 |
| 2025-04-27T15:56:00 | 54.048893 | 6.367840 | 2.0 | 8.728 | 2 | 35.130 | 8.940 | 32.943 | 2 |
| 2025-04-27T15:57:00 | 54.050037 | 6.366917 | 2.0 | 8.785 | 2 | 35.097 | 8.914 | 32.933 | 2 |
| 2025-04-27T15:58:00 | 54.051230 | 6.365785 | 2.0 | 8.821 | 2 | 35.142 | 8.964 | 32.934 | 2 |
| 2025-04-27T15:59:00 | 54.052444 | 6.365714 | 2.0 | 8.981 | 2 | 35.189 | 9.016 | 32.934 | 2 |
| 2025-04-27T16:00:00 | 54.053263 | 6.366933 | 2.0 | 9.137 | 2 | 35.344 | 9.186 | 32.938 | 2 |
| 2025-04-27T16:01:00 | 54.053327 | 6.368943 | 2.0 | 9.281 | 2 | 35.486 | 9.341 | 32.942 | 2 |
| 2025-04-27T16:02:00 | 54.052605 | 6.370563 | 2.0 | 9.392 | 2 | 35.588 | 9.459 | 32.938 | 2 |
| 2025-04-27T16:03:00 | 54.051417 | 6.371263 | 2.0 | 9.362 | 2 | 35.679 | 9.578 | 32.922 | 2 |
| 2025-04-27T16:04:00 | 54.050164 | 6.371501 | 2.0 | 9.261 | 2 | 35.654 | 9.546 | 32.926 | 2 |
| 2025-04-27T16:05:00 | 54.048969 | 6.371670 | 2.0 | 9.097 | 2 | 35.530 | 9.399 | 32.934 | 2 |
| 2025-04-27T16:06:00 | 54.047793 | 6.371677 | 2.0 | 8.953 | 2 | 35.402 | 9.261 | 32.929 | 2 |
| 2025-04-27T16:07:00 | 54.046603 | 6.371721 | 2.0 | 8.811 | 2 | 35.252 | 9.104 | 32.918 | 2 |
| 2025-04-27T16:08:00 | 54.045401 | 6.371814 | 2.0 | 8.779 | 2 | 35.128 | 8.982 | 32.902 | 2 |
| 2025-04-27T16:09:00 | 54.044177 | 6.371873 | 2.0 | 9.212 | 2 | 35.136 | 9.004 | 32.890 | 2 |
| 2025-04-27T16:10:00 | 54.042939 | 6.371854 | 2.0 | 9.284 | 2 | 35.421 | 9.386 | 32.833 | 2 |
| 2025-04-27T16:11:00 | 54.041690 | 6.371826 | 2.0 | 9.372 | 2 | 35.484 | 9.433 | 32.855 | 2 |
| 2025-04-27T16:12:00 | 54.040445 | 6.371854 | 2.0 | 9.426 | 2 | 35.552 | 9.542 | 32.825 | 2 |
| 2025-04-27T16:13:00 | 54.039202 | 6.371929 | 2.0 | 9.455 | 2 | 35.588 | 9.595 | 32.813 | 2 |
| 2025-04-27T16:14:00 | 54.037951 | 6.371991 | 2.0 | 9.190 | 2 | 35.582 | 9.590 | 32.812 | 2 |
| 2025-04-27T16:15:00 | 54.036784 | 6.372351 | 2.0 | 9.072 | 2 | 35.386 | 9.324 | 32.854 | 2 |
| 2025-04-27T16:16:00 | 54.035904 | 6.373393 | 2.0 | 9.323 | 2 | 35.355 | 9.338 | 32.809 | 2 |
| 2025-04-27T16:17:00 | 54.034827 | 6.374049 | 2.0 | 9.172 | 2 | 35.445 | 9.428 | 32.819 | 2 |
| 2025-04-27T16:18:00 | 54.033619 | 6.373449 | 2.0 | 9.084 | 2 | 35.376 | 9.352 | 32.818 | 2 |
| 2025-04-27T16:19:00 | 54.032860 | 6.371580 | 2.0 | 8.884 | 2 | 35.271 | 9.233 | 32.819 | 2 |
| 2025-04-27T16:20:00 | 54.032955 | 6.369283 | 2.0 | 8.871 | 2 | 35.101 | 9.064 | 32.799 | 2 |
| 2025-04-27T16:21:00 | 54.033740 | 6.367757 | 2.0 | 8.975 | 2 | 35.118 | 9.107 | 32.777 | 2 |
| 2025-04-27T16:22:00 | 54.034746 | 6.367276 | 2.0 | 9.099 | 2 | 35.179 | 9.158 | 32.793 | 2 |
| 2025-04-27T16:23:00 | 54.035835 | 6.367260 | 2.0 | 9.107 | 2 | 35.314 | 9.290 | 32.811 | 2 |
| 2025-04-27T16:24:00 | 54.037049 | 6.367379 | 2.0 | 9.092 | 2 | 35.339 | 9.303 | 32.825 | 2 |
| 2025-04-27T16:25:00 | 54.038316 | 6.367337 | 2.0 | 9.013 | 2 | 35.313 | 9.253 | 32.844 | 2 |
| 2025-04-27T16:26:00 | 54.039577 | 6.367356 | 2.0 | 9.081 | 2 | 35.274 | 9.201 | 32.852 | 2 |
| 2025-04-27T16:27:00 | 54.040816 | 6.367356 | 2.0 | 9.369 | 2 | 35.326 | 9.293 | 32.821 | 2 |
| 2025-04-27T16:28:00 | 54.042061 | 6.367297 | 2.0 | 9.452 | 2 | 35.520 | 9.527 | 32.806 | 2 |
| 2025-04-27T16:29:00 | 54.043304 | 6.367281 | 2.0 | 9.369 | 2 | 35.603 | 9.599 | 32.825 | 2 |
| 2025-04-27T16:30:00 | 54.044542 | 6.367279 | 2.0 | 9.201 | 2 | 35.559 | 9.510 | 32.861 | 2 |
| 2025-04-27T16:31:00 | 54.045775 | 6.367268 | 2.0 | 9.054 | 2 | 35.440 | 9.352 | 32.884 | 2 |
| 2025-04-27T16:32:00 | 54.047005 | 6.367214 | 2.0 | 8.824 | 2 | 35.318 | 9.193 | 32.905 | 2 |
| 2025-04-27T16:33:00 | 54.048231 | 6.367158 | 2.0 | 8.867 | 2 | 35.195 | 9.030 | 32.928 | 2 |
| 2025-04-27T16:34:00 | 54.049391 | 6.366694 | 2.0 | 8.912 | 2 | 35.209 | 9.057 | 32.917 | 2 |
| 2025-04-27T16:35:00 | 54.050401 | 6.365636 | 2.0 | 8.968 | 2 | 35.248 | 9.099 | 32.919 | 2 |
| 2025-04-27T16:36:00 | 54.051526 | 6.364861 | 2.0 | 8.988 | 2 | 35.273 | 9.132 | 32.914 | 2 |
| 2025-04-27T16:37:00 | 54.052655 | 6.365237 | 2.0 | 9.142 | 2 | 35.317 | 9.188 | 32.908 | 2 |
| 2025-04-27T16:38:00 | 54.053366 | 6.366742 | 2.0 | 9.313 | 2 | 35.463 | 9.336 | 32.923 | 2 |
| 2025-04-27T16:39:00 | 54.053317 | 6.368682 | 2.0 | 9.282 | 2 | 35.575 | 9.461 | 32.923 | 2 |
| 2025-04-27T16:40:00 | 54.052513 | 6.370158 | 2.0 | 9.173 | 2 | 35.563 | 9.444 | 32.926 | 2 |
| 2025-04-27T16:41:00 | 54.051269 | 6.370625 | 2.0 | 9.127 | 2 | 35.480 | 9.351 | 32.926 | 2 |
| 2025-04-27T16:42:00 | 54.049965 | 6.370664 | 2.0 | 9.314 | 2 | 35.437 | 9.330 | 32.901 | 2 |
| 2025-04-27T16:43:00 | 54.048739 | 6.370831 | 2.0 | 9.070 | 2 | 35.532 | 9.446 | 32.892 | 2 |
| 2025-04-27T16:44:00 | 54.047555 | 6.370855 | 2.0 | 8.881 | 2 | 35.355 | 9.205 | 32.932 | 2 |
| 2025-04-27T16:45:00 | 54.046395 | 6.370800 | 2.0 | 9.067 | 2 | 35.206 | 9.052 | 32.919 | 2 |
| 2025-04-27T16:46:00 | 54.045259 | 6.370873 | 2.0 | 9.393 | 2 | 35.411 | 9.358 | 32.849 | 2 |
| 2025-04-27T16:47:00 | 54.044137 | 6.370979 | 2.0 | 9.398 | 2 | 35.587 | 9.541 | 32.862 | 2 |
| 2025-04-27T16:48:00 | 54.043017 | 6.371027 | 2.0 | 9.259 | 2 | 35.581 | 9.534 | 32.862 | 2 |
| 2025-04-27T16:49:00 | 54.041870 | 6.371027 | 2.0 | 9.459 | 2 | 35.535 | 9.505 | 32.841 | 2 |
| 2025-04-27T16:50:00 | 54.040715 | 6.371016 | 2.0 | 9.412 | 2 | 35.598 | 9.601 | 32.818 | 2 |
| 2025-04-27T16:51:00 | 54.039543 | 6.371036 | 2.0 | 9.222 | 2 | 35.570 | 9.567 | 32.821 | 2 |
| 2025-04-27T16:52:00 | 54.038364 | 6.371085 | 2.0 | 9.300 | 2 | 35.473 | 9.479 | 32.802 | 2 |
| 2025-04-27T16:53:00 | 54.037215 | 6.371310 | 2.0 | 9.331 | 2 | 35.498 | 9.491 | 32.816 | 2 |
| 2025-04-27T16:54:00 | 54.036183 | 6.372087 | 2.0 | 9.397 | 2 | 35.516 | 9.512 | 32.815 | 2 |
| 2025-04-27T16:55:00 | 54.035022 | 6.372310 | 2.0 | 9.206 | 2 | 35.533 | 9.541 | 32.806 | 2 |
| 2025-04-27T16:56:00 | 54.034058 | 6.371219 | 2.0 | 8.860 | 2 | 35.319 | 9.282 | 32.824 | 2 |
| 2025-04-27T16:57:00 | 54.033795 | 6.369252 | 2.0 | 8.830 | 2 | 35.073 | 9.039 | 32.793 | 2 |
| 2025-04-27T16:58:00 | 54.034412 | 6.367446 | 2.0 | 9.126 | 2 | 35.073 | 9.071 | 32.763 | 2 |
| 2025-04-27T16:59:00 | 54.035524 | 6.366761 | 2.0 | 9.018 | 2 | 35.246 | 9.242 | 32.785 | 2 |
| 2025-04-27T17:00:00 | 54.036752 | 6.366548 | 2.0 | 9.007 | 2 | 35.215 | 9.181 | 32.809 | 2 |
| 2025-04-27T17:01:00 | 54.037992 | 6.366419 | 2.0 | 9.174 | 2 | 35.250 | 9.223 | 32.807 | 2 |
| 2025-04-27T17:02:00 | 54.039226 | 6.366406 | 2.0 | 9.305 | 2 | 35.367 | 9.347 | 32.813 | 2 |
| 2025-04-27T17:03:00 | 54.040460 | 6.366371 | 2.0 | 9.118 | 2 | 35.484 | 9.468 | 32.823 | 2 |
| 2025-04-27T17:04:00 | 54.041688 | 6.366339 | 2.0 | 9.073 | 2 | 35.334 | 9.257 | 32.862 | 2 |
| 2025-04-27T17:05:00 | 54.042910 | 6.366324 | 2.0 | 9.269 | 2 | 35.336 | 9.290 | 32.834 | 2 |
| 2025-04-27T17:06:00 | 54.044137 | 6.366294 | 2.0 | 9.294 | 2 | 35.473 | 9.446 | 32.832 | 2 |
| 2025-04-27T17:07:00 | 54.045364 | 6.366262 | 2.0 | 9.317 | 2 | 35.509 | 9.465 | 32.851 | 2 |
| 2025-04-27T17:08:00 | 54.046592 | 6.366244 | 2.0 | 9.415 | 2 | 35.517 | 9.482 | 32.844 | 2 |
| 2025-04-27T17:09:00 | 54.047819 | 6.366229 | 2.0 | 9.535 | 2 | 35.606 | 9.611 | 32.817 | 2 |
| 2025-04-27T17:10:00 | 54.049025 | 6.366102 | 2.0 | 9.517 | 2 | 35.704 | 9.700 | 32.836 | 2 |
| 2025-04-27T17:11:00 | 54.050058 | 6.365375 | 2.0 | 9.487 | 2 | 35.691 | 9.656 | 32.863 | 2 |
| 2025-04-27T17:12:00 | 54.051116 | 6.364639 | 2.0 | 9.265 | 2 | 35.660 | 9.610 | 32.873 | 2 |
| 2025-04-27T17:13:00 | 54.052324 | 6.364977 | 2.0 | 9.068 | 2 | 35.553 | 9.468 | 32.894 | 2 |
| 2025-04-27T17:14:00 | 54.053092 | 6.366582 | 2.0 | 9.031 | 2 | 35.347 | 9.201 | 32.927 | 2 |
| 2025-04-27T17:15:00 | 54.052967 | 6.368506 | 2.0 | 8.826 | 2 | 35.273 | 9.133 | 32.913 | 2 |
| 2025-04-27T17:16:00 | 54.052116 | 6.369541 | 2.0 | 8.899 | 2 | 35.169 | 9.007 | 32.922 | 2 |
| 2025-04-27T17:17:00 | 54.050924 | 6.369650 | 2.0 | 9.148 | 2 | 35.225 | 9.124 | 32.872 | 2 |
| 2025-04-27T17:18:00 | 54.049592 | 6.369637 | 2.0 | 9.445 | 2 | 35.223 | 9.403 | 32.614 | 2 |
| 2025-04-27T17:19:00 | 54.048293 | 6.369816 | 2.0 | 9.483 | 2 | 35.577 | 9.605 | 32.793 | 2 |
| 2025-04-27T17:20:00 | 54.047087 | 6.369832 | 2.0 | 9.352 | 2 | 35.637 | 9.619 | 32.842 | 2 |
| 2025-04-27T17:21:00 | 54.045939 | 6.369850 | 2.0 | 9.335 | 2 | 35.550 | 9.521 | 32.842 | 2 |
| 2025-04-27T17:22:00 | 54.044824 | 6.369923 | 2.0 | 9.250 | 2 | 35.525 | 9.490 | 32.845 | 2 |
| 2025-04-27T17:23:00 | 54.043729 | 6.370007 | 2.0 | 9.183 | 2 | 35.456 | 9.397 | 32.859 | 2 |
| 2025-04-27T17:24:00 | 54.042611 | 6.370057 | 2.0 | 9.315 | 2 | 35.407 | 9.395 | 32.811 | 2 |
| 2025-04-27T17:25:00 | 54.041456 | 6.370057 | 2.0 | 9.269 | 2 | 35.482 | 9.467 | 32.822 | 2 |
| 2025-04-27T17:26:00 | 54.040268 | 6.370047 | 2.0 | 9.123 | 2 | 35.425 | 9.408 | 32.817 | 2 |
| 2025-04-27T17:27:00 | 54.039066 | 6.370033 | 2.0 | 9.068 | 2 | 35.098 | 9.284 | 32.594 | 2 |
| 2025-04-27T17:28:00 | 54.037848 | 6.370070 | 2.0 | 9.293 | 2 | 35.047 | 9.265 | 32.558 | 2 |
| 2025-04-27T17:29:00 | 54.036620 | 6.370124 | 2.0 | 9.229 | 2 | 35.417 | 9.447 | 32.773 | 2 |
| 2025-04-27T17:30:00 | 54.035395 | 6.370148 | 2.0 | 9.173 | 2 | 35.149 | 9.384 | 32.555 | 2 |
| 2025-04-27T17:31:00 | 54.034207 | 6.369881 | 2.0 | 9.261 | 2 | 35.152 | 9.346 | 32.593 | 2 |
| 2025-04-27T17:32:00 | 54.033051 | 6.369423 | 2.0 | 9.165 | 2 | 35.005 | 9.414 | 32.380 | 2 |
| 2025-04-27T17:33:00 | 54.031897 | 6.368948 | 2.0 | 9.014 | 2 | 35.282 | 9.311 | 32.759 | 2 |
| 2025-04-27T17:34:00 | 54.030752 | 6.368344 | 2.0 | 8.934 | 2 | 35.061 | 9.179 | 32.651 | 2 |
| 2025-04-27T17:35:00 | 54.029592 | 6.367102 | 2.0 | 9.280 | 2 | 35.164 | 9.153 | 32.782 | 2 |
| 2025-04-27T17:36:00 | 54.028345 | 6.365581 | 2.0 | 9.294 | 2 | 35.018 | 9.390 | 32.415 | 2 |
| 2025-04-27T17:37:00 | 54.026961 | 6.364097 | 2.0 | 9.314 | 2 | 35.457 | 9.485 | 32.780 | 2 |
| 2025-04-27T17:38:00 | 54.025549 | 6.362554 | 2.0 | 9.520 | 2 | 35.529 | 9.560 | 32.785 | 2 |
| 2025-04-27T17:39:00 | 54.024137 | 6.360959 | 2.0 | 9.280 | 2 | 35.620 | 9.648 | 32.798 | 2 |
| 2025-04-27T17:40:00 | 54.022728 | 6.359355 | 2.0 | 9.044 | 2 | 35.141 | 9.405 | 32.528 | 2 |
| 2025-04-27T17:41:00 | 54.021331 | 6.357719 | 2.0 | 8.978 | 2 | 35.057 | 9.209 | 32.620 | 2 |
| 2025-04-27T17:42:00 | 54.019914 | 6.356116 | 2.0 | 9.227 | 2 | 34.823 | 9.167 | 32.416 | 2 |
| 2025-04-27T17:43:00 | 54.018496 | 6.354514 | 2.0 | 9.330 | 2 | 35.039 | 9.448 | 32.384 | 2 |
| 2025-04-27T17:44:00 | 54.017073 | 6.352942 | 2.0 | 9.272 | 2 | 35.327 | 9.480 | 32.651 | 2 |
| 2025-04-27T17:45:00 | 54.015670 | 6.351342 | 2.0 | 9.233 | 2 | 35.320 | 9.434 | 32.685 | 2 |
| 2025-04-27T17:46:00 | 54.014282 | 6.349720 | 2.0 | 9.193 | 2 | 35.289 | 9.394 | 32.690 | 2 |
| 2025-04-27T17:47:00 | 54.012897 | 6.348099 | 2.0 | 9.177 | 2 | 35.174 | 9.358 | 32.605 | 2 |
| 2025-04-27T17:48:00 | 54.011486 | 6.346530 | 2.0 | 9.309 | 2 | 35.346 | 9.391 | 32.751 | 2 |
| 2025-04-27T17:49:00 | 54.010082 | 6.344947 | 2.0 | 9.379 | 2 | 35.392 | 9.493 | 32.706 | 2 |
| 2025-04-27T17:50:00 | 54.008683 | 6.343353 | 2.0 | 9.267 | 2 | 35.313 | 9.509 | 32.610 | 2 |
| 2025-04-27T17:51:00 | 54.007286 | 6.341756 | 2.0 | 9.229 | 2 | 35.439 | 9.442 | 32.800 | 2 |
| 2025-04-27T17:52:00 | 54.005886 | 6.340150 | 2.0 | 9.133 | 2 | 35.205 | 9.387 | 32.610 | 2 |
| 2025-04-27T17:53:00 | 54.004472 | 6.338554 | 2.0 | 9.198 | 2 | 35.258 | 9.327 | 32.719 | 2 |
| 2025-04-27T17:54:00 | 54.003060 | 6.336961 | 2.0 | 9.226 | 2 | 35.303 | 9.392 | 32.706 | 2 |
| 2025-04-27T17:55:00 | 54.001648 | 6.335361 | 2.0 | 9.098 | 2 | 35.306 | 9.365 | 32.734 | 2 |
| 2025-04-27T17:56:00 | 54.000251 | 6.333740 | 2.0 | 9.038 | 2 | 35.199 | 9.245 | 32.734 | 2 |
| 2025-04-27T17:57:00 | 53.998931 | 6.331959 | 2.0 | 9.053 | 2 | 35.138 | 9.257 | 32.660 | 2 |
| 2025-04-27T17:58:00 | 53.997647 | 6.330120 | 2.0 | 8.942 | 2 | 35.248 | 9.220 | 32.807 | 2 |
| 2025-04-27T17:59:00 | 53.996338 | 6.328332 | 2.0 | 9.054 | 2 | 35.133 | 9.145 | 32.757 | 2 |
| 2025-04-27T18:00:00 | 53.995014 | 6.326568 | 2.0 | 9.075 | 2 | 35.243 | 9.227 | 32.796 | 2 |
| 2025-04-27T18:01:00 | 53.993688 | 6.324804 | 2.0 | 9.124 | 2 | 34.922 | 9.222 | 32.469 | 2 |
| 2025-04-27T18:02:00 | 53.992374 | 6.322992 | 2.0 | 9.335 | 2 | 35.159 | 9.297 | 32.645 | 2 |
| 2025-04-27T18:03:00 | 53.991070 | 6.321177 | 2.0 | 9.331 | 2 | 35.182 | 9.477 | 32.504 | 2 |
| 2025-04-27T18:04:00 | 53.989755 | 6.319387 | 2.0 | 9.472 | 2 | 35.313 | 9.511 | 32.608 | 2 |
| 2025-04-27T18:05:00 | 53.988448 | 6.317583 | 2.0 | 9.489 | 2 | 35.532 | 9.638 | 32.717 | 2 |
| 2025-04-27T18:06:00 | 53.987141 | 6.315782 | 2.0 | 9.553 | 2 | 35.652 | 9.669 | 32.811 | 2 |
| 2025-04-27T18:07:00 | 53.985855 | 6.313970 | 2.0 | 9.628 | 2 | 35.820 | 9.728 | 32.929 | 2 |
| 2025-04-27T18:08:00 | 53.984570 | 6.312182 | 2.0 | 9.899 | 2 | 35.891 | 9.846 | 32.894 | 2 |
| 2025-04-27T18:09:00 | 53.983278 | 6.310422 | 2.0 | 9.791 | 2 | 36.038 | 10.038 | 32.868 | 2 |
| 2025-04-27T18:10:00 | 53.981967 | 6.308703 | 2.0 | 9.750 | 2 | 35.981 | 9.920 | 32.918 | 2 |
| 2025-04-27T18:11:00 | 53.980688 | 6.306927 | 2.0 | 9.873 | 2 | 35.987 | 9.961 | 32.887 | 2 |
| 2025-04-27T18:12:00 | 53.979414 | 6.305150 | 2.0 | 9.882 | 2 | 36.045 | 10.032 | 32.881 | 2 |
| 2025-04-27T18:13:00 | 53.978121 | 6.303423 | 2.0 | 9.768 | 2 | 36.046 | 10.000 | 32.911 | 2 |
| 2025-04-27T18:14:00 | 53.976828 | 6.301689 | 2.0 | 9.617 | 2 | 35.989 | 9.901 | 32.943 | 2 |
| 2025-04-27T18:15:00 | 53.975548 | 6.299924 | 2.0 | 9.568 | 2 | 35.927 | 9.798 | 32.974 | 2 |
| 2025-04-27T18:16:00 | 53.974264 | 6.298154 | 2.0 | 9.401 | 2 | 35.890 | 9.723 | 33.005 | 2 |
| 2025-04-27T18:17:00 | 53.972960 | 6.296413 | 2.0 | 9.462 | 2 | 35.812 | 9.613 | 33.026 | 2 |
| 2025-04-27T18:18:00 | 53.971659 | 6.294661 | 2.0 | 9.503 | 2 | 35.810 | 9.616 | 33.022 | 2 |
| 2025-04-27T18:19:00 | 53.970379 | 6.292871 | 2.0 | 9.567 | 2 | 35.859 | 9.697 | 32.997 | 2 |
| 2025-04-27T18:20:00 | 53.969108 | 6.291072 | 2.0 | 9.638 | 2 | 35.889 | 9.728 | 33.000 | 2 |
| 2025-04-27T18:21:00 | 53.967815 | 6.289321 | 2.0 | 9.599 | 2 | 35.933 | 9.783 | 32.994 | 2 |
| 2025-04-27T18:22:00 | 53.966523 | 6.287579 | 2.0 | 9.495 | 2 | 35.909 | 9.750 | 33.000 | 2 |
| 2025-04-27T18:23:00 | 53.965236 | 6.285818 | 2.0 | 9.481 | 2 | 35.824 | 9.642 | 33.012 | 2 |
| 2025-04-27T18:24:00 | 53.963953 | 6.284029 | 2.0 | 9.450 | 2 | 35.808 | 9.651 | 32.987 | 2 |
| 2025-04-27T18:25:00 | 53.962645 | 6.282290 | 2.0 | 9.327 | 2 | 35.746 | 9.556 | 33.011 | 2 |
| 2025-04-27T18:26:00 | 53.961351 | 6.280537 | 2.0 | 9.362 | 2 | 35.674 | 9.490 | 32.998 | 2 |
| 2025-04-27T18:27:00 | 53.960072 | 6.278763 | 2.0 | 9.292 | 2 | 35.683 | 9.506 | 32.993 | 2 |
| 2025-04-27T18:28:00 | 53.958786 | 6.276999 | 2.0 | 9.329 | 2 | 35.479 | 9.476 | 32.810 | 2 |
| 2025-04-27T18:29:00 | 53.957498 | 6.275240 | 2.0 | 9.226 | 2 | 35.393 | 9.490 | 32.709 | 2 |
| 2025-04-27T18:30:00 | 53.956212 | 6.273475 | 2.0 | 9.230 | 2 | 35.595 | 9.418 | 32.983 | 2 |
| 2025-04-27T18:31:00 | 53.954939 | 6.271699 | 2.0 | 9.229 | 2 | 35.573 | 9.408 | 32.970 | 2 |
| 2025-04-27T18:32:00 | 53.953645 | 6.269962 | 2.0 | 9.126 | 2 | 35.546 | 9.370 | 32.977 | 2 |
| 2025-04-27T18:33:00 | 53.952349 | 6.268216 | 2.0 | 9.167 | 2 | 35.270 | 9.317 | 32.741 | 2 |
| 2025-04-27T18:34:00 | 53.951082 | 6.266430 | 2.0 | 9.506 | 2 | 35.494 | 9.356 | 32.936 | 2 |
| 2025-04-27T18:35:00 | 53.949835 | 6.264637 | 2.0 | 9.571 | 2 | 35.719 | 9.710 | 32.842 | 2 |
| 2025-04-27T18:36:00 | 53.948546 | 6.262931 | 2.0 | 9.604 | 2 | 35.502 | 9.724 | 32.608 | 2 |
| 2025-04-27T18:37:00 | 53.947261 | 6.261228 | 2.0 | 9.730 | 2 | 35.759 | 9.788 | 32.812 | 2 |
| 2025-04-27T18:38:00 | 53.945992 | 6.259529 | 2.0 | 9.846 | 2 | 35.175 | 9.893 | 32.123 | 2 |
| 2025-04-27T18:39:00 | 53.944782 | 6.257763 | 2.0 | 9.861 | 2 | 35.849 | 10.037 | 32.678 | 2 |
| 2025-04-27T18:40:00 | 53.943557 | 6.256030 | 2.0 | 9.684 | 2 | 35.669 | 10.002 | 32.527 | 2 |
| 2025-04-27T18:41:00 | 53.942307 | 6.254350 | 2.0 | 9.437 | 2 | 35.667 | 9.801 | 32.706 | 2 |
| 2025-04-27T18:42:00 | 53.941058 | 6.252670 | 2.0 | 9.400 | 2 | 35.442 | 9.610 | 32.650 | 2 |
| 2025-04-27T18:43:00 | 53.939820 | 6.250991 | 2.0 | 9.440 | 2 | 35.065 | 9.574 | 32.297 | 2 |
| 2025-04-27T18:44:00 | 53.938582 | 6.249301 | 2.0 | 9.402 | 2 | 35.109 | 9.604 | 32.315 | 2 |
| 2025-04-27T18:45:00 | 53.937354 | 6.247598 | 2.0 | 9.287 | 2 | 34.989 | 9.542 | 32.248 | 2 |
| 2025-04-27T18:46:00 | 53.936130 | 6.245890 | 2.0 | 9.349 | 2 | 34.981 | 9.471 | 32.304 | 2 |
| 2025-04-27T18:47:00 | 53.934897 | 6.244196 | 2.0 | 9.323 | 2 | 35.383 | 9.515 | 32.676 | 2 |
| 2025-04-27T18:48:00 | 53.933657 | 6.242513 | 2.0 | 9.250 | 2 | 35.269 | 9.494 | 32.578 | 2 |
| 2025-04-27T18:49:00 | 53.932432 | 6.240808 | 2.0 | 9.348 | 2 | 35.160 | 9.432 | 32.523 | 2 |
| 2025-04-27T18:50:00 | 53.931212 | 6.239092 | 2.0 | 9.417 | 2 | 35.110 | 9.522 | 32.390 | 2 |
| 2025-04-27T18:51:00 | 53.929966 | 6.237409 | 2.0 | 9.513 | 2 | 35.333 | 9.613 | 32.536 | 2 |
| 2025-04-27T18:52:00 | 53.928710 | 6.235733 | 2.0 | 9.435 | 2 | 35.450 | 9.650 | 32.622 | 2 |
| 2025-04-27T18:53:00 | 53.927456 | 6.234045 | 2.0 | 9.410 | 2 | 35.415 | 9.587 | 32.643 | 2 |
| 2025-04-27T18:54:00 | 53.926207 | 6.232325 | 2.0 | 9.333 | 2 | 35.318 | 9.551 | 32.577 | 2 |
| 2025-04-27T18:55:00 | 53.924940 | 6.230595 | 2.0 | 9.189 | 2 | 35.115 | 9.491 | 32.423 | 2 |
| 2025-04-27T18:56:00 | 53.923652 | 6.228875 | 2.0 | 9.049 | 2 | 35.127 | 9.330 | 32.582 | 2 |
| 2025-04-27T18:57:00 | 53.922362 | 6.227122 | 2.0 | 8.987 | 2 | 35.127 | 9.221 | 32.681 | 2 |
| 2025-04-27T18:58:00 | 53.921075 | 6.225323 | 2.0 | 8.936 | 2 | 35.145 | 9.148 | 32.767 | 2 |
| 2025-04-27T18:59:00 | 53.919767 | 6.223529 | 2.0 | 8.893 | 2 | 35.086 | 9.111 | 32.740 | 2 |
| 2025-04-27T19:00:00 | 53.918434 | 6.221739 | 2.0 | 8.889 | 2 | 35.254 | 9.068 | 32.954 | 2 |
| 2025-04-27T19:01:00 | 53.917107 | 6.219921 | 2.0 | 8.817 | 2 | 34.925 | 9.044 | 32.634 | 2 |
| 2025-04-27T19:02:00 | 53.915775 | 6.218101 | 2.0 | 8.772 | 2 | 35.176 | 8.989 | 32.946 | 2 |
| 2025-04-27T19:03:00 | 53.914429 | 6.216310 | 2.0 | 8.742 | 2 | 35.075 | 8.934 | 32.892 | 2 |
| 2025-04-27T19:04:00 | 53.913040 | 6.214552 | 2.0 | 8.730 | 2 | 34.991 | 8.918 | 32.819 | 2 |
| 2025-04-27T19:05:00 | 53.911709 | 6.212698 | 2.0 | 8.712 | 2 | 34.988 | 8.900 | 32.832 | 2 |
| 2025-04-27T19:06:00 | 53.910393 | 6.210824 | 2.0 | 8.700 | 2 | 34.967 | 8.883 | 32.826 | 2 |
| 2025-04-27T19:07:00 | 53.909036 | 6.209008 | 2.0 | 8.698 | 2 | 34.904 | 8.869 | 32.774 | 2 |
| 2025-04-27T19:08:00 | 53.907692 | 6.207177 | 2.0 | 8.786 | 2 | 35.005 | 8.886 | 32.863 | 2 |
| 2025-04-27T19:09:00 | 53.906387 | 6.205330 | 2.0 | 9.227 | 2 | 35.137 | 9.048 | 32.851 | 2 |
| 2025-04-27T19:10:00 | 53.905048 | 6.203611 | 2.0 | 9.255 | 2 | 35.228 | 9.364 | 32.655 | 2 |
| 2025-04-27T19:11:00 | 53.903478 | 6.202423 | 2.0 | 9.270 | 2 | 35.311 | 9.402 | 32.705 | 2 |
| 2025-04-27T19:12:00 | 53.901930 | 6.201156 | 2.0 | 9.314 | 2 | 35.386 | 9.453 | 32.736 | 2 |
| 2025-04-27T19:13:00 | 53.900417 | 6.199814 | 2.0 | 9.302 | 2 | 35.402 | 9.475 | 32.732 | 2 |
| 2025-04-27T19:14:00 | 53.898815 | 6.198754 | 2.0 | 9.288 | 2 | 35.326 | 9.466 | 32.662 | 2 |
| 2025-04-27T19:15:00 | 53.897061 | 6.198258 | 2.0 | 9.226 | 2 | 35.334 | 9.449 | 32.686 | 2 |
| 2025-04-27T19:16:00 | 53.895572 | 6.199798 | 2.0 | 9.220 | 2 | 35.318 | 9.395 | 32.719 | 2 |
| 2025-04-27T19:17:00 | 53.895349 | 6.202780 | 2.0 | 9.242 | 2 | 35.317 | 9.380 | 32.732 | 2 |
| 2025-04-27T19:18:00 | 53.895528 | 6.205891 | 2.0 | 9.290 | 2 | 35.331 | 9.410 | 32.719 | 2 |
| 2025-04-27T19:19:00 | 53.895626 | 6.208910 | 2.0 | 9.303 | 2 | 35.352 | 9.454 | 32.700 | 2 |
| 2025-04-27T19:20:00 | 53.895719 | 6.211768 | 2.0 | 9.302 | 2 | 35.394 | 9.474 | 32.725 | 2 |
| 2025-04-27T19:21:00 | 53.895707 | 6.214504 | 2.0 | 9.288 | 2 | 35.425 | 9.469 | 32.761 | 2 |
| 2025-04-27T19:22:00 | 53.895651 | 6.217155 | 2.0 | 9.289 | 2 | 35.409 | 9.450 | 32.762 | 2 |
| 2025-04-27T19:23:00 | 53.895626 | 6.219760 | 2.0 | 9.272 | 2 | 35.444 | 9.457 | 32.792 | 2 |
| 2025-04-27T19:24:00 | 53.895625 | 6.222332 | 2.0 | 9.244 | 2 | 35.410 | 9.427 | 32.784 | 2 |
| 2025-04-27T19:25:00 | 53.895633 | 6.224875 | 2.0 | 9.256 | 2 | 35.402 | 9.406 | 32.795 | 2 |
| 2025-04-27T19:26:00 | 53.895650 | 6.227402 | 2.0 | 9.238 | 2 | 35.412 | 9.417 | 32.796 | 2 |
| 2025-04-27T19:27:00 | 53.895661 | 6.229917 | 2.0 | 9.265 | 2 | 35.402 | 9.415 | 32.787 | 2 |
| 2025-04-27T19:28:00 | 53.895678 | 6.232428 | 2.0 | 9.264 | 2 | 35.436 | 9.427 | 32.811 | 2 |
| 2025-04-27T19:29:00 | 53.895691 | 6.234935 | 2.0 | 9.287 | 2 | 35.453 | 9.439 | 32.818 | 2 |
| 2025-04-27T19:30:00 | 53.895700 | 6.237441 | 2.0 | 9.303 | 2 | 35.449 | 9.445 | 32.808 | 2 |
| 2025-04-27T19:31:00 | 53.895688 | 6.239941 | 2.0 | 8.978 | 2 | 35.432 | 9.458 | 32.779 | 2 |
| 2025-04-27T19:32:00 | 53.895623 | 6.242426 | 2.0 | 8.780 | 2 | 35.165 | 9.076 | 32.854 | 2 |
| 2025-04-27T19:33:00 | 53.895625 | 6.244896 | 2.0 | 8.749 | 2 | 35.118 | 8.957 | 32.915 | 2 |
| 2025-04-27T19:34:00 | 53.895682 | 6.247368 | 2.0 | 8.746 | 2 | 35.110 | 8.926 | 32.936 | 2 |
| 2025-04-27T19:35:00 | 53.895730 | 6.249858 | 2.0 | 8.733 | 2 | 35.065 | 8.913 | 32.901 | 2 |
| 2025-04-27T19:36:00 | 53.895739 | 6.252354 | 2.0 | 8.658 | 2 | 35.084 | 8.894 | 32.938 | 2 |
| 2025-04-27T19:37:00 | 53.895705 | 6.254841 | 2.0 | 8.673 | 2 | 35.054 | 8.842 | 32.955 | 2 |
| 2025-04-27T19:38:00 | 53.895697 | 6.257315 | 2.0 | 8.701 | 2 | 35.079 | 8.854 | 32.970 | 2 |
| 2025-04-27T19:39:00 | 53.895701 | 6.259787 | 2.0 | 8.719 | 2 | 35.094 | 8.874 | 32.967 | 2 |
| 2025-04-27T19:40:00 | 53.895739 | 6.262256 | 2.0 | 8.730 | 2 | 35.114 | 8.901 | 32.963 | 2 |
| 2025-04-27T19:41:00 | 53.895748 | 6.264717 | 2.0 | 8.714 | 2 | 35.131 | 8.902 | 32.980 | 2 |
| 2025-04-27T19:42:00 | 53.895735 | 6.267183 | 2.0 | 8.774 | 2 | 35.135 | 8.898 | 32.988 | 2 |
| 2025-04-27T19:43:00 | 53.895728 | 6.269630 | 2.0 | 8.820 | 2 | 35.170 | 8.944 | 32.981 | 2 |
| 2025-04-27T19:44:00 | 53.895732 | 6.272083 | 2.0 | 8.803 | 2 | 35.201 | 8.982 | 32.978 | 2 |
| 2025-04-27T19:45:00 | 53.895749 | 6.274532 | 2.0 | 8.832 | 2 | 35.203 | 8.990 | 32.973 | 2 |
| 2025-04-27T19:46:00 | 53.895758 | 6.276974 | 2.0 | 8.807 | 2 | 35.211 | 8.993 | 32.979 | 2 |
| 2025-04-27T19:47:00 | 53.895756 | 6.279407 | 2.0 | 8.821 | 2 | 35.196 | 8.989 | 32.967 | 2 |
| 2025-04-27T19:48:00 | 53.895758 | 6.281842 | 2.0 | 8.717 | 2 | 35.182 | 8.961 | 32.978 | 2 |
| 2025-04-27T19:49:00 | 53.895769 | 6.284261 | 2.0 | 8.757 | 2 | 35.124 | 8.898 | 32.976 | 2 |
| 2025-04-27T19:50:00 | 53.895795 | 6.286666 | 2.0 | 8.843 | 2 | 35.154 | 8.952 | 32.957 | 2 |
| 2025-04-27T19:51:00 | 53.895789 | 6.289066 | 2.0 | 8.897 | 2 | 35.200 | 9.007 | 32.954 | 2 |
| 2025-04-27T19:52:00 | 53.895788 | 6.291467 | 2.0 | 8.844 | 2 | 35.255 | 9.081 | 32.943 | 2 |
| 2025-04-27T19:53:00 | 53.895781 | 6.293866 | 2.0 | 8.693 | 2 | 35.162 | 8.962 | 32.956 | 2 |
| 2025-04-27T19:54:00 | 53.895764 | 6.296262 | 2.0 | 8.698 | 2 | 35.066 | 8.870 | 32.942 | 2 |
| 2025-04-27T19:55:00 | 53.895759 | 6.298667 | 2.0 | 8.761 | 2 | 35.069 | 8.885 | 32.931 | 2 |
| 2025-04-27T19:56:00 | 53.895779 | 6.301073 | 2.0 | 8.757 | 2 | 35.099 | 8.925 | 32.925 | 2 |
| 2025-04-27T19:57:00 | 53.895949 | 6.303467 | 2.0 | 8.754 | 2 | 35.079 | 8.914 | 32.914 | 2 |
| 2025-04-27T19:58:00 | 53.896493 | 6.305712 | 2.0 | 8.745 | 2 | 35.072 | 8.917 | 32.904 | 2 |
| 2025-04-27T19:59:00 | 53.897373 | 6.307594 | 2.0 | 8.810 | 2 | 35.081 | 8.949 | 32.884 | 2 |
| 2025-04-27T20:00:00 | 53.898459 | 6.309297 | 2.0 | 8.858 | 2 | 35.109 | 8.996 | 32.870 | 2 |
| 2025-04-27T20:01:00 | 53.899639 | 6.311198 | 2.0 | 8.898 | 2 | 35.137 | 9.037 | 32.861 | 2 |
| 2025-04-27T20:02:00 | 53.900933 | 6.312993 | 2.0 | 8.990 | 2 | 35.151 | 9.072 | 32.843 | 2 |
| 2025-04-27T20:03:00 | 53.902394 | 6.314014 | 2.0 | 8.994 | 2 | 35.187 | 9.132 | 32.825 | 2 |
| 2025-04-27T20:04:00 | 53.903906 | 6.314430 | 2.0 | 9.027 | 2 | 35.219 | 9.186 | 32.809 | 2 |
| 2025-04-27T20:05:00 | 53.905434 | 6.314491 | 2.0 | 8.986 | 2 | 35.209 | 9.180 | 32.804 | 2 |
| 2025-04-27T20:06:00 | 53.906997 | 6.314624 | 2.0 | 8.963 | 2 | 35.193 | 9.162 | 32.804 | 2 |
| 2025-04-27T20:07:00 | 53.908596 | 6.314782 | 2.0 | 9.024 | 2 | 35.181 | 9.157 | 32.796 | 2 |
| 2025-04-27T20:08:00 | 53.910198 | 6.314891 | 2.0 | 8.968 | 2 | 35.208 | 9.187 | 32.796 | 2 |
| 2025-04-27T20:09:00 | 53.911816 | 6.314989 | 2.0 | 8.958 | 2 | 35.181 | 9.159 | 32.794 | 2 |
| 2025-04-27T20:10:00 | 53.913452 | 6.315111 | 2.0 | 8.944 | 2 | 35.142 | 9.126 | 32.784 | 2 |
| 2025-04-27T20:11:00 | 53.915078 | 6.315213 | 2.0 | 8.988 | 2 | 35.146 | 9.140 | 32.775 | 2 |
| 2025-04-27T20:12:00 | 53.916697 | 6.315289 | 2.0 | 8.976 | 2 | 35.169 | 9.166 | 32.775 | 2 |
| 2025-04-27T20:13:00 | 53.918323 | 6.315374 | 2.0 | 8.990 | 2 | 35.156 | 9.149 | 32.777 | 2 |
| 2025-04-27T20:14:00 | 53.919952 | 6.315483 | 2.0 | 9.025 | 2 | 35.165 | 9.166 | 32.771 | 2 |
| 2025-04-27T20:15:00 | 53.921592 | 6.315618 | 2.0 | 9.007 | 2 | 35.194 | 9.198 | 32.772 | 2 |
| 2025-04-27T20:16:00 | 53.923225 | 6.315717 | 2.0 | 9.048 | 2 | 35.206 | 9.210 | 32.773 | 2 |
| 2025-04-27T20:17:00 | 53.924704 | 6.315264 | 2.0 | 8.995 | 2 | 35.216 | 9.209 | 32.784 | 2 |
| 2025-04-27T20:18:00 | 53.925788 | 6.314053 | 2.0 | 8.954 | 2 | 35.191 | 9.172 | 32.792 | 2 |
| 2025-04-27T20:19:00 | 53.926514 | 6.312432 | 2.0 | 8.964 | 2 | 35.158 | 9.136 | 32.791 | 2 |
| 2025-04-27T20:20:00 | 53.927048 | 6.310638 | 2.0 | 8.917 | 2 | 35.166 | 9.134 | 32.801 | 2 |
| 2025-04-27T20:21:00 | 53.927471 | 6.308759 | 2.0 | 8.964 | 2 | 35.144 | 9.108 | 32.803 | 2 |
| 2025-04-27T20:22:00 | 53.927746 | 6.306816 | 2.0 | 8.974 | 2 | 35.184 | 9.149 | 32.806 | 2 |
| 2025-04-27T20:23:00 | 53.927796 | 6.304847 | 2.0 | 8.974 | 2 | 35.189 | 9.135 | 32.824 | 2 |
| 2025-04-27T20:24:00 | 53.927935 | 6.302879 | 2.0 | 8.928 | 2 | 35.214 | 9.151 | 32.836 | 2 |
| 2025-04-27T20:25:00 | 53.928095 | 6.300954 | 2.0 | 8.849 | 2 | 35.172 | 9.076 | 32.861 | 2 |
| 2025-04-27T20:26:00 | 53.927984 | 6.299005 | 2.0 | 8.799 | 2 | 35.128 | 9.018 | 32.869 | 2 |
| 2025-04-27T20:27:00 | 53.928088 | 6.296802 | 2.0 | 8.757 | 2 | 35.090 | 8.965 | 32.879 | 2 |
| 2025-04-27T20:28:00 | 53.928108 | 6.294412 | 2.0 | 8.726 | 2 | 35.059 | 8.922 | 32.886 | 2 |
| 2025-04-27T20:29:00 | 53.928053 | 6.291914 | 2.0 | 8.700 | 2 | 35.039 | 8.895 | 32.890 | 2 |
| 2025-04-27T20:30:00 | 53.928055 | 6.289348 | 2.0 | 8.679 | 2 | 35.020 | 8.870 | 32.894 | 2 |
| 2025-04-27T20:31:00 | 53.928079 | 6.286802 | 2.0 | 8.671 | 2 | 35.004 | 8.851 | 32.895 | 2 |
| 2025-04-27T20:32:00 | 53.928079 | 6.284312 | 2.0 | 8.664 | 2 | 34.999 | 8.842 | 32.898 | 2 |
| 2025-04-27T20:33:00 | 53.928062 | 6.281834 | 2.0 | 8.659 | 2 | 34.996 | 8.835 | 32.901 | 2 |
| 2025-04-27T20:34:00 | 53.928046 | 6.279363 | 2.0 | 8.647 | 2 | 34.999 | 8.830 | 32.909 | 2 |
| 2025-04-27T20:35:00 | 53.928044 | 6.276899 | 2.0 | 8.635 | 2 | 34.997 | 8.816 | 32.920 | 2 |
| 2025-04-27T20:36:00 | 53.928041 | 6.274423 | 2.0 | 8.624 | 2 | 34.993 | 8.804 | 32.927 | 2 |
| 2025-04-27T20:37:00 | 53.928063 | 6.271935 | 2.0 | 8.616 | 2 | 34.998 | 8.795 | 32.940 | 2 |
| 2025-04-27T20:38:00 | 53.928037 | 6.269452 | 2.0 | 8.621 | 2 | 35.001 | 8.788 | 32.950 | 2 |
| 2025-04-27T20:39:00 | 53.928046 | 6.266971 | 2.0 | 8.621 | 2 | 35.019 | 8.792 | 32.965 | 2 |
| 2025-04-27T20:40:00 | 53.928053 | 6.264500 | 2.0 | 8.622 | 2 | 34.975 | 8.793 | 32.918 | 2 |
| 2025-04-27T20:41:00 | 53.928016 | 6.262027 | 2.0 | 8.621 | 2 | 35.019 | 8.793 | 32.964 | 2 |
| 2025-04-27T20:42:00 | 53.928008 | 6.259565 | 2.0 | 8.620 | 2 | 35.048 | 8.791 | 32.996 | 2 |
| 2025-04-27T20:43:00 | 53.928028 | 6.257099 | 2.0 | 8.625 | 2 | 34.832 | 8.791 | 32.770 | 2 |
| 2025-04-27T20:44:00 | 53.928039 | 6.254660 | 2.0 | 8.627 | 2 | 34.539 | 8.795 | 32.461 | 2 |
| 2025-04-27T20:45:00 | 53.928046 | 6.252226 | 2.0 | 8.629 | 2 | 34.536 | 8.797 | 32.456 | 2 |
| 2025-04-27T20:46:00 | 53.928086 | 6.249817 | 2.0 | 8.650 | 2 | 35.063 | 8.799 | 33.005 | 2 |
| 2025-04-27T20:47:00 | 53.928103 | 6.247428 | 2.0 | 8.671 | 2 | 35.062 | 8.823 | 32.981 | 2 |
| 2025-04-27T20:48:00 | 53.928132 | 6.245059 | 2.0 | 8.818 | 2 | 34.555 | 8.852 | 32.425 | 2 |
| 2025-04-27T20:49:00 | 53.928171 | 6.242716 | 2.0 | 9.312 | 2 | 34.741 | 9.051 | 32.437 | 2 |
| 2025-04-27T20:50:00 | 53.928160 | 6.240408 | 2.0 | 9.230 | 2 | 35.366 | 9.424 | 32.742 | 2 |
| 2025-04-27T20:51:00 | 53.928075 | 6.238129 | 2.0 | 9.165 | 2 | 35.091 | 9.359 | 32.518 | 2 |
| 2025-04-27T20:52:00 | 53.928048 | 6.235830 | 2.0 | 9.173 | 2 | 35.430 | 9.333 | 32.891 | 2 |
| 2025-04-27T20:53:00 | 53.928064 | 6.233480 | 2.0 | 9.075 | 2 | 35.424 | 9.326 | 32.892 | 2 |
| 2025-04-27T20:54:00 | 53.928066 | 6.231099 | 2.0 | 9.038 | 2 | 34.992 | 9.241 | 32.524 | 2 |
| 2025-04-27T20:55:00 | 53.928057 | 6.228696 | 2.0 | 9.080 | 2 | 34.989 | 9.211 | 32.548 | 2 |
| 2025-04-27T20:56:00 | 53.928033 | 6.226271 | 2.0 | 9.020 | 2 | 35.086 | 9.230 | 32.631 | 2 |
| 2025-04-27T20:57:00 | 53.927991 | 6.223835 | 2.0 | 9.060 | 2 | 34.739 | 9.190 | 32.309 | 2 |
| 2025-04-27T20:58:00 | 53.927962 | 6.221391 | 2.0 | 9.211 | 2 | 35.195 | 9.261 | 32.715 | 2 |
| 2025-04-27T20:59:00 | 53.927964 | 6.218950 | 2.0 | 9.173 | 2 | 35.115 | 9.373 | 32.530 | 2 |
| 2025-04-27T21:00:00 | 53.927972 | 6.216513 | 2.0 | 9.022 | 2 | 35.160 | 9.309 | 32.635 | 2 |
| 2025-04-27T21:01:00 | 53.927974 | 6.214075 | 2.0 | 8.901 | 2 | 35.060 | 9.167 | 32.661 | 2 |
| 2025-04-27T21:02:00 | 53.927974 | 6.211621 | 2.0 | 8.825 | 2 | 35.066 | 9.057 | 32.769 | 2 |
| 2025-04-27T21:03:00 | 53.927971 | 6.209147 | 2.0 | 8.800 | 2 | 34.697 | 8.996 | 32.442 | 2 |
| 2025-04-27T21:04:00 | 53.927969 | 6.206648 | 2.0 | 8.757 | 2 | 34.958 | 8.961 | 32.745 | 2 |
| 2025-04-27T21:05:00 | 53.927988 | 6.204132 | 2.0 | 8.736 | 2 | 34.876 | 8.928 | 32.690 | 2 |
| 2025-04-27T21:06:00 | 53.928005 | 6.201594 | 2.0 | 8.698 | 2 | 34.754 | 8.900 | 32.589 | 2 |
| 2025-04-27T21:07:00 | 53.928001 | 6.199038 | 2.0 | 8.669 | 2 | 34.630 | 8.863 | 32.493 | 2 |
| 2025-04-27T21:08:00 | 53.927565 | 6.196648 | 2.0 | 8.684 | 2 | 34.936 | 8.843 | 32.831 | 2 |
| 2025-04-27T21:09:00 | 53.926935 | 6.194388 | 2.0 | 9.014 | 2 | 35.007 | 8.911 | 32.842 | 2 |
| 2025-04-27T21:10:00 | 53.927473 | 6.192244 | 2.0 | 9.200 | 2 | 35.337 | 9.200 | 32.918 | 2 |
| 2025-04-27T21:11:00 | 53.929026 | 6.191605 | 2.0 | 9.138 | 2 | 35.264 | 9.357 | 32.698 | 2 |
| 2025-04-27T21:12:00 | 53.930462 | 6.193381 | 2.0 | 8.858 | 2 | 35.267 | 9.242 | 32.807 | 2 |
| 2025-04-27T21:13:00 | 53.930654 | 6.196477 | 2.0 | 8.719 | 2 | 35.024 | 9.037 | 32.743 | 2 |
| 2025-04-27T21:14:00 | 53.930540 | 6.199835 | 2.0 | 8.675 | 2 | 34.980 | 8.882 | 32.841 | 2 |
| 2025-04-27T21:15:00 | 53.930583 | 6.203369 | 2.0 | 8.672 | 2 | 34.887 | 8.853 | 32.771 | 2 |
| 2025-04-27T21:16:00 | 53.930502 | 6.206854 | 2.0 | 8.696 | 2 | 35.050 | 8.848 | 32.945 | 2 |
| 2025-04-27T21:17:00 | 53.930438 | 6.210071 | 2.0 | 8.721 | 2 | 34.903 | 8.866 | 32.775 | 2 |
| 2025-04-27T21:18:00 | 53.930477 | 6.213093 | 2.0 | 8.752 | 2 | 34.834 | 8.900 | 32.672 | 2 |
| 2025-04-27T21:19:00 | 53.930497 | 6.215951 | 2.0 | 8.769 | 2 | 34.889 | 8.921 | 32.710 | 2 |
| 2025-04-27T21:20:00 | 53.930462 | 6.218683 | 2.0 | 8.816 | 2 | 35.042 | 8.947 | 32.845 | 2 |
| 2025-04-27T21:21:00 | 53.930422 | 6.221345 | 2.0 | 8.840 | 2 | 34.859 | 8.985 | 32.620 | 2 |
| 2025-04-27T21:22:00 | 53.930425 | 6.223942 | 2.0 | 8.880 | 2 | 35.048 | 9.012 | 32.791 | 2 |
| 2025-04-27T21:23:00 | 53.930449 | 6.226477 | 2.0 | 8.936 | 2 | 35.168 | 9.053 | 32.878 | 2 |
| 2025-04-27T21:24:00 | 53.930457 | 6.228974 | 2.0 | 8.991 | 2 | 35.163 | 9.110 | 32.820 | 2 |
| 2025-04-27T21:25:00 | 53.930446 | 6.231452 | 2.0 | 9.051 | 2 | 35.176 | 9.165 | 32.783 | 2 |
| 2025-04-27T21:26:00 | 53.930433 | 6.233916 | 2.0 | 9.126 | 2 | 35.157 | 9.226 | 32.708 | 2 |
| 2025-04-27T21:27:00 | 53.930445 | 6.236372 | 2.0 | 9.183 | 2 | 35.361 | 9.300 | 32.850 | 2 |
| 2025-04-27T21:28:00 | 53.930495 | 6.238817 | 2.0 | 9.167 | 2 | 35.288 | 9.341 | 32.737 | 2 |
| 2025-04-27T21:29:00 | 53.930532 | 6.241258 | 2.0 | 9.125 | 2 | 35.280 | 9.325 | 32.744 | 2 |
| 2025-04-27T21:30:00 | 53.930520 | 6.243687 | 2.0 | 8.947 | 2 | 35.269 | 9.251 | 32.800 | 2 |
| 2025-04-27T21:31:00 | 53.930479 | 6.246101 | 2.0 | 8.991 | 2 | 35.133 | 9.134 | 32.767 | 2 |
| 2025-04-27T21:32:00 | 53.930472 | 6.248494 | 2.0 | 9.004 | 2 | 35.192 | 9.169 | 32.796 | 2 |
| 2025-04-27T21:33:00 | 53.930474 | 6.250887 | 2.0 | 8.953 | 2 | 35.196 | 9.153 | 32.815 | 2 |
| 2025-04-27T21:34:00 | 53.930480 | 6.253275 | 2.0 | 8.952 | 2 | 35.204 | 9.118 | 32.856 | 2 |
| 2025-04-27T21:35:00 | 53.930479 | 6.255651 | 2.0 | 9.011 | 2 | 35.117 | 9.132 | 32.753 | 2 |
| 2025-04-27T21:36:00 | 53.930477 | 6.258028 | 2.0 | 9.012 | 2 | 35.204 | 9.180 | 32.799 | 2 |
| 2025-04-27T21:37:00 | 53.930472 | 6.260406 | 2.0 | 9.002 | 2 | 35.215 | 9.182 | 32.808 | 2 |
| 2025-04-27T21:38:00 | 53.930469 | 6.262777 | 2.0 | 9.101 | 2 | 35.234 | 9.188 | 32.822 | 2 |
| 2025-04-27T21:39:00 | 53.930470 | 6.265153 | 2.0 | 9.022 | 2 | 35.252 | 9.248 | 32.786 | 2 |
| 2025-04-27T21:40:00 | 53.930464 | 6.267535 | 2.0 | 9.036 | 2 | 35.241 | 9.198 | 32.820 | 2 |
| 2025-04-27T21:41:00 | 53.930447 | 6.269920 | 2.0 | 9.085 | 2 | 35.240 | 9.210 | 32.808 | 2 |
| 2025-04-27T21:42:00 | 53.930426 | 6.272306 | 2.0 | 9.113 | 2 | 35.283 | 9.254 | 32.812 | 2 |
| 2025-04-27T21:43:00 | 53.930425 | 6.274697 | 2.0 | 9.102 | 2 | 35.333 | 9.279 | 32.841 | 2 |
| 2025-04-27T21:44:00 | 53.930451 | 6.277092 | 2.0 | 8.624 | 2 | 35.280 | 9.117 | 32.935 | 2 |
| 2025-04-27T21:45:00 | 53.930487 | 6.279442 | 2.0 | 8.622 | 2 | 35.071 | 8.819 | 32.994 | 2 |
| 2025-04-27T21:46:00 | 53.930517 | 6.281753 | 2.0 | 8.616 | 2 | 35.046 | 8.798 | 32.988 | 2 |
| 2025-04-27T21:47:00 | 53.930541 | 6.284029 | 2.0 | 8.616 | 2 | 35.029 | 8.790 | 32.977 | 2 |
| 2025-04-27T21:48:00 | 53.930567 | 6.286280 | 2.0 | 8.618 | 2 | 35.006 | 8.790 | 32.953 | 2 |
| 2025-04-27T21:49:00 | 53.930558 | 6.288511 | 2.0 | 8.617 | 2 | 35.018 | 8.789 | 32.967 | 2 |
| 2025-04-27T21:50:00 | 53.930559 | 6.290712 | 2.0 | 8.617 | 2 | 34.983 | 8.789 | 32.930 | 2 |
| 2025-04-27T21:51:00 | 53.930554 | 6.292892 | 2.0 | 8.616 | 2 | 34.958 | 8.788 | 32.905 | 2 |
| 2025-04-27T21:52:00 | 53.930542 | 6.295050 | 2.0 | 8.618 | 2 | 34.981 | 8.787 | 32.930 | 2 |
| 2025-04-27T21:53:00 | 53.930523 | 6.297259 | 2.0 | 8.620 | 2 | 34.965 | 8.788 | 32.912 | 2 |
| 2025-04-27T21:54:00 | 53.930516 | 6.299611 | 2.0 | 8.617 | 2 | 35.015 | 8.789 | 32.964 | 2 |
| 2025-04-27T21:55:00 | 53.930696 | 6.302162 | 2.0 | 8.620 | 2 | 34.946 | 8.785 | 32.895 | 2 |
| 2025-04-27T21:56:00 | 53.931042 | 6.304903 | 2.0 | 8.623 | 2 | 34.984 | 8.789 | 32.931 | 2 |
| 2025-04-27T21:57:00 | 53.930647 | 6.307289 | 2.0 | 8.622 | 2 | 34.951 | 8.792 | 32.894 | 2 |
| 2025-04-27T21:58:00 | 53.929417 | 6.307568 | 2.0 | 8.627 | 2 | 34.984 | 8.791 | 32.929 | 2 |
| 2025-04-27T21:59:00 | 53.928847 | 6.305779 | 2.0 | 8.614 | 2 | 34.994 | 8.793 | 32.938 | 2 |
| 2025-04-27T22:00:00 | 53.928899 | 6.303506 | 2.0 | 8.612 | 2 | 34.991 | 8.784 | 32.943 | 2 |
| 2025-04-27T22:01:00 | 53.928932 | 6.301157 | 2.0 | 8.616 | 2 | 35.006 | 8.783 | 32.960 | 2 |
| 2025-04-27T22:02:00 | 53.928935 | 6.298822 | 2.0 | 8.614 | 2 | 35.021 | 8.786 | 32.973 | 2 |
| 2025-04-27T22:03:00 | 53.928947 | 6.296501 | 2.0 | 8.612 | 2 | 35.022 | 8.781 | 32.978 | 2 |
| 2025-04-27T22:04:00 | 53.928936 | 6.294197 | 2.0 | 8.611 | 2 | 35.022 | 8.782 | 32.977 | 2 |
| 2025-04-27T22:05:00 | 53.928911 | 6.291891 | 2.0 | 8.615 | 2 | 35.035 | 8.781 | 32.992 | 2 |
| 2025-04-27T22:06:00 | 53.928909 | 6.289578 | 2.0 | 8.620 | 2 | 35.046 | 8.785 | 33.000 | 2 |
| 2025-04-27T22:07:00 | 53.928884 | 6.287310 | 2.0 | 9.005 | 2 | 35.072 | 8.828 | 32.987 | 2 |
| 2025-04-27T22:08:00 | 53.928825 | 6.285081 | 2.0 | 9.042 | 2 | 35.268 | 9.147 | 32.895 | 2 |
| 2025-04-27T22:09:00 | 53.928830 | 6.282894 | 2.0 | 9.002 | 2 | 35.321 | 9.192 | 32.909 | 2 |
| 2025-04-27T22:10:00 | 53.928852 | 6.280733 | 2.0 | 9.023 | 2 | 35.305 | 9.173 | 32.910 | 2 |
| 2025-04-27T22:11:00 | 53.928850 | 6.278454 | 2.0 | 9.008 | 2 | 35.311 | 9.180 | 32.909 | 2 |
| 2025-04-27T22:12:00 | 53.928855 | 6.276077 | 2.0 | 8.980 | 2 | 35.303 | 9.167 | 32.913 | 2 |
| 2025-04-27T22:13:00 | 53.928869 | 6.273631 | 2.0 | 8.956 | 2 | 35.283 | 9.141 | 32.916 | 2 |
| 2025-04-27T22:14:00 | 53.928871 | 6.271145 | 2.0 | 8.952 | 2 | 35.264 | 9.121 | 32.915 | 2 |
| 2025-04-27T22:15:00 | 53.928871 | 6.268627 | 2.0 | 8.989 | 2 | 35.257 | 9.119 | 32.910 | 2 |
| 2025-04-27T22:16:00 | 53.928875 | 6.266113 | 2.0 | 9.125 | 2 | 35.292 | 9.198 | 32.873 | 2 |
| 2025-04-27T22:17:00 | 53.928863 | 6.263604 | 2.0 | 9.135 | 2 | 35.359 | 9.288 | 32.859 | 2 |
| 2025-04-27T22:18:00 | 53.928867 | 6.261082 | 2.0 | 9.072 | 2 | 35.356 | 9.280 | 32.864 | 2 |
| 2025-04-27T22:19:00 | 53.928869 | 6.258540 | 2.0 | 8.998 | 2 | 35.326 | 9.231 | 32.878 | 2 |
| 2025-04-27T22:20:00 | 53.928870 | 6.256024 | 2.0 | 8.915 | 2 | 35.272 | 9.156 | 32.891 | 2 |
| 2025-04-27T22:21:00 | 53.928890 | 6.253627 | 2.0 | 8.850 | 2 | 35.214 | 9.076 | 32.905 | 2 |
| 2025-04-27T22:22:00 | 53.928905 | 6.251314 | 2.0 | 8.804 | 2 | 35.167 | 9.016 | 32.911 | 2 |
| 2025-04-27T22:23:00 | 53.928888 | 6.249018 | 2.0 | 8.766 | 2 | 35.129 | 8.967 | 32.917 | 2 |
| 2025-04-27T22:24:00 | 53.928894 | 6.246660 | 2.0 | 8.738 | 2 | 35.103 | 8.933 | 32.922 | 2 |
| 2025-04-27T22:25:00 | 53.928914 | 6.244255 | 2.0 | 8.713 | 2 | 35.081 | 8.904 | 32.926 | 2 |
| 2025-04-27T22:26:00 | 53.928906 | 6.241818 | 2.0 | 8.686 | 2 | 35.062 | 8.880 | 32.928 | 2 |
| 2025-04-27T22:27:00 | 53.928907 | 6.239350 | 2.0 | 8.661 | 2 | 35.041 | 8.853 | 32.931 | 2 |
| 2025-04-27T22:28:00 | 53.928918 | 6.236858 | 2.0 | 8.642 | 2 | 35.013 | 8.830 | 32.923 | 2 |
| 2025-04-27T22:29:00 | 53.928927 | 6.234345 | 2.0 | 8.630 | 2 | 35.000 | 8.812 | 32.927 | 2 |
| 2025-04-27T22:30:00 | 53.928940 | 6.231883 | 2.0 | 8.623 | 2 | 34.993 | 8.800 | 32.930 | 2 |
| 2025-04-27T22:31:00 | 53.928926 | 6.229483 | 2.0 | 8.620 | 2 | 34.989 | 8.793 | 32.933 | 2 |
| 2025-04-27T22:32:00 | 53.928891 | 6.227135 | 2.0 | 8.615 | 2 | 34.987 | 8.789 | 32.934 | 2 |
| 2025-04-27T22:33:00 | 53.928847 | 6.224802 | 2.0 | 8.666 | 2 | 34.986 | 8.784 | 32.938 | 2 |
| 2025-04-27T22:34:00 | 53.928819 | 6.222491 | 2.0 | 8.802 | 2 | 35.042 | 8.855 | 32.930 | 2 |
| 2025-04-27T22:35:00 | 53.928772 | 6.220216 | 2.0 | 8.969 | 2 | 35.177 | 9.003 | 32.934 | 2 |
| 2025-04-27T22:36:00 | 53.928774 | 6.217961 | 2.0 | 9.029 | 2 | 35.304 | 9.141 | 32.938 | 2 |
| 2025-04-27T22:37:00 | 53.928810 | 6.215722 | 2.0 | 9.030 | 2 | 35.352 | 9.184 | 32.948 | 2 |
| 2025-04-27T22:38:00 | 53.928820 | 6.213463 | 2.0 | 9.028 | 2 | 35.365 | 9.196 | 32.950 | 2 |
| 2025-04-27T22:39:00 | 53.928806 | 6.211145 | 2.0 | 8.985 | 2 | 35.361 | 9.187 | 32.955 | 2 |
| 2025-04-27T22:40:00 | 53.928801 | 6.208787 | 2.0 | 8.958 | 2 | 35.331 | 9.148 | 32.960 | 2 |
| 2025-04-27T22:41:00 | 53.928805 | 6.206400 | 2.0 | 8.894 | 2 | 35.309 | 9.118 | 32.965 | 2 |
| 2025-04-27T22:42:00 | 53.928831 | 6.203989 | 2.0 | 8.820 | 2 | 35.259 | 9.048 | 32.977 | 2 |
| 2025-04-27T22:43:00 | 53.928852 | 6.201558 | 2.0 | 8.799 | 2 | 35.201 | 8.987 | 32.974 | 2 |
| 2025-04-27T22:44:00 | 53.928854 | 6.199109 | 2.0 | 8.763 | 2 | 35.182 | 8.961 | 32.978 | 2 |
| 2025-04-27T22:45:00 | 53.928517 | 6.196824 | 2.0 | 8.750 | 2 | 35.165 | 8.935 | 32.984 | 2 |
| 2025-04-27T22:46:00 | 53.927953 | 6.194642 | 2.0 | 8.709 | 2 | 35.149 | 8.909 | 32.992 | 2 |
| 2025-04-27T22:47:00 | 53.927578 | 6.192228 | 2.0 | 8.688 | 2 | 35.127 | 8.875 | 33.001 | 2 |
| 2025-04-27T22:48:00 | 53.928121 | 6.190013 | 2.0 | 8.693 | 2 | 35.118 | 8.859 | 33.006 | 2 |
| 2025-04-27T22:49:00 | 53.929380 | 6.189355 | 2.0 | 8.673 | 2 | 35.116 | 8.858 | 33.005 | 2 |
| 2025-04-27T22:50:00 | 53.930469 | 6.190456 | 2.0 | 8.696 | 2 | 35.106 | 8.847 | 33.005 | 2 |
| 2025-04-27T22:51:00 | 53.930826 | 6.192538 | 2.0 | 8.713 | 2 | 35.116 | 8.865 | 32.998 | 2 |
| 2025-04-27T22:52:00 | 53.931042 | 6.194918 | 2.0 | 8.727 | 2 | 35.127 | 8.883 | 32.993 | 2 |
| 2025-04-27T22:53:00 | 53.931276 | 6.197451 | 2.0 | 8.764 | 2 | 35.137 | 8.900 | 32.988 | 2 |
| 2025-04-27T22:54:00 | 53.931201 | 6.200061 | 2.0 | 8.807 | 2 | 35.161 | 8.934 | 32.981 | 2 |
| 2025-04-27T22:55:00 | 53.931225 | 6.202755 | 2.0 | 8.834 | 2 | 35.196 | 8.979 | 32.976 | 2 |
| 2025-04-27T22:56:00 | 53.931236 | 6.205493 | 2.0 | 8.867 | 2 | 35.213 | 9.003 | 32.971 | 2 |
| 2025-04-27T22:57:00 | 53.931216 | 6.208054 | 2.0 | 8.924 | 2 | 35.241 | 9.046 | 32.961 | 2 |
| 2025-04-27T22:58:00 | 53.931238 | 6.210444 | 2.0 | 8.935 | 2 | 35.276 | 9.088 | 32.958 | 2 |
| 2025-04-27T22:59:00 | 53.931253 | 6.212725 | 2.0 | 8.965 | 2 | 35.289 | 9.104 | 32.957 | 2 |
| 2025-04-27T23:00:00 | 53.931235 | 6.214939 | 2.0 | 8.998 | 2 | 35.313 | 9.133 | 32.955 | 2 |
| 2025-04-27T23:01:00 | 53.931219 | 6.217131 | 2.0 | 9.021 | 2 | 35.343 | 9.169 | 32.953 | 2 |
| 2025-04-27T23:02:00 | 53.931234 | 6.219367 | 2.0 | 8.979 | 2 | 35.359 | 9.186 | 32.953 | 2 |
| 2025-04-27T23:03:00 | 53.931288 | 6.221643 | 2.0 | 8.628 | 2 | 35.242 | 9.036 | 32.971 | 2 |
| 2025-04-27T23:04:00 | 53.931336 | 6.223923 | 2.0 | 8.618 | 2 | 35.031 | 8.818 | 32.953 | 2 |
| 2025-04-27T23:05:00 | 53.931306 | 6.226186 | 2.0 | 8.613 | 2 | 34.996 | 8.790 | 32.943 | 2 |
| 2025-04-27T23:06:00 | 53.931308 | 6.228441 | 2.0 | 8.618 | 2 | 34.985 | 8.785 | 32.936 | 2 |
| 2025-04-27T23:07:00 | 53.931339 | 6.230691 | 2.0 | 8.619 | 2 | 34.987 | 8.788 | 32.935 | 2 |
| 2025-04-27T23:08:00 | 53.931335 | 6.232942 | 2.0 | 8.623 | 2 | 34.987 | 8.789 | 32.934 | 2 |
| 2025-04-27T23:09:00 | 53.931310 | 6.235195 | 2.0 | 8.628 | 2 | 34.990 | 8.793 | 32.934 | 2 |
| 2025-04-27T23:10:00 | 53.931305 | 6.237451 | 2.0 | 8.638 | 2 | 34.994 | 8.798 | 32.933 | 2 |
| 2025-04-27T23:11:00 | 53.931326 | 6.239716 | 2.0 | 8.652 | 2 | 35.002 | 8.809 | 32.931 | 2 |
| 2025-04-27T23:12:00 | 53.931329 | 6.241986 | 2.0 | 8.666 | 2 | 35.013 | 8.821 | 32.932 | 2 |
| 2025-04-27T23:13:00 | 53.931310 | 6.244263 | 2.0 | 8.685 | 2 | 35.025 | 8.837 | 32.929 | 2 |
| 2025-04-27T23:14:00 | 53.931298 | 6.246544 | 2.0 | 8.706 | 2 | 35.039 | 8.856 | 32.926 | 2 |
| 2025-04-27T23:15:00 | 53.931294 | 6.248827 | 2.0 | 8.725 | 2 | 35.056 | 8.876 | 32.926 | 2 |
| 2025-04-27T23:16:00 | 53.931298 | 6.251116 | 2.0 | 8.749 | 2 | 35.071 | 8.897 | 32.922 | 2 |
| 2025-04-27T23:17:00 | 53.931303 | 6.253411 | 2.0 | 8.777 | 2 | 35.088 | 8.920 | 32.918 | 2 |
| 2025-04-27T23:18:00 | 53.931297 | 6.255711 | 2.0 | 8.814 | 2 | 35.111 | 8.950 | 32.914 | 2 |
| 2025-04-27T23:19:00 | 53.931285 | 6.258016 | 2.0 | 8.846 | 2 | 35.138 | 8.985 | 32.910 | 2 |
| 2025-04-27T23:20:00 | 53.931296 | 6.260325 | 2.0 | 8.882 | 2 | 35.164 | 9.019 | 32.906 | 2 |
| 2025-04-27T23:21:00 | 53.931297 | 6.262639 | 2.0 | 8.918 | 2 | 35.192 | 9.054 | 32.902 | 2 |
| 2025-04-27T23:22:00 | 53.931282 | 6.264962 | 2.0 | 8.951 | 2 | 35.218 | 9.087 | 32.899 | 2 |
| 2025-04-27T23:23:00 | 53.931275 | 6.267280 | 2.0 | 8.953 | 2 | 35.243 | 9.116 | 32.898 | 2 |
| 2025-04-27T23:24:00 | 53.931305 | 6.269594 | 2.0 | 8.964 | 2 | 35.250 | 9.122 | 32.900 | 2 |
| 2025-04-27T23:25:00 | 53.931351 | 6.271907 | 2.0 | 8.990 | 2 | 35.259 | 9.135 | 32.897 | 2 |
| 2025-04-27T23:26:00 | 53.931366 | 6.274225 | 2.0 | 9.001 | 2 | 34.910 | 9.161 | 32.512 | 2 |
| 2025-04-27T23:27:00 | 53.931340 | 6.276543 | 2.0 | 8.969 | 2 | 34.999 | 9.154 | 32.610 | 2 |
| 2025-04-27T23:28:00 | 53.931337 | 6.278861 | 2.0 | 8.944 | 2 | 35.264 | 9.125 | 32.911 | 2 |
| 2025-04-27T23:29:00 | 53.931348 | 6.281166 | 2.0 | 8.918 | 2 | 34.949 | 9.103 | 32.605 | 2 |
| 2025-04-27T23:30:00 | 53.931350 | 6.283456 | 2.0 | 8.944 | 2 | 35.245 | 9.090 | 32.924 | 2 |
| 2025-04-27T23:31:00 | 53.931335 | 6.285740 | 2.0 | 8.967 | 2 | 35.265 | 9.118 | 32.919 | 2 |
| 2025-04-27T23:32:00 | 53.931332 | 6.288017 | 2.0 | 8.972 | 2 | 35.281 | 9.136 | 32.919 | 2 |
| 2025-04-27T23:33:00 | 53.931353 | 6.290290 | 2.0 | 8.926 | 2 | 35.282 | 9.132 | 32.924 | 2 |
| 2025-04-27T23:34:00 | 53.931395 | 6.292555 | 2.0 | 8.778 | 2 | 34.889 | 9.065 | 32.578 | 2 |
| 2025-04-27T23:35:00 | 53.931447 | 6.294811 | 2.0 | 8.656 | 2 | 34.922 | 8.932 | 32.734 | 2 |
| 2025-04-27T23:36:00 | 53.931458 | 6.297088 | 2.0 | 8.608 | 2 | 34.724 | 8.813 | 32.637 | 2 |
| 2025-04-27T23:37:00 | 53.931359 | 6.299471 | 2.0 | 8.603 | 2 | 34.706 | 8.781 | 32.648 | 2 |
| 2025-04-27T23:38:00 | 53.931648 | 6.301827 | 2.0 | 8.597 | 2 | 34.973 | 8.773 | 32.935 | 2 |
| 2025-04-27T23:39:00 | 53.932067 | 6.304244 | 2.0 | 8.604 | 2 | 34.713 | 8.769 | 32.666 | 2 |
| 2025-04-27T23:40:00 | 53.931693 | 6.306480 | 2.0 | 8.606 | 2 | 34.808 | 8.774 | 32.761 | 2 |
| 2025-04-27T23:41:00 | 53.930275 | 6.306532 | 2.0 | 8.610 | 2 | 34.959 | 8.775 | 32.918 | 2 |
| 2025-04-27T23:42:00 | 53.929679 | 6.304267 | 2.0 | 8.599 | 2 | 34.713 | 8.777 | 32.659 | 2 |
| 2025-04-27T23:43:00 | 53.929760 | 6.301929 | 2.0 | 8.601 | 2 | 34.765 | 8.769 | 32.721 | 2 |
| 2025-04-27T23:44:00 | 53.929750 | 6.299600 | 2.0 | 8.599 | 2 | 34.754 | 8.770 | 32.708 | 2 |
| 2025-04-27T23:45:00 | 53.929741 | 6.297251 | 2.0 | 8.598 | 2 | 34.757 | 8.768 | 32.713 | 2 |
| 2025-04-27T23:46:00 | 53.929758 | 6.294882 | 2.0 | 8.646 | 2 | 34.891 | 8.767 | 32.854 | 2 |
| 2025-04-27T23:47:00 | 53.929725 | 6.292519 | 2.0 | 8.810 | 2 | 34.877 | 8.846 | 32.767 | 2 |
| 2025-04-27T23:48:00 | 53.929643 | 6.290189 | 2.0 | 8.910 | 2 | 35.014 | 8.994 | 32.773 | 2 |
| 2025-04-27T23:49:00 | 53.929648 | 6.287886 | 2.0 | 8.980 | 2 | 35.216 | 9.084 | 32.899 | 2 |
| 2025-04-27T23:50:00 | 53.929678 | 6.285607 | 2.0 | 8.986 | 2 | 35.225 | 9.139 | 32.858 | 2 |
| 2025-04-27T23:51:00 | 53.929675 | 6.283336 | 2.0 | 8.967 | 2 | 35.243 | 9.147 | 32.869 | 2 |
| 2025-04-27T23:52:00 | 53.929652 | 6.281064 | 2.0 | 8.950 | 2 | 35.111 | 9.131 | 32.747 | 2 |
| 2025-04-27T23:53:00 | 53.929637 | 6.278792 | 2.0 | 8.933 | 2 | 34.884 | 9.110 | 32.531 | 2 |
| 2025-04-27T23:54:00 | 53.929647 | 6.276519 | 2.0 | 8.956 | 2 | 35.044 | 9.102 | 32.704 | 2 |
| 2025-04-27T23:55:00 | 53.929678 | 6.274257 | 2.0 | 8.965 | 2 | 35.185 | 9.123 | 32.831 | 2 |
| 2025-04-27T23:56:00 | 53.929699 | 6.271999 | 2.0 | 8.990 | 2 | 35.095 | 9.139 | 32.723 | 2 |
| 2025-04-27T23:57:00 | 53.929691 | 6.269739 | 2.0 | 8.948 | 2 | 35.034 | 9.154 | 32.646 | 2 |
| 2025-04-27T23:58:00 | 53.929679 | 6.267472 | 2.0 | 8.924 | 2 | 35.125 | 9.114 | 32.777 | 2 |
| 2025-04-27T23:59:00 | 53.929677 | 6.265195 | 2.0 | 8.904 | 2 | 35.091 | 9.089 | 32.765 | 2 |
| 2025-04-28T00:00:00 | 53.929686 | 6.262910 | 2.0 | 8.896 | 2 | 35.217 | 9.071 | 32.913 | 2 |
| 2025-04-28T00:01:00 | 53.929694 | 6.260617 | 2.0 | 8.900 | 2 | 35.066 | 9.061 | 32.765 | 2 |
| 2025-04-28T00:02:00 | 53.929692 | 6.258319 | 2.0 | 8.891 | 2 | 35.108 | 9.067 | 32.803 | 2 |
| 2025-04-28T00:03:00 | 53.929688 | 6.256017 | 2.0 | 8.844 | 2 | 35.002 | 9.054 | 32.705 | 2 |
| 2025-04-28T00:04:00 | 53.929704 | 6.253713 | 2.0 | 8.832 | 2 | 34.992 | 9.008 | 32.737 | 2 |
| 2025-04-28T00:05:00 | 53.929712 | 6.251396 | 2.0 | 8.806 | 2 | 35.051 | 8.996 | 32.809 | 2 |
| 2025-04-28T00:06:00 | 53.929714 | 6.249068 | 2.0 | 8.778 | 2 | 35.105 | 8.970 | 32.890 | 2 |
| 2025-04-28T00:07:00 | 53.929721 | 6.246731 | 2.0 | 8.757 | 2 | 35.084 | 8.946 | 32.890 | 2 |
| 2025-04-28T00:08:00 | 53.929736 | 6.244385 | 2.0 | 8.735 | 2 | 34.948 | 8.923 | 32.770 | 2 |
| 2025-04-28T00:09:00 | 53.929751 | 6.242031 | 2.0 | 8.714 | 2 | 34.819 | 8.902 | 32.655 | 2 |
| 2025-04-28T00:10:00 | 53.929751 | 6.239669 | 2.0 | 8.700 | 2 | 34.901 | 8.882 | 32.758 | 2 |
| 2025-04-28T00:11:00 | 53.929726 | 6.237302 | 2.0 | 8.681 | 2 | 35.017 | 8.867 | 32.893 | 2 |
| 2025-04-28T00:12:00 | 53.929687 | 6.234928 | 2.0 | 8.662 | 2 | 34.903 | 8.847 | 32.793 | 2 |
| 2025-04-28T00:13:00 | 53.929672 | 6.232541 | 2.0 | 8.645 | 2 | 34.945 | 8.830 | 32.852 | 2 |
| 2025-04-28T00:14:00 | 53.929692 | 6.230139 | 2.0 | 8.631 | 2 | 34.897 | 8.813 | 32.818 | 2 |
| 2025-04-28T00:15:00 | 53.929738 | 6.227730 | 2.0 | 8.627 | 2 | 34.865 | 8.801 | 32.796 | 2 |
| 2025-04-28T00:16:00 | 53.929741 | 6.225318 | 2.0 | 8.625 | 2 | 34.880 | 8.797 | 32.815 | 2 |
| 2025-04-28T00:17:00 | 53.929710 | 6.222899 | 2.0 | 8.621 | 2 | 34.876 | 8.794 | 32.814 | 2 |
| 2025-04-28T00:18:00 | 53.929701 | 6.220460 | 2.0 | 8.622 | 2 | 34.830 | 8.790 | 32.769 | 2 |
| 2025-04-28T00:19:00 | 53.929729 | 6.218006 | 2.0 | 8.621 | 2 | 34.840 | 8.790 | 32.780 | 2 |
| 2025-04-28T00:20:00 | 53.929764 | 6.215544 | 2.0 | 8.703 | 2 | 34.867 | 8.793 | 32.805 | 2 |
| 2025-04-28T00:21:00 | 53.929719 | 6.213098 | 2.0 | 8.771 | 2 | 34.956 | 8.883 | 32.815 | 2 |
| 2025-04-28T00:22:00 | 53.929645 | 6.210661 | 2.0 | 8.800 | 2 | 35.049 | 8.941 | 32.858 | 2 |
| 2025-04-28T00:23:00 | 53.929609 | 6.208219 | 2.0 | 8.817 | 2 | 35.078 | 8.968 | 32.863 | 2 |
| 2025-04-28T00:24:00 | 53.929630 | 6.205773 | 2.0 | 8.841 | 2 | 35.088 | 8.989 | 32.854 | 2 |
| 2025-04-28T00:25:00 | 53.929650 | 6.203328 | 2.0 | 8.883 | 2 | 35.111 | 9.010 | 32.859 | 2 |
| 2025-04-28T00:26:00 | 53.929640 | 6.200874 | 2.0 | 8.921 | 2 | 35.172 | 9.054 | 32.882 | 2 |
| 2025-04-28T00:27:00 | 53.929569 | 6.198437 | 2.0 | 8.899 | 2 | 35.225 | 9.080 | 32.913 | 2 |
| 2025-04-28T00:28:00 | 53.929187 | 6.196097 | 2.0 | 8.887 | 2 | 35.182 | 9.062 | 32.885 | 2 |
| 2025-04-28T00:29:00 | 53.928811 | 6.193678 | 2.0 | 8.880 | 2 | 35.181 | 9.052 | 32.893 | 2 |
| 2025-04-28T00:30:00 | 53.929310 | 6.191278 | 2.0 | 8.866 | 2 | 35.189 | 9.043 | 32.909 | 2 |
| 2025-04-28T00:31:00 | 53.930555 | 6.190539 | 2.0 | 8.880 | 2 | 35.181 | 9.029 | 32.914 | 2 |
| 2025-04-28T00:32:00 | 53.931471 | 6.191662 | 2.0 | 8.907 | 2 | 35.217 | 9.055 | 32.927 | 2 |
| 2025-04-28T00:33:00 | 53.931649 | 6.193608 | 2.0 | 8.927 | 2 | 35.226 | 9.077 | 32.916 | 2 |
| 2025-04-28T00:34:00 | 53.931742 | 6.195982 | 2.0 | 8.904 | 2 | 35.233 | 9.086 | 32.915 | 2 |
| 2025-04-28T00:35:00 | 53.931936 | 6.198586 | 2.0 | 8.844 | 2 | 35.217 | 9.060 | 32.923 | 2 |
| 2025-04-28T00:36:00 | 53.932056 | 6.201252 | 2.0 | 8.773 | 2 | 35.165 | 9.001 | 32.923 | 2 |
| 2025-04-28T00:37:00 | 53.932041 | 6.203695 | 2.0 | 8.760 | 2 | 35.129 | 8.941 | 32.941 | 2 |
| 2025-04-28T00:38:00 | 53.932047 | 6.205951 | 2.0 | 8.726 | 2 | 35.106 | 8.922 | 32.935 | 2 |
| 2025-04-28T00:39:00 | 53.932089 | 6.208095 | 2.0 | 8.644 | 2 | 35.070 | 8.881 | 32.936 | 2 |
| 2025-04-28T00:40:00 | 53.932116 | 6.210169 | 2.0 | 8.622 | 2 | 35.004 | 8.809 | 32.934 | 2 |
| 2025-04-28T00:41:00 | 53.932088 | 6.212182 | 2.0 | 8.620 | 2 | 34.983 | 8.793 | 32.926 | 2 |
| 2025-04-28T00:42:00 | 53.932089 | 6.214164 | 2.0 | 8.621 | 2 | 34.979 | 8.789 | 32.926 | 2 |
| 2025-04-28T00:43:00 | 53.932096 | 6.216123 | 2.0 | 8.621 | 2 | 34.977 | 8.791 | 32.922 | 2 |
| 2025-04-28T00:44:00 | 53.932075 | 6.218061 | 2.0 | 8.632 | 2 | 34.985 | 8.792 | 32.929 | 2 |
| 2025-04-28T00:45:00 | 53.932058 | 6.219994 | 2.0 | 8.644 | 2 | 34.990 | 8.802 | 32.925 | 2 |
| 2025-04-28T00:46:00 | 53.932082 | 6.221927 | 2.0 | 8.662 | 2 | 35.003 | 8.816 | 32.926 | 2 |
| 2025-04-28T00:47:00 | 53.932118 | 6.223856 | 2.0 | 8.682 | 2 | 35.010 | 8.832 | 32.918 | 2 |
| 2025-04-28T00:48:00 | 53.932128 | 6.225785 | 2.0 | 8.698 | 2 | 35.031 | 8.852 | 32.922 | 2 |
| 2025-04-28T00:49:00 | 53.932120 | 6.227711 | 2.0 | 8.717 | 2 | 35.043 | 8.867 | 32.920 | 2 |
| 2025-04-28T00:50:00 | 53.932090 | 6.229648 | 2.0 | 8.745 | 2 | 35.062 | 8.889 | 32.920 | 2 |
| 2025-04-28T00:51:00 | 53.932089 | 6.231586 | 2.0 | 8.764 | 2 | 35.083 | 8.914 | 32.919 | 2 |
| 2025-04-28T00:52:00 | 53.932125 | 6.233530 | 2.0 | 8.788 | 2 | 35.101 | 8.934 | 32.919 | 2 |
| 2025-04-28T00:53:00 | 53.932148 | 6.235652 | 2.0 | 8.827 | 2 | 35.121 | 8.960 | 32.915 | 2 |
| 2025-04-28T00:54:00 | 53.932133 | 6.237940 | 2.0 | 8.860 | 2 | 35.149 | 8.995 | 32.912 | 2 |
| 2025-04-28T00:55:00 | 53.932100 | 6.240316 | 2.0 | 8.902 | 2 | 35.176 | 9.033 | 32.905 | 2 |
| 2025-04-28T00:56:00 | 53.932085 | 6.242746 | 2.0 | 8.932 | 2 | 35.213 | 9.079 | 32.901 | 2 |
| 2025-04-28T00:57:00 | 53.932081 | 6.245212 | 2.0 | 8.895 | 2 | 35.228 | 9.083 | 32.913 | 2 |
| 2025-04-28T00:58:00 | 53.932085 | 6.247688 | 2.0 | 8.884 | 2 | 35.218 | 9.065 | 32.919 | 2 |
| 2025-04-28T00:59:00 | 53.932088 | 6.250172 | 2.0 | 8.893 | 2 | 35.192 | 9.051 | 32.905 | 2 |
| 2025-04-28T01:00:00 | 53.932081 | 6.252657 | 2.0 | 8.915 | 2 | 35.208 | 9.062 | 32.912 | 2 |
| 2025-04-28T01:01:00 | 53.932076 | 6.255144 | 2.0 | 8.936 | 2 | 35.227 | 9.083 | 32.912 | 2 |
| 2025-04-28T01:02:00 | 53.932106 | 6.257588 | 2.0 | 8.947 | 2 | 35.243 | 9.101 | 32.912 | 2 |
| 2025-04-28T01:03:00 | 53.932131 | 6.259923 | 2.0 | 8.922 | 2 | 35.257 | 9.110 | 32.918 | 2 |
| 2025-04-28T01:04:00 | 53.932159 | 6.262192 | 2.0 | 8.821 | 2 | 35.245 | 9.075 | 32.938 | 2 |
| 2025-04-28T01:05:00 | 53.932211 | 6.264414 | 2.0 | 8.721 | 2 | 35.179 | 8.972 | 32.965 | 2 |
| 2025-04-28T01:06:00 | 53.932245 | 6.266600 | 2.0 | 8.656 | 2 | 35.109 | 8.880 | 32.977 | 2 |
| 2025-04-28T01:07:00 | 53.932236 | 6.268771 | 2.0 | 8.607 | 2 | 35.066 | 8.826 | 32.983 | 2 |
| 2025-04-28T01:08:00 | 53.932217 | 6.270938 | 2.0 | 8.596 | 2 | 34.991 | 8.773 | 32.953 | 2 |
| 2025-04-28T01:09:00 | 53.932202 | 6.273142 | 2.0 | 8.600 | 2 | 34.967 | 8.765 | 32.936 | 2 |
| 2025-04-28T01:10:00 | 53.932197 | 6.275373 | 2.0 | 8.604 | 2 | 34.968 | 8.773 | 32.929 | 2 |
| 2025-04-28T01:11:00 | 53.932194 | 6.277615 | 2.0 | 8.609 | 2 | 34.967 | 8.772 | 32.929 | 2 |
| 2025-04-28T01:12:00 | 53.932230 | 6.279866 | 2.0 | 8.616 | 2 | 34.961 | 8.776 | 32.919 | 2 |
| 2025-04-28T01:13:00 | 53.932259 | 6.282108 | 2.0 | 8.624 | 2 | 34.958 | 8.788 | 32.905 | 2 |
| 2025-04-28T01:14:00 | 53.932238 | 6.284336 | 2.0 | 8.624 | 2 | 34.954 | 8.791 | 32.898 | 2 |
| 2025-04-28T01:15:00 | 53.932224 | 6.286573 | 2.0 | 8.639 | 2 | 34.943 | 8.794 | 32.884 | 2 |
| 2025-04-28T01:16:00 | 53.932243 | 6.288808 | 2.0 | 8.637 | 2 | 34.940 | 8.804 | 32.871 | 2 |
| 2025-04-28T01:17:00 | 53.932241 | 6.291038 | 2.0 | 8.652 | 2 | 34.936 | 8.808 | 32.863 | 2 |
| 2025-04-28T01:18:00 | 53.932194 | 6.293259 | 2.0 | 8.656 | 2 | 34.938 | 8.819 | 32.855 | 2 |
| 2025-04-28T01:19:00 | 53.932152 | 6.295475 | 2.0 | 8.658 | 2 | 34.932 | 8.823 | 32.845 | 2 |
| 2025-04-28T01:20:00 | 53.932156 | 6.297695 | 2.0 | 8.659 | 2 | 34.929 | 8.826 | 32.839 | 2 |
| 2025-04-28T01:21:00 | 53.932196 | 6.299913 | 2.0 | 8.668 | 2 | 34.924 | 8.827 | 32.833 | 2 |
| 2025-04-28T01:22:00 | 53.931981 | 6.302141 | 2.0 | 8.691 | 2 | 34.926 | 8.837 | 32.826 | 2 |
| 2025-04-28T01:23:00 | 53.931934 | 6.304498 | 2.0 | 8.703 | 2 | 34.942 | 8.859 | 32.822 | 2 |
| 2025-04-28T01:24:00 | 53.933092 | 6.305878 | 2.0 | 8.716 | 2 | 34.946 | 8.872 | 32.815 | 2 |
| 2025-04-28T01:25:00 | 53.934431 | 6.304846 | 2.0 | 8.712 | 2 | 34.953 | 8.881 | 32.814 | 2 |
| 2025-04-28T01:26:00 | 53.934859 | 6.302562 | 2.0 | 8.698 | 2 | 34.954 | 8.877 | 32.818 | 2 |
| 2025-04-28T01:27:00 | 53.934725 | 6.300034 | 2.0 | 8.686 | 2 | 34.945 | 8.863 | 32.822 | 2 |
| 2025-04-28T01:28:00 | 53.934588 | 6.297300 | 2.0 | 8.677 | 2 | 34.943 | 8.852 | 32.830 | 2 |
| 2025-04-28T01:29:00 | 53.934623 | 6.294545 | 2.0 | 8.675 | 2 | 34.939 | 8.844 | 32.833 | 2 |
| 2025-04-28T01:30:00 | 53.934623 | 6.291846 | 2.0 | 8.665 | 2 | 34.942 | 8.842 | 32.838 | 2 |
| 2025-04-28T01:31:00 | 53.934579 | 6.289238 | 2.0 | 8.658 | 2 | 34.928 | 8.832 | 32.833 | 2 |
| 2025-04-28T01:32:00 | 53.934566 | 6.286683 | 2.0 | 8.653 | 2 | 34.928 | 8.825 | 32.839 | 2 |
| 2025-04-28T01:33:00 | 53.934588 | 6.284167 | 2.0 | 8.643 | 2 | 34.933 | 8.822 | 32.847 | 2 |
| 2025-04-28T01:34:00 | 53.934623 | 6.281714 | 2.0 | 8.634 | 2 | 34.926 | 8.809 | 32.852 | 2 |
| 2025-04-28T01:35:00 | 53.934648 | 6.279309 | 2.0 | 8.636 | 2 | 34.925 | 8.800 | 32.859 | 2 |
| 2025-04-28T01:36:00 | 53.934646 | 6.276944 | 2.0 | 8.631 | 2 | 34.942 | 8.806 | 32.872 | 2 |
| 2025-04-28T01:37:00 | 53.934621 | 6.274614 | 2.0 | 8.629 | 2 | 34.939 | 8.799 | 32.875 | 2 |
| 2025-04-28T01:38:00 | 53.934585 | 6.272297 | 2.0 | 8.627 | 2 | 34.941 | 8.797 | 32.879 | 2 |
| 2025-04-28T01:39:00 | 53.934552 | 6.269986 | 2.0 | 8.617 | 2 | 34.938 | 8.792 | 32.880 | 2 |
| 2025-04-28T01:40:00 | 53.934534 | 6.267687 | 2.0 | 8.621 | 2 | 34.938 | 8.786 | 32.886 | 2 |
| 2025-04-28T01:41:00 | 53.934527 | 6.265395 | 2.0 | 8.617 | 2 | 34.951 | 8.789 | 32.897 | 2 |
| 2025-04-28T01:42:00 | 53.934531 | 6.263107 | 2.0 | 8.615 | 2 | 34.949 | 8.784 | 32.899 | 2 |
| 2025-04-28T01:43:00 | 53.934548 | 6.260827 | 2.0 | 8.606 | 2 | 34.950 | 8.779 | 32.905 | 2 |
| 2025-04-28T01:44:00 | 53.934564 | 6.258547 | 2.0 | 8.601 | 2 | 34.956 | 8.775 | 32.915 | 2 |
| 2025-04-28T01:45:00 | 53.934568 | 6.256277 | 2.0 | 8.597 | 2 | 34.962 | 8.771 | 32.925 | 2 |
| 2025-04-28T01:46:00 | 53.934566 | 6.254012 | 2.0 | 8.595 | 2 | 34.712 | 8.765 | 32.669 | 2 |
| 2025-04-28T01:47:00 | 53.934550 | 6.251748 | 2.0 | 8.591 | 2 | 34.782 | 8.763 | 32.744 | 2 |
| 2025-04-28T01:48:00 | 53.934552 | 6.249485 | 2.0 | 8.586 | 2 | 34.955 | 8.759 | 32.929 | 2 |
| 2025-04-28T01:49:00 | 53.934566 | 6.247219 | 2.0 | 8.580 | 2 | 34.501 | 8.754 | 32.459 | 2 |
| 2025-04-28T01:50:00 | 53.934580 | 6.244954 | 2.0 | 8.592 | 2 | 34.958 | 8.751 | 32.939 | 2 |
| 2025-04-28T01:51:00 | 53.934575 | 6.242697 | 2.0 | 8.622 | 2 | 34.992 | 8.763 | 32.964 | 2 |
| 2025-04-28T01:52:00 | 53.934512 | 6.240461 | 2.0 | 8.654 | 2 | 34.501 | 8.795 | 32.421 | 2 |
| 2025-04-28T01:53:00 | 53.934441 | 6.238243 | 2.0 | 8.687 | 2 | 35.060 | 8.826 | 32.976 | 2 |
| 2025-04-28T01:54:00 | 53.934397 | 6.236014 | 2.0 | 8.747 | 2 | 35.086 | 8.863 | 32.969 | 2 |
| 2025-04-28T01:55:00 | 53.934405 | 6.233801 | 2.0 | 8.826 | 2 | 34.377 | 8.924 | 32.175 | 2 |
| 2025-04-28T01:56:00 | 53.934443 | 6.231599 | 2.0 | 8.885 | 2 | 34.924 | 8.995 | 32.678 | 2 |
| 2025-04-28T01:57:00 | 53.934468 | 6.229389 | 2.0 | 8.936 | 2 | 35.213 | 9.056 | 32.922 | 2 |
| 2025-04-28T01:58:00 | 53.934465 | 6.227178 | 2.0 | 8.978 | 2 | 35.107 | 9.106 | 32.766 | 2 |
| 2025-04-28T01:59:00 | 53.934454 | 6.224964 | 2.0 | 8.958 | 2 | 35.071 | 9.140 | 32.698 | 2 |
| 2025-04-28T02:00:00 | 53.934443 | 6.222749 | 2.0 | 8.946 | 2 | 34.905 | 9.118 | 32.546 | 2 |
| 2025-04-28T02:01:00 | 53.934435 | 6.220535 | 2.0 | 8.907 | 2 | 34.798 | 9.102 | 32.450 | 2 |
| 2025-04-28T02:02:00 | 53.934448 | 6.218320 | 2.0 | 8.896 | 2 | 34.909 | 9.071 | 32.593 | 2 |
| 2025-04-28T02:03:00 | 53.934467 | 6.216104 | 2.0 | 8.890 | 2 | 34.867 | 9.063 | 32.557 | 2 |
| 2025-04-28T02:04:00 | 53.934473 | 6.213888 | 2.0 | 8.857 | 2 | 35.182 | 9.050 | 32.896 | 2 |
| 2025-04-28T02:05:00 | 53.934478 | 6.211665 | 2.0 | 8.842 | 2 | 35.076 | 9.021 | 32.812 | 2 |
| 2025-04-28T02:06:00 | 53.934480 | 6.209442 | 2.0 | 8.844 | 2 | 35.035 | 9.005 | 32.784 | 2 |
| 2025-04-28T02:07:00 | 53.934465 | 6.207216 | 2.0 | 8.875 | 2 | 34.697 | 9.015 | 32.424 | 2 |
| 2025-04-28T02:08:00 | 53.934447 | 6.204986 | 2.0 | 8.874 | 2 | 35.044 | 9.041 | 32.761 | 2 |
| 2025-04-28T02:09:00 | 53.934436 | 6.202749 | 2.0 | 8.841 | 2 | 34.766 | 9.034 | 32.478 | 2 |
| 2025-04-28T02:10:00 | 53.934432 | 6.200509 | 2.0 | 8.881 | 2 | 34.964 | 9.014 | 32.702 | 2 |
| 2025-04-28T02:11:00 | 53.934578 | 6.198339 | 2.0 | 8.835 | 2 | 35.005 | 9.029 | 32.731 | 2 |
| 2025-04-28T02:12:00 | 53.935033 | 6.196468 | 2.0 | 8.854 | 2 | 35.179 | 9.010 | 32.929 | 2 |
| 2025-04-28T02:13:00 | 53.935637 | 6.194825 | 2.0 | 8.860 | 2 | 34.905 | 9.022 | 32.634 | 2 |
| 2025-04-28T02:14:00 | 53.936142 | 6.193088 | 2.0 | 8.863 | 2 | 34.896 | 9.023 | 32.623 | 2 |
| 2025-04-28T02:15:00 | 53.936148 | 6.191154 | 2.0 | 8.840 | 2 | 34.981 | 9.022 | 32.713 | 2 |
| 2025-04-28T02:16:00 | 53.935611 | 6.189661 | 2.0 | 8.830 | 2 | 35.022 | 9.004 | 32.772 | 2 |
| 2025-04-28T02:17:00 | 53.934702 | 6.189219 | 2.0 | 8.824 | 2 | 35.011 | 8.987 | 32.776 | 2 |
| 2025-04-28T02:18:00 | 53.933917 | 6.190162 | 2.0 | 8.832 | 2 | 34.887 | 8.986 | 32.648 | 2 |
| 2025-04-28T02:19:00 | 53.933660 | 6.191836 | 2.0 | 8.854 | 2 | 34.971 | 9.004 | 32.719 | 2 |
| 2025-04-28T02:20:00 | 53.933367 | 6.193850 | 2.0 | 8.841 | 2 | 35.027 | 9.011 | 32.771 | 2 |
| 2025-04-28T02:21:00 | 53.933090 | 6.195936 | 2.0 | 8.825 | 2 | 35.019 | 9.002 | 32.771 | 2 |
| 2025-04-28T02:22:00 | 53.933030 | 6.198031 | 2.0 | 8.803 | 2 | 35.023 | 8.988 | 32.788 | 2 |
| 2025-04-28T02:23:00 | 53.932902 | 6.200124 | 2.0 | 8.759 | 2 | 35.055 | 8.965 | 32.842 | 2 |
| 2025-04-28T02:24:00 | 53.932882 | 6.202212 | 2.0 | 8.824 | 2 | 35.128 | 8.939 | 32.942 | 2 |
| 2025-04-28T02:25:00 | 53.932883 | 6.204314 | 2.0 | 8.899 | 2 | 35.025 | 9.001 | 32.778 | 2 |
| 2025-04-28T02:26:00 | 53.932844 | 6.206425 | 2.0 | 8.961 | 2 | 35.138 | 9.075 | 32.827 | 2 |
| 2025-04-28T02:27:00 | 53.932849 | 6.208532 | 2.0 | 8.932 | 2 | 35.162 | 9.119 | 32.811 | 2 |
| 2025-04-28T02:28:00 | 53.932909 | 6.210641 | 2.0 | 8.828 | 2 | 35.135 | 9.076 | 32.823 | 2 |
| 2025-04-28T02:29:00 | 53.932911 | 6.212758 | 2.0 | 8.782 | 2 | 35.004 | 8.992 | 32.764 | 2 |
| 2025-04-28T02:30:00 | 53.932899 | 6.214886 | 2.0 | 8.689 | 2 | 35.061 | 8.932 | 32.879 | 2 |
| 2025-04-28T02:31:00 | 53.932931 | 6.217018 | 2.0 | 8.660 | 2 | 34.867 | 8.863 | 32.740 | 2 |
| 2025-04-28T02:32:00 | 53.932974 | 6.219153 | 2.0 | 8.599 | 2 | 35.030 | 8.823 | 32.948 | 2 |
| 2025-04-28T02:33:00 | 53.932982 | 6.221271 | 2.0 | 8.590 | 2 | 34.894 | 8.768 | 32.857 | 2 |
| 2025-04-28T02:34:00 | 53.932946 | 6.223377 | 2.0 | 8.589 | 2 | 34.830 | 8.759 | 32.798 | 2 |
| 2025-04-28T02:35:00 | 53.932910 | 6.225476 | 2.0 | 8.595 | 2 | 34.846 | 8.759 | 32.815 | 2 |
| 2025-04-28T02:36:00 | 53.932911 | 6.227564 | 2.0 | 8.605 | 2 | 34.867 | 8.766 | 32.830 | 2 |
| 2025-04-28T02:37:00 | 53.932935 | 6.229643 | 2.0 | 8.605 | 2 | 34.878 | 8.772 | 32.836 | 2 |
| 2025-04-28T02:38:00 | 53.932951 | 6.231714 | 2.0 | 8.605 | 2 | 34.839 | 8.772 | 32.795 | 2 |
| 2025-04-28T02:39:00 | 53.932944 | 6.233783 | 2.0 | 8.600 | 2 | 34.846 | 8.772 | 32.803 | 2 |
| 2025-04-28T02:40:00 | 53.932937 | 6.235845 | 2.0 | 8.613 | 2 | 34.852 | 8.772 | 32.809 | 2 |
| 2025-04-28T02:41:00 | 53.932946 | 6.237907 | 2.0 | 8.621 | 2 | 34.867 | 8.783 | 32.814 | 2 |
| 2025-04-28T02:42:00 | 53.932948 | 6.239967 | 2.0 | 8.621 | 2 | 34.830 | 8.788 | 32.771 | 2 |
| 2025-04-28T02:43:00 | 53.932954 | 6.242030 | 2.0 | 8.623 | 2 | 34.882 | 8.790 | 32.824 | 2 |
| 2025-04-28T02:44:00 | 53.932981 | 6.244091 | 2.0 | 8.644 | 2 | 34.843 | 8.792 | 32.781 | 2 |
| 2025-04-28T02:45:00 | 53.932986 | 6.246143 | 2.0 | 8.664 | 2 | 34.820 | 8.817 | 32.734 | 2 |
| 2025-04-28T02:46:00 | 53.932988 | 6.248187 | 2.0 | 8.681 | 2 | 34.873 | 8.834 | 32.774 | 2 |
| 2025-04-28T02:47:00 | 53.932981 | 6.250224 | 2.0 | 8.689 | 2 | 34.875 | 8.849 | 32.762 | 2 |
| 2025-04-28T02:48:00 | 53.932979 | 6.252263 | 2.0 | 8.698 | 2 | 34.915 | 8.858 | 32.795 | 2 |
| 2025-04-28T02:49:00 | 53.932992 | 6.254302 | 2.0 | 8.714 | 2 | 34.928 | 8.867 | 32.800 | 2 |
| 2025-04-28T02:50:00 | 53.932990 | 6.256343 | 2.0 | 8.727 | 2 | 34.907 | 8.883 | 32.764 | 2 |
| 2025-04-28T02:51:00 | 53.932980 | 6.258380 | 2.0 | 8.733 | 2 | 34.898 | 8.895 | 32.743 | 2 |
| 2025-04-28T02:52:00 | 53.932963 | 6.260422 | 2.0 | 8.738 | 2 | 34.939 | 8.900 | 32.781 | 2 |
| 2025-04-28T02:53:00 | 53.932957 | 6.262470 | 2.0 | 8.748 | 2 | 34.952 | 8.907 | 32.788 | 2 |
| 2025-04-28T02:54:00 | 53.932966 | 6.264525 | 2.0 | 8.747 | 2 | 34.959 | 8.916 | 32.787 | 2 |
| 2025-04-28T02:55:00 | 53.932957 | 6.266590 | 2.0 | 8.732 | 2 | 34.941 | 8.909 | 32.775 | 2 |
| 2025-04-28T02:56:00 | 53.932908 | 6.268676 | 2.0 | 8.739 | 2 | 34.946 | 8.901 | 32.788 | 2 |
| 2025-04-28T02:57:00 | 53.932896 | 6.270786 | 2.0 | 8.750 | 2 | 34.968 | 8.908 | 32.804 | 2 |
| 2025-04-28T02:58:00 | 53.932936 | 6.272910 | 2.0 | 8.758 | 2 | 34.957 | 8.919 | 32.783 | 2 |
| 2025-04-28T02:59:00 | 53.932975 | 6.275039 | 2.0 | 8.764 | 2 | 34.964 | 8.926 | 32.783 | 2 |
| 2025-04-28T03:00:00 | 53.932996 | 6.277170 | 2.0 | 8.767 | 2 | 34.967 | 8.932 | 32.781 | 2 |
| 2025-04-28T03:01:00 | 53.932981 | 6.279301 | 2.0 | 8.764 | 2 | 34.968 | 8.933 | 32.781 | 2 |
| 2025-04-28T03:02:00 | 53.932948 | 6.281438 | 2.0 | 8.760 | 2 | 34.968 | 8.932 | 32.782 | 2 |
| 2025-04-28T03:03:00 | 53.932941 | 6.283580 | 2.0 | 8.753 | 2 | 34.965 | 8.926 | 32.784 | 2 |
| 2025-04-28T03:04:00 | 53.932940 | 6.285725 | 2.0 | 8.744 | 2 | 34.965 | 8.919 | 32.791 | 2 |
| 2025-04-28T03:05:00 | 53.932936 | 6.287873 | 2.0 | 8.743 | 2 | 34.965 | 8.911 | 32.798 | 2 |
| 2025-04-28T03:06:00 | 53.932920 | 6.290024 | 2.0 | 8.742 | 2 | 34.979 | 8.910 | 32.814 | 2 |
| 2025-04-28T03:07:00 | 53.932910 | 6.292173 | 2.0 | 8.757 | 2 | 34.994 | 8.913 | 32.827 | 2 |
| 2025-04-28T03:08:00 | 53.932916 | 6.294328 | 2.0 | 8.763 | 2 | 35.011 | 8.925 | 32.833 | 2 |
| 2025-04-28T03:09:00 | 53.932926 | 6.296488 | 2.0 | 8.766 | 2 | 35.022 | 8.931 | 32.839 | 2 |
| 2025-04-28T03:10:00 | 53.932930 | 6.298656 | 2.0 | 8.768 | 2 | 35.029 | 8.933 | 32.845 | 2 |
| 2025-04-28T03:11:00 | 53.932841 | 6.300815 | 2.0 | 8.769 | 2 | 35.034 | 8.935 | 32.848 | 2 |
| 2025-04-28T03:12:00 | 53.932372 | 6.302809 | 2.0 | 8.771 | 2 | 35.038 | 8.937 | 32.850 | 2 |
| 2025-04-28T03:13:00 | 53.932563 | 6.304691 | 2.0 | 8.772 | 2 | 35.042 | 8.938 | 32.854 | 2 |
| 2025-04-28T03:14:00 | 53.933619 | 6.305603 | 2.0 | 8.765 | 2 | 35.047 | 8.938 | 32.859 | 2 |
| 2025-04-28T03:15:00 | 53.934836 | 6.304707 | 2.0 | 8.762 | 2 | 35.051 | 8.933 | 32.868 | 2 |
| 2025-04-28T03:16:00 | 53.935319 | 6.302660 | 2.0 | 8.758 | 2 | 35.053 | 8.929 | 32.873 | 2 |
| 2025-04-28T03:17:00 | 53.935320 | 6.300405 | 2.0 | 8.757 | 2 | 35.051 | 8.926 | 32.874 | 2 |
| 2025-04-28T03:18:00 | 53.935294 | 6.298088 | 2.0 | 8.757 | 2 | 35.048 | 8.925 | 32.872 | 2 |
| 2025-04-28T03:19:00 | 53.935323 | 6.295796 | 2.0 | 8.756 | 2 | 35.045 | 8.924 | 32.870 | 2 |
| 2025-04-28T03:20:00 | 53.935367 | 6.293516 | 2.0 | 8.754 | 2 | 35.043 | 8.924 | 32.868 | 2 |
| 2025-04-28T03:21:00 | 53.935376 | 6.291246 | 2.0 | 8.753 | 2 | 35.038 | 8.921 | 32.865 | 2 |
| 2025-04-28T03:22:00 | 53.935362 | 6.288982 | 2.0 | 8.751 | 2 | 35.034 | 8.920 | 32.862 | 2 |
| 2025-04-28T03:23:00 | 53.935344 | 6.286719 | 2.0 | 8.750 | 2 | 35.029 | 8.918 | 32.859 | 2 |
| 2025-04-28T03:24:00 | 53.935335 | 6.284455 | 2.0 | 8.750 | 2 | 35.027 | 8.917 | 32.857 | 2 |
| 2025-04-28T03:25:00 | 53.935338 | 6.282199 | 2.0 | 8.749 | 2 | 35.025 | 8.917 | 32.855 | 2 |
| 2025-04-28T03:26:00 | 53.935353 | 6.279948 | 2.0 | 8.746 | 2 | 35.023 | 8.916 | 32.854 | 2 |
| 2025-04-28T03:27:00 | 53.935367 | 6.277705 | 2.0 | 8.744 | 2 | 35.019 | 8.913 | 32.853 | 2 |
| 2025-04-28T03:28:00 | 53.935378 | 6.275464 | 2.0 | 8.743 | 2 | 35.015 | 8.911 | 32.850 | 2 |
| 2025-04-28T03:29:00 | 53.935371 | 6.273230 | 2.0 | 8.736 | 2 | 35.011 | 8.910 | 32.847 | 2 |
| 2025-04-28T03:30:00 | 53.935367 | 6.270997 | 2.0 | 8.730 | 2 | 35.000 | 8.902 | 32.843 | 2 |
| 2025-04-28T03:31:00 | 53.935382 | 6.268766 | 2.0 | 8.731 | 2 | 34.987 | 8.898 | 32.833 | 2 |
| 2025-04-28T03:32:00 | 53.935399 | 6.266536 | 2.0 | 8.730 | 2 | 34.983 | 8.899 | 32.828 | 2 |
| 2025-04-28T03:33:00 | 53.935424 | 6.264307 | 2.0 | 8.733 | 2 | 34.971 | 8.897 | 32.818 | 2 |
| 2025-04-28T03:34:00 | 53.935445 | 6.262078 | 2.0 | 8.738 | 2 | 34.961 | 8.901 | 32.803 | 2 |
| 2025-04-28T03:35:00 | 53.935435 | 6.259849 | 2.0 | 8.741 | 2 | 34.964 | 8.905 | 32.803 | 2 |
| 2025-04-28T03:36:00 | 53.935415 | 6.257621 | 2.0 | 8.745 | 2 | 34.963 | 8.910 | 32.797 | 2 |
| 2025-04-28T03:37:00 | 53.935393 | 6.255395 | 2.0 | 8.745 | 2 | 34.967 | 8.912 | 32.799 | 2 |
| 2025-04-28T03:38:00 | 53.935383 | 6.253167 | 2.0 | 8.748 | 2 | 34.969 | 8.913 | 32.801 | 2 |
| 2025-04-28T03:39:00 | 53.935371 | 6.250941 | 2.0 | 8.744 | 2 | 34.974 | 8.914 | 32.805 | 2 |
| 2025-04-28T03:40:00 | 53.935364 | 6.248718 | 2.0 | 8.744 | 2 | 34.656 | 8.912 | 32.476 | 2 |
| 2025-04-28T03:41:00 | 53.935356 | 6.246498 | 2.0 | 8.739 | 2 | 34.974 | 8.910 | 32.809 | 2 |
| 2025-04-28T03:42:00 | 53.935346 | 6.244279 | 2.0 | 8.736 | 2 | 34.972 | 8.905 | 32.811 | 2 |
| 2025-04-28T03:43:00 | 53.935343 | 6.242062 | 2.0 | 8.730 | 2 | 34.974 | 8.902 | 32.816 | 2 |
| 2025-04-28T03:44:00 | 53.935346 | 6.239847 | 2.0 | 8.727 | 2 | 34.535 | 8.896 | 32.364 | 2 |
| 2025-04-28T03:45:00 | 53.935365 | 6.237635 | 2.0 | 8.720 | 2 | 34.969 | 8.894 | 32.818 | 2 |
| 2025-04-28T03:46:00 | 53.935403 | 6.235425 | 2.0 | 8.714 | 2 | 34.933 | 8.885 | 32.789 | 2 |
| 2025-04-28T03:47:00 | 53.935459 | 6.233218 | 2.0 | 8.721 | 2 | 34.375 | 8.883 | 32.210 | 2 |
| 2025-04-28T03:48:00 | 53.935486 | 6.231010 | 2.0 | 8.719 | 2 | 34.790 | 8.888 | 32.637 | 2 |
| 2025-04-28T03:49:00 | 53.935472 | 6.228804 | 2.0 | 8.716 | 2 | 34.956 | 8.886 | 32.812 | 2 |
| 2025-04-28T03:50:00 | 53.935449 | 6.226595 | 2.0 | 8.708 | 2 | 34.956 | 8.882 | 32.816 | 2 |
| 2025-04-28T03:51:00 | 53.935440 | 6.224382 | 2.0 | 8.714 | 2 | 34.564 | 8.877 | 32.412 | 2 |
| 2025-04-28T03:52:00 | 53.935450 | 6.222161 | 2.0 | 8.712 | 2 | 34.630 | 8.881 | 32.477 | 2 |
| 2025-04-28T03:53:00 | 53.935450 | 6.219940 | 2.0 | 8.706 | 2 | 34.829 | 8.878 | 32.687 | 2 |
| 2025-04-28T03:54:00 | 53.935431 | 6.217726 | 2.0 | 8.699 | 2 | 34.715 | 8.872 | 32.574 | 2 |
| 2025-04-28T03:55:00 | 53.935374 | 6.215525 | 2.0 | 8.689 | 2 | 34.496 | 8.866 | 32.351 | 2 |
| 2025-04-28T03:56:00 | 53.935312 | 6.213328 | 2.0 | 8.680 | 2 | 34.941 | 8.855 | 32.825 | 2 |
| 2025-04-28T03:57:00 | 53.935303 | 6.211130 | 2.0 | 8.670 | 2 | 34.891 | 8.846 | 32.781 | 2 |
| 2025-04-28T03:58:00 | 53.935322 | 6.208933 | 2.0 | 8.660 | 2 | 34.749 | 8.836 | 32.642 | 2 |
| 2025-04-28T03:59:00 | 53.935333 | 6.206752 | 2.0 | 8.657 | 2 | 34.949 | 8.829 | 32.858 | 2 |
| 2025-04-28T04:00:00 | 53.935331 | 6.204574 | 2.0 | 8.650 | 2 | 34.864 | 8.823 | 32.774 | 2 |
| 2025-04-28T04:01:00 | 53.935317 | 6.202392 | 2.0 | 8.648 | 2 | 34.868 | 8.818 | 32.783 | 2 |
| 2025-04-28T04:02:00 | 53.935302 | 6.200221 | 2.0 | 8.642 | 2 | 34.958 | 8.815 | 32.880 | 2 |
| 2025-04-28T04:03:00 | 53.935471 | 6.198090 | 2.0 | 8.638 | 2 | 34.770 | 8.809 | 32.689 | 2 |
| 2025-04-28T04:04:00 | 53.935945 | 6.196156 | 2.0 | 8.638 | 2 | 34.732 | 8.806 | 32.652 | 2 |
| 2025-04-28T04:05:00 | 53.936319 | 6.194242 | 2.0 | 8.631 | 2 | 34.838 | 8.803 | 32.766 | 2 |
| 2025-04-28T04:06:00 | 53.936106 | 6.192425 | 2.0 | 8.624 | 2 | 34.672 | 8.796 | 32.599 | 2 |
| 2025-04-28T04:07:00 | 53.935237 | 6.191450 | 2.0 | 8.622 | 2 | 34.701 | 8.789 | 32.635 | 2 |
| 2025-04-28T04:08:00 | 53.934300 | 6.192039 | 2.0 | 8.623 | 2 | 34.761 | 8.788 | 32.699 | 2 |
| 2025-04-28T04:09:00 | 53.933918 | 6.193809 | 2.0 | 8.628 | 2 | 34.799 | 8.790 | 32.737 | 2 |
| 2025-04-28T04:10:00 | 53.933788 | 6.195962 | 2.0 | 8.633 | 2 | 34.780 | 8.796 | 32.712 | 2 |
| 2025-04-28T04:11:00 | 53.933728 | 6.198097 | 2.0 | 8.640 | 2 | 34.822 | 8.801 | 32.751 | 2 |
| 2025-04-28T04:12:00 | 53.933691 | 6.200239 | 2.0 | 8.653 | 2 | 34.750 | 8.810 | 32.667 | 2 |
| 2025-04-28T04:13:00 | 53.933718 | 6.202388 | 2.0 | 8.662 | 2 | 34.875 | 8.822 | 32.787 | 2 |
| 2025-04-28T04:14:00 | 53.933721 | 6.204541 | 2.0 | 8.690 | 2 | 34.620 | 8.834 | 32.510 | 2 |
| 2025-04-28T04:15:00 | 53.933705 | 6.206696 | 2.0 | 8.718 | 2 | 34.764 | 8.861 | 32.635 | 2 |
| 2025-04-28T04:16:00 | 53.933699 | 6.208857 | 2.0 | 8.739 | 2 | 34.758 | 8.887 | 32.605 | 2 |
| 2025-04-28T04:17:00 | 53.933708 | 6.211028 | 2.0 | 8.750 | 2 | 34.792 | 8.907 | 32.622 | 2 |
| 2025-04-28T04:18:00 | 53.933714 | 6.213209 | 2.0 | 8.760 | 2 | 34.818 | 8.918 | 32.639 | 2 |
| 2025-04-28T04:19:00 | 53.933704 | 6.215396 | 2.0 | 8.764 | 2 | 34.891 | 8.927 | 32.706 | 2 |
| 2025-04-28T04:20:00 | 53.933695 | 6.217591 | 2.0 | 8.770 | 2 | 34.929 | 8.931 | 32.742 | 2 |
| 2025-04-28T04:21:00 | 53.933708 | 6.219801 | 2.0 | 8.773 | 2 | 34.849 | 8.938 | 32.653 | 2 |
| 2025-04-28T04:22:00 | 53.933717 | 6.222028 | 2.0 | 8.772 | 2 | 34.861 | 8.939 | 32.664 | 2 |
| 2025-04-28T04:23:00 | 53.933698 | 6.224266 | 2.0 | 8.754 | 2 | 34.738 | 8.936 | 32.539 | 2 |
| 2025-04-28T04:24:00 | 53.933667 | 6.226518 | 2.0 | 8.736 | 2 | 34.808 | 8.918 | 32.628 | 2 |
| 2025-04-28T04:25:00 | 53.933621 | 6.228791 | 2.0 | 8.728 | 2 | 34.851 | 8.901 | 32.689 | 2 |
| 2025-04-28T04:26:00 | 53.933596 | 6.231086 | 2.0 | 8.734 | 2 | 34.789 | 8.897 | 32.628 | 2 |
| 2025-04-28T04:27:00 | 53.933670 | 6.233326 | 2.0 | 8.738 | 2 | 34.789 | 8.902 | 32.623 | 2 |
| 2025-04-28T04:28:00 | 53.933707 | 6.235493 | 2.0 | 8.739 | 2 | 34.880 | 8.906 | 32.714 | 2 |
| 2025-04-28T04:29:00 | 53.933703 | 6.237611 | 2.0 | 8.738 | 2 | 34.562 | 8.907 | 32.382 | 2 |
| 2025-04-28T04:30:00 | 53.933671 | 6.239705 | 2.0 | 8.736 | 2 | 34.855 | 8.904 | 32.690 | 2 |
| 2025-04-28T04:31:00 | 53.933688 | 6.241781 | 2.0 | 8.733 | 2 | 34.675 | 8.902 | 32.505 | 2 |
| 2025-04-28T04:32:00 | 53.933695 | 6.243858 | 2.0 | 8.728 | 2 | 34.899 | 8.898 | 32.742 | 2 |
| 2025-04-28T04:33:00 | 53.933674 | 6.245934 | 2.0 | 8.729 | 2 | 34.797 | 8.896 | 32.637 | 2 |
| 2025-04-28T04:34:00 | 53.933632 | 6.248011 | 2.0 | 8.732 | 2 | 34.625 | 8.896 | 32.458 | 2 |
| 2025-04-28T04:35:00 | 53.933632 | 6.250095 | 2.0 | 8.735 | 2 | 34.785 | 8.900 | 32.621 | 2 |
| 2025-04-28T04:36:00 | 53.933658 | 6.252186 | 2.0 | 8.736 | 2 | 34.779 | 8.902 | 32.613 | 2 |
| 2025-04-28T04:37:00 | 53.933692 | 6.254287 | 2.0 | 8.735 | 2 | 34.633 | 8.902 | 32.461 | 2 |
| 2025-04-28T04:38:00 | 53.933714 | 6.256400 | 2.0 | 8.738 | 2 | 34.984 | 8.903 | 32.826 | 2 |
| 2025-04-28T04:39:00 | 53.933729 | 6.258526 | 2.0 | 8.739 | 2 | 34.908 | 8.905 | 32.744 | 2 |
| 2025-04-28T04:40:00 | 53.933736 | 6.260656 | 2.0 | 8.740 | 2 | 34.662 | 8.906 | 32.487 | 2 |
| 2025-04-28T04:41:00 | 53.933716 | 6.262812 | 2.0 | 8.740 | 2 | 34.869 | 8.906 | 32.703 | 2 |
| 2025-04-28T04:42:00 | 53.933701 | 6.264972 | 2.0 | 8.742 | 2 | 34.991 | 8.908 | 32.828 | 2 |
| 2025-04-28T04:43:00 | 53.933701 | 6.267141 | 2.0 | 8.745 | 2 | 34.958 | 8.910 | 32.792 | 2 |
| 2025-04-28T04:44:00 | 53.933707 | 6.269312 | 2.0 | 8.751 | 2 | 34.957 | 8.913 | 32.788 | 2 |
| 2025-04-28T04:45:00 | 53.933727 | 6.271499 | 2.0 | 8.754 | 2 | 34.982 | 8.918 | 32.810 | 2 |
| 2025-04-28T04:46:00 | 53.933741 | 6.273703 | 2.0 | 8.762 | 2 | 35.040 | 8.922 | 32.866 | 2 |
| 2025-04-28T04:47:00 | 53.933735 | 6.275919 | 2.0 | 8.765 | 2 | 35.027 | 8.928 | 32.847 | 2 |
| 2025-04-28T04:48:00 | 53.933726 | 6.278144 | 2.0 | 8.772 | 2 | 34.976 | 8.933 | 32.789 | 2 |
| 2025-04-28T04:49:00 | 53.933723 | 6.280377 | 2.0 | 8.779 | 2 | 34.897 | 8.939 | 32.702 | 2 |
| 2025-04-28T04:50:00 | 53.933743 | 6.282619 | 2.0 | 8.787 | 2 | 35.003 | 8.947 | 32.805 | 2 |
| 2025-04-28T04:51:00 | 53.933736 | 6.284869 | 2.0 | 8.792 | 2 | 34.971 | 8.954 | 32.765 | 2 |
| 2025-04-28T04:52:00 | 53.933727 | 6.287122 | 2.0 | 8.800 | 2 | 34.916 | 8.960 | 32.702 | 2 |
| 2025-04-28T04:53:00 | 53.933721 | 6.289383 | 2.0 | 8.807 | 2 | 35.032 | 8.967 | 32.816 | 2 |
| 2025-04-28T04:54:00 | 53.933712 | 6.291650 | 2.0 | 8.814 | 2 | 35.046 | 8.975 | 32.824 | 2 |
| 2025-04-28T04:55:00 | 53.933714 | 6.293925 | 2.0 | 8.821 | 2 | 35.064 | 8.981 | 32.837 | 2 |
| 2025-04-28T04:56:00 | 53.933728 | 6.296197 | 2.0 | 8.832 | 2 | 34.993 | 8.988 | 32.756 | 2 |
| 2025-04-28T04:57:00 | 53.933713 | 6.298471 | 2.0 | 8.833 | 2 | 35.042 | 8.997 | 32.799 | 2 |
| 2025-04-28T04:58:00 | 53.933653 | 6.300752 | 2.0 | 8.840 | 2 | 35.113 | 9.000 | 32.870 | 2 |
| 2025-04-28T04:59:00 | 53.933659 | 6.303003 | 2.0 | 8.848 | 2 | 35.088 | 9.007 | 32.838 | 2 |
| 2025-04-28T05:00:00 | 53.933718 | 6.304991 | 2.0 | 8.855 | 2 | 35.108 | 9.015 | 32.851 | 2 |
| 2025-04-28T05:01:00 | 53.933943 | 6.306632 | 2.0 | 8.856 | 2 | 35.164 | 9.022 | 32.903 | 2 |
| 2025-04-28T05:02:00 | 53.934189 | 6.308063 | 2.0 | 8.857 | 2 | 35.141 | 9.022 | 32.879 | 2 |
| 2025-04-28T05:03:00 | 53.934442 | 6.309344 | 2.0 | 8.860 | 2 | 35.128 | 9.023 | 32.864 | 2 |
| 2025-04-28T05:04:00 | 53.934674 | 6.310522 | 2.0 | 8.866 | 2 | 35.156 | 9.027 | 32.890 | 2 |
| 2025-04-28T05:05:00 | 53.934889 | 6.311624 | 2.0 | 8.872 | 2 | 35.159 | 9.033 | 32.887 | 2 |
| 2025-04-28T05:06:00 | 53.935090 | 6.312660 | 2.0 | 8.874 | 2 | 35.167 | 9.036 | 32.893 | 2 |
| 2025-04-28T05:07:00 | 53.935271 | 6.313617 | 2.0 | 8.882 | 2 | 35.188 | 9.042 | 32.909 | 2 |
| 2025-04-28T05:08:00 | 53.935405 | 6.314490 | 2.0 | 8.884 | 2 | 35.186 | 9.047 | 32.903 | 2 |
| 2025-04-28T05:09:00 | 53.935302 | 6.315145 | 2.0 | 8.882 | 2 | 35.194 | 9.050 | 32.908 | 2 |
| 2025-04-28T05:10:00 | 53.935097 | 6.315482 | 2.0 | 8.881 | 2 | 35.199 | 9.047 | 32.916 | 2 |
| 2025-04-28T05:11:00 | 53.934900 | 6.315643 | 2.0 | 8.881 | 2 | 35.201 | 9.047 | 32.918 | 2 |
| 2025-04-28T05:12:00 | 53.934731 | 6.315758 | 2.0 | 8.884 | 2 | 35.201 | 9.047 | 32.918 | 2 |
| 2025-04-28T05:13:00 | 53.934574 | 6.315855 | 2.0 | 8.885 | 2 | 35.190 | 9.049 | 32.905 | 2 |
| 2025-04-28T05:14:00 | 53.934434 | 6.315943 | 2.0 | 8.885 | 2 | 35.202 | 9.050 | 32.916 | 2 |
| 2025-04-28T05:15:00 | 53.934308 | 6.316032 | 2.0 | 8.885 | 2 | 35.205 | 9.051 | 32.919 | 2 |
| 2025-04-28T05:16:00 | 53.934195 | 6.316127 | 2.0 | 8.885 | 2 | 35.202 | 9.051 | 32.915 | 2 |
| 2025-04-28T05:17:00 | 53.934087 | 6.316220 | 2.0 | 8.885 | 2 | 35.204 | 9.051 | 32.918 | 2 |
| 2025-04-28T05:18:00 | 53.933993 | 6.316321 | 2.0 | 8.885 | 2 | 35.204 | 9.051 | 32.918 | 2 |
| 2025-04-28T05:19:00 | 53.933907 | 6.316432 | 2.0 | 8.883 | 2 | 35.203 | 9.051 | 32.916 | 2 |
| 2025-04-28T05:20:00 | 53.933822 | 6.316558 | 2.0 | 8.884 | 2 | 35.202 | 9.049 | 32.917 | 2 |
| 2025-04-28T05:21:00 | 53.933754 | 6.316694 | 2.0 | 8.885 | 2 | 35.201 | 9.049 | 32.916 | 2 |
| 2025-04-28T05:22:00 | 53.933692 | 6.316843 | 2.0 | 8.886 | 2 | 35.202 | 9.050 | 32.916 | 2 |
| 2025-04-28T05:23:00 | 53.933630 | 6.316997 | 2.0 | 8.886 | 2 | 35.204 | 9.051 | 32.918 | 2 |
| 2025-04-28T05:24:00 | 53.933574 | 6.317166 | 2.0 | 8.889 | 2 | 35.204 | 9.051 | 32.918 | 2 |
| 2025-04-28T05:25:00 | 53.933508 | 6.317342 | 2.0 | 8.890 | 2 | 35.207 | 9.055 | 32.917 | 2 |
| 2025-04-28T05:26:00 | 53.933294 | 6.317342 | 2.0 | 8.884 | 2 | 35.207 | 9.054 | 32.918 | 2 |
| 2025-04-28T05:27:00 | 53.933264 | 6.316449 | 2.0 | 8.882 | 2 | 35.203 | 9.049 | 32.918 | 2 |
| 2025-04-28T05:28:00 | 53.933530 | 6.313825 | 2.0 | 8.874 | 2 | 35.202 | 9.047 | 32.919 | 2 |
| 2025-04-28T05:29:00 | 53.934018 | 6.309609 | 2.0 | 8.856 | 2 | 35.194 | 9.039 | 32.918 | 2 |
| 2025-04-28T05:30:00 | 53.934568 | 6.304906 | 2.0 | 8.847 | 2 | 35.191 | 9.025 | 32.928 | 2 |
| 2025-04-28T05:31:00 | 53.935133 | 6.300089 | 2.0 | 8.834 | 2 | 35.116 | 9.016 | 32.858 | 2 |
| 2025-04-28T05:32:00 | 53.935711 | 6.295255 | 2.0 | 8.823 | 2 | 35.113 | 9.003 | 32.867 | 2 |
| 2025-04-28T05:33:00 | 53.936292 | 6.290444 | 2.0 | 8.813 | 2 | 35.127 | 8.993 | 32.891 | 2 |
| 2025-04-28T05:34:00 | 53.936881 | 6.285614 | 2.0 | 8.799 | 2 | 35.078 | 8.981 | 32.851 | 2 |
| 2025-04-28T05:35:00 | 53.937465 | 6.280814 | 2.0 | 8.787 | 2 | 35.081 | 8.967 | 32.867 | 2 |
| 2025-04-28T05:36:00 | 53.938055 | 6.276012 | 2.0 | 8.779 | 2 | 35.136 | 8.957 | 32.934 | 2 |
| 2025-04-28T05:37:00 | 53.938646 | 6.271207 | 2.0 | 8.771 | 2 | 35.085 | 8.948 | 32.889 | 2 |
| 2025-04-28T05:38:00 | 53.939244 | 6.266412 | 2.0 | 8.765 | 2 | 34.971 | 8.941 | 32.777 | 2 |
| 2025-04-28T05:39:00 | 53.939836 | 6.261614 | 2.0 | 8.759 | 2 | 35.081 | 8.935 | 32.897 | 2 |
| 2025-04-28T05:40:00 | 53.940426 | 6.256832 | 2.0 | 8.754 | 2 | 35.043 | 8.928 | 32.864 | 2 |
| 2025-04-28T05:41:00 | 53.941030 | 6.252073 | 2.0 | 8.749 | 2 | 34.988 | 8.923 | 32.811 | 2 |
| 2025-04-28T05:42:00 | 53.941630 | 6.247309 | 2.0 | 8.739 | 2 | 34.977 | 8.918 | 32.804 | 2 |
| 2025-04-28T05:43:00 | 53.942270 | 6.242564 | 2.0 | 8.726 | 2 | 35.060 | 8.906 | 32.902 | 2 |
| 2025-04-28T05:44:00 | 53.943126 | 6.237941 | 2.0 | 8.716 | 2 | 35.034 | 8.895 | 32.885 | 2 |
| 2025-04-28T05:45:00 | 53.944006 | 6.233297 | 2.0 | 8.708 | 2 | 34.951 | 8.885 | 32.808 | 2 |
| 2025-04-28T05:46:00 | 53.944910 | 6.228652 | 2.0 | 8.695 | 2 | 35.008 | 8.876 | 32.876 | 2 |
| 2025-04-28T05:47:00 | 53.945886 | 6.224028 | 2.0 | 8.694 | 2 | 34.963 | 8.872 | 32.832 | 2 |
| 2025-04-28T05:48:00 | 53.946964 | 6.219467 | 2.0 | 8.693 | 2 | 34.922 | 8.877 | 32.785 | 2 |
| 2025-04-28T05:49:00 | 53.947974 | 6.214869 | 2.0 | 8.689 | 2 | 34.983 | 8.880 | 32.846 | 2 |
| 2025-04-28T05:50:00 | 53.948863 | 6.210499 | 2.0 | 8.684 | 2 | 34.988 | 8.879 | 32.852 | 2 |
| 2025-04-28T05:51:00 | 53.949637 | 6.207328 | 2.0 | 8.679 | 2 | 34.997 | 8.874 | 32.866 | 2 |
| 2025-04-28T05:52:00 | 53.950400 | 6.205128 | 2.0 | 8.676 | 2 | 35.004 | 8.870 | 32.877 | 2 |
| 2025-04-28T05:53:00 | 53.950947 | 6.203241 | 2.0 | 8.675 | 2 | 35.000 | 8.867 | 32.876 | 2 |
| 2025-04-28T05:54:00 | 53.951589 | 6.202980 | 2.0 | 8.673 | 2 | 34.998 | 8.863 | 32.877 | 2 |
| 2025-04-28T05:55:00 | 53.951808 | 6.203612 | 2.0 | 8.672 | 2 | 34.991 | 8.863 | 32.870 | 2 |
| 2025-04-28T05:56:00 | 53.951923 | 6.204030 | 2.0 | 8.673 | 2 | 34.972 | 8.863 | 32.850 | 2 |
| 2025-04-28T05:57:00 | 53.951844 | 6.204484 | 2.0 | 8.676 | 2 | 35.002 | 8.863 | 32.881 | 2 |
| 2025-04-28T05:58:00 | 53.951773 | 6.204562 | 2.0 | 8.673 | 2 | 35.003 | 8.867 | 32.879 | 2 |
| 2025-04-28T05:59:00 | 53.951754 | 6.204223 | 2.0 | 8.669 | 2 | 35.007 | 8.865 | 32.885 | 2 |
| 2025-04-28T06:00:00 | 53.951781 | 6.204074 | 2.0 | 8.672 | 2 | 35.009 | 8.862 | 32.890 | 2 |
| 2025-04-28T06:01:00 | 53.951822 | 6.204130 | 2.0 | 8.673 | 2 | 35.008 | 8.866 | 32.885 | 2 |
| 2025-04-28T06:02:00 | 53.951783 | 6.204195 | 2.0 | 8.675 | 2 | 35.007 | 8.867 | 32.883 | 2 |
| 2025-04-28T06:03:00 | 53.951633 | 6.204211 | 2.0 | 8.677 | 2 | 35.007 | 8.869 | 32.881 | 2 |
| 2025-04-28T06:04:00 | 53.951530 | 6.204176 | 2.0 | 8.676 | 2 | 35.010 | 8.871 | 32.882 | 2 |
| 2025-04-28T06:05:00 | 53.951597 | 6.203808 | 2.0 | 8.675 | 2 | 35.006 | 8.870 | 32.879 | 2 |
| 2025-04-28T06:06:00 | 53.951686 | 6.203065 | 2.0 | 8.677 | 2 | 35.004 | 8.872 | 32.875 | 2 |
| 2025-04-28T06:07:00 | 53.951261 | 6.202831 | 2.0 | 8.678 | 2 | 35.008 | 8.874 | 32.877 | 2 |
| 2025-04-28T06:08:00 | 53.950398 | 6.202358 | 2.0 | 8.675 | 2 | 35.009 | 8.874 | 32.878 | 2 |
| 2025-04-28T06:09:00 | 53.950130 | 6.201698 | 2.0 | 8.671 | 2 | 35.007 | 8.870 | 32.880 | 2 |
| 2025-04-28T06:10:00 | 53.950212 | 6.201339 | 2.0 | 8.672 | 2 | 35.009 | 8.869 | 32.883 | 2 |
| 2025-04-28T06:11:00 | 53.950223 | 6.201264 | 2.0 | 8.674 | 2 | 35.010 | 8.869 | 32.884 | 2 |
| 2025-04-28T06:12:00 | 53.950195 | 6.201246 | 2.0 | 8.672 | 2 | 35.010 | 8.871 | 32.882 | 2 |
| 2025-04-28T06:13:00 | 53.950008 | 6.201159 | 2.0 | 8.669 | 2 | 35.007 | 8.868 | 32.882 | 2 |
| 2025-04-28T06:14:00 | 53.950054 | 6.200196 | 2.0 | 8.671 | 2 | 34.999 | 8.868 | 32.874 | 2 |
| 2025-04-28T06:15:00 | 53.949514 | 6.199427 | 2.0 | 8.674 | 2 | 35.002 | 8.872 | 32.873 | 2 |
| 2025-04-28T06:16:00 | 53.948840 | 6.200559 | 2.0 | 8.676 | 2 | 35.005 | 8.875 | 32.873 | 2 |
| 2025-04-28T06:17:00 | 53.948232 | 6.201889 | 2.0 | 8.673 | 2 | 35.004 | 8.876 | 32.871 | 2 |
| 2025-04-28T06:18:00 | 53.947974 | 6.202026 | 2.0 | 8.671 | 2 | 35.002 | 8.871 | 32.874 | 2 |
| 2025-04-28T06:19:00 | 53.947867 | 6.201485 | 2.0 | 8.673 | 2 | 35.003 | 8.872 | 32.874 | 2 |
| 2025-04-28T06:20:00 | 53.947833 | 6.201054 | 2.0 | 8.675 | 2 | 35.003 | 8.872 | 32.874 | 2 |
| 2025-04-28T06:21:00 | 53.947839 | 6.201151 | 2.0 | 8.672 | 2 | 35.008 | 8.876 | 32.876 | 2 |
| 2025-04-28T06:22:00 | 53.947746 | 6.201277 | 2.0 | 8.672 | 2 | 35.008 | 8.872 | 32.879 | 2 |
| 2025-04-28T06:23:00 | 53.947552 | 6.201191 | 2.0 | 8.671 | 2 | 35.008 | 8.872 | 32.879 | 2 |
| 2025-04-28T06:24:00 | 53.947227 | 6.200264 | 2.0 | 8.672 | 2 | 35.009 | 8.873 | 32.879 | 2 |
| 2025-04-28T06:25:00 | 53.946730 | 6.198609 | 2.0 | 8.668 | 2 | 35.012 | 8.873 | 32.882 | 2 |
| 2025-04-28T06:26:00 | 53.946107 | 6.196525 | 2.0 | 8.663 | 2 | 35.012 | 8.869 | 32.886 | 2 |
| 2025-04-28T06:27:00 | 53.945428 | 6.194196 | 2.0 | 8.657 | 2 | 35.005 | 8.865 | 32.883 | 2 |
| 2025-04-28T06:28:00 | 53.944929 | 6.191687 | 2.0 | 8.651 | 2 | 35.005 | 8.860 | 32.887 | 2 |
| 2025-04-28T06:29:00 | 53.944622 | 6.189560 | 2.0 | 8.645 | 2 | 35.011 | 8.852 | 32.901 | 2 |
| 2025-04-28T06:30:00 | 53.944377 | 6.187808 | 2.0 | 8.641 | 2 | 35.014 | 8.847 | 32.909 | 2 |
| 2025-04-28T06:31:00 | 53.944173 | 6.186303 | 2.0 | 8.637 | 2 | 35.018 | 8.844 | 32.916 | 2 |
| 2025-04-28T06:32:00 | 53.943967 | 6.184797 | 2.0 | 8.634 | 2 | 35.019 | 8.840 | 32.920 | 2 |
| 2025-04-28T06:33:00 | 53.943844 | 6.183452 | 2.0 | 8.630 | 2 | 35.022 | 8.836 | 32.927 | 2 |
| 2025-04-28T06:34:00 | 53.943804 | 6.182434 | 2.0 | 8.631 | 2 | 35.025 | 8.832 | 32.934 | 2 |
| 2025-04-28T06:35:00 | 53.943647 | 6.181998 | 2.0 | 8.634 | 2 | 35.031 | 8.833 | 32.939 | 2 |
| 2025-04-28T06:36:00 | 53.943430 | 6.181766 | 2.0 | 8.630 | 2 | 35.034 | 8.837 | 32.939 | 2 |
| 2025-04-28T06:37:00 | 53.943339 | 6.181760 | 2.0 | 8.630 | 2 | 35.034 | 8.832 | 32.944 | 2 |
| 2025-04-28T06:38:00 | 53.943274 | 6.181813 | 2.0 | 8.623 | 2 | 35.034 | 8.831 | 32.944 | 2 |
| 2025-04-28T06:39:00 | 53.943099 | 6.181859 | 2.0 | 8.616 | 2 | 35.030 | 8.824 | 32.947 | 2 |
| 2025-04-28T06:40:00 | 53.942800 | 6.181420 | 2.0 | 8.615 | 2 | 35.028 | 8.818 | 32.950 | 2 |
| 2025-04-28T06:41:00 | 53.942457 | 6.180466 | 2.0 | 8.622 | 2 | 35.034 | 8.821 | 32.954 | 2 |
| 2025-04-28T06:42:00 | 53.942135 | 6.179482 | 2.0 | 8.629 | 2 | 35.048 | 8.826 | 32.964 | 2 |
| 2025-04-28T06:43:00 | 53.941751 | 6.178841 | 2.0 | 8.648 | 2 | 35.076 | 8.835 | 32.985 | 2 |
| 2025-04-28T06:44:00 | 53.941435 | 6.178689 | 2.0 | 8.707 | 2 | 35.100 | 8.862 | 32.985 | 2 |
| 2025-04-28T06:45:00 | 53.941159 | 6.178774 | 2.0 | 8.723 | 2 | 35.150 | 8.903 | 32.999 | 2 |
| 2025-04-28T06:46:00 | 53.941006 | 6.178933 | 2.0 | 8.730 | 2 | 35.176 | 8.928 | 33.002 | 2 |
| 2025-04-28T06:47:00 | 53.940827 | 6.179014 | 2.0 | 8.717 | 2 | 35.177 | 8.927 | 33.004 | 2 |
| 2025-04-28T06:48:00 | 53.940620 | 6.179005 | 2.0 | 8.708 | 2 | 35.171 | 8.922 | 33.003 | 2 |
| 2025-04-28T06:49:00 | 53.940307 | 6.178454 | 2.0 | 8.717 | 2 | 35.162 | 8.912 | 33.003 | 2 |
| 2025-04-28T06:50:00 | 53.939868 | 6.177506 | 2.0 | 8.713 | 2 | 35.165 | 8.919 | 32.999 | 2 |
| 2025-04-28T06:51:00 | 53.938789 | 6.177681 | 2.0 | 8.712 | 2 | 35.158 | 8.918 | 32.993 | 2 |
| 2025-04-28T06:52:00 | 53.937905 | 6.180454 | 2.0 | 8.714 | 2 | 35.156 | 8.916 | 32.993 | 2 |
| 2025-04-28T06:53:00 | 53.936698 | 6.184289 | 2.0 | 8.684 | 2 | 35.154 | 8.921 | 32.986 | 2 |
| 2025-04-28T06:54:00 | 53.935204 | 6.188371 | 2.0 | 8.632 | 2 | 35.114 | 8.877 | 32.985 | 2 |
| 2025-04-28T06:55:00 | 53.933459 | 6.192227 | 2.0 | 8.631 | 2 | 35.059 | 8.841 | 32.961 | 2 |
| 2025-04-28T06:56:00 | 53.931756 | 6.196176 | 2.0 | 8.632 | 2 | 35.050 | 8.840 | 32.953 | 2 |
| 2025-04-28T06:57:00 | 53.930496 | 6.199882 | 2.0 | 8.637 | 2 | 35.048 | 8.842 | 32.949 | 2 |
| 2025-04-28T06:58:00 | 53.929586 | 6.202900 | 2.0 | 8.646 | 2 | 35.042 | 8.844 | 32.941 | 2 |
| 2025-04-28T06:59:00 | 53.928682 | 6.205283 | 2.0 | 8.644 | 2 | 35.039 | 8.850 | 32.932 | 2 |
| 2025-04-28T07:00:00 | 53.927872 | 6.206734 | 2.0 | 8.639 | 2 | 35.034 | 8.848 | 32.929 | 2 |
| 2025-04-28T07:01:00 | 53.927508 | 6.206875 | 2.0 | 8.631 | 2 | 35.030 | 8.842 | 32.930 | 2 |
| 2025-04-28T07:02:00 | 53.927393 | 6.206457 | 2.0 | 8.641 | 2 | 35.029 | 8.837 | 32.934 | 2 |
| 2025-04-28T07:03:00 | 53.927372 | 6.205830 | 2.0 | 8.635 | 2 | 35.035 | 8.843 | 32.934 | 2 |
| 2025-04-28T07:04:00 | 53.927359 | 6.205442 | 2.0 | 8.630 | 2 | 35.034 | 8.838 | 32.938 | 2 |
| 2025-04-28T07:05:00 | 53.927300 | 6.205283 | 2.0 | 8.643 | 2 | 35.035 | 8.836 | 32.941 | 2 |
| 2025-04-28T07:06:00 | 53.927185 | 6.205038 | 2.0 | 8.636 | 2 | 35.045 | 8.846 | 32.942 | 2 |
| 2025-04-28T07:07:00 | 53.927082 | 6.204826 | 2.0 | 8.638 | 2 | 35.045 | 8.839 | 32.948 | 2 |
| 2025-04-28T07:08:00 | 53.927024 | 6.204686 | 2.0 | 8.648 | 2 | 35.051 | 8.843 | 32.951 | 2 |
| 2025-04-28T07:09:00 | 53.927007 | 6.204668 | 2.0 | 8.643 | 2 | 35.062 | 8.851 | 32.955 | 2 |
| 2025-04-28T07:10:00 | 53.926866 | 6.204657 | 2.0 | 8.632 | 2 | 35.062 | 8.845 | 32.961 | 2 |
| 2025-04-28T07:11:00 | 53.926577 | 6.204585 | 2.0 | 8.642 | 2 | 35.060 | 8.840 | 32.963 | 2 |
| 2025-04-28T07:12:00 | 53.926468 | 6.203556 | 2.0 | 8.655 | 2 | 35.073 | 8.853 | 32.965 | 2 |
| 2025-04-28T07:13:00 | 53.926774 | 6.201858 | 2.0 | 8.654 | 2 | 35.080 | 8.858 | 32.967 | 2 |
| 2025-04-28T07:14:00 | 53.928304 | 6.201765 | 2.0 | 8.658 | 2 | 35.097 | 8.867 | 32.977 | 2 |
| 2025-04-28T07:15:00 | 53.930488 | 6.202297 | 2.0 | 8.637 | 2 | 35.091 | 8.863 | 32.974 | 2 |
| 2025-04-28T07:16:00 | 53.932946 | 6.202872 | 2.0 | 8.636 | 2 | 35.067 | 8.848 | 32.963 | 2 |
| 2025-04-28T07:17:00 | 53.935484 | 6.203600 | 2.0 | 8.644 | 2 | 35.057 | 8.850 | 32.951 | 2 |
| 2025-04-28T07:18:00 | 53.937976 | 6.204992 | 2.0 | 8.650 | 2 | 35.063 | 8.860 | 32.948 | 2 |
| 2025-04-28T07:19:00 | 53.940508 | 6.206357 | 2.0 | 8.650 | 2 | 35.057 | 8.860 | 32.942 | 2 |
| 2025-04-28T07:20:00 | 53.943065 | 6.207722 | 2.0 | 8.658 | 2 | 35.049 | 8.863 | 32.930 | 2 |
| 2025-04-28T07:21:00 | 53.945519 | 6.209066 | 2.0 | 8.662 | 2 | 35.045 | 8.867 | 32.922 | 2 |
| 2025-04-28T07:22:00 | 53.947579 | 6.210270 | 2.0 | 8.665 | 2 | 35.047 | 8.876 | 32.916 | 2 |
| 2025-04-28T07:23:00 | 53.949226 | 6.211447 | 2.0 | 8.659 | 2 | 35.046 | 8.874 | 32.917 | 2 |
| 2025-04-28T07:24:00 | 53.950082 | 6.211552 | 2.0 | 8.701 | 2 | 35.040 | 8.873 | 32.912 | 2 |
| 2025-04-28T07:25:00 | 53.950237 | 6.211534 | 2.0 | 8.730 | 2 | 35.088 | 8.935 | 32.904 | 2 |
| 2025-04-28T07:26:00 | 53.950227 | 6.211279 | 2.0 | 8.673 | 2 | 35.085 | 8.917 | 32.918 | 2 |
| 2025-04-28T07:27:00 | 53.950070 | 6.210791 | 2.0 | 8.658 | 2 | 35.052 | 8.879 | 32.919 | 2 |
| 2025-04-28T07:28:00 | 53.949953 | 6.210500 | 2.0 | 8.666 | 2 | 35.045 | 8.869 | 32.921 | 2 |
| 2025-04-28T07:29:00 | 53.949906 | 6.210318 | 2.0 | 8.662 | 2 | 35.049 | 8.873 | 32.921 | 2 |
| 2025-04-28T07:30:00 | 53.949877 | 6.210263 | 2.0 | 8.677 | 2 | 35.051 | 8.871 | 32.925 | 2 |
| 2025-04-28T07:31:00 | 53.949881 | 6.210293 | 2.0 | 8.659 | 2 | 35.062 | 8.882 | 32.926 | 2 |
| 2025-04-28T07:32:00 | 53.949884 | 6.210047 | 2.0 | 8.667 | 2 | 35.055 | 8.870 | 32.930 | 2 |
| 2025-04-28T07:33:00 | 53.949920 | 6.209589 | 2.0 | 8.668 | 2 | 35.061 | 8.876 | 32.931 | 2 |
| 2025-04-28T07:34:00 | 53.949930 | 6.209109 | 2.0 | 8.656 | 2 | 35.064 | 8.874 | 32.936 | 2 |
| 2025-04-28T07:35:00 | 53.949950 | 6.208642 | 2.0 | 8.667 | 2 | 35.061 | 8.869 | 32.937 | 2 |
| 2025-04-28T07:36:00 | 53.950035 | 6.208290 | 2.0 | 8.754 | 2 | 35.073 | 8.881 | 32.939 | 2 |
| 2025-04-28T07:37:00 | 53.950126 | 6.208051 | 2.0 | 8.882 | 2 | 35.152 | 8.977 | 32.932 | 2 |
| 2025-04-28T07:38:00 | 53.950196 | 6.207839 | 2.0 | 8.843 | 2 | 35.259 | 9.086 | 32.942 | 2 |
| 2025-04-28T07:39:00 | 53.950168 | 6.207657 | 2.0 | 8.830 | 2 | 35.237 | 9.047 | 32.956 | 2 |
| 2025-04-28T07:40:00 | 53.950083 | 6.207516 | 2.0 | 8.862 | 2 | 35.237 | 9.045 | 32.957 | 2 |
| 2025-04-28T07:41:00 | 53.949924 | 6.207193 | 2.0 | 8.724 | 2 | 35.247 | 9.044 | 32.969 | 2 |
| 2025-04-28T07:42:00 | 53.949779 | 6.206864 | 2.0 | 8.750 | 2 | 35.165 | 8.932 | 32.987 | 2 |
| 2025-04-28T07:43:00 | 53.949744 | 6.206643 | 2.0 | 8.793 | 2 | 35.218 | 8.987 | 32.991 | 2 |
| 2025-04-28T07:44:00 | 53.949804 | 6.206296 | 2.0 | 8.725 | 2 | 35.233 | 8.977 | 33.016 | 2 |
| 2025-04-28T07:45:00 | 53.949838 | 6.206016 | 2.0 | 8.780 | 2 | 35.212 | 8.963 | 33.007 | 2 |
| 2025-04-28T07:46:00 | 53.949864 | 6.205869 | 2.0 | 8.742 | 2 | 35.244 | 8.994 | 33.012 | 2 |
| 2025-04-28T07:47:00 | 53.949885 | 6.205741 | 2.0 | 8.760 | 2 | 35.211 | 8.959 | 33.010 | 2 |
| 2025-04-28T07:48:00 | 53.949906 | 6.205775 | 2.0 | 8.805 | 2 | 35.238 | 8.997 | 33.003 | 2 |
| 2025-04-28T07:49:00 | 53.949746 | 6.205722 | 2.0 | 8.788 | 2 | 35.259 | 9.018 | 33.005 | 2 |
| 2025-04-28T07:50:00 | 53.949283 | 6.205984 | 2.0 | 8.754 | 2 | 35.246 | 9.001 | 33.008 | 2 |
| 2025-04-28T07:51:00 | 53.948659 | 6.206453 | 2.0 | 8.786 | 2 | 35.218 | 8.982 | 32.996 | 2 |
| 2025-04-28T07:52:00 | 53.947731 | 6.206962 | 2.0 | 8.766 | 2 | 35.246 | 9.010 | 32.999 | 2 |
| 2025-04-28T07:53:00 | 53.946512 | 6.207446 | 2.0 | 8.765 | 2 | 35.232 | 8.989 | 33.004 | 2 |
| 2025-04-28T07:54:00 | 53.945246 | 6.207927 | 2.0 | 8.764 | 2 | 35.221 | 8.983 | 32.998 | 2 |
| 2025-04-28T07:55:00 | 53.944080 | 6.208422 | 2.0 | 8.761 | 2 | 35.220 | 8.983 | 32.997 | 2 |
| 2025-04-28T07:56:00 | 53.942998 | 6.208952 | 2.0 | 8.753 | 2 | 35.212 | 8.975 | 32.996 | 2 |
| 2025-04-28T07:57:00 | 53.941969 | 6.209506 | 2.0 | 8.785 | 2 | 35.198 | 8.962 | 32.994 | 2 |
| 2025-04-28T07:58:00 | 53.940984 | 6.210038 | 2.0 | 8.779 | 2 | 35.215 | 8.984 | 32.991 | 2 |
| 2025-04-28T07:59:00 | 53.940027 | 6.210576 | 2.0 | 8.803 | 2 | 35.210 | 8.979 | 32.991 | 2 |
| 2025-04-28T08:00:00 | 53.939084 | 6.211156 | 2.0 | 8.780 | 2 | 35.224 | 8.996 | 32.989 | 2 |
| 2025-04-28T08:01:00 | 53.938161 | 6.211721 | 2.0 | 8.774 | 2 | 35.201 | 8.972 | 32.988 | 2 |
| 2025-04-28T08:02:00 | 53.937248 | 6.212267 | 2.0 | 8.767 | 2 | 35.197 | 8.970 | 32.985 | 2 |
| 2025-04-28T08:03:00 | 53.936367 | 6.212725 | 2.0 | 8.750 | 2 | 35.179 | 8.947 | 32.988 | 2 |
| 2025-04-28T08:04:00 | 53.935534 | 6.213059 | 2.0 | 8.750 | 2 | 35.162 | 8.943 | 32.974 | 2 |
| 2025-04-28T08:05:00 | 53.934722 | 6.213356 | 2.0 | 8.753 | 2 | 35.160 | 8.942 | 32.973 | 2 |
| 2025-04-28T08:06:00 | 53.933915 | 6.213687 | 2.0 | 8.771 | 2 | 35.167 | 8.947 | 32.975 | 2 |
| 2025-04-28T08:07:00 | 53.933121 | 6.213996 | 2.0 | 8.787 | 2 | 35.179 | 8.962 | 32.974 | 2 |
| 2025-04-28T08:08:00 | 53.932337 | 6.214307 | 2.0 | 8.779 | 2 | 35.198 | 8.981 | 32.976 | 2 |
| 2025-04-28T08:09:00 | 53.931557 | 6.214647 | 2.0 | 8.780 | 2 | 35.183 | 8.962 | 32.978 | 2 |
| 2025-04-28T08:10:00 | 53.930782 | 6.214955 | 2.0 | 8.775 | 2 | 35.184 | 8.967 | 32.975 | 2 |
| 2025-04-28T08:11:00 | 53.930016 | 6.215276 | 2.0 | 8.787 | 2 | 35.192 | 8.980 | 32.971 | 2 |
| 2025-04-28T08:12:00 | 53.929379 | 6.215302 | 2.0 | 8.807 | 2 | 35.194 | 8.980 | 32.973 | 2 |
| 2025-04-28T08:13:00 | 53.928839 | 6.215196 | 2.0 | 8.775 | 2 | 35.200 | 8.989 | 32.971 | 2 |
| 2025-04-28T08:14:00 | 53.928318 | 6.215087 | 2.0 | 8.806 | 2 | 35.177 | 8.967 | 32.967 | 2 |
| 2025-04-28T08:15:00 | 53.927829 | 6.214940 | 2.0 | 8.804 | 2 | 35.192 | 8.987 | 32.964 | 2 |
| 2025-04-28T08:16:00 | 53.927332 | 6.214843 | 2.0 | 8.825 | 2 | 35.190 | 8.987 | 32.962 | 2 |
| 2025-04-28T08:17:00 | 53.926869 | 6.214703 | 2.0 | 8.841 | 2 | 35.211 | 9.018 | 32.955 | 2 |
| 2025-04-28T08:18:00 | 53.926390 | 6.214609 | 2.0 | 8.781 | 2 | 35.210 | 9.012 | 32.960 | 2 |
| 2025-04-28T08:19:00 | 53.925941 | 6.214479 | 2.0 | 8.822 | 2 | 35.177 | 8.978 | 32.957 | 2 |
| 2025-04-28T08:20:00 | 53.925477 | 6.214370 | 2.0 | 8.819 | 2 | 35.200 | 9.004 | 32.957 | 2 |
| 2025-04-28T08:21:00 | 53.925022 | 6.214251 | 2.0 | 8.786 | 2 | 35.189 | 8.991 | 32.958 | 2 |
| 2025-04-28T08:22:00 | 53.924563 | 6.214141 | 2.0 | 8.744 | 2 | 35.162 | 8.969 | 32.950 | 2 |
| 2025-04-28T08:23:00 | 53.924225 | 6.213914 | 2.0 | 8.759 | 2 | 35.126 | 8.926 | 32.952 | 2 |
| 2025-04-28T08:24:00 | 53.923937 | 6.213711 | 2.0 | 8.743 | 2 | 35.133 | 8.939 | 32.947 | 2 |
| 2025-04-28T08:25:00 | 53.923661 | 6.213531 | 2.0 | 8.763 | 2 | 35.123 | 8.928 | 32.947 | 2 |
| 2025-04-28T08:26:00 | 53.923477 | 6.213316 | 2.0 | 8.787 | 2 | 35.136 | 8.949 | 32.941 | 2 |
| 2025-04-28T08:27:00 | 53.923273 | 6.213130 | 2.0 | 8.780 | 2 | 35.154 | 8.972 | 32.939 | 2 |
| 2025-04-28T08:28:00 | 53.923101 | 6.212937 | 2.0 | 8.789 | 2 | 35.163 | 8.990 | 32.931 | 2 |
| 2025-04-28T08:29:00 | 53.922984 | 6.212716 | 2.0 | 8.713 | 2 | 35.133 | 8.951 | 32.936 | 2 |
| 2025-04-28T08:30:00 | 53.922893 | 6.212493 | 2.0 | 8.777 | 2 | 34.843 | 8.901 | 32.680 | 2 |
| 2025-04-28T08:31:00 | 53.922801 | 6.212284 | 2.0 | 8.729 | 2 | 34.871 | 8.952 | 32.663 | 2 |
| 2025-04-28T08:32:00 | 53.922732 | 6.212109 | 2.0 | 8.808 | 2 | 34.928 | 8.939 | 32.734 | 2 |
| 2025-04-28T08:33:00 | 53.922665 | 6.212013 | 2.0 | 8.766 | 2 | 34.931 | 8.979 | 32.700 | 2 |
| 2025-04-28T08:34:00 | 53.922596 | 6.212000 | 2.0 | 8.764 | 2 | 34.932 | 8.952 | 32.726 | 2 |
| 2025-04-28T08:35:00 | 53.922533 | 6.212053 | 2.0 | 8.761 | 2 | 34.960 | 8.935 | 32.771 | 2 |
| 2025-04-28T08:36:00 | 53.922479 | 6.212160 | 2.0 | 8.814 | 2 | 35.064 | 8.956 | 32.860 | 2 |
| 2025-04-28T08:37:00 | 53.922437 | 6.212288 | 2.0 | 8.793 | 2 | 34.977 | 8.978 | 32.749 | 2 |
| 2025-04-28T08:38:00 | 53.922400 | 6.212412 | 2.0 | 8.830 | 2 | 34.963 | 9.003 | 32.711 | 2 |
| 2025-04-28T08:39:00 | 53.922360 | 6.212533 | 2.0 | 8.750 | 2 | 35.107 | 8.980 | 32.882 | 2 |
| 2025-04-28T08:40:00 | 53.922325 | 6.212650 | 2.0 | 8.744 | 2 | 35.042 | 8.929 | 32.862 | 2 |
| 2025-04-28T08:41:00 | 53.922293 | 6.212764 | 2.0 | 8.792 | 2 | 34.919 | 8.938 | 32.725 | 2 |
| 2025-04-28T08:42:00 | 53.922264 | 6.212875 | 2.0 | 8.821 | 2 | 35.005 | 8.979 | 32.777 | 2 |
| 2025-04-28T08:43:00 | 53.922234 | 6.212987 | 2.0 | 8.838 | 2 | 34.933 | 8.993 | 32.689 | 2 |
| 2025-04-28T08:44:00 | 53.922201 | 6.213100 | 2.0 | 8.799 | 2 | 35.002 | 9.006 | 32.749 | 2 |
| 2025-04-28T08:45:00 | 53.922174 | 6.213184 | 2.0 | 8.759 | 2 | 34.971 | 8.972 | 32.748 | 2 |
| 2025-04-28T08:46:00 | 53.922196 | 6.213186 | 2.0 | 8.727 | 2 | 35.003 | 8.929 | 32.821 | 2 |
| 2025-04-28T08:47:00 | 53.922229 | 6.213124 | 2.0 | 8.771 | 2 | 35.024 | 8.921 | 32.851 | 2 |
| 2025-04-28T08:48:00 | 53.922266 | 6.213001 | 2.0 | 8.745 | 2 | 35.036 | 8.939 | 32.846 | 2 |
| 2025-04-28T08:49:00 | 53.922303 | 6.212840 | 2.0 | 8.681 | 2 | 34.980 | 8.910 | 32.815 | 2 |
| 2025-04-28T08:50:00 | 53.922343 | 6.212647 | 2.0 | 8.736 | 2 | 34.979 | 8.874 | 32.847 | 2 |
| 2025-04-28T08:51:00 | 53.922379 | 6.212424 | 2.0 | 8.749 | 2 | 35.018 | 8.932 | 32.834 | 2 |
| 2025-04-28T08:52:00 | 53.922411 | 6.212253 | 2.0 | 8.753 | 2 | 35.046 | 8.919 | 32.875 | 2 |
| 2025-04-28T08:53:00 | 53.922430 | 6.212157 | 2.0 | 8.750 | 2 | 35.033 | 8.928 | 32.853 | 2 |
| 2025-04-28T08:54:00 | 53.922441 | 6.212146 | 2.0 | 8.734 | 2 | 35.011 | 8.929 | 32.830 | 2 |
| 2025-04-28T08:55:00 | 53.922452 | 6.212165 | 2.0 | 8.797 | 2 | 35.040 | 8.916 | 32.872 | 2 |
| 2025-04-28T08:56:00 | 53.922449 | 6.212245 | 2.0 | 8.788 | 2 | 35.065 | 8.969 | 32.849 | 2 |
| 2025-04-28T08:57:00 | 53.922451 | 6.212351 | 2.0 | 8.763 | 2 | 35.055 | 8.954 | 32.852 | 2 |
| 2025-04-28T08:58:00 | 53.922487 | 6.212488 | 2.0 | 8.746 | 2 | 35.062 | 8.935 | 32.877 | 2 |
| 2025-04-28T08:59:00 | 53.922539 | 6.212657 | 2.0 | 8.757 | 2 | 35.062 | 8.934 | 32.878 | 2 |
| 2025-04-28T09:00:00 | 53.922595 | 6.212857 | 2.0 | 8.751 | 2 | 35.038 | 8.927 | 32.860 | 2 |
| 2025-04-28T09:01:00 | 53.922649 | 6.213090 | 2.0 | 8.762 | 2 | 35.067 | 8.937 | 32.881 | 2 |
| 2025-04-28T09:02:00 | 53.922695 | 6.213355 | 2.0 | 8.801 | 2 | 35.047 | 8.936 | 32.861 | 2 |
| 2025-04-28T09:03:00 | 53.922738 | 6.213646 | 2.0 | 8.832 | 2 | 35.111 | 8.991 | 32.876 | 2 |
| 2025-04-28T09:04:00 | 53.922781 | 6.213921 | 2.0 | 8.845 | 2 | 35.147 | 9.034 | 32.874 | 2 |
| 2025-04-28T09:05:00 | 53.922847 | 6.214136 | 2.0 | 8.833 | 2 | 35.150 | 9.014 | 32.896 | 2 |
| 2025-04-28T09:06:00 | 53.922913 | 6.214297 | 2.0 | 8.860 | 2 | 35.161 | 9.020 | 32.902 | 2 |
| 2025-04-28T09:07:00 | 53.922975 | 6.214407 | 2.0 | 8.867 | 2 | 35.198 | 9.039 | 32.922 | 2 |
| 2025-04-28T09:08:00 | 53.923032 | 6.214474 | 2.0 | 8.876 | 2 | 35.176 | 9.034 | 32.904 | 2 |
| 2025-04-28T09:09:00 | 53.923090 | 6.214511 | 2.0 | 8.819 | 2 | 35.216 | 9.058 | 32.924 | 2 |
| 2025-04-28T09:10:00 | 53.923140 | 6.214582 | 2.0 | 8.815 | 2 | 35.147 | 8.998 | 32.907 | 2 |
| 2025-04-28T09:11:00 | 53.923171 | 6.214707 | 2.0 | 8.826 | 2 | 35.168 | 8.998 | 32.929 | 2 |
| 2025-04-28T09:12:00 | 53.923189 | 6.214886 | 2.0 | 8.827 | 2 | 35.161 | 8.992 | 32.927 | 2 |
| 2025-04-28T09:13:00 | 53.923200 | 6.215102 | 2.0 | 8.890 | 2 | 35.177 | 9.012 | 32.926 | 2 |
| 2025-04-28T09:14:00 | 53.923201 | 6.215306 | 2.0 | 9.010 | 2 | 35.245 | 9.097 | 32.918 | 2 |
| 2025-04-28T09:15:00 | 53.923219 | 6.215448 | 2.0 | 8.859 | 2 | 35.306 | 9.149 | 32.933 | 2 |
| 2025-04-28T09:16:00 | 53.923231 | 6.215530 | 2.0 | 8.912 | 2 | 35.217 | 9.050 | 32.932 | 2 |
| 2025-04-28T09:17:00 | 53.923231 | 6.215557 | 2.0 | 8.923 | 2 | 35.246 | 9.084 | 32.931 | 2 |
| 2025-04-28T09:18:00 | 53.923230 | 6.215540 | 2.0 | 8.896 | 2 | 35.250 | 9.085 | 32.934 | 2 |
| 2025-04-28T09:19:00 | 53.923222 | 6.215498 | 2.0 | 8.897 | 2 | 35.240 | 9.074 | 32.934 | 2 |
| 2025-04-28T09:20:00 | 53.923214 | 6.215470 | 2.0 | 8.938 | 2 | 35.241 | 9.075 | 32.934 | 2 |
| 2025-04-28T09:21:00 | 53.923210 | 6.215430 | 2.0 | 8.919 | 2 | 35.263 | 9.099 | 32.934 | 2 |
| 2025-04-28T09:22:00 | 53.923203 | 6.215378 | 2.0 | 8.890 | 2 | 35.258 | 9.094 | 32.934 | 2 |
| 2025-04-28T09:23:00 | 53.923194 | 6.215313 | 2.0 | 8.881 | 2 | 35.231 | 9.060 | 32.937 | 2 |
| 2025-04-28T09:24:00 | 53.923180 | 6.215208 | 2.0 | 8.855 | 2 | 35.219 | 9.047 | 32.937 | 2 |
| 2025-04-28T09:25:00 | 53.923164 | 6.215089 | 2.0 | 8.832 | 2 | 35.202 | 9.028 | 32.937 | 2 |
| 2025-04-28T09:26:00 | 53.923146 | 6.214966 | 2.0 | 8.850 | 2 | 35.184 | 9.009 | 32.936 | 2 |
| 2025-04-28T09:27:00 | 53.923067 | 6.214620 | 2.0 | 8.872 | 2 | 35.206 | 9.040 | 32.930 | 2 |
| 2025-04-28T09:28:00 | 53.923043 | 6.214487 | 2.0 | 8.838 | 2 | 35.212 | 9.038 | 32.938 | 2 |
| 2025-04-28T09:29:00 | 53.923048 | 6.214464 | 2.0 | 8.840 | 2 | 35.198 | 9.025 | 32.935 | 2 |
| 2025-04-28T09:30:00 | 53.923047 | 6.214403 | 2.0 | 8.881 | 2 | 35.202 | 9.028 | 32.937 | 2 |
| 2025-04-28T09:31:00 | 53.923038 | 6.214315 | 2.0 | 8.819 | 2 | 35.203 | 9.023 | 32.942 | 2 |
| 2025-04-28T09:32:00 | 53.923029 | 6.214215 | 2.0 | 8.820 | 2 | 35.187 | 9.018 | 32.930 | 2 |
| 2025-04-28T09:33:00 | 53.923020 | 6.214132 | 2.0 | 8.879 | 2 | 35.180 | 9.003 | 32.937 | 2 |
| 2025-04-28T09:34:00 | 53.923015 | 6.214081 | 2.0 | 8.878 | 2 | 35.229 | 9.062 | 32.933 | 2 |
| 2025-04-28T09:35:00 | 53.923011 | 6.214048 | 2.0 | 8.832 | 2 | 35.224 | 9.048 | 32.941 | 2 |
| 2025-04-28T09:36:00 | 53.923010 | 6.214016 | 2.0 | 8.797 | 2 | 35.184 | 8.997 | 32.947 | 2 |
| 2025-04-28T09:37:00 | 53.923013 | 6.213988 | 2.0 | 8.835 | 2 | 35.164 | 8.981 | 32.941 | 2 |
| 2025-04-28T09:38:00 | 53.923016 | 6.213952 | 2.0 | 8.844 | 2 | 35.188 | 9.009 | 32.940 | 2 |
| 2025-04-28T09:39:00 | 53.923022 | 6.213887 | 2.0 | 8.826 | 2 | 35.192 | 9.009 | 32.944 | 2 |
| 2025-04-28T09:40:00 | 53.923038 | 6.213762 | 2.0 | 8.838 | 2 | 35.187 | 9.005 | 32.942 | 2 |
| 2025-04-28T09:41:00 | 53.923056 | 6.213649 | 2.0 | 8.825 | 2 | 35.187 | 9.000 | 32.947 | 2 |
| 2025-04-28T09:42:00 | 53.923069 | 6.213587 | 2.0 | 8.820 | 2 | 35.175 | 8.992 | 32.942 | 2 |
| 2025-04-28T09:43:00 | 53.923079 | 6.213554 | 2.0 | 8.846 | 2 | 35.176 | 9.002 | 32.934 | 2 |
| 2025-04-28T09:44:00 | 53.923127 | 6.213534 | 2.0 | 8.886 | 2 | 35.212 | 9.034 | 32.942 | 2 |
| 2025-04-28T09:45:00 | 53.923153 | 6.213677 | 2.0 | 8.855 | 2 | 35.234 | 9.052 | 32.948 | 2 |
| 2025-04-28T09:46:00 | 53.923176 | 6.213851 | 2.0 | 8.838 | 2 | 35.214 | 9.027 | 32.950 | 2 |
| 2025-04-28T09:47:00 | 53.923192 | 6.213965 | 2.0 | 8.864 | 2 | 35.211 | 9.029 | 32.945 | 2 |
| 2025-04-28T09:48:00 | 53.923240 | 6.214010 | 2.0 | 8.787 | 2 | 35.214 | 9.026 | 32.951 | 2 |
| 2025-04-28T09:49:00 | 53.923290 | 6.213974 | 2.0 | 8.797 | 2 | 35.152 | 8.956 | 32.951 | 2 |
| 2025-04-28T09:50:00 | 53.923314 | 6.213865 | 2.0 | 8.806 | 2 | 35.167 | 8.978 | 32.947 | 2 |
| 2025-04-28T09:51:00 | 53.923319 | 6.213762 | 2.0 | 8.792 | 2 | 35.175 | 8.985 | 32.949 | 2 |
| 2025-04-28T09:52:00 | 53.923322 | 6.213564 | 2.0 | 8.766 | 2 | 35.160 | 8.963 | 32.953 | 2 |
| 2025-04-28T09:53:00 | 53.923321 | 6.213438 | 2.0 | 8.849 | 2 | 35.147 | 8.953 | 32.949 | 2 |
| 2025-04-28T09:54:00 | 53.923314 | 6.213222 | 2.0 | 8.825 | 2 | 35.208 | 9.020 | 32.950 | 2 |
| 2025-04-28T09:55:00 | 53.923307 | 6.213114 | 2.0 | 8.775 | 2 | 35.182 | 8.983 | 32.958 | 2 |
| 2025-04-28T09:56:00 | 53.923303 | 6.213049 | 2.0 | 8.737 | 2 | 35.154 | 8.954 | 32.955 | 2 |
| 2025-04-28T09:57:00 | 53.923299 | 6.212918 | 2.0 | 8.827 | 2 | 35.128 | 8.930 | 32.951 | 2 |
| 2025-04-28T09:58:00 | 53.923299 | 6.212694 | 2.0 | 8.863 | 2 | 35.192 | 9.001 | 32.951 | 2 |
| 2025-04-28T09:59:00 | 53.923307 | 6.212682 | 2.0 | 8.883 | 2 | 35.225 | 9.033 | 32.956 | 2 |
| 2025-04-28T10:00:00 | 53.923305 | 6.212755 | 2.0 | 8.873 | 2 | 35.243 | 9.057 | 32.952 | 2 |
| 2025-04-28T10:01:00 | 53.923291 | 6.212848 | 2.0 | 8.808 | 2 | 35.230 | 9.035 | 32.959 | 2 |
| 2025-04-28T10:02:00 | 53.923299 | 6.212893 | 2.0 | 8.774 | 2 | 35.188 | 8.992 | 32.956 | 2 |
| 2025-04-28T10:03:00 | 53.923333 | 6.212892 | 2.0 | 8.781 | 2 | 35.138 | 8.933 | 32.958 | 2 |
| 2025-04-28T10:04:00 | 53.923362 | 6.212858 | 2.0 | 8.777 | 2 | 35.161 | 8.969 | 32.949 | 2 |
| 2025-04-28T10:05:00 | 53.923385 | 6.212782 | 2.0 | 8.888 | 2 | 35.159 | 8.959 | 32.956 | 2 |
| 2025-04-28T10:06:00 | 53.923397 | 6.212713 | 2.0 | 8.943 | 2 | 35.255 | 9.077 | 32.946 | 2 |
| 2025-04-28T10:07:00 | 53.923400 | 6.212670 | 2.0 | 8.932 | 2 | 35.295 | 9.106 | 32.961 | 2 |
| 2025-04-28T10:08:00 | 53.923401 | 6.212613 | 2.0 | 8.932 | 2 | 35.292 | 9.102 | 32.962 | 2 |
| 2025-04-28T10:09:00 | 53.923400 | 6.212531 | 2.0 | 8.922 | 2 | 35.291 | 9.098 | 32.964 | 2 |
| 2025-04-28T10:10:00 | 53.923398 | 6.212439 | 2.0 | 8.913 | 2 | 35.287 | 9.095 | 32.963 | 2 |
| 2025-04-28T10:11:00 | 53.923399 | 6.212362 | 2.0 | 8.929 | 2 | 35.284 | 9.091 | 32.964 | 2 |
| 2025-04-28T10:12:00 | 53.923401 | 6.212296 | 2.0 | 8.882 | 2 | 35.288 | 9.093 | 32.966 | 2 |
| 2025-04-28T10:13:00 | 53.923406 | 6.212255 | 2.0 | 8.917 | 2 | 35.260 | 9.065 | 32.963 | 2 |
| 2025-04-28T10:14:00 | 53.923450 | 6.212165 | 2.0 | 8.935 | 2 | 35.282 | 9.096 | 32.957 | 2 |
| 2025-04-28T10:15:00 | 53.923496 | 6.212200 | 2.0 | 8.939 | 2 | 35.295 | 9.101 | 32.966 | 2 |
| 2025-04-28T10:16:00 | 53.923531 | 6.212227 | 2.0 | 8.925 | 2 | 35.304 | 9.112 | 32.965 | 2 |
| 2025-04-28T10:17:00 | 53.923567 | 6.212188 | 2.0 | 8.911 | 2 | 35.284 | 9.087 | 32.967 | 2 |
| 2025-04-28T10:18:00 | 53.923577 | 6.212124 | 2.0 | 8.864 | 2 | 35.280 | 9.084 | 32.966 | 2 |
| 2025-04-28T10:19:00 | 53.923572 | 6.212078 | 2.0 | 8.864 | 2 | 35.241 | 9.039 | 32.967 | 2 |
| 2025-04-28T10:20:00 | 53.923571 | 6.212025 | 2.0 | 8.833 | 2 | 35.231 | 9.038 | 32.958 | 2 |
| 2025-04-28T10:21:00 | 53.923576 | 6.211960 | 2.0 | 8.803 | 2 | 35.193 | 8.989 | 32.964 | 2 |
| 2025-04-28T10:22:00 | 53.923583 | 6.211859 | 2.0 | 8.820 | 2 | 35.191 | 8.997 | 32.954 | 2 |
| 2025-04-28T10:23:00 | 53.923596 | 6.211732 | 2.0 | 8.789 | 2 | 35.182 | 8.976 | 32.964 | 2 |
| 2025-04-28T10:24:00 | 53.923664 | 6.211436 | 2.0 | 8.828 | 2 | 35.182 | 8.982 | 32.959 | 2 |
| 2025-04-28T10:25:00 | 53.923726 | 6.211389 | 2.0 | 8.872 | 2 | 35.220 | 9.029 | 32.955 | 2 |
| 2025-04-28T10:26:00 | 53.923765 | 6.211362 | 2.0 | 8.891 | 2 | 35.239 | 9.043 | 32.961 | 2 |
| 2025-04-28T10:27:00 | 53.923771 | 6.211293 | 2.0 | 8.935 | 2 | 35.254 | 9.063 | 32.958 | 2 |
| 2025-04-28T10:28:00 | 53.923764 | 6.211239 | 2.0 | 8.880 | 2 | 35.292 | 9.100 | 32.964 | 2 |
| 2025-04-28T10:29:00 | 53.923723 | 6.211044 | 2.0 | 8.842 | 2 | 35.245 | 9.038 | 32.972 | 2 |
| 2025-04-28T10:30:00 | 53.923705 | 6.210961 | 2.0 | 8.918 | 2 | 35.236 | 9.042 | 32.959 | 2 |
| 2025-04-28T10:31:00 | 53.923703 | 6.210934 | 2.0 | 8.914 | 2 | 35.280 | 9.082 | 32.968 | 2 |
| 2025-04-28T10:32:00 | 53.923696 | 6.210906 | 2.0 | 8.995 | 2 | 35.282 | 9.090 | 32.962 | 2 |
| 2025-04-28T10:33:00 | 53.923690 | 6.210828 | 2.0 | 9.057 | 2 | 35.342 | 9.167 | 32.953 | 2 |
| 2025-04-28T10:34:00 | 53.923680 | 6.210779 | 2.0 | 9.105 | 2 | 35.417 | 9.244 | 32.960 | 2 |
| 2025-04-28T10:35:00 | 53.923673 | 6.210742 | 2.0 | 9.036 | 2 | 35.448 | 9.262 | 32.975 | 2 |
| 2025-04-28T10:36:00 | 53.923662 | 6.210712 | 2.0 | 9.012 | 2 | 35.406 | 9.210 | 32.980 | 2 |
| 2025-04-28T10:37:00 | 53.923645 | 6.210614 | 2.0 | 9.001 | 2 | 35.372 | 9.172 | 32.980 | 2 |
| 2025-04-28T10:38:00 | 53.923572 | 6.210440 | 2.0 | 8.993 | 2 | 35.372 | 9.176 | 32.976 | 2 |
| 2025-04-28T10:39:00 | 53.923455 | 6.209981 | 2.0 | 8.957 | 2 | 35.363 | 9.163 | 32.979 | 2 |
| 2025-04-28T10:40:00 | 53.923877 | 6.209798 | 2.0 | 8.833 | 2 | 35.308 | 9.095 | 32.985 | 2 |
| 2025-04-28T10:41:00 | 53.924851 | 6.210097 | 2.0 | 8.807 | 2 | 35.219 | 9.012 | 32.969 | 2 |
| 2025-04-28T10:42:00 | 53.926124 | 6.210824 | 2.0 | 8.847 | 2 | 35.208 | 9.001 | 32.968 | 2 |
| 2025-04-28T10:43:00 | 53.927329 | 6.211532 | 2.0 | 8.754 | 2 | 35.217 | 9.011 | 32.968 | 2 |
| 2025-04-28T10:44:00 | 53.928303 | 6.211803 | 2.0 | 8.871 | 2 | 35.194 | 8.997 | 32.957 | 2 |
| 2025-04-28T10:45:00 | 53.928577 | 6.211411 | 2.0 | 8.962 | 2 | 35.255 | 9.056 | 32.966 | 2 |
| 2025-04-28T10:46:00 | 53.928624 | 6.210835 | 2.0 | 8.902 | 2 | 35.349 | 9.166 | 32.962 | 2 |
| 2025-04-28T10:47:00 | 53.928654 | 6.209944 | 2.0 | 8.863 | 2 | 35.310 | 9.107 | 32.976 | 2 |
| 2025-04-28T10:48:00 | 53.928528 | 6.208953 | 2.0 | 8.834 | 2 | 35.258 | 9.046 | 32.978 | 2 |
| 2025-04-28T10:49:00 | 53.928290 | 6.208059 | 2.0 | 8.857 | 2 | 35.243 | 9.034 | 32.974 | 2 |
| 2025-04-28T10:50:00 | 53.928035 | 6.207246 | 2.0 | 8.821 | 2 | 35.259 | 9.051 | 32.975 | 2 |
| 2025-04-28T10:51:00 | 53.927777 | 6.206489 | 2.0 | 8.831 | 2 | 35.238 | 9.027 | 32.975 | 2 |
| 2025-04-28T10:52:00 | 53.927511 | 6.205788 | 2.0 | 8.843 | 2 | 35.253 | 9.040 | 32.979 | 2 |
| 2025-04-28T10:53:00 | 53.927237 | 6.205182 | 2.0 | 8.878 | 2 | 35.265 | 9.054 | 32.978 | 2 |
| 2025-04-28T10:54:00 | 53.927191 | 6.205016 | 2.0 | 8.893 | 2 | 35.284 | 9.075 | 32.978 | 2 |
| 2025-04-28T10:55:00 | 53.927316 | 6.205233 | 2.0 | 8.872 | 2 | 35.307 | 9.101 | 32.978 | 2 |
| 2025-04-28T10:56:00 | 53.927310 | 6.205358 | 2.0 | 8.842 | 2 | 35.295 | 9.083 | 32.982 | 2 |
| 2025-04-28T10:57:00 | 53.927102 | 6.205288 | 2.0 | 8.833 | 2 | 35.266 | 9.051 | 32.982 | 2 |
| 2025-04-28T10:58:00 | 53.926985 | 6.205069 | 2.0 | 8.958 | 2 | 35.258 | 9.043 | 32.981 | 2 |
| 2025-04-28T10:59:00 | 53.927012 | 6.204878 | 2.0 | 8.907 | 2 | 35.368 | 9.174 | 32.974 | 2 |
| 2025-04-28T11:00:00 | 53.927096 | 6.204675 | 2.0 | 8.765 | 2 | 35.291 | 9.065 | 32.995 | 2 |
| 2025-04-28T11:01:00 | 53.927165 | 6.204341 | 2.0 | 8.743 | 2 | 35.201 | 8.973 | 32.987 | 2 |
| 2025-04-28T11:02:00 | 53.927232 | 6.203837 | 2.0 | 8.836 | 2 | 35.189 | 8.970 | 32.977 | 2 |
| 2025-04-28T11:03:00 | 53.927507 | 6.203386 | 2.0 | 8.863 | 2 | 35.251 | 9.036 | 32.980 | 2 |
| 2025-04-28T11:04:00 | 53.927941 | 6.203328 | 2.0 | 8.819 | 2 | 35.279 | 9.068 | 32.980 | 2 |
| 2025-04-28T11:05:00 | 53.928431 | 6.203698 | 2.0 | 8.802 | 2 | 35.238 | 9.018 | 32.983 | 2 |
| 2025-04-28T11:06:00 | 53.928870 | 6.204377 | 2.0 | 8.823 | 2 | 35.230 | 9.016 | 32.977 | 2 |
| 2025-04-28T11:07:00 | 53.929010 | 6.205287 | 2.0 | 8.860 | 2 | 35.249 | 9.038 | 32.976 | 2 |
| 2025-04-28T11:08:00 | 53.928999 | 6.206270 | 2.0 | 8.884 | 2 | 35.284 | 9.079 | 32.975 | 2 |
| 2025-04-28T11:09:00 | 53.928800 | 6.206698 | 2.0 | 8.768 | 2 | 35.272 | 9.058 | 32.982 | 2 |
| 2025-04-28T11:10:00 | 53.928639 | 6.206638 | 2.0 | 8.780 | 2 | 35.186 | 8.978 | 32.966 | 2 |
| 2025-04-28T11:11:00 | 53.928511 | 6.206437 | 2.0 | 8.837 | 2 | 35.204 | 8.999 | 32.966 | 2 |
| 2025-04-28T11:12:00 | 53.928384 | 6.206283 | 2.0 | 8.897 | 2 | 35.254 | 9.053 | 32.968 | 2 |
| 2025-04-28T11:13:00 | 53.928264 | 6.206210 | 2.0 | 8.903 | 2 | 35.316 | 9.121 | 32.969 | 2 |
| 2025-04-28T11:14:00 | 53.928104 | 6.206169 | 2.0 | 8.841 | 2 | 35.294 | 9.078 | 32.986 | 2 |
| 2025-04-28T11:15:00 | 53.927920 | 6.206085 | 2.0 | 8.782 | 2 | 35.253 | 9.039 | 32.980 | 2 |
| 2025-04-28T11:16:00 | 53.927731 | 6.205942 | 2.0 | 8.783 | 2 | 35.206 | 8.988 | 32.978 | 2 |
| 2025-04-28T11:17:00 | 53.927529 | 6.205870 | 2.0 | 8.816 | 2 | 35.211 | 8.997 | 32.975 | 2 |
| 2025-04-28T11:18:00 | 53.927324 | 6.205839 | 2.0 | 8.813 | 2 | 35.238 | 9.025 | 32.977 | 2 |
| 2025-04-28T11:19:00 | 53.927124 | 6.205804 | 2.0 | 8.844 | 2 | 35.242 | 9.033 | 32.974 | 2 |
| 2025-04-28T11:20:00 | 53.926929 | 6.205762 | 2.0 | 8.837 | 2 | 35.259 | 9.054 | 32.972 | 2 |
| 2025-04-28T11:21:00 | 53.926725 | 6.205718 | 2.0 | 8.843 | 2 | 35.259 | 9.054 | 32.972 | 2 |
| 2025-04-28T11:22:00 | 53.926513 | 6.205704 | 2.0 | 8.948 | 2 | 35.261 | 9.053 | 32.975 | 2 |
| 2025-04-28T11:23:00 | 53.926308 | 6.205713 | 2.0 | 8.909 | 2 | 35.355 | 9.159 | 32.974 | 2 |
| 2025-04-28T11:24:00 | 53.926121 | 6.205732 | 2.0 | 8.912 | 2 | 35.329 | 9.118 | 32.985 | 2 |
| 2025-04-28T11:25:00 | 53.925936 | 6.205756 | 2.0 | 8.914 | 2 | 35.333 | 9.129 | 32.979 | 2 |
| 2025-04-28T11:26:00 | 53.925749 | 6.205787 | 2.0 | 8.962 | 2 | 35.335 | 9.135 | 32.976 | 2 |
| 2025-04-28T11:27:00 | 53.925564 | 6.205796 | 2.0 | 8.927 | 2 | 35.369 | 9.175 | 32.974 | 2 |
| 2025-04-28T11:28:00 | 53.925382 | 6.205772 | 2.0 | 8.893 | 2 | 35.325 | 9.119 | 32.980 | 2 |
| 2025-04-28T11:29:00 | 53.925193 | 6.205748 | 2.0 | 8.893 | 2 | 35.327 | 9.135 | 32.967 | 2 |
| 2025-04-28T11:30:00 | 53.925001 | 6.205725 | 2.0 | 8.876 | 2 | 35.301 | 9.093 | 32.979 | 2 |
| 2025-04-28T11:31:00 | 53.924804 | 6.205737 | 2.0 | 8.895 | 2 | 35.293 | 9.090 | 32.974 | 2 |
| 2025-04-28T11:32:00 | 53.924609 | 6.205756 | 2.0 | 8.851 | 2 | 35.302 | 9.099 | 32.975 | 2 |
| 2025-04-28T11:33:00 | 53.924413 | 6.205770 | 2.0 | 8.878 | 2 | 35.273 | 9.073 | 32.969 | 2 |
| 2025-04-28T11:34:00 | 53.924211 | 6.205781 | 2.0 | 8.901 | 2 | 35.286 | 9.086 | 32.970 | 2 |
| 2025-04-28T11:35:00 | 53.924003 | 6.205825 | 2.0 | 8.855 | 2 | 35.303 | 9.109 | 32.967 | 2 |
| 2025-04-28T11:36:00 | 53.923808 | 6.205895 | 2.0 | 8.800 | 2 | 35.254 | 9.051 | 32.969 | 2 |
| 2025-04-28T11:37:00 | 53.923614 | 6.205938 | 2.0 | 8.802 | 2 | 35.226 | 9.025 | 32.964 | 2 |
| 2025-04-28T11:38:00 | 53.923411 | 6.205907 | 2.0 | 8.828 | 2 | 35.226 | 9.029 | 32.961 | 2 |
| 2025-04-28T11:39:00 | 53.923240 | 6.205866 | 2.0 | 8.936 | 2 | 35.252 | 9.055 | 32.964 | 2 |
| 2025-04-28T11:40:00 | 53.923104 | 6.205824 | 2.0 | 8.942 | 2 | 35.342 | 9.147 | 32.972 | 2 |
| 2025-04-28T11:41:00 | 53.923009 | 6.205784 | 2.0 | 8.954 | 2 | 35.358 | 9.161 | 32.976 | 2 |
| 2025-04-28T11:42:00 | 53.922977 | 6.205767 | 2.0 | 8.981 | 2 | 35.363 | 9.167 | 32.975 | 2 |
| 2025-04-28T11:43:00 | 53.922902 | 6.205690 | 2.0 | 9.067 | 2 | 35.391 | 9.208 | 32.966 | 2 |
| 2025-04-28T11:44:00 | 53.922837 | 6.205596 | 2.0 | 9.108 | 2 | 35.460 | 9.285 | 32.966 | 2 |
| 2025-04-28T11:45:00 | 53.922722 | 6.205511 | 2.0 | 9.088 | 2 | 35.490 | 9.312 | 32.973 | 2 |
| 2025-04-28T11:46:00 | 53.922551 | 6.205196 | 2.0 | 9.174 | 2 | 35.487 | 9.312 | 32.969 | 2 |
| 2025-04-28T11:47:00 | 53.922626 | 6.204673 | 2.0 | 9.022 | 2 | 35.546 | 9.374 | 32.973 | 2 |
| 2025-04-28T11:48:00 | 53.922999 | 6.203951 | 2.0 | 8.970 | 2 | 35.416 | 9.218 | 32.983 | 2 |
| 2025-04-28T11:49:00 | 53.923553 | 6.202803 | 2.0 | 9.036 | 2 | 35.382 | 9.190 | 32.974 | 2 |
| 2025-04-28T11:50:00 | 53.924305 | 6.201410 | 2.0 | 8.982 | 2 | 35.447 | 9.266 | 32.971 | 2 |
| 2025-04-28T11:51:00 | 53.925167 | 6.199816 | 2.0 | 8.996 | 2 | 35.388 | 9.186 | 32.984 | 2 |
| 2025-04-28T11:52:00 | 53.926036 | 6.198004 | 2.0 | 8.853 | 2 | 35.396 | 9.206 | 32.973 | 2 |
| 2025-04-28T11:53:00 | 53.926943 | 6.196089 | 2.0 | 8.859 | 2 | 35.304 | 9.081 | 32.994 | 2 |
| 2025-04-28T11:54:00 | 53.927879 | 6.194102 | 2.0 | 8.989 | 2 | 35.315 | 9.118 | 32.971 | 2 |
| 2025-04-28T11:55:00 | 53.928836 | 6.192079 | 2.0 | 9.046 | 2 | 35.385 | 9.186 | 32.980 | 2 |
| 2025-04-28T11:56:00 | 53.929810 | 6.190024 | 2.0 | 9.009 | 2 | 35.419 | 9.215 | 32.989 | 2 |
| 2025-04-28T11:57:00 | 53.930795 | 6.187955 | 2.0 | 9.003 | 2 | 35.409 | 9.200 | 32.992 | 2 |
| 2025-04-28T11:58:00 | 53.931781 | 6.185867 | 2.0 | 8.982 | 2 | 35.408 | 9.190 | 33.001 | 2 |
| 2025-04-28T11:59:00 | 53.932773 | 6.183772 | 2.0 | 9.130 | 2 | 35.406 | 9.199 | 32.990 | 2 |
| 2025-04-28T12:00:00 | 53.933766 | 6.181678 | 2.0 | 8.972 | 2 | 35.502 | 9.287 | 33.008 | 2 |
| 2025-04-28T12:01:00 | 53.934688 | 6.179686 | 2.0 | 8.876 | 2 | 35.383 | 9.141 | 33.020 | 2 |
| 2025-04-28T12:02:00 | 53.935417 | 6.177907 | 2.0 | 8.910 | 2 | 35.314 | 9.073 | 33.011 | 2 |
| 2025-04-28T12:03:00 | 53.935780 | 6.176164 | 2.0 | 8.882 | 2 | 35.345 | 9.112 | 33.007 | 2 |
| 2025-04-28T12:04:00 | 53.936226 | 6.174643 | 2.0 | 8.857 | 2 | 35.318 | 9.075 | 33.014 | 2 |
| 2025-04-28T12:05:00 | 53.936612 | 6.173205 | 2.0 | 8.924 | 2 | 35.294 | 9.048 | 33.014 | 2 |
| 2025-04-28T12:06:00 | 53.937001 | 6.171853 | 2.0 | 8.927 | 2 | 35.351 | 9.108 | 33.017 | 2 |
| 2025-04-28T12:07:00 | 53.937366 | 6.170551 | 2.0 | 9.008 | 2 | 35.385 | 9.147 | 33.017 | 2 |
| 2025-04-28T12:08:00 | 53.937776 | 6.169374 | 2.0 | 8.780 | 2 | 35.416 | 9.167 | 33.030 | 2 |
| 2025-04-28T12:09:00 | 53.938333 | 6.168571 | 2.0 | 8.764 | 2 | 35.246 | 8.977 | 33.030 | 2 |
| 2025-04-28T12:10:00 | 53.938938 | 6.168101 | 2.0 | 8.778 | 2 | 35.212 | 8.956 | 33.014 | 2 |
| 2025-04-28T12:11:00 | 53.939589 | 6.167927 | 2.0 | 8.756 | 2 | 35.217 | 8.960 | 33.015 | 2 |
| 2025-04-28T12:12:00 | 53.940371 | 6.167827 | 2.0 | 8.775 | 2 | 35.206 | 8.948 | 33.015 | 2 |
| 2025-04-28T12:13:00 | 53.941255 | 6.167971 | 2.0 | 8.851 | 2 | 35.229 | 8.982 | 33.007 | 2 |
| 2025-04-28T12:14:00 | 53.942324 | 6.168297 | 2.0 | 9.036 | 2 | 35.302 | 9.058 | 33.013 | 2 |
| 2025-04-28T12:15:00 | 53.943273 | 6.169397 | 2.0 | 9.141 | 2 | 35.458 | 9.233 | 33.012 | 2 |
| 2025-04-28T12:16:00 | 53.943701 | 6.171317 | 2.0 | 9.124 | 2 | 35.537 | 9.313 | 33.020 | 2 |
| 2025-04-28T12:17:00 | 53.943655 | 6.173302 | 2.0 | 9.133 | 2 | 35.518 | 9.301 | 33.012 | 2 |
| 2025-04-28T12:18:00 | 53.943289 | 6.174591 | 2.0 | 9.035 | 2 | 35.527 | 9.319 | 33.004 | 2 |
| 2025-04-28T12:19:00 | 53.942789 | 6.175048 | 2.0 | 9.046 | 2 | 35.433 | 9.210 | 33.008 | 2 |
| 2025-04-28T12:20:00 | 53.942485 | 6.175577 | 2.0 | 9.156 | 2 | 35.500 | 9.301 | 32.993 | 2 |
| 2025-04-28T12:21:00 | 53.942281 | 6.176138 | 2.0 | 9.090 | 2 | 35.529 | 9.316 | 33.009 | 2 |
| 2025-04-28T12:22:00 | 53.942072 | 6.176689 | 2.0 | 9.114 | 2 | 35.517 | 9.329 | 32.985 | 2 |
| 2025-04-28T12:23:00 | 53.941871 | 6.177235 | 2.0 | 8.947 | 2 | 35.486 | 9.275 | 33.003 | 2 |
| 2025-04-28T12:24:00 | 53.941676 | 6.177781 | 2.0 | 9.080 | 2 | 35.394 | 9.193 | 32.983 | 2 |
| 2025-04-28T12:25:00 | 53.941498 | 6.178317 | 2.0 | 8.842 | 2 | 35.440 | 9.224 | 33.002 | 2 |
| 2025-04-28T12:26:00 | 53.941358 | 6.178699 | 2.0 | 8.828 | 2 | 35.259 | 9.039 | 32.986 | 2 |
| 2025-04-28T12:27:00 | 53.941230 | 6.179032 | 2.0 | 8.945 | 2 | 35.306 | 9.116 | 32.963 | 2 |
| 2025-04-28T12:28:00 | 53.941235 | 6.179391 | 2.0 | 8.907 | 2 | 35.355 | 9.155 | 32.978 | 2 |
| 2025-04-28T12:29:00 | 53.941352 | 6.179765 | 2.0 | 8.886 | 2 | 35.309 | 9.095 | 32.986 | 2 |
| 2025-04-28T12:30:00 | 53.941978 | 6.179462 | 2.0 | 8.919 | 2 | 35.355 | 9.166 | 32.968 | 2 |
| 2025-04-28T12:31:00 | 53.942754 | 6.178653 | 2.0 | 8.942 | 2 | 35.334 | 9.126 | 32.983 | 2 |
| 2025-04-28T12:32:00 | 53.943602 | 6.177685 | 2.0 | 8.931 | 2 | 35.357 | 9.156 | 32.979 | 2 |
| 2025-04-28T12:33:00 | 53.944488 | 6.176622 | 2.0 | 8.997 | 2 | 35.347 | 9.138 | 32.985 | 2 |
| 2025-04-28T12:34:00 | 53.945100 | 6.176507 | 2.0 | 8.960 | 2 | 35.383 | 9.231 | 32.937 | 2 |
| 2025-04-28T12:35:00 | 53.945174 | 6.176906 | 2.0 | 8.951 | 2 | 35.344 | 9.135 | 32.985 | 2 |
| 2025-04-28T12:36:00 | 53.945003 | 6.177541 | 2.0 | 8.979 | 2 | 35.332 | 9.168 | 32.942 | 2 |
| 2025-04-28T12:37:00 | 53.944767 | 6.178246 | 2.0 | 9.102 | 2 | 35.377 | 9.218 | 32.943 | 2 |
| 2025-04-28T12:38:00 | 53.944497 | 6.179039 | 2.0 | 9.105 | 2 | 35.482 | 9.311 | 32.965 | 2 |
| 2025-04-28T12:39:00 | 53.944204 | 6.179903 | 2.0 | 9.023 | 2 | 35.477 | 9.302 | 32.968 | 2 |
| 2025-04-28T12:40:00 | 53.943902 | 6.180823 | 2.0 | 8.955 | 2 | 35.393 | 9.196 | 32.979 | 2 |
| 2025-04-28T12:41:00 | 53.943621 | 6.181731 | 2.0 | 9.037 | 2 | 35.381 | 9.199 | 32.964 | 2 |
| 2025-04-28T12:42:00 | 53.943501 | 6.181970 | 2.0 | 8.906 | 2 | 35.411 | 9.233 | 32.964 | 2 |
| 2025-04-28T12:43:00 | 53.943602 | 6.181934 | 2.0 | 8.952 | 2 | 35.338 | 9.136 | 32.978 | 2 |
| 2025-04-28T12:44:00 | 53.943778 | 6.182010 | 2.0 | 8.998 | 2 | 35.366 | 9.176 | 32.970 | 2 |
| 2025-04-28T12:45:00 | 53.943963 | 6.182550 | 2.0 | 8.957 | 2 | 35.378 | 9.189 | 32.970 | 2 |
| 2025-04-28T12:46:00 | 53.944472 | 6.183817 | 2.0 | 9.216 | 2 | 35.390 | 9.208 | 32.965 | 2 |
| 2025-04-28T12:47:00 | 53.945151 | 6.185823 | 2.0 | 9.138 | 2 | 35.573 | 9.419 | 32.959 | 2 |
| 2025-04-28T12:48:00 | 53.945853 | 6.188096 | 2.0 | 8.937 | 2 | 35.472 | 9.292 | 32.972 | 2 |
| 2025-04-28T12:49:00 | 53.946547 | 6.190494 | 2.0 | 9.011 | 2 | 35.352 | 9.167 | 32.964 | 2 |
| 2025-04-28T12:50:00 | 53.947197 | 6.192735 | 2.0 | 9.103 | 2 | 35.412 | 9.243 | 32.956 | 2 |
| 2025-04-28T12:51:00 | 53.947750 | 6.194599 | 2.0 | 9.220 | 2 | 35.493 | 9.341 | 32.949 | 2 |
| 2025-04-28T12:52:00 | 53.948201 | 6.196185 | 2.0 | 9.099 | 2 | 35.557 | 9.404 | 32.957 | 2 |
| 2025-04-28T12:53:00 | 53.948579 | 6.197713 | 2.0 | 9.205 | 2 | 35.506 | 9.352 | 32.952 | 2 |
| 2025-04-28T12:54:00 | 53.948645 | 6.199081 | 2.0 | 9.009 | 2 | 35.517 | 9.358 | 32.958 | 2 |
| 2025-04-28T12:55:00 | 53.948413 | 6.200055 | 2.0 | 8.890 | 2 | 35.403 | 9.234 | 32.955 | 2 |
| 2025-04-28T12:56:00 | 53.948239 | 6.200559 | 2.0 | 8.832 | 2 | 35.275 | 9.083 | 32.962 | 2 |
| 2025-04-28T12:57:00 | 53.948100 | 6.201025 | 2.0 | 8.826 | 2 | 35.236 | 9.054 | 32.948 | 2 |
| 2025-04-28T12:58:00 | 53.948053 | 6.201288 | 2.0 | 8.839 | 2 | 35.242 | 9.063 | 32.946 | 2 |
| 2025-04-28T12:59:00 | 53.948147 | 6.201490 | 2.0 | 9.244 | 2 | 35.280 | 9.114 | 32.938 | 2 |
| 2025-04-28T13:00:00 | 53.948235 | 6.201755 | 2.0 | 8.785 | 2 | 35.485 | 9.335 | 32.946 | 2 |
| 2025-04-28T13:01:00 | 53.948657 | 6.201657 | 2.0 | 8.941 | 2 | 35.244 | 9.053 | 32.957 | 2 |
| 2025-04-28T13:02:00 | 53.949316 | 6.200327 | 2.0 | 9.316 | 2 | 35.390 | 9.257 | 32.920 | 2 |
| 2025-04-28T13:03:00 | 53.949947 | 6.198037 | 2.0 | 9.095 | 2 | 35.585 | 9.440 | 32.953 | 2 |
| 2025-04-28T13:04:00 | 53.950656 | 6.196684 | 2.0 | 8.922 | 2 | 35.463 | 9.287 | 32.968 | 2 |
| 2025-04-28T13:05:00 | 53.951016 | 6.196619 | 2.0 | 8.890 | 2 | 35.325 | 9.135 | 32.965 | 2 |
| 2025-04-28T13:06:00 | 53.951115 | 6.196776 | 2.0 | 8.928 | 2 | 35.297 | 9.113 | 32.957 | 2 |
| 2025-04-28T13:07:00 | 53.951017 | 6.197616 | 2.0 | 9.024 | 2 | 35.340 | 9.169 | 32.949 | 2 |
| 2025-04-28T13:08:00 | 53.950853 | 6.198685 | 2.0 | 9.188 | 2 | 35.434 | 9.276 | 32.948 | 2 |
| 2025-04-28T13:09:00 | 53.950684 | 6.199830 | 2.0 | 9.181 | 2 | 35.515 | 9.364 | 32.950 | 2 |
| 2025-04-28T13:10:00 | 53.950545 | 6.200790 | 2.0 | 9.096 | 2 | 35.533 | 9.385 | 32.950 | 2 |
| 2025-04-28T13:11:00 | 53.950471 | 6.201251 | 2.0 | 9.325 | 2 | 35.524 | 9.392 | 32.934 | 2 |
| 2025-04-28T13:12:00 | 53.950478 | 6.201557 | 2.0 | 9.036 | 2 | 35.584 | 9.423 | 32.967 | 2 |
| 2025-04-28T13:13:00 | 53.950502 | 6.201821 | 2.0 | 8.927 | 2 | 35.413 | 9.242 | 32.958 | 2 |
| 2025-04-28T13:14:00 | 53.950476 | 6.202133 | 2.0 | 8.885 | 2 | 35.314 | 9.130 | 32.959 | 2 |
| 2025-04-28T13:15:00 | 53.950892 | 6.202038 | 2.0 | 9.310 | 2 | 35.358 | 9.209 | 32.931 | 2 |
| 2025-04-28T13:16:00 | 53.951706 | 6.200892 | 2.0 | 9.352 | 2 | 35.625 | 9.502 | 32.937 | 2 |
| 2025-04-28T13:17:00 | 53.952633 | 6.199524 | 2.0 | 9.041 | 2 | 35.656 | 9.509 | 32.962 | 2 |
| 2025-04-28T13:18:00 | 53.952968 | 6.200009 | 2.0 | 9.043 | 2 | 35.429 | 9.247 | 32.970 | 2 |
| 2025-04-28T13:19:00 | 53.952784 | 6.201097 | 2.0 | 9.181 | 2 | 35.430 | 9.274 | 32.946 | 2 |
| 2025-04-28T13:20:00 | 53.952325 | 6.202601 | 2.0 | 9.055 | 2 | 35.540 | 9.389 | 32.953 | 2 |
| 2025-04-28T13:21:00 | 53.952044 | 6.203641 | 2.0 | 8.920 | 2 | 35.430 | 9.252 | 32.966 | 2 |
| 2025-04-28T13:22:00 | 53.951911 | 6.204145 | 2.0 | 8.883 | 2 | 35.332 | 9.149 | 32.960 | 2 |
| 2025-04-28T13:23:00 | 53.951915 | 6.204497 | 2.0 | 8.878 | 2 | 35.284 | 9.099 | 32.956 | 2 |
| 2025-04-28T13:24:00 | 53.951824 | 6.204658 | 2.0 | 8.866 | 2 | 35.281 | 9.098 | 32.954 | 2 |
| 2025-04-28T13:25:00 | 53.951657 | 6.204787 | 2.0 | 8.903 | 2 | 35.273 | 9.087 | 32.956 | 2 |
| 2025-04-28T13:26:00 | 53.951465 | 6.205091 | 2.0 | 8.893 | 2 | 35.300 | 9.121 | 32.952 | 2 |
| 2025-04-28T13:27:00 | 53.951234 | 6.205532 | 2.0 | 9.090 | 2 | 35.347 | 9.182 | 32.945 | 2 |
| 2025-04-28T13:28:00 | 53.950973 | 6.206068 | 2.0 | 8.979 | 2 | 35.437 | 9.268 | 32.958 | 2 |
| 2025-04-28T13:29:00 | 53.950689 | 6.206673 | 2.0 | 9.086 | 2 | 35.422 | 9.264 | 32.947 | 2 |
| 2025-04-28T13:30:00 | 53.950379 | 6.207351 | 2.0 | 9.085 | 2 | 35.443 | 9.271 | 32.962 | 2 |
| 2025-04-28T13:31:00 | 53.950042 | 6.208110 | 2.0 | 9.025 | 2 | 35.470 | 9.310 | 32.954 | 2 |
| 2025-04-28T13:32:00 | 53.949692 | 6.208919 | 2.0 | 9.133 | 2 | 35.456 | 9.303 | 32.946 | 2 |
| 2025-04-28T13:33:00 | 53.949322 | 6.209764 | 2.0 | 9.066 | 2 | 35.513 | 9.357 | 32.955 | 2 |
| 2025-04-28T13:34:00 | 53.948854 | 6.210569 | 2.0 | 9.225 | 2 | 35.478 | 9.318 | 32.955 | 2 |
| 2025-04-28T13:35:00 | 53.948144 | 6.211445 | 2.0 | 9.140 | 2 | 35.584 | 9.450 | 32.942 | 2 |
| 2025-04-28T13:36:00 | 53.947215 | 6.212434 | 2.0 | 9.256 | 2 | 35.505 | 9.341 | 32.961 | 2 |
| 2025-04-28T13:37:00 | 53.946154 | 6.213501 | 2.0 | 9.214 | 2 | 35.558 | 9.412 | 32.950 | 2 |
| 2025-04-28T13:38:00 | 53.944974 | 6.214856 | 2.0 | 9.264 | 2 | 35.586 | 9.442 | 32.952 | 2 |
| 2025-04-28T13:39:00 | 53.943682 | 6.216643 | 2.0 | 9.191 | 2 | 35.603 | 9.451 | 32.961 | 2 |
| 2025-04-28T13:40:00 | 53.942253 | 6.218550 | 2.0 | 9.197 | 2 | 35.548 | 9.386 | 32.964 | 2 |
| 2025-04-28T13:41:00 | 53.940747 | 6.220496 | 2.0 | 9.161 | 2 | 35.533 | 9.378 | 32.956 | 2 |
| 2025-04-28T13:42:00 | 53.939250 | 6.222460 | 2.0 | 9.103 | 2 | 35.505 | 9.336 | 32.966 | 2 |
| 2025-04-28T13:43:00 | 53.937793 | 6.224394 | 2.0 | 9.138 | 2 | 35.477 | 9.300 | 32.970 | 2 |
| 2025-04-28T13:44:00 | 53.936374 | 6.226334 | 2.0 | 9.141 | 2 | 35.509 | 9.340 | 32.966 | 2 |
| 2025-04-28T13:45:00 | 53.934934 | 6.228228 | 2.0 | 9.172 | 2 | 35.532 | 9.366 | 32.966 | 2 |
| 2025-04-28T13:46:00 | 53.933481 | 6.230107 | 2.0 | 9.256 | 2 | 35.528 | 9.354 | 32.973 | 2 |
| 2025-04-28T13:47:00 | 53.932049 | 6.232009 | 2.0 | 9.308 | 2 | 35.619 | 9.474 | 32.956 | 2 |
| 2025-04-28T13:48:00 | 53.930616 | 6.233913 | 2.0 | 9.454 | 2 | 35.672 | 9.527 | 32.962 | 2 |
| 2025-04-28T13:49:00 | 53.929187 | 6.235821 | 2.0 | 9.441 | 2 | 35.759 | 9.620 | 32.966 | 2 |
| 2025-04-28T13:50:00 | 53.927737 | 6.237734 | 2.0 | 9.509 | 2 | 35.764 | 9.619 | 32.972 | 2 |
| 2025-04-28T13:51:00 | 53.926288 | 6.239648 | 2.0 | 9.559 | 2 | 35.843 | 9.710 | 32.969 | 2 |
| 2025-04-28T13:52:00 | 53.924844 | 6.241556 | 2.0 | 9.502 | 2 | 35.863 | 9.728 | 32.973 | 2 |
| 2025-04-28T13:53:00 | 53.923416 | 6.243480 | 2.0 | 9.415 | 2 | 35.821 | 9.666 | 32.987 | 2 |
| 2025-04-28T13:54:00 | 53.921972 | 6.245375 | 2.0 | 9.235 | 2 | 35.737 | 9.572 | 32.987 | 2 |
| 2025-04-28T13:55:00 | 53.920536 | 6.247266 | 2.0 | 9.195 | 2 | 35.617 | 9.440 | 32.985 | 2 |
| 2025-04-28T13:56:00 | 53.919102 | 6.249162 | 2.0 | 9.093 | 2 | 35.534 | 9.352 | 32.981 | 2 |
| 2025-04-28T13:57:00 | 53.917666 | 6.251033 | 2.0 | 9.305 | 2 | 35.509 | 9.341 | 32.965 | 2 |
| 2025-04-28T13:58:00 | 53.916252 | 6.252926 | 2.0 | 9.158 | 2 | 35.600 | 9.430 | 32.977 | 2 |
| 2025-04-28T13:59:00 | 53.914850 | 6.254847 | 2.0 | 9.087 | 2 | 35.504 | 9.316 | 32.983 | 2 |
| 2025-04-28T14:00:00 | 53.913428 | 6.256719 | 2.0 | 9.146 | 2 | 35.480 | 9.292 | 32.981 | 2 |
| 2025-04-28T14:01:00 | 53.911995 | 6.258575 | 2.0 | 9.118 | 2 | 35.494 | 9.305 | 32.983 | 2 |
| 2025-04-28T14:02:00 | 53.910575 | 6.260456 | 2.0 | 9.094 | 2 | 35.490 | 9.300 | 32.984 | 2 |
| 2025-04-28T14:03:00 | 53.909166 | 6.262352 | 2.0 | 9.084 | 2 | 35.496 | 9.315 | 32.976 | 2 |
| 2025-04-28T14:04:00 | 53.907739 | 6.264212 | 2.0 | 8.993 | 2 | 35.465 | 9.266 | 32.989 | 2 |
| 2025-04-28T14:05:00 | 53.906334 | 6.266091 | 2.0 | 9.056 | 2 | 35.410 | 9.205 | 32.989 | 2 |
| 2025-04-28T14:06:00 | 53.904932 | 6.267972 | 2.0 | 9.035 | 2 | 35.468 | 9.279 | 32.980 | 2 |
| 2025-04-28T14:07:00 | 53.903517 | 6.269825 | 2.0 | 9.022 | 2 | 35.436 | 9.227 | 32.995 | 2 |
| 2025-04-28T14:08:00 | 53.902088 | 6.271653 | 2.0 | 9.045 | 2 | 35.442 | 9.256 | 32.975 | 2 |
| 2025-04-28T14:09:00 | 53.900676 | 6.273510 | 2.0 | 9.170 | 2 | 35.491 | 9.305 | 32.980 | 2 |
| 2025-04-28T14:10:00 | 53.899277 | 6.275393 | 2.0 | 9.293 | 2 | 35.534 | 9.353 | 32.980 | 2 |
| 2025-04-28T14:11:00 | 53.897874 | 6.277264 | 2.0 | 9.472 | 2 | 35.643 | 9.497 | 32.960 | 2 |
| 2025-04-28T14:12:00 | 53.896458 | 6.279122 | 2.0 | 9.375 | 2 | 35.743 | 9.591 | 32.976 | 2 |
| 2025-04-28T14:13:00 | 53.895057 | 6.280966 | 2.0 | 9.291 | 2 | 35.693 | 9.532 | 32.979 | 2 |
| 2025-04-28T14:14:00 | 53.893663 | 6.282819 | 2.0 | 9.310 | 2 | 35.636 | 9.487 | 32.962 | 2 |
| 2025-04-28T14:15:00 | 53.892285 | 6.284682 | 2.0 | 9.228 | 2 | 35.599 | 9.447 | 32.960 | 2 |
| 2025-04-28T14:16:00 | 53.890915 | 6.286538 | 2.0 | 9.296 | 2 | 35.571 | 9.432 | 32.945 | 2 |
| 2025-04-28T14:17:00 | 53.889512 | 6.288340 | 2.0 | 9.356 | 2 | 35.625 | 9.490 | 32.948 | 2 |
| 2025-04-28T14:18:00 | 53.888104 | 6.290133 | 2.0 | 9.382 | 2 | 35.651 | 9.519 | 32.948 | 2 |
| 2025-04-28T14:19:00 | 53.886749 | 6.291969 | 2.0 | 9.272 | 2 | 35.655 | 9.531 | 32.941 | 2 |
| 2025-04-28T14:20:00 | 53.885403 | 6.293797 | 2.0 | 9.277 | 2 | 35.557 | 9.442 | 32.922 | 2 |
| 2025-04-28T14:21:00 | 53.884034 | 6.295583 | 2.0 | 9.345 | 2 | 35.527 | 9.450 | 32.884 | 2 |
| 2025-04-28T14:22:00 | 53.882686 | 6.297374 | 2.0 | 9.305 | 2 | 35.584 | 9.515 | 32.883 | 2 |
| 2025-04-28T14:23:00 | 53.881332 | 6.299142 | 2.0 | 9.294 | 2 | 35.567 | 9.485 | 32.893 | 2 |
| 2025-04-28T14:24:00 | 53.879972 | 6.300907 | 2.0 | 9.328 | 2 | 35.580 | 9.502 | 32.890 | 2 |
| 2025-04-28T14:25:00 | 53.878653 | 6.302753 | 2.0 | 9.160 | 2 | 35.581 | 9.486 | 32.906 | 2 |
| 2025-04-28T14:26:00 | 53.877313 | 6.304615 | 2.0 | 9.125 | 2 | 35.440 | 9.346 | 32.890 | 2 |
| 2025-04-28T14:27:00 | 53.875873 | 6.306413 | 2.0 | 9.061 | 2 | 35.340 | 9.287 | 32.841 | 2 |
| 2025-04-28T14:28:00 | 53.874444 | 6.308276 | 2.0 | 9.176 | 2 | 35.314 | 9.288 | 32.813 | 2 |
| 2025-04-28T14:29:00 | 53.873027 | 6.310182 | 2.0 | 9.069 | 2 | 35.300 | 9.295 | 32.792 | 2 |
| 2025-04-28T14:30:00 | 53.871588 | 6.312044 | 2.0 | 9.318 | 2 | 35.293 | 9.329 | 32.754 | 2 |
| 2025-04-28T14:31:00 | 53.870148 | 6.313907 | 2.0 | 9.276 | 2 | 35.406 | 9.458 | 32.752 | 2 |
| 2025-04-28T14:32:00 | 53.868732 | 6.315818 | 2.0 | 9.382 | 2 | 35.406 | 9.489 | 32.724 | 2 |
| 2025-04-28T14:33:00 | 53.867311 | 6.317716 | 2.0 | 9.390 | 2 | 35.463 | 9.569 | 32.709 | 2 |
| 2025-04-28T14:34:00 | 53.865869 | 6.319582 | 2.0 | 9.172 | 2 | 35.347 | 9.514 | 32.640 | 2 |
| 2025-04-28T14:35:00 | 53.864444 | 6.321447 | 2.0 | 9.161 | 2 | 35.253 | 9.358 | 32.686 | 2 |
| 2025-04-28T14:36:00 | 53.863045 | 6.323336 | 2.0 | 9.337 | 2 | 35.261 | 9.401 | 32.655 | 2 |
| 2025-04-28T14:37:00 | 53.861632 | 6.325189 | 2.0 | 9.491 | 2 | 34.866 | 9.513 | 32.148 | 2 |
| 2025-04-28T14:38:00 | 53.860207 | 6.327040 | 2.0 | 9.518 | 2 | 35.242 | 9.662 | 32.399 | 2 |
| 2025-04-28T14:39:00 | 53.858636 | 6.328619 | 2.0 | 9.321 | 2 | 35.514 | 9.665 | 32.674 | 2 |
| 2025-04-28T14:40:00 | 53.857002 | 6.329871 | 2.0 | 9.351 | 2 | 35.368 | 9.524 | 32.653 | 2 |
| 2025-04-28T14:41:00 | 53.855482 | 6.331242 | 2.0 | 9.274 | 2 | 35.369 | 9.540 | 32.639 | 2 |
| 2025-04-28T14:42:00 | 53.854010 | 6.332653 | 2.0 | 9.371 | 2 | 35.286 | 9.444 | 32.641 | 2 |
| 2025-04-28T14:43:00 | 53.852506 | 6.333951 | 2.0 | 9.520 | 2 | 35.126 | 9.587 | 32.348 | 2 |
| 2025-04-28T14:44:00 | 53.851020 | 6.335257 | 2.0 | 9.361 | 2 | 35.439 | 9.666 | 32.596 | 2 |
| 2025-04-28T14:45:00 | 53.849549 | 6.336571 | 2.0 | 9.385 | 2 | 35.127 | 9.550 | 32.382 | 2 |
| 2025-04-28T14:46:00 | 53.848087 | 6.337903 | 2.0 | 9.520 | 2 | 35.323 | 9.550 | 32.583 | 2 |
| 2025-04-28T14:47:00 | 53.846627 | 6.339227 | 2.0 | 9.541 | 2 | 35.080 | 9.709 | 32.191 | 2 |
| 2025-04-28T14:48:00 | 53.845161 | 6.340529 | 2.0 | 9.585 | 2 | 35.420 | 9.710 | 32.537 | 2 |
| 2025-04-28T14:49:00 | 53.843712 | 6.341859 | 2.0 | 9.672 | 2 | 35.388 | 9.763 | 32.456 | 2 |
| 2025-04-28T14:50:00 | 53.842246 | 6.343181 | 2.0 | 9.727 | 2 | 35.287 | 9.853 | 32.273 | 2 |
| 2025-04-28T14:51:00 | 53.840769 | 6.344496 | 2.0 | 9.777 | 2 | 35.472 | 9.878 | 32.438 | 2 |
| 2025-04-28T14:52:00 | 53.839251 | 6.345720 | 2.0 | 9.862 | 2 | 35.599 | 9.956 | 32.497 | 2 |
| 2025-04-28T14:53:00 | 53.837675 | 6.346852 | 2.0 | 9.619 | 2 | 35.285 | 10.009 | 32.132 | 2 |
| 2025-04-28T14:54:00 | 53.836085 | 6.347950 | 2.0 | 9.770 | 2 | 35.189 | 9.782 | 32.237 | 2 |
| 2025-04-28T14:55:00 | 53.834505 | 6.349064 | 2.0 | 10.031 | 2 | 35.305 | 10.005 | 32.155 | 2 |
| 2025-04-28T14:56:00 | 53.832938 | 6.350176 | 2.0 | 9.500 | 2 | 35.528 | 10.099 | 32.297 | 2 |
| 2025-04-28T14:57:00 | 53.831387 | 6.351254 | 2.0 | 9.439 | 2 | 35.274 | 9.649 | 32.443 | 2 |
| 2025-04-28T14:58:00 | 53.829862 | 6.352369 | 2.0 | 9.504 | 2 | 34.679 | 9.621 | 31.861 | 2 |
| 2025-04-28T14:59:00 | 53.828362 | 6.353515 | 2.0 | 9.760 | 2 | 34.718 | 9.733 | 31.801 | 2 |
| 2025-04-28T15:00:00 | 53.826854 | 6.354665 | 2.0 | 9.861 | 2 | 35.513 | 9.966 | 32.401 | 2 |
| 2025-04-28T15:01:00 | 53.825303 | 6.355780 | 2.0 | 9.527 | 2 | 35.553 | 9.994 | 32.416 | 2 |
| 2025-04-28T15:02:00 | 53.823712 | 6.356835 | 2.0 | 9.452 | 2 | 35.265 | 9.678 | 32.408 | 2 |
| 2025-04-28T15:03:00 | 53.822142 | 6.357954 | 2.0 | 9.498 | 2 | 35.177 | 9.665 | 32.330 | 2 |
| 2025-04-28T15:04:00 | 53.820570 | 6.359051 | 2.0 | 9.380 | 2 | 35.165 | 9.672 | 32.311 | 2 |
| 2025-04-28T15:05:00 | 53.818979 | 6.360059 | 2.0 | 9.360 | 2 | 35.049 | 9.561 | 32.292 | 2 |
| 2025-04-28T15:06:00 | 53.817389 | 6.361088 | 2.0 | 9.385 | 2 | 35.031 | 9.551 | 32.283 | 2 |
| 2025-04-28T15:07:00 | 53.815817 | 6.362169 | 2.0 | 9.478 | 2 | 35.034 | 9.573 | 32.266 | 2 |
| 2025-04-28T15:08:00 | 53.814261 | 6.363294 | 2.0 | 9.388 | 2 | 35.102 | 9.669 | 32.249 | 2 |
| 2025-04-28T15:09:00 | 53.812692 | 6.364379 | 2.0 | 9.359 | 2 | 35.020 | 9.573 | 32.252 | 2 |
| 2025-04-28T15:10:00 | 53.811121 | 6.365440 | 2.0 | 9.368 | 2 | 34.984 | 9.541 | 32.244 | 2 |
| 2025-04-28T15:11:00 | 53.809567 | 6.366472 | 2.0 | 9.427 | 2 | 34.990 | 9.557 | 32.236 | 2 |
| 2025-04-28T15:12:00 | 53.808031 | 6.367504 | 2.0 | 9.529 | 2 | 35.007 | 9.611 | 32.204 | 2 |
| 2025-04-28T15:13:00 | 53.806491 | 6.368613 | 2.0 | 9.685 | 2 | 35.087 | 9.732 | 32.178 | 2 |
| 2025-04-28T15:14:00 | 53.804906 | 6.369749 | 2.0 | 9.924 | 2 | 35.230 | 9.907 | 32.167 | 2 |
| 2025-04-28T15:15:00 | 53.803330 | 6.370812 | 2.0 | 10.118 | 2 | 35.437 | 10.137 | 32.171 | 2 |
| 2025-04-28T15:16:00 | 53.801690 | 6.371906 | 2.0 | 9.992 | 2 | 35.549 | 10.274 | 32.163 | 2 |
| 2025-04-28T15:17:00 | 53.800004 | 6.372994 | 2.0 | 10.065 | 2 | 35.438 | 10.165 | 32.148 | 2 |
| 2025-04-28T15:18:00 | 53.798347 | 6.374141 | 2.0 | 9.805 | 2 | 35.436 | 10.177 | 32.135 | 2 |
| 2025-04-28T15:19:00 | 53.796721 | 6.375233 | 2.0 | 9.516 | 2 | 35.189 | 9.907 | 32.125 | 2 |
| 2025-04-28T15:20:00 | 53.795110 | 6.376306 | 2.0 | 9.559 | 2 | 35.020 | 9.752 | 32.092 | 2 |
| 2025-04-28T15:21:00 | 53.793522 | 6.377423 | 2.0 | 9.587 | 2 | 34.994 | 9.733 | 32.082 | 2 |
| 2025-04-28T15:22:00 | 53.791931 | 6.378538 | 2.0 | 9.638 | 2 | 35.046 | 9.811 | 32.065 | 2 |
| 2025-04-28T15:23:00 | 53.790331 | 6.379609 | 2.0 | 9.551 | 2 | 35.049 | 9.798 | 32.080 | 2 |
| 2025-04-28T15:24:00 | 53.788720 | 6.380661 | 2.0 | 9.961 | 2 | 35.033 | 9.804 | 32.058 | 2 |
| 2025-04-28T15:25:00 | 53.787131 | 6.381782 | 2.0 | 10.038 | 2 | 35.272 | 10.113 | 32.026 | 2 |
| 2025-04-28T15:26:00 | 53.785542 | 6.382884 | 2.0 | 10.273 | 2 | 35.356 | 10.216 | 32.020 | 2 |
| 2025-04-28T15:27:00 | 53.783935 | 6.383977 | 2.0 | 10.364 | 2 | 35.522 | 10.419 | 32.007 | 2 |
| 2025-04-28T15:28:00 | 53.782330 | 6.385049 | 2.0 | 10.249 | 2 | 35.611 | 10.531 | 31.998 | 2 |
| 2025-04-28T15:29:00 | 53.780718 | 6.386106 | 2.0 | 10.153 | 2 | 35.518 | 10.414 | 32.008 | 2 |
| 2025-04-28T15:30:00 | 53.779116 | 6.387191 | 2.0 | 9.936 | 2 | 35.398 | 10.274 | 32.011 | 2 |
| 2025-04-28T15:31:00 | 53.777523 | 6.388308 | 2.0 | 9.940 | 2 | 35.241 | 10.112 | 31.996 | 2 |
| 2025-04-28T15:32:00 | 53.775967 | 6.389492 | 2.0 | 9.952 | 2 | 35.219 | 10.113 | 31.973 | 2 |
| 2025-04-28T15:33:00 | 53.774560 | 6.391073 | 2.0 | 9.973 | 2 | 35.209 | 10.114 | 31.962 | 2 |
| 2025-04-28T15:34:00 | 53.773096 | 6.392678 | 2.0 | 9.906 | 2 | 35.242 | 10.140 | 31.972 | 2 |
| 2025-04-28T15:35:00 | 53.771514 | 6.394144 | 2.0 | 9.902 | 2 | 35.206 | 10.076 | 31.992 | 2 |
| 2025-04-28T15:36:00 | 53.769971 | 6.395723 | 2.0 | 9.905 | 2 | 35.196 | 10.102 | 31.959 | 2 |
| 2025-04-28T15:37:00 | 53.768426 | 6.397324 | 2.0 | 9.820 | 2 | 35.180 | 10.044 | 31.994 | 2 |
| 2025-04-28T15:38:00 | 53.766844 | 6.398893 | 2.0 | 9.835 | 2 | 35.132 | 10.028 | 31.960 | 2 |
| 2025-04-28T15:39:00 | 53.765286 | 6.400469 | 2.0 | 9.820 | 2 | 35.141 | 10.019 | 31.977 | 2 |
| 2025-04-28T15:40:00 | 53.763757 | 6.402067 | 2.0 | 9.812 | 2 | 35.158 | 10.050 | 31.967 | 2 |
| 2025-04-28T15:41:00 | 53.762218 | 6.403627 | 2.0 | 9.750 | 2 | 35.120 | 9.985 | 31.986 | 2 |
| 2025-04-28T15:42:00 | 53.760646 | 6.405128 | 2.0 | 9.744 | 2 | 34.730 | 9.927 | 31.643 | 2 |
| 2025-04-28T15:43:00 | 53.759114 | 6.406716 | 2.0 | 9.716 | 2 | 34.915 | 9.948 | 31.811 | 2 |
| 2025-04-28T15:44:00 | 53.757579 | 6.408308 | 2.0 | 9.725 | 2 | 34.788 | 9.886 | 31.737 | 2 |
| 2025-04-28T15:45:00 | 53.756018 | 6.409859 | 2.0 | 9.810 | 2 | 35.038 | 9.915 | 31.965 | 2 |
| 2025-04-28T15:46:00 | 53.754462 | 6.411413 | 2.0 | 9.805 | 2 | 34.663 | 9.978 | 31.530 | 2 |
| 2025-04-28T15:47:00 | 53.752935 | 6.413027 | 2.0 | 9.751 | 2 | 35.030 | 9.954 | 31.922 | 2 |
| 2025-04-28T15:48:00 | 53.751385 | 6.414596 | 2.0 | 9.820 | 2 | 34.583 | 9.933 | 31.489 | 2 |
| 2025-04-28T15:49:00 | 53.749815 | 6.416123 | 2.0 | 9.846 | 2 | 34.766 | 10.006 | 31.610 | 2 |
| 2025-04-28T15:50:00 | 53.748271 | 6.417708 | 2.0 | 9.808 | 2 | 34.942 | 10.023 | 31.773 | 2 |
| 2025-04-28T15:51:00 | 53.746743 | 6.419354 | 2.0 | 9.747 | 2 | 34.602 | 9.971 | 31.475 | 2 |
| 2025-04-28T15:52:00 | 53.745171 | 6.420924 | 2.0 | 9.777 | 2 | 34.864 | 9.923 | 31.782 | 2 |
| 2025-04-28T15:53:00 | 53.743590 | 6.422493 | 2.0 | 9.874 | 2 | 34.830 | 9.953 | 31.721 | 2 |
| 2025-04-28T15:54:00 | 53.742018 | 6.424078 | 2.0 | 10.082 | 2 | 34.889 | 10.121 | 31.633 | 2 |
| 2025-04-28T15:55:00 | 53.740467 | 6.425660 | 2.0 | 9.977 | 2 | 34.896 | 10.241 | 31.536 | 2 |
| 2025-04-28T15:56:00 | 53.738914 | 6.427194 | 2.0 | 9.900 | 2 | 34.639 | 10.126 | 31.377 | 2 |
| 2025-04-28T15:57:00 | 53.737378 | 6.428735 | 2.0 | 9.837 | 2 | 34.768 | 10.064 | 31.561 | 2 |
| 2025-04-28T15:58:00 | 53.735856 | 6.430298 | 2.0 | 9.791 | 2 | 34.687 | 10.003 | 31.533 | 2 |
| 2025-04-28T15:59:00 | 53.734320 | 6.431845 | 2.0 | 9.775 | 2 | 34.910 | 9.964 | 31.792 | 2 |
| 2025-04-28T16:00:00 | 53.732860 | 6.433515 | 2.0 | 9.760 | 2 | 34.816 | 9.948 | 31.711 | 2 |
| 2025-04-28T16:01:00 | 53.731758 | 6.435689 | 2.0 | 9.764 | 2 | 34.694 | 9.934 | 31.600 | 2 |
| 2025-04-28T16:02:00 | 53.730927 | 6.438151 | 2.0 | 9.771 | 2 | 34.727 | 9.939 | 31.629 | 2 |
| 2025-04-28T16:03:00 | 53.730107 | 6.440679 | 2.0 | 9.845 | 2 | 34.688 | 9.953 | 31.577 | 2 |
| 2025-04-28T16:04:00 | 53.729248 | 6.443204 | 2.0 | 10.051 | 2 | 34.853 | 10.048 | 31.661 | 2 |
| 2025-04-28T16:05:00 | 53.728373 | 6.445718 | 2.0 | 10.085 | 2 | 34.928 | 10.228 | 31.579 | 2 |
| 2025-04-28T16:06:00 | 53.727505 | 6.448224 | 2.0 | 10.049 | 2 | 34.827 | 10.245 | 31.463 | 2 |
| 2025-04-28T16:07:00 | 53.726732 | 6.450789 | 2.0 | 10.052 | 2 | 34.869 | 10.220 | 31.527 | 2 |
| 2025-04-28T16:08:00 | 53.726334 | 6.453526 | 2.0 | 10.082 | 2 | 34.849 | 10.230 | 31.498 | 2 |
| 2025-04-28T16:09:00 | 53.726280 | 6.456315 | 2.0 | 10.069 | 2 | 34.825 | 10.255 | 31.452 | 2 |
| 2025-04-28T16:10:00 | 53.726307 | 6.459126 | 2.0 | 10.030 | 2 | 34.798 | 10.217 | 31.458 | 2 |
| 2025-04-28T16:11:00 | 53.726300 | 6.461947 | 2.0 | 10.051 | 2 | 34.825 | 10.213 | 31.489 | 2 |
| 2025-04-28T16:12:00 | 53.726305 | 6.464778 | 2.0 | 10.123 | 2 | 34.778 | 10.243 | 31.416 | 2 |
| 2025-04-28T16:13:00 | 53.726323 | 6.467638 | 2.0 | 10.159 | 2 | 34.881 | 10.289 | 31.479 | 2 |
| 2025-04-28T16:14:00 | 53.726301 | 6.470517 | 2.0 | 10.227 | 2 | 34.926 | 10.348 | 31.473 | 2 |
| 2025-04-28T16:15:00 | 53.726285 | 6.473415 | 2.0 | 10.184 | 2 | 34.921 | 10.377 | 31.443 | 2 |
| 2025-04-28T16:16:00 | 53.726288 | 6.476324 | 2.0 | 10.202 | 2 | 34.862 | 10.365 | 31.394 | 2 |
| 2025-04-28T16:17:00 | 53.726295 | 6.479245 | 2.0 | 10.147 | 2 | 34.890 | 10.365 | 31.422 | 2 |
| 2025-04-28T16:18:00 | 53.726284 | 6.482160 | 2.0 | 10.144 | 2 | 34.864 | 10.325 | 31.431 | 2 |
| 2025-04-28T16:19:00 | 53.726295 | 6.485075 | 2.0 | 10.108 | 2 | 34.804 | 10.315 | 31.379 | 2 |
| 2025-04-28T16:20:00 | 53.726297 | 6.487989 | 2.0 | 10.134 | 2 | 34.779 | 10.292 | 31.374 | 2 |
| 2025-04-28T16:21:00 | 53.726281 | 6.490904 | 2.0 | 10.137 | 2 | 34.794 | 10.303 | 31.380 | 2 |
| 2025-04-28T16:22:00 | 53.726278 | 6.493816 | 2.0 | 10.113 | 2 | 34.802 | 10.306 | 31.385 | 2 |
| 2025-04-28T16:23:00 | 53.726262 | 6.496727 | 2.0 | 10.120 | 2 | 34.832 | 10.290 | 31.429 | 2 |
| 2025-04-28T16:24:00 | 53.726267 | 6.499648 | 2.0 | 10.145 | 2 | 34.802 | 10.297 | 31.393 | 2 |
| 2025-04-28T16:25:00 | 53.726294 | 6.502568 | 2.0 | 10.150 | 2 | 34.819 | 10.319 | 31.391 | 2 |
| 2025-04-28T16:26:00 | 53.726278 | 6.505508 | 2.0 | 10.254 | 2 | 34.837 | 10.327 | 31.402 | 2 |
| 2025-04-28T16:27:00 | 53.726289 | 6.508445 | 2.0 | 10.327 | 2 | 34.859 | 10.430 | 31.335 | 2 |
| 2025-04-28T16:28:00 | 53.726274 | 6.511370 | 2.0 | 10.391 | 2 | 34.946 | 10.498 | 31.363 | 2 |
| 2025-04-28T16:29:00 | 53.726261 | 6.514306 | 2.0 | 10.387 | 2 | 34.969 | 10.559 | 31.334 | 2 |
| 2025-04-28T16:30:00 | 53.726280 | 6.517247 | 2.0 | 10.469 | 2 | 34.962 | 10.574 | 31.314 | 2 |
| 2025-04-28T16:31:00 | 53.726283 | 6.520192 | 2.0 | 10.461 | 2 | 35.007 | 10.634 | 31.307 | 2 |
| 2025-04-28T16:32:00 | 53.726248 | 6.523140 | 2.0 | 10.423 | 2 | 35.031 | 10.615 | 31.347 | 2 |
| 2025-04-28T16:33:00 | 53.726256 | 6.526092 | 2.0 | 10.397 | 2 | 34.984 | 10.587 | 31.325 | 2 |
| 2025-04-28T16:34:00 | 53.726256 | 6.529044 | 2.0 | 10.347 | 2 | 35.015 | 10.560 | 31.379 | 2 |
| 2025-04-28T16:35:00 | 53.726263 | 6.532000 | 2.0 | 10.326 | 2 | 34.960 | 10.511 | 31.366 | 2 |
| 2025-04-28T16:36:00 | 53.726269 | 6.534969 | 2.0 | 10.276 | 2 | 34.945 | 10.484 | 31.375 | 2 |
| 2025-04-28T16:37:00 | 53.726260 | 6.537941 | 2.0 | 10.285 | 2 | 34.956 | 10.456 | 31.410 | 2 |
| 2025-04-28T16:38:00 | 53.726258 | 6.540908 | 2.0 | 10.376 | 2 | 34.960 | 10.481 | 31.392 | 2 |
| 2025-04-28T16:39:00 | 53.726282 | 6.543891 | 2.0 | 10.383 | 2 | 35.000 | 10.535 | 31.385 | 2 |
| 2025-04-28T16:40:00 | 53.726289 | 6.546884 | 2.0 | 10.476 | 2 | 35.028 | 10.576 | 31.378 | 2 |
| 2025-04-28T16:41:00 | 53.726295 | 6.549879 | 2.0 | 10.498 | 2 | 35.092 | 10.680 | 31.352 | 2 |
| 2025-04-28T16:42:00 | 53.726283 | 6.552878 | 2.0 | 10.519 | 2 | 35.094 | 10.667 | 31.365 | 2 |
| 2025-04-28T16:43:00 | 53.726264 | 6.555879 | 2.0 | 10.547 | 2 | 35.121 | 10.705 | 31.360 | 2 |
| 2025-04-28T16:44:00 | 53.726242 | 6.558878 | 2.0 | 10.359 | 2 | 35.099 | 10.680 | 31.359 | 2 |
| 2025-04-28T16:45:00 | 53.726245 | 6.561869 | 2.0 | 10.249 | 2 | 34.981 | 10.517 | 31.382 | 2 |
| 2025-04-28T16:46:00 | 53.726255 | 6.564861 | 2.0 | 10.248 | 2 | 34.909 | 10.425 | 31.389 | 2 |
| 2025-04-28T16:47:00 | 53.726268 | 6.567849 | 2.0 | 10.261 | 2 | 34.899 | 10.423 | 31.381 | 2 |
| 2025-04-28T16:48:00 | 53.726282 | 6.570837 | 2.0 | 10.288 | 2 | 34.905 | 10.436 | 31.376 | 2 |
| 2025-04-28T16:49:00 | 53.726275 | 6.573824 | 2.0 | 10.306 | 2 | 34.915 | 10.460 | 31.365 | 2 |
| 2025-04-28T16:50:00 | 53.726276 | 6.576818 | 2.0 | 10.318 | 2 | 34.918 | 10.476 | 31.355 | 2 |
| 2025-04-28T16:51:00 | 53.726278 | 6.579814 | 2.0 | 10.316 | 2 | 34.927 | 10.488 | 31.353 | 2 |
| 2025-04-28T16:52:00 | 53.726283 | 6.582823 | 2.0 | 10.321 | 2 | 34.928 | 10.485 | 31.357 | 2 |
| 2025-04-28T16:53:00 | 53.726280 | 6.585837 | 2.0 | 10.339 | 2 | 34.930 | 10.489 | 31.355 | 2 |
| 2025-04-28T16:54:00 | 53.726274 | 6.588862 | 2.0 | 10.350 | 2 | 34.938 | 10.508 | 31.347 | 2 |
| 2025-04-28T16:55:00 | 53.726288 | 6.591893 | 2.0 | 10.387 | 2 | 34.947 | 10.527 | 31.340 | 2 |
| 2025-04-28T16:56:00 | 53.726279 | 6.594932 | 2.0 | 10.426 | 2 | 34.970 | 10.559 | 31.335 | 2 |
| 2025-04-28T16:57:00 | 53.726270 | 6.597976 | 2.0 | 10.445 | 2 | 34.996 | 10.595 | 31.330 | 2 |
| 2025-04-28T16:58:00 | 53.726277 | 6.601028 | 2.0 | 10.475 | 2 | 35.014 | 10.615 | 31.331 | 2 |
| 2025-04-28T16:59:00 | 53.726282 | 6.604096 | 2.0 | 10.492 | 2 | 35.038 | 10.640 | 31.333 | 2 |
| 2025-04-28T17:00:00 | 53.726283 | 6.607172 | 2.0 | 10.506 | 2 | 35.059 | 10.661 | 31.336 | 2 |
| 2025-04-28T17:01:00 | 53.726293 | 6.610264 | 2.0 | 10.520 | 2 | 35.077 | 10.677 | 31.340 | 2 |
| 2025-04-28T17:02:00 | 53.726294 | 6.613365 | 2.0 | 10.555 | 2 | 35.095 | 10.692 | 31.345 | 2 |
| 2025-04-28T17:03:00 | 53.726279 | 6.616471 | 2.0 | 10.554 | 2 | 35.130 | 10.725 | 31.351 | 2 |
| 2025-04-28T17:04:00 | 53.726410 | 6.619567 | 2.0 | 10.580 | 2 | 35.145 | 10.731 | 31.361 | 2 |
| 2025-04-28T17:05:00 | 53.726822 | 6.622613 | 2.0 | 10.605 | 2 | 35.183 | 10.766 | 31.369 | 2 |
| 2025-04-28T17:06:00 | 53.727139 | 6.625703 | 2.0 | 10.642 | 2 | 35.200 | 10.770 | 31.382 | 2 |
| 2025-04-28T17:07:00 | 53.727468 | 6.628761 | 2.0 | 10.639 | 2 | 35.242 | 10.813 | 31.387 | 2 |
| 2025-04-28T17:08:00 | 53.727825 | 6.631805 | 2.0 | 10.669 | 2 | 35.257 | 10.812 | 31.402 | 2 |
| 2025-04-28T17:09:00 | 53.728167 | 6.634855 | 2.0 | 10.653 | 2 | 35.282 | 10.836 | 31.407 | 2 |
| 2025-04-28T17:10:00 | 53.728518 | 6.637913 | 2.0 | 10.698 | 2 | 35.283 | 10.828 | 31.414 | 2 |
| 2025-04-28T17:11:00 | 53.728890 | 6.640983 | 2.0 | 10.661 | 2 | 35.307 | 10.856 | 31.414 | 2 |
| 2025-04-28T17:12:00 | 53.729206 | 6.644082 | 2.0 | 10.154 | 2 | 35.246 | 10.753 | 31.442 | 2 |
| 2025-04-28T17:13:00 | 53.729472 | 6.647217 | 2.0 | 10.065 | 2 | 34.914 | 10.314 | 31.490 | 2 |
| 2025-04-28T17:14:00 | 53.729879 | 6.650321 | 2.0 | 10.072 | 2 | 34.839 | 10.246 | 31.474 | 2 |
| 2025-04-28T17:15:00 | 53.730267 | 6.653439 | 2.0 | 10.076 | 2 | 34.837 | 10.248 | 31.471 | 2 |
| 2025-04-28T17:16:00 | 53.730666 | 6.656559 | 2.0 | 10.080 | 2 | 34.845 | 10.250 | 31.477 | 2 |
| 2025-04-28T17:17:00 | 53.731079 | 6.659682 | 2.0 | 10.074 | 2 | 34.850 | 10.251 | 31.481 | 2 |
| 2025-04-28T17:18:00 | 53.731470 | 6.662821 | 2.0 | 10.061 | 2 | 34.848 | 10.246 | 31.483 | 2 |
| 2025-04-28T17:19:00 | 53.731864 | 6.665962 | 2.0 | 10.047 | 2 | 34.836 | 10.232 | 31.483 | 2 |
| 2025-04-28T17:20:00 | 53.732258 | 6.669108 | 2.0 | 10.032 | 2 | 34.824 | 10.216 | 31.485 | 2 |
| 2025-04-28T17:21:00 | 53.732646 | 6.672264 | 2.0 | 10.029 | 2 | 34.818 | 10.206 | 31.488 | 2 |
| 2025-04-28T17:22:00 | 53.733033 | 6.675343 | 2.0 | 10.023 | 2 | 34.817 | 10.201 | 31.491 | 2 |
| 2025-04-28T17:23:00 | 53.733420 | 6.678325 | 2.0 | 10.025 | 2 | 34.816 | 10.196 | 31.495 | 2 |
| 2025-04-28T17:24:00 | 53.733794 | 6.681265 | 2.0 | 10.024 | 2 | 34.820 | 10.196 | 31.499 | 2 |
| 2025-04-28T17:25:00 | 53.734152 | 6.684194 | 2.0 | 10.019 | 2 | 34.823 | 10.194 | 31.503 | 2 |
| 2025-04-28T17:26:00 | 53.734522 | 6.687114 | 2.0 | 10.006 | 2 | 34.824 | 10.190 | 31.508 | 2 |
| 2025-04-28T17:27:00 | 53.734984 | 6.689987 | 2.0 | 10.001 | 2 | 34.819 | 10.179 | 31.512 | 2 |
| 2025-04-28T17:28:00 | 53.735504 | 6.692844 | 2.0 | 9.990 | 2 | 34.811 | 10.169 | 31.513 | 2 |
| 2025-04-28T17:29:00 | 53.735985 | 6.695734 | 2.0 | 9.968 | 2 | 34.812 | 10.161 | 31.521 | 2 |
| 2025-04-28T17:30:00 | 53.736437 | 6.698660 | 2.0 | 9.947 | 2 | 34.810 | 10.135 | 31.542 | 2 |
| 2025-04-28T17:31:00 | 53.736934 | 6.701577 | 2.0 | 9.933 | 2 | 34.805 | 10.119 | 31.551 | 2 |
| 2025-04-28T17:32:00 | 53.737390 | 6.704534 | 2.0 | 9.926 | 2 | 34.801 | 10.105 | 31.559 | 2 |
| 2025-04-28T17:33:00 | 53.737427 | 6.707602 | 2.0 | 9.914 | 2 | 34.798 | 10.096 | 31.564 | 2 |
| 2025-04-28T17:34:00 | 53.737303 | 6.710682 | 2.0 | 9.916 | 2 | 34.794 | 10.088 | 31.566 | 2 |
| 2025-04-28T17:35:00 | 53.737241 | 6.713785 | 2.0 | 9.916 | 2 | 34.795 | 10.087 | 31.568 | 2 |
| 2025-04-28T17:36:00 | 53.737164 | 6.716906 | 2.0 | 9.917 | 2 | 34.797 | 10.088 | 31.569 | 2 |
| 2025-04-28T17:37:00 | 53.737094 | 6.720043 | 2.0 | 9.919 | 2 | 34.801 | 10.090 | 31.572 | 2 |
| 2025-04-28T17:38:00 | 53.737269 | 6.723113 | 2.0 | 9.930 | 2 | 34.810 | 10.093 | 31.578 | 2 |
| 2025-04-28T17:39:00 | 53.737694 | 6.725984 | 2.0 | 9.952 | 2 | 34.827 | 10.104 | 31.586 | 2 |
| 2025-04-28T17:40:00 | 53.738035 | 6.728834 | 2.0 | 9.973 | 2 | 34.856 | 10.127 | 31.595 | 2 |
| 2025-04-28T17:41:00 | 53.738362 | 6.731656 | 2.0 | 9.986 | 2 | 34.882 | 10.144 | 31.606 | 2 |
| 2025-04-28T17:42:00 | 53.738705 | 6.734463 | 2.0 | 10.000 | 2 | 34.903 | 10.158 | 31.615 | 2 |
| 2025-04-28T17:43:00 | 53.739055 | 6.737258 | 2.0 | 10.000 | 2 | 34.926 | 10.170 | 31.628 | 2 |
| 2025-04-28T17:44:00 | 53.739399 | 6.740060 | 2.0 | 9.994 | 2 | 34.936 | 10.170 | 31.638 | 2 |
| 2025-04-28T17:45:00 | 53.739745 | 6.742861 | 2.0 | 9.989 | 2 | 34.940 | 10.164 | 31.647 | 2 |
| 2025-04-28T17:46:00 | 53.740108 | 6.745661 | 2.0 | 9.982 | 2 | 34.945 | 10.157 | 31.658 | 2 |
| 2025-04-28T17:47:00 | 53.740479 | 6.748462 | 2.0 | 9.975 | 2 | 34.948 | 10.152 | 31.666 | 2 |
| 2025-04-28T17:48:00 | 53.740814 | 6.751287 | 2.0 | 9.966 | 2 | 34.954 | 10.143 | 31.680 | 2 |
| 2025-04-28T17:49:00 | 53.741153 | 6.754115 | 2.0 | 9.963 | 2 | 34.957 | 10.136 | 31.689 | 2 |
| 2025-04-28T17:50:00 | 53.741534 | 6.756932 | 2.0 | 9.962 | 2 | 34.963 | 10.133 | 31.697 | 2 |
| 2025-04-28T17:51:00 | 53.741915 | 6.759750 | 2.0 | 9.966 | 2 | 34.971 | 10.134 | 31.704 | 2 |
| 2025-04-28T17:52:00 | 53.742262 | 6.762582 | 2.0 | 9.968 | 2 | 34.979 | 10.138 | 31.709 | 2 |
| 2025-04-28T17:53:00 | 53.742596 | 6.765424 | 2.0 | 9.957 | 2 | 34.984 | 10.135 | 31.717 | 2 |
| 2025-04-28T17:54:00 | 53.742952 | 6.768265 | 2.0 | 9.951 | 2 | 34.981 | 10.126 | 31.722 | 2 |
| 2025-04-28T17:55:00 | 53.743318 | 6.771109 | 2.0 | 9.941 | 2 | 34.981 | 10.120 | 31.727 | 2 |
| 2025-04-28T17:56:00 | 53.743668 | 6.773968 | 2.0 | 9.937 | 2 | 34.981 | 10.110 | 31.736 | 2 |
| 2025-04-28T17:57:00 | 53.744036 | 6.776830 | 2.0 | 9.922 | 2 | 34.977 | 10.108 | 31.733 | 2 |
| 2025-04-28T17:58:00 | 53.744398 | 6.779704 | 2.0 | 9.908 | 2 | 34.973 | 10.091 | 31.744 | 2 |
| 2025-04-28T17:59:00 | 53.744759 | 6.782591 | 2.0 | 9.905 | 2 | 34.970 | 10.079 | 31.752 | 2 |
| 2025-04-28T18:00:00 | 53.745120 | 6.785495 | 2.0 | 9.896 | 2 | 34.972 | 10.074 | 31.758 | 2 |
| 2025-04-28T18:01:00 | 53.745475 | 6.788418 | 2.0 | 9.897 | 2 | 34.976 | 10.072 | 31.764 | 2 |
| 2025-04-28T18:02:00 | 53.745851 | 6.791347 | 2.0 | 9.891 | 2 | 34.979 | 10.066 | 31.772 | 2 |
| 2025-04-28T18:03:00 | 53.746231 | 6.794286 | 2.0 | 9.897 | 2 | 34.984 | 10.063 | 31.780 | 2 |
| 2025-04-28T18:04:00 | 53.746612 | 6.797243 | 2.0 | 9.898 | 2 | 34.989 | 10.067 | 31.781 | 2 |
| 2025-04-28T18:05:00 | 53.746995 | 6.800203 | 2.0 | 9.906 | 2 | 34.987 | 10.069 | 31.778 | 2 |
| 2025-04-28T18:06:00 | 53.747367 | 6.803167 | 2.0 | 9.915 | 2 | 34.966 | 10.079 | 31.748 | 2 |
| 2025-04-28T18:07:00 | 53.747702 | 6.806141 | 2.0 | 9.926 | 2 | 34.981 | 10.087 | 31.756 | 2 |
| 2025-04-28T18:08:00 | 53.748057 | 6.809113 | 2.0 | 9.940 | 2 | 34.977 | 10.097 | 31.743 | 2 |
| 2025-04-28T18:09:00 | 53.748448 | 6.812074 | 2.0 | 9.954 | 2 | 34.990 | 10.112 | 31.743 | 2 |
| 2025-04-28T18:10:00 | 53.748828 | 6.815043 | 2.0 | 9.959 | 2 | 34.991 | 10.124 | 31.733 | 2 |
| 2025-04-28T18:11:00 | 53.749187 | 6.818024 | 2.0 | 9.966 | 2 | 34.983 | 10.130 | 31.720 | 2 |
| 2025-04-28T18:12:00 | 53.749551 | 6.821013 | 2.0 | 9.970 | 2 | 34.986 | 10.135 | 31.719 | 2 |
| 2025-04-28T18:13:00 | 53.749952 | 6.823995 | 2.0 | 9.973 | 2 | 34.987 | 10.141 | 31.714 | 2 |
| 2025-04-28T18:14:00 | 53.750346 | 6.826998 | 2.0 | 9.979 | 2 | 34.986 | 10.144 | 31.711 | 2 |
| 2025-04-28T18:15:00 | 53.750712 | 6.830021 | 2.0 | 9.980 | 2 | 34.985 | 10.148 | 31.706 | 2 |
| 2025-04-28T18:16:00 | 53.751088 | 6.833051 | 2.0 | 9.982 | 2 | 34.982 | 10.150 | 31.702 | 2 |
| 2025-04-28T18:17:00 | 53.751486 | 6.836084 | 2.0 | 9.986 | 2 | 34.982 | 10.152 | 31.700 | 2 |
| 2025-04-28T18:18:00 | 53.751880 | 6.839136 | 2.0 | 9.994 | 2 | 34.984 | 10.157 | 31.697 | 2 |
| 2025-04-28T18:19:00 | 53.752239 | 6.842176 | 2.0 | 9.997 | 2 | 34.988 | 10.163 | 31.696 | 2 |
| 2025-04-28T18:20:00 | 53.752617 | 6.845157 | 2.0 | 9.998 | 2 | 34.991 | 10.167 | 31.696 | 2 |
| 2025-04-28T18:21:00 | 53.753009 | 6.848107 | 2.0 | 10.002 | 2 | 34.994 | 10.169 | 31.697 | 2 |
| 2025-04-28T18:22:00 | 53.753393 | 6.851053 | 2.0 | 10.002 | 2 | 34.995 | 10.171 | 31.696 | 2 |
| 2025-04-28T18:23:00 | 53.753752 | 6.854006 | 2.0 | 10.001 | 2 | 34.995 | 10.171 | 31.696 | 2 |
| 2025-04-28T18:24:00 | 53.754104 | 6.856966 | 2.0 | 10.000 | 2 | 34.998 | 10.172 | 31.698 | 2 |
| 2025-04-28T18:25:00 | 53.754480 | 6.859920 | 2.0 | 9.995 | 2 | 34.998 | 10.169 | 31.701 | 2 |
| 2025-04-28T18:26:00 | 53.754860 | 6.862876 | 2.0 | 9.985 | 2 | 34.995 | 10.163 | 31.703 | 2 |
| 2025-04-28T18:27:00 | 53.755223 | 6.865843 | 2.0 | 9.971 | 2 | 34.989 | 10.151 | 31.708 | 2 |
| 2025-04-28T18:28:00 | 53.755593 | 6.868805 | 2.0 | 9.956 | 2 | 34.981 | 10.139 | 31.710 | 2 |
| 2025-04-28T18:29:00 | 53.755975 | 6.871768 | 2.0 | 9.948 | 2 | 34.970 | 10.125 | 31.711 | 2 |
| 2025-04-28T18:30:00 | 53.756353 | 6.874740 | 2.0 | 9.933 | 2 | 34.946 | 10.114 | 31.697 | 2 |
| 2025-04-28T18:31:00 | 53.756717 | 6.877724 | 2.0 | 9.918 | 2 | 34.951 | 10.100 | 31.714 | 2 |
| 2025-04-28T18:32:00 | 53.757099 | 6.880712 | 2.0 | 9.911 | 2 | 34.940 | 10.088 | 31.714 | 2 |
| 2025-04-28T18:33:00 | 53.757506 | 6.883690 | 2.0 | 9.902 | 2 | 34.942 | 10.079 | 31.723 | 2 |
| 2025-04-28T18:34:00 | 53.757893 | 6.886641 | 2.0 | 9.893 | 2 | 34.939 | 10.070 | 31.728 | 2 |
| 2025-04-28T18:35:00 | 53.758254 | 6.889595 | 2.0 | 9.890 | 2 | 34.937 | 10.063 | 31.732 | 2 |
| 2025-04-28T18:36:00 | 53.758619 | 6.892548 | 2.0 | 9.890 | 2 | 34.938 | 10.061 | 31.735 | 2 |
| 2025-04-28T18:37:00 | 53.758997 | 6.895499 | 2.0 | 9.886 | 2 | 34.944 | 10.059 | 31.743 | 2 |
| 2025-04-28T18:38:00 | 53.759375 | 6.898465 | 2.0 | 9.885 | 2 | 34.947 | 10.056 | 31.749 | 2 |
| 2025-04-28T18:39:00 | 53.759750 | 6.901441 | 2.0 | 9.887 | 2 | 34.950 | 10.055 | 31.753 | 2 |
| 2025-04-28T18:40:00 | 53.760104 | 6.904408 | 2.0 | 9.899 | 2 | 34.958 | 10.059 | 31.757 | 2 |
| 2025-04-28T18:41:00 | 53.760454 | 6.907359 | 2.0 | 9.903 | 2 | 34.973 | 10.070 | 31.763 | 2 |
| 2025-04-28T18:42:00 | 53.760807 | 6.910299 | 2.0 | 9.901 | 2 | 34.985 | 10.072 | 31.773 | 2 |
| 2025-04-28T18:43:00 | 53.761180 | 6.913226 | 2.0 | 9.905 | 2 | 34.990 | 10.070 | 31.780 | 2 |
| 2025-04-28T18:44:00 | 53.761570 | 6.916146 | 2.0 | 9.892 | 2 | 34.997 | 10.073 | 31.784 | 2 |
| 2025-04-28T18:45:00 | 53.761947 | 6.919073 | 2.0 | 9.843 | 2 | 34.992 | 10.053 | 31.797 | 2 |
| 2025-04-28T18:46:00 | 53.762296 | 6.922011 | 2.0 | 9.828 | 2 | 34.965 | 10.013 | 31.805 | 2 |
| 2025-04-28T18:47:00 | 53.762664 | 6.924940 | 2.0 | 9.821 | 2 | 34.956 | 9.999 | 31.808 | 2 |
| 2025-04-28T18:48:00 | 53.763051 | 6.927859 | 2.0 | 9.818 | 2 | 34.953 | 9.991 | 31.812 | 2 |
| 2025-04-28T18:49:00 | 53.763444 | 6.930780 | 2.0 | 9.821 | 2 | 34.952 | 9.988 | 31.814 | 2 |
| 2025-04-28T18:50:00 | 53.763831 | 6.933706 | 2.0 | 9.833 | 2 | 34.954 | 9.994 | 31.810 | 2 |
| 2025-04-28T18:51:00 | 53.764202 | 6.936633 | 2.0 | 9.837 | 2 | 34.958 | 10.002 | 31.807 | 2 |
| 2025-04-28T18:52:00 | 53.764563 | 6.939562 | 2.0 | 9.847 | 2 | 34.962 | 10.009 | 31.805 | 2 |
| 2025-04-28T18:53:00 | 53.764923 | 6.942496 | 2.0 | 9.850 | 2 | 34.965 | 10.017 | 31.801 | 2 |
| 2025-04-28T18:54:00 | 53.765287 | 6.945432 | 2.0 | 9.852 | 2 | 34.966 | 10.021 | 31.799 | 2 |
| 2025-04-28T18:55:00 | 53.765632 | 6.948384 | 2.0 | 9.858 | 2 | 34.969 | 10.022 | 31.801 | 2 |
| 2025-04-28T18:56:00 | 53.765979 | 6.951333 | 2.0 | 9.860 | 2 | 34.975 | 10.028 | 31.802 | 2 |
| 2025-04-28T18:57:00 | 53.766349 | 6.954282 | 2.0 | 9.862 | 2 | 34.979 | 10.029 | 31.805 | 2 |
| 2025-04-28T18:58:00 | 53.766726 | 6.957232 | 2.0 | 9.864 | 2 | 34.983 | 10.033 | 31.805 | 2 |
| 2025-04-28T18:59:00 | 53.767089 | 6.960190 | 2.0 | 9.860 | 2 | 34.985 | 10.033 | 31.807 | 2 |
| 2025-04-28T19:00:00 | 53.767459 | 6.963152 | 2.0 | 9.864 | 2 | 34.984 | 10.030 | 31.809 | 2 |
| 2025-04-28T19:01:00 | 53.767850 | 6.966116 | 2.0 | 9.867 | 2 | 34.988 | 10.034 | 31.809 | 2 |
| 2025-04-28T19:02:00 | 53.768223 | 6.969081 | 2.0 | 9.872 | 2 | 34.993 | 10.039 | 31.810 | 2 |
| 2025-04-28T19:03:00 | 53.768567 | 6.972059 | 2.0 | 9.864 | 2 | 35.000 | 10.039 | 31.817 | 2 |
| 2025-04-28T19:04:00 | 53.768933 | 6.975035 | 2.0 | 9.867 | 2 | 35.005 | 10.037 | 31.824 | 2 |
| 2025-04-28T19:05:00 | 53.769338 | 6.978001 | 2.0 | 9.863 | 2 | 35.010 | 10.037 | 31.829 | 2 |
| 2025-04-28T19:06:00 | 53.769738 | 6.980979 | 2.0 | 9.865 | 2 | 35.010 | 10.033 | 31.832 | 2 |
| 2025-04-28T19:07:00 | 53.770115 | 6.983969 | 2.0 | 9.862 | 2 | 35.013 | 10.033 | 31.836 | 2 |
| 2025-04-28T19:08:00 | 53.770461 | 6.986976 | 2.0 | 9.859 | 2 | 35.015 | 10.032 | 31.838 | 2 |
| 2025-04-28T19:09:00 | 53.770819 | 6.989981 | 2.0 | 9.859 | 2 | 35.014 | 10.028 | 31.841 | 2 |
| 2025-04-28T19:10:00 | 53.771217 | 6.992974 | 2.0 | 9.858 | 2 | 35.012 | 10.029 | 31.838 | 2 |
| 2025-04-28T19:11:00 | 53.771611 | 6.995971 | 2.0 | 9.855 | 2 | 35.013 | 10.027 | 31.841 | 2 |
| 2025-04-28T19:12:00 | 53.771990 | 6.998982 | 2.0 | 9.857 | 2 | 35.012 | 10.025 | 31.842 | 2 |
| 2025-04-28T19:13:00 | 53.772361 | 7.002004 | 2.0 | 9.856 | 2 | 35.013 | 10.026 | 31.842 | 2 |
| 2025-04-28T19:14:00 | 53.772746 | 7.005033 | 2.0 | 9.857 | 2 | 35.014 | 10.026 | 31.843 | 2 |
| 2025-04-28T19:15:00 | 53.773137 | 7.008068 | 2.0 | 9.857 | 2 | 35.014 | 10.028 | 31.841 | 2 |
| 2025-04-28T19:16:00 | 53.773519 | 7.011114 | 2.0 | 9.853 | 2 | 35.012 | 10.026 | 31.841 | 2 |
| 2025-04-28T19:17:00 | 53.773916 | 7.014175 | 2.0 | 9.848 | 2 | 35.009 | 10.023 | 31.840 | 2 |
| 2025-04-28T19:18:00 | 53.774301 | 7.017230 | 2.0 | 9.840 | 2 | 34.996 | 10.016 | 31.833 | 2 |
| 2025-04-28T19:19:00 | 53.774665 | 7.020293 | 2.0 | 9.830 | 2 | 34.988 | 10.008 | 31.832 | 2 |
| 2025-04-28T19:20:00 | 53.775034 | 7.023360 | 2.0 | 9.818 | 2 | 34.978 | 9.998 | 31.831 | 2 |
| 2025-04-28T19:21:00 | 53.775439 | 7.026409 | 2.0 | 9.803 | 2 | 34.966 | 9.986 | 31.829 | 2 |
| 2025-04-28T19:22:00 | 53.775845 | 7.029460 | 2.0 | 9.788 | 2 | 34.952 | 9.970 | 31.829 | 2 |
| 2025-04-28T19:23:00 | 53.776220 | 7.032523 | 2.0 | 9.772 | 2 | 34.939 | 9.954 | 31.830 | 2 |
| 2025-04-28T19:24:00 | 53.776583 | 7.035598 | 2.0 | 9.760 | 2 | 34.929 | 9.941 | 31.832 | 2 |
| 2025-04-28T19:25:00 | 53.776965 | 7.038670 | 2.0 | 9.754 | 2 | 34.923 | 9.930 | 31.835 | 2 |
| 2025-04-28T19:26:00 | 53.777371 | 7.041724 | 2.0 | 9.756 | 2 | 34.923 | 9.924 | 31.841 | 2 |
| 2025-04-28T19:27:00 | 53.777768 | 7.044791 | 2.0 | 9.759 | 2 | 34.932 | 9.928 | 31.846 | 2 |
| 2025-04-28T19:28:00 | 53.778145 | 7.047874 | 2.0 | 9.762 | 2 | 34.938 | 9.929 | 31.851 | 2 |
| 2025-04-28T19:29:00 | 53.778514 | 7.050959 | 2.0 | 9.760 | 2 | 34.949 | 9.931 | 31.861 | 2 |
| 2025-04-28T19:30:00 | 53.778885 | 7.054007 | 2.0 | 9.749 | 2 | 34.955 | 9.929 | 31.869 | 2 |
| 2025-04-28T19:31:00 | 53.779294 | 7.057009 | 2.0 | 9.734 | 2 | 34.956 | 9.917 | 31.880 | 2 |
| 2025-04-28T19:32:00 | 53.779699 | 7.059981 | 2.0 | 9.721 | 2 | 34.947 | 9.902 | 31.884 | 2 |
| 2025-04-28T19:33:00 | 53.780075 | 7.062944 | 2.0 | 9.711 | 2 | 34.939 | 9.890 | 31.887 | 2 |
| 2025-04-28T19:34:00 | 53.780444 | 7.065894 | 2.0 | 9.698 | 2 | 34.926 | 9.879 | 31.883 | 2 |
| 2025-04-28T19:35:00 | 53.780817 | 7.068836 | 2.0 | 9.687 | 2 | 34.910 | 9.867 | 31.878 | 2 |
| 2025-04-28T19:36:00 | 53.781181 | 7.071778 | 2.0 | 9.679 | 2 | 34.897 | 9.857 | 31.873 | 2 |
| 2025-04-28T19:37:00 | 53.781533 | 7.074715 | 2.0 | 9.670 | 2 | 34.887 | 9.848 | 31.871 | 2 |
| 2025-04-28T19:38:00 | 53.781906 | 7.077638 | 2.0 | 9.659 | 2 | 34.877 | 9.839 | 31.869 | 2 |
| 2025-04-28T19:39:00 | 53.782265 | 7.080564 | 2.0 | 9.652 | 2 | 34.869 | 9.829 | 31.870 | 2 |
| 2025-04-28T19:40:00 | 53.782629 | 7.083488 | 2.0 | 9.643 | 2 | 34.863 | 9.821 | 31.871 | 2 |
| 2025-04-28T19:41:00 | 53.782987 | 7.086413 | 2.0 | 9.636 | 2 | 34.856 | 9.813 | 31.871 | 2 |
| 2025-04-28T19:42:00 | 53.783351 | 7.089338 | 2.0 | 9.629 | 2 | 34.855 | 9.806 | 31.876 | 2 |
| 2025-04-28T19:43:00 | 53.783723 | 7.092268 | 2.0 | 9.628 | 2 | 34.856 | 9.800 | 31.882 | 2 |
| 2025-04-28T19:44:00 | 53.784102 | 7.095199 | 2.0 | 9.626 | 2 | 34.858 | 9.798 | 31.886 | 2 |
| 2025-04-28T19:45:00 | 53.784474 | 7.098120 | 2.0 | 9.626 | 2 | 34.864 | 9.796 | 31.894 | 2 |
| 2025-04-28T19:46:00 | 53.784853 | 7.101046 | 2.0 | 9.627 | 2 | 34.869 | 9.796 | 31.899 | 2 |
| 2025-04-28T19:47:00 | 53.785233 | 7.103971 | 2.0 | 9.628 | 2 | 34.877 | 9.798 | 31.905 | 2 |
| 2025-04-28T19:48:00 | 53.785581 | 7.106919 | 2.0 | 9.628 | 2 | 34.884 | 9.798 | 31.912 | 2 |
| 2025-04-28T19:49:00 | 53.785925 | 7.109868 | 2.0 | 9.626 | 2 | 34.891 | 9.798 | 31.920 | 2 |
| 2025-04-28T19:50:00 | 53.786285 | 7.112811 | 2.0 | 9.621 | 2 | 34.893 | 9.795 | 31.924 | 2 |
| 2025-04-28T19:51:00 | 53.786665 | 7.115754 | 2.0 | 9.613 | 2 | 34.892 | 9.789 | 31.929 | 2 |
| 2025-04-28T19:52:00 | 53.787044 | 7.118697 | 2.0 | 9.607 | 2 | 34.890 | 9.782 | 31.933 | 2 |
| 2025-04-28T19:53:00 | 53.787420 | 7.121639 | 2.0 | 9.600 | 2 | 34.887 | 9.777 | 31.934 | 2 |
| 2025-04-28T19:54:00 | 53.787775 | 7.124587 | 2.0 | 9.599 | 2 | 34.881 | 9.769 | 31.935 | 2 |
| 2025-04-28T19:55:00 | 53.788142 | 7.127532 | 2.0 | 9.595 | 2 | 34.880 | 9.768 | 31.935 | 2 |
| 2025-04-28T19:56:00 | 53.788537 | 7.130467 | 2.0 | 9.596 | 2 | 34.880 | 9.765 | 31.938 | 2 |
| 2025-04-28T19:57:00 | 53.788915 | 7.133416 | 2.0 | 9.599 | 2 | 34.884 | 9.765 | 31.942 | 2 |
| 2025-04-28T19:58:00 | 53.789277 | 7.136376 | 2.0 | 9.601 | 2 | 34.887 | 9.770 | 31.940 | 2 |
| 2025-04-28T19:59:00 | 53.789641 | 7.139333 | 2.0 | 9.601 | 2 | 34.890 | 9.771 | 31.942 | 2 |
| 2025-04-28T20:00:00 | 53.790013 | 7.142289 | 2.0 | 9.602 | 2 | 34.893 | 9.771 | 31.946 | 2 |
| 2025-04-28T20:01:00 | 53.790388 | 7.145242 | 2.0 | 9.602 | 2 | 34.893 | 9.772 | 31.945 | 2 |
| 2025-04-28T20:02:00 | 53.790764 | 7.148201 | 2.0 | 9.590 | 2 | 34.892 | 9.769 | 31.946 | 2 |
| 2025-04-28T20:03:00 | 53.791152 | 7.151157 | 2.0 | 9.587 | 2 | 34.887 | 9.760 | 31.949 | 2 |
| 2025-04-28T20:04:00 | 53.791553 | 7.154112 | 2.0 | 9.583 | 2 | 34.885 | 9.756 | 31.951 | 2 |
| 2025-04-28T20:05:00 | 53.791916 | 7.157072 | 2.0 | 9.583 | 2 | 34.884 | 9.753 | 31.952 | 2 |
| 2025-04-28T20:06:00 | 53.792256 | 7.160034 | 2.0 | 9.583 | 2 | 34.883 | 9.753 | 31.951 | 2 |
| 2025-04-28T20:07:00 | 53.792609 | 7.162995 | 2.0 | 9.581 | 2 | 34.882 | 9.752 | 31.951 | 2 |
| 2025-04-28T20:08:00 | 53.792992 | 7.165927 | 2.0 | 9.580 | 2 | 34.882 | 9.750 | 31.953 | 2 |
| 2025-04-28T20:09:00 | 53.793374 | 7.168843 | 2.0 | 9.578 | 2 | 34.881 | 9.749 | 31.953 | 2 |
| 2025-04-28T20:10:00 | 53.793736 | 7.171769 | 2.0 | 9.579 | 2 | 34.880 | 9.748 | 31.953 | 2 |
| 2025-04-28T20:11:00 | 53.794107 | 7.174689 | 2.0 | 9.581 | 2 | 34.880 | 9.749 | 31.952 | 2 |
| 2025-04-28T20:12:00 | 53.794494 | 7.177592 | 2.0 | 9.582 | 2 | 34.882 | 9.751 | 31.952 | 2 |
| 2025-04-28T20:13:00 | 53.794867 | 7.180499 | 2.0 | 9.588 | 2 | 34.884 | 9.753 | 31.952 | 2 |
| 2025-04-28T20:14:00 | 53.795221 | 7.183412 | 2.0 | 9.589 | 2 | 34.832 | 9.757 | 31.896 | 2 |
| 2025-04-28T20:15:00 | 53.795559 | 7.186324 | 2.0 | 9.588 | 2 | 34.889 | 9.758 | 31.953 | 2 |
| 2025-04-28T20:16:00 | 53.795934 | 7.189215 | 2.0 | 9.586 | 2 | 34.889 | 9.756 | 31.955 | 2 |
| 2025-04-28T20:17:00 | 53.796302 | 7.192113 | 2.0 | 9.583 | 2 | 34.891 | 9.754 | 31.959 | 2 |
| 2025-04-28T20:18:00 | 53.796665 | 7.195016 | 2.0 | 9.588 | 2 | 34.892 | 9.753 | 31.960 | 2 |
| 2025-04-28T20:19:00 | 53.797030 | 7.197919 | 2.0 | 9.590 | 2 | 34.448 | 9.757 | 31.506 | 2 |
| 2025-04-28T20:20:00 | 53.797406 | 7.200822 | 2.0 | 9.588 | 2 | 34.800 | 9.759 | 31.862 | 2 |
| 2025-04-28T20:21:00 | 53.797789 | 7.203731 | 2.0 | 9.594 | 2 | 34.636 | 9.758 | 31.696 | 2 |
| 2025-04-28T20:22:00 | 53.798162 | 7.206647 | 2.0 | 9.600 | 2 | 34.730 | 9.763 | 31.787 | 2 |
| 2025-04-28T20:23:00 | 53.798534 | 7.209560 | 2.0 | 9.607 | 2 | 34.922 | 9.770 | 31.976 | 2 |
| 2025-04-28T20:24:00 | 53.798889 | 7.212486 | 2.0 | 9.612 | 2 | 34.564 | 9.776 | 31.607 | 2 |
| 2025-04-28T20:25:00 | 53.799241 | 7.215416 | 2.0 | 9.618 | 2 | 34.647 | 9.781 | 31.687 | 2 |
| 2025-04-28T20:26:00 | 53.799599 | 7.218341 | 2.0 | 9.626 | 2 | 34.657 | 9.787 | 31.692 | 2 |
| 2025-04-28T20:27:00 | 53.799976 | 7.221257 | 2.0 | 9.632 | 2 | 34.962 | 9.795 | 31.994 | 2 |
| 2025-04-28T20:28:00 | 53.800347 | 7.224169 | 2.0 | 9.633 | 2 | 34.970 | 9.800 | 31.998 | 2 |
| 2025-04-28T20:29:00 | 53.800704 | 7.227082 | 2.0 | 9.637 | 2 | 34.804 | 9.803 | 31.827 | 2 |
| 2025-04-28T20:30:00 | 53.801066 | 7.229989 | 2.0 | 9.643 | 2 | 34.687 | 9.806 | 31.705 | 2 |
| 2025-04-28T20:31:00 | 53.801449 | 7.232877 | 2.0 | 9.644 | 2 | 34.982 | 9.812 | 32.000 | 2 |
| 2025-04-28T20:32:00 | 53.801805 | 7.235766 | 2.0 | 9.643 | 2 | 34.829 | 9.812 | 31.844 | 2 |
| 2025-04-28T20:33:00 | 53.802154 | 7.238662 | 2.0 | 9.642 | 2 | 34.620 | 9.811 | 31.633 | 2 |
| 2025-04-28T20:34:00 | 53.802515 | 7.241555 | 2.0 | 9.648 | 2 | 34.745 | 9.812 | 31.759 | 2 |
| 2025-04-28T20:35:00 | 53.802900 | 7.244439 | 2.0 | 9.650 | 2 | 34.997 | 9.817 | 32.010 | 2 |
| 2025-04-28T20:36:00 | 53.803286 | 7.247317 | 2.0 | 9.655 | 2 | 34.822 | 9.820 | 31.830 | 2 |
| 2025-04-28T20:37:00 | 53.803643 | 7.250203 | 2.0 | 9.664 | 2 | 34.850 | 9.825 | 31.854 | 2 |
| 2025-04-28T20:38:00 | 53.803997 | 7.253082 | 2.0 | 9.664 | 2 | 34.844 | 9.832 | 31.842 | 2 |
| 2025-04-28T20:39:00 | 53.804339 | 7.255970 | 2.0 | 9.669 | 2 | 34.749 | 9.833 | 31.744 | 2 |
| 2025-04-28T20:40:00 | 53.804697 | 7.258846 | 2.0 | 9.667 | 2 | 34.838 | 9.836 | 31.832 | 2 |
| 2025-04-28T20:41:00 | 53.805073 | 7.261710 | 2.0 | 9.662 | 2 | 34.760 | 9.835 | 31.754 | 2 |
| 2025-04-28T20:42:00 | 53.805444 | 7.264575 | 2.0 | 9.654 | 2 | 34.782 | 9.829 | 31.781 | 2 |
| 2025-04-28T20:43:00 | 53.805818 | 7.267438 | 2.0 | 9.647 | 2 | 34.937 | 9.822 | 31.945 | 2 |
| 2025-04-28T20:44:00 | 53.806181 | 7.270309 | 2.0 | 9.638 | 2 | 34.841 | 9.815 | 31.854 | 2 |
| 2025-04-28T20:45:00 | 53.806527 | 7.273192 | 2.0 | 9.630 | 2 | 34.790 | 9.806 | 31.810 | 2 |
| 2025-04-28T20:46:00 | 53.806883 | 7.276066 | 2.0 | 9.620 | 2 | 34.884 | 9.799 | 31.912 | 2 |
| 2025-04-28T20:47:00 | 53.807228 | 7.278943 | 2.0 | 9.611 | 2 | 34.864 | 9.788 | 31.901 | 2 |
| 2025-04-28T20:48:00 | 53.807585 | 7.281813 | 2.0 | 9.606 | 2 | 34.835 | 9.780 | 31.879 | 2 |
| 2025-04-28T20:49:00 | 53.807968 | 7.284662 | 2.0 | 9.597 | 2 | 34.745 | 9.773 | 31.793 | 2 |
| 2025-04-28T20:50:00 | 53.808346 | 7.287529 | 2.0 | 9.597 | 2 | 34.861 | 9.767 | 31.917 | 2 |
| 2025-04-28T20:51:00 | 53.808698 | 7.290406 | 2.0 | 9.601 | 2 | 34.759 | 9.766 | 31.814 | 2 |
| 2025-04-28T20:52:00 | 53.809055 | 7.293277 | 2.0 | 9.601 | 2 | 34.683 | 9.769 | 31.734 | 2 |
| 2025-04-28T20:53:00 | 53.809415 | 7.296149 | 2.0 | 9.602 | 2 | 34.838 | 9.771 | 31.890 | 2 |
| 2025-04-28T20:54:00 | 53.809787 | 7.299003 | 2.0 | 9.600 | 2 | 34.868 | 9.771 | 31.920 | 2 |
| 2025-04-28T20:55:00 | 53.810146 | 7.301838 | 2.0 | 9.597 | 2 | 34.986 | 9.770 | 32.041 | 2 |
| 2025-04-28T20:56:00 | 53.810492 | 7.304657 | 2.0 | 9.590 | 2 | 34.942 | 9.765 | 32.001 | 2 |
| 2025-04-28T20:57:00 | 53.810846 | 7.307452 | 2.0 | 9.588 | 2 | 34.955 | 9.759 | 32.019 | 2 |
| 2025-04-28T20:58:00 | 53.811206 | 7.310230 | 2.0 | 9.586 | 2 | 34.815 | 9.756 | 31.880 | 2 |
| 2025-04-28T20:59:00 | 53.811574 | 7.312996 | 2.0 | 9.583 | 2 | 34.898 | 9.755 | 31.965 | 2 |
| 2025-04-28T21:00:00 | 53.811915 | 7.315766 | 2.0 | 9.582 | 2 | 34.844 | 9.752 | 31.913 | 2 |
| 2025-04-28T21:01:00 | 53.812264 | 7.318528 | 2.0 | 9.581 | 2 | 34.802 | 9.751 | 31.871 | 2 |
| 2025-04-28T21:02:00 | 53.812613 | 7.321287 | 2.0 | 9.580 | 2 | 34.877 | 9.750 | 31.948 | 2 |
| 2025-04-28T21:03:00 | 53.812955 | 7.324046 | 2.0 | 9.585 | 2 | 34.913 | 9.751 | 31.984 | 2 |
| 2025-04-28T21:04:00 | 53.813281 | 7.326814 | 2.0 | 9.587 | 2 | 34.903 | 9.754 | 31.971 | 2 |
| 2025-04-28T21:05:00 | 53.813625 | 7.329573 | 2.0 | 9.591 | 2 | 34.874 | 9.757 | 31.939 | 2 |
| 2025-04-28T21:06:00 | 53.814007 | 7.332309 | 2.0 | 9.590 | 2 | 34.825 | 9.759 | 31.887 | 2 |
| 2025-04-28T21:07:00 | 53.814359 | 7.335059 | 2.0 | 9.589 | 2 | 34.906 | 9.759 | 31.969 | 2 |
| 2025-04-28T21:08:00 | 53.814692 | 7.337828 | 2.0 | 9.589 | 2 | 34.843 | 9.758 | 31.906 | 2 |
| 2025-04-28T21:09:00 | 53.815022 | 7.340599 | 2.0 | 9.587 | 2 | 34.880 | 9.758 | 31.944 | 2 |
| 2025-04-28T21:10:00 | 53.815361 | 7.343367 | 2.0 | 9.580 | 2 | 34.872 | 9.755 | 31.938 | 2 |
| 2025-04-28T21:11:00 | 53.815725 | 7.346129 | 2.0 | 9.578 | 2 | 34.905 | 9.748 | 31.978 | 2 |
| 2025-04-28T21:12:00 | 53.816081 | 7.348894 | 2.0 | 9.578 | 2 | 34.907 | 9.747 | 31.981 | 2 |
| 2025-04-28T21:13:00 | 53.816419 | 7.351663 | 2.0 | 9.575 | 2 | 34.903 | 9.746 | 31.978 | 2 |
| 2025-04-28T21:14:00 | 53.816775 | 7.354427 | 2.0 | 9.573 | 2 | 34.886 | 9.744 | 31.962 | 2 |
| 2025-04-28T21:15:00 | 53.817138 | 7.357185 | 2.0 | 9.569 | 2 | 34.895 | 9.742 | 31.973 | 2 |
| 2025-04-28T21:16:00 | 53.817482 | 7.359942 | 2.0 | 9.566 | 2 | 34.943 | 9.738 | 32.026 | 2 |
| 2025-04-28T21:17:00 | 53.817820 | 7.362704 | 2.0 | 9.561 | 2 | 34.897 | 9.735 | 31.982 | 2 |
| 2025-04-28T21:18:00 | 53.818175 | 7.365461 | 2.0 | 9.556 | 2 | 34.906 | 9.730 | 31.995 | 2 |
| 2025-04-28T21:19:00 | 53.818525 | 7.368216 | 2.0 | 9.553 | 2 | 34.921 | 9.725 | 32.015 | 2 |
| 2025-04-28T21:20:00 | 53.818861 | 7.370972 | 2.0 | 9.552 | 2 | 34.942 | 9.723 | 32.038 | 2 |
| 2025-04-28T21:21:00 | 53.819116 | 7.373763 | 2.0 | 9.552 | 2 | 34.944 | 9.721 | 32.042 | 2 |
| 2025-04-28T21:22:00 | 53.819330 | 7.376570 | 2.0 | 9.556 | 2 | 34.921 | 9.722 | 32.018 | 2 |
| 2025-04-28T21:23:00 | 53.819522 | 7.379388 | 2.0 | 9.557 | 2 | 34.919 | 9.724 | 32.014 | 2 |
| 2025-04-28T21:24:00 | 53.819724 | 7.382189 | 2.0 | 9.560 | 2 | 34.938 | 9.727 | 32.030 | 2 |
| 2025-04-28T21:25:00 | 53.819936 | 7.384979 | 2.0 | 9.565 | 2 | 34.959 | 9.729 | 32.050 | 2 |
| 2025-04-28T21:26:00 | 53.820144 | 7.387777 | 2.0 | 9.572 | 2 | 34.963 | 9.735 | 32.049 | 2 |
| 2025-04-28T21:27:00 | 53.820334 | 7.390583 | 2.0 | 9.578 | 2 | 34.970 | 9.742 | 32.050 | 2 |
| 2025-04-28T21:28:00 | 53.820542 | 7.393381 | 2.0 | 9.587 | 2 | 34.971 | 9.748 | 32.045 | 2 |
| 2025-04-28T21:29:00 | 53.820745 | 7.396181 | 2.0 | 9.591 | 2 | 34.987 | 9.756 | 32.054 | 2 |
| 2025-04-28T21:30:00 | 53.820926 | 7.398988 | 2.0 | 9.597 | 2 | 34.990 | 9.761 | 32.053 | 2 |
| 2025-04-28T21:31:00 | 53.821146 | 7.401785 | 2.0 | 9.605 | 2 | 34.998 | 9.768 | 32.055 | 2 |
| 2025-04-28T21:32:00 | 53.821493 | 7.404523 | 2.0 | 9.610 | 2 | 35.013 | 9.774 | 32.065 | 2 |
| 2025-04-28T21:33:00 | 53.821850 | 7.407248 | 2.0 | 9.612 | 2 | 35.021 | 9.778 | 32.069 | 2 |
| 2025-04-28T21:34:00 | 53.822184 | 7.409992 | 2.0 | 9.613 | 2 | 35.027 | 9.781 | 32.073 | 2 |
| 2025-04-28T21:35:00 | 53.822523 | 7.412731 | 2.0 | 9.616 | 2 | 35.034 | 9.783 | 32.078 | 2 |
| 2025-04-28T21:36:00 | 53.822888 | 7.415456 | 2.0 | 9.617 | 2 | 35.040 | 9.784 | 32.083 | 2 |
| 2025-04-28T21:37:00 | 53.823262 | 7.418172 | 2.0 | 9.629 | 2 | 35.047 | 9.787 | 32.088 | 2 |
| 2025-04-28T21:38:00 | 53.823609 | 7.420895 | 2.0 | 9.632 | 2 | 35.059 | 9.798 | 32.090 | 2 |
| 2025-04-28T21:39:00 | 53.823933 | 7.423624 | 2.0 | 9.635 | 2 | 35.063 | 9.802 | 32.091 | 2 |
| 2025-04-28T21:40:00 | 53.824270 | 7.426347 | 2.0 | 9.645 | 2 | 35.066 | 9.806 | 32.090 | 2 |
| 2025-04-28T21:41:00 | 53.824614 | 7.429062 | 2.0 | 9.645 | 2 | 35.073 | 9.812 | 32.092 | 2 |
| 2025-04-28T21:42:00 | 53.824959 | 7.431774 | 2.0 | 9.652 | 2 | 35.078 | 9.815 | 32.094 | 2 |
| 2025-04-28T21:43:00 | 53.825317 | 7.434467 | 2.0 | 9.653 | 2 | 35.083 | 9.820 | 32.095 | 2 |
| 2025-04-28T21:44:00 | 53.825673 | 7.437151 | 2.0 | 9.655 | 2 | 35.084 | 9.822 | 32.094 | 2 |
| 2025-04-28T21:45:00 | 53.826016 | 7.439839 | 2.0 | 9.654 | 2 | 35.085 | 9.823 | 32.094 | 2 |
| 2025-04-28T21:46:00 | 53.826346 | 7.442533 | 2.0 | 9.649 | 2 | 35.084 | 9.822 | 32.094 | 2 |
| 2025-04-28T21:47:00 | 53.826673 | 7.445225 | 2.0 | 9.637 | 2 | 35.077 | 9.815 | 32.093 | 2 |
| 2025-04-28T21:48:00 | 53.827005 | 7.447905 | 2.0 | 9.618 | 2 | 35.067 | 9.802 | 32.095 | 2 |
| 2025-04-28T21:49:00 | 53.827339 | 7.450573 | 2.0 | 9.598 | 2 | 35.055 | 9.783 | 32.100 | 2 |
| 2025-04-28T21:50:00 | 53.827665 | 7.453234 | 2.0 | 9.578 | 2 | 35.044 | 9.763 | 32.106 | 2 |
| 2025-04-28T21:51:00 | 53.827992 | 7.455897 | 2.0 | 9.563 | 2 | 35.034 | 9.746 | 32.111 | 2 |
| 2025-04-28T21:52:00 | 53.828325 | 7.458557 | 2.0 | 9.544 | 2 | 35.024 | 9.729 | 32.116 | 2 |
| 2025-04-28T21:53:00 | 53.828648 | 7.461213 | 2.0 | 9.523 | 2 | 35.016 | 9.710 | 32.125 | 2 |
| 2025-04-28T21:54:00 | 53.828969 | 7.463868 | 2.0 | 9.510 | 2 | 35.008 | 9.692 | 32.133 | 2 |
| 2025-04-28T21:55:00 | 53.829292 | 7.466527 | 2.0 | 9.492 | 2 | 35.001 | 9.677 | 32.139 | 2 |
| 2025-04-28T21:56:00 | 53.829627 | 7.469185 | 2.0 | 9.469 | 2 | 34.996 | 9.659 | 32.150 | 2 |
| 2025-04-28T21:57:00 | 53.829971 | 7.471842 | 2.0 | 9.457 | 2 | 34.990 | 9.640 | 32.161 | 2 |
| 2025-04-28T21:58:00 | 53.830311 | 7.474501 | 2.0 | 9.441 | 2 | 34.986 | 9.626 | 32.170 | 2 |
| 2025-04-28T21:59:00 | 53.830657 | 7.477165 | 2.0 | 9.428 | 2 | 34.984 | 9.610 | 32.182 | 2 |
| 2025-04-28T22:00:00 | 53.830994 | 7.479837 | 2.0 | 9.414 | 2 | 34.982 | 9.596 | 32.192 | 2 |
| 2025-04-28T22:01:00 | 53.831326 | 7.482513 | 2.0 | 9.399 | 2 | 34.986 | 9.582 | 32.209 | 2 |
| 2025-04-28T22:02:00 | 53.831659 | 7.485185 | 2.0 | 9.386 | 2 | 34.990 | 9.568 | 32.226 | 2 |
| 2025-04-28T22:03:00 | 53.831971 | 7.487865 | 2.0 | 9.374 | 2 | 34.994 | 9.555 | 32.241 | 2 |
| 2025-04-28T22:04:00 | 53.832292 | 7.490537 | 2.0 | 9.365 | 2 | 34.999 | 9.544 | 32.256 | 2 |
| 2025-04-28T22:05:00 | 53.832633 | 7.493191 | 2.0 | 9.370 | 2 | 35.014 | 9.537 | 32.278 | 2 |
| 2025-04-28T22:06:00 | 53.833018 | 7.495798 | 2.0 | 9.373 | 2 | 35.033 | 9.541 | 32.294 | 2 |
| 2025-04-28T22:07:00 | 53.833443 | 7.498366 | 2.0 | 9.373 | 2 | 35.041 | 9.543 | 32.300 | 2 |
| 2025-04-28T22:08:00 | 53.833867 | 7.500915 | 2.0 | 9.384 | 2 | 35.041 | 9.544 | 32.299 | 2 |
| 2025-04-28T22:09:00 | 53.834303 | 7.503433 | 2.0 | 9.386 | 2 | 35.040 | 9.552 | 32.291 | 2 |
| 2025-04-28T22:10:00 | 53.834682 | 7.505964 | 2.0 | 9.389 | 2 | 35.039 | 9.556 | 32.287 | 2 |
| 2025-04-28T22:11:00 | 53.835081 | 7.508480 | 2.0 | 9.391 | 2 | 35.037 | 9.559 | 32.282 | 2 |
| 2025-04-28T22:12:00 | 53.835474 | 7.510994 | 2.0 | 9.395 | 2 | 35.032 | 9.561 | 32.275 | 2 |
| 2025-04-28T22:13:00 | 53.835879 | 7.513490 | 2.0 | 9.397 | 2 | 35.028 | 9.565 | 32.267 | 2 |
| 2025-04-28T22:14:00 | 53.836284 | 7.515985 | 2.0 | 9.395 | 2 | 35.025 | 9.566 | 32.263 | 2 |
| 2025-04-28T22:15:00 | 53.836680 | 7.518485 | 2.0 | 9.406 | 2 | 35.019 | 9.567 | 32.256 | 2 |
| 2025-04-28T22:16:00 | 53.837106 | 7.521033 | 2.0 | 9.408 | 2 | 35.016 | 9.574 | 32.247 | 2 |
| 2025-04-28T22:17:00 | 53.837555 | 7.523634 | 2.0 | 9.400 | 2 | 35.016 | 9.576 | 32.245 | 2 |
| 2025-04-28T22:18:00 | 53.837962 | 7.526304 | 2.0 | 9.398 | 2 | 35.015 | 9.569 | 32.250 | 2 |
| 2025-04-28T22:19:00 | 53.838347 | 7.529017 | 2.0 | 9.422 | 2 | 35.015 | 9.571 | 32.249 | 2 |
| 2025-04-28T22:20:00 | 53.838772 | 7.531722 | 2.0 | 9.445 | 2 | 35.020 | 9.594 | 32.233 | 2 |
| 2025-04-28T22:21:00 | 53.839241 | 7.534402 | 2.0 | 9.464 | 2 | 35.025 | 9.614 | 32.220 | 2 |
| 2025-04-28T22:22:00 | 53.839715 | 7.537083 | 2.0 | 9.488 | 2 | 35.033 | 9.636 | 32.209 | 2 |
| 2025-04-28T22:23:00 | 53.840143 | 7.539800 | 2.0 | 9.491 | 2 | 35.041 | 9.655 | 32.200 | 2 |
| 2025-04-28T22:24:00 | 53.840544 | 7.542538 | 2.0 | 9.502 | 2 | 35.045 | 9.660 | 32.199 | 2 |
| 2025-04-28T22:25:00 | 53.840942 | 7.545282 | 2.0 | 9.515 | 2 | 35.049 | 9.673 | 32.192 | 2 |
| 2025-04-28T22:26:00 | 53.841375 | 7.548012 | 2.0 | 9.516 | 2 | 35.052 | 9.682 | 32.187 | 2 |
| 2025-04-28T22:27:00 | 53.841829 | 7.550740 | 2.0 | 9.501 | 2 | 35.050 | 9.682 | 32.185 | 2 |
| 2025-04-28T22:28:00 | 53.842276 | 7.553475 | 2.0 | 9.494 | 2 | 35.037 | 9.669 | 32.183 | 2 |
| 2025-04-28T22:29:00 | 53.842700 | 7.556215 | 2.0 | 9.491 | 2 | 35.030 | 9.663 | 32.181 | 2 |
| 2025-04-28T22:30:00 | 53.843126 | 7.558943 | 2.0 | 9.491 | 2 | 35.029 | 9.660 | 32.183 | 2 |
| 2025-04-28T22:31:00 | 53.843580 | 7.561651 | 2.0 | 9.492 | 2 | 35.030 | 9.660 | 32.184 | 2 |
| 2025-04-28T22:32:00 | 53.844033 | 7.564355 | 2.0 | 9.484 | 2 | 35.031 | 9.659 | 32.186 | 2 |
| 2025-04-28T22:33:00 | 53.844455 | 7.567080 | 2.0 | 9.472 | 2 | 35.026 | 9.651 | 32.188 | 2 |
| 2025-04-28T22:34:00 | 53.844847 | 7.569816 | 2.0 | 9.461 | 2 | 34.983 | 9.639 | 32.155 | 2 |
| 2025-04-28T22:35:00 | 53.845250 | 7.572547 | 2.0 | 9.454 | 2 | 35.020 | 9.630 | 32.201 | 2 |
| 2025-04-28T22:36:00 | 53.845690 | 7.575268 | 2.0 | 9.447 | 2 | 35.017 | 9.621 | 32.206 | 2 |
| 2025-04-28T22:37:00 | 53.846139 | 7.577992 | 2.0 | 9.440 | 2 | 34.793 | 9.615 | 31.982 | 2 |
| 2025-04-28T22:38:00 | 53.846599 | 7.580716 | 2.0 | 9.441 | 2 | 34.523 | 9.609 | 31.712 | 2 |
| 2025-04-28T22:39:00 | 53.847026 | 7.583454 | 2.0 | 9.444 | 2 | 34.659 | 9.610 | 31.850 | 2 |
| 2025-04-28T22:40:00 | 53.847434 | 7.586199 | 2.0 | 9.441 | 2 | 34.674 | 9.612 | 31.864 | 2 |
| 2025-04-28T22:41:00 | 53.847858 | 7.588936 | 2.0 | 9.438 | 2 | 34.811 | 9.610 | 32.005 | 2 |
| 2025-04-28T22:42:00 | 53.848301 | 7.591665 | 2.0 | 9.442 | 2 | 35.025 | 9.607 | 32.226 | 2 |
| 2025-04-28T22:43:00 | 53.848753 | 7.594386 | 2.0 | 9.449 | 2 | 34.842 | 9.612 | 32.035 | 2 |
| 2025-04-28T22:44:00 | 53.849200 | 7.597098 | 2.0 | 9.458 | 2 | 34.744 | 9.618 | 31.930 | 2 |
| 2025-04-28T22:45:00 | 53.849618 | 7.599815 | 2.0 | 9.466 | 2 | 35.047 | 9.627 | 32.231 | 2 |
| 2025-04-28T22:46:00 | 53.850021 | 7.602529 | 2.0 | 9.477 | 2 | 35.057 | 9.636 | 32.233 | 2 |
| 2025-04-28T22:47:00 | 53.850444 | 7.605226 | 2.0 | 9.487 | 2 | 34.779 | 9.648 | 31.939 | 2 |
| 2025-04-28T22:48:00 | 53.850883 | 7.607909 | 2.0 | 9.499 | 2 | 35.079 | 9.657 | 32.237 | 2 |
| 2025-04-28T22:49:00 | 53.851317 | 7.610592 | 2.0 | 9.500 | 2 | 34.934 | 9.666 | 32.081 | 2 |
| 2025-04-28T22:50:00 | 53.851729 | 7.613286 | 2.0 | 9.510 | 2 | 34.835 | 9.669 | 31.977 | 2 |
| 2025-04-28T22:51:00 | 53.852156 | 7.615969 | 2.0 | 9.517 | 2 | 34.769 | 9.680 | 31.900 | 2 |
| 2025-04-28T22:52:00 | 53.852590 | 7.618642 | 2.0 | 9.522 | 2 | 34.883 | 9.685 | 32.012 | 2 |
| 2025-04-28T22:53:00 | 53.853017 | 7.621315 | 2.0 | 9.528 | 2 | 34.748 | 9.691 | 31.869 | 2 |
| 2025-04-28T22:54:00 | 53.853426 | 7.623994 | 2.0 | 9.535 | 2 | 35.014 | 9.697 | 32.135 | 2 |
| 2025-04-28T22:55:00 | 53.853855 | 7.626661 | 2.0 | 9.542 | 2 | 34.894 | 9.704 | 32.006 | 2 |
| 2025-04-28T22:56:00 | 53.854281 | 7.629325 | 2.0 | 9.548 | 2 | 34.785 | 9.711 | 31.889 | 2 |
| 2025-04-28T22:57:00 | 53.854691 | 7.631986 | 2.0 | 9.555 | 2 | 34.888 | 9.717 | 31.988 | 2 |
| 2025-04-28T22:58:00 | 53.855114 | 7.634637 | 2.0 | 9.559 | 2 | 34.761 | 9.723 | 31.854 | 2 |
| 2025-04-28T22:59:00 | 53.855534 | 7.637284 | 2.0 | 9.557 | 2 | 35.148 | 9.726 | 32.245 | 2 |
| 2025-04-28T23:00:00 | 53.855942 | 7.639929 | 2.0 | 9.550 | 2 | 35.148 | 9.724 | 32.247 | 2 |
| 2025-04-28T23:01:00 | 53.856353 | 7.642566 | 2.0 | 9.541 | 2 | 34.938 | 9.717 | 32.039 | 2 |
| 2025-04-28T23:02:00 | 53.856761 | 7.645203 | 2.0 | 9.534 | 2 | 35.041 | 9.708 | 32.152 | 2 |
| 2025-04-28T23:03:00 | 53.857198 | 7.647817 | 2.0 | 9.528 | 2 | 34.898 | 9.701 | 32.013 | 2 |
| 2025-04-28T23:04:00 | 53.857625 | 7.650435 | 2.0 | 9.521 | 2 | 35.105 | 9.695 | 32.229 | 2 |
| 2025-04-28T23:05:00 | 53.858035 | 7.653088 | 2.0 | 9.513 | 2 | 35.029 | 9.689 | 32.157 | 2 |
| 2025-04-28T23:06:00 | 53.858450 | 7.655804 | 2.0 | 9.501 | 2 | 35.024 | 9.679 | 32.161 | 2 |
| 2025-04-28T23:07:00 | 53.858874 | 7.658560 | 2.0 | 9.491 | 2 | 35.024 | 9.667 | 32.172 | 2 |
| 2025-04-28T23:08:00 | 53.859332 | 7.661329 | 2.0 | 9.481 | 2 | 34.967 | 9.659 | 32.121 | 2 |
| 2025-04-28T23:09:00 | 53.859788 | 7.664109 | 2.0 | 9.474 | 2 | 34.822 | 9.648 | 31.983 | 2 |
| 2025-04-28T23:10:00 | 53.860233 | 7.666890 | 2.0 | 9.465 | 2 | 34.975 | 9.642 | 32.144 | 2 |
| 2025-04-28T23:11:00 | 53.860637 | 7.669645 | 2.0 | 9.458 | 2 | 35.029 | 9.633 | 32.207 | 2 |
| 2025-04-28T23:12:00 | 53.861000 | 7.672388 | 2.0 | 9.457 | 2 | 34.850 | 9.627 | 32.030 | 2 |
| 2025-04-28T23:13:00 | 53.861379 | 7.675101 | 2.0 | 9.453 | 2 | 34.969 | 9.626 | 32.152 | 2 |
| 2025-04-28T23:14:00 | 53.861750 | 7.677800 | 2.0 | 9.446 | 2 | 34.961 | 9.621 | 32.148 | 2 |
| 2025-04-28T23:15:00 | 53.862089 | 7.680502 | 2.0 | 9.441 | 2 | 34.965 | 9.615 | 32.158 | 2 |
| 2025-04-28T23:16:00 | 53.862430 | 7.683199 | 2.0 | 9.436 | 2 | 35.040 | 9.609 | 32.240 | 2 |
| 2025-04-28T23:17:00 | 53.862768 | 7.685888 | 2.0 | 9.430 | 2 | 34.993 | 9.604 | 32.196 | 2 |
| 2025-04-28T23:18:00 | 53.863082 | 7.688580 | 2.0 | 9.421 | 2 | 34.986 | 9.598 | 32.195 | 2 |
| 2025-04-28T23:19:00 | 53.863374 | 7.691277 | 2.0 | 9.413 | 2 | 34.973 | 9.588 | 32.190 | 2 |
| 2025-04-28T23:20:00 | 53.863672 | 7.693964 | 2.0 | 9.404 | 2 | 34.989 | 9.580 | 32.214 | 2 |
| 2025-04-28T23:21:00 | 53.863991 | 7.696644 | 2.0 | 9.392 | 2 | 34.966 | 9.571 | 32.198 | 2 |
| 2025-04-28T23:22:00 | 53.864320 | 7.699321 | 2.0 | 9.380 | 2 | 34.991 | 9.560 | 32.234 | 2 |
| 2025-04-28T23:23:00 | 53.864640 | 7.702002 | 2.0 | 9.367 | 2 | 34.987 | 9.547 | 32.241 | 2 |
| 2025-04-28T23:24:00 | 53.864947 | 7.704681 | 2.0 | 9.353 | 2 | 35.022 | 9.534 | 32.289 | 2 |
| 2025-04-28T23:25:00 | 53.865240 | 7.707362 | 2.0 | 9.335 | 2 | 34.976 | 9.521 | 32.254 | 2 |
| 2025-04-28T23:26:00 | 53.865530 | 7.710041 | 2.0 | 9.322 | 2 | 34.931 | 9.503 | 32.224 | 2 |
| 2025-04-28T23:27:00 | 53.865829 | 7.712713 | 2.0 | 9.311 | 2 | 34.958 | 9.490 | 32.263 | 2 |
| 2025-04-28T23:28:00 | 53.866137 | 7.715383 | 2.0 | 9.303 | 2 | 34.962 | 9.480 | 32.276 | 2 |
| 2025-04-28T23:29:00 | 53.866467 | 7.718041 | 2.0 | 9.292 | 2 | 34.947 | 9.470 | 32.270 | 2 |
| 2025-04-28T23:30:00 | 53.866785 | 7.720701 | 2.0 | 9.285 | 2 | 34.988 | 9.460 | 32.321 | 2 |
| 2025-04-28T23:31:00 | 53.867093 | 7.723355 | 2.0 | 9.275 | 2 | 34.974 | 9.453 | 32.313 | 2 |
| 2025-04-28T23:32:00 | 53.867395 | 7.726007 | 2.0 | 9.269 | 2 | 34.943 | 9.444 | 32.289 | 2 |
| 2025-04-28T23:33:00 | 53.867693 | 7.728653 | 2.0 | 9.262 | 2 | 35.009 | 9.439 | 32.361 | 2 |
| 2025-04-28T23:34:00 | 53.867993 | 7.731286 | 2.0 | 9.262 | 2 | 35.000 | 9.432 | 32.358 | 2 |
| 2025-04-28T23:35:00 | 53.868313 | 7.733909 | 2.0 | 9.259 | 2 | 35.007 | 9.432 | 32.366 | 2 |
| 2025-04-28T23:36:00 | 53.868618 | 7.736532 | 2.0 | 9.256 | 2 | 34.973 | 9.428 | 32.334 | 2 |
| 2025-04-28T23:37:00 | 53.868912 | 7.739213 | 2.0 | 9.254 | 2 | 34.987 | 9.425 | 32.351 | 2 |
| 2025-04-28T23:38:00 | 53.869232 | 7.741967 | 2.0 | 9.251 | 2 | 35.018 | 9.424 | 32.384 | 2 |
| 2025-04-28T23:39:00 | 53.869558 | 7.744761 | 2.0 | 9.248 | 2 | 35.013 | 9.420 | 32.383 | 2 |
| 2025-04-28T23:40:00 | 53.869878 | 7.747588 | 2.0 | 9.244 | 2 | 35.030 | 9.417 | 32.403 | 2 |
| 2025-04-28T23:41:00 | 53.870200 | 7.750429 | 2.0 | 9.241 | 2 | 35.011 | 9.413 | 32.387 | 2 |
| 2025-04-28T23:42:00 | 53.870525 | 7.753274 | 2.0 | 9.237 | 2 | 35.029 | 9.411 | 32.407 | 2 |
| 2025-04-28T23:43:00 | 53.870861 | 7.756114 | 2.0 | 9.232 | 2 | 35.030 | 9.407 | 32.412 | 2 |
| 2025-04-28T23:44:00 | 53.871203 | 7.758944 | 2.0 | 9.229 | 2 | 35.029 | 9.400 | 32.417 | 2 |
| 2025-04-28T23:45:00 | 53.871533 | 7.761788 | 2.0 | 9.223 | 2 | 35.044 | 9.398 | 32.434 | 2 |
| 2025-04-28T23:46:00 | 53.871846 | 7.764633 | 2.0 | 9.217 | 2 | 35.048 | 9.393 | 32.443 | 2 |
| 2025-04-28T23:47:00 | 53.872176 | 7.767468 | 2.0 | 9.210 | 2 | 35.049 | 9.386 | 32.450 | 2 |
| 2025-04-28T23:48:00 | 53.872514 | 7.770300 | 2.0 | 9.199 | 2 | 35.046 | 9.378 | 32.455 | 2 |
| 2025-04-28T23:49:00 | 53.872831 | 7.773127 | 2.0 | 9.191 | 2 | 35.044 | 9.367 | 32.463 | 2 |
| 2025-04-28T23:50:00 | 53.872989 | 7.775974 | 2.0 | 9.197 | 2 | 35.041 | 9.360 | 32.466 | 2 |
| 2025-04-28T23:51:00 | 53.872979 | 7.778818 | 2.0 | 9.203 | 2 | 35.050 | 9.368 | 32.468 | 2 |
| 2025-04-28T23:52:00 | 53.872706 | 7.781586 | 2.0 | 9.206 | 2 | 35.057 | 9.372 | 32.471 | 2 |
| 2025-04-28T23:53:00 | 53.872342 | 7.784313 | 2.0 | 9.212 | 2 | 35.063 | 9.377 | 32.473 | 2 |
| 2025-04-28T23:54:00 | 53.872062 | 7.787080 | 2.0 | 9.218 | 2 | 35.069 | 9.383 | 32.474 | 2 |
| 2025-04-28T23:55:00 | 53.871776 | 7.789843 | 2.0 | 9.220 | 2 | 35.074 | 9.387 | 32.475 | 2 |
| 2025-04-28T23:56:00 | 53.871456 | 7.792598 | 2.0 | 9.228 | 2 | 35.078 | 9.390 | 32.477 | 2 |
| 2025-04-28T23:57:00 | 53.871128 | 7.795336 | 2.0 | 9.232 | 2 | 35.087 | 9.398 | 32.479 | 2 |
| 2025-04-28T23:58:00 | 53.870803 | 7.798072 | 2.0 | 9.236 | 2 | 35.093 | 9.402 | 32.481 | 2 |
| 2025-04-28T23:59:00 | 53.870498 | 7.800814 | 2.0 | 9.244 | 2 | 35.099 | 9.405 | 32.485 | 2 |
| 2025-04-29T00:00:00 | 53.870198 | 7.803552 | 2.0 | 9.250 | 2 | 35.108 | 9.414 | 32.486 | 2 |
| 2025-04-29T00:01:00 | 53.869893 | 7.806271 | 2.0 | 9.250 | 2 | 35.116 | 9.419 | 32.489 | 2 |
| 2025-04-29T00:02:00 | 53.869580 | 7.808973 | 2.0 | 9.251 | 2 | 35.119 | 9.419 | 32.492 | 2 |
| 2025-04-29T00:03:00 | 53.869264 | 7.811675 | 2.0 | 9.254 | 2 | 35.122 | 9.420 | 32.495 | 2 |
| 2025-04-29T00:04:00 | 53.868965 | 7.814385 | 2.0 | 9.256 | 2 | 35.130 | 9.424 | 32.499 | 2 |
| 2025-04-29T00:05:00 | 53.868654 | 7.817086 | 2.0 | 9.256 | 2 | 35.135 | 9.425 | 32.503 | 2 |
| 2025-04-29T00:06:00 | 53.868333 | 7.819764 | 2.0 | 9.259 | 2 | 35.139 | 9.425 | 32.508 | 2 |
| 2025-04-29T00:07:00 | 53.868021 | 7.822451 | 2.0 | 9.264 | 2 | 35.147 | 9.429 | 32.512 | 2 |
| 2025-04-29T00:08:00 | 53.867719 | 7.825131 | 2.0 | 9.265 | 2 | 35.154 | 9.432 | 32.517 | 2 |
| 2025-04-29T00:09:00 | 53.867419 | 7.827805 | 2.0 | 9.263 | 2 | 35.160 | 9.433 | 32.522 | 2 |
| 2025-04-29T00:10:00 | 53.867110 | 7.830469 | 2.0 | 9.266 | 2 | 35.161 | 9.432 | 32.524 | 2 |
| 2025-04-29T00:11:00 | 53.866806 | 7.833126 | 2.0 | 9.267 | 2 | 35.165 | 9.434 | 32.526 | 2 |
| 2025-04-29T00:12:00 | 53.866488 | 7.835776 | 2.0 | 9.263 | 2 | 35.172 | 9.435 | 32.532 | 2 |
| 2025-04-29T00:13:00 | 53.866166 | 7.838419 | 2.0 | 9.262 | 2 | 35.172 | 9.432 | 32.535 | 2 |
| 2025-04-29T00:14:00 | 53.865868 | 7.841064 | 2.0 | 9.261 | 2 | 35.175 | 9.430 | 32.540 | 2 |
| 2025-04-29T00:15:00 | 53.865587 | 7.843700 | 2.0 | 9.259 | 2 | 35.177 | 9.429 | 32.543 | 2 |
| 2025-04-29T00:16:00 | 53.865285 | 7.846319 | 2.0 | 9.257 | 2 | 35.178 | 9.427 | 32.546 | 2 |
| 2025-04-29T00:17:00 | 53.864969 | 7.848918 | 2.0 | 9.252 | 2 | 35.179 | 9.424 | 32.550 | 2 |
| 2025-04-29T00:18:00 | 53.864666 | 7.851521 | 2.0 | 9.248 | 2 | 35.178 | 9.421 | 32.551 | 2 |
| 2025-04-29T00:19:00 | 53.864380 | 7.854122 | 2.0 | 9.241 | 2 | 35.175 | 9.415 | 32.554 | 2 |
| 2025-04-29T00:20:00 | 53.864082 | 7.856706 | 2.0 | 9.239 | 2 | 35.171 | 9.410 | 32.554 | 2 |
| 2025-04-29T00:21:00 | 53.863781 | 7.859273 | 2.0 | 9.232 | 2 | 35.169 | 9.406 | 32.556 | 2 |
| 2025-04-29T00:22:00 | 53.863489 | 7.861836 | 2.0 | 9.223 | 2 | 35.164 | 9.399 | 32.557 | 2 |
| 2025-04-29T00:23:00 | 53.863193 | 7.864468 | 2.0 | 9.216 | 2 | 35.157 | 9.390 | 32.558 | 2 |
| 2025-04-29T00:24:00 | 53.862876 | 7.867171 | 2.0 | 9.211 | 2 | 35.150 | 9.385 | 32.555 | 2 |
| 2025-04-29T00:25:00 | 53.862554 | 7.869903 | 2.0 | 9.204 | 2 | 35.144 | 9.378 | 32.555 | 2 |
| 2025-04-29T00:26:00 | 53.862238 | 7.872660 | 2.0 | 9.194 | 2 | 35.139 | 9.373 | 32.555 | 2 |
| 2025-04-29T00:27:00 | 53.861921 | 7.875420 | 2.0 | 9.172 | 2 | 35.130 | 9.360 | 32.557 | 2 |
| 2025-04-29T00:28:00 | 53.861612 | 7.878184 | 2.0 | 9.166 | 2 | 35.114 | 9.341 | 32.558 | 2 |
| 2025-04-29T00:29:00 | 53.861279 | 7.880937 | 2.0 | 9.160 | 2 | 35.108 | 9.335 | 32.557 | 2 |
| 2025-04-29T00:30:00 | 53.860946 | 7.883687 | 2.0 | 9.151 | 2 | 35.103 | 9.329 | 32.558 | 2 |
| 2025-04-29T00:31:00 | 53.860627 | 7.886438 | 2.0 | 9.147 | 2 | 35.097 | 9.320 | 32.560 | 2 |
| 2025-04-29T00:32:00 | 53.860321 | 7.889184 | 2.0 | 9.143 | 2 | 35.093 | 9.316 | 32.559 | 2 |
| 2025-04-29T00:33:00 | 53.860020 | 7.891938 | 2.0 | 9.140 | 2 | 35.086 | 9.311 | 32.557 | 2 |
| 2025-04-29T00:34:00 | 53.859713 | 7.894673 | 2.0 | 9.137 | 2 | 35.087 | 9.308 | 32.560 | 2 |
| 2025-04-29T00:35:00 | 53.859384 | 7.897417 | 2.0 | 9.132 | 2 | 35.086 | 9.305 | 32.562 | 2 |
| 2025-04-29T00:36:00 | 53.859065 | 7.900170 | 2.0 | 9.129 | 2 | 35.085 | 9.301 | 32.565 | 2 |
| 2025-04-29T00:37:00 | 53.858756 | 7.902928 | 2.0 | 9.124 | 2 | 35.086 | 9.297 | 32.569 | 2 |
| 2025-04-29T00:38:00 | 53.858447 | 7.905667 | 2.0 | 9.122 | 2 | 35.087 | 9.293 | 32.574 | 2 |
| 2025-04-29T00:39:00 | 53.858125 | 7.908386 | 2.0 | 9.124 | 2 | 35.089 | 9.292 | 32.577 | 2 |
| 2025-04-29T00:40:00 | 53.857807 | 7.911087 | 2.0 | 9.118 | 2 | 35.090 | 9.292 | 32.578 | 2 |
| 2025-04-29T00:41:00 | 53.857502 | 7.913774 | 2.0 | 9.114 | 2 | 35.088 | 9.287 | 32.581 | 2 |
| 2025-04-29T00:42:00 | 53.857207 | 7.916481 | 2.0 | 9.114 | 2 | 35.084 | 9.284 | 32.579 | 2 |
| 2025-04-29T00:43:00 | 53.856894 | 7.919197 | 2.0 | 9.114 | 2 | 35.087 | 9.283 | 32.583 | 2 |
| 2025-04-29T00:44:00 | 53.856604 | 7.921924 | 2.0 | 9.119 | 2 | 35.091 | 9.284 | 32.586 | 2 |
| 2025-04-29T00:45:00 | 53.856322 | 7.924651 | 2.0 | 9.121 | 2 | 35.098 | 9.288 | 32.590 | 2 |
| 2025-04-29T00:46:00 | 53.856027 | 7.927360 | 2.0 | 9.121 | 2 | 35.102 | 9.289 | 32.593 | 2 |
| 2025-04-29T00:47:00 | 53.855756 | 7.930065 | 2.0 | 9.117 | 2 | 35.103 | 9.289 | 32.594 | 2 |
| 2025-04-29T00:48:00 | 53.855466 | 7.932757 | 2.0 | 9.122 | 2 | 35.103 | 9.287 | 32.596 | 2 |
| 2025-04-29T00:49:00 | 53.855184 | 7.935444 | 2.0 | 9.119 | 2 | 35.107 | 9.290 | 32.597 | 2 |
| 2025-04-29T00:50:00 | 53.854916 | 7.938136 | 2.0 | 9.119 | 2 | 35.107 | 9.289 | 32.598 | 2 |
| 2025-04-29T00:51:00 | 53.854643 | 7.940824 | 2.0 | 9.110 | 2 | 35.107 | 9.286 | 32.601 | 2 |
| 2025-04-29T00:52:00 | 53.854343 | 7.943500 | 2.0 | 9.103 | 2 | 35.101 | 9.279 | 32.601 | 2 |
| 2025-04-29T00:53:00 | 53.854090 | 7.946185 | 2.0 | 9.099 | 2 | 35.097 | 9.272 | 32.604 | 2 |
| 2025-04-29T00:54:00 | 53.853849 | 7.948867 | 2.0 | 9.091 | 2 | 35.094 | 9.267 | 32.605 | 2 |
| 2025-04-29T00:55:00 | 53.853581 | 7.951528 | 2.0 | 9.095 | 2 | 35.089 | 9.262 | 32.604 | 2 |
| 2025-04-29T00:56:00 | 53.853341 | 7.954195 | 2.0 | 9.084 | 2 | 35.088 | 9.265 | 32.601 | 2 |
